<?xml version='1.0' encoding='UTF-8'?><gpx version="1.1" creator="JPX - https://github.com/jenetics/jpx" xmlns="http://www.topografix.com/GPX/1/1"><trk><trkseg><trkpt lat="43.8668868" lon="12.7297302"><ele>113.0</ele><time>2026-04-04T11:34:24.686Z</time></trkpt><trkpt lat="43.8670989" lon="12.7298353"><ele>113.0</ele><time>2026-04-04T11:34:26.685Z</time></trkpt><trkpt lat="43.8672121" lon="12.7298906"><ele>113.0</ele><time>2026-04-04T11:34:27.688Z</time></trkpt><trkpt lat="43.867329" lon="12.7299451"><ele>113.0</ele><time>2026-04-04T11:34:28.687Z</time></trkpt><trkpt lat="43.8674468" lon="12.7300028"><ele>113.0</ele><time>2026-04-04T11:34:29.687Z</time></trkpt><trkpt lat="43.8675656" lon="12.730057"><ele>113.0</ele><time>2026-04-04T11:34:30.687Z</time></trkpt><trkpt lat="43.8676841" lon="12.7301105"><ele>113.0</ele><time>2026-04-04T11:34:31.688Z</time></trkpt><trkpt lat="43.867801" lon="12.7301704"><ele>113.25</ele><time>2026-04-04T11:34:32.687Z</time></trkpt><trkpt lat="43.8679161" lon="12.7302293"><ele>113.5</ele><time>2026-04-04T11:34:33.686Z</time></trkpt><trkpt lat="43.8680308" lon="12.7302926"><ele>113.75</ele><time>2026-04-04T11:34:34.688Z</time></trkpt><trkpt lat="43.8681427" lon="12.7303579"><ele>114.0</ele><time>2026-04-04T11:34:35.688Z</time></trkpt><trkpt lat="43.8682528" lon="12.7304294"><ele>114.0</ele><time>2026-04-04T11:34:36.688Z</time></trkpt><trkpt lat="43.8683623" lon="12.7305129"><ele>114.0</ele><time>2026-04-04T11:34:37.689Z</time></trkpt><trkpt lat="43.8684693" lon="12.7306048"><ele>114.0</ele><time>2026-04-04T11:34:38.686Z</time></trkpt><trkpt lat="43.8685757" lon="12.7307051"><ele>114.0</ele><time>2026-04-04T11:34:39.686Z</time></trkpt><trkpt lat="43.8686808" lon="12.7308147"><ele>115.5</ele><time>2026-04-04T11:34:40.688Z</time></trkpt><trkpt lat="43.8687814" lon="12.7309342"><ele>117.0</ele><time>2026-04-04T11:34:41.687Z</time></trkpt><trkpt lat="43.8688779" lon="12.7310627"><ele>118.5</ele><time>2026-04-04T11:34:42.688Z</time></trkpt><trkpt lat="43.8689669" lon="12.7311937"><ele>120.0</ele><time>2026-04-04T11:34:43.688Z</time></trkpt><trkpt lat="43.8690472" lon="12.7313159"><ele>120.0</ele><time>2026-04-04T11:34:44.686Z</time></trkpt><trkpt lat="43.8691149" lon="12.7314268"><ele>120.0</ele><time>2026-04-04T11:34:45.687Z</time></trkpt><trkpt lat="43.8691731" lon="12.7315184"><ele>120.0</ele><time>2026-04-04T11:34:46.688Z</time></trkpt><trkpt lat="43.8692223" lon="12.731589"><ele>120.0</ele><time>2026-04-04T11:34:47.688Z</time></trkpt><trkpt lat="43.8693005" lon="12.7316293"><ele>120.0</ele><time>2026-04-04T11:34:49.688Z</time></trkpt><trkpt lat="43.8693838" lon="12.731513"><ele>119.4</ele><time>2026-04-04T11:34:51.687Z</time></trkpt><trkpt lat="43.869444" lon="12.7313932"><ele>118.8</ele><time>2026-04-04T11:34:52.688Z</time></trkpt><trkpt lat="43.8695093" lon="12.7312705"><ele>118.19999999999999</ele><time>2026-04-04T11:34:53.687Z</time></trkpt><trkpt lat="43.8695768" lon="12.7311506"><ele>117.6</ele><time>2026-04-04T11:34:54.688Z</time></trkpt><trkpt lat="43.8696468" lon="12.7310273"><ele>117.0</ele><time>2026-04-04T11:34:55.688Z</time></trkpt><trkpt lat="43.8697173" lon="12.7309034"><ele>116.75</ele><time>2026-04-04T11:34:56.686Z</time></trkpt><trkpt lat="43.869789" lon="12.7307792"><ele>116.5</ele><time>2026-04-04T11:34:57.686Z</time></trkpt><trkpt lat="43.8698607" lon="12.7306566"><ele>116.25</ele><time>2026-04-04T11:34:58.687Z</time></trkpt><trkpt lat="43.8699299" lon="12.7305302"><ele>116.0</ele><time>2026-04-04T11:34:59.686Z</time></trkpt><trkpt lat="43.8700019" lon="12.7303933"><ele>116.0</ele><time>2026-04-04T11:35:00.687Z</time></trkpt><trkpt lat="43.8700837" lon="12.7302541"><ele>116.0</ele><time>2026-04-04T11:35:01.688Z</time></trkpt><trkpt lat="43.8701695" lon="12.7301169"><ele>116.0</ele><time>2026-04-04T11:35:02.687Z</time></trkpt><trkpt lat="43.8702596" lon="12.7299788"><ele>116.0</ele><time>2026-04-04T11:35:03.688Z</time></trkpt><trkpt lat="43.8703516" lon="12.7298345"><ele>114.5</ele><time>2026-04-04T11:35:04.688Z</time></trkpt><trkpt lat="43.8704427" lon="12.7296855"><ele>113.0</ele><time>2026-04-04T11:35:05.688Z</time></trkpt><trkpt lat="43.8705302" lon="12.7295437"><ele>111.5</ele><time>2026-04-04T11:35:06.688Z</time></trkpt><trkpt lat="43.8706126" lon="12.7294083"><ele>110.0</ele><time>2026-04-04T11:35:07.688Z</time></trkpt><trkpt lat="43.8706949" lon="12.7292743"><ele>110.0</ele><time>2026-04-04T11:35:08.686Z</time></trkpt><trkpt lat="43.8707769" lon="12.7291378"><ele>110.0</ele><time>2026-04-04T11:35:09.686Z</time></trkpt><trkpt lat="43.8708597" lon="12.7289953"><ele>110.0</ele><time>2026-04-04T11:35:10.688Z</time></trkpt><trkpt lat="43.8709398" lon="12.7288419"><ele>110.0</ele><time>2026-04-04T11:35:11.687Z</time></trkpt><trkpt lat="43.8710122" lon="12.7286748"><ele>108.33333333333333</ele><time>2026-04-04T11:35:12.688Z</time></trkpt><trkpt lat="43.8710777" lon="12.7284961"><ele>106.66666666666666</ele><time>2026-04-04T11:35:13.688Z</time></trkpt><trkpt lat="43.8711402" lon="12.7283053"><ele>105.0</ele><time>2026-04-04T11:35:14.685Z</time></trkpt><trkpt lat="43.8712028" lon="12.728109"><ele>105.0</ele><time>2026-04-04T11:35:15.687Z</time></trkpt><trkpt lat="43.8712663" lon="12.7279141"><ele>105.0</ele><time>2026-04-04T11:35:16.687Z</time></trkpt><trkpt lat="43.8713294" lon="12.7277231"><ele>105.0</ele><time>2026-04-04T11:35:17.688Z</time></trkpt><trkpt lat="43.8713926" lon="12.727536"><ele>105.25</ele><time>2026-04-04T11:35:18.688Z</time></trkpt><trkpt lat="43.8714562" lon="12.7273522"><ele>105.5</ele><time>2026-04-04T11:35:19.689Z</time></trkpt><trkpt lat="43.8715206" lon="12.7271709"><ele>105.75</ele><time>2026-04-04T11:35:20.686Z</time></trkpt><trkpt lat="43.8715814" lon="12.7269977"><ele>106.0</ele><time>2026-04-04T11:35:21.687Z</time></trkpt><trkpt lat="43.8716396" lon="12.7268355"><ele>106.19999999999999</ele><time>2026-04-04T11:35:22.688Z</time></trkpt><trkpt lat="43.8716976" lon="12.7266846"><ele>106.39999999999999</ele><time>2026-04-04T11:35:23.692Z</time></trkpt><trkpt lat="43.8717531" lon="12.7265517"><ele>106.6</ele><time>2026-04-04T11:35:24.689Z</time></trkpt><trkpt lat="43.8718038" lon="12.7264308"><ele>106.8</ele><time>2026-04-04T11:35:25.691Z</time></trkpt><trkpt lat="43.871845" lon="12.7263352"><ele>107.0</ele><time>2026-04-04T11:35:26.689Z</time></trkpt><trkpt lat="43.8719007" lon="12.726214"><ele>107.33333333333333</ele><time>2026-04-04T11:35:28.687Z</time></trkpt><trkpt lat="43.8719531" lon="12.7261076"><ele>107.66666666666666</ele><time>2026-04-04T11:35:31.689Z</time></trkpt><trkpt lat="43.8720249" lon="12.7259944"><ele>108.0</ele><time>2026-04-04T11:35:33.687Z</time></trkpt><trkpt lat="43.872077" lon="12.7259278"><ele>108.33333333333334</ele><time>2026-04-04T11:35:34.687Z</time></trkpt><trkpt lat="43.8721417" lon="12.7258589"><ele>108.66666666666667</ele><time>2026-04-04T11:35:35.687Z</time></trkpt><trkpt lat="43.8722169" lon="12.7257945"><ele>109.0</ele><time>2026-04-04T11:35:36.689Z</time></trkpt><trkpt lat="43.8723019" lon="12.7257441"><ele>109.0</ele><time>2026-04-04T11:35:37.689Z</time></trkpt><trkpt lat="43.8723981" lon="12.7257045"><ele>109.0</ele><time>2026-04-04T11:35:38.687Z</time></trkpt><trkpt lat="43.8724993" lon="12.7256723"><ele>109.0</ele><time>2026-04-04T11:35:39.686Z</time></trkpt><trkpt lat="43.872601" lon="12.7256417"><ele>109.0</ele><time>2026-04-04T11:35:40.688Z</time></trkpt><trkpt lat="43.8727016" lon="12.7256094"><ele>109.0</ele><time>2026-04-04T11:35:41.692Z</time></trkpt><trkpt lat="43.872796" lon="12.7255689"><ele>107.6</ele><time>2026-04-04T11:35:42.689Z</time></trkpt><trkpt lat="43.8728863" lon="12.7255154"><ele>106.2</ele><time>2026-04-04T11:35:43.69Z</time></trkpt><trkpt lat="43.8729798" lon="12.7254434"><ele>104.8</ele><time>2026-04-04T11:35:44.685Z</time></trkpt><trkpt lat="43.8730792" lon="12.7253614"><ele>103.39999999999999</ele><time>2026-04-04T11:35:45.689Z</time></trkpt><trkpt lat="43.8731836" lon="12.7252761"><ele>102.0</ele><time>2026-04-04T11:35:46.689Z</time></trkpt><trkpt lat="43.873292" lon="12.725185"><ele>102.0</ele><time>2026-04-04T11:35:47.688Z</time></trkpt><trkpt lat="43.8734036" lon="12.7250867"><ele>102.0</ele><time>2026-04-04T11:35:48.689Z</time></trkpt><trkpt lat="43.8735155" lon="12.7249817"><ele>102.0</ele><time>2026-04-04T11:35:49.689Z</time></trkpt><trkpt lat="43.8736199" lon="12.7248812"><ele>102.0</ele><time>2026-04-04T11:35:50.688Z</time></trkpt><trkpt lat="43.873713" lon="12.7247854"><ele>101.8</ele><time>2026-04-04T11:35:51.689Z</time></trkpt><trkpt lat="43.8737926" lon="12.7247045"><ele>101.6</ele><time>2026-04-04T11:35:52.689Z</time></trkpt><trkpt lat="43.8738506" lon="12.7246465"><ele>101.39999999999999</ele><time>2026-04-04T11:35:53.688Z</time></trkpt><trkpt lat="43.8737914" lon="12.7245254"><ele>101.19999999999999</ele><time>2026-04-04T11:36:31.689Z</time></trkpt><trkpt lat="43.8737271" lon="12.7244275"><ele>101.0</ele><time>2026-04-04T11:36:33.687Z</time></trkpt><trkpt lat="43.8736557" lon="12.7242968"><ele>101.33333333333333</ele><time>2026-04-04T11:36:35.688Z</time></trkpt><trkpt lat="43.8736209" lon="12.7242227"><ele>101.66666666666666</ele><time>2026-04-04T11:36:36.686Z</time></trkpt><trkpt lat="43.8735552" lon="12.7240801"><ele>102.0</ele><time>2026-04-04T11:36:38.685Z</time></trkpt><trkpt lat="43.8735258" lon="12.724001"><ele>102.33333333333334</ele><time>2026-04-04T11:36:39.687Z</time></trkpt><trkpt lat="43.8735003" lon="12.7239151"><ele>102.66666666666667</ele><time>2026-04-04T11:36:40.689Z</time></trkpt><trkpt lat="43.8734721" lon="12.7238261"><ele>103.0</ele><time>2026-04-04T11:36:41.685Z</time></trkpt><trkpt lat="43.8734409" lon="12.7237383"><ele>102.2</ele><time>2026-04-04T11:36:42.687Z</time></trkpt><trkpt lat="43.8734079" lon="12.7236596"><ele>101.4</ele><time>2026-04-04T11:36:43.688Z</time></trkpt><trkpt lat="43.8733393" lon="12.7235326"><ele>100.60000000000001</ele><time>2026-04-04T11:36:45.687Z</time></trkpt><trkpt lat="43.8732504" lon="12.7234101"><ele>99.80000000000001</ele><time>2026-04-04T11:36:47.687Z</time></trkpt><trkpt lat="43.8731973" lon="12.7233381"><ele>99.0</ele><time>2026-04-04T11:36:48.69Z</time></trkpt><trkpt lat="43.8731406" lon="12.7232634"><ele>98.71428571428572</ele><time>2026-04-04T11:36:49.689Z</time></trkpt><trkpt lat="43.8730849" lon="12.7231924"><ele>98.42857142857142</ele><time>2026-04-04T11:36:50.691Z</time></trkpt><trkpt lat="43.8730301" lon="12.7231214"><ele>98.14285714285714</ele><time>2026-04-04T11:36:51.686Z</time></trkpt><trkpt lat="43.8729789" lon="12.7230549"><ele>97.85714285714286</ele><time>2026-04-04T11:36:52.689Z</time></trkpt><trkpt lat="43.8729287" lon="12.7229884"><ele>97.57142857142858</ele><time>2026-04-04T11:36:53.685Z</time></trkpt><trkpt lat="43.8728772" lon="12.7229196"><ele>97.28571428571428</ele><time>2026-04-04T11:36:54.687Z</time></trkpt><trkpt lat="43.872824" lon="12.7228532"><ele>97.0</ele><time>2026-04-04T11:36:55.691Z</time></trkpt><trkpt lat="43.8727706" lon="12.7227867"><ele>96.14285714285714</ele><time>2026-04-04T11:36:56.688Z</time></trkpt><trkpt lat="43.8727171" lon="12.7227183"><ele>95.28571428571429</ele><time>2026-04-04T11:36:57.686Z</time></trkpt><trkpt lat="43.8726608" lon="12.7226471"><ele>94.42857142857143</ele><time>2026-04-04T11:36:58.69Z</time></trkpt><trkpt lat="43.8726029" lon="12.7225805"><ele>93.57142857142857</ele><time>2026-04-04T11:36:59.686Z</time></trkpt><trkpt lat="43.8725429" lon="12.7225155"><ele>92.71428571428572</ele><time>2026-04-04T11:37:00.686Z</time></trkpt><trkpt lat="43.8724811" lon="12.7224536"><ele>91.85714285714286</ele><time>2026-04-04T11:37:01.689Z</time></trkpt><trkpt lat="43.8724231" lon="12.7223962"><ele>91.0</ele><time>2026-04-04T11:37:02.686Z</time></trkpt><trkpt lat="43.8723708" lon="12.7223398"><ele>89.83333333333333</ele><time>2026-04-04T11:37:03.687Z</time></trkpt><trkpt lat="43.8723226" lon="12.7222822"><ele>88.66666666666666</ele><time>2026-04-04T11:37:04.688Z</time></trkpt><trkpt lat="43.8722761" lon="12.7222208"><ele>87.5</ele><time>2026-04-04T11:37:05.688Z</time></trkpt><trkpt lat="43.87223" lon="12.7221602"><ele>86.33333333333333</ele><time>2026-04-04T11:37:06.688Z</time></trkpt><trkpt lat="43.8721467" lon="12.7220355"><ele>85.16666666666667</ele><time>2026-04-04T11:37:08.687Z</time></trkpt><trkpt lat="43.8720625" lon="12.7219058"><ele>84.0</ele><time>2026-04-04T11:37:10.689Z</time></trkpt><trkpt lat="43.8720172" lon="12.7218374"><ele>82.57142857142857</ele><time>2026-04-04T11:37:11.688Z</time></trkpt><trkpt lat="43.8719705" lon="12.7217686"><ele>81.14285714285714</ele><time>2026-04-04T11:37:12.688Z</time></trkpt><trkpt lat="43.871922" lon="12.7217048"><ele>79.71428571428572</ele><time>2026-04-04T11:37:13.688Z</time></trkpt><trkpt lat="43.8718694" lon="12.7216472"><ele>78.28571428571428</ele><time>2026-04-04T11:37:14.686Z</time></trkpt><trkpt lat="43.8718129" lon="12.7215914"><ele>76.85714285714286</ele><time>2026-04-04T11:37:15.686Z</time></trkpt><trkpt lat="43.8717486" lon="12.721542"><ele>75.42857142857143</ele><time>2026-04-04T11:37:16.689Z</time></trkpt><trkpt lat="43.8716797" lon="12.7214972"><ele>74.0</ele><time>2026-04-04T11:37:17.69Z</time></trkpt><trkpt lat="43.8716034" lon="12.7214603"><ele>73.16666666666667</ele><time>2026-04-04T11:37:18.688Z</time></trkpt><trkpt lat="43.8715212" lon="12.7214274"><ele>72.33333333333334</ele><time>2026-04-04T11:37:19.691Z</time></trkpt><trkpt lat="43.8714318" lon="12.7213941"><ele>71.5</ele><time>2026-04-04T11:37:20.687Z</time></trkpt><trkpt lat="43.8713409" lon="12.7213666"><ele>70.66666666666667</ele><time>2026-04-04T11:37:21.686Z</time></trkpt><trkpt lat="43.8712584" lon="12.7213437"><ele>69.83333333333333</ele><time>2026-04-04T11:37:22.688Z</time></trkpt><trkpt lat="43.8711784" lon="12.7213253"><ele>69.0</ele><time>2026-04-04T11:37:23.69Z</time></trkpt><trkpt lat="43.871103" lon="12.7213135"><ele>69.0</ele><time>2026-04-04T11:37:24.688Z</time></trkpt><trkpt lat="43.8710272" lon="12.7213126"><ele>69.0</ele><time>2026-04-04T11:37:25.691Z</time></trkpt><trkpt lat="43.8709415" lon="12.7213212"><ele>69.0</ele><time>2026-04-04T11:37:26.69Z</time></trkpt><trkpt lat="43.8708531" lon="12.7213305"><ele>69.0</ele><time>2026-04-04T11:37:27.689Z</time></trkpt><trkpt lat="43.8707726" lon="12.7213326"><ele>69.0</ele><time>2026-04-04T11:37:28.689Z</time></trkpt><trkpt lat="43.8706929" lon="12.7213259"><ele>69.0</ele><time>2026-04-04T11:37:29.689Z</time></trkpt><trkpt lat="43.8706148" lon="12.7213099"><ele>68.0</ele><time>2026-04-04T11:37:30.688Z</time></trkpt><trkpt lat="43.8705454" lon="12.7212929"><ele>67.0</ele><time>2026-04-04T11:37:31.689Z</time></trkpt><trkpt lat="43.8704544" lon="12.7212623"><ele>66.0</ele><time>2026-04-04T11:37:33.688Z</time></trkpt><trkpt lat="43.8704103" lon="12.7211755"><ele>65.0</ele><time>2026-04-04T11:37:39.689Z</time></trkpt><trkpt lat="43.8703891" lon="12.7210911"><ele>64.0</ele><time>2026-04-04T11:37:40.689Z</time></trkpt><trkpt lat="43.8703625" lon="12.7209717"><ele>63.0</ele><time>2026-04-04T11:37:41.689Z</time></trkpt><trkpt lat="43.8703331" lon="12.7208164"><ele>62.5</ele><time>2026-04-04T11:37:42.688Z</time></trkpt><trkpt lat="43.8702996" lon="12.7206467"><ele>62.0</ele><time>2026-04-04T11:37:43.691Z</time></trkpt><trkpt lat="43.8702637" lon="12.7204759"><ele>61.5</ele><time>2026-04-04T11:37:44.689Z</time></trkpt><trkpt lat="43.8702233" lon="12.7203075"><ele>61.0</ele><time>2026-04-04T11:37:45.69Z</time></trkpt><trkpt lat="43.8701784" lon="12.7201441"><ele>61.0</ele><time>2026-04-04T11:37:46.688Z</time></trkpt><trkpt lat="43.8701314" lon="12.7199813"><ele>61.0</ele><time>2026-04-04T11:37:47.687Z</time></trkpt><trkpt lat="43.8700814" lon="12.7198214"><ele>61.0</ele><time>2026-04-04T11:37:48.689Z</time></trkpt><trkpt lat="43.870027" lon="12.7196661"><ele>61.0</ele><time>2026-04-04T11:37:49.692Z</time></trkpt><trkpt lat="43.8699716" lon="12.7195148"><ele>61.599999999999994</ele><time>2026-04-04T11:37:50.687Z</time></trkpt><trkpt lat="43.8699175" lon="12.7193748"><ele>62.199999999999996</ele><time>2026-04-04T11:37:51.687Z</time></trkpt><trkpt lat="43.8698707" lon="12.7192481"><ele>62.800000000000004</ele><time>2026-04-04T11:37:52.688Z</time></trkpt><trkpt lat="43.8698283" lon="12.7191309"><ele>63.400000000000006</ele><time>2026-04-04T11:37:53.692Z</time></trkpt><trkpt lat="43.8697928" lon="12.719021"><ele>64.0</ele><time>2026-04-04T11:37:54.689Z</time></trkpt><trkpt lat="43.8697682" lon="12.7189157"><ele>63.99999999999999</ele><time>2026-04-04T11:37:55.691Z</time></trkpt><trkpt lat="43.8697549" lon="12.7188142"><ele>64.0</ele><time>2026-04-04T11:37:56.688Z</time></trkpt><trkpt lat="43.8697486" lon="12.7187119"><ele>64.0</ele><time>2026-04-04T11:37:57.69Z</time></trkpt><trkpt lat="43.8697492" lon="12.7186051"><ele>64.0</ele><time>2026-04-04T11:37:58.689Z</time></trkpt><trkpt lat="43.8697578" lon="12.7184956"><ele>63.99999999999999</ele><time>2026-04-04T11:37:59.689Z</time></trkpt><trkpt lat="43.869776" lon="12.7183869"><ele>64.0</ele><time>2026-04-04T11:38:00.689Z</time></trkpt><trkpt lat="43.8698002" lon="12.7182824"><ele>63.99999999999999</ele><time>2026-04-04T11:38:01.691Z</time></trkpt><trkpt lat="43.8698296" lon="12.7181847"><ele>64.0</ele><time>2026-04-04T11:38:02.689Z</time></trkpt><trkpt lat="43.8698635" lon="12.7180931"><ele>64.0</ele><time>2026-04-04T11:38:03.687Z</time></trkpt><trkpt lat="43.8699002" lon="12.7180164"><ele>64.0</ele><time>2026-04-04T11:38:04.688Z</time></trkpt><trkpt lat="43.8699733" lon="12.7179305"><ele>63.99999999999999</ele><time>2026-04-04T11:38:06.688Z</time></trkpt><trkpt lat="43.870086" lon="12.7179054"><ele>64.0</ele><time>2026-04-04T11:38:08.69Z</time></trkpt><trkpt lat="43.8701727" lon="12.7179007"><ele>63.25</ele><time>2026-04-04T11:38:09.689Z</time></trkpt><trkpt lat="43.8702885" lon="12.7178818"><ele>62.5</ele><time>2026-04-04T11:38:10.688Z</time></trkpt><trkpt lat="43.8704124" lon="12.7178548"><ele>61.75</ele><time>2026-04-04T11:38:11.685Z</time></trkpt><trkpt lat="43.870534" lon="12.7178204"><ele>61.0</ele><time>2026-04-04T11:38:12.687Z</time></trkpt><trkpt lat="43.8706485" lon="12.7177781"><ele>61.0</ele><time>2026-04-04T11:38:13.689Z</time></trkpt><trkpt lat="43.8707576" lon="12.7177294"><ele>60.99999999999999</ele><time>2026-04-04T11:38:14.686Z</time></trkpt><trkpt lat="43.8708581" lon="12.7176921"><ele>60.99999999999999</ele><time>2026-04-04T11:38:15.689Z</time></trkpt><trkpt lat="43.8709508" lon="12.7176849"><ele>61.0</ele><time>2026-04-04T11:38:16.688Z</time></trkpt><trkpt lat="43.8710459" lon="12.7177103"><ele>61.0</ele><time>2026-04-04T11:38:17.688Z</time></trkpt><trkpt lat="43.8711465" lon="12.7177626"><ele>61.0</ele><time>2026-04-04T11:38:18.688Z</time></trkpt><trkpt lat="43.8712544" lon="12.7178344"><ele>61.0</ele><time>2026-04-04T11:38:19.688Z</time></trkpt><trkpt lat="43.8713725" lon="12.7179186"><ele>61.0</ele><time>2026-04-04T11:38:20.687Z</time></trkpt><trkpt lat="43.871495" lon="12.7180005"><ele>61.0</ele><time>2026-04-04T11:38:21.688Z</time></trkpt><trkpt lat="43.8716162" lon="12.7180801"><ele>61.0</ele><time>2026-04-04T11:38:22.689Z</time></trkpt><trkpt lat="43.8717323" lon="12.7181534"><ele>61.0</ele><time>2026-04-04T11:38:23.691Z</time></trkpt><trkpt lat="43.8718442" lon="12.7182145"><ele>61.0</ele><time>2026-04-04T11:38:24.691Z</time></trkpt><trkpt lat="43.8719525" lon="12.7182657"><ele>61.0</ele><time>2026-04-04T11:38:25.69Z</time></trkpt><trkpt lat="43.8720561" lon="12.7182949"><ele>61.5</ele><time>2026-04-04T11:38:26.685Z</time></trkpt><trkpt lat="43.8721663" lon="12.7183137"><ele>62.0</ele><time>2026-04-04T11:38:27.689Z</time></trkpt><trkpt lat="43.8722851" lon="12.7183204"><ele>62.5</ele><time>2026-04-04T11:38:28.689Z</time></trkpt><trkpt lat="43.8724143" lon="12.7183228"><ele>63.0</ele><time>2026-04-04T11:38:29.689Z</time></trkpt><trkpt lat="43.8725551" lon="12.7183254"><ele>63.0</ele><time>2026-04-04T11:38:30.689Z</time></trkpt><trkpt lat="43.8727023" lon="12.718327"><ele>63.0</ele><time>2026-04-04T11:38:31.69Z</time></trkpt><trkpt lat="43.8728544" lon="12.7183224"><ele>63.0</ele><time>2026-04-04T11:38:32.689Z</time></trkpt><trkpt lat="43.8730083" lon="12.718321"><ele>63.0</ele><time>2026-04-04T11:38:33.69Z</time></trkpt><trkpt lat="43.8731595" lon="12.7183214"><ele>63.0</ele><time>2026-04-04T11:38:34.689Z</time></trkpt><trkpt lat="43.8733067" lon="12.7183216"><ele>63.0</ele><time>2026-04-04T11:38:35.684Z</time></trkpt><trkpt lat="43.8734466" lon="12.7183228"><ele>63.0</ele><time>2026-04-04T11:38:36.688Z</time></trkpt><trkpt lat="43.8735831" lon="12.718323"><ele>62.75</ele><time>2026-04-04T11:38:37.689Z</time></trkpt><trkpt lat="43.8737162" lon="12.7183186"><ele>62.5</ele><time>2026-04-04T11:38:38.688Z</time></trkpt><trkpt lat="43.8738463" lon="12.7183048"><ele>62.25</ele><time>2026-04-04T11:38:39.69Z</time></trkpt><trkpt lat="43.8739798" lon="12.7182758"><ele>62.0</ele><time>2026-04-04T11:38:40.688Z</time></trkpt><trkpt lat="43.8741171" lon="12.7182311"><ele>62.0</ele><time>2026-04-04T11:38:41.689Z</time></trkpt><trkpt lat="43.8742595" lon="12.7181765"><ele>62.0</ele><time>2026-04-04T11:38:42.687Z</time></trkpt><trkpt lat="43.8744021" lon="12.7181198"><ele>62.0</ele><time>2026-04-04T11:38:43.69Z</time></trkpt><trkpt lat="43.8745382" lon="12.718066"><ele>62.0</ele><time>2026-04-04T11:38:44.688Z</time></trkpt><trkpt lat="43.8746684" lon="12.7180195"><ele>61.75</ele><time>2026-04-04T11:38:45.687Z</time></trkpt><trkpt lat="43.8747926" lon="12.7179809"><ele>61.5</ele><time>2026-04-04T11:38:46.687Z</time></trkpt><trkpt lat="43.8749092" lon="12.7179477"><ele>61.25</ele><time>2026-04-04T11:38:47.69Z</time></trkpt><trkpt lat="43.8750226" lon="12.7179184"><ele>61.0</ele><time>2026-04-04T11:38:48.689Z</time></trkpt><trkpt lat="43.8751421" lon="12.7178925"><ele>60.4</ele><time>2026-04-04T11:38:49.69Z</time></trkpt><trkpt lat="43.8752603" lon="12.7178751"><ele>59.8</ele><time>2026-04-04T11:38:50.688Z</time></trkpt><trkpt lat="43.8753756" lon="12.717868"><ele>59.199999999999996</ele><time>2026-04-04T11:38:51.688Z</time></trkpt><trkpt lat="43.8754829" lon="12.7178691"><ele>58.599999999999994</ele><time>2026-04-04T11:38:52.687Z</time></trkpt><trkpt lat="43.8755832" lon="12.7178735"><ele>58.0</ele><time>2026-04-04T11:38:53.687Z</time></trkpt><trkpt lat="43.8756787" lon="12.717877"><ele>58.0</ele><time>2026-04-04T11:38:54.688Z</time></trkpt><trkpt lat="43.875776" lon="12.7178844"><ele>58.0</ele><time>2026-04-04T11:38:55.689Z</time></trkpt><trkpt lat="43.8758766" lon="12.7178938"><ele>58.0</ele><time>2026-04-04T11:38:56.687Z</time></trkpt><trkpt lat="43.8759769" lon="12.7179071"><ele>58.0</ele><time>2026-04-04T11:38:57.686Z</time></trkpt><trkpt lat="43.8760832" lon="12.7179252"><ele>58.0</ele><time>2026-04-04T11:38:58.689Z</time></trkpt><trkpt lat="43.876193" lon="12.7179478"><ele>57.5</ele><time>2026-04-04T11:38:59.686Z</time></trkpt><trkpt lat="43.8763084" lon="12.7179771"><ele>57.0</ele><time>2026-04-04T11:39:00.688Z</time></trkpt><trkpt lat="43.8764273" lon="12.718021"><ele>56.5</ele><time>2026-04-04T11:39:01.688Z</time></trkpt><trkpt lat="43.8765506" lon="12.7180748"><ele>56.0</ele><time>2026-04-04T11:39:02.686Z</time></trkpt><trkpt lat="43.8766743" lon="12.7181398"><ele>56.0</ele><time>2026-04-04T11:39:03.686Z</time></trkpt><trkpt lat="43.8767951" lon="12.7182134"><ele>56.0</ele><time>2026-04-04T11:39:04.688Z</time></trkpt><trkpt lat="43.8769109" lon="12.7182876"><ele>56.0</ele><time>2026-04-04T11:39:05.685Z</time></trkpt><trkpt lat="43.8770216" lon="12.7183488"><ele>56.0</ele><time>2026-04-04T11:39:06.689Z</time></trkpt><trkpt lat="43.8771301" lon="12.7184009"><ele>56.0</ele><time>2026-04-04T11:39:07.688Z</time></trkpt><trkpt lat="43.877245" lon="12.7184356"><ele>56.0</ele><time>2026-04-04T11:39:08.684Z</time></trkpt><trkpt lat="43.8773672" lon="12.7184545"><ele>56.0</ele><time>2026-04-04T11:39:09.686Z</time></trkpt><trkpt lat="43.8774883" lon="12.7184681"><ele>56.0</ele><time>2026-04-04T11:39:10.69Z</time></trkpt><trkpt lat="43.8776057" lon="12.7184833"><ele>56.0</ele><time>2026-04-04T11:39:11.685Z</time></trkpt><trkpt lat="43.8777198" lon="12.7185008"><ele>56.0</ele><time>2026-04-04T11:39:12.69Z</time></trkpt><trkpt lat="43.877829" lon="12.7185342"><ele>56.0</ele><time>2026-04-04T11:39:13.691Z</time></trkpt><trkpt lat="43.8779398" lon="12.7185763"><ele>56.0</ele><time>2026-04-04T11:39:14.689Z</time></trkpt><trkpt lat="43.8780535" lon="12.7186149"><ele>56.0</ele><time>2026-04-04T11:39:15.687Z</time></trkpt><trkpt lat="43.878163" lon="12.7186461"><ele>56.0</ele><time>2026-04-04T11:39:16.687Z</time></trkpt><trkpt lat="43.8782751" lon="12.7186604"><ele>56.0</ele><time>2026-04-04T11:39:17.685Z</time></trkpt><trkpt lat="43.8783911" lon="12.7186653"><ele>56.0</ele><time>2026-04-04T11:39:18.688Z</time></trkpt><trkpt lat="43.8785093" lon="12.7186596"><ele>56.75</ele><time>2026-04-04T11:39:19.687Z</time></trkpt><trkpt lat="43.8786316" lon="12.7186344"><ele>57.5</ele><time>2026-04-04T11:39:20.685Z</time></trkpt><trkpt lat="43.8787553" lon="12.7185862"><ele>58.25</ele><time>2026-04-04T11:39:21.688Z</time></trkpt><trkpt lat="43.8788758" lon="12.7185208"><ele>59.0</ele><time>2026-04-04T11:39:22.688Z</time></trkpt><trkpt lat="43.8789835" lon="12.7184595"><ele>59.6</ele><time>2026-04-04T11:39:23.687Z</time></trkpt><trkpt lat="43.8790797" lon="12.7184117"><ele>60.2</ele><time>2026-04-04T11:39:24.688Z</time></trkpt><trkpt lat="43.8791723" lon="12.7183813"><ele>60.800000000000004</ele><time>2026-04-04T11:39:25.689Z</time></trkpt><trkpt lat="43.8792621" lon="12.7183798"><ele>61.400000000000006</ele><time>2026-04-04T11:39:26.686Z</time></trkpt><trkpt lat="43.8793453" lon="12.7184073"><ele>62.0</ele><time>2026-04-04T11:39:27.687Z</time></trkpt><trkpt lat="43.8794242" lon="12.7184623"><ele>63.400000000000006</ele><time>2026-04-04T11:39:28.689Z</time></trkpt><trkpt lat="43.8794878" lon="12.7185691"><ele>64.80000000000001</ele><time>2026-04-04T11:39:29.691Z</time></trkpt><trkpt lat="43.8795525" lon="12.7186951"><ele>66.2</ele><time>2026-04-04T11:39:30.689Z</time></trkpt><trkpt lat="43.8796194" lon="12.7188196"><ele>67.60000000000001</ele><time>2026-04-04T11:39:31.688Z</time></trkpt><trkpt lat="43.8796912" lon="12.7189424"><ele>69.0</ele><time>2026-04-04T11:39:32.686Z</time></trkpt><trkpt lat="43.8797695" lon="12.7190662"><ele>69.0</ele><time>2026-04-04T11:39:33.686Z</time></trkpt><trkpt lat="43.8798535" lon="12.7191912"><ele>69.0</ele><time>2026-04-04T11:39:34.688Z</time></trkpt><trkpt lat="43.8799411" lon="12.7193109"><ele>69.0</ele><time>2026-04-04T11:39:35.687Z</time></trkpt><trkpt lat="43.8800349" lon="12.7194068"><ele>69.0</ele><time>2026-04-04T11:39:36.688Z</time></trkpt><trkpt lat="43.8801307" lon="12.7194802"><ele>67.25</ele><time>2026-04-04T11:39:37.689Z</time></trkpt><trkpt lat="43.8802338" lon="12.7195383"><ele>65.5</ele><time>2026-04-04T11:39:38.685Z</time></trkpt><trkpt lat="43.8803496" lon="12.7195803"><ele>63.75</ele><time>2026-04-04T11:39:39.686Z</time></trkpt><trkpt lat="43.8804711" lon="12.7196106"><ele>62.0</ele><time>2026-04-04T11:39:40.688Z</time></trkpt><trkpt lat="43.8805966" lon="12.7196326"><ele>62.0</ele><time>2026-04-04T11:39:41.685Z</time></trkpt><trkpt lat="43.8807215" lon="12.7196515"><ele>62.0</ele><time>2026-04-04T11:39:42.689Z</time></trkpt><trkpt lat="43.8808422" lon="12.7196623"><ele>62.0</ele><time>2026-04-04T11:39:43.688Z</time></trkpt><trkpt lat="43.8809541" lon="12.7196741"><ele>62.0</ele><time>2026-04-04T11:39:44.686Z</time></trkpt><trkpt lat="43.881051" lon="12.7196853"><ele>62.50000000000001</ele><time>2026-04-04T11:39:45.687Z</time></trkpt><trkpt lat="43.8811273" lon="12.7196885"><ele>63.0</ele><time>2026-04-04T11:39:46.688Z</time></trkpt><trkpt lat="43.8811901" lon="12.7196748"><ele>63.5</ele><time>2026-04-04T11:39:47.686Z</time></trkpt><trkpt lat="43.8812789" lon="12.7195692"><ele>64.0</ele><time>2026-04-04T11:39:49.69Z</time></trkpt><trkpt lat="43.8813032" lon="12.7194808"><ele>64.5</ele><time>2026-04-04T11:39:50.686Z</time></trkpt><trkpt lat="43.8813214" lon="12.7193666"><ele>65.0</ele><time>2026-04-04T11:39:51.687Z</time></trkpt><trkpt lat="43.8813395" lon="12.7192376"><ele>67.2</ele><time>2026-04-04T11:39:52.688Z</time></trkpt><trkpt lat="43.8813598" lon="12.7191072"><ele>69.4</ele><time>2026-04-04T11:39:53.688Z</time></trkpt><trkpt lat="43.8813837" lon="12.7189783"><ele>71.6</ele><time>2026-04-04T11:39:54.688Z</time></trkpt><trkpt lat="43.8814099" lon="12.7188518"><ele>73.8</ele><time>2026-04-04T11:39:55.689Z</time></trkpt><trkpt lat="43.8814325" lon="12.7187288"><ele>76.0</ele><time>2026-04-04T11:39:56.686Z</time></trkpt><trkpt lat="43.8814454" lon="12.7186051"><ele>77.5</ele><time>2026-04-04T11:39:57.687Z</time></trkpt><trkpt lat="43.8814451" lon="12.7184846"><ele>79.0</ele><time>2026-04-04T11:39:58.689Z</time></trkpt><trkpt lat="43.8814325" lon="12.7183713"><ele>80.5</ele><time>2026-04-04T11:39:59.689Z</time></trkpt><trkpt lat="43.8814071" lon="12.7182608"><ele>82.0</ele><time>2026-04-04T11:40:00.689Z</time></trkpt><trkpt lat="43.8813669" lon="12.7181468"><ele>83.5</ele><time>2026-04-04T11:40:01.69Z</time></trkpt><trkpt lat="43.8813319" lon="12.7180331"><ele>85.0</ele><time>2026-04-04T11:40:02.689Z</time></trkpt><trkpt lat="43.8813086" lon="12.7179132"><ele>85.0</ele><time>2026-04-04T11:40:03.688Z</time></trkpt><trkpt lat="43.8812976" lon="12.717785"><ele>85.0</ele><time>2026-04-04T11:40:04.689Z</time></trkpt><trkpt lat="43.8812931" lon="12.7176667"><ele>85.0</ele><time>2026-04-04T11:40:05.685Z</time></trkpt><trkpt lat="43.8812983" lon="12.7175592"><ele>85.0</ele><time>2026-04-04T11:40:06.688Z</time></trkpt><trkpt lat="43.8813398" lon="12.7174388"><ele>85.0</ele><time>2026-04-04T11:40:08.688Z</time></trkpt><trkpt lat="43.8813835" lon="12.7173338"><ele>85.0</ele><time>2026-04-04T11:40:10.689Z</time></trkpt><trkpt lat="43.8813907" lon="12.7171322"><ele>86.0</ele><time>2026-04-04T11:40:12.687Z</time></trkpt><trkpt lat="43.8813928" lon="12.7169961"><ele>87.0</ele><time>2026-04-04T11:40:13.691Z</time></trkpt><trkpt lat="43.8813986" lon="12.7168426"><ele>88.0</ele><time>2026-04-04T11:40:14.688Z</time></trkpt><trkpt lat="43.8814053" lon="12.7166792"><ele>89.0</ele><time>2026-04-04T11:40:15.688Z</time></trkpt><trkpt lat="43.8814037" lon="12.7165118"><ele>90.0</ele><time>2026-04-04T11:40:16.688Z</time></trkpt><trkpt lat="43.8813945" lon="12.7163466"><ele>90.5</ele><time>2026-04-04T11:40:17.685Z</time></trkpt><trkpt lat="43.8813782" lon="12.7161825"><ele>91.0</ele><time>2026-04-04T11:40:18.688Z</time></trkpt><trkpt lat="43.8813607" lon="12.7160189"><ele>91.5</ele><time>2026-04-04T11:40:19.688Z</time></trkpt><trkpt lat="43.8813437" lon="12.7158526"><ele>92.0</ele><time>2026-04-04T11:40:20.687Z</time></trkpt><trkpt lat="43.88133" lon="12.7156784"><ele>93.75</ele><time>2026-04-04T11:40:21.686Z</time></trkpt><trkpt lat="43.8813208" lon="12.7155015"><ele>95.5</ele><time>2026-04-04T11:40:22.688Z</time></trkpt><trkpt lat="43.8813143" lon="12.7153231"><ele>97.25</ele><time>2026-04-04T11:40:23.686Z</time></trkpt><trkpt lat="43.8813138" lon="12.7151414"><ele>99.0</ele><time>2026-04-04T11:40:24.688Z</time></trkpt><trkpt lat="43.8813132" lon="12.7149537"><ele>100.25</ele><time>2026-04-04T11:40:25.688Z</time></trkpt><trkpt lat="43.881316" lon="12.7147681"><ele>101.5</ele><time>2026-04-04T11:40:26.685Z</time></trkpt><trkpt lat="43.8813225" lon="12.7145874"><ele>102.75</ele><time>2026-04-04T11:40:27.687Z</time></trkpt><trkpt lat="43.8813322" lon="12.7144117"><ele>104.0</ele><time>2026-04-04T11:40:28.689Z</time></trkpt><trkpt lat="43.8813366" lon="12.714238"><ele>104.0</ele><time>2026-04-04T11:40:29.689Z</time></trkpt><trkpt lat="43.8813381" lon="12.7140642"><ele>104.0</ele><time>2026-04-04T11:40:30.689Z</time></trkpt><trkpt lat="43.8813382" lon="12.7138844"><ele>104.0</ele><time>2026-04-04T11:40:31.692Z</time></trkpt><trkpt lat="43.8813368" lon="12.7137013"><ele>104.0</ele><time>2026-04-04T11:40:32.688Z</time></trkpt><trkpt lat="43.8813339" lon="12.7135127"><ele>104.0</ele><time>2026-04-04T11:40:33.689Z</time></trkpt><trkpt lat="43.8813246" lon="12.7133171"><ele>104.0</ele><time>2026-04-04T11:40:34.687Z</time></trkpt><trkpt lat="43.8813125" lon="12.7131158"><ele>104.0</ele><time>2026-04-04T11:40:35.691Z</time></trkpt><trkpt lat="43.8812963" lon="12.7129174"><ele>104.0</ele><time>2026-04-04T11:40:36.689Z</time></trkpt><trkpt lat="43.8812736" lon="12.7127213"><ele>105.0</ele><time>2026-04-04T11:40:37.689Z</time></trkpt><trkpt lat="43.8812538" lon="12.7125283"><ele>106.0</ele><time>2026-04-04T11:40:38.69Z</time></trkpt><trkpt lat="43.8812363" lon="12.7123364"><ele>107.0</ele><time>2026-04-04T11:40:39.689Z</time></trkpt><trkpt lat="43.881215" lon="12.7121401"><ele>108.0</ele><time>2026-04-04T11:40:40.689Z</time></trkpt><trkpt lat="43.8811928" lon="12.7119395"><ele>108.0</ele><time>2026-04-04T11:40:41.684Z</time></trkpt><trkpt lat="43.881171" lon="12.7117369"><ele>108.0</ele><time>2026-04-04T11:40:42.688Z</time></trkpt><trkpt lat="43.8811439" lon="12.7115347"><ele>108.0</ele><time>2026-04-04T11:40:43.689Z</time></trkpt><trkpt lat="43.8811179" lon="12.7113425"><ele>108.0</ele><time>2026-04-04T11:40:44.686Z</time></trkpt><trkpt lat="43.8810936" lon="12.7111584"><ele>108.5</ele><time>2026-04-04T11:40:45.688Z</time></trkpt><trkpt lat="43.8810607" lon="12.7109767"><ele>109.0</ele><time>2026-04-04T11:40:46.688Z</time></trkpt><trkpt lat="43.8810156" lon="12.7108001"><ele>109.5</ele><time>2026-04-04T11:40:47.686Z</time></trkpt><trkpt lat="43.880961" lon="12.710632"><ele>110.0</ele><time>2026-04-04T11:40:48.687Z</time></trkpt><trkpt lat="43.8808955" lon="12.7104757"><ele>113.75</ele><time>2026-04-04T11:40:49.689Z</time></trkpt><trkpt lat="43.8808333" lon="12.7103378"><ele>117.5</ele><time>2026-04-04T11:40:50.687Z</time></trkpt><trkpt lat="43.8807755" lon="12.7102011"><ele>121.25</ele><time>2026-04-04T11:40:51.687Z</time></trkpt><trkpt lat="43.8807285" lon="12.7100534"><ele>125.0</ele><time>2026-04-04T11:40:52.689Z</time></trkpt><trkpt lat="43.8806883" lon="12.709891"><ele>125.75</ele><time>2026-04-04T11:40:53.687Z</time></trkpt><trkpt lat="43.8806503" lon="12.7097221"><ele>126.5</ele><time>2026-04-04T11:40:54.69Z</time></trkpt><trkpt lat="43.8806096" lon="12.709549"><ele>127.25</ele><time>2026-04-04T11:40:55.689Z</time></trkpt><trkpt lat="43.8805621" lon="12.7093825"><ele>128.0</ele><time>2026-04-04T11:40:56.687Z</time></trkpt><trkpt lat="43.8805101" lon="12.7092234"><ele>128.5</ele><time>2026-04-04T11:40:57.687Z</time></trkpt><trkpt lat="43.8804496" lon="12.7090681"><ele>129.0</ele><time>2026-04-04T11:40:58.692Z</time></trkpt><trkpt lat="43.8803776" lon="12.7089182"><ele>129.5</ele><time>2026-04-04T11:40:59.69Z</time></trkpt><trkpt lat="43.8802932" lon="12.7087829"><ele>130.0</ele><time>2026-04-04T11:41:00.686Z</time></trkpt><trkpt lat="43.8802038" lon="12.7086486"><ele>129.5</ele><time>2026-04-04T11:41:01.689Z</time></trkpt><trkpt lat="43.8801159" lon="12.708507"><ele>129.0</ele><time>2026-04-04T11:41:02.689Z</time></trkpt><trkpt lat="43.8800345" lon="12.7083548"><ele>128.5</ele><time>2026-04-04T11:41:03.686Z</time></trkpt><trkpt lat="43.8799605" lon="12.7081936"><ele>128.0</ele><time>2026-04-04T11:41:04.689Z</time></trkpt><trkpt lat="43.879893" lon="12.7080282"><ele>129.5</ele><time>2026-04-04T11:41:05.691Z</time></trkpt><trkpt lat="43.8798255" lon="12.7078624"><ele>131.0</ele><time>2026-04-04T11:41:06.689Z</time></trkpt><trkpt lat="43.8797546" lon="12.7076942"><ele>132.5</ele><time>2026-04-04T11:41:07.69Z</time></trkpt><trkpt lat="43.8796857" lon="12.7075258"><ele>134.0</ele><time>2026-04-04T11:41:08.69Z</time></trkpt><trkpt lat="43.8796189" lon="12.7073668"><ele>134.5</ele><time>2026-04-04T11:41:09.687Z</time></trkpt><trkpt lat="43.8795511" lon="12.7072218"><ele>135.0</ele><time>2026-04-04T11:41:10.687Z</time></trkpt><trkpt lat="43.8794786" lon="12.7070884"><ele>135.5</ele><time>2026-04-04T11:41:11.687Z</time></trkpt><trkpt lat="43.8794034" lon="12.7069577"><ele>136.0</ele><time>2026-04-04T11:41:12.689Z</time></trkpt><trkpt lat="43.8793254" lon="12.7068156"><ele>137.75</ele><time>2026-04-04T11:41:13.69Z</time></trkpt><trkpt lat="43.8792513" lon="12.7066652"><ele>139.5</ele><time>2026-04-04T11:41:14.688Z</time></trkpt><trkpt lat="43.8791838" lon="12.7065146"><ele>141.25</ele><time>2026-04-04T11:41:15.689Z</time></trkpt><trkpt lat="43.8791217" lon="12.7063687"><ele>143.0</ele><time>2026-04-04T11:41:16.688Z</time></trkpt><trkpt lat="43.8790633" lon="12.7062337"><ele>143.0</ele><time>2026-04-04T11:41:17.688Z</time></trkpt><trkpt lat="43.8790042" lon="12.7061052"><ele>143.0</ele><time>2026-04-04T11:41:18.688Z</time></trkpt><trkpt lat="43.8789434" lon="12.7059824"><ele>143.0</ele><time>2026-04-04T11:41:19.689Z</time></trkpt><trkpt lat="43.8788832" lon="12.7058625"><ele>143.0</ele><time>2026-04-04T11:41:20.687Z</time></trkpt><trkpt lat="43.8788164" lon="12.7057367"><ele>143.0</ele><time>2026-04-04T11:41:21.687Z</time></trkpt><trkpt lat="43.8787515" lon="12.7055997"><ele>141.25</ele><time>2026-04-04T11:41:22.688Z</time></trkpt><trkpt lat="43.8786921" lon="12.705452"><ele>139.5</ele><time>2026-04-04T11:41:23.688Z</time></trkpt><trkpt lat="43.8786443" lon="12.7052913"><ele>137.75</ele><time>2026-04-04T11:41:24.69Z</time></trkpt><trkpt lat="43.8786089" lon="12.7051185"><ele>136.0</ele><time>2026-04-04T11:41:25.689Z</time></trkpt><trkpt lat="43.8785836" lon="12.7049332"><ele>135.75</ele><time>2026-04-04T11:41:26.688Z</time></trkpt><trkpt lat="43.8785598" lon="12.704747"><ele>135.5</ele><time>2026-04-04T11:41:27.689Z</time></trkpt><trkpt lat="43.8785355" lon="12.704554"><ele>135.25</ele><time>2026-04-04T11:41:28.688Z</time></trkpt><trkpt lat="43.8785094" lon="12.704361"><ele>135.0</ele><time>2026-04-04T11:41:29.69Z</time></trkpt><trkpt lat="43.8784855" lon="12.704173"><ele>135.0</ele><time>2026-04-04T11:41:30.689Z</time></trkpt><trkpt lat="43.878465" lon="12.7039878"><ele>135.0</ele><time>2026-04-04T11:41:31.688Z</time></trkpt><trkpt lat="43.8784465" lon="12.7038127"><ele>135.0</ele><time>2026-04-04T11:41:32.684Z</time></trkpt><trkpt lat="43.8784284" lon="12.703652"><ele>135.0</ele><time>2026-04-04T11:41:33.687Z</time></trkpt><trkpt lat="43.8784061" lon="12.7035098"><ele>137.25</ele><time>2026-04-04T11:41:34.687Z</time></trkpt><trkpt lat="43.8783758" lon="12.7033688"><ele>139.5</ele><time>2026-04-04T11:41:35.687Z</time></trkpt><trkpt lat="43.878333" lon="12.703221"><ele>141.75</ele><time>2026-04-04T11:41:36.688Z</time></trkpt><trkpt lat="43.8782767" lon="12.7030658"><ele>144.0</ele><time>2026-04-04T11:41:37.689Z</time></trkpt><trkpt lat="43.8782074" lon="12.7029018"><ele>142.33333333333334</ele><time>2026-04-04T11:41:38.688Z</time></trkpt><trkpt lat="43.8781289" lon="12.7027317"><ele>140.66666666666669</ele><time>2026-04-04T11:41:39.686Z</time></trkpt><trkpt lat="43.8780383" lon="12.7025556"><ele>139.0</ele><time>2026-04-04T11:41:40.689Z</time></trkpt><trkpt lat="43.8779469" lon="12.7023837"><ele>139.0</ele><time>2026-04-04T11:41:41.691Z</time></trkpt><trkpt lat="43.877859" lon="12.7022133"><ele>139.0</ele><time>2026-04-04T11:41:42.689Z</time></trkpt><trkpt lat="43.8777748" lon="12.702039"><ele>139.0</ele><time>2026-04-04T11:41:43.69Z</time></trkpt><trkpt lat="43.8776988" lon="12.7018584"><ele>139.5</ele><time>2026-04-04T11:41:44.689Z</time></trkpt><trkpt lat="43.8776274" lon="12.7016747"><ele>140.0</ele><time>2026-04-04T11:41:45.688Z</time></trkpt><trkpt lat="43.8775617" lon="12.7014895"><ele>140.5</ele><time>2026-04-04T11:41:46.687Z</time></trkpt><trkpt lat="43.8775024" lon="12.7013043"><ele>141.0</ele><time>2026-04-04T11:41:47.686Z</time></trkpt><trkpt lat="43.8774458" lon="12.7011187"><ele>142.33333333333334</ele><time>2026-04-04T11:41:48.688Z</time></trkpt><trkpt lat="43.87739" lon="12.7009281"><ele>143.66666666666669</ele><time>2026-04-04T11:41:49.687Z</time></trkpt><trkpt lat="43.8773408" lon="12.7007328"><ele>145.0</ele><time>2026-04-04T11:41:50.687Z</time></trkpt><trkpt lat="43.8772959" lon="12.7005299"><ele>145.0</ele><time>2026-04-04T11:41:51.687Z</time></trkpt><trkpt lat="43.8772518" lon="12.7003215"><ele>145.0</ele><time>2026-04-04T11:41:52.687Z</time></trkpt><trkpt lat="43.8772075" lon="12.7001107"><ele>145.0</ele><time>2026-04-04T11:41:53.686Z</time></trkpt><trkpt lat="43.8771643" lon="12.6998973"><ele>146.0</ele><time>2026-04-04T11:41:54.688Z</time></trkpt><trkpt lat="43.8771207" lon="12.6996863"><ele>147.0</ele><time>2026-04-04T11:41:55.689Z</time></trkpt><trkpt lat="43.8770725" lon="12.6994763"><ele>148.0</ele><time>2026-04-04T11:41:56.689Z</time></trkpt><trkpt lat="43.8770152" lon="12.6992705"><ele>148.25</ele><time>2026-04-04T11:41:57.686Z</time></trkpt><trkpt lat="43.8769561" lon="12.6990741"><ele>148.5</ele><time>2026-04-04T11:41:58.69Z</time></trkpt><trkpt lat="43.8769043" lon="12.6988995"><ele>148.75</ele><time>2026-04-04T11:41:59.689Z</time></trkpt><trkpt lat="43.8768546" lon="12.6987411"><ele>149.0</ele><time>2026-04-04T11:42:00.688Z</time></trkpt><trkpt lat="43.8767966" lon="12.6985983"><ele>150.0</ele><time>2026-04-04T11:42:01.689Z</time></trkpt><trkpt lat="43.8767212" lon="12.6984659"><ele>151.0</ele><time>2026-04-04T11:42:02.687Z</time></trkpt><trkpt lat="43.876631" lon="12.6983405"><ele>152.0</ele><time>2026-04-04T11:42:03.687Z</time></trkpt><trkpt lat="43.8765327" lon="12.698221"><ele>153.0</ele><time>2026-04-04T11:42:04.689Z</time></trkpt><trkpt lat="43.8764361" lon="12.6980953"><ele>153.0</ele><time>2026-04-04T11:42:05.686Z</time></trkpt><trkpt lat="43.8763483" lon="12.6979519"><ele>153.0</ele><time>2026-04-04T11:42:06.688Z</time></trkpt><trkpt lat="43.8762702" lon="12.6977885"><ele>153.0</ele><time>2026-04-04T11:42:07.687Z</time></trkpt><trkpt lat="43.8761965" lon="12.6976051"><ele>153.0</ele><time>2026-04-04T11:42:08.687Z</time></trkpt><trkpt lat="43.876125" lon="12.6974111"><ele>152.33333333333334</ele><time>2026-04-04T11:42:09.689Z</time></trkpt><trkpt lat="43.8760542" lon="12.6972133"><ele>151.66666666666669</ele><time>2026-04-04T11:42:10.689Z</time></trkpt><trkpt lat="43.8759844" lon="12.6970101"><ele>151.0</ele><time>2026-04-04T11:42:11.685Z</time></trkpt><trkpt lat="43.8759156" lon="12.6968109"><ele>151.0</ele><time>2026-04-04T11:42:12.688Z</time></trkpt><trkpt lat="43.8758432" lon="12.6966186"><ele>151.0</ele><time>2026-04-04T11:42:13.689Z</time></trkpt><trkpt lat="43.8757642" lon="12.6964388"><ele>151.0</ele><time>2026-04-04T11:42:14.687Z</time></trkpt><trkpt lat="43.8756797" lon="12.6962654"><ele>151.0</ele><time>2026-04-04T11:42:15.687Z</time></trkpt><trkpt lat="43.875588" lon="12.6960982"><ele>151.0</ele><time>2026-04-04T11:42:16.689Z</time></trkpt><trkpt lat="43.875491" lon="12.6959326"><ele>151.0</ele><time>2026-04-04T11:42:17.687Z</time></trkpt><trkpt lat="43.8753866" lon="12.6957746"><ele>151.75</ele><time>2026-04-04T11:42:18.689Z</time></trkpt><trkpt lat="43.8752808" lon="12.6956315"><ele>152.5</ele><time>2026-04-04T11:42:19.689Z</time></trkpt><trkpt lat="43.875178" lon="12.6954985"><ele>153.25</ele><time>2026-04-04T11:42:20.686Z</time></trkpt><trkpt lat="43.8750793" lon="12.6953751"><ele>154.0</ele><time>2026-04-04T11:42:21.687Z</time></trkpt><trkpt lat="43.8749887" lon="12.6952598"><ele>153.4</ele><time>2026-04-04T11:42:22.689Z</time></trkpt><trkpt lat="43.8749065" lon="12.69515"><ele>152.8</ele><time>2026-04-04T11:42:23.688Z</time></trkpt><trkpt lat="43.8748228" lon="12.6950491"><ele>152.2</ele><time>2026-04-04T11:42:24.689Z</time></trkpt><trkpt lat="43.8747327" lon="12.6949715"><ele>151.6</ele><time>2026-04-04T11:42:25.692Z</time></trkpt><trkpt lat="43.8746355" lon="12.6949113"><ele>151.0</ele><time>2026-04-04T11:42:26.688Z</time></trkpt><trkpt lat="43.8745366" lon="12.6948577"><ele>151.0</ele><time>2026-04-04T11:42:27.687Z</time></trkpt><trkpt lat="43.8744348" lon="12.6948086"><ele>151.0</ele><time>2026-04-04T11:42:28.688Z</time></trkpt><trkpt lat="43.8743286" lon="12.6947654"><ele>151.0</ele><time>2026-04-04T11:42:29.687Z</time></trkpt><trkpt lat="43.8742104" lon="12.6947445"><ele>151.0</ele><time>2026-04-04T11:42:30.686Z</time></trkpt><trkpt lat="43.8740812" lon="12.6947484"><ele>149.5</ele><time>2026-04-04T11:42:31.691Z</time></trkpt><trkpt lat="43.8739443" lon="12.6947726"><ele>148.0</ele><time>2026-04-04T11:42:32.685Z</time></trkpt><trkpt lat="43.8737999" lon="12.6948072"><ele>146.5</ele><time>2026-04-04T11:42:33.686Z</time></trkpt><trkpt lat="43.8736455" lon="12.6948454"><ele>145.0</ele><time>2026-04-04T11:42:34.689Z</time></trkpt><trkpt lat="43.8734921" lon="12.6948796"><ele>145.0</ele><time>2026-04-04T11:42:35.688Z</time></trkpt><trkpt lat="43.8733343" lon="12.6949086"><ele>145.0</ele><time>2026-04-04T11:42:36.689Z</time></trkpt><trkpt lat="43.8731715" lon="12.6949259"><ele>145.0</ele><time>2026-04-04T11:42:37.689Z</time></trkpt><trkpt lat="43.8730207" lon="12.6949372"><ele>145.0</ele><time>2026-04-04T11:42:38.69Z</time></trkpt><trkpt lat="43.8728769" lon="12.6949487"><ele>145.0</ele><time>2026-04-04T11:42:39.689Z</time></trkpt><trkpt lat="43.8727444" lon="12.694952"><ele>145.0</ele><time>2026-04-04T11:42:40.688Z</time></trkpt><trkpt lat="43.8726193" lon="12.6949501"><ele>145.0</ele><time>2026-04-04T11:42:41.686Z</time></trkpt><trkpt lat="43.8725034" lon="12.6949463"><ele>146.0</ele><time>2026-04-04T11:42:42.688Z</time></trkpt><trkpt lat="43.8723966" lon="12.6949402"><ele>147.0</ele><time>2026-04-04T11:42:43.69Z</time></trkpt><trkpt lat="43.8722928" lon="12.6949309"><ele>148.0</ele><time>2026-04-04T11:42:44.691Z</time></trkpt><trkpt lat="43.8721982" lon="12.6949111"><ele>149.0</ele><time>2026-04-04T11:42:45.689Z</time></trkpt><trkpt lat="43.872107" lon="12.694881"><ele>150.0</ele><time>2026-04-04T11:42:46.689Z</time></trkpt><trkpt lat="43.8720164" lon="12.69485"><ele>150.0</ele><time>2026-04-04T11:42:47.687Z</time></trkpt><trkpt lat="43.8719283" lon="12.6948149"><ele>150.0</ele><time>2026-04-04T11:42:48.689Z</time></trkpt><trkpt lat="43.871845" lon="12.694769"><ele>150.0</ele><time>2026-04-04T11:42:49.688Z</time></trkpt><trkpt lat="43.8717696" lon="12.6947024"><ele>150.0</ele><time>2026-04-04T11:42:50.687Z</time></trkpt><trkpt lat="43.8717032" lon="12.6946136"><ele>150.0</ele><time>2026-04-04T11:42:51.687Z</time></trkpt><trkpt lat="43.8716449" lon="12.694517"><ele>149.83333333333334</ele><time>2026-04-04T11:42:52.691Z</time></trkpt><trkpt lat="43.8715917" lon="12.6944248"><ele>149.66666666666666</ele><time>2026-04-04T11:42:53.691Z</time></trkpt><trkpt lat="43.8715445" lon="12.69435"><ele>149.5</ele><time>2026-04-04T11:42:54.69Z</time></trkpt><trkpt lat="43.8714739" lon="12.6942592"><ele>149.33333333333331</ele><time>2026-04-04T11:42:56.689Z</time></trkpt><trkpt lat="43.8713977" lon="12.6941711"><ele>149.16666666666666</ele><time>2026-04-04T11:42:58.689Z</time></trkpt><trkpt lat="43.871341" lon="12.6941109"><ele>149.0</ele><time>2026-04-04T11:42:59.691Z</time></trkpt><trkpt lat="43.8712719" lon="12.6940491"><ele>147.6</ele><time>2026-04-04T11:43:00.689Z</time></trkpt><trkpt lat="43.8711913" lon="12.6939944"><ele>146.2</ele><time>2026-04-04T11:43:01.694Z</time></trkpt><trkpt lat="43.8711012" lon="12.6939511"><ele>144.79999999999998</ele><time>2026-04-04T11:43:02.687Z</time></trkpt><trkpt lat="43.8710053" lon="12.6939114"><ele>143.4</ele><time>2026-04-04T11:43:03.689Z</time></trkpt><trkpt lat="43.8709091" lon="12.6938778"><ele>142.0</ele><time>2026-04-04T11:43:04.69Z</time></trkpt><trkpt lat="43.8708162" lon="12.6938484"><ele>142.0</ele><time>2026-04-04T11:43:05.689Z</time></trkpt><trkpt lat="43.8707302" lon="12.6938208"><ele>142.0</ele><time>2026-04-04T11:43:06.687Z</time></trkpt><trkpt lat="43.8706524" lon="12.6937944"><ele>142.0</ele><time>2026-04-04T11:43:07.689Z</time></trkpt><trkpt lat="43.8705804" lon="12.6937746"><ele>142.0</ele><time>2026-04-04T11:43:08.687Z</time></trkpt><trkpt lat="43.8705092" lon="12.6937599"><ele>142.0</ele><time>2026-04-04T11:43:09.686Z</time></trkpt><trkpt lat="43.870438" lon="12.6937487"><ele>142.0</ele><time>2026-04-04T11:43:10.689Z</time></trkpt><trkpt lat="43.8703684" lon="12.6937326"><ele>142.0</ele><time>2026-04-04T11:43:11.685Z</time></trkpt><trkpt lat="43.8703025" lon="12.6937113"><ele>142.0</ele><time>2026-04-04T11:43:12.689Z</time></trkpt><trkpt lat="43.8702379" lon="12.6936893"><ele>142.0</ele><time>2026-04-04T11:43:13.69Z</time></trkpt><trkpt lat="43.8701719" lon="12.6936671"><ele>142.0</ele><time>2026-04-04T11:43:14.685Z</time></trkpt><trkpt lat="43.8701007" lon="12.6936413"><ele>142.0</ele><time>2026-04-04T11:43:15.686Z</time></trkpt><trkpt lat="43.8700277" lon="12.6936183"><ele>142.0</ele><time>2026-04-04T11:43:16.687Z</time></trkpt><trkpt lat="43.8699627" lon="12.6935929"><ele>142.0</ele><time>2026-04-04T11:43:17.687Z</time></trkpt><trkpt lat="43.8699025" lon="12.6935617"><ele>141.0</ele><time>2026-04-04T11:43:18.688Z</time></trkpt><trkpt lat="43.8698131" lon="12.6934622"><ele>140.0</ele><time>2026-04-04T11:43:20.687Z</time></trkpt><trkpt lat="43.8697853" lon="12.6933658"><ele>139.0</ele><time>2026-04-04T11:43:22.688Z</time></trkpt><trkpt lat="43.869816" lon="12.693266"><ele>138.0</ele><time>2026-04-04T11:43:25.689Z</time></trkpt><trkpt lat="43.8699097" lon="12.693201"><ele>137.0</ele><time>2026-04-04T11:43:27.687Z</time></trkpt><trkpt lat="43.8699762" lon="12.6931658"><ele>136.0</ele><time>2026-04-04T11:43:28.688Z</time></trkpt><trkpt lat="43.8700448" lon="12.6931176"><ele>136.0</ele><time>2026-04-04T11:43:29.691Z</time></trkpt><trkpt lat="43.8701122" lon="12.6930522"><ele>136.0</ele><time>2026-04-04T11:43:30.689Z</time></trkpt><trkpt lat="43.8701843" lon="12.6929686"><ele>136.0</ele><time>2026-04-04T11:43:31.69Z</time></trkpt><trkpt lat="43.8702543" lon="12.6928775"><ele>136.0</ele><time>2026-04-04T11:43:32.687Z</time></trkpt><trkpt lat="43.8703274" lon="12.6927847"><ele>136.0</ele><time>2026-04-04T11:43:33.689Z</time></trkpt><trkpt lat="43.8703973" lon="12.6927066"><ele>136.0</ele><time>2026-04-04T11:43:34.691Z</time></trkpt><trkpt lat="43.8704634" lon="12.6926371"><ele>136.0</ele><time>2026-04-04T11:43:35.685Z</time></trkpt><trkpt lat="43.8705286" lon="12.6925684"><ele>136.0</ele><time>2026-04-04T11:43:36.687Z</time></trkpt><trkpt lat="43.8706028" lon="12.6925109"><ele>136.0</ele><time>2026-04-04T11:43:37.688Z</time></trkpt><trkpt lat="43.8706837" lon="12.6924747"><ele>136.0</ele><time>2026-04-04T11:43:38.687Z</time></trkpt><trkpt lat="43.8707661" lon="12.6924471"><ele>136.0</ele><time>2026-04-04T11:43:39.688Z</time></trkpt><trkpt lat="43.8708472" lon="12.6924237"><ele>136.0</ele><time>2026-04-04T11:43:40.69Z</time></trkpt><trkpt lat="43.8709353" lon="12.6924106"><ele>136.0</ele><time>2026-04-04T11:43:41.689Z</time></trkpt><trkpt lat="43.8710323" lon="12.692413"><ele>136.0</ele><time>2026-04-04T11:43:42.688Z</time></trkpt><trkpt lat="43.87113" lon="12.6924319"><ele>136.0</ele><time>2026-04-04T11:43:43.688Z</time></trkpt><trkpt lat="43.871229" lon="12.6924634"><ele>136.0</ele><time>2026-04-04T11:43:44.688Z</time></trkpt><trkpt lat="43.8713309" lon="12.6924997"><ele>135.83333333333334</ele><time>2026-04-04T11:43:45.689Z</time></trkpt><trkpt lat="43.8714292" lon="12.6925264"><ele>135.66666666666669</ele><time>2026-04-04T11:43:46.686Z</time></trkpt><trkpt lat="43.8715268" lon="12.692543"><ele>135.5</ele><time>2026-04-04T11:43:47.688Z</time></trkpt><trkpt lat="43.8716161" lon="12.692547"><ele>135.33333333333334</ele><time>2026-04-04T11:43:48.689Z</time></trkpt><trkpt lat="43.871695" lon="12.6925466"><ele>135.16666666666666</ele><time>2026-04-04T11:43:49.689Z</time></trkpt><trkpt lat="43.8717668" lon="12.6925394"><ele>135.0</ele><time>2026-04-04T11:43:50.688Z</time></trkpt><trkpt lat="43.8718713" lon="12.6925016"><ele>133.83333333333334</ele><time>2026-04-04T11:43:52.689Z</time></trkpt><trkpt lat="43.8719686" lon="12.6924125"><ele>132.66666666666666</ele><time>2026-04-04T11:43:54.69Z</time></trkpt><trkpt lat="43.8720241" lon="12.6923559"><ele>131.5</ele><time>2026-04-04T11:43:55.691Z</time></trkpt><trkpt lat="43.8720836" lon="12.692295"><ele>130.33333333333331</ele><time>2026-04-04T11:43:56.691Z</time></trkpt><trkpt lat="43.8721449" lon="12.692227"><ele>129.16666666666666</ele><time>2026-04-04T11:43:57.686Z</time></trkpt><trkpt lat="43.8722061" lon="12.6921477"><ele>128.0</ele><time>2026-04-04T11:43:58.687Z</time></trkpt><trkpt lat="43.8722605" lon="12.6920625"><ele>128.0</ele><time>2026-04-04T11:43:59.687Z</time></trkpt><trkpt lat="43.8723065" lon="12.6919777"><ele>128.0</ele><time>2026-04-04T11:44:00.688Z</time></trkpt><trkpt lat="43.8723464" lon="12.6918993"><ele>128.0</ele><time>2026-04-04T11:44:01.689Z</time></trkpt><trkpt lat="43.8724043" lon="12.6917645"><ele>128.0</ele><time>2026-04-04T11:44:03.687Z</time></trkpt><trkpt lat="43.87247" lon="12.691677"><ele>128.0</ele><time>2026-04-04T11:44:05.688Z</time></trkpt><trkpt lat="43.8725776" lon="12.6916239"><ele>126.99999999999999</ele><time>2026-04-04T11:44:07.689Z</time></trkpt><trkpt lat="43.8726461" lon="12.6916185"><ele>126.0</ele><time>2026-04-04T11:44:08.685Z</time></trkpt><trkpt lat="43.8727117" lon="12.6916147"><ele>125.0</ele><time>2026-04-04T11:44:09.69Z</time></trkpt><trkpt lat="43.8728134" lon="12.6915999"><ele>124.0</ele><time>2026-04-04T11:44:11.687Z</time></trkpt><trkpt lat="43.8728971" lon="12.6915401"><ele>122.99999999999999</ele><time>2026-04-04T11:44:13.688Z</time></trkpt><trkpt lat="43.872964" lon="12.6914598"><ele>122.0</ele><time>2026-04-04T11:44:15.685Z</time></trkpt><trkpt lat="43.8729986" lon="12.691382"><ele>121.99999999999999</ele><time>2026-04-04T11:44:17.686Z</time></trkpt><trkpt lat="43.8730173" lon="12.691293"><ele>122.0</ele><time>2026-04-04T11:44:19.689Z</time></trkpt><trkpt lat="43.8730313" lon="12.6912018"><ele>122.0</ele><time>2026-04-04T11:44:21.687Z</time></trkpt><trkpt lat="43.8730664" lon="12.6910784"><ele>122.0</ele><time>2026-04-04T11:44:23.69Z</time></trkpt><trkpt lat="43.8731364" lon="12.6909416"><ele>121.99999999999999</ele><time>2026-04-04T11:44:25.69Z</time></trkpt><trkpt lat="43.8731792" lon="12.6908747"><ele>122.0</ele><time>2026-04-04T11:44:26.689Z</time></trkpt><trkpt lat="43.8732217" lon="12.6908081"><ele>121.16666666666666</ele><time>2026-04-04T11:44:27.688Z</time></trkpt><trkpt lat="43.873295" lon="12.6907116"><ele>120.33333333333333</ele><time>2026-04-04T11:44:29.684Z</time></trkpt><trkpt lat="43.8733596" lon="12.6906461"><ele>119.5</ele><time>2026-04-04T11:44:31.688Z</time></trkpt><trkpt lat="43.8734298" lon="12.6905459"><ele>118.66666666666666</ele><time>2026-04-04T11:44:34.688Z</time></trkpt><trkpt lat="43.8734752" lon="12.6904532"><ele>117.83333333333333</ele><time>2026-04-04T11:44:36.688Z</time></trkpt><trkpt lat="43.8734812" lon="12.6903485"><ele>117.0</ele><time>2026-04-04T11:44:38.686Z</time></trkpt><trkpt lat="43.8734396" lon="12.6902051"><ele>121.16666666666667</ele><time>2026-04-04T11:44:40.691Z</time></trkpt><trkpt lat="43.8734124" lon="12.6901229"><ele>125.33333333333334</ele><time>2026-04-04T11:44:41.684Z</time></trkpt><trkpt lat="43.8733746" lon="12.6900343"><ele>129.5</ele><time>2026-04-04T11:44:42.688Z</time></trkpt><trkpt lat="43.8733295" lon="12.6899431"><ele>133.66666666666669</ele><time>2026-04-04T11:44:43.689Z</time></trkpt><trkpt lat="43.8732851" lon="12.6898563"><ele>137.83333333333334</ele><time>2026-04-04T11:44:44.686Z</time></trkpt><trkpt lat="43.8732499" lon="12.6897736"><ele>142.0</ele><time>2026-04-04T11:44:45.687Z</time></trkpt><trkpt lat="43.873216" lon="12.6896134"><ele>142.0</ele><time>2026-04-04T11:44:47.687Z</time></trkpt><trkpt lat="43.8732057" lon="12.6894394"><ele>142.0</ele><time>2026-04-04T11:44:49.689Z</time></trkpt><trkpt lat="43.8732044" lon="12.6893493"><ele>142.0</ele><time>2026-04-04T11:44:50.686Z</time></trkpt><trkpt lat="43.8731942" lon="12.6892574"><ele>142.0</ele><time>2026-04-04T11:44:51.689Z</time></trkpt><trkpt lat="43.8731977" lon="12.6890954"><ele>142.0</ele><time>2026-04-04T11:44:53.691Z</time></trkpt><trkpt lat="43.8732488" lon="12.6889436"><ele>143.33333333333334</ele><time>2026-04-04T11:44:55.69Z</time></trkpt><trkpt lat="43.873292" lon="12.6888099"><ele>144.66666666666669</ele><time>2026-04-04T11:44:57.689Z</time></trkpt><trkpt lat="43.8733203" lon="12.688695"><ele>146.0</ele><time>2026-04-04T11:44:59.686Z</time></trkpt><trkpt lat="43.8733036" lon="12.6885542"><ele>147.33333333333334</ele><time>2026-04-04T11:45:01.688Z</time></trkpt><trkpt lat="43.8732749" lon="12.688465"><ele>148.66666666666666</ele><time>2026-04-04T11:45:02.689Z</time></trkpt><trkpt lat="43.8732385" lon="12.6883699"><ele>150.0</ele><time>2026-04-04T11:45:03.686Z</time></trkpt><trkpt lat="43.8732065" lon="12.6882741"><ele>150.16666666666666</ele><time>2026-04-04T11:45:04.687Z</time></trkpt><trkpt lat="43.8731772" lon="12.688189"><ele>150.33333333333334</ele><time>2026-04-04T11:45:05.687Z</time></trkpt><trkpt lat="43.8731271" lon="12.6880552"><ele>150.5</ele><time>2026-04-04T11:45:07.688Z</time></trkpt><trkpt lat="43.8730841" lon="12.6879698"><ele>150.66666666666669</ele><time>2026-04-04T11:45:09.688Z</time></trkpt><trkpt lat="43.8731558" lon="12.6878795"><ele>150.83333333333334</ele><time>2026-04-04T11:45:43.69Z</time></trkpt><trkpt lat="43.873207" lon="12.687822"><ele>151.0</ele><time>2026-04-04T11:45:44.687Z</time></trkpt><trkpt lat="43.8732597" lon="12.687744"><ele>151.0</ele><time>2026-04-04T11:45:45.688Z</time></trkpt><trkpt lat="43.8732945" lon="12.6876473"><ele>151.0</ele><time>2026-04-04T11:45:46.689Z</time></trkpt><trkpt lat="43.8732927" lon="12.6875358"><ele>151.0</ele><time>2026-04-04T11:45:47.687Z</time></trkpt><trkpt lat="43.8732577" lon="12.6874124"><ele>151.0</ele><time>2026-04-04T11:45:48.688Z</time></trkpt><trkpt lat="43.8732026" lon="12.6872664"><ele>151.0</ele><time>2026-04-04T11:45:49.69Z</time></trkpt><trkpt lat="43.8731579" lon="12.6871068"><ele>151.0</ele><time>2026-04-04T11:45:50.685Z</time></trkpt><trkpt lat="43.8731388" lon="12.6869394"><ele>151.0</ele><time>2026-04-04T11:45:51.689Z</time></trkpt><trkpt lat="43.873149" lon="12.6867719"><ele>151.0</ele><time>2026-04-04T11:45:52.687Z</time></trkpt><trkpt lat="43.8731795" lon="12.6866085"><ele>151.0</ele><time>2026-04-04T11:45:53.69Z</time></trkpt><trkpt lat="43.8732162" lon="12.6864572"><ele>149.6</ele><time>2026-04-04T11:45:54.689Z</time></trkpt><trkpt lat="43.8732526" lon="12.6863154"><ele>148.2</ele><time>2026-04-04T11:45:55.69Z</time></trkpt><trkpt lat="43.8732835" lon="12.6861789"><ele>146.8</ele><time>2026-04-04T11:45:56.687Z</time></trkpt><trkpt lat="43.8733028" lon="12.6860485"><ele>145.4</ele><time>2026-04-04T11:45:57.688Z</time></trkpt><trkpt lat="43.8733019" lon="12.6859208"><ele>144.0</ele><time>2026-04-04T11:45:58.688Z</time></trkpt><trkpt lat="43.8732843" lon="12.6858013"><ele>143.83333333333334</ele><time>2026-04-04T11:45:59.688Z</time></trkpt><trkpt lat="43.8732568" lon="12.6856909"><ele>143.66666666666666</ele><time>2026-04-04T11:46:00.689Z</time></trkpt><trkpt lat="43.8732231" lon="12.6855912"><ele>143.5</ele><time>2026-04-04T11:46:01.691Z</time></trkpt><trkpt lat="43.8731809" lon="12.6855031"><ele>143.33333333333331</ele><time>2026-04-04T11:46:02.689Z</time></trkpt><trkpt lat="43.8731405" lon="12.6854187"><ele>143.16666666666666</ele><time>2026-04-04T11:46:03.687Z</time></trkpt><trkpt lat="43.8730905" lon="12.6853338"><ele>143.0</ele><time>2026-04-04T11:46:04.688Z</time></trkpt><trkpt lat="43.8730371" lon="12.6852467"><ele>141.0</ele><time>2026-04-04T11:46:05.687Z</time></trkpt><trkpt lat="43.872986" lon="12.6851574"><ele>139.0</ele><time>2026-04-04T11:46:06.688Z</time></trkpt><trkpt lat="43.872939" lon="12.6850638"><ele>137.0</ele><time>2026-04-04T11:46:07.688Z</time></trkpt><trkpt lat="43.872883" lon="12.6849735"><ele>135.0</ele><time>2026-04-04T11:46:08.686Z</time></trkpt><trkpt lat="43.872823" lon="12.6848874"><ele>133.0</ele><time>2026-04-04T11:46:09.688Z</time></trkpt><trkpt lat="43.8727625" lon="12.6848"><ele>131.0</ele><time>2026-04-04T11:46:10.688Z</time></trkpt><trkpt lat="43.8727007" lon="12.6847134"><ele>131.0</ele><time>2026-04-04T11:46:11.686Z</time></trkpt><trkpt lat="43.8726356" lon="12.6846278"><ele>131.0</ele><time>2026-04-04T11:46:12.688Z</time></trkpt><trkpt lat="43.8725701" lon="12.6845373"><ele>131.0</ele><time>2026-04-04T11:46:13.688Z</time></trkpt><trkpt lat="43.8725078" lon="12.6844407"><ele>131.0</ele><time>2026-04-04T11:46:14.686Z</time></trkpt><trkpt lat="43.8724529" lon="12.6843457"><ele>131.0</ele><time>2026-04-04T11:46:15.687Z</time></trkpt><trkpt lat="43.8724068" lon="12.6842457"><ele>131.0</ele><time>2026-04-04T11:46:16.689Z</time></trkpt><trkpt lat="43.8723751" lon="12.6841419"><ele>130.8</ele><time>2026-04-04T11:46:17.687Z</time></trkpt><trkpt lat="43.8723491" lon="12.6840245"><ele>130.6</ele><time>2026-04-04T11:46:18.688Z</time></trkpt><trkpt lat="43.8723272" lon="12.6838881"><ele>130.4</ele><time>2026-04-04T11:46:19.688Z</time></trkpt><trkpt lat="43.872308" lon="12.6837397"><ele>130.2</ele><time>2026-04-04T11:46:20.686Z</time></trkpt><trkpt lat="43.8722893" lon="12.6835892"><ele>130.0</ele><time>2026-04-04T11:46:21.687Z</time></trkpt><trkpt lat="43.8722726" lon="12.6834476"><ele>130.0</ele><time>2026-04-04T11:46:22.687Z</time></trkpt><trkpt lat="43.8722565" lon="12.6833139"><ele>130.0</ele><time>2026-04-04T11:46:23.69Z</time></trkpt><trkpt lat="43.872247" lon="12.6831862"><ele>130.0</ele><time>2026-04-04T11:46:24.689Z</time></trkpt><trkpt lat="43.8722488" lon="12.6830604"><ele>130.0</ele><time>2026-04-04T11:46:25.687Z</time></trkpt><trkpt lat="43.8722686" lon="12.6829384"><ele>130.0</ele><time>2026-04-04T11:46:26.688Z</time></trkpt><trkpt lat="43.8723074" lon="12.6828282"><ele>130.16666666666669</ele><time>2026-04-04T11:46:27.688Z</time></trkpt><trkpt lat="43.8723622" lon="12.6827375"><ele>130.33333333333334</ele><time>2026-04-04T11:46:28.689Z</time></trkpt><trkpt lat="43.8724297" lon="12.6826587"><ele>130.5</ele><time>2026-04-04T11:46:29.689Z</time></trkpt><trkpt lat="43.8725008" lon="12.6825885"><ele>130.66666666666666</ele><time>2026-04-04T11:46:30.688Z</time></trkpt><trkpt lat="43.8725697" lon="12.6825315"><ele>130.83333333333331</ele><time>2026-04-04T11:46:31.688Z</time></trkpt><trkpt lat="43.8726343" lon="12.6824905"><ele>131.0</ele><time>2026-04-04T11:46:32.686Z</time></trkpt><trkpt lat="43.872739" lon="12.6824611"><ele>132.16666666666666</ele><time>2026-04-04T11:46:34.688Z</time></trkpt><trkpt lat="43.8727981" lon="12.6823853"><ele>133.33333333333331</ele><time>2026-04-04T11:46:37.689Z</time></trkpt><trkpt lat="43.8727775" lon="12.6822598"><ele>134.5</ele><time>2026-04-04T11:46:40.688Z</time></trkpt><trkpt lat="43.8727547" lon="12.6821613"><ele>135.66666666666666</ele><time>2026-04-04T11:46:42.69Z</time></trkpt><trkpt lat="43.8727183" lon="12.6820629"><ele>136.83333333333334</ele><time>2026-04-04T11:46:44.685Z</time></trkpt><trkpt lat="43.8726688" lon="12.6819787"><ele>138.0</ele><time>2026-04-04T11:46:46.689Z</time></trkpt><trkpt lat="43.8726046" lon="12.6818754"><ele>138.0</ele><time>2026-04-04T11:46:48.687Z</time></trkpt><trkpt lat="43.8725357" lon="12.6817514"><ele>138.0</ele><time>2026-04-04T11:46:50.685Z</time></trkpt><trkpt lat="43.8724929" lon="12.6816061"><ele>138.0</ele><time>2026-04-04T11:46:52.689Z</time></trkpt><trkpt lat="43.872469" lon="12.6814382"><ele>138.0</ele><time>2026-04-04T11:46:54.689Z</time></trkpt><trkpt lat="43.872452" lon="12.6813512"><ele>138.0</ele><time>2026-04-04T11:46:55.689Z</time></trkpt><trkpt lat="43.8724257" lon="12.681266"><ele>138.0</ele><time>2026-04-04T11:46:56.685Z</time></trkpt><trkpt lat="43.8723923" lon="12.6811835"><ele>138.0</ele><time>2026-04-04T11:46:57.686Z</time></trkpt><trkpt lat="43.8723567" lon="12.6811019"><ele>138.0</ele><time>2026-04-04T11:46:58.687Z</time></trkpt><trkpt lat="43.8723212" lon="12.681023"><ele>138.0</ele><time>2026-04-04T11:46:59.687Z</time></trkpt><trkpt lat="43.8722881" lon="12.6809476"><ele>138.0</ele><time>2026-04-04T11:47:00.688Z</time></trkpt><trkpt lat="43.8722519" lon="12.6808726"><ele>138.0</ele><time>2026-04-04T11:47:01.689Z</time></trkpt><trkpt lat="43.8722126" lon="12.6807938"><ele>138.0</ele><time>2026-04-04T11:47:02.686Z</time></trkpt><trkpt lat="43.8721657" lon="12.6807127"><ele>138.0</ele><time>2026-04-04T11:47:03.687Z</time></trkpt><trkpt lat="43.8721139" lon="12.6806352"><ele>138.0</ele><time>2026-04-04T11:47:04.687Z</time></trkpt><trkpt lat="43.8720605" lon="12.6805668"><ele>138.0</ele><time>2026-04-04T11:47:05.687Z</time></trkpt><trkpt lat="43.872011" lon="12.6805089"><ele>138.0</ele><time>2026-04-04T11:47:06.689Z</time></trkpt><trkpt lat="43.8718991" lon="12.6804297"><ele>138.0</ele><time>2026-04-04T11:47:08.687Z</time></trkpt><trkpt lat="43.8718272" lon="12.6804061"><ele>138.0</ele><time>2026-04-04T11:47:09.686Z</time></trkpt><trkpt lat="43.8717482" lon="12.6803856"><ele>138.0</ele><time>2026-04-04T11:47:10.687Z</time></trkpt><trkpt lat="43.8716675" lon="12.6803584"><ele>138.0</ele><time>2026-04-04T11:47:11.686Z</time></trkpt><trkpt lat="43.8715935" lon="12.6803294"><ele>138.0</ele><time>2026-04-04T11:47:12.688Z</time></trkpt><trkpt lat="43.8715203" lon="12.6803048"><ele>138.0</ele><time>2026-04-04T11:47:13.688Z</time></trkpt><trkpt lat="43.8714423" lon="12.6802864"><ele>138.0</ele><time>2026-04-04T11:47:14.687Z</time></trkpt><trkpt lat="43.871369" lon="12.6802732"><ele>138.0</ele><time>2026-04-04T11:47:15.688Z</time></trkpt><trkpt lat="43.8712548" lon="12.6802352"><ele>141.6</ele><time>2026-04-04T11:47:17.687Z</time></trkpt><trkpt lat="43.8711541" lon="12.6801645"><ele>145.20000000000002</ele><time>2026-04-04T11:47:19.687Z</time></trkpt><trkpt lat="43.8710971" lon="12.6800418"><ele>148.8</ele><time>2026-04-04T11:47:21.686Z</time></trkpt><trkpt lat="43.8710619" lon="12.6799083"><ele>152.4</ele><time>2026-04-04T11:47:23.687Z</time></trkpt><trkpt lat="43.8710366" lon="12.6797603"><ele>156.0</ele><time>2026-04-04T11:47:25.69Z</time></trkpt><trkpt lat="43.8710369" lon="12.6795871"><ele>156.0</ele><time>2026-04-04T11:47:27.687Z</time></trkpt><trkpt lat="43.871049" lon="12.679485"><ele>156.0</ele><time>2026-04-04T11:47:28.687Z</time></trkpt><trkpt lat="43.8710608" lon="12.6793842"><ele>156.0</ele><time>2026-04-04T11:47:29.687Z</time></trkpt><trkpt lat="43.8710631" lon="12.6792254"><ele>156.0</ele><time>2026-04-04T11:47:31.689Z</time></trkpt><trkpt lat="43.8710143" lon="12.679152"><ele>156.0</ele><time>2026-04-04T11:47:33.687Z</time></trkpt><trkpt lat="43.8709046" lon="12.6791202"><ele>156.0</ele><time>2026-04-04T11:47:35.69Z</time></trkpt><trkpt lat="43.8708423" lon="12.6791056"><ele>156.83333333333334</ele><time>2026-04-04T11:47:36.688Z</time></trkpt><trkpt lat="43.8707795" lon="12.6790827"><ele>157.66666666666666</ele><time>2026-04-04T11:47:37.689Z</time></trkpt><trkpt lat="43.8707156" lon="12.6790396"><ele>158.5</ele><time>2026-04-04T11:47:38.688Z</time></trkpt><trkpt lat="43.870646" lon="12.6789752"><ele>159.33333333333331</ele><time>2026-04-04T11:47:39.688Z</time></trkpt><trkpt lat="43.8705779" lon="12.6789012"><ele>160.16666666666666</ele><time>2026-04-04T11:47:40.689Z</time></trkpt><trkpt lat="43.8705105" lon="12.678823"><ele>161.0</ele><time>2026-04-04T11:47:41.689Z</time></trkpt><trkpt lat="43.8704434" lon="12.678748"><ele>161.0</ele><time>2026-04-04T11:47:42.689Z</time></trkpt><trkpt lat="43.8703815" lon="12.6786876"><ele>161.0</ele><time>2026-04-04T11:47:43.692Z</time></trkpt><trkpt lat="43.8703245" lon="12.6786358"><ele>161.0</ele><time>2026-04-04T11:47:44.685Z</time></trkpt><trkpt lat="43.8702481" lon="12.6785431"><ele>161.0</ele><time>2026-04-04T11:47:46.689Z</time></trkpt><trkpt lat="43.8702188" lon="12.6784428"><ele>161.0</ele><time>2026-04-04T11:47:48.69Z</time></trkpt><trkpt lat="43.870251" lon="12.6783436"><ele>161.0</ele><time>2026-04-04T11:47:50.689Z</time></trkpt><trkpt lat="43.870336" lon="12.6782337"><ele>162.66666666666666</ele><time>2026-04-04T11:47:52.688Z</time></trkpt><trkpt lat="43.8704179" lon="12.6781194"><ele>164.33333333333331</ele><time>2026-04-04T11:47:54.689Z</time></trkpt><trkpt lat="43.870449" lon="12.6780282"><ele>166.0</ele><time>2026-04-04T11:47:56.691Z</time></trkpt><trkpt lat="43.8704346" lon="12.6779124"><ele>167.66666666666666</ele><time>2026-04-04T11:47:58.689Z</time></trkpt><trkpt lat="43.8704055" lon="12.6778177"><ele>169.33333333333334</ele><time>2026-04-04T11:48:00.687Z</time></trkpt><trkpt lat="43.8704309" lon="12.6779257"><ele>171.0</ele><time>2026-04-04T11:48:33.693Z</time></trkpt><trkpt lat="43.8704488" lon="12.67802"><ele>171.0</ele><time>2026-04-04T11:48:35.689Z</time></trkpt><trkpt lat="43.8704199" lon="12.678107"><ele>171.0</ele><time>2026-04-04T11:48:37.69Z</time></trkpt><trkpt lat="43.8703577" lon="12.678172"><ele>171.0</ele><time>2026-04-04T11:48:39.686Z</time></trkpt><trkpt lat="43.8702876" lon="12.6782607"><ele>171.0</ele><time>2026-04-04T11:48:41.687Z</time></trkpt><trkpt lat="43.8702323" lon="12.678347"><ele>171.0</ele><time>2026-04-04T11:48:43.69Z</time></trkpt><trkpt lat="43.870214" lon="12.6784485"><ele>171.0</ele><time>2026-04-04T11:48:45.688Z</time></trkpt><trkpt lat="43.8702524" lon="12.6785507"><ele>169.33333333333334</ele><time>2026-04-04T11:48:47.686Z</time></trkpt><trkpt lat="43.8703369" lon="12.678652"><ele>167.66666666666666</ele><time>2026-04-04T11:48:49.689Z</time></trkpt><trkpt lat="43.8703879" lon="12.6787047"><ele>166.0</ele><time>2026-04-04T11:48:50.686Z</time></trkpt><trkpt lat="43.8704393" lon="12.678765"><ele>164.33333333333331</ele><time>2026-04-04T11:48:51.69Z</time></trkpt><trkpt lat="43.8704954" lon="12.6788314"><ele>162.66666666666666</ele><time>2026-04-04T11:48:52.689Z</time></trkpt><trkpt lat="43.8705538" lon="12.6788991"><ele>161.0</ele><time>2026-04-04T11:48:53.685Z</time></trkpt><trkpt lat="43.8706113" lon="12.6789667"><ele>161.0</ele><time>2026-04-04T11:48:54.688Z</time></trkpt><trkpt lat="43.8706642" lon="12.6790266"><ele>161.0</ele><time>2026-04-04T11:48:55.69Z</time></trkpt><trkpt lat="43.8707724" lon="12.6790952"><ele>161.0</ele><time>2026-04-04T11:48:57.69Z</time></trkpt><trkpt lat="43.8708726" lon="12.6791125"><ele>161.0</ele><time>2026-04-04T11:48:59.685Z</time></trkpt><trkpt lat="43.8709683" lon="12.6791358"><ele>161.0</ele><time>2026-04-04T11:49:01.689Z</time></trkpt><trkpt lat="43.8710478" lon="12.6791992"><ele>160.0</ele><time>2026-04-04T11:49:03.686Z</time></trkpt><trkpt lat="43.8710825" lon="12.6792757"><ele>159.0</ele><time>2026-04-04T11:49:05.687Z</time></trkpt><trkpt lat="43.8710706" lon="12.6794243"><ele>158.0</ele><time>2026-04-04T11:49:07.689Z</time></trkpt><trkpt lat="43.8710574" lon="12.6795883"><ele>157.0</ele><time>2026-04-04T11:49:09.687Z</time></trkpt><trkpt lat="43.8710638" lon="12.6797198"><ele>156.0</ele><time>2026-04-04T11:49:11.688Z</time></trkpt><trkpt lat="43.8711053" lon="12.6798679"><ele>156.0</ele><time>2026-04-04T11:49:13.69Z</time></trkpt><trkpt lat="43.8711507" lon="12.6799844"><ele>156.0</ele><time>2026-04-04T11:49:15.687Z</time></trkpt><trkpt lat="43.8712276" lon="12.6799376"><ele>156.0</ele><time>2026-04-04T11:49:28.688Z</time></trkpt><trkpt lat="43.8712792" lon="12.6798408"><ele>156.0</ele><time>2026-04-04T11:49:30.69Z</time></trkpt><trkpt lat="43.8712306" lon="12.6799184"><ele>156.0</ele><time>2026-04-04T11:50:04.687Z</time></trkpt><trkpt lat="43.8712044" lon="12.6800325"><ele>156.0</ele><time>2026-04-04T11:50:07.688Z</time></trkpt><trkpt lat="43.8712089" lon="12.6801394"><ele>156.0</ele><time>2026-04-04T11:50:11.687Z</time></trkpt><trkpt lat="43.8712518" lon="12.6802042"><ele>156.0</ele><time>2026-04-04T11:50:13.69Z</time></trkpt><trkpt lat="43.8713053" lon="12.6802573"><ele>156.0</ele><time>2026-04-04T11:50:15.687Z</time></trkpt><trkpt lat="43.8713804" lon="12.6802714"><ele>156.0</ele><time>2026-04-04T11:50:17.69Z</time></trkpt><trkpt lat="43.8714596" lon="12.6802666"><ele>156.0</ele><time>2026-04-04T11:50:19.691Z</time></trkpt><trkpt lat="43.8715456" lon="12.6802902"><ele>156.0</ele><time>2026-04-04T11:50:21.689Z</time></trkpt><trkpt lat="43.8716359" lon="12.6803258"><ele>155.0</ele><time>2026-04-04T11:50:23.69Z</time></trkpt><trkpt lat="43.8717262" lon="12.6803658"><ele>154.0</ele><time>2026-04-04T11:50:25.69Z</time></trkpt><trkpt lat="43.8718226" lon="12.6804069"><ele>153.0</ele><time>2026-04-04T11:50:27.689Z</time></trkpt><trkpt lat="43.8719195" lon="12.6804476"><ele>152.0</ele><time>2026-04-04T11:50:29.69Z</time></trkpt><trkpt lat="43.8720118" lon="12.6805072"><ele>151.0</ele><time>2026-04-04T11:50:31.69Z</time></trkpt><trkpt lat="43.8721039" lon="12.6806191"><ele>151.00000000000003</ele><time>2026-04-04T11:50:33.687Z</time></trkpt><trkpt lat="43.8721476" lon="12.6806866"><ele>151.0</ele><time>2026-04-04T11:50:34.689Z</time></trkpt><trkpt lat="43.8721907" lon="12.6807605"><ele>151.0</ele><time>2026-04-04T11:50:35.684Z</time></trkpt><trkpt lat="43.8722289" lon="12.6808329"><ele>151.0</ele><time>2026-04-04T11:50:36.686Z</time></trkpt><trkpt lat="43.8722683" lon="12.6809136"><ele>151.0</ele><time>2026-04-04T11:50:37.688Z</time></trkpt><trkpt lat="43.8723104" lon="12.6809988"><ele>151.00000000000003</ele><time>2026-04-04T11:50:38.685Z</time></trkpt><trkpt lat="43.8723521" lon="12.6810883"><ele>151.0</ele><time>2026-04-04T11:50:39.686Z</time></trkpt><trkpt lat="43.8723934" lon="12.6811785"><ele>148.83333333333334</ele><time>2026-04-04T11:50:40.686Z</time></trkpt><trkpt lat="43.8724281" lon="12.6812662"><ele>146.66666666666669</ele><time>2026-04-04T11:50:41.686Z</time></trkpt><trkpt lat="43.8724577" lon="12.6813514"><ele>144.5</ele><time>2026-04-04T11:50:42.686Z</time></trkpt><trkpt lat="43.8724825" lon="12.6814361"><ele>142.33333333333334</ele><time>2026-04-04T11:50:43.69Z</time></trkpt><trkpt lat="43.8725176" lon="12.6815942"><ele>140.16666666666666</ele><time>2026-04-04T11:50:45.686Z</time></trkpt><trkpt lat="43.8725351" lon="12.6816788"><ele>138.0</ele><time>2026-04-04T11:50:46.687Z</time></trkpt><trkpt lat="43.8725604" lon="12.6817626"><ele>138.0</ele><time>2026-04-04T11:50:47.687Z</time></trkpt><trkpt lat="43.872597" lon="12.6818475"><ele>138.0</ele><time>2026-04-04T11:50:48.688Z</time></trkpt><trkpt lat="43.8726377" lon="12.6819246"><ele>138.0</ele><time>2026-04-04T11:50:49.688Z</time></trkpt><trkpt lat="43.8726798" lon="12.6819929"><ele>138.0</ele><time>2026-04-04T11:50:50.688Z</time></trkpt><trkpt lat="43.8727219" lon="12.6820579"><ele>138.0</ele><time>2026-04-04T11:50:51.686Z</time></trkpt><trkpt lat="43.8727775" lon="12.6821889"><ele>138.0</ele><time>2026-04-04T11:50:53.686Z</time></trkpt><trkpt lat="43.8727987" lon="12.6823065"><ele>139.20000000000002</ele><time>2026-04-04T11:50:55.689Z</time></trkpt><trkpt lat="43.8728395" lon="12.6824055"><ele>140.4</ele><time>2026-04-04T11:51:06.687Z</time></trkpt><trkpt lat="43.8729568" lon="12.6825153"><ele>141.60000000000002</ele><time>2026-04-04T11:51:08.689Z</time></trkpt><trkpt lat="43.873049" lon="12.6825769"><ele>142.8</ele><time>2026-04-04T11:51:09.688Z</time></trkpt><trkpt lat="43.8731546" lon="12.6826432"><ele>144.0</ele><time>2026-04-04T11:51:10.689Z</time></trkpt><trkpt lat="43.8732591" lon="12.6827108"><ele>145.25</ele><time>2026-04-04T11:51:11.689Z</time></trkpt><trkpt lat="43.8733642" lon="12.6827875"><ele>146.5</ele><time>2026-04-04T11:51:12.687Z</time></trkpt><trkpt lat="43.8734596" lon="12.682887"><ele>147.75</ele><time>2026-04-04T11:51:13.687Z</time></trkpt><trkpt lat="43.8735436" lon="12.6830149"><ele>149.0</ele><time>2026-04-04T11:51:14.689Z</time></trkpt><trkpt lat="43.8736185" lon="12.6831609"><ele>149.0</ele><time>2026-04-04T11:51:15.688Z</time></trkpt><trkpt lat="43.8736942" lon="12.6833116"><ele>149.0</ele><time>2026-04-04T11:51:16.688Z</time></trkpt><trkpt lat="43.8737743" lon="12.6834635"><ele>149.0</ele><time>2026-04-04T11:51:17.684Z</time></trkpt><trkpt lat="43.8738574" lon="12.6836159"><ele>149.0</ele><time>2026-04-04T11:51:18.69Z</time></trkpt><trkpt lat="43.8739423" lon="12.6837689"><ele>146.25</ele><time>2026-04-04T11:51:19.688Z</time></trkpt><trkpt lat="43.8740247" lon="12.6839067"><ele>143.5</ele><time>2026-04-04T11:51:20.685Z</time></trkpt><trkpt lat="43.8741116" lon="12.6840097"><ele>140.75</ele><time>2026-04-04T11:51:21.688Z</time></trkpt><trkpt lat="43.8742146" lon="12.6840681"><ele>138.0</ele><time>2026-04-04T11:51:22.687Z</time></trkpt><trkpt lat="43.8743304" lon="12.6840894"><ele>138.0</ele><time>2026-04-04T11:51:23.686Z</time></trkpt><trkpt lat="43.874447" lon="12.684073"><ele>138.0</ele><time>2026-04-04T11:51:24.687Z</time></trkpt><trkpt lat="43.8745588" lon="12.6840112"><ele>138.0</ele><time>2026-04-04T11:51:25.694Z</time></trkpt><trkpt lat="43.8746541" lon="12.6839109"><ele>138.0</ele><time>2026-04-04T11:51:26.686Z</time></trkpt><trkpt lat="43.8747416" lon="12.6837766"><ele>138.0</ele><time>2026-04-04T11:51:27.693Z</time></trkpt><trkpt lat="43.8748258" lon="12.6836319"><ele>138.0</ele><time>2026-04-04T11:51:28.687Z</time></trkpt><trkpt lat="43.8749074" lon="12.6834963"><ele>138.0</ele><time>2026-04-04T11:51:29.688Z</time></trkpt><trkpt lat="43.8749912" lon="12.6833821"><ele>138.0</ele><time>2026-04-04T11:51:30.687Z</time></trkpt><trkpt lat="43.8750759" lon="12.6832973"><ele>142.0</ele><time>2026-04-04T11:51:31.688Z</time></trkpt><trkpt lat="43.8751606" lon="12.6832441"><ele>146.0</ele><time>2026-04-04T11:51:32.686Z</time></trkpt><trkpt lat="43.8752442" lon="12.6832261"><ele>150.0</ele><time>2026-04-04T11:51:33.686Z</time></trkpt><trkpt lat="43.875326" lon="12.6832432"><ele>154.0</ele><time>2026-04-04T11:51:34.689Z</time></trkpt><trkpt lat="43.8754061" lon="12.6832817"><ele>158.0</ele><time>2026-04-04T11:51:35.687Z</time></trkpt><trkpt lat="43.8754985" lon="12.6833539"><ele>158.0</ele><time>2026-04-04T11:51:36.688Z</time></trkpt><trkpt lat="43.8756137" lon="12.6834857"><ele>158.0</ele><time>2026-04-04T11:51:37.689Z</time></trkpt><trkpt lat="43.8757167" lon="12.6836416"><ele>158.0</ele><time>2026-04-04T11:51:38.689Z</time></trkpt><trkpt lat="43.8758169" lon="12.6838022"><ele>158.33333333333331</ele><time>2026-04-04T11:51:39.686Z</time></trkpt><trkpt lat="43.8759301" lon="12.6839473"><ele>158.66666666666666</ele><time>2026-04-04T11:51:40.689Z</time></trkpt><trkpt lat="43.8760542" lon="12.6840696"><ele>159.0</ele><time>2026-04-04T11:51:41.688Z</time></trkpt><trkpt lat="43.8761795" lon="12.6841836"><ele>159.0</ele><time>2026-04-04T11:51:42.687Z</time></trkpt><trkpt lat="43.8762982" lon="12.684287"><ele>159.0</ele><time>2026-04-04T11:51:43.689Z</time></trkpt><trkpt lat="43.8764074" lon="12.6843802"><ele>159.0</ele><time>2026-04-04T11:51:44.686Z</time></trkpt><trkpt lat="43.8765025" lon="12.6844585"><ele>159.0</ele><time>2026-04-04T11:51:45.687Z</time></trkpt><trkpt lat="43.876589" lon="12.6845125"><ele>157.4</ele><time>2026-04-04T11:51:46.688Z</time></trkpt><trkpt lat="43.8766706" lon="12.6845357"><ele>155.8</ele><time>2026-04-04T11:51:47.686Z</time></trkpt><trkpt lat="43.8767428" lon="12.6845227"><ele>154.2</ele><time>2026-04-04T11:51:48.686Z</time></trkpt><trkpt lat="43.8768138" lon="12.6844735"><ele>152.6</ele><time>2026-04-04T11:51:49.688Z</time></trkpt><trkpt lat="43.8768831" lon="12.6843751"><ele>151.0</ele><time>2026-04-04T11:51:50.686Z</time></trkpt><trkpt lat="43.8769434" lon="12.6842143"><ele>150.75</ele><time>2026-04-04T11:51:51.686Z</time></trkpt><trkpt lat="43.8770067" lon="12.684037"><ele>150.5</ele><time>2026-04-04T11:51:52.688Z</time></trkpt><trkpt lat="43.8770753" lon="12.6838515"><ele>150.25</ele><time>2026-04-04T11:51:53.687Z</time></trkpt><trkpt lat="43.8771477" lon="12.6836648"><ele>150.0</ele><time>2026-04-04T11:51:54.688Z</time></trkpt><trkpt lat="43.8772213" lon="12.6834749"><ele>152.0</ele><time>2026-04-04T11:51:55.688Z</time></trkpt><trkpt lat="43.8773003" lon="12.6832804"><ele>154.0</ele><time>2026-04-04T11:51:56.688Z</time></trkpt><trkpt lat="43.8773836" lon="12.6830859"><ele>156.0</ele><time>2026-04-04T11:51:57.687Z</time></trkpt><trkpt lat="43.8774702" lon="12.6828986"><ele>156.25</ele><time>2026-04-04T11:51:58.689Z</time></trkpt><trkpt lat="43.8775484" lon="12.6827203"><ele>156.5</ele><time>2026-04-04T11:51:59.688Z</time></trkpt><trkpt lat="43.8776105" lon="12.6825342"><ele>156.75</ele><time>2026-04-04T11:52:00.689Z</time></trkpt><trkpt lat="43.877655" lon="12.6823374"><ele>157.0</ele><time>2026-04-04T11:52:01.691Z</time></trkpt><trkpt lat="43.8776778" lon="12.6821434"><ele>157.0</ele><time>2026-04-04T11:52:02.685Z</time></trkpt><trkpt lat="43.8776917" lon="12.6819637"><ele>157.0</ele><time>2026-04-04T11:52:03.686Z</time></trkpt><trkpt lat="43.8777216" lon="12.6818013"><ele>157.0</ele><time>2026-04-04T11:52:04.688Z</time></trkpt><trkpt lat="43.8777767" lon="12.6816595"><ele>157.0</ele><time>2026-04-04T11:52:05.687Z</time></trkpt><trkpt lat="43.8778627" lon="12.681545"><ele>159.0</ele><time>2026-04-04T11:52:06.688Z</time></trkpt><trkpt lat="43.8779755" lon="12.6814479"><ele>161.0</ele><time>2026-04-04T11:52:07.689Z</time></trkpt><trkpt lat="43.8780986" lon="12.6813592"><ele>163.0</ele><time>2026-04-04T11:52:08.686Z</time></trkpt><trkpt lat="43.8782273" lon="12.6812749"><ele>165.0</ele><time>2026-04-04T11:52:09.686Z</time></trkpt><trkpt lat="43.8783534" lon="12.6811947"><ele>165.0</ele><time>2026-04-04T11:52:10.688Z</time></trkpt><trkpt lat="43.8784739" lon="12.6811234"><ele>165.0</ele><time>2026-04-04T11:52:11.685Z</time></trkpt><trkpt lat="43.8785829" lon="12.6810569"><ele>165.0</ele><time>2026-04-04T11:52:12.688Z</time></trkpt><trkpt lat="43.8786764" lon="12.6809856"><ele>165.0</ele><time>2026-04-04T11:52:13.688Z</time></trkpt><trkpt lat="43.8787563" lon="12.6809018"><ele>166.0</ele><time>2026-04-04T11:52:14.686Z</time></trkpt><trkpt lat="43.8788265" lon="12.6808024"><ele>167.0</ele><time>2026-04-04T11:52:15.687Z</time></trkpt><trkpt lat="43.8788819" lon="12.680695"><ele>168.0</ele><time>2026-04-04T11:52:16.688Z</time></trkpt><trkpt lat="43.8789231" lon="12.6805981"><ele>169.0</ele><time>2026-04-04T11:52:17.687Z</time></trkpt><trkpt lat="43.8789519" lon="12.6805126"><ele>170.0</ele><time>2026-04-04T11:52:18.687Z</time></trkpt><trkpt lat="43.8789812" lon="12.6803773"><ele>171.0</ele><time>2026-04-04T11:52:20.687Z</time></trkpt><trkpt lat="43.8790142" lon="12.6802156"><ele>171.5</ele><time>2026-04-04T11:52:22.687Z</time></trkpt><trkpt lat="43.8790515" lon="12.6800762"><ele>172.0</ele><time>2026-04-04T11:52:24.689Z</time></trkpt><trkpt lat="43.8790932" lon="12.6799953"><ele>172.5</ele><time>2026-04-04T11:52:26.686Z</time></trkpt><trkpt lat="43.8791026" lon="12.6799082"><ele>173.0</ele><time>2026-04-04T11:52:30.688Z</time></trkpt><trkpt lat="43.8790261" lon="12.6799912"><ele>173.5</ele><time>2026-04-04T11:52:34.689Z</time></trkpt><trkpt lat="43.8790014" lon="12.6800763"><ele>174.0</ele><time>2026-04-04T11:52:35.689Z</time></trkpt><trkpt lat="43.8789799" lon="12.6801889"><ele>173.5</ele><time>2026-04-04T11:52:36.689Z</time></trkpt><trkpt lat="43.8789593" lon="12.6803043"><ele>173.0</ele><time>2026-04-04T11:52:37.69Z</time></trkpt><trkpt lat="43.8789389" lon="12.6804055"><ele>172.5</ele><time>2026-04-04T11:52:38.688Z</time></trkpt><trkpt lat="43.8789163" lon="12.6804929"><ele>172.0</ele><time>2026-04-04T11:52:39.689Z</time></trkpt><trkpt lat="43.8788538" lon="12.680606"><ele>171.5</ele><time>2026-04-04T11:52:41.689Z</time></trkpt><trkpt lat="43.8787718" lon="12.6805888"><ele>171.0</ele><time>2026-04-04T11:52:43.69Z</time></trkpt><trkpt lat="43.8786473" lon="12.6804738"><ele>171.0</ele><time>2026-04-04T11:52:45.689Z</time></trkpt><trkpt lat="43.8785528" lon="12.6803676"><ele>171.0</ele><time>2026-04-04T11:52:46.687Z</time></trkpt><trkpt lat="43.8784542" lon="12.6802526"><ele>171.0</ele><time>2026-04-04T11:52:47.686Z</time></trkpt><trkpt lat="43.8783621" lon="12.6801374"><ele>171.0</ele><time>2026-04-04T11:52:48.689Z</time></trkpt><trkpt lat="43.8782832" lon="12.6800204"><ele>174.25</ele><time>2026-04-04T11:52:49.687Z</time></trkpt><trkpt lat="43.8782136" lon="12.6798869"><ele>177.5</ele><time>2026-04-04T11:52:50.687Z</time></trkpt><trkpt lat="43.8781522" lon="12.6797379"><ele>180.75</ele><time>2026-04-04T11:52:51.688Z</time></trkpt><trkpt lat="43.8780873" lon="12.6795756"><ele>184.0</ele><time>2026-04-04T11:52:52.688Z</time></trkpt><trkpt lat="43.8780232" lon="12.6794016"><ele>184.75</ele><time>2026-04-04T11:52:53.687Z</time></trkpt><trkpt lat="43.8779584" lon="12.6792235"><ele>185.5</ele><time>2026-04-04T11:52:54.688Z</time></trkpt><trkpt lat="43.8778979" lon="12.6790498"><ele>186.25</ele><time>2026-04-04T11:52:55.688Z</time></trkpt><trkpt lat="43.8778384" lon="12.6788835"><ele>187.0</ele><time>2026-04-04T11:52:56.687Z</time></trkpt><trkpt lat="43.8777775" lon="12.6787349"><ele>187.0</ele><time>2026-04-04T11:52:57.687Z</time></trkpt><trkpt lat="43.8777078" lon="12.6786059"><ele>187.0</ele><time>2026-04-04T11:52:58.689Z</time></trkpt><trkpt lat="43.8776208" lon="12.6784939"><ele>187.0</ele><time>2026-04-04T11:52:59.685Z</time></trkpt><trkpt lat="43.8775223" lon="12.6783933"><ele>187.0</ele><time>2026-04-04T11:53:00.689Z</time></trkpt><trkpt lat="43.8774184" lon="12.6783085"><ele>192.5</ele><time>2026-04-04T11:53:01.689Z</time></trkpt><trkpt lat="43.87731" lon="12.6782488"><ele>198.0</ele><time>2026-04-04T11:53:02.689Z</time></trkpt><trkpt lat="43.8771995" lon="12.6781996"><ele>203.5</ele><time>2026-04-04T11:53:03.688Z</time></trkpt><trkpt lat="43.8770885" lon="12.6781597"><ele>209.0</ele><time>2026-04-04T11:53:04.689Z</time></trkpt><trkpt lat="43.8769693" lon="12.6781329"><ele>209.0</ele><time>2026-04-04T11:53:05.689Z</time></trkpt><trkpt lat="43.8768441" lon="12.6781121"><ele>209.0</ele><time>2026-04-04T11:53:06.689Z</time></trkpt><trkpt lat="43.8767169" lon="12.6780964"><ele>209.0</ele><time>2026-04-04T11:53:07.689Z</time></trkpt><trkpt lat="43.8765955" lon="12.6780778"><ele>209.0</ele><time>2026-04-04T11:53:08.688Z</time></trkpt><trkpt lat="43.8764864" lon="12.6780616"><ele>211.66666666666669</ele><time>2026-04-04T11:53:09.688Z</time></trkpt><trkpt lat="43.8763877" lon="12.6780372"><ele>214.33333333333334</ele><time>2026-04-04T11:53:10.688Z</time></trkpt><trkpt lat="43.8762997" lon="12.6779942"><ele>217.0</ele><time>2026-04-04T11:53:11.688Z</time></trkpt><trkpt lat="43.8762208" lon="12.6779338"><ele>219.66666666666669</ele><time>2026-04-04T11:53:12.688Z</time></trkpt><trkpt lat="43.8761549" lon="12.6778662"><ele>222.33333333333334</ele><time>2026-04-04T11:53:13.689Z</time></trkpt><trkpt lat="43.8761008" lon="12.6777982"><ele>225.0</ele><time>2026-04-04T11:53:14.689Z</time></trkpt><trkpt lat="43.8760346" lon="12.6776777"><ele>225.8</ele><time>2026-04-04T11:53:16.687Z</time></trkpt><trkpt lat="43.8759885" lon="12.6775509"><ele>226.6</ele><time>2026-04-04T11:53:18.689Z</time></trkpt><trkpt lat="43.8759485" lon="12.6773848"><ele>227.39999999999998</ele><time>2026-04-04T11:53:20.689Z</time></trkpt><trkpt lat="43.8759235" lon="12.6772839"><ele>228.2</ele><time>2026-04-04T11:53:21.687Z</time></trkpt><trkpt lat="43.8758942" lon="12.6771748"><ele>229.0</ele><time>2026-04-04T11:53:22.689Z</time></trkpt><trkpt lat="43.8758613" lon="12.6770549"><ele>233.79999999999998</ele><time>2026-04-04T11:53:23.687Z</time></trkpt><trkpt lat="43.8758276" lon="12.6769287"><ele>238.59999999999997</ele><time>2026-04-04T11:53:24.688Z</time></trkpt><trkpt lat="43.8757909" lon="12.6767952"><ele>243.4</ele><time>2026-04-04T11:53:25.689Z</time></trkpt><trkpt lat="43.875751" lon="12.676654"><ele>248.2</ele><time>2026-04-04T11:53:26.687Z</time></trkpt><trkpt lat="43.87571" lon="12.6765065"><ele>253.0</ele><time>2026-04-04T11:53:27.687Z</time></trkpt><trkpt lat="43.8756689" lon="12.6763554"><ele>253.0</ele><time>2026-04-04T11:53:28.69Z</time></trkpt><trkpt lat="43.8756276" lon="12.6761992"><ele>253.0</ele><time>2026-04-04T11:53:29.687Z</time></trkpt><trkpt lat="43.8755929" lon="12.6760403"><ele>253.0</ele><time>2026-04-04T11:53:30.687Z</time></trkpt><trkpt lat="43.8755632" lon="12.6758845"><ele>253.0</ele><time>2026-04-04T11:53:31.688Z</time></trkpt><trkpt lat="43.8755463" lon="12.6757387"><ele>255.0</ele><time>2026-04-04T11:53:32.686Z</time></trkpt><trkpt lat="43.8755358" lon="12.6756008"><ele>257.0</ele><time>2026-04-04T11:53:33.687Z</time></trkpt><trkpt lat="43.875544" lon="12.6754777"><ele>259.0</ele><time>2026-04-04T11:53:34.689Z</time></trkpt><trkpt lat="43.8755594" lon="12.6753746"><ele>261.0</ele><time>2026-04-04T11:53:35.685Z</time></trkpt><trkpt lat="43.8755735" lon="12.6752434"><ele>263.0</ele><time>2026-04-04T11:53:37.69Z</time></trkpt><trkpt lat="43.8754767" lon="12.6752875"><ele>263.0</ele><time>2026-04-04T11:53:41.688Z</time></trkpt><trkpt lat="43.875434" lon="12.6753634"><ele>263.0</ele><time>2026-04-04T11:53:42.689Z</time></trkpt><trkpt lat="43.8753817" lon="12.6754767"><ele>263.0</ele><time>2026-04-04T11:53:43.691Z</time></trkpt><trkpt lat="43.8753185" lon="12.6756258"><ele>263.0</ele><time>2026-04-04T11:53:44.688Z</time></trkpt><trkpt lat="43.8752556" lon="12.6757746"><ele>263.0</ele><time>2026-04-04T11:53:45.689Z</time></trkpt><trkpt lat="43.8751897" lon="12.6759241"><ele>263.0</ele><time>2026-04-04T11:53:46.689Z</time></trkpt><trkpt lat="43.8751056" lon="12.6760595"><ele>263.0</ele><time>2026-04-04T11:53:47.688Z</time></trkpt><trkpt lat="43.8750025" lon="12.6761751"><ele>263.0</ele><time>2026-04-04T11:53:48.689Z</time></trkpt><trkpt lat="43.8748842" lon="12.6762706"><ele>263.0</ele><time>2026-04-04T11:53:49.691Z</time></trkpt><trkpt lat="43.8747541" lon="12.6763518"><ele>265.0</ele><time>2026-04-04T11:53:50.689Z</time></trkpt><trkpt lat="43.874619" lon="12.6764269"><ele>267.0</ele><time>2026-04-04T11:53:51.689Z</time></trkpt><trkpt lat="43.8744866" lon="12.6765061"><ele>269.0</ele><time>2026-04-04T11:53:52.687Z</time></trkpt><trkpt lat="43.8743625" lon="12.6765816"><ele>271.0</ele><time>2026-04-04T11:53:53.691Z</time></trkpt><trkpt lat="43.8742485" lon="12.6766403"><ele>274.0</ele><time>2026-04-04T11:53:54.689Z</time></trkpt><trkpt lat="43.8741325" lon="12.6766716"><ele>277.0</ele><time>2026-04-04T11:53:55.691Z</time></trkpt><trkpt lat="43.8740106" lon="12.6766661"><ele>280.0</ele><time>2026-04-04T11:53:56.689Z</time></trkpt><trkpt lat="43.8738885" lon="12.6766289"><ele>283.0</ele><time>2026-04-04T11:53:57.688Z</time></trkpt><trkpt lat="43.8737786" lon="12.6765462"><ele>283.0</ele><time>2026-04-04T11:53:58.689Z</time></trkpt><trkpt lat="43.8736948" lon="12.6764125"><ele>283.0</ele><time>2026-04-04T11:53:59.689Z</time></trkpt><trkpt lat="43.8736303" lon="12.6762459"><ele>283.0</ele><time>2026-04-04T11:54:00.689Z</time></trkpt><trkpt lat="43.8735749" lon="12.6760578"><ele>283.0</ele><time>2026-04-04T11:54:01.688Z</time></trkpt><trkpt lat="43.8735232" lon="12.6758618"><ele>283.0</ele><time>2026-04-04T11:54:02.685Z</time></trkpt><trkpt lat="43.8734698" lon="12.6756666"><ele>283.0</ele><time>2026-04-04T11:54:03.687Z</time></trkpt><trkpt lat="43.8734121" lon="12.6754727"><ele>283.0</ele><time>2026-04-04T11:54:04.688Z</time></trkpt><trkpt lat="43.8733498" lon="12.6752824"><ele>286.5</ele><time>2026-04-04T11:54:05.687Z</time></trkpt><trkpt lat="43.8732906" lon="12.675091"><ele>290.0</ele><time>2026-04-04T11:54:06.687Z</time></trkpt><trkpt lat="43.873234" lon="12.6749004"><ele>293.5</ele><time>2026-04-04T11:54:07.69Z</time></trkpt><trkpt lat="43.8731807" lon="12.6747093"><ele>297.0</ele><time>2026-04-04T11:54:08.686Z</time></trkpt><trkpt lat="43.8731388" lon="12.6745214"><ele>298.75</ele><time>2026-04-04T11:54:09.688Z</time></trkpt><trkpt lat="43.8731128" lon="12.6743412"><ele>300.5</ele><time>2026-04-04T11:54:10.689Z</time></trkpt><trkpt lat="43.8731037" lon="12.6741717"><ele>302.25</ele><time>2026-04-04T11:54:11.689Z</time></trkpt><trkpt lat="43.8731089" lon="12.6740233"><ele>304.0</ele><time>2026-04-04T11:54:12.689Z</time></trkpt><trkpt lat="43.8731222" lon="12.6738987"><ele>304.0</ele><time>2026-04-04T11:54:13.688Z</time></trkpt><trkpt lat="43.8731404" lon="12.673793"><ele>304.0</ele><time>2026-04-04T11:54:14.689Z</time></trkpt><trkpt lat="43.8731586" lon="12.6737006"><ele>304.0</ele><time>2026-04-04T11:54:15.689Z</time></trkpt><trkpt lat="43.8731775" lon="12.6736152"><ele>304.0</ele><time>2026-04-04T11:54:16.687Z</time></trkpt><trkpt lat="43.8731985" lon="12.6735257"><ele>304.0</ele><time>2026-04-04T11:54:17.687Z</time></trkpt><trkpt lat="43.8732288" lon="12.6734226"><ele>304.0</ele><time>2026-04-04T11:54:18.689Z</time></trkpt><trkpt lat="43.8732626" lon="12.673308"><ele>304.0</ele><time>2026-04-04T11:54:19.689Z</time></trkpt><trkpt lat="43.8733008" lon="12.6731881"><ele>304.0</ele><time>2026-04-04T11:54:20.684Z</time></trkpt><trkpt lat="43.8733407" lon="12.6730741"><ele>304.0</ele><time>2026-04-04T11:54:21.689Z</time></trkpt><trkpt lat="43.8733742" lon="12.6729641"><ele>304.0</ele><time>2026-04-04T11:54:22.686Z</time></trkpt><trkpt lat="43.8733968" lon="12.6728658"><ele>304.0</ele><time>2026-04-04T11:54:23.691Z</time></trkpt><trkpt lat="43.8734043" lon="12.6727252"><ele>304.0</ele><time>2026-04-04T11:54:25.691Z</time></trkpt><trkpt lat="43.8733632" lon="12.6726414"><ele>304.0</ele><time>2026-04-04T11:54:28.688Z</time></trkpt><trkpt lat="43.8733015" lon="12.6726982"><ele>304.0</ele><time>2026-04-04T11:54:39.687Z</time></trkpt><trkpt lat="43.8732105" lon="12.6727616"><ele>304.0</ele><time>2026-04-04T11:54:41.688Z</time></trkpt><trkpt lat="43.873105" lon="12.6728136"><ele>304.0</ele><time>2026-04-04T11:54:43.691Z</time></trkpt><trkpt lat="43.8730181" lon="12.672831"><ele>304.0</ele><time>2026-04-04T11:54:45.687Z</time></trkpt><trkpt lat="43.8729261" lon="12.6727753"><ele>304.0</ele><time>2026-04-04T11:54:47.689Z</time></trkpt><trkpt lat="43.8728154" lon="12.6726977"><ele>304.2857142857143</ele><time>2026-04-04T11:54:49.69Z</time></trkpt><trkpt lat="43.8727509" lon="12.6726689"><ele>304.5714285714286</ele><time>2026-04-04T11:54:50.689Z</time></trkpt><trkpt lat="43.872679" lon="12.6726418"><ele>304.8571428571429</ele><time>2026-04-04T11:54:51.689Z</time></trkpt><trkpt lat="43.8726105" lon="12.6726056"><ele>305.1428571428571</ele><time>2026-04-04T11:54:52.69Z</time></trkpt><trkpt lat="43.8725501" lon="12.6725528"><ele>305.42857142857144</ele><time>2026-04-04T11:54:53.689Z</time></trkpt><trkpt lat="43.8724998" lon="12.6724964"><ele>305.7142857142857</ele><time>2026-04-04T11:54:54.688Z</time></trkpt><trkpt lat="43.8724302" lon="12.6724034"><ele>306.0</ele><time>2026-04-04T11:54:56.689Z</time></trkpt><trkpt lat="43.8723727" lon="12.6723248"><ele>305.40000000000003</ele><time>2026-04-04T11:54:59.685Z</time></trkpt><trkpt lat="43.872311" lon="12.6722014"><ele>304.8</ele><time>2026-04-04T11:55:09.688Z</time></trkpt><trkpt lat="43.8722418" lon="12.672086"><ele>304.20000000000005</ele><time>2026-04-04T11:55:11.688Z</time></trkpt><trkpt lat="43.872185" lon="12.6719819"><ele>303.6</ele><time>2026-04-04T11:55:13.69Z</time></trkpt><trkpt lat="43.8721366" lon="12.6718762"><ele>303.0</ele><time>2026-04-04T11:55:15.688Z</time></trkpt><trkpt lat="43.8720935" lon="12.6717644"><ele>303.0</ele><time>2026-04-04T11:55:17.69Z</time></trkpt><trkpt lat="43.8720591" lon="12.6716502"><ele>303.0</ele><time>2026-04-04T11:55:19.688Z</time></trkpt><trkpt lat="43.8720057" lon="12.6715352"><ele>303.0</ele><time>2026-04-04T11:55:21.686Z</time></trkpt><trkpt lat="43.871928" lon="12.6714151"><ele>303.0</ele><time>2026-04-04T11:55:23.688Z</time></trkpt><trkpt lat="43.8718494" lon="12.6712854"><ele>303.0</ele><time>2026-04-04T11:55:25.69Z</time></trkpt><trkpt lat="43.8718048" lon="12.6712216"><ele>303.1666666666667</ele><time>2026-04-04T11:55:26.685Z</time></trkpt><trkpt lat="43.8717468" lon="12.6711671"><ele>303.3333333333333</ele><time>2026-04-04T11:55:27.687Z</time></trkpt><trkpt lat="43.8716763" lon="12.6711221"><ele>303.5</ele><time>2026-04-04T11:55:28.688Z</time></trkpt><trkpt lat="43.8715982" lon="12.6710959"><ele>303.66666666666663</ele><time>2026-04-04T11:55:29.685Z</time></trkpt><trkpt lat="43.8715118" lon="12.6710871"><ele>303.8333333333333</ele><time>2026-04-04T11:55:30.689Z</time></trkpt><trkpt lat="43.8714237" lon="12.6710896"><ele>304.0</ele><time>2026-04-04T11:55:31.688Z</time></trkpt><trkpt lat="43.8713372" lon="12.6710912"><ele>304.0</ele><time>2026-04-04T11:55:32.685Z</time></trkpt><trkpt lat="43.8712563" lon="12.6710816"><ele>304.0</ele><time>2026-04-04T11:55:33.688Z</time></trkpt><trkpt lat="43.8711712" lon="12.6710685"><ele>304.0</ele><time>2026-04-04T11:55:34.686Z</time></trkpt><trkpt lat="43.8710873" lon="12.6710522"><ele>304.0</ele><time>2026-04-04T11:55:35.687Z</time></trkpt><trkpt lat="43.8710013" lon="12.6710381"><ele>304.0</ele><time>2026-04-04T11:55:36.686Z</time></trkpt><trkpt lat="43.8709199" lon="12.6710344"><ele>304.0</ele><time>2026-04-04T11:55:37.688Z</time></trkpt><trkpt lat="43.8708492" lon="12.671036"><ele>305.16666666666663</ele><time>2026-04-04T11:55:38.686Z</time></trkpt><trkpt lat="43.8707452" lon="12.6710304"><ele>306.3333333333333</ele><time>2026-04-04T11:55:40.687Z</time></trkpt><trkpt lat="43.8706672" lon="12.6709929"><ele>307.5</ele><time>2026-04-04T11:55:43.69Z</time></trkpt><trkpt lat="43.8706229" lon="12.6709142"><ele>308.6666666666667</ele><time>2026-04-04T11:55:46.687Z</time></trkpt><trkpt lat="43.8705608" lon="12.6709507"><ele>309.83333333333337</ele><time>2026-04-04T11:55:50.684Z</time></trkpt><trkpt lat="43.8704902" lon="12.6710461"><ele>311.0</ele><time>2026-04-04T11:55:52.688Z</time></trkpt><trkpt lat="43.8704261" lon="12.6710846"><ele>310.33333333333337</ele><time>2026-04-04T11:55:53.687Z</time></trkpt><trkpt lat="43.8703376" lon="12.671113"><ele>309.6666666666667</ele><time>2026-04-04T11:55:54.688Z</time></trkpt><trkpt lat="43.8702487" lon="12.6711317"><ele>309.0</ele><time>2026-04-04T11:55:55.69Z</time></trkpt><trkpt lat="43.8701662" lon="12.6711405"><ele>308.3333333333333</ele><time>2026-04-04T11:55:56.689Z</time></trkpt><trkpt lat="43.8700984" lon="12.671131"><ele>307.66666666666663</ele><time>2026-04-04T11:55:57.687Z</time></trkpt><trkpt lat="43.8700402" lon="12.6710962"><ele>307.0</ele><time>2026-04-04T11:55:58.688Z</time></trkpt><trkpt lat="43.8699359" lon="12.6709957"><ele>307.0</ele><time>2026-04-04T11:56:00.687Z</time></trkpt><trkpt lat="43.8698763" lon="12.6709396"><ele>307.0</ele><time>2026-04-04T11:56:01.688Z</time></trkpt><trkpt lat="43.8698189" lon="12.6708953"><ele>307.0</ele><time>2026-04-04T11:56:02.692Z</time></trkpt><trkpt lat="43.8697193" lon="12.6708639"><ele>307.0</ele><time>2026-04-04T11:56:04.689Z</time></trkpt><trkpt lat="43.8696379" lon="12.6709379"><ele>307.0</ele><time>2026-04-04T11:56:06.687Z</time></trkpt><trkpt lat="43.8695923" lon="12.6710487"><ele>307.0</ele><time>2026-04-04T11:56:08.686Z</time></trkpt><trkpt lat="43.8695671" lon="12.6711651"><ele>304.8</ele><time>2026-04-04T11:56:10.688Z</time></trkpt><trkpt lat="43.8695559" lon="12.6712911"><ele>302.6</ele><time>2026-04-04T11:56:12.687Z</time></trkpt><trkpt lat="43.8695483" lon="12.6714208"><ele>300.40000000000003</ele><time>2026-04-04T11:56:14.685Z</time></trkpt><trkpt lat="43.8695445" lon="12.6715281"><ele>298.2</ele><time>2026-04-04T11:56:16.687Z</time></trkpt><trkpt lat="43.8695057" lon="12.6716469"><ele>296.0</ele><time>2026-04-04T11:56:26.687Z</time></trkpt><trkpt lat="43.8694244" lon="12.6717296"><ele>296.0</ele><time>2026-04-04T11:56:28.688Z</time></trkpt><trkpt lat="43.8693416" lon="12.6717767"><ele>296.0</ele><time>2026-04-04T11:56:30.689Z</time></trkpt><trkpt lat="43.8694095" lon="12.6717878"><ele>296.0</ele><time>2026-04-04T11:56:40.689Z</time></trkpt><trkpt lat="43.8695015" lon="12.6716812"><ele>296.0</ele><time>2026-04-04T11:56:42.688Z</time></trkpt><trkpt lat="43.8695438" lon="12.6715998"><ele>296.0</ele><time>2026-04-04T11:56:43.689Z</time></trkpt><trkpt lat="43.869571" lon="12.6715042"><ele>296.0</ele><time>2026-04-04T11:56:44.689Z</time></trkpt><trkpt lat="43.8695826" lon="12.6713919"><ele>296.0</ele><time>2026-04-04T11:56:45.689Z</time></trkpt><trkpt lat="43.8695873" lon="12.6712787"><ele>296.0</ele><time>2026-04-04T11:56:46.688Z</time></trkpt><trkpt lat="43.869595" lon="12.671183"><ele>296.0</ele><time>2026-04-04T11:56:47.687Z</time></trkpt><trkpt lat="43.8696151" lon="12.6710572"><ele>296.0</ele><time>2026-04-04T11:56:49.69Z</time></trkpt><trkpt lat="43.8696594" lon="12.6709397"><ele>296.0</ele><time>2026-04-04T11:56:51.687Z</time></trkpt><trkpt lat="43.8697349" lon="12.6708433"><ele>296.0</ele><time>2026-04-04T11:56:53.691Z</time></trkpt><trkpt lat="43.869841" lon="12.6708566"><ele>297.83333333333337</ele><time>2026-04-04T11:56:55.69Z</time></trkpt><trkpt lat="43.8699043" lon="12.6709061"><ele>299.6666666666667</ele><time>2026-04-04T11:56:56.688Z</time></trkpt><trkpt lat="43.8699638" lon="12.6709653"><ele>301.5</ele><time>2026-04-04T11:56:57.688Z</time></trkpt><trkpt lat="43.8700145" lon="12.6710171"><ele>303.3333333333333</ele><time>2026-04-04T11:56:58.686Z</time></trkpt><trkpt lat="43.8700848" lon="12.6710732"><ele>305.16666666666663</ele><time>2026-04-04T11:57:00.687Z</time></trkpt><trkpt lat="43.8700211" lon="12.6710156"><ele>307.0</ele><time>2026-04-04T11:57:11.69Z</time></trkpt><trkpt lat="43.8699613" lon="12.6709033"><ele>307.0</ele><time>2026-04-04T11:57:13.688Z</time></trkpt><trkpt lat="43.8699146" lon="12.670824"><ele>307.0</ele><time>2026-04-04T11:57:14.688Z</time></trkpt><trkpt lat="43.8698638" lon="12.6707391"><ele>307.0</ele><time>2026-04-04T11:57:15.687Z</time></trkpt><trkpt lat="43.8698127" lon="12.6706528"><ele>307.0</ele><time>2026-04-04T11:57:16.687Z</time></trkpt><trkpt lat="43.8697608" lon="12.6705624"><ele>307.0</ele><time>2026-04-04T11:57:17.687Z</time></trkpt><trkpt lat="43.8697045" lon="12.6704655"><ele>307.0</ele><time>2026-04-04T11:57:18.688Z</time></trkpt><trkpt lat="43.8696443" lon="12.6703609"><ele>308.5</ele><time>2026-04-04T11:57:19.69Z</time></trkpt><trkpt lat="43.8695854" lon="12.6702608"><ele>310.0</ele><time>2026-04-04T11:57:20.685Z</time></trkpt><trkpt lat="43.8695258" lon="12.6701692"><ele>311.5</ele><time>2026-04-04T11:57:21.686Z</time></trkpt><trkpt lat="43.8694659" lon="12.6700855"><ele>313.0</ele><time>2026-04-04T11:57:22.687Z</time></trkpt><trkpt lat="43.8694082" lon="12.6700099"><ele>314.5</ele><time>2026-04-04T11:57:23.687Z</time></trkpt><trkpt lat="43.8693537" lon="12.6699348"><ele>316.0</ele><time>2026-04-04T11:57:24.688Z</time></trkpt><trkpt lat="43.8693031" lon="12.6698579"><ele>312.66666666666663</ele><time>2026-04-04T11:57:25.689Z</time></trkpt><trkpt lat="43.8692656" lon="12.6697735"><ele>309.3333333333333</ele><time>2026-04-04T11:57:26.689Z</time></trkpt><trkpt lat="43.8692509" lon="12.6696741"><ele>306.0</ele><time>2026-04-04T11:57:27.687Z</time></trkpt><trkpt lat="43.8692523" lon="12.6695617"><ele>302.6666666666667</ele><time>2026-04-04T11:57:28.691Z</time></trkpt><trkpt lat="43.8692565" lon="12.6694513"><ele>299.33333333333337</ele><time>2026-04-04T11:57:29.69Z</time></trkpt><trkpt lat="43.8692529" lon="12.6693421"><ele>296.0</ele><time>2026-04-04T11:57:30.689Z</time></trkpt><trkpt lat="43.8692341" lon="12.6692317"><ele>296.0</ele><time>2026-04-04T11:57:31.688Z</time></trkpt><trkpt lat="43.8692033" lon="12.6691222"><ele>296.0</ele><time>2026-04-04T11:57:32.689Z</time></trkpt><trkpt lat="43.8691611" lon="12.6690109"><ele>296.0</ele><time>2026-04-04T11:57:33.688Z</time></trkpt><trkpt lat="43.8691054" lon="12.6689004"><ele>296.0</ele><time>2026-04-04T11:57:34.687Z</time></trkpt><trkpt lat="43.869041" lon="12.6687869"><ele>296.0</ele><time>2026-04-04T11:57:35.692Z</time></trkpt><trkpt lat="43.8689731" lon="12.6686694"><ele>297.40000000000003</ele><time>2026-04-04T11:57:36.689Z</time></trkpt><trkpt lat="43.8689037" lon="12.6685507"><ele>298.8</ele><time>2026-04-04T11:57:37.687Z</time></trkpt><trkpt lat="43.8688393" lon="12.6684302"><ele>300.20000000000005</ele><time>2026-04-04T11:57:38.687Z</time></trkpt><trkpt lat="43.868782" lon="12.6683027"><ele>301.6</ele><time>2026-04-04T11:57:39.687Z</time></trkpt><trkpt lat="43.8687329" lon="12.6681687"><ele>303.0</ele><time>2026-04-04T11:57:40.69Z</time></trkpt><trkpt lat="43.868687" lon="12.6680359"><ele>303.0</ele><time>2026-04-04T11:57:41.687Z</time></trkpt><trkpt lat="43.8686382" lon="12.6679038"><ele>303.0</ele><time>2026-04-04T11:57:42.689Z</time></trkpt><trkpt lat="43.8685813" lon="12.6677779"><ele>303.0</ele><time>2026-04-04T11:57:43.689Z</time></trkpt><trkpt lat="43.8685215" lon="12.667665"><ele>303.0</ele><time>2026-04-04T11:57:44.686Z</time></trkpt><trkpt lat="43.86845" lon="12.667565"><ele>303.0</ele><time>2026-04-04T11:57:45.69Z</time></trkpt><trkpt lat="43.8683762" lon="12.6674874"><ele>303.8333333333333</ele><time>2026-04-04T11:57:46.687Z</time></trkpt><trkpt lat="43.8682994" lon="12.6674285"><ele>304.6666666666667</ele><time>2026-04-04T11:57:47.69Z</time></trkpt><trkpt lat="43.8682198" lon="12.6673852"><ele>305.5</ele><time>2026-04-04T11:57:48.689Z</time></trkpt><trkpt lat="43.8681366" lon="12.66735"><ele>306.33333333333337</ele><time>2026-04-04T11:57:49.69Z</time></trkpt><trkpt lat="43.8680499" lon="12.6673112"><ele>307.1666666666667</ele><time>2026-04-04T11:57:50.685Z</time></trkpt><trkpt lat="43.8679612" lon="12.6672608"><ele>308.0</ele><time>2026-04-04T11:57:51.687Z</time></trkpt><trkpt lat="43.8678767" lon="12.6672042"><ele>308.0</ele><time>2026-04-04T11:57:52.689Z</time></trkpt><trkpt lat="43.8677974" lon="12.6671416"><ele>308.0</ele><time>2026-04-04T11:57:53.688Z</time></trkpt><trkpt lat="43.8677235" lon="12.6670717"><ele>308.0</ele><time>2026-04-04T11:57:54.688Z</time></trkpt><trkpt lat="43.8676533" lon="12.6670008"><ele>308.0</ele><time>2026-04-04T11:57:55.692Z</time></trkpt><trkpt lat="43.8675869" lon="12.6669248"><ele>308.0</ele><time>2026-04-04T11:57:56.689Z</time></trkpt><trkpt lat="43.8675265" lon="12.6668461"><ele>308.0</ele><time>2026-04-04T11:57:57.69Z</time></trkpt><trkpt lat="43.8674719" lon="12.6667676"><ele>308.5</ele><time>2026-04-04T11:57:58.689Z</time></trkpt><trkpt lat="43.8674279" lon="12.6666861"><ele>309.0</ele><time>2026-04-04T11:57:59.684Z</time></trkpt><trkpt lat="43.8673899" lon="12.6665977"><ele>309.5</ele><time>2026-04-04T11:58:00.688Z</time></trkpt><trkpt lat="43.8673556" lon="12.6665143"><ele>310.0</ele><time>2026-04-04T11:58:01.688Z</time></trkpt><trkpt lat="43.8672972" lon="12.6663821"><ele>310.5</ele><time>2026-04-04T11:58:03.689Z</time></trkpt><trkpt lat="43.8672713" lon="12.6662888"><ele>311.0</ele><time>2026-04-04T11:58:05.687Z</time></trkpt><trkpt lat="43.8673232" lon="12.6664282"><ele>311.0</ele><time>2026-04-04T11:58:58.687Z</time></trkpt><trkpt lat="43.8673499" lon="12.6665149"><ele>311.0</ele><time>2026-04-04T11:58:59.692Z</time></trkpt><trkpt lat="43.8673864" lon="12.6666103"><ele>311.0</ele><time>2026-04-04T11:59:00.688Z</time></trkpt><trkpt lat="43.8674296" lon="12.666708"><ele>311.0</ele><time>2026-04-04T11:59:01.688Z</time></trkpt><trkpt lat="43.8674759" lon="12.6667972"><ele>311.0</ele><time>2026-04-04T11:59:02.687Z</time></trkpt><trkpt lat="43.8675266" lon="12.6668756"><ele>311.0</ele><time>2026-04-04T11:59:03.687Z</time></trkpt><trkpt lat="43.8675844" lon="12.6669464"><ele>310.5</ele><time>2026-04-04T11:59:04.688Z</time></trkpt><trkpt lat="43.8676438" lon="12.6670151"><ele>310.0</ele><time>2026-04-04T11:59:05.687Z</time></trkpt><trkpt lat="43.8677058" lon="12.6670803"><ele>309.5</ele><time>2026-04-04T11:59:06.688Z</time></trkpt><trkpt lat="43.8677695" lon="12.6671375"><ele>309.0</ele><time>2026-04-04T11:59:07.689Z</time></trkpt><trkpt lat="43.8678359" lon="12.6671889"><ele>308.5</ele><time>2026-04-04T11:59:08.686Z</time></trkpt><trkpt lat="43.8679048" lon="12.667236"><ele>308.0</ele><time>2026-04-04T11:59:09.687Z</time></trkpt><trkpt lat="43.8679793" lon="12.6672822"><ele>308.0</ele><time>2026-04-04T11:59:10.689Z</time></trkpt><trkpt lat="43.8680591" lon="12.6673272"><ele>308.0</ele><time>2026-04-04T11:59:11.688Z</time></trkpt><trkpt lat="43.8681425" lon="12.6673719"><ele>308.0</ele><time>2026-04-04T11:59:12.688Z</time></trkpt><trkpt lat="43.8682222" lon="12.6674179"><ele>308.0</ele><time>2026-04-04T11:59:13.69Z</time></trkpt><trkpt lat="43.8682946" lon="12.6674657"><ele>308.0</ele><time>2026-04-04T11:59:14.689Z</time></trkpt><trkpt lat="43.8683672" lon="12.6675241"><ele>308.0</ele><time>2026-04-04T11:59:15.691Z</time></trkpt><trkpt lat="43.8684378" lon="12.6675989"><ele>307.0</ele><time>2026-04-04T11:59:16.688Z</time></trkpt><trkpt lat="43.868509" lon="12.6676888"><ele>306.0</ele><time>2026-04-04T11:59:17.69Z</time></trkpt><trkpt lat="43.8685704" lon="12.6677968"><ele>305.0</ele><time>2026-04-04T11:59:18.686Z</time></trkpt><trkpt lat="43.8686224" lon="12.6679145"><ele>304.0</ele><time>2026-04-04T11:59:19.689Z</time></trkpt><trkpt lat="43.8686711" lon="12.6680335"><ele>303.0</ele><time>2026-04-04T11:59:20.686Z</time></trkpt><trkpt lat="43.8687188" lon="12.6681547"><ele>303.0</ele><time>2026-04-04T11:59:21.686Z</time></trkpt><trkpt lat="43.868767" lon="12.6682761"><ele>303.0</ele><time>2026-04-04T11:59:22.689Z</time></trkpt><trkpt lat="43.8688206" lon="12.6683956"><ele>303.0</ele><time>2026-04-04T11:59:23.687Z</time></trkpt><trkpt lat="43.8688808" lon="12.6685138"><ele>303.0</ele><time>2026-04-04T11:59:24.688Z</time></trkpt><trkpt lat="43.8689512" lon="12.6686311"><ele>303.0</ele><time>2026-04-04T11:59:25.689Z</time></trkpt><trkpt lat="43.8690234" lon="12.6687449"><ele>301.6</ele><time>2026-04-04T11:59:26.688Z</time></trkpt><trkpt lat="43.8690886" lon="12.6688553"><ele>300.20000000000005</ele><time>2026-04-04T11:59:27.689Z</time></trkpt><trkpt lat="43.8691491" lon="12.6689684"><ele>298.8</ele><time>2026-04-04T11:59:28.69Z</time></trkpt><trkpt lat="43.8692061" lon="12.6690887"><ele>297.40000000000003</ele><time>2026-04-04T11:59:29.689Z</time></trkpt><trkpt lat="43.8692525" lon="12.6692077"><ele>296.0</ele><time>2026-04-04T11:59:30.689Z</time></trkpt><trkpt lat="43.8692783" lon="12.6693194"><ele>299.33333333333337</ele><time>2026-04-04T11:59:31.691Z</time></trkpt><trkpt lat="43.8692894" lon="12.6694267"><ele>302.6666666666667</ele><time>2026-04-04T11:59:32.69Z</time></trkpt><trkpt lat="43.8692908" lon="12.6695412"><ele>306.0</ele><time>2026-04-04T11:59:33.689Z</time></trkpt><trkpt lat="43.869294" lon="12.669665"><ele>309.3333333333333</ele><time>2026-04-04T11:59:34.689Z</time></trkpt><trkpt lat="43.8693044" lon="12.6697864"><ele>312.66666666666663</ele><time>2026-04-04T11:59:35.689Z</time></trkpt><trkpt lat="43.8693332" lon="12.6698983"><ele>316.0</ele><time>2026-04-04T11:59:36.689Z</time></trkpt><trkpt lat="43.8693784" lon="12.6699997"><ele>316.0</ele><time>2026-04-04T11:59:37.692Z</time></trkpt><trkpt lat="43.8694356" lon="12.670095"><ele>316.0</ele><time>2026-04-04T11:59:38.69Z</time></trkpt><trkpt lat="43.8695066" lon="12.6701885"><ele>316.0</ele><time>2026-04-04T11:59:39.69Z</time></trkpt><trkpt lat="43.869582" lon="12.6702954"><ele>316.0</ele><time>2026-04-04T11:59:40.688Z</time></trkpt><trkpt lat="43.8696572" lon="12.6704098"><ele>316.0</ele><time>2026-04-04T11:59:41.69Z</time></trkpt><trkpt lat="43.8697274" lon="12.6705267"><ele>314.5</ele><time>2026-04-04T11:59:42.689Z</time></trkpt><trkpt lat="43.8697917" lon="12.670642"><ele>313.0</ele><time>2026-04-04T11:59:43.689Z</time></trkpt><trkpt lat="43.8698478" lon="12.6707481"><ele>311.5</ele><time>2026-04-04T11:59:44.691Z</time></trkpt><trkpt lat="43.8698991" lon="12.6708373"><ele>310.0</ele><time>2026-04-04T11:59:45.689Z</time></trkpt><trkpt lat="43.869939" lon="12.6709077"><ele>308.5</ele><time>2026-04-04T11:59:46.689Z</time></trkpt><trkpt lat="43.8699991" lon="12.6710104"><ele>307.0</ele><time>2026-04-04T11:59:48.689Z</time></trkpt><trkpt lat="43.8700868" lon="12.6710884"><ele>307.8</ele><time>2026-04-04T11:59:51.689Z</time></trkpt><trkpt lat="43.8702194" lon="12.671139"><ele>308.6</ele><time>2026-04-04T11:59:53.689Z</time></trkpt><trkpt lat="43.8703034" lon="12.671143"><ele>309.40000000000003</ele><time>2026-04-04T11:59:54.689Z</time></trkpt><trkpt lat="43.870383" lon="12.6711278"><ele>310.2</ele><time>2026-04-04T11:59:55.691Z</time></trkpt><trkpt lat="43.8704494" lon="12.6710863"><ele>311.0</ele><time>2026-04-04T11:59:56.689Z</time></trkpt><trkpt lat="43.8705107" lon="12.6710206"><ele>311.0</ele><time>2026-04-04T11:59:57.687Z</time></trkpt><trkpt lat="43.8705669" lon="12.6709276"><ele>311.0</ele><time>2026-04-04T11:59:58.688Z</time></trkpt><trkpt lat="43.8706202" lon="12.670804"><ele>311.0</ele><time>2026-04-04T11:59:59.687Z</time></trkpt><trkpt lat="43.8706796" lon="12.6706589"><ele>311.0</ele><time>2026-04-04T12:00:00.689Z</time></trkpt><trkpt lat="43.8707449" lon="12.6705066"><ele>311.0</ele><time>2026-04-04T12:00:01.688Z</time></trkpt><trkpt lat="43.8708085" lon="12.6703602"><ele>312.25</ele><time>2026-04-04T12:00:02.685Z</time></trkpt><trkpt lat="43.8708661" lon="12.6702237"><ele>313.5</ele><time>2026-04-04T12:00:03.687Z</time></trkpt><trkpt lat="43.870918" lon="12.6700864"><ele>314.75</ele><time>2026-04-04T12:00:04.686Z</time></trkpt><trkpt lat="43.8709655" lon="12.6699446"><ele>316.0</ele><time>2026-04-04T12:00:05.687Z</time></trkpt><trkpt lat="43.8710119" lon="12.669801"><ele>316.0</ele><time>2026-04-04T12:00:06.687Z</time></trkpt><trkpt lat="43.8710608" lon="12.6696656"><ele>316.0</ele><time>2026-04-04T12:00:07.689Z</time></trkpt><trkpt lat="43.8711176" lon="12.6695499"><ele>316.0</ele><time>2026-04-04T12:00:08.686Z</time></trkpt><trkpt lat="43.8711859" lon="12.6694457"><ele>316.0</ele><time>2026-04-04T12:00:09.687Z</time></trkpt><trkpt lat="43.8712666" lon="12.6693486"><ele>316.0</ele><time>2026-04-04T12:00:10.689Z</time></trkpt><trkpt lat="43.8713584" lon="12.6692644"><ele>319.6</ele><time>2026-04-04T12:00:11.69Z</time></trkpt><trkpt lat="43.8714595" lon="12.669195"><ele>323.20000000000005</ele><time>2026-04-04T12:00:12.689Z</time></trkpt><trkpt lat="43.8715599" lon="12.6691339"><ele>326.79999999999995</ele><time>2026-04-04T12:00:13.689Z</time></trkpt><trkpt lat="43.8716578" lon="12.669077"><ele>330.4</ele><time>2026-04-04T12:00:14.689Z</time></trkpt><trkpt lat="43.8717507" lon="12.6690252"><ele>334.0</ele><time>2026-04-04T12:00:15.689Z</time></trkpt><trkpt lat="43.8718255" lon="12.6689898"><ele>334.0</ele><time>2026-04-04T12:00:16.689Z</time></trkpt><trkpt lat="43.8719115" lon="12.6689692"><ele>334.0</ele><time>2026-04-04T12:00:18.689Z</time></trkpt><trkpt lat="43.8717985" lon="12.6688864"><ele>334.0</ele><time>2026-04-04T12:00:23.689Z</time></trkpt><trkpt lat="43.8717046" lon="12.6688618"><ele>334.0</ele><time>2026-04-04T12:00:24.69Z</time></trkpt><trkpt lat="43.8715812" lon="12.6688471"><ele>334.0</ele><time>2026-04-04T12:00:25.69Z</time></trkpt><trkpt lat="43.8714524" lon="12.6688446"><ele>334.0</ele><time>2026-04-04T12:00:26.689Z</time></trkpt><trkpt lat="43.8713262" lon="12.6688654"><ele>334.0</ele><time>2026-04-04T12:00:27.687Z</time></trkpt><trkpt lat="43.8712036" lon="12.6689125"><ele>334.0</ele><time>2026-04-04T12:00:28.689Z</time></trkpt><trkpt lat="43.871084" lon="12.6689861"><ele>334.0</ele><time>2026-04-04T12:00:29.687Z</time></trkpt><trkpt lat="43.8709717" lon="12.669078"><ele>335.0</ele><time>2026-04-04T12:00:30.687Z</time></trkpt><trkpt lat="43.8708641" lon="12.6691694"><ele>336.0</ele><time>2026-04-04T12:00:31.689Z</time></trkpt><trkpt lat="43.8707631" lon="12.6692433"><ele>337.0</ele><time>2026-04-04T12:00:32.685Z</time></trkpt><trkpt lat="43.8706538" lon="12.6692807"><ele>338.0</ele><time>2026-04-04T12:00:33.689Z</time></trkpt><trkpt lat="43.8705451" lon="12.6692758"><ele>338.0</ele><time>2026-04-04T12:00:34.689Z</time></trkpt><trkpt lat="43.87047" lon="12.6691913"><ele>338.0</ele><time>2026-04-04T12:00:35.686Z</time></trkpt><trkpt lat="43.8704192" lon="12.6690605"><ele>338.0</ele><time>2026-04-04T12:00:36.688Z</time></trkpt><trkpt lat="43.870387" lon="12.6688988"><ele>338.0</ele><time>2026-04-04T12:00:37.687Z</time></trkpt><trkpt lat="43.8703673" lon="12.6687026"><ele>343.0</ele><time>2026-04-04T12:00:38.689Z</time></trkpt><trkpt lat="43.8703492" lon="12.6684836"><ele>348.0</ele><time>2026-04-04T12:00:39.687Z</time></trkpt><trkpt lat="43.8703266" lon="12.668261"><ele>353.0</ele><time>2026-04-04T12:00:40.688Z</time></trkpt><trkpt lat="43.8702959" lon="12.6680283"><ele>353.0</ele><time>2026-04-04T12:00:41.686Z</time></trkpt><trkpt lat="43.8702485" lon="12.6677963"><ele>353.0</ele><time>2026-04-04T12:00:42.687Z</time></trkpt><trkpt lat="43.8701814" lon="12.6675736"><ele>353.0</ele><time>2026-04-04T12:00:43.69Z</time></trkpt><trkpt lat="43.8701034" lon="12.6673587"><ele>350.33333333333337</ele><time>2026-04-04T12:00:44.685Z</time></trkpt><trkpt lat="43.8700223" lon="12.6671575"><ele>347.6666666666667</ele><time>2026-04-04T12:00:45.689Z</time></trkpt><trkpt lat="43.8699438" lon="12.6669729"><ele>345.0</ele><time>2026-04-04T12:00:46.687Z</time></trkpt><trkpt lat="43.8698777" lon="12.6667975"><ele>345.0</ele><time>2026-04-04T12:00:47.685Z</time></trkpt><trkpt lat="43.8698206" lon="12.6666299"><ele>345.0</ele><time>2026-04-04T12:00:48.687Z</time></trkpt><trkpt lat="43.8697717" lon="12.6664693"><ele>345.0</ele><time>2026-04-04T12:00:49.689Z</time></trkpt><trkpt lat="43.8697254" lon="12.6663135"><ele>345.0</ele><time>2026-04-04T12:00:50.685Z</time></trkpt><trkpt lat="43.8696688" lon="12.66616"><ele>342.25</ele><time>2026-04-04T12:00:51.688Z</time></trkpt><trkpt lat="43.8695976" lon="12.6660132"><ele>339.5</ele><time>2026-04-04T12:00:52.688Z</time></trkpt><trkpt lat="43.8695076" lon="12.6658833"><ele>336.75</ele><time>2026-04-04T12:00:53.687Z</time></trkpt><trkpt lat="43.8694082" lon="12.6657678"><ele>334.0</ele><time>2026-04-04T12:00:54.69Z</time></trkpt><trkpt lat="43.8693067" lon="12.6656592"><ele>335.0</ele><time>2026-04-04T12:00:55.688Z</time></trkpt><trkpt lat="43.8692058" lon="12.6655549"><ele>336.0</ele><time>2026-04-04T12:00:56.685Z</time></trkpt><trkpt lat="43.8691079" lon="12.6654533"><ele>337.0</ele><time>2026-04-04T12:00:57.686Z</time></trkpt><trkpt lat="43.8690101" lon="12.6653537"><ele>338.0</ele><time>2026-04-04T12:00:58.687Z</time></trkpt><trkpt lat="43.8689159" lon="12.6652556"><ele>333.5</ele><time>2026-04-04T12:00:59.689Z</time></trkpt><trkpt lat="43.8688225" lon="12.6651593"><ele>329.0</ele><time>2026-04-04T12:01:00.687Z</time></trkpt><trkpt lat="43.8687318" lon="12.6650659"><ele>324.5</ele><time>2026-04-04T12:01:01.688Z</time></trkpt><trkpt lat="43.8686395" lon="12.6649728"><ele>320.0</ele><time>2026-04-04T12:01:02.686Z</time></trkpt><trkpt lat="43.8685478" lon="12.6648795"><ele>320.0</ele><time>2026-04-04T12:01:03.686Z</time></trkpt><trkpt lat="43.8684526" lon="12.6647889"><ele>320.0</ele><time>2026-04-04T12:01:04.687Z</time></trkpt><trkpt lat="43.8683559" lon="12.6647034"><ele>320.0</ele><time>2026-04-04T12:01:05.688Z</time></trkpt><trkpt lat="43.8682525" lon="12.6646343"><ele>320.0</ele><time>2026-04-04T12:01:06.686Z</time></trkpt><trkpt lat="43.8681494" lon="12.6645863"><ele>321.2</ele><time>2026-04-04T12:01:07.688Z</time></trkpt><trkpt lat="43.8680411" lon="12.6645665"><ele>322.4</ele><time>2026-04-04T12:01:08.688Z</time></trkpt><trkpt lat="43.8679392" lon="12.6645812"><ele>323.6</ele><time>2026-04-04T12:01:09.687Z</time></trkpt><trkpt lat="43.8678517" lon="12.6646401"><ele>324.8</ele><time>2026-04-04T12:01:10.688Z</time></trkpt><trkpt lat="43.8677827" lon="12.6647643"><ele>326.0</ele><time>2026-04-04T12:01:11.688Z</time></trkpt><trkpt lat="43.867738" lon="12.6649337"><ele>326.0</ele><time>2026-04-04T12:01:12.688Z</time></trkpt><trkpt lat="43.8676953" lon="12.6651014"><ele>326.0</ele><time>2026-04-04T12:01:13.687Z</time></trkpt><trkpt lat="43.8676441" lon="12.6652667"><ele>326.0</ele><time>2026-04-04T12:01:14.688Z</time></trkpt><trkpt lat="43.8675692" lon="12.6654021"><ele>326.0</ele><time>2026-04-04T12:01:15.688Z</time></trkpt><trkpt lat="43.8674769" lon="12.6655119"><ele>323.5</ele><time>2026-04-04T12:01:16.688Z</time></trkpt><trkpt lat="43.8673687" lon="12.6655999"><ele>321.0</ele><time>2026-04-04T12:01:17.687Z</time></trkpt><trkpt lat="43.8672482" lon="12.665676"><ele>318.5</ele><time>2026-04-04T12:01:18.689Z</time></trkpt><trkpt lat="43.8671164" lon="12.6657455"><ele>316.0</ele><time>2026-04-04T12:01:19.687Z</time></trkpt><trkpt lat="43.8669812" lon="12.6658165"><ele>316.0</ele><time>2026-04-04T12:01:20.687Z</time></trkpt><trkpt lat="43.866841" lon="12.6658925"><ele>316.0</ele><time>2026-04-04T12:01:21.687Z</time></trkpt><trkpt lat="43.8666999" lon="12.6659666"><ele>316.0</ele><time>2026-04-04T12:01:22.687Z</time></trkpt><trkpt lat="43.8665591" lon="12.6660466"><ele>310.0</ele><time>2026-04-04T12:01:23.69Z</time></trkpt><trkpt lat="43.8664176" lon="12.6661242"><ele>304.0</ele><time>2026-04-04T12:01:24.687Z</time></trkpt><trkpt lat="43.8662729" lon="12.6661984"><ele>298.0</ele><time>2026-04-04T12:01:25.688Z</time></trkpt><trkpt lat="43.866125" lon="12.6662696"><ele>298.0</ele><time>2026-04-04T12:01:26.687Z</time></trkpt><trkpt lat="43.8659762" lon="12.6663327"><ele>298.0</ele><time>2026-04-04T12:01:27.686Z</time></trkpt><trkpt lat="43.8658258" lon="12.6663882"><ele>298.0</ele><time>2026-04-04T12:01:28.688Z</time></trkpt><trkpt lat="43.8656711" lon="12.6664432"><ele>300.66666666666663</ele><time>2026-04-04T12:01:29.689Z</time></trkpt><trkpt lat="43.8655144" lon="12.6664958"><ele>303.3333333333333</ele><time>2026-04-04T12:01:30.686Z</time></trkpt><trkpt lat="43.865357" lon="12.6665445"><ele>306.0</ele><time>2026-04-04T12:01:31.688Z</time></trkpt><trkpt lat="43.8651971" lon="12.6665929"><ele>309.6666666666667</ele><time>2026-04-04T12:01:32.688Z</time></trkpt><trkpt lat="43.8650354" lon="12.6666398"><ele>313.33333333333337</ele><time>2026-04-04T12:01:33.687Z</time></trkpt><trkpt lat="43.8648747" lon="12.6666873"><ele>317.0</ele><time>2026-04-04T12:01:34.686Z</time></trkpt><trkpt lat="43.8647131" lon="12.6667374"><ele>317.0</ele><time>2026-04-04T12:01:35.688Z</time></trkpt><trkpt lat="43.8645528" lon="12.6667866"><ele>317.0</ele><time>2026-04-04T12:01:36.687Z</time></trkpt><trkpt lat="43.8643979" lon="12.6668297"><ele>317.0</ele><time>2026-04-04T12:01:37.687Z</time></trkpt><trkpt lat="43.8642475" lon="12.6668659"><ele>319.0</ele><time>2026-04-04T12:01:38.687Z</time></trkpt><trkpt lat="43.8641074" lon="12.6668957"><ele>321.0</ele><time>2026-04-04T12:01:39.685Z</time></trkpt><trkpt lat="43.8639809" lon="12.6669021"><ele>323.0</ele><time>2026-04-04T12:01:40.689Z</time></trkpt><trkpt lat="43.8638574" lon="12.6668845"><ele>325.0</ele><time>2026-04-04T12:01:41.687Z</time></trkpt><trkpt lat="43.8637355" lon="12.6668538"><ele>325.0</ele><time>2026-04-04T12:01:42.688Z</time></trkpt><trkpt lat="43.8636088" lon="12.666824"><ele>325.0</ele><time>2026-04-04T12:01:43.688Z</time></trkpt><trkpt lat="43.8634782" lon="12.6668054"><ele>325.0</ele><time>2026-04-04T12:01:44.688Z</time></trkpt><trkpt lat="43.8633489" lon="12.6667923"><ele>325.0</ele><time>2026-04-04T12:01:45.689Z</time></trkpt><trkpt lat="43.8632153" lon="12.6667802"><ele>326.75</ele><time>2026-04-04T12:01:46.687Z</time></trkpt><trkpt lat="43.8630784" lon="12.6667683"><ele>328.5</ele><time>2026-04-04T12:01:47.687Z</time></trkpt><trkpt lat="43.8629362" lon="12.66676"><ele>330.25</ele><time>2026-04-04T12:01:48.687Z</time></trkpt><trkpt lat="43.8627925" lon="12.6667445"><ele>332.0</ele><time>2026-04-04T12:01:49.688Z</time></trkpt><trkpt lat="43.8626459" lon="12.6667251"><ele>332.25</ele><time>2026-04-04T12:01:50.687Z</time></trkpt><trkpt lat="43.8624936" lon="12.6667027"><ele>332.5</ele><time>2026-04-04T12:01:51.686Z</time></trkpt><trkpt lat="43.8623433" lon="12.6666747"><ele>332.75</ele><time>2026-04-04T12:01:52.688Z</time></trkpt><trkpt lat="43.8622061" lon="12.6666435"><ele>333.0</ele><time>2026-04-04T12:01:53.686Z</time></trkpt><trkpt lat="43.8620814" lon="12.666614"><ele>333.0</ele><time>2026-04-04T12:01:54.687Z</time></trkpt><trkpt lat="43.8619677" lon="12.6665839"><ele>333.0</ele><time>2026-04-04T12:01:55.688Z</time></trkpt><trkpt lat="43.8618586" lon="12.666555"><ele>333.0</ele><time>2026-04-04T12:01:56.688Z</time></trkpt><trkpt lat="43.861755" lon="12.6665271"><ele>333.0</ele><time>2026-04-04T12:01:57.686Z</time></trkpt><trkpt lat="43.861655" lon="12.666503"><ele>333.0</ele><time>2026-04-04T12:01:58.687Z</time></trkpt><trkpt lat="43.8615584" lon="12.6664789"><ele>333.1666666666667</ele><time>2026-04-04T12:01:59.686Z</time></trkpt><trkpt lat="43.8614652" lon="12.6664555"><ele>333.3333333333333</ele><time>2026-04-04T12:02:00.688Z</time></trkpt><trkpt lat="43.8613754" lon="12.6664308"><ele>333.5</ele><time>2026-04-04T12:02:01.688Z</time></trkpt><trkpt lat="43.8612899" lon="12.6664057"><ele>333.66666666666663</ele><time>2026-04-04T12:02:02.686Z</time></trkpt><trkpt lat="43.861204" lon="12.6663861"><ele>333.8333333333333</ele><time>2026-04-04T12:02:03.686Z</time></trkpt><trkpt lat="43.8611165" lon="12.6663723"><ele>334.0</ele><time>2026-04-04T12:02:04.687Z</time></trkpt><trkpt lat="43.8610229" lon="12.6663683"><ele>334.79999999999995</ele><time>2026-04-04T12:02:05.687Z</time></trkpt><trkpt lat="43.8609292" lon="12.6663673"><ele>335.59999999999997</ele><time>2026-04-04T12:02:06.686Z</time></trkpt><trkpt lat="43.8608368" lon="12.6663648"><ele>336.4</ele><time>2026-04-04T12:02:07.688Z</time></trkpt><trkpt lat="43.860737" lon="12.6663626"><ele>337.2</ele><time>2026-04-04T12:02:08.684Z</time></trkpt><trkpt lat="43.8606308" lon="12.6663633"><ele>338.0</ele><time>2026-04-04T12:02:09.686Z</time></trkpt><trkpt lat="43.8605244" lon="12.6663581"><ele>338.0</ele><time>2026-04-04T12:02:10.688Z</time></trkpt><trkpt lat="43.8604185" lon="12.6663461"><ele>338.0</ele><time>2026-04-04T12:02:11.686Z</time></trkpt><trkpt lat="43.8603088" lon="12.6663272"><ele>338.0</ele><time>2026-04-04T12:02:12.687Z</time></trkpt><trkpt lat="43.8601961" lon="12.666308"><ele>338.0</ele><time>2026-04-04T12:02:13.687Z</time></trkpt><trkpt lat="43.8600838" lon="12.6662857"><ele>338.0</ele><time>2026-04-04T12:02:14.685Z</time></trkpt><trkpt lat="43.8599716" lon="12.6662619"><ele>339.25</ele><time>2026-04-04T12:02:15.687Z</time></trkpt><trkpt lat="43.8598613" lon="12.6662314"><ele>340.5</ele><time>2026-04-04T12:02:16.687Z</time></trkpt><trkpt lat="43.8597512" lon="12.6662033"><ele>341.75</ele><time>2026-04-04T12:02:17.687Z</time></trkpt><trkpt lat="43.8596383" lon="12.6661829"><ele>343.0</ele><time>2026-04-04T12:02:18.687Z</time></trkpt><trkpt lat="43.8595249" lon="12.6661705"><ele>343.0</ele><time>2026-04-04T12:02:19.688Z</time></trkpt><trkpt lat="43.8594157" lon="12.6661665"><ele>343.0</ele><time>2026-04-04T12:02:20.686Z</time></trkpt><trkpt lat="43.8593101" lon="12.6661752"><ele>343.0</ele><time>2026-04-04T12:02:21.689Z</time></trkpt><trkpt lat="43.8592085" lon="12.6661988"><ele>343.0</ele><time>2026-04-04T12:02:22.688Z</time></trkpt><trkpt lat="43.8591102" lon="12.6662357"><ele>343.0</ele><time>2026-04-04T12:02:23.687Z</time></trkpt><trkpt lat="43.8590178" lon="12.6662878"><ele>345.75</ele><time>2026-04-04T12:02:24.687Z</time></trkpt><trkpt lat="43.8589309" lon="12.6663658"><ele>348.5</ele><time>2026-04-04T12:02:25.69Z</time></trkpt><trkpt lat="43.8588454" lon="12.6664696"><ele>351.25</ele><time>2026-04-04T12:02:26.687Z</time></trkpt><trkpt lat="43.8587676" lon="12.6666022"><ele>354.0</ele><time>2026-04-04T12:02:27.687Z</time></trkpt><trkpt lat="43.8586983" lon="12.6667673"><ele>354.0</ele><time>2026-04-04T12:02:28.687Z</time></trkpt><trkpt lat="43.8586356" lon="12.6669438"><ele>354.0</ele><time>2026-04-04T12:02:29.689Z</time></trkpt><trkpt lat="43.8585662" lon="12.6671239"><ele>354.0</ele><time>2026-04-04T12:02:30.688Z</time></trkpt><trkpt lat="43.8585057" lon="12.6672969"><ele>354.0</ele><time>2026-04-04T12:02:31.688Z</time></trkpt><trkpt lat="43.8584535" lon="12.6674555"><ele>358.2</ele><time>2026-04-04T12:02:32.686Z</time></trkpt><trkpt lat="43.8584139" lon="12.6676039"><ele>362.4</ele><time>2026-04-04T12:02:33.687Z</time></trkpt><trkpt lat="43.8583836" lon="12.6677461"><ele>366.6</ele><time>2026-04-04T12:02:34.688Z</time></trkpt><trkpt lat="43.8583758" lon="12.6678894"><ele>370.8</ele><time>2026-04-04T12:02:35.688Z</time></trkpt><trkpt lat="43.858394" lon="12.6680294"><ele>375.0</ele><time>2026-04-04T12:02:36.688Z</time></trkpt><trkpt lat="43.8584382" lon="12.6681735"><ele>369.5</ele><time>2026-04-04T12:02:37.687Z</time></trkpt><trkpt lat="43.858505" lon="12.6683123"><ele>364.0</ele><time>2026-04-04T12:02:38.688Z</time></trkpt><trkpt lat="43.8585785" lon="12.6684524"><ele>358.5</ele><time>2026-04-04T12:02:39.687Z</time></trkpt><trkpt lat="43.8586526" lon="12.6685929"><ele>353.0</ele><time>2026-04-04T12:02:40.688Z</time></trkpt><trkpt lat="43.8587155" lon="12.6687457"><ele>353.0</ele><time>2026-04-04T12:02:41.689Z</time></trkpt><trkpt lat="43.8587631" lon="12.6689114"><ele>353.0</ele><time>2026-04-04T12:02:42.689Z</time></trkpt><trkpt lat="43.8587929" lon="12.6690751"><ele>353.0</ele><time>2026-04-04T12:02:43.687Z</time></trkpt><trkpt lat="43.8587969" lon="12.6692361"><ele>353.0</ele><time>2026-04-04T12:02:44.688Z</time></trkpt><trkpt lat="43.8587667" lon="12.6693783"><ele>353.0</ele><time>2026-04-04T12:02:45.689Z</time></trkpt><trkpt lat="43.8587138" lon="12.6694983"><ele>353.0</ele><time>2026-04-04T12:02:46.688Z</time></trkpt><trkpt lat="43.8586329" lon="12.6695832"><ele>353.0</ele><time>2026-04-04T12:02:47.688Z</time></trkpt><trkpt lat="43.8585372" lon="12.6696439"><ele>353.0</ele><time>2026-04-04T12:02:48.688Z</time></trkpt><trkpt lat="43.8584369" lon="12.6696914"><ele>353.0</ele><time>2026-04-04T12:02:49.69Z</time></trkpt><trkpt lat="43.8583348" lon="12.669741"><ele>357.59999999999997</ele><time>2026-04-04T12:02:50.688Z</time></trkpt><trkpt lat="43.8582304" lon="12.6697968"><ele>362.2</ele><time>2026-04-04T12:02:51.689Z</time></trkpt><trkpt lat="43.8581324" lon="12.6698612"><ele>366.8</ele><time>2026-04-04T12:02:52.689Z</time></trkpt><trkpt lat="43.8580456" lon="12.6699282"><ele>371.4</ele><time>2026-04-04T12:02:53.687Z</time></trkpt><trkpt lat="43.8579759" lon="12.670014"><ele>376.0</ele><time>2026-04-04T12:02:54.689Z</time></trkpt><trkpt lat="43.857925" lon="12.6701068"><ele>376.0</ele><time>2026-04-04T12:02:55.691Z</time></trkpt><trkpt lat="43.8578816" lon="12.6701854"><ele>376.0</ele><time>2026-04-04T12:02:56.687Z</time></trkpt><trkpt lat="43.8578042" lon="12.6702739"><ele>376.0</ele><time>2026-04-04T12:02:58.688Z</time></trkpt><trkpt lat="43.8577212" lon="12.6702273"><ele>376.0</ele><time>2026-04-04T12:03:00.686Z</time></trkpt><trkpt lat="43.857679" lon="12.6701493"><ele>376.0</ele><time>2026-04-04T12:03:01.687Z</time></trkpt><trkpt lat="43.8576617" lon="12.6699673"><ele>376.0</ele><time>2026-04-04T12:03:02.688Z</time></trkpt><trkpt lat="43.8576444" lon="12.6697803"><ele>376.0</ele><time>2026-04-04T12:03:03.686Z</time></trkpt><trkpt lat="43.8576198" lon="12.6696014"><ele>376.0</ele><time>2026-04-04T12:03:04.69Z</time></trkpt><trkpt lat="43.8575964" lon="12.6694278"><ele>376.0</ele><time>2026-04-04T12:03:05.688Z</time></trkpt><trkpt lat="43.8575688" lon="12.669273"><ele>376.20000000000005</ele><time>2026-04-04T12:03:06.688Z</time></trkpt><trkpt lat="43.8575432" lon="12.6691263"><ele>376.40000000000003</ele><time>2026-04-04T12:03:07.689Z</time></trkpt><trkpt lat="43.8575185" lon="12.6689961"><ele>376.6</ele><time>2026-04-04T12:03:08.688Z</time></trkpt><trkpt lat="43.8574974" lon="12.6688855"><ele>376.8</ele><time>2026-04-04T12:03:09.686Z</time></trkpt><trkpt lat="43.8574789" lon="12.6687909"><ele>377.0</ele><time>2026-04-04T12:03:10.688Z</time></trkpt><trkpt lat="43.8574572" lon="12.6686324"><ele>377.6666666666667</ele><time>2026-04-04T12:03:12.686Z</time></trkpt><trkpt lat="43.857436" lon="12.6684933"><ele>378.33333333333337</ele><time>2026-04-04T12:03:14.688Z</time></trkpt><trkpt lat="43.8574068" lon="12.6683687"><ele>379.0</ele><time>2026-04-04T12:03:16.688Z</time></trkpt><trkpt lat="43.8573662" lon="12.6682555"><ele>379.6666666666667</ele><time>2026-04-04T12:03:18.688Z</time></trkpt><trkpt lat="43.8573123" lon="12.6681597"><ele>380.3333333333333</ele><time>2026-04-04T12:03:20.687Z</time></trkpt><trkpt lat="43.8572783" lon="12.6680795"><ele>381.0</ele><time>2026-04-04T12:03:22.688Z</time></trkpt><trkpt lat="43.857225" lon="12.66798"><ele>381.0</ele><time>2026-04-04T12:04:27.686Z</time></trkpt><trkpt lat="43.8571583" lon="12.6679083"><ele>381.0</ele><time>2026-04-04T12:04:28.689Z</time></trkpt><trkpt lat="43.8570767" lon="12.6678033"><ele>381.0</ele><time>2026-04-04T12:04:29.685Z</time></trkpt><trkpt lat="43.856985" lon="12.6676733"><ele>381.0</ele><time>2026-04-04T12:04:30.689Z</time></trkpt><trkpt lat="43.8569067" lon="12.6675183"><ele>379.6666666666667</ele><time>2026-04-04T12:04:31.691Z</time></trkpt><trkpt lat="43.85683" lon="12.6673333"><ele>378.33333333333337</ele><time>2026-04-04T12:04:32.685Z</time></trkpt><trkpt lat="43.8567533" lon="12.66714"><ele>377.0</ele><time>2026-04-04T12:04:33.689Z</time></trkpt><trkpt lat="43.8566867" lon="12.6669583"><ele>378.75</ele><time>2026-04-04T12:04:34.689Z</time></trkpt><trkpt lat="43.8566217" lon="12.6668"><ele>380.5</ele><time>2026-04-04T12:04:35.69Z</time></trkpt><trkpt lat="43.85656" lon="12.666655"><ele>382.25</ele><time>2026-04-04T12:04:36.689Z</time></trkpt><trkpt lat="43.856505" lon="12.6665233"><ele>384.0</ele><time>2026-04-04T12:04:37.691Z</time></trkpt><trkpt lat="43.8564583" lon="12.6664017"><ele>384.0</ele><time>2026-04-04T12:04:38.688Z</time></trkpt><trkpt lat="43.8564233" lon="12.6662833"><ele>384.0</ele><time>2026-04-04T12:04:39.688Z</time></trkpt><trkpt lat="43.8564033" lon="12.6661583"><ele>384.0</ele><time>2026-04-04T12:04:40.689Z</time></trkpt><trkpt lat="43.8564017" lon="12.6660267"><ele>384.0</ele><time>2026-04-04T12:04:41.689Z</time></trkpt><trkpt lat="43.8564233" lon="12.6658933"><ele>384.0</ele><time>2026-04-04T12:04:42.688Z</time></trkpt><trkpt lat="43.8564683" lon="12.6657617"><ele>384.0</ele><time>2026-04-04T12:04:43.689Z</time></trkpt><trkpt lat="43.8565333" lon="12.66564"><ele>384.0</ele><time>2026-04-04T12:04:44.687Z</time></trkpt><trkpt lat="43.8566183" lon="12.6655517"><ele>384.0</ele><time>2026-04-04T12:04:45.691Z</time></trkpt><trkpt lat="43.856725" lon="12.6654783"><ele>384.0</ele><time>2026-04-04T12:04:46.687Z</time></trkpt><trkpt lat="43.85684" lon="12.6654233"><ele>386.5</ele><time>2026-04-04T12:04:47.688Z</time></trkpt><trkpt lat="43.8569617" lon="12.6653917"><ele>389.0</ele><time>2026-04-04T12:04:48.688Z</time></trkpt><trkpt lat="43.8570783" lon="12.6653633"><ele>391.5</ele><time>2026-04-04T12:04:49.689Z</time></trkpt><trkpt lat="43.8571867" lon="12.6653333"><ele>394.0</ele><time>2026-04-04T12:04:50.689Z</time></trkpt><trkpt lat="43.857285" lon="12.6652983"><ele>392.6666666666667</ele><time>2026-04-04T12:04:51.687Z</time></trkpt><trkpt lat="43.85737" lon="12.66525"><ele>391.33333333333337</ele><time>2026-04-04T12:04:52.689Z</time></trkpt><trkpt lat="43.8574417" lon="12.6651867"><ele>390.0</ele><time>2026-04-04T12:04:53.69Z</time></trkpt><trkpt lat="43.85749" lon="12.6651167"><ele>388.66666666666663</ele><time>2026-04-04T12:04:54.687Z</time></trkpt><trkpt lat="43.85752" lon="12.6650283"><ele>387.3333333333333</ele><time>2026-04-04T12:04:55.689Z</time></trkpt><trkpt lat="43.8575267" lon="12.6649217"><ele>386.0</ele><time>2026-04-04T12:04:56.69Z</time></trkpt><trkpt lat="43.857525" lon="12.6648133"><ele>386.0</ele><time>2026-04-04T12:04:57.689Z</time></trkpt><trkpt lat="43.85752" lon="12.664695"><ele>386.0</ele><time>2026-04-04T12:04:58.691Z</time></trkpt><trkpt lat="43.8575017" lon="12.664555"><ele>386.0</ele><time>2026-04-04T12:04:59.689Z</time></trkpt><trkpt lat="43.8574617" lon="12.6643983"><ele>386.0</ele><time>2026-04-04T12:05:00.688Z</time></trkpt><trkpt lat="43.8574183" lon="12.6642383"><ele>386.0</ele><time>2026-04-04T12:05:01.689Z</time></trkpt><trkpt lat="43.8573717" lon="12.6640683"><ele>386.0</ele><time>2026-04-04T12:05:02.686Z</time></trkpt><trkpt lat="43.8573233" lon="12.6638933"><ele>386.0</ele><time>2026-04-04T12:05:03.687Z</time></trkpt><trkpt lat="43.8572683" lon="12.6637167"><ele>386.0</ele><time>2026-04-04T12:05:04.688Z</time></trkpt><trkpt lat="43.857215" lon="12.6635317"><ele>386.0</ele><time>2026-04-04T12:05:05.688Z</time></trkpt><trkpt lat="43.8571583" lon="12.663345"><ele>387.5</ele><time>2026-04-04T12:05:06.69Z</time></trkpt><trkpt lat="43.8571083" lon="12.6631617"><ele>389.0</ele><time>2026-04-04T12:05:07.69Z</time></trkpt><trkpt lat="43.8570617" lon="12.6629733"><ele>390.5</ele><time>2026-04-04T12:05:08.689Z</time></trkpt><trkpt lat="43.8570217" lon="12.66279"><ele>392.0</ele><time>2026-04-04T12:05:09.689Z</time></trkpt><trkpt lat="43.8569867" lon="12.6626267"><ele>392.0</ele><time>2026-04-04T12:05:10.689Z</time></trkpt><trkpt lat="43.8569617" lon="12.662475"><ele>392.0</ele><time>2026-04-04T12:05:11.689Z</time></trkpt><trkpt lat="43.85696" lon="12.6623217"><ele>392.0</ele><time>2026-04-04T12:05:12.689Z</time></trkpt><trkpt lat="43.8569717" lon="12.6621617"><ele>392.0</ele><time>2026-04-04T12:05:13.69Z</time></trkpt><trkpt lat="43.8569917" lon="12.661995"><ele>391.0</ele><time>2026-04-04T12:05:14.693Z</time></trkpt><trkpt lat="43.8570183" lon="12.6618283"><ele>390.0</ele><time>2026-04-04T12:05:15.688Z</time></trkpt><trkpt lat="43.85704" lon="12.661675"><ele>389.0</ele><time>2026-04-04T12:05:16.686Z</time></trkpt><trkpt lat="43.8570583" lon="12.661545"><ele>388.0</ele><time>2026-04-04T12:05:17.687Z</time></trkpt><trkpt lat="43.857075" lon="12.6614333"><ele>387.0</ele><time>2026-04-04T12:05:18.687Z</time></trkpt><trkpt lat="43.8570883" lon="12.6613433"><ele>387.0</ele><time>2026-04-04T12:05:19.689Z</time></trkpt><trkpt lat="43.857115" lon="12.6612583"><ele>387.0</ele><time>2026-04-04T12:05:21.687Z</time></trkpt><trkpt lat="43.857095" lon="12.6611367"><ele>387.0</ele><time>2026-04-04T12:06:09.688Z</time></trkpt><trkpt lat="43.85705" lon="12.66105"><ele>387.0</ele><time>2026-04-04T12:06:11.685Z</time></trkpt><trkpt lat="43.85694" lon="12.66097"><ele>387.0</ele><time>2026-04-04T12:06:13.687Z</time></trkpt><trkpt lat="43.85688" lon="12.6609267"><ele>387.0</ele><time>2026-04-04T12:06:14.689Z</time></trkpt><trkpt lat="43.8568083" lon="12.66088"><ele>385.5</ele><time>2026-04-04T12:06:15.687Z</time></trkpt><trkpt lat="43.8567317" lon="12.6608283"><ele>384.0</ele><time>2026-04-04T12:06:16.689Z</time></trkpt><trkpt lat="43.8566533" lon="12.6607733"><ele>382.5</ele><time>2026-04-04T12:06:17.685Z</time></trkpt><trkpt lat="43.8565767" lon="12.6607183"><ele>381.0</ele><time>2026-04-04T12:06:18.688Z</time></trkpt><trkpt lat="43.856495" lon="12.6606667"><ele>379.5</ele><time>2026-04-04T12:06:19.689Z</time></trkpt><trkpt lat="43.85642" lon="12.6606133"><ele>378.0</ele><time>2026-04-04T12:06:20.688Z</time></trkpt><trkpt lat="43.85636" lon="12.6605617"><ele>378.0</ele><time>2026-04-04T12:06:21.687Z</time></trkpt><trkpt lat="43.856265" lon="12.660465"><ele>378.0</ele><time>2026-04-04T12:06:23.684Z</time></trkpt><trkpt lat="43.8561967" lon="12.6603583"><ele>378.0</ele><time>2026-04-04T12:06:25.688Z</time></trkpt><trkpt lat="43.8561683" lon="12.6602133"><ele>378.0</ele><time>2026-04-04T12:06:27.686Z</time></trkpt><trkpt lat="43.8561383" lon="12.66008"><ele>378.0</ele><time>2026-04-04T12:06:29.687Z</time></trkpt><trkpt lat="43.8560667" lon="12.6600167"><ele>377.8333333333333</ele><time>2026-04-04T12:06:31.688Z</time></trkpt><trkpt lat="43.85595" lon="12.66006"><ele>377.6666666666667</ele><time>2026-04-04T12:06:33.687Z</time></trkpt><trkpt lat="43.855875" lon="12.6600867"><ele>377.5</ele><time>2026-04-04T12:06:34.685Z</time></trkpt><trkpt lat="43.8558033" lon="12.66009"><ele>377.33333333333337</ele><time>2026-04-04T12:06:35.686Z</time></trkpt><trkpt lat="43.85572" lon="12.660095"><ele>377.1666666666667</ele><time>2026-04-04T12:06:36.688Z</time></trkpt><trkpt lat="43.85564" lon="12.6600867"><ele>377.0</ele><time>2026-04-04T12:06:37.687Z</time></trkpt><trkpt lat="43.8555667" lon="12.6600617"><ele>377.0</ele><time>2026-04-04T12:06:38.687Z</time></trkpt><trkpt lat="43.8555017" lon="12.6600117"><ele>377.0</ele><time>2026-04-04T12:06:39.686Z</time></trkpt><trkpt lat="43.855445" lon="12.6599517"><ele>377.0</ele><time>2026-04-04T12:06:40.69Z</time></trkpt><trkpt lat="43.8553967" lon="12.6598817"><ele>377.0</ele><time>2026-04-04T12:06:41.685Z</time></trkpt><trkpt lat="43.8553" lon="12.6598067"><ele>377.0</ele><time>2026-04-04T12:06:43.688Z</time></trkpt><trkpt lat="43.8551717" lon="12.6598233"><ele>374.4285714285714</ele><time>2026-04-04T12:06:45.689Z</time></trkpt><trkpt lat="43.8551" lon="12.6598483"><ele>371.85714285714283</ele><time>2026-04-04T12:06:46.689Z</time></trkpt><trkpt lat="43.85503" lon="12.6598783"><ele>369.2857142857143</ele><time>2026-04-04T12:06:47.688Z</time></trkpt><trkpt lat="43.8549633" lon="12.6599133"><ele>366.71428571428567</ele><time>2026-04-04T12:06:48.688Z</time></trkpt><trkpt lat="43.8548983" lon="12.6599533"><ele>364.14285714285717</ele><time>2026-04-04T12:06:49.69Z</time></trkpt><trkpt lat="43.85483" lon="12.6599967"><ele>361.57142857142856</ele><time>2026-04-04T12:06:50.688Z</time></trkpt><trkpt lat="43.8547583" lon="12.6600417"><ele>359.0</ele><time>2026-04-04T12:06:51.688Z</time></trkpt><trkpt lat="43.8546867" lon="12.660085"><ele>359.0</ele><time>2026-04-04T12:06:52.688Z</time></trkpt><trkpt lat="43.8546183" lon="12.660135"><ele>359.0</ele><time>2026-04-04T12:06:53.685Z</time></trkpt><trkpt lat="43.85455" lon="12.6602017"><ele>359.0</ele><time>2026-04-04T12:06:54.687Z</time></trkpt><trkpt lat="43.8544833" lon="12.660285"><ele>359.0</ele><time>2026-04-04T12:06:55.688Z</time></trkpt><trkpt lat="43.8544117" lon="12.6603683"><ele>359.0</ele><time>2026-04-04T12:06:56.687Z</time></trkpt><trkpt lat="43.8543383" lon="12.6604517"><ele>359.0</ele><time>2026-04-04T12:06:57.687Z</time></trkpt><trkpt lat="43.8542683" lon="12.6605383"><ele>354.4</ele><time>2026-04-04T12:06:58.688Z</time></trkpt><trkpt lat="43.854195" lon="12.660625"><ele>349.79999999999995</ele><time>2026-04-04T12:06:59.686Z</time></trkpt><trkpt lat="43.8541217" lon="12.6607117"><ele>345.20000000000005</ele><time>2026-04-04T12:07:00.689Z</time></trkpt><trkpt lat="43.8540483" lon="12.6607983"><ele>340.6</ele><time>2026-04-04T12:07:01.69Z</time></trkpt><trkpt lat="43.8539767" lon="12.6608867"><ele>336.0</ele><time>2026-04-04T12:07:02.687Z</time></trkpt><trkpt lat="43.8539017" lon="12.6609717"><ele>336.0</ele><time>2026-04-04T12:07:03.688Z</time></trkpt><trkpt lat="43.85383" lon="12.6610467"><ele>336.0</ele><time>2026-04-04T12:07:04.688Z</time></trkpt><trkpt lat="43.853755" lon="12.6611083"><ele>336.0</ele><time>2026-04-04T12:07:05.69Z</time></trkpt><trkpt lat="43.8536817" lon="12.6611633"><ele>336.0</ele><time>2026-04-04T12:07:06.688Z</time></trkpt><trkpt lat="43.8536133" lon="12.66121"><ele>336.0</ele><time>2026-04-04T12:07:07.689Z</time></trkpt><trkpt lat="43.8535483" lon="12.6612533"><ele>336.0</ele><time>2026-04-04T12:07:08.688Z</time></trkpt><trkpt lat="43.853485" lon="12.66129"><ele>333.7142857142857</ele><time>2026-04-04T12:07:09.688Z</time></trkpt><trkpt lat="43.8534183" lon="12.6613183"><ele>331.42857142857144</ele><time>2026-04-04T12:07:10.689Z</time></trkpt><trkpt lat="43.8533483" lon="12.661345"><ele>329.1428571428571</ele><time>2026-04-04T12:07:11.687Z</time></trkpt><trkpt lat="43.8532783" lon="12.66137"><ele>326.8571428571429</ele><time>2026-04-04T12:07:12.687Z</time></trkpt><trkpt lat="43.853215" lon="12.66139"><ele>324.57142857142856</ele><time>2026-04-04T12:07:13.687Z</time></trkpt><trkpt lat="43.8531483" lon="12.6614067"><ele>322.2857142857143</ele><time>2026-04-04T12:07:14.688Z</time></trkpt><trkpt lat="43.8530733" lon="12.6614217"><ele>320.0</ele><time>2026-04-04T12:07:15.69Z</time></trkpt><trkpt lat="43.8529983" lon="12.6614233"><ele>320.0</ele><time>2026-04-04T12:07:16.688Z</time></trkpt><trkpt lat="43.8529233" lon="12.661405"><ele>320.0</ele><time>2026-04-04T12:07:17.688Z</time></trkpt><trkpt lat="43.85285" lon="12.6613683"><ele>320.0</ele><time>2026-04-04T12:07:18.689Z</time></trkpt><trkpt lat="43.85278" lon="12.6613217"><ele>320.0</ele><time>2026-04-04T12:07:19.689Z</time></trkpt><trkpt lat="43.852705" lon="12.6612733"><ele>320.0</ele><time>2026-04-04T12:07:20.687Z</time></trkpt><trkpt lat="43.8526283" lon="12.6612317"><ele>320.0</ele><time>2026-04-04T12:07:21.685Z</time></trkpt><trkpt lat="43.8525467" lon="12.6612"><ele>317.8</ele><time>2026-04-04T12:07:22.687Z</time></trkpt><trkpt lat="43.85246" lon="12.66118"><ele>315.6</ele><time>2026-04-04T12:07:23.687Z</time></trkpt><trkpt lat="43.8523717" lon="12.6611683"><ele>313.4</ele><time>2026-04-04T12:07:24.687Z</time></trkpt><trkpt lat="43.8522783" lon="12.6611533"><ele>311.2</ele><time>2026-04-04T12:07:25.69Z</time></trkpt><trkpt lat="43.85218" lon="12.661135"><ele>309.0</ele><time>2026-04-04T12:07:26.687Z</time></trkpt><trkpt lat="43.8520767" lon="12.66112"><ele>308.3333333333333</ele><time>2026-04-04T12:07:27.688Z</time></trkpt><trkpt lat="43.8519833" lon="12.661105"><ele>307.6666666666667</ele><time>2026-04-04T12:07:28.687Z</time></trkpt><trkpt lat="43.8518983" lon="12.6610867"><ele>307.0</ele><time>2026-04-04T12:07:29.687Z</time></trkpt><trkpt lat="43.851825" lon="12.6610667"><ele>306.33333333333337</ele><time>2026-04-04T12:07:30.687Z</time></trkpt><trkpt lat="43.851755" lon="12.661045"><ele>305.6666666666667</ele><time>2026-04-04T12:07:31.689Z</time></trkpt><trkpt lat="43.851695" lon="12.661015"><ele>305.0</ele><time>2026-04-04T12:07:32.687Z</time></trkpt><trkpt lat="43.8516417" lon="12.6609217"><ele>302.0</ele><time>2026-04-04T12:07:34.687Z</time></trkpt><trkpt lat="43.85167" lon="12.6608017"><ele>299.0</ele><time>2026-04-04T12:07:36.687Z</time></trkpt><trkpt lat="43.85173" lon="12.6606733"><ele>296.0</ele><time>2026-04-04T12:07:38.687Z</time></trkpt><trkpt lat="43.85174" lon="12.6605583"><ele>293.0</ele><time>2026-04-04T12:07:40.688Z</time></trkpt><trkpt lat="43.8516733" lon="12.6604833"><ele>290.0</ele><time>2026-04-04T12:07:42.687Z</time></trkpt><trkpt lat="43.8515717" lon="12.6604883"><ele>290.0</ele><time>2026-04-04T12:07:44.69Z</time></trkpt><trkpt lat="43.851505" lon="12.660525"><ele>290.0</ele><time>2026-04-04T12:07:45.688Z</time></trkpt><trkpt lat="43.8514383" lon="12.6605667"><ele>290.0</ele><time>2026-04-04T12:07:46.689Z</time></trkpt><trkpt lat="43.8513367" lon="12.6606483"><ele>290.0</ele><time>2026-04-04T12:07:48.688Z</time></trkpt><trkpt lat="43.8512517" lon="12.66072"><ele>290.0</ele><time>2026-04-04T12:07:50.688Z</time></trkpt><trkpt lat="43.8511817" lon="12.6607717"><ele>290.0</ele><time>2026-04-04T12:07:52.687Z</time></trkpt><trkpt lat="43.851115" lon="12.66081"><ele>290.0</ele><time>2026-04-04T12:07:54.687Z</time></trkpt><trkpt lat="43.8510167" lon="12.6608867"><ele>290.0</ele><time>2026-04-04T12:08:09.687Z</time></trkpt><trkpt lat="43.851" lon="12.6609783"><ele>290.0</ele><time>2026-04-04T12:08:12.688Z</time></trkpt><trkpt lat="43.851015" lon="12.6611"><ele>290.0</ele><time>2026-04-04T12:08:15.688Z</time></trkpt><trkpt lat="43.8510233" lon="12.6612017"><ele>290.0</ele><time>2026-04-04T12:08:18.688Z</time></trkpt><trkpt lat="43.8510367" lon="12.6611133"><ele>290.0</ele><time>2026-04-04T12:08:23.692Z</time></trkpt><trkpt lat="43.8510217" lon="12.6610233"><ele>290.0</ele><time>2026-04-04T12:08:25.689Z</time></trkpt><trkpt lat="43.8510667" lon="12.6608967"><ele>290.0</ele><time>2026-04-04T12:08:28.689Z</time></trkpt><trkpt lat="43.8511383" lon="12.66082"><ele>290.0</ele><time>2026-04-04T12:08:30.688Z</time></trkpt><trkpt lat="43.8512083" lon="12.66077"><ele>290.0</ele><time>2026-04-04T12:08:32.69Z</time></trkpt><trkpt lat="43.851285" lon="12.66071"><ele>290.0</ele><time>2026-04-04T12:08:34.688Z</time></trkpt><trkpt lat="43.8513817" lon="12.66063"><ele>290.0</ele><time>2026-04-04T12:08:36.689Z</time></trkpt><trkpt lat="43.85144" lon="12.6605867"><ele>290.0</ele><time>2026-04-04T12:08:37.688Z</time></trkpt><trkpt lat="43.8515017" lon="12.6605467"><ele>290.0</ele><time>2026-04-04T12:08:38.686Z</time></trkpt><trkpt lat="43.851575" lon="12.660505"><ele>290.0</ele><time>2026-04-04T12:08:39.689Z</time></trkpt><trkpt lat="43.8516483" lon="12.6604767"><ele>290.0</ele><time>2026-04-04T12:08:40.689Z</time></trkpt><trkpt lat="43.85172" lon="12.6604617"><ele>290.0</ele><time>2026-04-04T12:08:41.689Z</time></trkpt><trkpt lat="43.851815" lon="12.6605"><ele>290.0</ele><time>2026-04-04T12:08:43.688Z</time></trkpt><trkpt lat="43.85179" lon="12.6606517"><ele>290.0</ele><time>2026-04-04T12:08:45.689Z</time></trkpt><trkpt lat="43.8517533" lon="12.660805"><ele>290.0</ele><time>2026-04-04T12:08:47.688Z</time></trkpt><trkpt lat="43.85178" lon="12.6609317"><ele>290.0</ele><time>2026-04-04T12:08:49.689Z</time></trkpt><trkpt lat="43.851835" lon="12.66099"><ele>290.0</ele><time>2026-04-04T12:08:50.688Z</time></trkpt><trkpt lat="43.8519183" lon="12.6610367"><ele>293.75</ele><time>2026-04-04T12:08:51.687Z</time></trkpt><trkpt lat="43.852035" lon="12.6610717"><ele>297.5</ele><time>2026-04-04T12:08:52.689Z</time></trkpt><trkpt lat="43.85217" lon="12.66111"><ele>301.25</ele><time>2026-04-04T12:08:53.69Z</time></trkpt><trkpt lat="43.8523083" lon="12.6611433"><ele>305.0</ele><time>2026-04-04T12:08:54.688Z</time></trkpt><trkpt lat="43.8524133" lon="12.6611633"><ele>305.6666666666667</ele><time>2026-04-04T12:08:55.69Z</time></trkpt><trkpt lat="43.852505" lon="12.6611833"><ele>306.33333333333337</ele><time>2026-04-04T12:08:56.689Z</time></trkpt><trkpt lat="43.8525833" lon="12.6612083"><ele>307.0</ele><time>2026-04-04T12:08:57.686Z</time></trkpt><trkpt lat="43.8526517" lon="12.6612417"><ele>307.6666666666667</ele><time>2026-04-04T12:08:58.688Z</time></trkpt><trkpt lat="43.852715" lon="12.661285"><ele>308.3333333333333</ele><time>2026-04-04T12:08:59.688Z</time></trkpt><trkpt lat="43.8527867" lon="12.6613283"><ele>309.0</ele><time>2026-04-04T12:09:00.686Z</time></trkpt><trkpt lat="43.8528567" lon="12.661365"><ele>311.2</ele><time>2026-04-04T12:09:01.689Z</time></trkpt><trkpt lat="43.8529333" lon="12.66139"><ele>313.4</ele><time>2026-04-04T12:09:02.688Z</time></trkpt><trkpt lat="43.85302" lon="12.661395"><ele>315.6</ele><time>2026-04-04T12:09:03.687Z</time></trkpt><trkpt lat="43.8531133" lon="12.6613883"><ele>317.8</ele><time>2026-04-04T12:09:04.687Z</time></trkpt><trkpt lat="43.8532117" lon="12.6613683"><ele>320.0</ele><time>2026-04-04T12:09:05.689Z</time></trkpt><trkpt lat="43.853305" lon="12.66134"><ele>320.0</ele><time>2026-04-04T12:09:06.687Z</time></trkpt><trkpt lat="43.85339" lon="12.6613117"><ele>320.0</ele><time>2026-04-04T12:09:07.688Z</time></trkpt><trkpt lat="43.85346" lon="12.6612783"><ele>320.0</ele><time>2026-04-04T12:09:08.688Z</time></trkpt><trkpt lat="43.85353" lon="12.6612467"><ele>320.0</ele><time>2026-04-04T12:09:09.687Z</time></trkpt><trkpt lat="43.8535983" lon="12.66121"><ele>320.0</ele><time>2026-04-04T12:09:10.69Z</time></trkpt><trkpt lat="43.8536717" lon="12.6611683"><ele>320.0</ele><time>2026-04-04T12:09:11.687Z</time></trkpt><trkpt lat="43.8537483" lon="12.6611167"><ele>323.2</ele><time>2026-04-04T12:09:12.687Z</time></trkpt><trkpt lat="43.8538217" lon="12.6610517"><ele>326.4</ele><time>2026-04-04T12:09:13.692Z</time></trkpt><trkpt lat="43.8538967" lon="12.6609783"><ele>329.6</ele><time>2026-04-04T12:09:14.696Z</time></trkpt><trkpt lat="43.8539733" lon="12.6609"><ele>332.8</ele><time>2026-04-04T12:09:15.687Z</time></trkpt><trkpt lat="43.85406" lon="12.6608083"><ele>336.0</ele><time>2026-04-04T12:09:16.689Z</time></trkpt><trkpt lat="43.8541383" lon="12.6607183"><ele>336.0</ele><time>2026-04-04T12:09:17.689Z</time></trkpt><trkpt lat="43.8542133" lon="12.66063"><ele>336.0</ele><time>2026-04-04T12:09:18.688Z</time></trkpt><trkpt lat="43.8542883" lon="12.66055"><ele>336.0</ele><time>2026-04-04T12:09:19.689Z</time></trkpt><trkpt lat="43.8543583" lon="12.66047"><ele>336.0</ele><time>2026-04-04T12:09:20.689Z</time></trkpt><trkpt lat="43.85443" lon="12.66038"><ele>336.0</ele><time>2026-04-04T12:09:21.687Z</time></trkpt><trkpt lat="43.854495" lon="12.6602883"><ele>340.6</ele><time>2026-04-04T12:09:22.688Z</time></trkpt><trkpt lat="43.8545633" lon="12.660195"><ele>345.20000000000005</ele><time>2026-04-04T12:09:23.687Z</time></trkpt><trkpt lat="43.8546383" lon="12.6601217"><ele>349.79999999999995</ele><time>2026-04-04T12:09:24.691Z</time></trkpt><trkpt lat="43.8547183" lon="12.6600533"><ele>354.4</ele><time>2026-04-04T12:09:25.69Z</time></trkpt><trkpt lat="43.854805" lon="12.659995"><ele>359.0</ele><time>2026-04-04T12:09:26.688Z</time></trkpt><trkpt lat="43.854895" lon="12.6599417"><ele>359.0</ele><time>2026-04-04T12:09:27.687Z</time></trkpt><trkpt lat="43.8549883" lon="12.6598883"><ele>359.0</ele><time>2026-04-04T12:09:28.688Z</time></trkpt><trkpt lat="43.8550733" lon="12.6598417"><ele>359.0</ele><time>2026-04-04T12:09:29.689Z</time></trkpt><trkpt lat="43.8551533" lon="12.6597983"><ele>359.0</ele><time>2026-04-04T12:09:30.69Z</time></trkpt><trkpt lat="43.8552267" lon="12.6597617"><ele>359.0</ele><time>2026-04-04T12:09:31.688Z</time></trkpt><trkpt lat="43.855295" lon="12.6597383"><ele>359.0</ele><time>2026-04-04T12:09:32.692Z</time></trkpt><trkpt lat="43.855395" lon="12.659745"><ele>362.0</ele><time>2026-04-04T12:09:34.688Z</time></trkpt><trkpt lat="43.855475" lon="12.6598267"><ele>365.0</ele><time>2026-04-04T12:09:36.689Z</time></trkpt><trkpt lat="43.8555667" lon="12.6599317"><ele>368.0</ele><time>2026-04-04T12:09:38.69Z</time></trkpt><trkpt lat="43.8556233" lon="12.6599817"><ele>371.0</ele><time>2026-04-04T12:09:39.689Z</time></trkpt><trkpt lat="43.855695" lon="12.660015"><ele>374.0</ele><time>2026-04-04T12:09:40.689Z</time></trkpt><trkpt lat="43.8557667" lon="12.66004"><ele>377.0</ele><time>2026-04-04T12:09:41.689Z</time></trkpt><trkpt lat="43.85584" lon="12.6600433"><ele>377.0</ele><time>2026-04-04T12:09:42.689Z</time></trkpt><trkpt lat="43.85591" lon="12.6600317"><ele>377.0</ele><time>2026-04-04T12:09:43.688Z</time></trkpt><trkpt lat="43.8559767" lon="12.6600067"><ele>377.0</ele><time>2026-04-04T12:09:44.687Z</time></trkpt><trkpt lat="43.85604" lon="12.659995"><ele>377.0</ele><time>2026-04-04T12:09:45.691Z</time></trkpt><trkpt lat="43.8561417" lon="12.660025"><ele>377.0</ele><time>2026-04-04T12:09:47.686Z</time></trkpt><trkpt lat="43.8561983" lon="12.660155"><ele>377.0</ele><time>2026-04-04T12:09:49.69Z</time></trkpt><trkpt lat="43.856255" lon="12.6603117"><ele>377.1666666666667</ele><time>2026-04-04T12:09:51.687Z</time></trkpt><trkpt lat="43.856295" lon="12.6603983"><ele>377.33333333333337</ele><time>2026-04-04T12:09:52.688Z</time></trkpt><trkpt lat="43.85634" lon="12.6604733"><ele>377.5</ele><time>2026-04-04T12:09:53.687Z</time></trkpt><trkpt lat="43.856415" lon="12.6605533"><ele>377.6666666666667</ele><time>2026-04-04T12:09:54.688Z</time></trkpt><trkpt lat="43.8565017" lon="12.6606317"><ele>377.8333333333333</ele><time>2026-04-04T12:09:55.691Z</time></trkpt><trkpt lat="43.8565767" lon="12.660685"><ele>378.0</ele><time>2026-04-04T12:09:56.687Z</time></trkpt><trkpt lat="43.8566483" lon="12.660735"><ele>378.0</ele><time>2026-04-04T12:09:57.687Z</time></trkpt><trkpt lat="43.8567167" lon="12.6607833"><ele>378.0</ele><time>2026-04-04T12:09:58.689Z</time></trkpt><trkpt lat="43.856785" lon="12.6608367"><ele>378.0</ele><time>2026-04-04T12:09:59.686Z</time></trkpt><trkpt lat="43.8568467" lon="12.6608833"><ele>378.0</ele><time>2026-04-04T12:10:00.689Z</time></trkpt><trkpt lat="43.8569483" lon="12.66096"><ele>378.0</ele><time>2026-04-04T12:10:02.687Z</time></trkpt><trkpt lat="43.8570067" lon="12.661015"><ele>378.0</ele><time>2026-04-04T12:10:04.689Z</time></trkpt><trkpt lat="43.857085" lon="12.6610033"><ele>377.6666666666667</ele><time>2026-04-04T12:10:08.687Z</time></trkpt><trkpt lat="43.857115" lon="12.6608717"><ele>377.3333333333333</ele><time>2026-04-04T12:10:10.689Z</time></trkpt><trkpt lat="43.8571383" lon="12.6607833"><ele>377.0</ele><time>2026-04-04T12:10:11.689Z</time></trkpt><trkpt lat="43.8571717" lon="12.66068"><ele>376.66666666666663</ele><time>2026-04-04T12:10:12.689Z</time></trkpt><trkpt lat="43.8572067" lon="12.6605667"><ele>376.3333333333333</ele><time>2026-04-04T12:10:13.691Z</time></trkpt><trkpt lat="43.8572517" lon="12.6604467"><ele>376.0</ele><time>2026-04-04T12:10:14.689Z</time></trkpt><trkpt lat="43.8573067" lon="12.6603217"><ele>376.4</ele><time>2026-04-04T12:10:15.687Z</time></trkpt><trkpt lat="43.8573617" lon="12.6601967"><ele>376.8</ele><time>2026-04-04T12:10:16.689Z</time></trkpt><trkpt lat="43.8574183" lon="12.6600733"><ele>377.2</ele><time>2026-04-04T12:10:17.689Z</time></trkpt><trkpt lat="43.8574767" lon="12.659955"><ele>377.59999999999997</ele><time>2026-04-04T12:10:18.688Z</time></trkpt><trkpt lat="43.8575283" lon="12.6598333"><ele>378.0</ele><time>2026-04-04T12:10:19.688Z</time></trkpt><trkpt lat="43.8575833" lon="12.6596983"><ele>374.2</ele><time>2026-04-04T12:10:20.686Z</time></trkpt><trkpt lat="43.8576267" lon="12.6595667"><ele>370.4</ele><time>2026-04-04T12:10:21.688Z</time></trkpt><trkpt lat="43.857665" lon="12.6594333"><ele>366.59999999999997</ele><time>2026-04-04T12:10:22.688Z</time></trkpt><trkpt lat="43.85769" lon="12.6592983"><ele>362.79999999999995</ele><time>2026-04-04T12:10:23.69Z</time></trkpt><trkpt lat="43.857715" lon="12.6591617"><ele>359.0</ele><time>2026-04-04T12:10:24.688Z</time></trkpt><trkpt lat="43.8577233" lon="12.6590283"><ele>359.0</ele><time>2026-04-04T12:10:25.689Z</time></trkpt><trkpt lat="43.8577083" lon="12.65889"><ele>359.0</ele><time>2026-04-04T12:10:26.686Z</time></trkpt><trkpt lat="43.8576717" lon="12.6587633"><ele>359.0</ele><time>2026-04-04T12:10:27.687Z</time></trkpt><trkpt lat="43.8576167" lon="12.6586467"><ele>359.0</ele><time>2026-04-04T12:10:28.688Z</time></trkpt><trkpt lat="43.85755" lon="12.658535"><ele>359.0</ele><time>2026-04-04T12:10:29.689Z</time></trkpt><trkpt lat="43.857475" lon="12.6584233"><ele>363.79999999999995</ele><time>2026-04-04T12:10:30.688Z</time></trkpt><trkpt lat="43.8574017" lon="12.65831"><ele>368.59999999999997</ele><time>2026-04-04T12:10:31.689Z</time></trkpt><trkpt lat="43.8573267" lon="12.6581883"><ele>373.4</ele><time>2026-04-04T12:10:32.687Z</time></trkpt><trkpt lat="43.8572583" lon="12.6580817"><ele>378.2</ele><time>2026-04-04T12:10:33.689Z</time></trkpt><trkpt lat="43.8572" lon="12.6579783"><ele>383.0</ele><time>2026-04-04T12:10:34.688Z</time></trkpt><trkpt lat="43.8571483" lon="12.6578883"><ele>383.0</ele><time>2026-04-04T12:10:35.689Z</time></trkpt><trkpt lat="43.85711" lon="12.6578067"><ele>383.0</ele><time>2026-04-04T12:10:36.689Z</time></trkpt><trkpt lat="43.857075" lon="12.6576667"><ele>383.0</ele><time>2026-04-04T12:10:38.687Z</time></trkpt><trkpt lat="43.8570767" lon="12.6575717"><ele>383.0</ele><time>2026-04-04T12:10:40.688Z</time></trkpt><trkpt lat="43.85699" lon="12.65758"><ele>383.0</ele><time>2026-04-04T12:10:45.687Z</time></trkpt><trkpt lat="43.8569233" lon="12.657675"><ele>383.0</ele><time>2026-04-04T12:10:47.688Z</time></trkpt><trkpt lat="43.8568733" lon="12.6577567"><ele>383.0</ele><time>2026-04-04T12:10:48.688Z</time></trkpt><trkpt lat="43.8568183" lon="12.6578233"><ele>383.0</ele><time>2026-04-04T12:10:49.689Z</time></trkpt><trkpt lat="43.8567383" lon="12.6579"><ele>383.0</ele><time>2026-04-04T12:10:51.687Z</time></trkpt><trkpt lat="43.8566467" lon="12.6579183"><ele>383.0</ele><time>2026-04-04T12:10:53.686Z</time></trkpt><trkpt lat="43.8565117" lon="12.6578583"><ele>383.0</ele><time>2026-04-04T12:10:55.69Z</time></trkpt><trkpt lat="43.8564383" lon="12.6578133"><ele>384.33333333333337</ele><time>2026-04-04T12:10:56.689Z</time></trkpt><trkpt lat="43.8563617" lon="12.65777"><ele>385.6666666666667</ele><time>2026-04-04T12:10:57.688Z</time></trkpt><trkpt lat="43.8562883" lon="12.6577283"><ele>387.0</ele><time>2026-04-04T12:10:58.689Z</time></trkpt><trkpt lat="43.8562133" lon="12.65768"><ele>388.33333333333337</ele><time>2026-04-04T12:10:59.686Z</time></trkpt><trkpt lat="43.8561383" lon="12.6576233"><ele>389.6666666666667</ele><time>2026-04-04T12:11:00.689Z</time></trkpt><trkpt lat="43.8560617" lon="12.6575617"><ele>391.0</ele><time>2026-04-04T12:11:01.688Z</time></trkpt><trkpt lat="43.855985" lon="12.6575033"><ele>389.33333333333337</ele><time>2026-04-04T12:11:02.686Z</time></trkpt><trkpt lat="43.8559017" lon="12.657455"><ele>387.6666666666667</ele><time>2026-04-04T12:11:03.689Z</time></trkpt><trkpt lat="43.8558183" lon="12.6574133"><ele>386.0</ele><time>2026-04-04T12:11:04.691Z</time></trkpt><trkpt lat="43.8557383" lon="12.65737"><ele>384.33333333333337</ele><time>2026-04-04T12:11:05.687Z</time></trkpt><trkpt lat="43.8556617" lon="12.65732"><ele>382.6666666666667</ele><time>2026-04-04T12:11:06.689Z</time></trkpt><trkpt lat="43.8555817" lon="12.6572633"><ele>381.0</ele><time>2026-04-04T12:11:07.69Z</time></trkpt><trkpt lat="43.8554917" lon="12.6572133"><ele>381.0</ele><time>2026-04-04T12:11:08.687Z</time></trkpt><trkpt lat="43.8553917" lon="12.6571583"><ele>381.0</ele><time>2026-04-04T12:11:09.691Z</time></trkpt><trkpt lat="43.8552867" lon="12.6571067"><ele>381.0</ele><time>2026-04-04T12:11:10.69Z</time></trkpt><trkpt lat="43.8551767" lon="12.65706"><ele>381.0</ele><time>2026-04-04T12:11:11.689Z</time></trkpt><trkpt lat="43.8550667" lon="12.6570117"><ele>381.0</ele><time>2026-04-04T12:11:12.687Z</time></trkpt><trkpt lat="43.8549567" lon="12.6569583"><ele>380.8</ele><time>2026-04-04T12:11:13.69Z</time></trkpt><trkpt lat="43.85485" lon="12.6569033"><ele>380.6</ele><time>2026-04-04T12:11:14.685Z</time></trkpt><trkpt lat="43.8547483" lon="12.6568533"><ele>380.4</ele><time>2026-04-04T12:11:15.689Z</time></trkpt><trkpt lat="43.8546567" lon="12.656805"><ele>380.2</ele><time>2026-04-04T12:11:16.689Z</time></trkpt><trkpt lat="43.8545683" lon="12.6567567"><ele>380.0</ele><time>2026-04-04T12:11:17.691Z</time></trkpt><trkpt lat="43.8544917" lon="12.65671"><ele>380.0</ele><time>2026-04-04T12:11:18.688Z</time></trkpt><trkpt lat="43.8544233" lon="12.6566517"><ele>380.0</ele><time>2026-04-04T12:11:19.689Z</time></trkpt><trkpt lat="43.8543533" lon="12.656575"><ele>380.0</ele><time>2026-04-04T12:11:20.686Z</time></trkpt><trkpt lat="43.854295" lon="12.656485"><ele>380.0</ele><time>2026-04-04T12:11:21.688Z</time></trkpt><trkpt lat="43.854235" lon="12.656395"><ele>380.0</ele><time>2026-04-04T12:11:22.688Z</time></trkpt><trkpt lat="43.8541767" lon="12.6563133"><ele>380.0</ele><time>2026-04-04T12:11:23.686Z</time></trkpt><trkpt lat="43.8541133" lon="12.6562433"><ele>377.5</ele><time>2026-04-04T12:11:24.69Z</time></trkpt><trkpt lat="43.85404" lon="12.6561933"><ele>375.0</ele><time>2026-04-04T12:11:25.692Z</time></trkpt><trkpt lat="43.8539617" lon="12.6561783"><ele>372.5</ele><time>2026-04-04T12:11:26.695Z</time></trkpt><trkpt lat="43.85389" lon="12.65618"><ele>370.0</ele><time>2026-04-04T12:11:27.689Z</time></trkpt><trkpt lat="43.853795" lon="12.6562117"><ele>367.5</ele><time>2026-04-04T12:11:28.687Z</time></trkpt><trkpt lat="43.8537" lon="12.6562383"><ele>365.0</ele><time>2026-04-04T12:11:29.687Z</time></trkpt><trkpt lat="43.8536083" lon="12.656255"><ele>365.0</ele><time>2026-04-04T12:11:30.688Z</time></trkpt><trkpt lat="43.8535183" lon="12.65627"><ele>365.0</ele><time>2026-04-04T12:11:31.689Z</time></trkpt><trkpt lat="43.85343" lon="12.6562733"><ele>365.0</ele><time>2026-04-04T12:11:32.688Z</time></trkpt><trkpt lat="43.85334" lon="12.6562683"><ele>365.0</ele><time>2026-04-04T12:11:33.686Z</time></trkpt><trkpt lat="43.85326" lon="12.65626"><ele>365.0</ele><time>2026-04-04T12:11:34.689Z</time></trkpt><trkpt lat="43.8531833" lon="12.6562433"><ele>365.0</ele><time>2026-04-04T12:11:35.689Z</time></trkpt><trkpt lat="43.8530967" lon="12.656215"><ele>365.83333333333337</ele><time>2026-04-04T12:11:36.689Z</time></trkpt><trkpt lat="43.8530083" lon="12.6561733"><ele>366.6666666666667</ele><time>2026-04-04T12:11:37.689Z</time></trkpt><trkpt lat="43.852925" lon="12.6561283"><ele>367.5</ele><time>2026-04-04T12:11:38.687Z</time></trkpt><trkpt lat="43.85285" lon="12.656085"><ele>368.3333333333333</ele><time>2026-04-04T12:11:39.688Z</time></trkpt><trkpt lat="43.8527817" lon="12.6560383"><ele>369.16666666666663</ele><time>2026-04-04T12:11:40.688Z</time></trkpt><trkpt lat="43.852725" lon="12.6559883"><ele>370.0</ele><time>2026-04-04T12:11:41.689Z</time></trkpt><trkpt lat="43.8526733" lon="12.655925"><ele>367.3333333333333</ele><time>2026-04-04T12:11:42.688Z</time></trkpt><trkpt lat="43.8525967" lon="12.6558083"><ele>364.66666666666663</ele><time>2026-04-04T12:11:44.687Z</time></trkpt><trkpt lat="43.8525667" lon="12.6557183"><ele>362.0</ele><time>2026-04-04T12:11:54.687Z</time></trkpt><trkpt lat="43.8525267" lon="12.6555917"><ele>359.3333333333333</ele><time>2026-04-04T12:11:56.688Z</time></trkpt><trkpt lat="43.852505" lon="12.6555083"><ele>356.6666666666667</ele><time>2026-04-04T12:11:57.686Z</time></trkpt><trkpt lat="43.8524767" lon="12.655425"><ele>354.0</ele><time>2026-04-04T12:11:58.689Z</time></trkpt><trkpt lat="43.8524533" lon="12.65534"><ele>354.1666666666667</ele><time>2026-04-04T12:11:59.686Z</time></trkpt><trkpt lat="43.8524333" lon="12.6552483"><ele>354.3333333333333</ele><time>2026-04-04T12:12:00.689Z</time></trkpt><trkpt lat="43.8524133" lon="12.6551517"><ele>354.5</ele><time>2026-04-04T12:12:01.688Z</time></trkpt><trkpt lat="43.8523933" lon="12.655065"><ele>354.66666666666663</ele><time>2026-04-04T12:12:02.686Z</time></trkpt><trkpt lat="43.8523683" lon="12.65492"><ele>354.8333333333333</ele><time>2026-04-04T12:12:04.688Z</time></trkpt><trkpt lat="43.8523783" lon="12.6548067"><ele>355.0</ele><time>2026-04-04T12:12:06.688Z</time></trkpt><trkpt lat="43.8524383" lon="12.6547317"><ele>355.0</ele><time>2026-04-04T12:12:08.686Z</time></trkpt><trkpt lat="43.8525083" lon="12.6546683"><ele>355.0</ele><time>2026-04-04T12:12:10.689Z</time></trkpt><trkpt lat="43.8525783" lon="12.6546317"><ele>355.0</ele><time>2026-04-04T12:12:14.689Z</time></trkpt><trkpt lat="43.8526667" lon="12.6546217"><ele>355.0</ele><time>2026-04-04T12:12:31.689Z</time></trkpt><trkpt lat="43.8527383" lon="12.6546183"><ele>355.0</ele><time>2026-04-04T12:12:33.687Z</time></trkpt><trkpt lat="43.852815" lon="12.6546117"><ele>355.0</ele><time>2026-04-04T12:12:35.686Z</time></trkpt><trkpt lat="43.8528933" lon="12.65461"><ele>355.0</ele><time>2026-04-04T12:12:37.689Z</time></trkpt><trkpt lat="43.8529617" lon="12.6545767"><ele>355.0</ele><time>2026-04-04T12:12:39.687Z</time></trkpt><trkpt lat="43.8530217" lon="12.6545417"><ele>355.0</ele><time>2026-04-04T12:12:41.689Z</time></trkpt><trkpt lat="43.8530883" lon="12.6544817"><ele>355.0</ele><time>2026-04-04T12:12:45.686Z</time></trkpt><trkpt lat="43.8531367" lon="12.65437"><ele>355.0</ele><time>2026-04-04T12:12:48.687Z</time></trkpt><trkpt lat="43.8531833" lon="12.65429"><ele>355.0</ele><time>2026-04-04T12:12:50.687Z</time></trkpt><trkpt lat="43.853225" lon="12.65421"><ele>355.0</ele><time>2026-04-04T12:12:52.688Z</time></trkpt><trkpt lat="43.8532583" lon="12.65412"><ele>355.0</ele><time>2026-04-04T12:12:54.689Z</time></trkpt><trkpt lat="43.8532617" lon="12.65402"><ele>355.0</ele><time>2026-04-04T12:12:56.687Z</time></trkpt><trkpt lat="43.853265" lon="12.653905"><ele>355.0</ele><time>2026-04-04T12:12:59.69Z</time></trkpt><trkpt lat="43.8533017" lon="12.6538233"><ele>355.0</ele><time>2026-04-04T12:13:02.687Z</time></trkpt><trkpt lat="43.8532733" lon="12.6539467"><ele>355.0</ele><time>2026-04-04T12:18:36.686Z</time></trkpt><trkpt lat="43.8532617" lon="12.65405"><ele>355.0</ele><time>2026-04-04T12:18:38.687Z</time></trkpt><trkpt lat="43.853235" lon="12.6541667"><ele>355.0</ele><time>2026-04-04T12:18:40.687Z</time></trkpt><trkpt lat="43.8531767" lon="12.654285"><ele>355.0</ele><time>2026-04-04T12:18:42.688Z</time></trkpt><trkpt lat="43.85312" lon="12.6544117"><ele>355.0</ele><time>2026-04-04T12:18:44.686Z</time></trkpt><trkpt lat="43.853075" lon="12.6544783"><ele>355.0</ele><time>2026-04-04T12:18:46.687Z</time></trkpt><trkpt lat="43.853015" lon="12.6545233"><ele>355.0</ele><time>2026-04-04T12:18:49.688Z</time></trkpt><trkpt lat="43.852925" lon="12.6545567"><ele>355.0</ele><time>2026-04-04T12:18:52.686Z</time></trkpt><trkpt lat="43.8528517" lon="12.6545833"><ele>355.0</ele><time>2026-04-04T12:18:54.686Z</time></trkpt><trkpt lat="43.85276" lon="12.6545917"><ele>355.0</ele><time>2026-04-04T12:18:56.686Z</time></trkpt><trkpt lat="43.8526533" lon="12.6546067"><ele>355.0</ele><time>2026-04-04T12:18:58.686Z</time></trkpt><trkpt lat="43.852565" lon="12.6546383"><ele>355.0</ele><time>2026-04-04T12:19:00.686Z</time></trkpt><trkpt lat="43.8524617" lon="12.654695"><ele>355.0</ele><time>2026-04-04T12:19:02.688Z</time></trkpt><trkpt lat="43.852385" lon="12.6547783"><ele>355.0</ele><time>2026-04-04T12:19:04.688Z</time></trkpt><trkpt lat="43.852355" lon="12.6548883"><ele>355.0</ele><time>2026-04-04T12:19:06.688Z</time></trkpt><trkpt lat="43.85237" lon="12.6550317"><ele>355.0</ele><time>2026-04-04T12:19:08.686Z</time></trkpt><trkpt lat="43.8524017" lon="12.6551817"><ele>355.0</ele><time>2026-04-04T12:19:10.686Z</time></trkpt><trkpt lat="43.8524367" lon="12.6553383"><ele>354.8333333333333</ele><time>2026-04-04T12:19:12.688Z</time></trkpt><trkpt lat="43.8524783" lon="12.65546"><ele>354.66666666666663</ele><time>2026-04-04T12:19:14.688Z</time></trkpt><trkpt lat="43.85252" lon="12.6555567"><ele>354.5</ele><time>2026-04-04T12:19:16.687Z</time></trkpt><trkpt lat="43.8525583" lon="12.6556633"><ele>354.3333333333333</ele><time>2026-04-04T12:19:32.687Z</time></trkpt><trkpt lat="43.8526083" lon="12.6557367"><ele>354.1666666666667</ele><time>2026-04-04T12:19:34.687Z</time></trkpt><trkpt lat="43.8526867" lon="12.6558417"><ele>354.0</ele><time>2026-04-04T12:19:36.687Z</time></trkpt><trkpt lat="43.852775" lon="12.6559283"><ele>353.4</ele><time>2026-04-04T12:19:37.689Z</time></trkpt><trkpt lat="43.8528617" lon="12.65601"><ele>352.79999999999995</ele><time>2026-04-04T12:19:38.687Z</time></trkpt><trkpt lat="43.85295" lon="12.6560783"><ele>352.20000000000005</ele><time>2026-04-04T12:19:39.688Z</time></trkpt><trkpt lat="43.8530367" lon="12.6561383"><ele>351.6</ele><time>2026-04-04T12:19:40.686Z</time></trkpt><trkpt lat="43.8531217" lon="12.6561833"><ele>351.0</ele><time>2026-04-04T12:19:41.689Z</time></trkpt><trkpt lat="43.8532083" lon="12.6562083"><ele>351.0</ele><time>2026-04-04T12:19:42.686Z</time></trkpt><trkpt lat="43.8533083" lon="12.6562333"><ele>351.0</ele><time>2026-04-04T12:19:43.69Z</time></trkpt><trkpt lat="43.8534117" lon="12.6562417"><ele>351.0</ele><time>2026-04-04T12:19:44.687Z</time></trkpt><trkpt lat="43.8535133" lon="12.656255"><ele>351.0</ele><time>2026-04-04T12:19:45.687Z</time></trkpt><trkpt lat="43.8536067" lon="12.6562533"><ele>351.0</ele><time>2026-04-04T12:19:46.687Z</time></trkpt><trkpt lat="43.853695" lon="12.6562483"><ele>353.3333333333333</ele><time>2026-04-04T12:19:47.687Z</time></trkpt><trkpt lat="43.8537783" lon="12.6562367"><ele>355.6666666666667</ele><time>2026-04-04T12:19:48.686Z</time></trkpt><trkpt lat="43.8538583" lon="12.656215"><ele>358.0</ele><time>2026-04-04T12:19:49.688Z</time></trkpt><trkpt lat="43.8539367" lon="12.6561867"><ele>360.33333333333337</ele><time>2026-04-04T12:19:50.688Z</time></trkpt><trkpt lat="43.8540067" lon="12.6561567"><ele>362.6666666666667</ele><time>2026-04-04T12:19:51.687Z</time></trkpt><trkpt lat="43.8540783" lon="12.6561517"><ele>365.0</ele><time>2026-04-04T12:19:52.687Z</time></trkpt><trkpt lat="43.8541467" lon="12.6561767"><ele>365.0</ele><time>2026-04-04T12:19:53.689Z</time></trkpt><trkpt lat="43.85421" lon="12.6562233"><ele>365.0</ele><time>2026-04-04T12:19:54.688Z</time></trkpt><trkpt lat="43.854265" lon="12.65629"><ele>365.0</ele><time>2026-04-04T12:19:55.691Z</time></trkpt><trkpt lat="43.8543083" lon="12.6563717"><ele>365.0</ele><time>2026-04-04T12:19:56.689Z</time></trkpt><trkpt lat="43.85436" lon="12.65646"><ele>365.0</ele><time>2026-04-04T12:19:57.687Z</time></trkpt><trkpt lat="43.8544267" lon="12.6565433"><ele>365.0</ele><time>2026-04-04T12:19:58.687Z</time></trkpt><trkpt lat="43.854505" lon="12.656615"><ele>368.75</ele><time>2026-04-04T12:19:59.689Z</time></trkpt><trkpt lat="43.8546" lon="12.65668"><ele>372.5</ele><time>2026-04-04T12:20:00.688Z</time></trkpt><trkpt lat="43.8547033" lon="12.65674"><ele>376.25</ele><time>2026-04-04T12:20:01.691Z</time></trkpt><trkpt lat="43.85481" lon="12.6567983"><ele>380.0</ele><time>2026-04-04T12:20:02.689Z</time></trkpt><trkpt lat="43.8549217" lon="12.656855"><ele>380.0</ele><time>2026-04-04T12:20:03.687Z</time></trkpt><trkpt lat="43.8550367" lon="12.6569183"><ele>380.0</ele><time>2026-04-04T12:20:04.687Z</time></trkpt><trkpt lat="43.8551533" lon="12.6569783"><ele>380.0</ele><time>2026-04-04T12:20:05.687Z</time></trkpt><trkpt lat="43.8552667" lon="12.6570383"><ele>380.0</ele><time>2026-04-04T12:20:06.687Z</time></trkpt><trkpt lat="43.8553833" lon="12.6570917"><ele>380.2</ele><time>2026-04-04T12:20:07.691Z</time></trkpt><trkpt lat="43.8554933" lon="12.6571433"><ele>380.4</ele><time>2026-04-04T12:20:08.689Z</time></trkpt><trkpt lat="43.855595" lon="12.6572017"><ele>380.6</ele><time>2026-04-04T12:20:09.686Z</time></trkpt><trkpt lat="43.8556883" lon="12.6572717"><ele>380.8</ele><time>2026-04-04T12:20:10.686Z</time></trkpt><trkpt lat="43.8557817" lon="12.65733"><ele>381.0</ele><time>2026-04-04T12:20:11.69Z</time></trkpt><trkpt lat="43.855875" lon="12.6573867"><ele>383.0</ele><time>2026-04-04T12:20:12.686Z</time></trkpt><trkpt lat="43.8559733" lon="12.657445"><ele>385.0</ele><time>2026-04-04T12:20:13.692Z</time></trkpt><trkpt lat="43.856075" lon="12.657515"><ele>387.0</ele><time>2026-04-04T12:20:14.688Z</time></trkpt><trkpt lat="43.8561683" lon="12.6575917"><ele>389.0</ele><time>2026-04-04T12:20:15.687Z</time></trkpt><trkpt lat="43.85626" lon="12.6576667"><ele>391.0</ele><time>2026-04-04T12:20:16.689Z</time></trkpt><trkpt lat="43.8563483" lon="12.6577283"><ele>391.00000000000006</ele><time>2026-04-04T12:20:17.685Z</time></trkpt><trkpt lat="43.8564383" lon="12.6577783"><ele>391.0</ele><time>2026-04-04T12:20:18.687Z</time></trkpt><trkpt lat="43.8565233" lon="12.657825"><ele>391.0</ele><time>2026-04-04T12:20:19.689Z</time></trkpt><trkpt lat="43.856595" lon="12.6578683"><ele>391.0</ele><time>2026-04-04T12:20:20.685Z</time></trkpt><trkpt lat="43.8566567" lon="12.6578983"><ele>391.00000000000006</ele><time>2026-04-04T12:20:21.687Z</time></trkpt><trkpt lat="43.856745" lon="12.6579067"><ele>391.0</ele><time>2026-04-04T12:20:23.687Z</time></trkpt><trkpt lat="43.8568033" lon="12.65785"><ele>388.50000000000006</ele><time>2026-04-04T12:20:25.689Z</time></trkpt><trkpt lat="43.8568767" lon="12.6577283"><ele>386.0</ele><time>2026-04-04T12:20:27.69Z</time></trkpt><trkpt lat="43.8569233" lon="12.657665"><ele>383.5</ele><time>2026-04-04T12:20:28.686Z</time></trkpt><trkpt lat="43.857005" lon="12.6575717"><ele>381.0</ele><time>2026-04-04T12:20:30.688Z</time></trkpt><trkpt lat="43.8570733" lon="12.6574833"><ele>378.5</ele><time>2026-04-04T12:20:32.689Z</time></trkpt><trkpt lat="43.857115" lon="12.6574117"><ele>376.0</ele><time>2026-04-04T12:20:33.689Z</time></trkpt><trkpt lat="43.857165" lon="12.6573117"><ele>376.0</ele><time>2026-04-04T12:20:34.688Z</time></trkpt><trkpt lat="43.857215" lon="12.6571983"><ele>376.0</ele><time>2026-04-04T12:20:35.689Z</time></trkpt><trkpt lat="43.8572617" lon="12.65707"><ele>376.0</ele><time>2026-04-04T12:20:36.687Z</time></trkpt><trkpt lat="43.8572883" lon="12.6569467"><ele>376.0</ele><time>2026-04-04T12:20:37.69Z</time></trkpt><trkpt lat="43.8573" lon="12.65683"><ele>376.0</ele><time>2026-04-04T12:20:38.689Z</time></trkpt><trkpt lat="43.85728" lon="12.6567167"><ele>374.25</ele><time>2026-04-04T12:20:39.688Z</time></trkpt><trkpt lat="43.8572167" lon="12.65661"><ele>372.5</ele><time>2026-04-04T12:20:40.687Z</time></trkpt><trkpt lat="43.8571133" lon="12.6565233"><ele>370.75</ele><time>2026-04-04T12:20:41.69Z</time></trkpt><trkpt lat="43.8570183" lon="12.6564383"><ele>369.0</ele><time>2026-04-04T12:20:42.687Z</time></trkpt><trkpt lat="43.8569117" lon="12.6563367"><ele>369.0</ele><time>2026-04-04T12:20:43.69Z</time></trkpt><trkpt lat="43.8568317" lon="12.65621"><ele>369.0</ele><time>2026-04-04T12:20:44.688Z</time></trkpt><trkpt lat="43.856775" lon="12.6560533"><ele>369.0</ele><time>2026-04-04T12:20:45.688Z</time></trkpt><trkpt lat="43.8567367" lon="12.65588"><ele>369.0</ele><time>2026-04-04T12:20:46.686Z</time></trkpt><trkpt lat="43.85672" lon="12.6557"><ele>371.25</ele><time>2026-04-04T12:20:47.688Z</time></trkpt><trkpt lat="43.85671" lon="12.6555267"><ele>373.5</ele><time>2026-04-04T12:20:48.689Z</time></trkpt><trkpt lat="43.8567033" lon="12.6553633"><ele>375.75</ele><time>2026-04-04T12:20:49.69Z</time></trkpt><trkpt lat="43.8566883" lon="12.6552117"><ele>378.0</ele><time>2026-04-04T12:20:50.688Z</time></trkpt><trkpt lat="43.8566567" lon="12.65508"><ele>378.0</ele><time>2026-04-04T12:20:51.687Z</time></trkpt><trkpt lat="43.8566033" lon="12.6549667"><ele>378.0</ele><time>2026-04-04T12:20:52.687Z</time></trkpt><trkpt lat="43.8565267" lon="12.6548683"><ele>378.0</ele><time>2026-04-04T12:20:53.687Z</time></trkpt><trkpt lat="43.8564083" lon="12.6547933"><ele>378.0</ele><time>2026-04-04T12:20:54.689Z</time></trkpt><trkpt lat="43.8562667" lon="12.6547367"><ele>378.0</ele><time>2026-04-04T12:20:55.69Z</time></trkpt><trkpt lat="43.8561333" lon="12.6546733"><ele>378.0</ele><time>2026-04-04T12:20:56.689Z</time></trkpt><trkpt lat="43.856015" lon="12.6545833"><ele>378.0</ele><time>2026-04-04T12:20:57.689Z</time></trkpt><trkpt lat="43.8559117" lon="12.6544633"><ele>378.0</ele><time>2026-04-04T12:20:58.689Z</time></trkpt><trkpt lat="43.8558183" lon="12.654335"><ele>377.5</ele><time>2026-04-04T12:20:59.689Z</time></trkpt><trkpt lat="43.8557383" lon="12.6541983"><ele>377.0</ele><time>2026-04-04T12:21:00.688Z</time></trkpt><trkpt lat="43.8556717" lon="12.6540567"><ele>376.5</ele><time>2026-04-04T12:21:01.688Z</time></trkpt><trkpt lat="43.85562" lon="12.6539133"><ele>376.0</ele><time>2026-04-04T12:21:02.689Z</time></trkpt><trkpt lat="43.85559" lon="12.6537583"><ele>373.75</ele><time>2026-04-04T12:21:03.688Z</time></trkpt><trkpt lat="43.85558" lon="12.6535883"><ele>371.5</ele><time>2026-04-04T12:21:04.69Z</time></trkpt><trkpt lat="43.8555783" lon="12.65341"><ele>369.25</ele><time>2026-04-04T12:21:05.689Z</time></trkpt><trkpt lat="43.8555783" lon="12.653225"><ele>367.0</ele><time>2026-04-04T12:21:06.689Z</time></trkpt><trkpt lat="43.8555783" lon="12.6530467"><ele>367.0</ele><time>2026-04-04T12:21:07.69Z</time></trkpt><trkpt lat="43.855585" lon="12.652875"><ele>367.0</ele><time>2026-04-04T12:21:08.689Z</time></trkpt><trkpt lat="43.8555933" lon="12.6527133"><ele>367.0</ele><time>2026-04-04T12:21:09.689Z</time></trkpt><trkpt lat="43.855605" lon="12.65256"><ele>367.0</ele><time>2026-04-04T12:21:10.688Z</time></trkpt><trkpt lat="43.8556167" lon="12.6524217"><ele>366.0</ele><time>2026-04-04T12:21:11.689Z</time></trkpt><trkpt lat="43.8556267" lon="12.652305"><ele>365.0</ele><time>2026-04-04T12:21:12.689Z</time></trkpt><trkpt lat="43.8556367" lon="12.6522067"><ele>364.0</ele><time>2026-04-04T12:21:13.691Z</time></trkpt><trkpt lat="43.8556467" lon="12.6520517"><ele>363.0</ele><time>2026-04-04T12:21:15.687Z</time></trkpt><trkpt lat="43.855615" lon="12.6518983"><ele>362.0</ele><time>2026-04-04T12:21:17.69Z</time></trkpt><trkpt lat="43.855585" lon="12.6518017"><ele>362.0</ele><time>2026-04-04T12:21:18.689Z</time></trkpt><trkpt lat="43.8555717" lon="12.6516933"><ele>362.0</ele><time>2026-04-04T12:21:19.688Z</time></trkpt><trkpt lat="43.8555683" lon="12.651565"><ele>362.0</ele><time>2026-04-04T12:21:20.689Z</time></trkpt><trkpt lat="43.8555517" lon="12.6514283"><ele>362.0</ele><time>2026-04-04T12:21:21.689Z</time></trkpt><trkpt lat="43.8555333" lon="12.6512933"><ele>362.0</ele><time>2026-04-04T12:21:22.689Z</time></trkpt><trkpt lat="43.85551" lon="12.6511633"><ele>361.8</ele><time>2026-04-04T12:21:23.687Z</time></trkpt><trkpt lat="43.8554883" lon="12.6510283"><ele>361.6</ele><time>2026-04-04T12:21:24.688Z</time></trkpt><trkpt lat="43.8554617" lon="12.6508867"><ele>361.40000000000003</ele><time>2026-04-04T12:21:25.689Z</time></trkpt><trkpt lat="43.8554367" lon="12.6507333"><ele>361.20000000000005</ele><time>2026-04-04T12:21:26.688Z</time></trkpt><trkpt lat="43.85541" lon="12.650585"><ele>361.0</ele><time>2026-04-04T12:21:27.688Z</time></trkpt><trkpt lat="43.85538" lon="12.65044"><ele>361.0</ele><time>2026-04-04T12:21:28.689Z</time></trkpt><trkpt lat="43.8553433" lon="12.6502833"><ele>361.0</ele><time>2026-04-04T12:21:29.685Z</time></trkpt><trkpt lat="43.855305" lon="12.6501267"><ele>361.0</ele><time>2026-04-04T12:21:30.687Z</time></trkpt><trkpt lat="43.8552717" lon="12.6499717"><ele>361.0</ele><time>2026-04-04T12:21:31.689Z</time></trkpt><trkpt lat="43.8552483" lon="12.6498167"><ele>361.0</ele><time>2026-04-04T12:21:32.689Z</time></trkpt><trkpt lat="43.855225" lon="12.649665"><ele>361.0</ele><time>2026-04-04T12:21:33.688Z</time></trkpt><trkpt lat="43.8551967" lon="12.6495217"><ele>361.0</ele><time>2026-04-04T12:21:34.688Z</time></trkpt><trkpt lat="43.8551567" lon="12.6493933"><ele>361.0</ele><time>2026-04-04T12:21:35.689Z</time></trkpt><trkpt lat="43.855105" lon="12.6492683"><ele>361.0</ele><time>2026-04-04T12:21:36.689Z</time></trkpt><trkpt lat="43.8550417" lon="12.6491517"><ele>357.5</ele><time>2026-04-04T12:21:37.688Z</time></trkpt><trkpt lat="43.85498" lon="12.6490367"><ele>354.0</ele><time>2026-04-04T12:21:38.689Z</time></trkpt><trkpt lat="43.85492" lon="12.6489367"><ele>350.5</ele><time>2026-04-04T12:21:39.689Z</time></trkpt><trkpt lat="43.8548617" lon="12.6488467"><ele>347.0</ele><time>2026-04-04T12:21:40.688Z</time></trkpt><trkpt lat="43.8548117" lon="12.6487633"><ele>343.5</ele><time>2026-04-04T12:21:41.691Z</time></trkpt><trkpt lat="43.8547667" lon="12.6486833"><ele>340.0</ele><time>2026-04-04T12:21:42.689Z</time></trkpt><trkpt lat="43.8547217" lon="12.6486017"><ele>339.2</ele><time>2026-04-04T12:21:43.69Z</time></trkpt><trkpt lat="43.8546817" lon="12.648515"><ele>338.4</ele><time>2026-04-04T12:21:44.692Z</time></trkpt><trkpt lat="43.8546383" lon="12.6483983"><ele>337.6</ele><time>2026-04-04T12:21:46.689Z</time></trkpt><trkpt lat="43.854665" lon="12.648265"><ele>336.8</ele><time>2026-04-04T12:22:23.691Z</time></trkpt><trkpt lat="43.8547717" lon="12.64816"><ele>336.0</ele><time>2026-04-04T12:22:25.691Z</time></trkpt><trkpt lat="43.8548567" lon="12.6480883"><ele>336.0</ele><time>2026-04-04T12:22:26.689Z</time></trkpt><trkpt lat="43.8549467" lon="12.647975"><ele>336.0</ele><time>2026-04-04T12:22:27.687Z</time></trkpt><trkpt lat="43.85507" lon="12.6478217"><ele>336.0</ele><time>2026-04-04T12:22:28.689Z</time></trkpt><trkpt lat="43.85517" lon="12.647665"><ele>336.0</ele><time>2026-04-04T12:22:29.688Z</time></trkpt><trkpt lat="43.85525" lon="12.6474867"><ele>336.0</ele><time>2026-04-04T12:22:30.689Z</time></trkpt><trkpt lat="43.8552933" lon="12.6473017"><ele>336.0</ele><time>2026-04-04T12:22:31.691Z</time></trkpt><trkpt lat="43.8553017" lon="12.6471167"><ele>336.0</ele><time>2026-04-04T12:22:32.69Z</time></trkpt><trkpt lat="43.8552967" lon="12.6469417"><ele>336.0</ele><time>2026-04-04T12:22:33.688Z</time></trkpt><trkpt lat="43.8552883" lon="12.64679"><ele>334.75</ele><time>2026-04-04T12:22:34.686Z</time></trkpt><trkpt lat="43.855295" lon="12.6466417"><ele>333.5</ele><time>2026-04-04T12:22:35.688Z</time></trkpt><trkpt lat="43.8553183" lon="12.646495"><ele>332.25</ele><time>2026-04-04T12:22:36.688Z</time></trkpt><trkpt lat="43.8553717" lon="12.6463483"><ele>331.0</ele><time>2026-04-04T12:22:37.687Z</time></trkpt><trkpt lat="43.8554333" lon="12.6461933"><ele>327.75</ele><time>2026-04-04T12:22:38.688Z</time></trkpt><trkpt lat="43.8555117" lon="12.6460367"><ele>324.5</ele><time>2026-04-04T12:22:39.688Z</time></trkpt><trkpt lat="43.8555917" lon="12.645895"><ele>321.25</ele><time>2026-04-04T12:22:40.688Z</time></trkpt><trkpt lat="43.8556567" lon="12.6457417"><ele>318.0</ele><time>2026-04-04T12:22:41.688Z</time></trkpt><trkpt lat="43.85569" lon="12.6455867"><ele>318.0</ele><time>2026-04-04T12:22:42.688Z</time></trkpt><trkpt lat="43.85569" lon="12.6454233"><ele>318.0</ele><time>2026-04-04T12:22:43.687Z</time></trkpt><trkpt lat="43.85566" lon="12.6452767"><ele>318.0</ele><time>2026-04-04T12:22:44.687Z</time></trkpt><trkpt lat="43.8555967" lon="12.6451583"><ele>318.0</ele><time>2026-04-04T12:22:45.688Z</time></trkpt><trkpt lat="43.8555183" lon="12.64506"><ele>318.0</ele><time>2026-04-04T12:22:46.687Z</time></trkpt><trkpt lat="43.8554367" lon="12.64498"><ele>318.4</ele><time>2026-04-04T12:22:47.687Z</time></trkpt><trkpt lat="43.8553433" lon="12.64492"><ele>318.8</ele><time>2026-04-04T12:22:48.687Z</time></trkpt><trkpt lat="43.855235" lon="12.6448683"><ele>319.2</ele><time>2026-04-04T12:22:49.689Z</time></trkpt><trkpt lat="43.85513" lon="12.6448033"><ele>319.6</ele><time>2026-04-04T12:22:50.686Z</time></trkpt><trkpt lat="43.8550283" lon="12.6447233"><ele>320.0</ele><time>2026-04-04T12:22:51.687Z</time></trkpt><trkpt lat="43.85492" lon="12.6446383"><ele>318.25</ele><time>2026-04-04T12:22:52.688Z</time></trkpt><trkpt lat="43.8548083" lon="12.64455"><ele>316.5</ele><time>2026-04-04T12:22:53.69Z</time></trkpt><trkpt lat="43.8546967" lon="12.644465"><ele>314.75</ele><time>2026-04-04T12:22:54.687Z</time></trkpt><trkpt lat="43.8545883" lon="12.6443783"><ele>313.0</ele><time>2026-04-04T12:22:55.688Z</time></trkpt><trkpt lat="43.8544867" lon="12.644285"><ele>313.0</ele><time>2026-04-04T12:22:56.688Z</time></trkpt><trkpt lat="43.8543867" lon="12.6441983"><ele>313.0</ele><time>2026-04-04T12:22:57.688Z</time></trkpt><trkpt lat="43.854295" lon="12.6441083"><ele>313.0</ele><time>2026-04-04T12:22:58.689Z</time></trkpt><trkpt lat="43.8542167" lon="12.6440083"><ele>313.0</ele><time>2026-04-04T12:22:59.685Z</time></trkpt><trkpt lat="43.854145" lon="12.6439233"><ele>313.0</ele><time>2026-04-04T12:23:00.688Z</time></trkpt><trkpt lat="43.8540767" lon="12.6438667"><ele>307.6</ele><time>2026-04-04T12:23:01.687Z</time></trkpt><trkpt lat="43.8539983" lon="12.6438367"><ele>302.20000000000005</ele><time>2026-04-04T12:23:02.685Z</time></trkpt><trkpt lat="43.8539183" lon="12.643815"><ele>296.8</ele><time>2026-04-04T12:23:03.687Z</time></trkpt><trkpt lat="43.8538183" lon="12.6438217"><ele>291.40000000000003</ele><time>2026-04-04T12:23:04.687Z</time></trkpt><trkpt lat="43.853705" lon="12.6438383"><ele>286.0</ele><time>2026-04-04T12:23:05.69Z</time></trkpt><trkpt lat="43.8536217" lon="12.6438533"><ele>286.0</ele><time>2026-04-04T12:23:06.687Z</time></trkpt><trkpt lat="43.8535167" lon="12.6438517"><ele>286.0</ele><time>2026-04-04T12:23:07.689Z</time></trkpt><trkpt lat="43.85342" lon="12.6438267"><ele>286.0</ele><time>2026-04-04T12:23:08.687Z</time></trkpt><trkpt lat="43.853325" lon="12.6437783"><ele>286.0</ele><time>2026-04-04T12:23:09.688Z</time></trkpt><trkpt lat="43.8532283" lon="12.643715"><ele>286.0</ele><time>2026-04-04T12:23:10.689Z</time></trkpt><trkpt lat="43.8531283" lon="12.643645"><ele>284.8</ele><time>2026-04-04T12:23:11.688Z</time></trkpt><trkpt lat="43.8530283" lon="12.6435617"><ele>283.6</ele><time>2026-04-04T12:23:12.687Z</time></trkpt><trkpt lat="43.852935" lon="12.6434733"><ele>282.4</ele><time>2026-04-04T12:23:13.69Z</time></trkpt><trkpt lat="43.85285" lon="12.6433733"><ele>281.2</ele><time>2026-04-04T12:23:14.684Z</time></trkpt><trkpt lat="43.8527783" lon="12.6432617"><ele>280.0</ele><time>2026-04-04T12:23:15.686Z</time></trkpt><trkpt lat="43.8527183" lon="12.6431367"><ele>280.0</ele><time>2026-04-04T12:23:16.688Z</time></trkpt><trkpt lat="43.8526583" lon="12.64301"><ele>280.0</ele><time>2026-04-04T12:23:17.686Z</time></trkpt><trkpt lat="43.8525983" lon="12.64289"><ele>280.0</ele><time>2026-04-04T12:23:18.688Z</time></trkpt><trkpt lat="43.8525333" lon="12.6427817"><ele>280.0</ele><time>2026-04-04T12:23:19.689Z</time></trkpt><trkpt lat="43.85246" lon="12.642675"><ele>280.0</ele><time>2026-04-04T12:23:20.686Z</time></trkpt><trkpt lat="43.8523883" lon="12.6425667"><ele>277.8333333333333</ele><time>2026-04-04T12:23:21.687Z</time></trkpt><trkpt lat="43.8523217" lon="12.6424817"><ele>275.66666666666663</ele><time>2026-04-04T12:23:22.688Z</time></trkpt><trkpt lat="43.85225" lon="12.6424133"><ele>273.5</ele><time>2026-04-04T12:23:23.691Z</time></trkpt><trkpt lat="43.8521717" lon="12.6423633"><ele>271.3333333333333</ele><time>2026-04-04T12:23:24.689Z</time></trkpt><trkpt lat="43.852085" lon="12.6423367"><ele>269.1666666666667</ele><time>2026-04-04T12:23:25.688Z</time></trkpt><trkpt lat="43.8519983" lon="12.6423333"><ele>267.0</ele><time>2026-04-04T12:23:26.687Z</time></trkpt><trkpt lat="43.8519183" lon="12.642335"><ele>267.0</ele><time>2026-04-04T12:23:27.687Z</time></trkpt><trkpt lat="43.851845" lon="12.64233"><ele>267.0</ele><time>2026-04-04T12:23:28.687Z</time></trkpt><trkpt lat="43.8517233" lon="12.64226"><ele>267.0</ele><time>2026-04-04T12:23:30.689Z</time></trkpt><trkpt lat="43.851665" lon="12.6421967"><ele>267.0</ele><time>2026-04-04T12:23:31.688Z</time></trkpt><trkpt lat="43.8516" lon="12.64211"><ele>267.0</ele><time>2026-04-04T12:23:32.688Z</time></trkpt><trkpt lat="43.851525" lon="12.6420133"><ele>268.5</ele><time>2026-04-04T12:23:33.687Z</time></trkpt><trkpt lat="43.8514367" lon="12.6419067"><ele>270.0</ele><time>2026-04-04T12:23:34.686Z</time></trkpt><trkpt lat="43.851335" lon="12.6417983"><ele>271.5</ele><time>2026-04-04T12:23:35.686Z</time></trkpt><trkpt lat="43.8512383" lon="12.6416933"><ele>273.0</ele><time>2026-04-04T12:23:36.688Z</time></trkpt><trkpt lat="43.8511517" lon="12.641585"><ele>273.0</ele><time>2026-04-04T12:23:37.689Z</time></trkpt><trkpt lat="43.8510817" lon="12.6414717"><ele>273.0</ele><time>2026-04-04T12:23:38.684Z</time></trkpt><trkpt lat="43.8510317" lon="12.6413517"><ele>273.0</ele><time>2026-04-04T12:23:39.689Z</time></trkpt><trkpt lat="43.8509917" lon="12.6412217"><ele>273.0</ele><time>2026-04-04T12:23:40.687Z</time></trkpt><trkpt lat="43.8509633" lon="12.6410933"><ele>273.0</ele><time>2026-04-04T12:23:41.686Z</time></trkpt><trkpt lat="43.8509333" lon="12.6409767"><ele>271.2</ele><time>2026-04-04T12:23:42.686Z</time></trkpt><trkpt lat="43.85088" lon="12.64087"><ele>269.4</ele><time>2026-04-04T12:23:43.689Z</time></trkpt><trkpt lat="43.85082" lon="12.6407883"><ele>267.59999999999997</ele><time>2026-04-04T12:23:44.688Z</time></trkpt><trkpt lat="43.8507333" lon="12.64073"><ele>265.8</ele><time>2026-04-04T12:23:45.69Z</time></trkpt><trkpt lat="43.8506483" lon="12.6406783"><ele>264.0</ele><time>2026-04-04T12:23:46.688Z</time></trkpt><trkpt lat="43.850535" lon="12.640655"><ele>264.0</ele><time>2026-04-04T12:23:47.688Z</time></trkpt><trkpt lat="43.85043" lon="12.6406267"><ele>264.0</ele><time>2026-04-04T12:23:48.687Z</time></trkpt><trkpt lat="43.8503333" lon="12.6405967"><ele>264.0</ele><time>2026-04-04T12:23:49.688Z</time></trkpt><trkpt lat="43.8502483" lon="12.6405583"><ele>264.0</ele><time>2026-04-04T12:23:50.689Z</time></trkpt><trkpt lat="43.85018" lon="12.6405283"><ele>264.0</ele><time>2026-04-04T12:23:51.688Z</time></trkpt><trkpt lat="43.8500783" lon="12.6405"><ele>262.59999999999997</ele><time>2026-04-04T12:23:53.691Z</time></trkpt><trkpt lat="43.8499567" lon="12.6405583"><ele>261.2</ele><time>2026-04-04T12:23:55.69Z</time></trkpt><trkpt lat="43.8498817" lon="12.6406067"><ele>259.79999999999995</ele><time>2026-04-04T12:23:56.689Z</time></trkpt><trkpt lat="43.8497967" lon="12.64066"><ele>258.4</ele><time>2026-04-04T12:23:57.686Z</time></trkpt><trkpt lat="43.8497117" lon="12.6407233"><ele>257.0</ele><time>2026-04-04T12:23:58.688Z</time></trkpt><trkpt lat="43.849625" lon="12.6408"><ele>257.0</ele><time>2026-04-04T12:23:59.687Z</time></trkpt><trkpt lat="43.8495383" lon="12.6408933"><ele>257.0</ele><time>2026-04-04T12:24:00.686Z</time></trkpt><trkpt lat="43.8494617" lon="12.6410033"><ele>257.0</ele><time>2026-04-04T12:24:01.69Z</time></trkpt><trkpt lat="43.84939" lon="12.6411267"><ele>257.0</ele><time>2026-04-04T12:24:02.688Z</time></trkpt><trkpt lat="43.84932" lon="12.6412567"><ele>254.39999999999998</ele><time>2026-04-04T12:24:03.688Z</time></trkpt><trkpt lat="43.8492467" lon="12.641385"><ele>251.79999999999998</ele><time>2026-04-04T12:24:04.69Z</time></trkpt><trkpt lat="43.8491717" lon="12.641505"><ele>249.2</ele><time>2026-04-04T12:24:05.689Z</time></trkpt><trkpt lat="43.8490967" lon="12.6416117"><ele>246.6</ele><time>2026-04-04T12:24:06.686Z</time></trkpt><trkpt lat="43.849015" lon="12.641705"><ele>244.0</ele><time>2026-04-04T12:24:07.69Z</time></trkpt><trkpt lat="43.8489267" lon="12.6417967"><ele>244.0</ele><time>2026-04-04T12:24:08.687Z</time></trkpt><trkpt lat="43.8488383" lon="12.64188"><ele>243.99999999999997</ele><time>2026-04-04T12:24:09.687Z</time></trkpt><trkpt lat="43.8487533" lon="12.641955"><ele>243.99999999999997</ele><time>2026-04-04T12:24:10.687Z</time></trkpt><trkpt lat="43.8486717" lon="12.6420183"><ele>244.0</ele><time>2026-04-04T12:24:11.688Z</time></trkpt><trkpt lat="43.8485867" lon="12.6420683"><ele>244.0</ele><time>2026-04-04T12:24:12.688Z</time></trkpt><trkpt lat="43.8484983" lon="12.6421033"><ele>241.6</ele><time>2026-04-04T12:24:13.69Z</time></trkpt><trkpt lat="43.8484067" lon="12.6421233"><ele>239.2</ele><time>2026-04-04T12:24:14.687Z</time></trkpt><trkpt lat="43.8483167" lon="12.64214"><ele>236.79999999999998</ele><time>2026-04-04T12:24:15.689Z</time></trkpt><trkpt lat="43.84822" lon="12.6421683"><ele>234.39999999999998</ele><time>2026-04-04T12:24:16.69Z</time></trkpt><trkpt lat="43.8481267" lon="12.642215"><ele>232.0</ele><time>2026-04-04T12:24:17.689Z</time></trkpt><trkpt lat="43.848045" lon="12.642275"><ele>231.99999999999997</ele><time>2026-04-04T12:24:18.689Z</time></trkpt><trkpt lat="43.8479833" lon="12.6423467"><ele>232.0</ele><time>2026-04-04T12:24:19.689Z</time></trkpt><trkpt lat="43.8479417" lon="12.6424217"><ele>232.0</ele><time>2026-04-04T12:24:20.688Z</time></trkpt><trkpt lat="43.847915" lon="12.6425067"><ele>232.0</ele><time>2026-04-04T12:24:21.688Z</time></trkpt><trkpt lat="43.8479017" lon="12.642605"><ele>231.99999999999997</ele><time>2026-04-04T12:24:22.688Z</time></trkpt><trkpt lat="43.8479017" lon="12.6427183"><ele>232.0</ele><time>2026-04-04T12:24:23.686Z</time></trkpt><trkpt lat="43.84791" lon="12.6428383"><ele>230.99999999999997</ele><time>2026-04-04T12:24:24.689Z</time></trkpt><trkpt lat="43.8479133" lon="12.6429617"><ele>230.0</ele><time>2026-04-04T12:24:25.69Z</time></trkpt><trkpt lat="43.847885" lon="12.6430717"><ele>229.0</ele><time>2026-04-04T12:24:26.687Z</time></trkpt><trkpt lat="43.8478417" lon="12.643165"><ele>228.0</ele><time>2026-04-04T12:24:27.689Z</time></trkpt><trkpt lat="43.847785" lon="12.64324"><ele>226.99999999999997</ele><time>2026-04-04T12:24:28.688Z</time></trkpt><trkpt lat="43.8477183" lon="12.6432917"><ele>226.0</ele><time>2026-04-04T12:24:29.688Z</time></trkpt><trkpt lat="43.847635" lon="12.6432867"><ele>224.99999999999997</ele><time>2026-04-04T12:24:30.687Z</time></trkpt><trkpt lat="43.847545" lon="12.6432567"><ele>224.0</ele><time>2026-04-04T12:24:31.69Z</time></trkpt><trkpt lat="43.8474533" lon="12.6432283"><ele>223.0</ele><time>2026-04-04T12:24:32.687Z</time></trkpt><trkpt lat="43.84737" lon="12.6431933"><ele>222.0</ele><time>2026-04-04T12:24:33.689Z</time></trkpt><trkpt lat="43.84729" lon="12.64314"><ele>220.99999999999997</ele><time>2026-04-04T12:24:34.687Z</time></trkpt><trkpt lat="43.8472233" lon="12.6430767"><ele>220.0</ele><time>2026-04-04T12:24:35.688Z</time></trkpt><trkpt lat="43.8471733" lon="12.6429983"><ele>219.99999999999997</ele><time>2026-04-04T12:24:36.688Z</time></trkpt><trkpt lat="43.847145" lon="12.6429033"><ele>220.0</ele><time>2026-04-04T12:24:37.692Z</time></trkpt><trkpt lat="43.847135" lon="12.6427967"><ele>220.0</ele><time>2026-04-04T12:24:38.689Z</time></trkpt><trkpt lat="43.8471283" lon="12.6427083"><ele>220.0</ele><time>2026-04-04T12:24:39.687Z</time></trkpt><trkpt lat="43.847085" lon="12.64259"><ele>219.99999999999997</ele><time>2026-04-04T12:24:41.687Z</time></trkpt><trkpt lat="43.8470133" lon="12.64259"><ele>220.0</ele><time>2026-04-04T12:24:42.688Z</time></trkpt><trkpt lat="43.84692" lon="12.64262"><ele>219.5</ele><time>2026-04-04T12:24:43.69Z</time></trkpt><trkpt lat="43.8468133" lon="12.6426633"><ele>219.0</ele><time>2026-04-04T12:24:44.689Z</time></trkpt><trkpt lat="43.8466933" lon="12.642715"><ele>218.5</ele><time>2026-04-04T12:24:45.688Z</time></trkpt><trkpt lat="43.8465683" lon="12.6427633"><ele>218.0</ele><time>2026-04-04T12:24:46.689Z</time></trkpt><trkpt lat="43.8464517" lon="12.6428083"><ele>214.0</ele><time>2026-04-04T12:24:47.688Z</time></trkpt><trkpt lat="43.8463333" lon="12.6428533"><ele>210.0</ele><time>2026-04-04T12:24:48.688Z</time></trkpt><trkpt lat="43.846225" lon="12.6429083"><ele>206.0</ele><time>2026-04-04T12:24:49.69Z</time></trkpt><trkpt lat="43.8461217" lon="12.6429667"><ele>202.0</ele><time>2026-04-04T12:24:50.688Z</time></trkpt><trkpt lat="43.8460183" lon="12.64301"><ele>198.39999999999998</ele><time>2026-04-04T12:24:51.687Z</time></trkpt><trkpt lat="43.8459183" lon="12.643025"><ele>194.79999999999998</ele><time>2026-04-04T12:24:52.688Z</time></trkpt><trkpt lat="43.8458283" lon="12.643005"><ele>191.2</ele><time>2026-04-04T12:24:53.688Z</time></trkpt><trkpt lat="43.845745" lon="12.6429417"><ele>187.6</ele><time>2026-04-04T12:24:54.688Z</time></trkpt><trkpt lat="43.8456817" lon="12.642845"><ele>184.0</ele><time>2026-04-04T12:24:55.69Z</time></trkpt><trkpt lat="43.845635" lon="12.6427233"><ele>183.66666666666669</ele><time>2026-04-04T12:24:56.688Z</time></trkpt><trkpt lat="43.8455983" lon="12.6426"><ele>183.33333333333334</ele><time>2026-04-04T12:24:57.687Z</time></trkpt><trkpt lat="43.8455617" lon="12.6424967"><ele>183.0</ele><time>2026-04-04T12:24:58.687Z</time></trkpt><trkpt lat="43.8455133" lon="12.6424117"><ele>182.66666666666666</ele><time>2026-04-04T12:24:59.687Z</time></trkpt><trkpt lat="43.8454533" lon="12.6423533"><ele>182.33333333333331</ele><time>2026-04-04T12:25:00.687Z</time></trkpt><trkpt lat="43.8453883" lon="12.64232"><ele>182.0</ele><time>2026-04-04T12:25:01.69Z</time></trkpt><trkpt lat="43.84531" lon="12.6423367"><ele>182.0</ele><time>2026-04-04T12:25:02.688Z</time></trkpt><trkpt lat="43.8452333" lon="12.6423817"><ele>182.0</ele><time>2026-04-04T12:25:03.688Z</time></trkpt><trkpt lat="43.8451383" lon="12.6424683"><ele>182.0</ele><time>2026-04-04T12:25:04.688Z</time></trkpt><trkpt lat="43.8450433" lon="12.6425433"><ele>182.0</ele><time>2026-04-04T12:25:05.688Z</time></trkpt><trkpt lat="43.84494" lon="12.6425833"><ele>182.0</ele><time>2026-04-04T12:25:06.688Z</time></trkpt><trkpt lat="43.8448283" lon="12.6425733"><ele>178.5</ele><time>2026-04-04T12:25:07.689Z</time></trkpt><trkpt lat="43.8447183" lon="12.6425217"><ele>175.0</ele><time>2026-04-04T12:25:08.688Z</time></trkpt><trkpt lat="43.8445967" lon="12.6424533"><ele>171.5</ele><time>2026-04-04T12:25:09.689Z</time></trkpt><trkpt lat="43.84447" lon="12.6423733"><ele>168.0</ele><time>2026-04-04T12:25:10.688Z</time></trkpt><trkpt lat="43.84434" lon="12.6422867"><ele>164.25</ele><time>2026-04-04T12:25:11.688Z</time></trkpt><trkpt lat="43.8442117" lon="12.642195"><ele>160.5</ele><time>2026-04-04T12:25:12.688Z</time></trkpt><trkpt lat="43.8440833" lon="12.64211"><ele>156.75</ele><time>2026-04-04T12:25:13.691Z</time></trkpt><trkpt lat="43.84395" lon="12.6420333"><ele>153.0</ele><time>2026-04-04T12:25:14.688Z</time></trkpt><trkpt lat="43.84382" lon="12.6419617"><ele>151.25</ele><time>2026-04-04T12:25:15.689Z</time></trkpt><trkpt lat="43.8436833" lon="12.6418883"><ele>149.5</ele><time>2026-04-04T12:25:16.686Z</time></trkpt><trkpt lat="43.8435483" lon="12.641815"><ele>147.75</ele><time>2026-04-04T12:25:17.687Z</time></trkpt><trkpt lat="43.8434117" lon="12.6417433"><ele>146.0</ele><time>2026-04-04T12:25:18.687Z</time></trkpt><trkpt lat="43.8432783" lon="12.6416683"><ele>144.25</ele><time>2026-04-04T12:25:19.688Z</time></trkpt><trkpt lat="43.84315" lon="12.6415883"><ele>142.5</ele><time>2026-04-04T12:25:20.687Z</time></trkpt><trkpt lat="43.8430233" lon="12.6414967"><ele>140.75</ele><time>2026-04-04T12:25:21.686Z</time></trkpt><trkpt lat="43.8429033" lon="12.6414033"><ele>139.0</ele><time>2026-04-04T12:25:22.688Z</time></trkpt><trkpt lat="43.8427867" lon="12.6413067"><ele>139.0</ele><time>2026-04-04T12:25:23.69Z</time></trkpt><trkpt lat="43.8426767" lon="12.6412017"><ele>139.0</ele><time>2026-04-04T12:25:24.688Z</time></trkpt><trkpt lat="43.8425767" lon="12.6410883"><ele>139.0</ele><time>2026-04-04T12:25:25.689Z</time></trkpt><trkpt lat="43.842485" lon="12.6409667"><ele>139.0</ele><time>2026-04-04T12:25:26.689Z</time></trkpt><trkpt lat="43.8424067" lon="12.640835"><ele>136.0</ele><time>2026-04-04T12:25:27.688Z</time></trkpt><trkpt lat="43.8423417" lon="12.6407117"><ele>133.0</ele><time>2026-04-04T12:25:28.689Z</time></trkpt><trkpt lat="43.8422783" lon="12.64062"><ele>130.0</ele><time>2026-04-04T12:25:29.687Z</time></trkpt><trkpt lat="43.8422083" lon="12.64055"><ele>127.0</ele><time>2026-04-04T12:25:30.689Z</time></trkpt><trkpt lat="43.84212" lon="12.6405233"><ele>124.0</ele><time>2026-04-04T12:25:31.69Z</time></trkpt><trkpt lat="43.8420267" lon="12.64051"><ele>124.0</ele><time>2026-04-04T12:25:32.69Z</time></trkpt><trkpt lat="43.8419367" lon="12.6405217"><ele>124.0</ele><time>2026-04-04T12:25:33.689Z</time></trkpt><trkpt lat="43.841845" lon="12.640565"><ele>124.0</ele><time>2026-04-04T12:25:34.688Z</time></trkpt><trkpt lat="43.84176" lon="12.6406117"><ele>124.0</ele><time>2026-04-04T12:25:35.689Z</time></trkpt><trkpt lat="43.8416967" lon="12.6406683"><ele>124.0</ele><time>2026-04-04T12:25:36.69Z</time></trkpt><trkpt lat="43.841615" lon="12.6407433"><ele>123.33333333333334</ele><time>2026-04-04T12:25:38.688Z</time></trkpt><trkpt lat="43.841565" lon="12.640805"><ele>122.66666666666667</ele><time>2026-04-04T12:25:40.689Z</time></trkpt><trkpt lat="43.8415367" lon="12.6408933"><ele>122.0</ele><time>2026-04-04T12:25:42.688Z</time></trkpt><trkpt lat="43.841535" lon="12.641065"><ele>121.33333333333334</ele><time>2026-04-04T12:25:44.689Z</time></trkpt><trkpt lat="43.84154" lon="12.6411783"><ele>120.66666666666667</ele><time>2026-04-04T12:25:45.689Z</time></trkpt><trkpt lat="43.8415417" lon="12.6413167"><ele>120.0</ele><time>2026-04-04T12:25:46.689Z</time></trkpt><trkpt lat="43.841515" lon="12.641465"><ele>120.0</ele><time>2026-04-04T12:25:47.687Z</time></trkpt><trkpt lat="43.8414683" lon="12.6416183"><ele>120.0</ele><time>2026-04-04T12:25:48.688Z</time></trkpt><trkpt lat="43.8414117" lon="12.64176"><ele>120.0</ele><time>2026-04-04T12:25:49.691Z</time></trkpt><trkpt lat="43.8413683" lon="12.6418967"><ele>120.0</ele><time>2026-04-04T12:25:50.689Z</time></trkpt><trkpt lat="43.84134" lon="12.6420533"><ele>120.25</ele><time>2026-04-04T12:25:51.689Z</time></trkpt><trkpt lat="43.841315" lon="12.6422317"><ele>120.5</ele><time>2026-04-04T12:25:52.689Z</time></trkpt><trkpt lat="43.8412833" lon="12.6424167"><ele>120.75</ele><time>2026-04-04T12:25:53.689Z</time></trkpt><trkpt lat="43.841245" lon="12.6426067"><ele>121.0</ele><time>2026-04-04T12:25:54.69Z</time></trkpt><trkpt lat="43.841205" lon="12.6428"><ele>122.0</ele><time>2026-04-04T12:25:55.69Z</time></trkpt><trkpt lat="43.8411567" lon="12.6429883"><ele>123.0</ele><time>2026-04-04T12:25:56.688Z</time></trkpt><trkpt lat="43.8411083" lon="12.643185"><ele>124.0</ele><time>2026-04-04T12:25:57.686Z</time></trkpt><trkpt lat="43.8410583" lon="12.643385"><ele>125.0</ele><time>2026-04-04T12:25:58.688Z</time></trkpt><trkpt lat="43.841005" lon="12.6435817"><ele>123.0</ele><time>2026-04-04T12:25:59.69Z</time></trkpt><trkpt lat="43.8409517" lon="12.6437767"><ele>121.0</ele><time>2026-04-04T12:26:00.689Z</time></trkpt><trkpt lat="43.8409033" lon="12.6439617"><ele>119.0</ele><time>2026-04-04T12:26:01.69Z</time></trkpt><trkpt lat="43.8408567" lon="12.6441333"><ele>117.0</ele><time>2026-04-04T12:26:02.689Z</time></trkpt><trkpt lat="43.8408217" lon="12.6442867"><ele>117.0</ele><time>2026-04-04T12:26:03.689Z</time></trkpt><trkpt lat="43.8408033" lon="12.644435"><ele>117.0</ele><time>2026-04-04T12:26:04.689Z</time></trkpt><trkpt lat="43.8408033" lon="12.6445667"><ele>117.0</ele><time>2026-04-04T12:26:05.688Z</time></trkpt><trkpt lat="43.8408133" lon="12.644695"><ele>117.0</ele><time>2026-04-04T12:26:06.689Z</time></trkpt><trkpt lat="43.8408117" lon="12.6448083"><ele>117.0</ele><time>2026-04-04T12:26:07.69Z</time></trkpt><trkpt lat="43.8407967" lon="12.6449"><ele>117.0</ele><time>2026-04-04T12:26:08.689Z</time></trkpt><trkpt lat="43.84077" lon="12.6449883"><ele>117.19999999999999</ele><time>2026-04-04T12:26:10.689Z</time></trkpt><trkpt lat="43.8407233" lon="12.6450917"><ele>117.39999999999999</ele><time>2026-04-04T12:26:52.688Z</time></trkpt><trkpt lat="43.8407" lon="12.6451867"><ele>117.60000000000001</ele><time>2026-04-04T12:26:53.688Z</time></trkpt><trkpt lat="43.840675" lon="12.6453"><ele>117.80000000000001</ele><time>2026-04-04T12:26:54.687Z</time></trkpt><trkpt lat="43.8406517" lon="12.6454417"><ele>118.0</ele><time>2026-04-04T12:26:55.689Z</time></trkpt><trkpt lat="43.8406267" lon="12.6455867"><ele>118.4</ele><time>2026-04-04T12:26:56.689Z</time></trkpt><trkpt lat="43.8405933" lon="12.64573"><ele>118.80000000000001</ele><time>2026-04-04T12:26:57.686Z</time></trkpt><trkpt lat="43.840555" lon="12.64587"><ele>119.2</ele><time>2026-04-04T12:26:58.687Z</time></trkpt><trkpt lat="43.8405083" lon="12.6459867"><ele>119.6</ele><time>2026-04-04T12:26:59.689Z</time></trkpt><trkpt lat="43.8404583" lon="12.6460867"><ele>120.0</ele><time>2026-04-04T12:27:00.689Z</time></trkpt><trkpt lat="43.8403833" lon="12.6461733"><ele>120.25</ele><time>2026-04-04T12:27:01.692Z</time></trkpt><trkpt lat="43.8402867" lon="12.6462383"><ele>120.5</ele><time>2026-04-04T12:27:02.688Z</time></trkpt><trkpt lat="43.8401667" lon="12.646295"><ele>120.75</ele><time>2026-04-04T12:27:03.687Z</time></trkpt><trkpt lat="43.8400383" lon="12.6463517"><ele>121.0</ele><time>2026-04-04T12:27:04.686Z</time></trkpt><trkpt lat="43.8398983" lon="12.6464"><ele>121.0</ele><time>2026-04-04T12:27:05.688Z</time></trkpt><trkpt lat="43.8397583" lon="12.6464433"><ele>121.0</ele><time>2026-04-04T12:27:06.687Z</time></trkpt><trkpt lat="43.8396267" lon="12.6464883"><ele>121.0</ele><time>2026-04-04T12:27:07.689Z</time></trkpt><trkpt lat="43.8394967" lon="12.64654"><ele>121.0</ele><time>2026-04-04T12:27:08.686Z</time></trkpt><trkpt lat="43.8393683" lon="12.646595"><ele>120.6</ele><time>2026-04-04T12:27:09.687Z</time></trkpt><trkpt lat="43.83925" lon="12.64665"><ele>120.19999999999999</ele><time>2026-04-04T12:27:10.686Z</time></trkpt><trkpt lat="43.83914" lon="12.6467183"><ele>119.80000000000001</ele><time>2026-04-04T12:27:11.689Z</time></trkpt><trkpt lat="43.839045" lon="12.646795"><ele>119.4</ele><time>2026-04-04T12:27:12.687Z</time></trkpt><trkpt lat="43.8389733" lon="12.6468583"><ele>119.0</ele><time>2026-04-04T12:27:13.688Z</time></trkpt><trkpt lat="43.8389183" lon="12.646915"><ele>119.2</ele><time>2026-04-04T12:27:14.689Z</time></trkpt><trkpt lat="43.8388633" lon="12.6470183"><ele>119.4</ele><time>2026-04-04T12:27:16.688Z</time></trkpt><trkpt lat="43.838845" lon="12.6471417"><ele>119.6</ele><time>2026-04-04T12:27:18.687Z</time></trkpt><trkpt lat="43.83884" lon="12.647255"><ele>119.8</ele><time>2026-04-04T12:27:20.688Z</time></trkpt><trkpt lat="43.8388417" lon="12.6473833"><ele>120.0</ele><time>2026-04-04T12:27:22.687Z</time></trkpt><trkpt lat="43.83881" lon="12.6475367"><ele>120.0</ele><time>2026-04-04T12:27:24.688Z</time></trkpt><trkpt lat="43.8387683" lon="12.647615"><ele>120.0</ele><time>2026-04-04T12:27:25.689Z</time></trkpt><trkpt lat="43.8387133" lon="12.647695"><ele>120.0</ele><time>2026-04-04T12:27:26.687Z</time></trkpt><trkpt lat="43.8386467" lon="12.6477833"><ele>120.0</ele><time>2026-04-04T12:27:27.69Z</time></trkpt><trkpt lat="43.8385683" lon="12.647885"><ele>120.0</ele><time>2026-04-04T12:27:28.689Z</time></trkpt><trkpt lat="43.8384917" lon="12.6479883"><ele>118.4</ele><time>2026-04-04T12:27:29.691Z</time></trkpt><trkpt lat="43.8384133" lon="12.6480933"><ele>116.8</ele><time>2026-04-04T12:27:30.689Z</time></trkpt><trkpt lat="43.8383317" lon="12.6481883"><ele>115.19999999999999</ele><time>2026-04-04T12:27:31.691Z</time></trkpt><trkpt lat="43.8382467" lon="12.6482717"><ele>113.6</ele><time>2026-04-04T12:27:32.688Z</time></trkpt><trkpt lat="43.8381533" lon="12.64834"><ele>112.0</ele><time>2026-04-04T12:27:33.688Z</time></trkpt><trkpt lat="43.8380583" lon="12.64839"><ele>112.0</ele><time>2026-04-04T12:27:34.685Z</time></trkpt><trkpt lat="43.8379583" lon="12.64843"><ele>111.99999999999999</ele><time>2026-04-04T12:27:35.687Z</time></trkpt><trkpt lat="43.8378617" lon="12.6484833"><ele>111.99999999999999</ele><time>2026-04-04T12:27:36.687Z</time></trkpt><trkpt lat="43.8377717" lon="12.6485533"><ele>112.0</ele><time>2026-04-04T12:27:37.687Z</time></trkpt><trkpt lat="43.8376867" lon="12.6486467"><ele>112.0</ele><time>2026-04-04T12:27:38.688Z</time></trkpt><trkpt lat="43.8376133" lon="12.6487733"><ele>110.5</ele><time>2026-04-04T12:27:39.687Z</time></trkpt><trkpt lat="43.8375533" lon="12.6489233"><ele>109.0</ele><time>2026-04-04T12:27:40.688Z</time></trkpt><trkpt lat="43.837505" lon="12.6490883"><ele>107.5</ele><time>2026-04-04T12:27:41.686Z</time></trkpt><trkpt lat="43.8374583" lon="12.6492467"><ele>106.0</ele><time>2026-04-04T12:27:42.689Z</time></trkpt><trkpt lat="43.8374117" lon="12.6494"><ele>106.4</ele><time>2026-04-04T12:27:43.687Z</time></trkpt><trkpt lat="43.8373717" lon="12.6495517"><ele>106.8</ele><time>2026-04-04T12:27:44.686Z</time></trkpt><trkpt lat="43.837335" lon="12.649695"><ele>107.20000000000002</ele><time>2026-04-04T12:27:45.687Z</time></trkpt><trkpt lat="43.8372967" lon="12.649835"><ele>107.60000000000001</ele><time>2026-04-04T12:27:46.687Z</time></trkpt><trkpt lat="43.8372517" lon="12.64997"><ele>108.0</ele><time>2026-04-04T12:27:47.687Z</time></trkpt><trkpt lat="43.83721" lon="12.6500917"><ele>108.0</ele><time>2026-04-04T12:27:48.688Z</time></trkpt><trkpt lat="43.8371783" lon="12.6502083"><ele>108.0</ele><time>2026-04-04T12:27:49.686Z</time></trkpt><trkpt lat="43.8371667" lon="12.6503283"><ele>108.0</ele><time>2026-04-04T12:27:50.687Z</time></trkpt><trkpt lat="43.8371717" lon="12.6504517"><ele>108.0</ele><time>2026-04-04T12:27:51.688Z</time></trkpt><trkpt lat="43.83719" lon="12.65057"><ele>108.0</ele><time>2026-04-04T12:27:52.688Z</time></trkpt><trkpt lat="43.83723" lon="12.6506733"><ele>108.0</ele><time>2026-04-04T12:27:53.688Z</time></trkpt><trkpt lat="43.83727" lon="12.6507867"><ele>107.60000000000001</ele><time>2026-04-04T12:27:54.686Z</time></trkpt><trkpt lat="43.8372933" lon="12.6509167"><ele>107.20000000000002</ele><time>2026-04-04T12:27:55.688Z</time></trkpt><trkpt lat="43.8372833" lon="12.6510633"><ele>106.8</ele><time>2026-04-04T12:27:56.686Z</time></trkpt><trkpt lat="43.837255" lon="12.6512117"><ele>106.4</ele><time>2026-04-04T12:27:57.687Z</time></trkpt><trkpt lat="43.8372183" lon="12.65136"><ele>106.0</ele><time>2026-04-04T12:27:58.689Z</time></trkpt><trkpt lat="43.8371833" lon="12.651505"><ele>106.0</ele><time>2026-04-04T12:27:59.688Z</time></trkpt><trkpt lat="43.8371417" lon="12.6516417"><ele>106.0</ele><time>2026-04-04T12:28:00.687Z</time></trkpt><trkpt lat="43.8370933" lon="12.6517633"><ele>106.0</ele><time>2026-04-04T12:28:01.687Z</time></trkpt><trkpt lat="43.83704" lon="12.6518717"><ele>106.0</ele><time>2026-04-04T12:28:02.688Z</time></trkpt><trkpt lat="43.8369833" lon="12.6519667"><ele>106.0</ele><time>2026-04-04T12:28:03.686Z</time></trkpt><trkpt lat="43.836925" lon="12.652055"><ele>106.0</ele><time>2026-04-04T12:28:04.689Z</time></trkpt><trkpt lat="43.83686" lon="12.652145"><ele>106.0</ele><time>2026-04-04T12:28:05.687Z</time></trkpt><trkpt lat="43.8367917" lon="12.6522383"><ele>106.0</ele><time>2026-04-04T12:28:06.688Z</time></trkpt><trkpt lat="43.83672" lon="12.6523433"><ele>106.0</ele><time>2026-04-04T12:28:07.689Z</time></trkpt><trkpt lat="43.83664" lon="12.6524517"><ele>106.0</ele><time>2026-04-04T12:28:08.688Z</time></trkpt><trkpt lat="43.8365467" lon="12.652565"><ele>106.0</ele><time>2026-04-04T12:28:09.687Z</time></trkpt><trkpt lat="43.83645" lon="12.6526783"><ele>106.0</ele><time>2026-04-04T12:28:10.689Z</time></trkpt><trkpt lat="43.8363517" lon="12.6527933"><ele>106.0</ele><time>2026-04-04T12:28:11.688Z</time></trkpt><trkpt lat="43.836255" lon="12.65291"><ele>106.0</ele><time>2026-04-04T12:28:12.688Z</time></trkpt><trkpt lat="43.8361517" lon="12.6530267"><ele>106.75</ele><time>2026-04-04T12:28:13.69Z</time></trkpt><trkpt lat="43.8360417" lon="12.65314"><ele>107.5</ele><time>2026-04-04T12:28:14.688Z</time></trkpt><trkpt lat="43.8359333" lon="12.65325"><ele>108.25</ele><time>2026-04-04T12:28:15.689Z</time></trkpt><trkpt lat="43.8358267" lon="12.6533583"><ele>109.0</ele><time>2026-04-04T12:28:16.685Z</time></trkpt><trkpt lat="43.8357183" lon="12.6534617"><ele>109.0</ele><time>2026-04-04T12:28:17.691Z</time></trkpt><trkpt lat="43.8356067" lon="12.6535667"><ele>109.0</ele><time>2026-04-04T12:28:18.687Z</time></trkpt><trkpt lat="43.835485" lon="12.65368"><ele>109.0</ele><time>2026-04-04T12:28:19.687Z</time></trkpt><trkpt lat="43.8353517" lon="12.6538"><ele>109.0</ele><time>2026-04-04T12:28:20.688Z</time></trkpt><trkpt lat="43.835215" lon="12.653915"><ele>110.0</ele><time>2026-04-04T12:28:21.69Z</time></trkpt><trkpt lat="43.8350767" lon="12.6540183"><ele>111.0</ele><time>2026-04-04T12:28:22.687Z</time></trkpt><trkpt lat="43.83494" lon="12.65411"><ele>112.0</ele><time>2026-04-04T12:28:23.688Z</time></trkpt><trkpt lat="43.8348" lon="12.6541933"><ele>112.0</ele><time>2026-04-04T12:28:24.687Z</time></trkpt><trkpt lat="43.834655" lon="12.65427"><ele>112.0</ele><time>2026-04-04T12:28:25.689Z</time></trkpt><trkpt lat="43.8345083" lon="12.6543467"><ele>112.0</ele><time>2026-04-04T12:28:26.687Z</time></trkpt><trkpt lat="43.8343567" lon="12.6544233"><ele>113.33333333333334</ele><time>2026-04-04T12:28:27.685Z</time></trkpt><trkpt lat="43.8341967" lon="12.6544983"><ele>114.66666666666666</ele><time>2026-04-04T12:28:28.688Z</time></trkpt><trkpt lat="43.834035" lon="12.6545767"><ele>116.0</ele><time>2026-04-04T12:28:29.687Z</time></trkpt><trkpt lat="43.833875" lon="12.654655"><ele>116.0</ele><time>2026-04-04T12:28:30.687Z</time></trkpt><trkpt lat="43.8337233" lon="12.654725"><ele>116.0</ele><time>2026-04-04T12:28:31.688Z</time></trkpt><trkpt lat="43.8335833" lon="12.65478"><ele>116.0</ele><time>2026-04-04T12:28:32.687Z</time></trkpt><trkpt lat="43.8334417" lon="12.6548133"><ele>116.0</ele><time>2026-04-04T12:28:33.686Z</time></trkpt><trkpt lat="43.83329" lon="12.6548333"><ele>114.0</ele><time>2026-04-04T12:28:34.689Z</time></trkpt><trkpt lat="43.8331417" lon="12.6548483"><ele>112.0</ele><time>2026-04-04T12:28:35.69Z</time></trkpt><trkpt lat="43.8329983" lon="12.6548633"><ele>110.0</ele><time>2026-04-04T12:28:36.688Z</time></trkpt><trkpt lat="43.8328567" lon="12.6548833"><ele>108.0</ele><time>2026-04-04T12:28:37.69Z</time></trkpt><trkpt lat="43.83272" lon="12.6549217"><ele>106.5</ele><time>2026-04-04T12:28:38.688Z</time></trkpt><trkpt lat="43.8325933" lon="12.654985"><ele>105.0</ele><time>2026-04-04T12:28:39.688Z</time></trkpt><trkpt lat="43.8324683" lon="12.6550733"><ele>103.5</ele><time>2026-04-04T12:28:40.688Z</time></trkpt><trkpt lat="43.832345" lon="12.6551833"><ele>102.0</ele><time>2026-04-04T12:28:41.685Z</time></trkpt><trkpt lat="43.8322217" lon="12.65531"><ele>102.25</ele><time>2026-04-04T12:28:42.689Z</time></trkpt><trkpt lat="43.8321033" lon="12.65544"><ele>102.5</ele><time>2026-04-04T12:28:43.69Z</time></trkpt><trkpt lat="43.8319917" lon="12.655565"><ele>102.75</ele><time>2026-04-04T12:28:44.687Z</time></trkpt><trkpt lat="43.8318817" lon="12.6556833"><ele>103.0</ele><time>2026-04-04T12:28:45.687Z</time></trkpt><trkpt lat="43.8317783" lon="12.65579"><ele>103.0</ele><time>2026-04-04T12:28:46.689Z</time></trkpt><trkpt lat="43.8316783" lon="12.6558883"><ele>103.0</ele><time>2026-04-04T12:28:47.686Z</time></trkpt><trkpt lat="43.8315883" lon="12.6559783"><ele>103.0</ele><time>2026-04-04T12:28:48.687Z</time></trkpt><trkpt lat="43.8314867" lon="12.6560567"><ele>103.0</ele><time>2026-04-04T12:28:49.687Z</time></trkpt><trkpt lat="43.8313783" lon="12.6561133"><ele>102.4</ele><time>2026-04-04T12:28:50.687Z</time></trkpt><trkpt lat="43.83126" lon="12.6561533"><ele>101.80000000000001</ele><time>2026-04-04T12:28:51.685Z</time></trkpt><trkpt lat="43.8311517" lon="12.6561967"><ele>101.2</ele><time>2026-04-04T12:28:52.688Z</time></trkpt><trkpt lat="43.8310517" lon="12.6562467"><ele>100.6</ele><time>2026-04-04T12:28:53.687Z</time></trkpt><trkpt lat="43.8309567" lon="12.6563183"><ele>100.0</ele><time>2026-04-04T12:28:54.687Z</time></trkpt><trkpt lat="43.8308667" lon="12.6564317"><ele>100.0</ele><time>2026-04-04T12:28:55.688Z</time></trkpt><trkpt lat="43.83078" lon="12.6565667"><ele>100.0</ele><time>2026-04-04T12:28:56.687Z</time></trkpt><trkpt lat="43.8306917" lon="12.6567167"><ele>100.0</ele><time>2026-04-04T12:28:57.688Z</time></trkpt><trkpt lat="43.830605" lon="12.6568667"><ele>100.0</ele><time>2026-04-04T12:28:58.688Z</time></trkpt><trkpt lat="43.8305217" lon="12.6570117"><ele>99.75</ele><time>2026-04-04T12:28:59.688Z</time></trkpt><trkpt lat="43.8304333" lon="12.6571567"><ele>99.5</ele><time>2026-04-04T12:29:00.687Z</time></trkpt><trkpt lat="43.83034" lon="12.6572933"><ele>99.25</ele><time>2026-04-04T12:29:01.687Z</time></trkpt><trkpt lat="43.8302433" lon="12.6574233"><ele>99.0</ele><time>2026-04-04T12:29:02.687Z</time></trkpt><trkpt lat="43.8301333" lon="12.6575467"><ele>99.0</ele><time>2026-04-04T12:29:03.687Z</time></trkpt><trkpt lat="43.8300133" lon="12.65767"><ele>99.0</ele><time>2026-04-04T12:29:04.688Z</time></trkpt><trkpt lat="43.8298917" lon="12.6577867"><ele>99.0</ele><time>2026-04-04T12:29:05.687Z</time></trkpt><trkpt lat="43.8297767" lon="12.6579033"><ele>99.0</ele><time>2026-04-04T12:29:06.688Z</time></trkpt><trkpt lat="43.829665" lon="12.6580167"><ele>99.75</ele><time>2026-04-04T12:29:07.687Z</time></trkpt><trkpt lat="43.8295583" lon="12.658125"><ele>100.5</ele><time>2026-04-04T12:29:08.687Z</time></trkpt><trkpt lat="43.82946" lon="12.6582383"><ele>101.25</ele><time>2026-04-04T12:29:09.686Z</time></trkpt><trkpt lat="43.8293717" lon="12.6583583"><ele>102.0</ele><time>2026-04-04T12:29:10.688Z</time></trkpt><trkpt lat="43.8292933" lon="12.6584933"><ele>100.5</ele><time>2026-04-04T12:29:11.689Z</time></trkpt><trkpt lat="43.829225" lon="12.6586467"><ele>99.0</ele><time>2026-04-04T12:29:12.688Z</time></trkpt><trkpt lat="43.8291567" lon="12.6588167"><ele>97.5</ele><time>2026-04-04T12:29:13.687Z</time></trkpt><trkpt lat="43.82908" lon="12.6590017"><ele>96.0</ele><time>2026-04-04T12:29:14.687Z</time></trkpt><trkpt lat="43.829" lon="12.65919"><ele>96.0</ele><time>2026-04-04T12:29:15.686Z</time></trkpt><trkpt lat="43.828915" lon="12.659375"><ele>96.0</ele><time>2026-04-04T12:29:16.686Z</time></trkpt><trkpt lat="43.8288333" lon="12.6595583"><ele>96.0</ele><time>2026-04-04T12:29:17.687Z</time></trkpt><trkpt lat="43.8287467" lon="12.659745"><ele>96.33333333333334</ele><time>2026-04-04T12:29:18.686Z</time></trkpt><trkpt lat="43.82866" lon="12.659935"><ele>96.66666666666667</ele><time>2026-04-04T12:29:19.688Z</time></trkpt><trkpt lat="43.8285667" lon="12.6601317"><ele>97.0</ele><time>2026-04-04T12:29:20.688Z</time></trkpt><trkpt lat="43.8284717" lon="12.6603267"><ele>97.0</ele><time>2026-04-04T12:29:21.687Z</time></trkpt><trkpt lat="43.8283717" lon="12.66052"><ele>97.0</ele><time>2026-04-04T12:29:22.687Z</time></trkpt><trkpt lat="43.8282733" lon="12.6607083"><ele>97.0</ele><time>2026-04-04T12:29:23.689Z</time></trkpt><trkpt lat="43.828175" lon="12.6609"><ele>97.0</ele><time>2026-04-04T12:29:24.686Z</time></trkpt><trkpt lat="43.828085" lon="12.6610917"><ele>97.0</ele><time>2026-04-04T12:29:25.688Z</time></trkpt><trkpt lat="43.8280067" lon="12.6612783"><ele>97.0</ele><time>2026-04-04T12:29:26.688Z</time></trkpt><trkpt lat="43.82793" lon="12.6614717"><ele>101.66666666666667</ele><time>2026-04-04T12:29:27.687Z</time></trkpt><trkpt lat="43.8278583" lon="12.6616717"><ele>106.33333333333334</ele><time>2026-04-04T12:29:28.688Z</time></trkpt><trkpt lat="43.8277867" lon="12.6618883"><ele>111.0</ele><time>2026-04-04T12:29:29.69Z</time></trkpt><trkpt lat="43.8277167" lon="12.6621067"><ele>108.0</ele><time>2026-04-04T12:29:30.69Z</time></trkpt><trkpt lat="43.8276467" lon="12.66233"><ele>105.0</ele><time>2026-04-04T12:29:31.688Z</time></trkpt><trkpt lat="43.8275767" lon="12.662545"><ele>102.0</ele><time>2026-04-04T12:29:32.687Z</time></trkpt><trkpt lat="43.8275017" lon="12.66276"><ele>103.66666666666666</ele><time>2026-04-04T12:29:33.685Z</time></trkpt><trkpt lat="43.8274317" lon="12.6629683"><ele>105.33333333333333</ele><time>2026-04-04T12:29:34.687Z</time></trkpt><trkpt lat="43.827365" lon="12.663155"><ele>107.0</ele><time>2026-04-04T12:29:35.688Z</time></trkpt><trkpt lat="43.827295" lon="12.66333"><ele>107.0</ele><time>2026-04-04T12:29:36.687Z</time></trkpt><trkpt lat="43.8272283" lon="12.6634983"><ele>107.0</ele><time>2026-04-04T12:29:37.688Z</time></trkpt><trkpt lat="43.827175" lon="12.6636683"><ele>107.0</ele><time>2026-04-04T12:29:38.686Z</time></trkpt><trkpt lat="43.8271383" lon="12.6638517"><ele>107.0</ele><time>2026-04-04T12:29:39.686Z</time></trkpt><trkpt lat="43.8271133" lon="12.6640433"><ele>109.0</ele><time>2026-04-04T12:29:40.687Z</time></trkpt><trkpt lat="43.8270867" lon="12.66424"><ele>111.0</ele><time>2026-04-04T12:29:41.689Z</time></trkpt><trkpt lat="43.8270417" lon="12.6644317"><ele>113.0</ele><time>2026-04-04T12:29:42.687Z</time></trkpt><trkpt lat="43.8269683" lon="12.6646083"><ele>115.0</ele><time>2026-04-04T12:29:43.688Z</time></trkpt><trkpt lat="43.8268767" lon="12.6647667"><ele>115.0</ele><time>2026-04-04T12:29:44.688Z</time></trkpt><trkpt lat="43.8267867" lon="12.664905"><ele>115.0</ele><time>2026-04-04T12:29:45.688Z</time></trkpt><trkpt lat="43.826705" lon="12.66503"><ele>115.0</ele><time>2026-04-04T12:29:46.687Z</time></trkpt><trkpt lat="43.82664" lon="12.6651617"><ele>115.0</ele><time>2026-04-04T12:29:47.688Z</time></trkpt><trkpt lat="43.8265967" lon="12.6653033"><ele>115.0</ele><time>2026-04-04T12:29:48.688Z</time></trkpt><trkpt lat="43.8265767" lon="12.66546"><ele>115.0</ele><time>2026-04-04T12:29:49.69Z</time></trkpt><trkpt lat="43.8265767" lon="12.66563"><ele>115.0</ele><time>2026-04-04T12:29:50.688Z</time></trkpt><trkpt lat="43.826575" lon="12.6658067"><ele>115.0</ele><time>2026-04-04T12:29:51.688Z</time></trkpt><trkpt lat="43.82657" lon="12.6659733"><ele>116.6</ele><time>2026-04-04T12:29:52.686Z</time></trkpt><trkpt lat="43.826555" lon="12.6661267"><ele>118.2</ele><time>2026-04-04T12:29:53.689Z</time></trkpt><trkpt lat="43.826515" lon="12.6662483"><ele>119.80000000000001</ele><time>2026-04-04T12:29:54.688Z</time></trkpt><trkpt lat="43.8264617" lon="12.6663517"><ele>121.4</ele><time>2026-04-04T12:29:55.691Z</time></trkpt><trkpt lat="43.8263867" lon="12.6664433"><ele>123.0</ele><time>2026-04-04T12:29:56.686Z</time></trkpt><trkpt lat="43.8262683" lon="12.6664967"><ele>123.0</ele><time>2026-04-04T12:29:57.687Z</time></trkpt><trkpt lat="43.8261683" lon="12.6665533"><ele>123.00000000000001</ele><time>2026-04-04T12:29:58.686Z</time></trkpt><trkpt lat="43.826085" lon="12.66662"><ele>123.00000000000001</ele><time>2026-04-04T12:29:59.689Z</time></trkpt><trkpt lat="43.8260267" lon="12.6666883"><ele>123.0</ele><time>2026-04-04T12:30:00.687Z</time></trkpt><trkpt lat="43.8259817" lon="12.666755"><ele>123.0</ele><time>2026-04-04T12:30:01.689Z</time></trkpt><trkpt lat="43.8259133" lon="12.6669167"><ele>121.60000000000001</ele><time>2026-04-04T12:30:03.686Z</time></trkpt><trkpt lat="43.8258717" lon="12.6670267"><ele>120.20000000000002</ele><time>2026-04-04T12:30:04.687Z</time></trkpt><trkpt lat="43.82582" lon="12.6671583"><ele>118.8</ele><time>2026-04-04T12:30:05.687Z</time></trkpt><trkpt lat="43.825755" lon="12.6672967"><ele>117.4</ele><time>2026-04-04T12:30:06.686Z</time></trkpt><trkpt lat="43.8256867" lon="12.66744"><ele>116.0</ele><time>2026-04-04T12:30:07.69Z</time></trkpt><trkpt lat="43.825605" lon="12.6675683"><ele>116.0</ele><time>2026-04-04T12:30:08.686Z</time></trkpt><trkpt lat="43.8255167" lon="12.6676767"><ele>116.0</ele><time>2026-04-04T12:30:09.686Z</time></trkpt><trkpt lat="43.8254217" lon="12.6677717"><ele>116.0</ele><time>2026-04-04T12:30:10.687Z</time></trkpt><trkpt lat="43.8253283" lon="12.66786"><ele>116.0</ele><time>2026-04-04T12:30:11.691Z</time></trkpt><trkpt lat="43.8252333" lon="12.6679467"><ele>113.8</ele><time>2026-04-04T12:30:12.689Z</time></trkpt><trkpt lat="43.825145" lon="12.6680367"><ele>111.6</ele><time>2026-04-04T12:30:13.69Z</time></trkpt><trkpt lat="43.82507" lon="12.6681317"><ele>109.4</ele><time>2026-04-04T12:30:14.688Z</time></trkpt><trkpt lat="43.8250067" lon="12.668235"><ele>107.2</ele><time>2026-04-04T12:30:15.688Z</time></trkpt><trkpt lat="43.8249483" lon="12.6683383"><ele>105.0</ele><time>2026-04-04T12:30:16.688Z</time></trkpt><trkpt lat="43.8248883" lon="12.66844"><ele>105.0</ele><time>2026-04-04T12:30:17.687Z</time></trkpt><trkpt lat="43.8248367" lon="12.6685433"><ele>105.0</ele><time>2026-04-04T12:30:18.687Z</time></trkpt><trkpt lat="43.8247967" lon="12.668655"><ele>105.0</ele><time>2026-04-04T12:30:19.689Z</time></trkpt><trkpt lat="43.82476" lon="12.6687683"><ele>105.0</ele><time>2026-04-04T12:30:20.689Z</time></trkpt><trkpt lat="43.8247317" lon="12.6688833"><ele>105.0</ele><time>2026-04-04T12:30:21.686Z</time></trkpt><trkpt lat="43.824715" lon="12.6689983"><ele>105.0</ele><time>2026-04-04T12:30:22.697Z</time></trkpt><trkpt lat="43.8246983" lon="12.66911"><ele>105.16666666666667</ele><time>2026-04-04T12:30:23.689Z</time></trkpt><trkpt lat="43.824675" lon="12.6692167"><ele>105.33333333333334</ele><time>2026-04-04T12:30:24.688Z</time></trkpt><trkpt lat="43.8246517" lon="12.6693233"><ele>105.5</ele><time>2026-04-04T12:30:25.689Z</time></trkpt><trkpt lat="43.8246267" lon="12.6694267"><ele>105.66666666666667</ele><time>2026-04-04T12:30:26.688Z</time></trkpt><trkpt lat="43.8246" lon="12.6695283"><ele>105.83333333333334</ele><time>2026-04-04T12:30:27.686Z</time></trkpt><trkpt lat="43.824565" lon="12.669625"><ele>106.0</ele><time>2026-04-04T12:30:28.687Z</time></trkpt><trkpt lat="43.8245233" lon="12.6697183"><ele>106.0</ele><time>2026-04-04T12:30:29.687Z</time></trkpt><trkpt lat="43.824465" lon="12.66981"><ele>106.0</ele><time>2026-04-04T12:30:30.687Z</time></trkpt><trkpt lat="43.8244033" lon="12.6698883"><ele>106.0</ele><time>2026-04-04T12:30:31.688Z</time></trkpt><trkpt lat="43.824325" lon="12.6699383"><ele>106.0</ele><time>2026-04-04T12:30:32.688Z</time></trkpt><trkpt lat="43.82423" lon="12.6699533"><ele>106.0</ele><time>2026-04-04T12:30:33.687Z</time></trkpt><trkpt lat="43.8241317" lon="12.6699233"><ele>103.19999999999999</ele><time>2026-04-04T12:30:34.689Z</time></trkpt><trkpt lat="43.8240467" lon="12.6698717"><ele>100.39999999999999</ele><time>2026-04-04T12:30:35.689Z</time></trkpt><trkpt lat="43.8239733" lon="12.66975"><ele>97.6</ele><time>2026-04-04T12:30:36.687Z</time></trkpt><trkpt lat="43.8239183" lon="12.66962"><ele>94.8</ele><time>2026-04-04T12:30:37.688Z</time></trkpt><trkpt lat="43.82389" lon="12.66947"><ele>92.0</ele><time>2026-04-04T12:30:38.687Z</time></trkpt><trkpt lat="43.82386" lon="12.6693333"><ele>92.0</ele><time>2026-04-04T12:30:39.687Z</time></trkpt><trkpt lat="43.823815" lon="12.6692167"><ele>92.0</ele><time>2026-04-04T12:30:40.689Z</time></trkpt><trkpt lat="43.82376" lon="12.6691133"><ele>92.0</ele><time>2026-04-04T12:30:41.689Z</time></trkpt><trkpt lat="43.8236817" lon="12.6690267"><ele>92.0</ele><time>2026-04-04T12:30:42.688Z</time></trkpt><trkpt lat="43.8235917" lon="12.66897"><ele>92.0</ele><time>2026-04-04T12:30:43.688Z</time></trkpt><trkpt lat="43.8235033" lon="12.66894"><ele>91.85714285714286</ele><time>2026-04-04T12:30:44.688Z</time></trkpt><trkpt lat="43.82342" lon="12.66892"><ele>91.71428571428571</ele><time>2026-04-04T12:30:45.687Z</time></trkpt><trkpt lat="43.8233517" lon="12.668905"><ele>91.57142857142857</ele><time>2026-04-04T12:30:46.686Z</time></trkpt><trkpt lat="43.8232867" lon="12.6688967"><ele>91.42857142857143</ele><time>2026-04-04T12:30:47.689Z</time></trkpt><trkpt lat="43.8232233" lon="12.6688883"><ele>91.28571428571428</ele><time>2026-04-04T12:30:48.689Z</time></trkpt><trkpt lat="43.8231583" lon="12.66888"><ele>91.14285714285714</ele><time>2026-04-04T12:30:49.69Z</time></trkpt><trkpt lat="43.82309" lon="12.668875"><ele>91.0</ele><time>2026-04-04T12:30:50.69Z</time></trkpt><trkpt lat="43.8229733" lon="12.6688567"><ele>91.0</ele><time>2026-04-04T12:30:52.688Z</time></trkpt><trkpt lat="43.8228617" lon="12.66884"><ele>91.0</ele><time>2026-04-04T12:30:54.689Z</time></trkpt><trkpt lat="43.82279" lon="12.6688367"><ele>91.0</ele><time>2026-04-04T12:30:55.692Z</time></trkpt><trkpt lat="43.8227233" lon="12.668835"><ele>91.0</ele><time>2026-04-04T12:30:56.688Z</time></trkpt><trkpt lat="43.82261" lon="12.66884"><ele>91.0</ele><time>2026-04-04T12:30:58.688Z</time></trkpt><trkpt lat="43.8224867" lon="12.6688467"><ele>92.0</ele><time>2026-04-04T12:31:00.687Z</time></trkpt><trkpt lat="43.822415" lon="12.6688533"><ele>93.0</ele><time>2026-04-04T12:31:01.689Z</time></trkpt><trkpt lat="43.822345" lon="12.6688633"><ele>94.0</ele><time>2026-04-04T12:31:02.686Z</time></trkpt><trkpt lat="43.8222817" lon="12.6688733"><ele>95.0</ele><time>2026-04-04T12:31:03.687Z</time></trkpt><trkpt lat="43.82218" lon="12.6688933"><ele>96.00000000000001</ele><time>2026-04-04T12:31:05.688Z</time></trkpt><trkpt lat="43.822105" lon="12.6689083"><ele>97.0</ele><time>2026-04-04T12:31:07.689Z</time></trkpt><trkpt lat="43.8220433" lon="12.6690217"><ele>97.0</ele><time>2026-04-04T12:31:10.688Z</time></trkpt><trkpt lat="43.8220567" lon="12.6692283"><ele>97.0</ele><time>2026-04-04T12:31:12.689Z</time></trkpt><trkpt lat="43.8220683" lon="12.669375"><ele>97.0</ele><time>2026-04-04T12:31:13.69Z</time></trkpt><trkpt lat="43.82207" lon="12.6695383"><ele>97.0</ele><time>2026-04-04T12:31:14.689Z</time></trkpt><trkpt lat="43.8220683" lon="12.6697183"><ele>97.25</ele><time>2026-04-04T12:31:15.688Z</time></trkpt><trkpt lat="43.8220483" lon="12.6699017"><ele>97.5</ele><time>2026-04-04T12:31:16.688Z</time></trkpt><trkpt lat="43.8220183" lon="12.670095"><ele>97.75</ele><time>2026-04-04T12:31:17.689Z</time></trkpt><trkpt lat="43.8219883" lon="12.6702933"><ele>98.0</ele><time>2026-04-04T12:31:18.692Z</time></trkpt><trkpt lat="43.8219617" lon="12.67049"><ele>97.25</ele><time>2026-04-04T12:31:19.691Z</time></trkpt><trkpt lat="43.821935" lon="12.6706817"><ele>96.5</ele><time>2026-04-04T12:31:20.688Z</time></trkpt><trkpt lat="43.8219067" lon="12.6708783"><ele>95.75</ele><time>2026-04-04T12:31:21.687Z</time></trkpt><trkpt lat="43.8218817" lon="12.6710783"><ele>95.0</ele><time>2026-04-04T12:31:22.689Z</time></trkpt><trkpt lat="43.8218533" lon="12.6712817"><ele>94.0</ele><time>2026-04-04T12:31:23.688Z</time></trkpt><trkpt lat="43.8218267" lon="12.6714933"><ele>93.0</ele><time>2026-04-04T12:31:24.689Z</time></trkpt><trkpt lat="43.8218017" lon="12.6717033"><ele>92.0</ele><time>2026-04-04T12:31:25.688Z</time></trkpt><trkpt lat="43.8217833" lon="12.6719067"><ele>91.25</ele><time>2026-04-04T12:31:26.687Z</time></trkpt><trkpt lat="43.8217733" lon="12.672105"><ele>90.5</ele><time>2026-04-04T12:31:27.687Z</time></trkpt><trkpt lat="43.8217667" lon="12.672305"><ele>89.75</ele><time>2026-04-04T12:31:28.687Z</time></trkpt><trkpt lat="43.82176" lon="12.672505"><ele>89.0</ele><time>2026-04-04T12:31:29.689Z</time></trkpt><trkpt lat="43.8217533" lon="12.67271"><ele>89.33333333333334</ele><time>2026-04-04T12:31:30.689Z</time></trkpt><trkpt lat="43.8217483" lon="12.6729183"><ele>89.66666666666667</ele><time>2026-04-04T12:31:31.689Z</time></trkpt><trkpt lat="43.821745" lon="12.6731317"><ele>90.0</ele><time>2026-04-04T12:31:32.687Z</time></trkpt><trkpt lat="43.8217433" lon="12.6733467"><ele>90.0</ele><time>2026-04-04T12:31:33.687Z</time></trkpt><trkpt lat="43.82174" lon="12.6735633"><ele>90.0</ele><time>2026-04-04T12:31:34.688Z</time></trkpt><trkpt lat="43.821735" lon="12.6737817"><ele>90.0</ele><time>2026-04-04T12:31:35.688Z</time></trkpt><trkpt lat="43.82173" lon="12.6739967"><ele>90.0</ele><time>2026-04-04T12:31:36.688Z</time></trkpt><trkpt lat="43.8217267" lon="12.67421"><ele>90.0</ele><time>2026-04-04T12:31:37.689Z</time></trkpt><trkpt lat="43.82173" lon="12.674425"><ele>90.0</ele><time>2026-04-04T12:31:38.688Z</time></trkpt><trkpt lat="43.8217367" lon="12.6746417"><ele>89.66666666666667</ele><time>2026-04-04T12:31:39.687Z</time></trkpt><trkpt lat="43.8217533" lon="12.6748583"><ele>89.33333333333334</ele><time>2026-04-04T12:31:40.689Z</time></trkpt><trkpt lat="43.8217817" lon="12.675075"><ele>89.0</ele><time>2026-04-04T12:31:41.688Z</time></trkpt><trkpt lat="43.8218233" lon="12.6752917"><ele>90.33333333333334</ele><time>2026-04-04T12:31:42.689Z</time></trkpt><trkpt lat="43.8218717" lon="12.6755067"><ele>91.66666666666667</ele><time>2026-04-04T12:31:43.689Z</time></trkpt><trkpt lat="43.8219267" lon="12.675725"><ele>93.0</ele><time>2026-04-04T12:31:44.689Z</time></trkpt><trkpt lat="43.8219883" lon="12.6759433"><ele>92.33333333333333</ele><time>2026-04-04T12:31:45.688Z</time></trkpt><trkpt lat="43.82205" lon="12.676165"><ele>91.66666666666666</ele><time>2026-04-04T12:31:46.686Z</time></trkpt><trkpt lat="43.8221083" lon="12.6763883"><ele>91.0</ele><time>2026-04-04T12:31:47.688Z</time></trkpt><trkpt lat="43.8221683" lon="12.676615"><ele>91.0</ele><time>2026-04-04T12:31:48.688Z</time></trkpt><trkpt lat="43.8222267" lon="12.6768367"><ele>91.0</ele><time>2026-04-04T12:31:49.689Z</time></trkpt><trkpt lat="43.822285" lon="12.6770517"><ele>91.0</ele><time>2026-04-04T12:31:50.687Z</time></trkpt><trkpt lat="43.8223383" lon="12.6772567"><ele>90.66666666666666</ele><time>2026-04-04T12:31:51.686Z</time></trkpt><trkpt lat="43.8223917" lon="12.67746"><ele>90.33333333333333</ele><time>2026-04-04T12:31:52.69Z</time></trkpt><trkpt lat="43.8224467" lon="12.677665"><ele>90.0</ele><time>2026-04-04T12:31:53.693Z</time></trkpt><trkpt lat="43.8225" lon="12.67787"><ele>90.0</ele><time>2026-04-04T12:31:54.688Z</time></trkpt><trkpt lat="43.822555" lon="12.6780733"><ele>90.0</ele><time>2026-04-04T12:31:55.691Z</time></trkpt><trkpt lat="43.8226083" lon="12.6782683"><ele>90.0</ele><time>2026-04-04T12:31:56.689Z</time></trkpt><trkpt lat="43.82266" lon="12.6784567"><ele>89.75</ele><time>2026-04-04T12:31:57.687Z</time></trkpt><trkpt lat="43.8227117" lon="12.6786467"><ele>89.5</ele><time>2026-04-04T12:31:58.686Z</time></trkpt><trkpt lat="43.8227617" lon="12.678835"><ele>89.25</ele><time>2026-04-04T12:31:59.689Z</time></trkpt><trkpt lat="43.822815" lon="12.679025"><ele>89.0</ele><time>2026-04-04T12:32:00.688Z</time></trkpt><trkpt lat="43.8228683" lon="12.6792117"><ele>89.0</ele><time>2026-04-04T12:32:01.688Z</time></trkpt><trkpt lat="43.822925" lon="12.679395"><ele>89.0</ele><time>2026-04-04T12:32:02.688Z</time></trkpt><trkpt lat="43.8229917" lon="12.679575"><ele>89.0</ele><time>2026-04-04T12:32:03.687Z</time></trkpt><trkpt lat="43.82307" lon="12.6797517"><ele>89.0</ele><time>2026-04-04T12:32:04.688Z</time></trkpt><trkpt lat="43.8231567" lon="12.6799183"><ele>88.5</ele><time>2026-04-04T12:32:05.689Z</time></trkpt><trkpt lat="43.8232533" lon="12.6800717"><ele>88.0</ele><time>2026-04-04T12:32:06.689Z</time></trkpt><trkpt lat="43.8233533" lon="12.68021"><ele>87.5</ele><time>2026-04-04T12:32:07.692Z</time></trkpt><trkpt lat="43.8234567" lon="12.6803333"><ele>87.0</ele><time>2026-04-04T12:32:08.69Z</time></trkpt><trkpt lat="43.8235667" lon="12.680445"><ele>86.75</ele><time>2026-04-04T12:32:09.689Z</time></trkpt><trkpt lat="43.8236767" lon="12.680545"><ele>86.5</ele><time>2026-04-04T12:32:10.689Z</time></trkpt><trkpt lat="43.8237867" lon="12.6806317"><ele>86.25</ele><time>2026-04-04T12:32:11.688Z</time></trkpt><trkpt lat="43.8238933" lon="12.6807017"><ele>86.0</ele><time>2026-04-04T12:32:12.689Z</time></trkpt><trkpt lat="43.8239983" lon="12.68076"><ele>86.0</ele><time>2026-04-04T12:32:13.69Z</time></trkpt><trkpt lat="43.824095" lon="12.6808117"><ele>86.0</ele><time>2026-04-04T12:32:14.689Z</time></trkpt><trkpt lat="43.82418" lon="12.6808583"><ele>86.0</ele><time>2026-04-04T12:32:15.689Z</time></trkpt><trkpt lat="43.8242517" lon="12.6809117"><ele>86.0</ele><time>2026-04-04T12:32:16.687Z</time></trkpt><trkpt lat="43.8243017" lon="12.6809833"><ele>86.0</ele><time>2026-04-04T12:32:17.687Z</time></trkpt><trkpt lat="43.824325" lon="12.681075"><ele>86.0</ele><time>2026-04-04T12:32:18.688Z</time></trkpt><trkpt lat="43.82433" lon="12.6811683"><ele>86.16666666666667</ele><time>2026-04-04T12:32:19.688Z</time></trkpt><trkpt lat="43.8243133" lon="12.6812533"><ele>86.33333333333334</ele><time>2026-04-04T12:32:20.687Z</time></trkpt><trkpt lat="43.8242583" lon="12.681325"><ele>86.5</ele><time>2026-04-04T12:32:21.686Z</time></trkpt><trkpt lat="43.8241867" lon="12.68139"><ele>86.66666666666667</ele><time>2026-04-04T12:32:22.689Z</time></trkpt><trkpt lat="43.82411" lon="12.6814417"><ele>86.83333333333333</ele><time>2026-04-04T12:32:23.687Z</time></trkpt><trkpt lat="43.8240233" lon="12.6814883"><ele>87.0</ele><time>2026-04-04T12:32:24.689Z</time></trkpt><trkpt lat="43.82394" lon="12.68155"><ele>86.39999999999999</ele><time>2026-04-04T12:32:25.691Z</time></trkpt><trkpt lat="43.8238683" lon="12.681635"><ele>85.8</ele><time>2026-04-04T12:32:26.686Z</time></trkpt><trkpt lat="43.8238233" lon="12.6817417"><ele>85.2</ele><time>2026-04-04T12:32:27.686Z</time></trkpt><trkpt lat="43.8238033" lon="12.6818567"><ele>84.6</ele><time>2026-04-04T12:32:28.689Z</time></trkpt><trkpt lat="43.8238083" lon="12.681985"><ele>84.0</ele><time>2026-04-04T12:32:29.687Z</time></trkpt><trkpt lat="43.8238467" lon="12.6821367"><ele>82.75</ele><time>2026-04-04T12:32:30.688Z</time></trkpt><trkpt lat="43.8239" lon="12.682305"><ele>81.5</ele><time>2026-04-04T12:32:31.691Z</time></trkpt><trkpt lat="43.8239567" lon="12.6824733"><ele>80.25</ele><time>2026-04-04T12:32:32.687Z</time></trkpt><trkpt lat="43.8240183" lon="12.6826367"><ele>79.0</ele><time>2026-04-04T12:32:33.688Z</time></trkpt><trkpt lat="43.8240733" lon="12.6827983"><ele>78.0</ele><time>2026-04-04T12:32:34.69Z</time></trkpt><trkpt lat="43.82413" lon="12.682945"><ele>77.0</ele><time>2026-04-04T12:32:35.689Z</time></trkpt><trkpt lat="43.8241883" lon="12.6830833"><ele>76.0</ele><time>2026-04-04T12:32:36.688Z</time></trkpt><trkpt lat="43.82424" lon="12.6832133"><ele>75.0</ele><time>2026-04-04T12:32:37.688Z</time></trkpt><trkpt lat="43.8242833" lon="12.6833283"><ele>74.0</ele><time>2026-04-04T12:32:38.688Z</time></trkpt><trkpt lat="43.82431" lon="12.6834367"><ele>73.5</ele><time>2026-04-04T12:32:39.685Z</time></trkpt><trkpt lat="43.8243183" lon="12.6835367"><ele>73.0</ele><time>2026-04-04T12:32:40.688Z</time></trkpt><trkpt lat="43.82429" lon="12.6836233"><ele>72.5</ele><time>2026-04-04T12:32:41.691Z</time></trkpt><trkpt lat="43.8242433" lon="12.6836983"><ele>72.0</ele><time>2026-04-04T12:32:42.686Z</time></trkpt><trkpt lat="43.8241367" lon="12.683765"><ele>71.5</ele><time>2026-04-04T12:32:43.691Z</time></trkpt><trkpt lat="43.8240467" lon="12.6838417"><ele>71.0</ele><time>2026-04-04T12:32:44.688Z</time></trkpt><trkpt lat="43.8239567" lon="12.6839133"><ele>71.0</ele><time>2026-04-04T12:32:45.686Z</time></trkpt><trkpt lat="43.8238733" lon="12.6839767"><ele>71.0</ele><time>2026-04-04T12:32:46.686Z</time></trkpt><trkpt lat="43.8238017" lon="12.684035"><ele>71.0</ele><time>2026-04-04T12:32:47.687Z</time></trkpt><trkpt lat="43.8237433" lon="12.6840817"><ele>71.0</ele><time>2026-04-04T12:32:48.686Z</time></trkpt><trkpt lat="43.82366" lon="12.6841483"><ele>71.0</ele><time>2026-04-04T12:32:50.685Z</time></trkpt><trkpt lat="43.8235667" lon="12.68416"><ele>71.0</ele><time>2026-04-04T12:32:52.686Z</time></trkpt><trkpt lat="43.8234717" lon="12.6840717"><ele>71.2</ele><time>2026-04-04T12:32:54.688Z</time></trkpt><trkpt lat="43.8234067" lon="12.683985"><ele>71.39999999999999</ele><time>2026-04-04T12:32:55.689Z</time></trkpt><trkpt lat="43.8233483" lon="12.683885"><ele>71.6</ele><time>2026-04-04T12:32:56.688Z</time></trkpt><trkpt lat="43.8233017" lon="12.6837683"><ele>71.8</ele><time>2026-04-04T12:32:57.685Z</time></trkpt><trkpt lat="43.8232467" lon="12.6836567"><ele>72.0</ele><time>2026-04-04T12:32:58.688Z</time></trkpt><trkpt lat="43.8231917" lon="12.683545"><ele>72.0</ele><time>2026-04-04T12:32:59.685Z</time></trkpt><trkpt lat="43.823145" lon="12.6834267"><ele>72.0</ele><time>2026-04-04T12:33:00.687Z</time></trkpt><trkpt lat="43.823105" lon="12.68331"><ele>72.0</ele><time>2026-04-04T12:33:01.688Z</time></trkpt><trkpt lat="43.823065" lon="12.68319"><ele>72.0</ele><time>2026-04-04T12:33:02.687Z</time></trkpt><trkpt lat="43.823025" lon="12.683075"><ele>72.0</ele><time>2026-04-04T12:33:03.685Z</time></trkpt><trkpt lat="43.822985" lon="12.6829633"><ele>72.0</ele><time>2026-04-04T12:33:04.686Z</time></trkpt><trkpt lat="43.8229467" lon="12.6828633"><ele>72.0</ele><time>2026-04-04T12:33:05.688Z</time></trkpt><trkpt lat="43.8229033" lon="12.682775"><ele>72.0</ele><time>2026-04-04T12:33:06.687Z</time></trkpt><trkpt lat="43.8228617" lon="12.6826983"><ele>72.0</ele><time>2026-04-04T12:33:07.687Z</time></trkpt><trkpt lat="43.8227767" lon="12.6825933"><ele>72.0</ele><time>2026-04-04T12:33:09.689Z</time></trkpt><trkpt lat="43.8226967" lon="12.6825383"><ele>72.0</ele><time>2026-04-04T12:33:11.688Z</time></trkpt><trkpt lat="43.8226267" lon="12.682525"><ele>73.4</ele><time>2026-04-04T12:33:14.688Z</time></trkpt><trkpt lat="43.8225783" lon="12.6825817"><ele>74.80000000000001</ele><time>2026-04-04T12:33:16.688Z</time></trkpt><trkpt lat="43.8225233" lon="12.6827217"><ele>76.2</ele><time>2026-04-04T12:33:18.687Z</time></trkpt><trkpt lat="43.8224917" lon="12.6828233"><ele>77.60000000000001</ele><time>2026-04-04T12:33:19.688Z</time></trkpt><trkpt lat="43.8224583" lon="12.6829433"><ele>79.0</ele><time>2026-04-04T12:33:20.688Z</time></trkpt><trkpt lat="43.82242" lon="12.6830767"><ele>79.75</ele><time>2026-04-04T12:33:21.688Z</time></trkpt><trkpt lat="43.822375" lon="12.6832233"><ele>80.5</ele><time>2026-04-04T12:33:22.689Z</time></trkpt><trkpt lat="43.8223267" lon="12.6833817"><ele>81.25</ele><time>2026-04-04T12:33:23.69Z</time></trkpt><trkpt lat="43.8222783" lon="12.683545"><ele>82.0</ele><time>2026-04-04T12:33:24.687Z</time></trkpt><trkpt lat="43.8222317" lon="12.6837167"><ele>84.0</ele><time>2026-04-04T12:33:25.69Z</time></trkpt><trkpt lat="43.8221883" lon="12.6838967"><ele>86.0</ele><time>2026-04-04T12:33:26.688Z</time></trkpt><trkpt lat="43.8221483" lon="12.6840767"><ele>88.0</ele><time>2026-04-04T12:33:27.686Z</time></trkpt><trkpt lat="43.8221117" lon="12.6842533"><ele>90.0</ele><time>2026-04-04T12:33:28.686Z</time></trkpt><trkpt lat="43.8220767" lon="12.68442"><ele>92.5</ele><time>2026-04-04T12:33:29.688Z</time></trkpt><trkpt lat="43.82204" lon="12.6845733"><ele>95.0</ele><time>2026-04-04T12:33:30.686Z</time></trkpt><trkpt lat="43.8220033" lon="12.6847267"><ele>97.5</ele><time>2026-04-04T12:33:31.688Z</time></trkpt><trkpt lat="43.8219633" lon="12.6848933"><ele>100.0</ele><time>2026-04-04T12:33:32.687Z</time></trkpt><trkpt lat="43.8219233" lon="12.6850583"><ele>100.0</ele><time>2026-04-04T12:33:33.687Z</time></trkpt><trkpt lat="43.821895" lon="12.6852317"><ele>100.0</ele><time>2026-04-04T12:33:34.688Z</time></trkpt><trkpt lat="43.82187" lon="12.6854067"><ele>100.0</ele><time>2026-04-04T12:33:35.688Z</time></trkpt><trkpt lat="43.82186" lon="12.6855867"><ele>100.0</ele><time>2026-04-04T12:33:36.688Z</time></trkpt><trkpt lat="43.8218567" lon="12.6857633"><ele>101.75</ele><time>2026-04-04T12:33:37.689Z</time></trkpt><trkpt lat="43.8218667" lon="12.6859417"><ele>103.5</ele><time>2026-04-04T12:33:38.689Z</time></trkpt><trkpt lat="43.82189" lon="12.686125"><ele>105.25</ele><time>2026-04-04T12:33:39.687Z</time></trkpt><trkpt lat="43.821915" lon="12.6863083"><ele>107.0</ele><time>2026-04-04T12:33:40.689Z</time></trkpt><trkpt lat="43.8219367" lon="12.6864917"><ele>111.5</ele><time>2026-04-04T12:33:41.688Z</time></trkpt><trkpt lat="43.8219483" lon="12.6866817"><ele>116.0</ele><time>2026-04-04T12:33:42.685Z</time></trkpt><trkpt lat="43.8219367" lon="12.68687"><ele>120.5</ele><time>2026-04-04T12:33:43.691Z</time></trkpt><trkpt lat="43.8219133" lon="12.6870567"><ele>125.0</ele><time>2026-04-04T12:33:44.688Z</time></trkpt><trkpt lat="43.8218767" lon="12.6872467"><ele>126.5</ele><time>2026-04-04T12:33:45.688Z</time></trkpt><trkpt lat="43.8218417" lon="12.6874383"><ele>128.0</ele><time>2026-04-04T12:33:46.688Z</time></trkpt><trkpt lat="43.82181" lon="12.6876333"><ele>129.5</ele><time>2026-04-04T12:33:47.686Z</time></trkpt><trkpt lat="43.821775" lon="12.6878267"><ele>131.0</ele><time>2026-04-04T12:33:48.687Z</time></trkpt><trkpt lat="43.8217333" lon="12.6880217"><ele>134.0</ele><time>2026-04-04T12:33:49.688Z</time></trkpt><trkpt lat="43.821675" lon="12.6882133"><ele>137.0</ele><time>2026-04-04T12:33:50.688Z</time></trkpt><trkpt lat="43.8216067" lon="12.6883983"><ele>140.0</ele><time>2026-04-04T12:33:51.687Z</time></trkpt><trkpt lat="43.821535" lon="12.6885733"><ele>143.0</ele><time>2026-04-04T12:33:52.688Z</time></trkpt><trkpt lat="43.82147" lon="12.6887383"><ele>143.75</ele><time>2026-04-04T12:33:53.69Z</time></trkpt><trkpt lat="43.821405" lon="12.6888933"><ele>144.5</ele><time>2026-04-04T12:33:54.687Z</time></trkpt><trkpt lat="43.8213383" lon="12.6890467"><ele>145.25</ele><time>2026-04-04T12:33:55.69Z</time></trkpt><trkpt lat="43.8212717" lon="12.6891883"><ele>146.0</ele><time>2026-04-04T12:33:56.687Z</time></trkpt><trkpt lat="43.821215" lon="12.6893017"><ele>146.0</ele><time>2026-04-04T12:33:57.687Z</time></trkpt><trkpt lat="43.82117" lon="12.6893917"><ele>146.0</ele><time>2026-04-04T12:33:58.688Z</time></trkpt><trkpt lat="43.821105" lon="12.6895067"><ele>146.0</ele><time>2026-04-04T12:34:00.687Z</time></trkpt><trkpt lat="43.8210333" lon="12.689565"><ele>146.0</ele><time>2026-04-04T12:34:03.687Z</time></trkpt><trkpt lat="43.8209233" lon="12.6895683"><ele>146.0</ele><time>2026-04-04T12:34:05.688Z</time></trkpt><trkpt lat="43.82085" lon="12.68953"><ele>147.0</ele><time>2026-04-04T12:34:06.687Z</time></trkpt><trkpt lat="43.82077" lon="12.6894567"><ele>148.0</ele><time>2026-04-04T12:34:07.691Z</time></trkpt><trkpt lat="43.8206933" lon="12.6893567"><ele>149.0</ele><time>2026-04-04T12:34:08.687Z</time></trkpt><trkpt lat="43.82061" lon="12.6892383"><ele>150.0</ele><time>2026-04-04T12:34:09.687Z</time></trkpt><trkpt lat="43.820525" lon="12.6891167"><ele>151.0</ele><time>2026-04-04T12:34:10.688Z</time></trkpt><trkpt lat="43.820435" lon="12.688985"><ele>151.0</ele><time>2026-04-04T12:34:11.687Z</time></trkpt><trkpt lat="43.820345" lon="12.6888483"><ele>151.0</ele><time>2026-04-04T12:34:12.688Z</time></trkpt><trkpt lat="43.8202567" lon="12.6887083"><ele>151.0</ele><time>2026-04-04T12:34:13.694Z</time></trkpt><trkpt lat="43.8201683" lon="12.6885683"><ele>151.0</ele><time>2026-04-04T12:34:14.688Z</time></trkpt><trkpt lat="43.8200783" lon="12.688435"><ele>153.2</ele><time>2026-04-04T12:34:15.687Z</time></trkpt><trkpt lat="43.81999" lon="12.6883083"><ele>155.39999999999998</ele><time>2026-04-04T12:34:16.689Z</time></trkpt><trkpt lat="43.8199083" lon="12.6881883"><ele>157.6</ele><time>2026-04-04T12:34:17.69Z</time></trkpt><trkpt lat="43.8198367" lon="12.68808"><ele>159.79999999999998</ele><time>2026-04-04T12:34:18.686Z</time></trkpt><trkpt lat="43.8197733" lon="12.6879833"><ele>162.0</ele><time>2026-04-04T12:34:19.689Z</time></trkpt><trkpt lat="43.8197217" lon="12.6879017"><ele>162.0</ele><time>2026-04-04T12:34:20.686Z</time></trkpt><trkpt lat="43.819675" lon="12.687835"><ele>162.0</ele><time>2026-04-04T12:34:21.687Z</time></trkpt><trkpt lat="43.81958" lon="12.6877667"><ele>162.0</ele><time>2026-04-04T12:34:23.69Z</time></trkpt><trkpt lat="43.8194867" lon="12.6877817"><ele>162.0</ele><time>2026-04-04T12:34:25.69Z</time></trkpt><trkpt lat="43.81943" lon="12.6878367"><ele>162.0</ele><time>2026-04-04T12:34:26.689Z</time></trkpt><trkpt lat="43.81937" lon="12.687925"><ele>162.0</ele><time>2026-04-04T12:34:27.689Z</time></trkpt><trkpt lat="43.81931" lon="12.688035"><ele>162.25</ele><time>2026-04-04T12:34:28.688Z</time></trkpt><trkpt lat="43.8192367" lon="12.6881683"><ele>162.5</ele><time>2026-04-04T12:34:29.689Z</time></trkpt><trkpt lat="43.8191617" lon="12.68831"><ele>162.75</ele><time>2026-04-04T12:34:30.687Z</time></trkpt><trkpt lat="43.8190817" lon="12.6884533"><ele>163.0</ele><time>2026-04-04T12:34:31.688Z</time></trkpt><trkpt lat="43.819" lon="12.6885967"><ele>165.25</ele><time>2026-04-04T12:34:32.689Z</time></trkpt><trkpt lat="43.8189217" lon="12.6887417"><ele>167.5</ele><time>2026-04-04T12:34:33.687Z</time></trkpt><trkpt lat="43.8188467" lon="12.6888833"><ele>169.75</ele><time>2026-04-04T12:34:34.687Z</time></trkpt><trkpt lat="43.81877" lon="12.6890267"><ele>172.0</ele><time>2026-04-04T12:34:35.689Z</time></trkpt><trkpt lat="43.81869" lon="12.68917"><ele>172.0</ele><time>2026-04-04T12:34:36.688Z</time></trkpt><trkpt lat="43.8186083" lon="12.6893117"><ele>172.0</ele><time>2026-04-04T12:34:37.688Z</time></trkpt><trkpt lat="43.8185283" lon="12.68945"><ele>172.0</ele><time>2026-04-04T12:34:38.688Z</time></trkpt><trkpt lat="43.81845" lon="12.6895883"><ele>172.0</ele><time>2026-04-04T12:34:39.687Z</time></trkpt><trkpt lat="43.81837" lon="12.6897283"><ele>176.5</ele><time>2026-04-04T12:34:40.688Z</time></trkpt><trkpt lat="43.81829" lon="12.689865"><ele>181.0</ele><time>2026-04-04T12:34:41.689Z</time></trkpt><trkpt lat="43.81821" lon="12.6899933"><ele>185.5</ele><time>2026-04-04T12:34:42.688Z</time></trkpt><trkpt lat="43.8181217" lon="12.6900983"><ele>190.0</ele><time>2026-04-04T12:34:43.689Z</time></trkpt><trkpt lat="43.81803" lon="12.69018"><ele>190.0</ele><time>2026-04-04T12:34:44.688Z</time></trkpt><trkpt lat="43.8179383" lon="12.69024"><ele>190.0</ele><time>2026-04-04T12:34:45.688Z</time></trkpt><trkpt lat="43.8178517" lon="12.6902917"><ele>190.0</ele><time>2026-04-04T12:34:46.687Z</time></trkpt><trkpt lat="43.8177733" lon="12.69033"><ele>190.0</ele><time>2026-04-04T12:34:47.688Z</time></trkpt><trkpt lat="43.8176983" lon="12.6903583"><ele>190.0</ele><time>2026-04-04T12:34:48.688Z</time></trkpt><trkpt lat="43.8176217" lon="12.6903767"><ele>190.0</ele><time>2026-04-04T12:34:49.69Z</time></trkpt><trkpt lat="43.8175383" lon="12.6903917"><ele>193.4</ele><time>2026-04-04T12:34:50.687Z</time></trkpt><trkpt lat="43.8174433" lon="12.6904033"><ele>196.8</ele><time>2026-04-04T12:34:51.687Z</time></trkpt><trkpt lat="43.8173483" lon="12.6904133"><ele>200.2</ele><time>2026-04-04T12:34:52.687Z</time></trkpt><trkpt lat="43.8172467" lon="12.6904167"><ele>203.6</ele><time>2026-04-04T12:34:53.688Z</time></trkpt><trkpt lat="43.8171517" lon="12.6904067"><ele>207.0</ele><time>2026-04-04T12:34:54.687Z</time></trkpt><trkpt lat="43.8170717" lon="12.6903767"><ele>207.0</ele><time>2026-04-04T12:34:55.688Z</time></trkpt><trkpt lat="43.8169933" lon="12.6903233"><ele>207.0</ele><time>2026-04-04T12:34:56.689Z</time></trkpt><trkpt lat="43.8169267" lon="12.6902283"><ele>207.0</ele><time>2026-04-04T12:34:57.687Z</time></trkpt><trkpt lat="43.8168717" lon="12.69011"><ele>207.0</ele><time>2026-04-04T12:34:58.687Z</time></trkpt><trkpt lat="43.8168267" lon="12.6899867"><ele>207.0</ele><time>2026-04-04T12:34:59.688Z</time></trkpt><trkpt lat="43.8167833" lon="12.68987"><ele>205.83333333333334</ele><time>2026-04-04T12:35:00.687Z</time></trkpt><trkpt lat="43.8167567" lon="12.6897667"><ele>204.66666666666669</ele><time>2026-04-04T12:35:01.688Z</time></trkpt><trkpt lat="43.8167217" lon="12.6896633"><ele>203.5</ele><time>2026-04-04T12:35:02.688Z</time></trkpt><trkpt lat="43.8166817" lon="12.6895667"><ele>202.33333333333334</ele><time>2026-04-04T12:35:03.687Z</time></trkpt><trkpt lat="43.8166233" lon="12.6894717"><ele>201.16666666666669</ele><time>2026-04-04T12:35:04.686Z</time></trkpt><trkpt lat="43.8165483" lon="12.6893817"><ele>200.0</ele><time>2026-04-04T12:35:05.689Z</time></trkpt><trkpt lat="43.8164633" lon="12.6892833"><ele>198.4</ele><time>2026-04-04T12:35:06.688Z</time></trkpt><trkpt lat="43.816375" lon="12.6891883"><ele>196.8</ele><time>2026-04-04T12:35:07.689Z</time></trkpt><trkpt lat="43.8162917" lon="12.689095"><ele>195.2</ele><time>2026-04-04T12:35:08.688Z</time></trkpt><trkpt lat="43.8162083" lon="12.688995"><ele>193.6</ele><time>2026-04-04T12:35:09.687Z</time></trkpt><trkpt lat="43.8161183" lon="12.6889"><ele>192.0</ele><time>2026-04-04T12:35:10.687Z</time></trkpt><trkpt lat="43.8160283" lon="12.6887933"><ele>193.5</ele><time>2026-04-04T12:35:11.691Z</time></trkpt><trkpt lat="43.815935" lon="12.6886817"><ele>195.0</ele><time>2026-04-04T12:35:12.689Z</time></trkpt><trkpt lat="43.81584" lon="12.6885683"><ele>196.5</ele><time>2026-04-04T12:35:13.689Z</time></trkpt><trkpt lat="43.815745" lon="12.688455"><ele>198.0</ele><time>2026-04-04T12:35:14.689Z</time></trkpt><trkpt lat="43.8156517" lon="12.6883433"><ele>198.0</ele><time>2026-04-04T12:35:15.689Z</time></trkpt><trkpt lat="43.8155717" lon="12.688245"><ele>198.0</ele><time>2026-04-04T12:35:16.687Z</time></trkpt><trkpt lat="43.8155067" lon="12.6881817"><ele>198.0</ele><time>2026-04-04T12:35:17.687Z</time></trkpt><trkpt lat="43.8154383" lon="12.6881433"><ele>198.0</ele><time>2026-04-04T12:35:18.687Z</time></trkpt><trkpt lat="43.815325" lon="12.6881283"><ele>198.0</ele><time>2026-04-04T12:35:20.689Z</time></trkpt><trkpt lat="43.815265" lon="12.688165"><ele>198.0</ele><time>2026-04-04T12:35:21.687Z</time></trkpt><trkpt lat="43.8151967" lon="12.68824"><ele>198.4</ele><time>2026-04-04T12:35:22.687Z</time></trkpt><trkpt lat="43.815125" lon="12.6883317"><ele>198.8</ele><time>2026-04-04T12:35:23.69Z</time></trkpt><trkpt lat="43.8150617" lon="12.6884283"><ele>199.2</ele><time>2026-04-04T12:35:24.688Z</time></trkpt><trkpt lat="43.815005" lon="12.6885383"><ele>199.6</ele><time>2026-04-04T12:35:25.689Z</time></trkpt><trkpt lat="43.8149733" lon="12.688655"><ele>200.0</ele><time>2026-04-04T12:35:26.689Z</time></trkpt><trkpt lat="43.8149667" lon="12.6887733"><ele>201.2</ele><time>2026-04-04T12:35:27.686Z</time></trkpt><trkpt lat="43.814985" lon="12.68889"><ele>202.4</ele><time>2026-04-04T12:35:28.687Z</time></trkpt><trkpt lat="43.8150367" lon="12.68901"><ele>203.60000000000002</ele><time>2026-04-04T12:35:29.689Z</time></trkpt><trkpt lat="43.8151017" lon="12.6891317"><ele>204.8</ele><time>2026-04-04T12:35:30.689Z</time></trkpt><trkpt lat="43.8151617" lon="12.689255"><ele>206.0</ele><time>2026-04-04T12:35:31.69Z</time></trkpt><trkpt lat="43.81521" lon="12.6893817"><ele>207.20000000000002</ele><time>2026-04-04T12:35:32.688Z</time></trkpt><trkpt lat="43.815245" lon="12.689505"><ele>208.4</ele><time>2026-04-04T12:35:33.686Z</time></trkpt><trkpt lat="43.8152567" lon="12.6896333"><ele>209.6</ele><time>2026-04-04T12:35:34.687Z</time></trkpt><trkpt lat="43.8152533" lon="12.68978"><ele>210.8</ele><time>2026-04-04T12:35:35.689Z</time></trkpt><trkpt lat="43.81524" lon="12.6899333"><ele>212.0</ele><time>2026-04-04T12:35:36.688Z</time></trkpt><trkpt lat="43.8152267" lon="12.6900917"><ele>212.0</ele><time>2026-04-04T12:35:37.69Z</time></trkpt><trkpt lat="43.8152167" lon="12.69025"><ele>212.0</ele><time>2026-04-04T12:35:38.687Z</time></trkpt><trkpt lat="43.815195" lon="12.6904017"><ele>212.0</ele><time>2026-04-04T12:35:39.687Z</time></trkpt><trkpt lat="43.8151567" lon="12.690535"><ele>212.0</ele><time>2026-04-04T12:35:40.691Z</time></trkpt><trkpt lat="43.815105" lon="12.6906433"><ele>212.0</ele><time>2026-04-04T12:35:41.689Z</time></trkpt><trkpt lat="43.815025" lon="12.690735"><ele>219.5</ele><time>2026-04-04T12:35:42.687Z</time></trkpt><trkpt lat="43.8149267" lon="12.6908033"><ele>227.0</ele><time>2026-04-04T12:35:43.692Z</time></trkpt><trkpt lat="43.814815" lon="12.690845"><ele>234.5</ele><time>2026-04-04T12:35:44.688Z</time></trkpt><trkpt lat="43.8147" lon="12.69087"><ele>242.0</ele><time>2026-04-04T12:35:45.686Z</time></trkpt><trkpt lat="43.8145867" lon="12.6908883"><ele>242.00000000000003</ele><time>2026-04-04T12:35:46.688Z</time></trkpt><trkpt lat="43.8144883" lon="12.690905"><ele>242.0</ele><time>2026-04-04T12:35:47.685Z</time></trkpt><trkpt lat="43.8144017" lon="12.6909367"><ele>242.0</ele><time>2026-04-04T12:35:48.689Z</time></trkpt><trkpt lat="43.81433" lon="12.69099"><ele>242.0</ele><time>2026-04-04T12:35:49.687Z</time></trkpt><trkpt lat="43.8142717" lon="12.6910633"><ele>242.00000000000003</ele><time>2026-04-04T12:35:50.689Z</time></trkpt><trkpt lat="43.81422" lon="12.6911367"><ele>242.0</ele><time>2026-04-04T12:35:51.686Z</time></trkpt><trkpt lat="43.8142167" lon="12.6912367"><ele>241.0</ele><time>2026-04-04T12:35:52.688Z</time></trkpt><trkpt lat="43.8142267" lon="12.6913433"><ele>240.0</ele><time>2026-04-04T12:35:53.688Z</time></trkpt><trkpt lat="43.8142917" lon="12.6914617"><ele>239.0</ele><time>2026-04-04T12:35:54.689Z</time></trkpt><trkpt lat="43.8144133" lon="12.6915917"><ele>238.0</ele><time>2026-04-04T12:35:55.691Z</time></trkpt><trkpt lat="43.8145117" lon="12.691685"><ele>242.0</ele><time>2026-04-04T12:35:56.686Z</time></trkpt><trkpt lat="43.8146133" lon="12.6918"><ele>246.0</ele><time>2026-04-04T12:35:57.687Z</time></trkpt><trkpt lat="43.8147117" lon="12.6919267"><ele>250.0</ele><time>2026-04-04T12:35:58.688Z</time></trkpt><trkpt lat="43.8147883" lon="12.6920617"><ele>254.0</ele><time>2026-04-04T12:35:59.691Z</time></trkpt><trkpt lat="43.81484" lon="12.692205"><ele>253.75</ele><time>2026-04-04T12:36:00.686Z</time></trkpt><trkpt lat="43.8148917" lon="12.692355"><ele>253.5</ele><time>2026-04-04T12:36:01.689Z</time></trkpt><trkpt lat="43.81494" lon="12.6925083"><ele>253.25</ele><time>2026-04-04T12:36:02.688Z</time></trkpt><trkpt lat="43.8149833" lon="12.6926617"><ele>253.0</ele><time>2026-04-04T12:36:03.686Z</time></trkpt><trkpt lat="43.8150283" lon="12.6928117"><ele>253.0</ele><time>2026-04-04T12:36:04.687Z</time></trkpt><trkpt lat="43.815065" lon="12.6929683"><ele>253.0</ele><time>2026-04-04T12:36:05.688Z</time></trkpt><trkpt lat="43.815105" lon="12.693125"><ele>253.0</ele><time>2026-04-04T12:36:06.688Z</time></trkpt><trkpt lat="43.81514" lon="12.69327"><ele>253.0</ele><time>2026-04-04T12:36:07.69Z</time></trkpt><trkpt lat="43.8151633" lon="12.693395"><ele>253.0</ele><time>2026-04-04T12:36:08.69Z</time></trkpt><trkpt lat="43.81519" lon="12.6934967"><ele>250.4</ele><time>2026-04-04T12:36:09.687Z</time></trkpt><trkpt lat="43.815195" lon="12.69366"><ele>247.8</ele><time>2026-04-04T12:36:11.689Z</time></trkpt><trkpt lat="43.815135" lon="12.693775"><ele>245.2</ele><time>2026-04-04T12:36:13.69Z</time></trkpt><trkpt lat="43.8150567" lon="12.6938233"><ele>242.6</ele><time>2026-04-04T12:36:14.689Z</time></trkpt><trkpt lat="43.8149633" lon="12.69387"><ele>240.0</ele><time>2026-04-04T12:36:15.689Z</time></trkpt><trkpt lat="43.8148733" lon="12.6939167"><ele>240.0</ele><time>2026-04-04T12:36:16.689Z</time></trkpt><trkpt lat="43.8147767" lon="12.69396"><ele>240.0</ele><time>2026-04-04T12:36:17.689Z</time></trkpt><trkpt lat="43.8146783" lon="12.694"><ele>240.0</ele><time>2026-04-04T12:36:18.688Z</time></trkpt><trkpt lat="43.8145817" lon="12.6940417"><ele>240.0</ele><time>2026-04-04T12:36:19.689Z</time></trkpt><trkpt lat="43.8144883" lon="12.6940917"><ele>240.0</ele><time>2026-04-04T12:36:20.688Z</time></trkpt><trkpt lat="43.8143967" lon="12.6941467"><ele>241.6</ele><time>2026-04-04T12:36:21.688Z</time></trkpt><trkpt lat="43.8143083" lon="12.6942017"><ele>243.2</ele><time>2026-04-04T12:36:22.689Z</time></trkpt><trkpt lat="43.8142267" lon="12.6942583"><ele>244.8</ele><time>2026-04-04T12:36:23.688Z</time></trkpt><trkpt lat="43.8141417" lon="12.6943117"><ele>246.4</ele><time>2026-04-04T12:36:24.689Z</time></trkpt><trkpt lat="43.814055" lon="12.6943617"><ele>248.0</ele><time>2026-04-04T12:36:25.689Z</time></trkpt><trkpt lat="43.8139633" lon="12.6944117"><ele>247.2</ele><time>2026-04-04T12:36:26.689Z</time></trkpt><trkpt lat="43.8138767" lon="12.6944683"><ele>246.4</ele><time>2026-04-04T12:36:27.689Z</time></trkpt><trkpt lat="43.8137933" lon="12.6945233"><ele>245.59999999999997</ele><time>2026-04-04T12:36:28.686Z</time></trkpt><trkpt lat="43.8137067" lon="12.6945867"><ele>244.79999999999998</ele><time>2026-04-04T12:36:29.688Z</time></trkpt><trkpt lat="43.81362" lon="12.6946517"><ele>244.0</ele><time>2026-04-04T12:36:30.689Z</time></trkpt><trkpt lat="43.8135317" lon="12.6947183"><ele>246.2</ele><time>2026-04-04T12:36:31.69Z</time></trkpt><trkpt lat="43.8134417" lon="12.6947883"><ele>248.39999999999998</ele><time>2026-04-04T12:36:32.686Z</time></trkpt><trkpt lat="43.81335" lon="12.6948617"><ele>250.6</ele><time>2026-04-04T12:36:33.687Z</time></trkpt><trkpt lat="43.8132583" lon="12.6949383"><ele>252.8</ele><time>2026-04-04T12:36:34.688Z</time></trkpt><trkpt lat="43.8131683" lon="12.6950167"><ele>255.0</ele><time>2026-04-04T12:36:35.69Z</time></trkpt><trkpt lat="43.8130833" lon="12.6950933"><ele>255.0</ele><time>2026-04-04T12:36:36.689Z</time></trkpt><trkpt lat="43.8129983" lon="12.6951733"><ele>255.0</ele><time>2026-04-04T12:36:37.689Z</time></trkpt><trkpt lat="43.8129133" lon="12.69526"><ele>255.0</ele><time>2026-04-04T12:36:38.688Z</time></trkpt><trkpt lat="43.812835" lon="12.6953517"><ele>255.0</ele><time>2026-04-04T12:36:39.686Z</time></trkpt><trkpt lat="43.812765" lon="12.695455"><ele>255.0</ele><time>2026-04-04T12:36:40.689Z</time></trkpt><trkpt lat="43.8127017" lon="12.6955567"><ele>256.2</ele><time>2026-04-04T12:36:41.688Z</time></trkpt><trkpt lat="43.8126583" lon="12.6956683"><ele>257.4</ele><time>2026-04-04T12:36:42.689Z</time></trkpt><trkpt lat="43.812625" lon="12.6957683"><ele>258.6</ele><time>2026-04-04T12:36:43.69Z</time></trkpt><trkpt lat="43.8125983" lon="12.69585"><ele>259.8</ele><time>2026-04-04T12:36:44.689Z</time></trkpt><trkpt lat="43.8125667" lon="12.6960083"><ele>261.0</ele><time>2026-04-04T12:36:46.688Z</time></trkpt><trkpt lat="43.8125333" lon="12.6961533"><ele>263.6</ele><time>2026-04-04T12:36:48.688Z</time></trkpt><trkpt lat="43.8124617" lon="12.6962733"><ele>266.20000000000005</ele><time>2026-04-04T12:36:50.687Z</time></trkpt><trkpt lat="43.8123533" lon="12.6963167"><ele>268.79999999999995</ele><time>2026-04-04T12:36:52.688Z</time></trkpt><trkpt lat="43.8122867" lon="12.696295"><ele>271.4</ele><time>2026-04-04T12:36:54.688Z</time></trkpt><trkpt lat="43.8122117" lon="12.6962083"><ele>274.0</ele><time>2026-04-04T12:37:57.687Z</time></trkpt><trkpt lat="43.8121967" lon="12.6961233"><ele>273.59999999999997</ele><time>2026-04-04T12:37:58.687Z</time></trkpt><trkpt lat="43.8121833" lon="12.6960133"><ele>273.2</ele><time>2026-04-04T12:37:59.688Z</time></trkpt><trkpt lat="43.8121667" lon="12.695885"><ele>272.79999999999995</ele><time>2026-04-04T12:38:00.688Z</time></trkpt><trkpt lat="43.8121417" lon="12.6957367"><ele>272.4</ele><time>2026-04-04T12:38:01.689Z</time></trkpt><trkpt lat="43.8121133" lon="12.6955783"><ele>272.0</ele><time>2026-04-04T12:38:02.688Z</time></trkpt><trkpt lat="43.8120767" lon="12.6954233"><ele>272.0</ele><time>2026-04-04T12:38:03.688Z</time></trkpt><trkpt lat="43.812025" lon="12.6952867"><ele>272.0</ele><time>2026-04-04T12:38:04.688Z</time></trkpt><trkpt lat="43.8119533" lon="12.69518"><ele>272.0</ele><time>2026-04-04T12:38:05.69Z</time></trkpt><trkpt lat="43.8118617" lon="12.69511"><ele>272.0</ele><time>2026-04-04T12:38:06.687Z</time></trkpt><trkpt lat="43.8117517" lon="12.69508"><ele>272.0</ele><time>2026-04-04T12:38:07.689Z</time></trkpt><trkpt lat="43.8116283" lon="12.6950833"><ele>270.5</ele><time>2026-04-04T12:38:08.685Z</time></trkpt><trkpt lat="43.811495" lon="12.69512"><ele>269.0</ele><time>2026-04-04T12:38:09.687Z</time></trkpt><trkpt lat="43.8113583" lon="12.6951633"><ele>267.5</ele><time>2026-04-04T12:38:10.688Z</time></trkpt><trkpt lat="43.8112283" lon="12.6952117"><ele>266.0</ele><time>2026-04-04T12:38:11.688Z</time></trkpt><trkpt lat="43.811105" lon="12.6952533"><ele>265.6</ele><time>2026-04-04T12:38:12.688Z</time></trkpt><trkpt lat="43.810995" lon="12.6952733"><ele>265.20000000000005</ele><time>2026-04-04T12:38:13.691Z</time></trkpt><trkpt lat="43.8108867" lon="12.695255"><ele>264.79999999999995</ele><time>2026-04-04T12:38:14.688Z</time></trkpt><trkpt lat="43.8107867" lon="12.6952033"><ele>264.4</ele><time>2026-04-04T12:38:15.687Z</time></trkpt><trkpt lat="43.8107033" lon="12.6951133"><ele>264.0</ele><time>2026-04-04T12:38:16.688Z</time></trkpt><trkpt lat="43.810635" lon="12.6949817"><ele>261.5</ele><time>2026-04-04T12:38:17.688Z</time></trkpt><trkpt lat="43.8105817" lon="12.6948183"><ele>259.0</ele><time>2026-04-04T12:38:18.688Z</time></trkpt><trkpt lat="43.8105333" lon="12.6946533"><ele>256.5</ele><time>2026-04-04T12:38:19.69Z</time></trkpt><trkpt lat="43.8104817" lon="12.6945"><ele>254.0</ele><time>2026-04-04T12:38:20.687Z</time></trkpt><trkpt lat="43.8104333" lon="12.6943517"><ele>253.0</ele><time>2026-04-04T12:38:21.687Z</time></trkpt><trkpt lat="43.8103917" lon="12.6942117"><ele>251.99999999999997</ele><time>2026-04-04T12:38:22.689Z</time></trkpt><trkpt lat="43.8103533" lon="12.6940817"><ele>250.99999999999997</ele><time>2026-04-04T12:38:23.686Z</time></trkpt><trkpt lat="43.8103217" lon="12.6939767"><ele>250.0</ele><time>2026-04-04T12:38:24.687Z</time></trkpt><trkpt lat="43.810285" lon="12.693845"><ele>249.0</ele><time>2026-04-04T12:38:26.688Z</time></trkpt><trkpt lat="43.8102433" lon="12.6937117"><ele>249.0</ele><time>2026-04-04T12:38:28.687Z</time></trkpt><trkpt lat="43.8102117" lon="12.6936167"><ele>248.99999999999997</ele><time>2026-04-04T12:38:29.688Z</time></trkpt><trkpt lat="43.8101767" lon="12.6935"><ele>248.99999999999997</ele><time>2026-04-04T12:38:30.691Z</time></trkpt><trkpt lat="43.81013" lon="12.693355"><ele>249.0</ele><time>2026-04-04T12:38:31.688Z</time></trkpt><trkpt lat="43.81008" lon="12.6932"><ele>249.0</ele><time>2026-04-04T12:38:32.689Z</time></trkpt><trkpt lat="43.81003" lon="12.693035"><ele>245.75</ele><time>2026-04-04T12:38:33.687Z</time></trkpt><trkpt lat="43.8099717" lon="12.6928617"><ele>242.5</ele><time>2026-04-04T12:38:34.688Z</time></trkpt><trkpt lat="43.8099067" lon="12.6926867"><ele>239.25</ele><time>2026-04-04T12:38:35.689Z</time></trkpt><trkpt lat="43.809825" lon="12.6925183"><ele>236.0</ele><time>2026-04-04T12:38:36.687Z</time></trkpt><trkpt lat="43.809735" lon="12.6923683"><ele>234.5</ele><time>2026-04-04T12:38:37.69Z</time></trkpt><trkpt lat="43.8096383" lon="12.692235"><ele>233.0</ele><time>2026-04-04T12:38:38.688Z</time></trkpt><trkpt lat="43.809535" lon="12.69211"><ele>231.5</ele><time>2026-04-04T12:38:39.687Z</time></trkpt><trkpt lat="43.8094267" lon="12.6919833"><ele>230.0</ele><time>2026-04-04T12:38:40.689Z</time></trkpt><trkpt lat="43.80932" lon="12.6918467"><ele>230.0</ele><time>2026-04-04T12:38:41.688Z</time></trkpt><trkpt lat="43.8092217" lon="12.6916883"><ele>230.0</ele><time>2026-04-04T12:38:42.689Z</time></trkpt><trkpt lat="43.8091383" lon="12.6915233"><ele>230.0</ele><time>2026-04-04T12:38:43.69Z</time></trkpt><trkpt lat="43.8090617" lon="12.6913617"><ele>230.0</ele><time>2026-04-04T12:38:44.687Z</time></trkpt><trkpt lat="43.8089933" lon="12.6912017"><ele>230.25</ele><time>2026-04-04T12:38:45.688Z</time></trkpt><trkpt lat="43.8089333" lon="12.6910417"><ele>230.5</ele><time>2026-04-04T12:38:46.688Z</time></trkpt><trkpt lat="43.80888" lon="12.6908817"><ele>230.75</ele><time>2026-04-04T12:38:47.688Z</time></trkpt><trkpt lat="43.808835" lon="12.6907183"><ele>231.0</ele><time>2026-04-04T12:38:48.688Z</time></trkpt><trkpt lat="43.8087917" lon="12.6905517"><ele>231.0</ele><time>2026-04-04T12:38:49.69Z</time></trkpt><trkpt lat="43.8087517" lon="12.6903733"><ele>231.0</ele><time>2026-04-04T12:38:50.687Z</time></trkpt><trkpt lat="43.80872" lon="12.6901883"><ele>231.0</ele><time>2026-04-04T12:38:51.688Z</time></trkpt><trkpt lat="43.8086933" lon="12.6899983"><ele>231.0</ele><time>2026-04-04T12:38:52.688Z</time></trkpt><trkpt lat="43.8086633" lon="12.6898067"><ele>231.0</ele><time>2026-04-04T12:38:53.687Z</time></trkpt><trkpt lat="43.808625" lon="12.689615"><ele>231.0</ele><time>2026-04-04T12:38:54.688Z</time></trkpt><trkpt lat="43.8085783" lon="12.6894217"><ele>231.0</ele><time>2026-04-04T12:38:55.69Z</time></trkpt><trkpt lat="43.8085217" lon="12.689225"><ele>231.0</ele><time>2026-04-04T12:38:56.688Z</time></trkpt><trkpt lat="43.8084633" lon="12.689025"><ele>231.0</ele><time>2026-04-04T12:38:57.687Z</time></trkpt><trkpt lat="43.8084" lon="12.6888233"><ele>231.0</ele><time>2026-04-04T12:38:58.687Z</time></trkpt><trkpt lat="43.8083317" lon="12.6886267"><ele>231.0</ele><time>2026-04-04T12:38:59.688Z</time></trkpt><trkpt lat="43.8082617" lon="12.68844"><ele>231.0</ele><time>2026-04-04T12:39:00.689Z</time></trkpt><trkpt lat="43.8082017" lon="12.68827"><ele>231.0</ele><time>2026-04-04T12:39:01.688Z</time></trkpt><trkpt lat="43.8081433" lon="12.688105"><ele>231.0</ele><time>2026-04-04T12:39:02.687Z</time></trkpt><trkpt lat="43.8080867" lon="12.68794"><ele>231.0</ele><time>2026-04-04T12:39:03.689Z</time></trkpt><trkpt lat="43.8080333" lon="12.687765"><ele>230.25</ele><time>2026-04-04T12:39:04.689Z</time></trkpt><trkpt lat="43.8079817" lon="12.68758"><ele>229.5</ele><time>2026-04-04T12:39:05.688Z</time></trkpt><trkpt lat="43.8079317" lon="12.6873833"><ele>228.75</ele><time>2026-04-04T12:39:06.689Z</time></trkpt><trkpt lat="43.8078867" lon="12.6871767"><ele>228.0</ele><time>2026-04-04T12:39:07.689Z</time></trkpt><trkpt lat="43.8078417" lon="12.6869683"><ele>227.75</ele><time>2026-04-04T12:39:08.687Z</time></trkpt><trkpt lat="43.8078017" lon="12.6867683"><ele>227.5</ele><time>2026-04-04T12:39:09.688Z</time></trkpt><trkpt lat="43.8077633" lon="12.6865833"><ele>227.25</ele><time>2026-04-04T12:39:10.689Z</time></trkpt><trkpt lat="43.807715" lon="12.68641"><ele>227.0</ele><time>2026-04-04T12:39:11.688Z</time></trkpt><trkpt lat="43.80765" lon="12.68625"><ele>227.0</ele><time>2026-04-04T12:39:12.688Z</time></trkpt><trkpt lat="43.807565" lon="12.6861017"><ele>227.0</ele><time>2026-04-04T12:39:13.69Z</time></trkpt><trkpt lat="43.807465" lon="12.6859633"><ele>227.0</ele><time>2026-04-04T12:39:14.689Z</time></trkpt><trkpt lat="43.8073583" lon="12.68583"><ele>227.0</ele><time>2026-04-04T12:39:15.688Z</time></trkpt><trkpt lat="43.8072483" lon="12.685705"><ele>228.66666666666669</ele><time>2026-04-04T12:39:16.688Z</time></trkpt><trkpt lat="43.8071317" lon="12.6855783"><ele>230.33333333333331</ele><time>2026-04-04T12:39:17.688Z</time></trkpt><trkpt lat="43.8070133" lon="12.6854483"><ele>232.0</ele><time>2026-04-04T12:39:18.687Z</time></trkpt><trkpt lat="43.8068933" lon="12.6853117"><ele>228.0</ele><time>2026-04-04T12:39:19.687Z</time></trkpt><trkpt lat="43.806775" lon="12.6851733"><ele>224.0</ele><time>2026-04-04T12:39:20.687Z</time></trkpt><trkpt lat="43.806655" lon="12.685035"><ele>220.0</ele><time>2026-04-04T12:39:21.686Z</time></trkpt><trkpt lat="43.8065317" lon="12.6848967"><ele>220.0</ele><time>2026-04-04T12:39:22.688Z</time></trkpt><trkpt lat="43.8064083" lon="12.6847533"><ele>220.0</ele><time>2026-04-04T12:39:23.687Z</time></trkpt><trkpt lat="43.8062817" lon="12.6846117"><ele>220.0</ele><time>2026-04-04T12:39:24.688Z</time></trkpt><trkpt lat="43.8061533" lon="12.6844717"><ele>216.66666666666666</ele><time>2026-04-04T12:39:25.691Z</time></trkpt><trkpt lat="43.8060217" lon="12.684335"><ele>213.33333333333331</ele><time>2026-04-04T12:39:26.686Z</time></trkpt><trkpt lat="43.8058933" lon="12.6842"><ele>210.0</ele><time>2026-04-04T12:39:27.687Z</time></trkpt><trkpt lat="43.8057683" lon="12.6840583"><ele>210.0</ele><time>2026-04-04T12:39:28.688Z</time></trkpt><trkpt lat="43.8056533" lon="12.683905"><ele>210.0</ele><time>2026-04-04T12:39:29.688Z</time></trkpt><trkpt lat="43.8055417" lon="12.6837433"><ele>210.0</ele><time>2026-04-04T12:39:30.69Z</time></trkpt><trkpt lat="43.80543" lon="12.68358"><ele>210.0</ele><time>2026-04-04T12:39:31.687Z</time></trkpt><trkpt lat="43.805315" lon="12.6834183"><ele>210.0</ele><time>2026-04-04T12:39:32.687Z</time></trkpt><trkpt lat="43.8051933" lon="12.6832583"><ele>210.0</ele><time>2026-04-04T12:39:33.688Z</time></trkpt><trkpt lat="43.80507" lon="12.6831033"><ele>210.0</ele><time>2026-04-04T12:39:34.687Z</time></trkpt><trkpt lat="43.8049483" lon="12.68295"><ele>210.0</ele><time>2026-04-04T12:39:35.688Z</time></trkpt><trkpt lat="43.8048233" lon="12.6828017"><ele>210.0</ele><time>2026-04-04T12:39:36.688Z</time></trkpt><trkpt lat="43.8046983" lon="12.682655"><ele>210.0</ele><time>2026-04-04T12:39:37.689Z</time></trkpt><trkpt lat="43.8045717" lon="12.68251"><ele>210.0</ele><time>2026-04-04T12:39:38.687Z</time></trkpt><trkpt lat="43.8044433" lon="12.682365"><ele>210.0</ele><time>2026-04-04T12:39:39.688Z</time></trkpt><trkpt lat="43.8043117" lon="12.6822233"><ele>210.0</ele><time>2026-04-04T12:39:40.688Z</time></trkpt><trkpt lat="43.80418" lon="12.6820933"><ele>210.0</ele><time>2026-04-04T12:39:41.688Z</time></trkpt><trkpt lat="43.80405" lon="12.68197"><ele>210.0</ele><time>2026-04-04T12:39:42.689Z</time></trkpt><trkpt lat="43.8039233" lon="12.68185"><ele>211.0</ele><time>2026-04-04T12:39:43.689Z</time></trkpt><trkpt lat="43.8038017" lon="12.6817417"><ele>212.0</ele><time>2026-04-04T12:39:44.69Z</time></trkpt><trkpt lat="43.8036833" lon="12.6816417"><ele>213.0</ele><time>2026-04-04T12:39:45.688Z</time></trkpt><trkpt lat="43.8035633" lon="12.6815483"><ele>214.0</ele><time>2026-04-04T12:39:46.688Z</time></trkpt><trkpt lat="43.8034317" lon="12.681465"><ele>214.0</ele><time>2026-04-04T12:39:47.686Z</time></trkpt><trkpt lat="43.8032933" lon="12.681395"><ele>214.0</ele><time>2026-04-04T12:39:48.688Z</time></trkpt><trkpt lat="43.8031517" lon="12.6813333"><ele>214.0</ele><time>2026-04-04T12:39:49.689Z</time></trkpt><trkpt lat="43.8030067" lon="12.6812733"><ele>214.0</ele><time>2026-04-04T12:39:50.687Z</time></trkpt><trkpt lat="43.8028633" lon="12.6812117"><ele>214.0</ele><time>2026-04-04T12:39:51.687Z</time></trkpt><trkpt lat="43.8027167" lon="12.6811517"><ele>214.0</ele><time>2026-04-04T12:39:52.688Z</time></trkpt><trkpt lat="43.80257" lon="12.6810933"><ele>214.0</ele><time>2026-04-04T12:39:53.687Z</time></trkpt><trkpt lat="43.8024217" lon="12.681025"><ele>215.0</ele><time>2026-04-04T12:39:54.688Z</time></trkpt><trkpt lat="43.8022783" lon="12.6809467"><ele>216.0</ele><time>2026-04-04T12:39:55.689Z</time></trkpt><trkpt lat="43.8021367" lon="12.6808583"><ele>217.0</ele><time>2026-04-04T12:39:56.687Z</time></trkpt><trkpt lat="43.8020017" lon="12.68076"><ele>217.0</ele><time>2026-04-04T12:39:57.687Z</time></trkpt><trkpt lat="43.8018733" lon="12.6806617"><ele>217.0</ele><time>2026-04-04T12:39:58.688Z</time></trkpt><trkpt lat="43.8017483" lon="12.680575"><ele>217.0</ele><time>2026-04-04T12:39:59.685Z</time></trkpt><trkpt lat="43.8016267" lon="12.6805017"><ele>217.0</ele><time>2026-04-04T12:40:00.688Z</time></trkpt><trkpt lat="43.8015083" lon="12.6804417"><ele>219.25</ele><time>2026-04-04T12:40:01.69Z</time></trkpt><trkpt lat="43.8013867" lon="12.6804"><ele>221.5</ele><time>2026-04-04T12:40:02.689Z</time></trkpt><trkpt lat="43.80126" lon="12.6803683"><ele>223.75</ele><time>2026-04-04T12:40:03.686Z</time></trkpt><trkpt lat="43.8011333" lon="12.6803483"><ele>226.0</ele><time>2026-04-04T12:40:04.687Z</time></trkpt><trkpt lat="43.8010117" lon="12.6803333"><ele>227.75</ele><time>2026-04-04T12:40:05.689Z</time></trkpt><trkpt lat="43.8008967" lon="12.68032"><ele>229.5</ele><time>2026-04-04T12:40:06.688Z</time></trkpt><trkpt lat="43.8007833" lon="12.6803017"><ele>231.25</ele><time>2026-04-04T12:40:07.691Z</time></trkpt><trkpt lat="43.8006667" lon="12.6802833"><ele>233.0</ele><time>2026-04-04T12:40:08.688Z</time></trkpt><trkpt lat="43.8005467" lon="12.680275"><ele>233.0</ele><time>2026-04-04T12:40:09.687Z</time></trkpt><trkpt lat="43.8004217" lon="12.68029"><ele>233.0</ele><time>2026-04-04T12:40:10.688Z</time></trkpt><trkpt lat="43.8003017" lon="12.6803383"><ele>233.0</ele><time>2026-04-04T12:40:11.689Z</time></trkpt><trkpt lat="43.8001833" lon="12.6804083"><ele>233.0</ele><time>2026-04-04T12:40:12.688Z</time></trkpt><trkpt lat="43.8000683" lon="12.6804867"><ele>236.25</ele><time>2026-04-04T12:40:13.691Z</time></trkpt><trkpt lat="43.7999567" lon="12.6805667"><ele>239.5</ele><time>2026-04-04T12:40:14.688Z</time></trkpt><trkpt lat="43.799845" lon="12.6806467"><ele>242.75</ele><time>2026-04-04T12:40:15.688Z</time></trkpt><trkpt lat="43.7997383" lon="12.6807233"><ele>246.0</ele><time>2026-04-04T12:40:16.687Z</time></trkpt><trkpt lat="43.799645" lon="12.6807883"><ele>246.0</ele><time>2026-04-04T12:40:17.688Z</time></trkpt><trkpt lat="43.7995617" lon="12.68084"><ele>246.00000000000003</ele><time>2026-04-04T12:40:18.687Z</time></trkpt><trkpt lat="43.7994967" lon="12.6808783"><ele>246.00000000000003</ele><time>2026-04-04T12:40:19.689Z</time></trkpt><trkpt lat="43.79943" lon="12.6809567"><ele>246.0</ele><time>2026-04-04T12:40:21.686Z</time></trkpt><trkpt lat="43.799425" lon="12.6810883"><ele>246.0</ele><time>2026-04-04T12:40:23.688Z</time></trkpt><trkpt lat="43.7994567" lon="12.6812817"><ele>246.20000000000002</ele><time>2026-04-04T12:40:25.688Z</time></trkpt><trkpt lat="43.7994733" lon="12.6814167"><ele>246.40000000000003</ele><time>2026-04-04T12:40:26.688Z</time></trkpt><trkpt lat="43.7994783" lon="12.6815633"><ele>246.6</ele><time>2026-04-04T12:40:27.687Z</time></trkpt><trkpt lat="43.7994817" lon="12.6817117"><ele>246.8</ele><time>2026-04-04T12:40:28.688Z</time></trkpt><trkpt lat="43.7994917" lon="12.68186"><ele>247.0</ele><time>2026-04-04T12:40:29.69Z</time></trkpt><trkpt lat="43.7995" lon="12.6820083"><ele>247.83333333333331</ele><time>2026-04-04T12:40:30.687Z</time></trkpt><trkpt lat="43.7994983" lon="12.6821433"><ele>248.66666666666666</ele><time>2026-04-04T12:40:31.689Z</time></trkpt><trkpt lat="43.799495" lon="12.68227"><ele>249.5</ele><time>2026-04-04T12:40:32.688Z</time></trkpt><trkpt lat="43.7994983" lon="12.68239"><ele>250.33333333333331</ele><time>2026-04-04T12:40:33.689Z</time></trkpt><trkpt lat="43.7994983" lon="12.682505"><ele>251.16666666666666</ele><time>2026-04-04T12:40:34.689Z</time></trkpt><trkpt lat="43.7995017" lon="12.6826167"><ele>252.0</ele><time>2026-04-04T12:40:35.689Z</time></trkpt><trkpt lat="43.7995017" lon="12.6827367"><ele>253.2</ele><time>2026-04-04T12:40:36.689Z</time></trkpt><trkpt lat="43.7994967" lon="12.6828633"><ele>254.39999999999998</ele><time>2026-04-04T12:40:37.687Z</time></trkpt><trkpt lat="43.799485" lon="12.6830017"><ele>255.60000000000002</ele><time>2026-04-04T12:40:38.689Z</time></trkpt><trkpt lat="43.7994833" lon="12.683155"><ele>256.8</ele><time>2026-04-04T12:40:39.687Z</time></trkpt><trkpt lat="43.79949" lon="12.6833117"><ele>258.0</ele><time>2026-04-04T12:40:40.687Z</time></trkpt><trkpt lat="43.7995033" lon="12.6834783"><ele>257.75</ele><time>2026-04-04T12:40:41.689Z</time></trkpt><trkpt lat="43.7995167" lon="12.68365"><ele>257.5</ele><time>2026-04-04T12:40:42.689Z</time></trkpt><trkpt lat="43.7995317" lon="12.6838217"><ele>257.25</ele><time>2026-04-04T12:40:43.69Z</time></trkpt><trkpt lat="43.7995467" lon="12.68399"><ele>257.0</ele><time>2026-04-04T12:40:44.688Z</time></trkpt><trkpt lat="43.7995583" lon="12.6841567"><ele>257.0</ele><time>2026-04-04T12:40:45.689Z</time></trkpt><trkpt lat="43.7995733" lon="12.6843217"><ele>257.0</ele><time>2026-04-04T12:40:46.686Z</time></trkpt><trkpt lat="43.799585" lon="12.684485"><ele>257.0</ele><time>2026-04-04T12:40:47.689Z</time></trkpt><trkpt lat="43.799595" lon="12.6846483"><ele>257.0</ele><time>2026-04-04T12:40:48.687Z</time></trkpt><trkpt lat="43.79961" lon="12.6848167"><ele>257.5</ele><time>2026-04-04T12:40:49.69Z</time></trkpt><trkpt lat="43.7996267" lon="12.684985"><ele>258.0</ele><time>2026-04-04T12:40:50.688Z</time></trkpt><trkpt lat="43.7996483" lon="12.685155"><ele>258.5</ele><time>2026-04-04T12:40:51.688Z</time></trkpt><trkpt lat="43.7996717" lon="12.6853267"><ele>259.0</ele><time>2026-04-04T12:40:52.688Z</time></trkpt><trkpt lat="43.79969" lon="12.685505"><ele>260.0</ele><time>2026-04-04T12:40:53.689Z</time></trkpt><trkpt lat="43.7997083" lon="12.6856867"><ele>261.0</ele><time>2026-04-04T12:40:54.689Z</time></trkpt><trkpt lat="43.7997283" lon="12.68587"><ele>262.0</ele><time>2026-04-04T12:40:55.689Z</time></trkpt><trkpt lat="43.7997433" lon="12.686055"><ele>263.0</ele><time>2026-04-04T12:40:56.688Z</time></trkpt><trkpt lat="43.7997617" lon="12.6862383"><ele>263.0</ele><time>2026-04-04T12:40:57.687Z</time></trkpt><trkpt lat="43.79978" lon="12.6864233"><ele>263.0</ele><time>2026-04-04T12:40:58.688Z</time></trkpt><trkpt lat="43.7997933" lon="12.6866117"><ele>263.0</ele><time>2026-04-04T12:40:59.689Z</time></trkpt><trkpt lat="43.799805" lon="12.6867983"><ele>263.0</ele><time>2026-04-04T12:41:00.688Z</time></trkpt><trkpt lat="43.7998167" lon="12.6869867"><ele>263.0</ele><time>2026-04-04T12:41:01.69Z</time></trkpt><trkpt lat="43.79983" lon="12.6871833"><ele>263.0</ele><time>2026-04-04T12:41:02.689Z</time></trkpt><trkpt lat="43.7998383" lon="12.687385"><ele>263.0</ele><time>2026-04-04T12:41:03.689Z</time></trkpt><trkpt lat="43.7998383" lon="12.6875683"><ele>263.0</ele><time>2026-04-04T12:41:04.688Z</time></trkpt><trkpt lat="43.7998317" lon="12.68774"><ele>262.83333333333337</ele><time>2026-04-04T12:41:05.692Z</time></trkpt><trkpt lat="43.7998233" lon="12.6878983"><ele>262.6666666666667</ele><time>2026-04-04T12:41:06.689Z</time></trkpt><trkpt lat="43.7998133" lon="12.6880367"><ele>262.5</ele><time>2026-04-04T12:41:07.69Z</time></trkpt><trkpt lat="43.7998017" lon="12.68815"><ele>262.3333333333333</ele><time>2026-04-04T12:41:08.689Z</time></trkpt><trkpt lat="43.7997917" lon="12.6882467"><ele>262.16666666666663</ele><time>2026-04-04T12:41:09.689Z</time></trkpt><trkpt lat="43.799775" lon="12.6883333"><ele>262.0</ele><time>2026-04-04T12:41:10.689Z</time></trkpt><trkpt lat="43.79971" lon="12.688465"><ele>262.0</ele><time>2026-04-04T12:41:12.689Z</time></trkpt><trkpt lat="43.7996183" lon="12.688475"><ele>262.0</ele><time>2026-04-04T12:41:14.688Z</time></trkpt><trkpt lat="43.7995" lon="12.6883967"><ele>262.0</ele><time>2026-04-04T12:41:16.687Z</time></trkpt><trkpt lat="43.799425" lon="12.68833"><ele>262.0</ele><time>2026-04-04T12:41:17.688Z</time></trkpt><trkpt lat="43.799335" lon="12.68825"><ele>262.0</ele><time>2026-04-04T12:41:18.688Z</time></trkpt><trkpt lat="43.7992333" lon="12.6881617"><ele>262.25</ele><time>2026-04-04T12:41:19.689Z</time></trkpt><trkpt lat="43.7991267" lon="12.6880667"><ele>262.5</ele><time>2026-04-04T12:41:20.688Z</time></trkpt><trkpt lat="43.79901" lon="12.6879633"><ele>262.75</ele><time>2026-04-04T12:41:21.686Z</time></trkpt><trkpt lat="43.7988833" lon="12.6878517"><ele>263.0</ele><time>2026-04-04T12:41:22.69Z</time></trkpt><trkpt lat="43.79875" lon="12.6877367"><ele>264.6666666666667</ele><time>2026-04-04T12:41:23.691Z</time></trkpt><trkpt lat="43.79861" lon="12.6876217"><ele>266.3333333333333</ele><time>2026-04-04T12:41:24.689Z</time></trkpt><trkpt lat="43.7984667" lon="12.6875017"><ele>268.0</ele><time>2026-04-04T12:41:25.692Z</time></trkpt><trkpt lat="43.798325" lon="12.6873833"><ele>268.0</ele><time>2026-04-04T12:41:26.691Z</time></trkpt><trkpt lat="43.7981883" lon="12.687265"><ele>268.0</ele><time>2026-04-04T12:41:27.689Z</time></trkpt><trkpt lat="43.798055" lon="12.687145"><ele>268.0</ele><time>2026-04-04T12:41:28.689Z</time></trkpt><trkpt lat="43.7979267" lon="12.68703"><ele>271.0</ele><time>2026-04-04T12:41:29.688Z</time></trkpt><trkpt lat="43.7978067" lon="12.6869183"><ele>274.0</ele><time>2026-04-04T12:41:30.688Z</time></trkpt><trkpt lat="43.7976933" lon="12.6868167"><ele>277.0</ele><time>2026-04-04T12:41:31.689Z</time></trkpt><trkpt lat="43.7975817" lon="12.6867367"><ele>280.0</ele><time>2026-04-04T12:41:32.689Z</time></trkpt><trkpt lat="43.7974617" lon="12.6866833"><ele>280.0</ele><time>2026-04-04T12:41:33.689Z</time></trkpt><trkpt lat="43.7973267" lon="12.6866533"><ele>280.0</ele><time>2026-04-04T12:41:34.688Z</time></trkpt><trkpt lat="43.7971733" lon="12.686645"><ele>280.0</ele><time>2026-04-04T12:41:35.687Z</time></trkpt><trkpt lat="43.7970133" lon="12.6866567"><ele>280.0</ele><time>2026-04-04T12:41:36.688Z</time></trkpt><trkpt lat="43.79685" lon="12.6866733"><ele>280.0</ele><time>2026-04-04T12:41:37.69Z</time></trkpt><trkpt lat="43.7966833" lon="12.6866917"><ele>280.0</ele><time>2026-04-04T12:41:38.687Z</time></trkpt><trkpt lat="43.7965167" lon="12.68671"><ele>280.5</ele><time>2026-04-04T12:41:39.688Z</time></trkpt><trkpt lat="43.796355" lon="12.6867283"><ele>281.0</ele><time>2026-04-04T12:41:40.69Z</time></trkpt><trkpt lat="43.7962067" lon="12.6867517"><ele>281.5</ele><time>2026-04-04T12:41:41.689Z</time></trkpt><trkpt lat="43.7960733" lon="12.6867733"><ele>282.0</ele><time>2026-04-04T12:41:42.689Z</time></trkpt><trkpt lat="43.7959533" lon="12.68679"><ele>282.6</ele><time>2026-04-04T12:41:43.691Z</time></trkpt><trkpt lat="43.7958417" lon="12.686805"><ele>283.2</ele><time>2026-04-04T12:41:44.689Z</time></trkpt><trkpt lat="43.7957317" lon="12.686825"><ele>283.8</ele><time>2026-04-04T12:41:45.689Z</time></trkpt><trkpt lat="43.795625" lon="12.6868433"><ele>284.4</ele><time>2026-04-04T12:41:46.687Z</time></trkpt><trkpt lat="43.7955217" lon="12.6868633"><ele>285.0</ele><time>2026-04-04T12:41:47.687Z</time></trkpt><trkpt lat="43.79542" lon="12.686885"><ele>285.0</ele><time>2026-04-04T12:41:48.69Z</time></trkpt><trkpt lat="43.795325" lon="12.686905"><ele>285.0</ele><time>2026-04-04T12:41:49.688Z</time></trkpt><trkpt lat="43.7952333" lon="12.6869267"><ele>285.0</ele><time>2026-04-04T12:41:50.687Z</time></trkpt><trkpt lat="43.795145" lon="12.6869567"><ele>285.0</ele><time>2026-04-04T12:41:51.687Z</time></trkpt><trkpt lat="43.79506" lon="12.6870017"><ele>285.0</ele><time>2026-04-04T12:41:52.689Z</time></trkpt><trkpt lat="43.794975" lon="12.6870683"><ele>283.25</ele><time>2026-04-04T12:41:53.689Z</time></trkpt><trkpt lat="43.7948883" lon="12.687165"><ele>281.5</ele><time>2026-04-04T12:41:54.689Z</time></trkpt><trkpt lat="43.7948083" lon="12.6872767"><ele>279.75</ele><time>2026-04-04T12:41:55.69Z</time></trkpt><trkpt lat="43.7947367" lon="12.6874017"><ele>278.0</ele><time>2026-04-04T12:41:56.689Z</time></trkpt><trkpt lat="43.7946783" lon="12.6875467"><ele>278.0</ele><time>2026-04-04T12:41:57.689Z</time></trkpt><trkpt lat="43.7946283" lon="12.6877067"><ele>278.0</ele><time>2026-04-04T12:41:58.688Z</time></trkpt><trkpt lat="43.7945817" lon="12.687875"><ele>278.0</ele><time>2026-04-04T12:41:59.689Z</time></trkpt><trkpt lat="43.7945317" lon="12.6880467"><ele>278.0</ele><time>2026-04-04T12:42:00.688Z</time></trkpt><trkpt lat="43.7944767" lon="12.68822"><ele>275.5</ele><time>2026-04-04T12:42:01.691Z</time></trkpt><trkpt lat="43.794415" lon="12.6883917"><ele>273.0</ele><time>2026-04-04T12:42:02.688Z</time></trkpt><trkpt lat="43.7943483" lon="12.6885583"><ele>270.5</ele><time>2026-04-04T12:42:03.687Z</time></trkpt><trkpt lat="43.7942817" lon="12.6887133"><ele>268.0</ele><time>2026-04-04T12:42:04.688Z</time></trkpt><trkpt lat="43.794215" lon="12.6888583"><ele>268.0</ele><time>2026-04-04T12:42:05.689Z</time></trkpt><trkpt lat="43.794155" lon="12.6890017"><ele>268.0</ele><time>2026-04-04T12:42:06.689Z</time></trkpt><trkpt lat="43.7941017" lon="12.6891583"><ele>268.0</ele><time>2026-04-04T12:42:07.691Z</time></trkpt><trkpt lat="43.7940683" lon="12.6893433"><ele>268.0</ele><time>2026-04-04T12:42:08.689Z</time></trkpt><trkpt lat="43.7940467" lon="12.689545"><ele>264.3333333333333</ele><time>2026-04-04T12:42:09.689Z</time></trkpt><trkpt lat="43.7940333" lon="12.68976"><ele>260.6666666666667</ele><time>2026-04-04T12:42:10.688Z</time></trkpt><trkpt lat="43.794025" lon="12.6899833"><ele>257.0</ele><time>2026-04-04T12:42:11.689Z</time></trkpt><trkpt lat="43.79401" lon="12.6902117"><ele>255.33333333333334</ele><time>2026-04-04T12:42:12.688Z</time></trkpt><trkpt lat="43.7939883" lon="12.6904383"><ele>253.66666666666669</ele><time>2026-04-04T12:42:13.691Z</time></trkpt><trkpt lat="43.7939633" lon="12.6906567"><ele>252.0</ele><time>2026-04-04T12:42:14.689Z</time></trkpt><trkpt lat="43.7939283" lon="12.6908633"><ele>252.0</ele><time>2026-04-04T12:42:15.688Z</time></trkpt><trkpt lat="43.793885" lon="12.691055"><ele>252.0</ele><time>2026-04-04T12:42:16.689Z</time></trkpt><trkpt lat="43.7938267" lon="12.6912283"><ele>252.0</ele><time>2026-04-04T12:42:17.689Z</time></trkpt><trkpt lat="43.7937667" lon="12.69138"><ele>252.0</ele><time>2026-04-04T12:42:18.689Z</time></trkpt><trkpt lat="43.7937133" lon="12.6915117"><ele>251.39999999999998</ele><time>2026-04-04T12:42:19.692Z</time></trkpt><trkpt lat="43.7936683" lon="12.6916333"><ele>250.79999999999998</ele><time>2026-04-04T12:42:20.689Z</time></trkpt><trkpt lat="43.793635" lon="12.69176"><ele>250.2</ele><time>2026-04-04T12:42:21.688Z</time></trkpt><trkpt lat="43.793625" lon="12.69191"><ele>249.6</ele><time>2026-04-04T12:42:22.689Z</time></trkpt><trkpt lat="43.7936333" lon="12.6920867"><ele>249.0</ele><time>2026-04-04T12:42:23.689Z</time></trkpt><trkpt lat="43.7936533" lon="12.69228"><ele>247.0</ele><time>2026-04-04T12:42:24.689Z</time></trkpt><trkpt lat="43.7936783" lon="12.692485"><ele>245.0</ele><time>2026-04-04T12:42:25.692Z</time></trkpt><trkpt lat="43.793705" lon="12.6927"><ele>243.0</ele><time>2026-04-04T12:42:26.688Z</time></trkpt><trkpt lat="43.793735" lon="12.692915"><ele>241.5</ele><time>2026-04-04T12:42:27.689Z</time></trkpt><trkpt lat="43.7937617" lon="12.6931217"><ele>240.0</ele><time>2026-04-04T12:42:28.688Z</time></trkpt><trkpt lat="43.7937833" lon="12.6933217"><ele>238.5</ele><time>2026-04-04T12:42:29.687Z</time></trkpt><trkpt lat="43.7937817" lon="12.693525"><ele>237.0</ele><time>2026-04-04T12:42:30.692Z</time></trkpt><trkpt lat="43.7937533" lon="12.6937267"><ele>237.0</ele><time>2026-04-04T12:42:31.69Z</time></trkpt><trkpt lat="43.7937067" lon="12.69393"><ele>237.0</ele><time>2026-04-04T12:42:32.689Z</time></trkpt><trkpt lat="43.7936617" lon="12.694135"><ele>237.0</ele><time>2026-04-04T12:42:33.689Z</time></trkpt><trkpt lat="43.79362" lon="12.6943333"><ele>237.25</ele><time>2026-04-04T12:42:34.689Z</time></trkpt><trkpt lat="43.7935867" lon="12.6945267"><ele>237.5</ele><time>2026-04-04T12:42:35.689Z</time></trkpt><trkpt lat="43.7935667" lon="12.69471"><ele>237.75</ele><time>2026-04-04T12:42:36.689Z</time></trkpt><trkpt lat="43.7935617" lon="12.6948883"><ele>238.0</ele><time>2026-04-04T12:42:37.69Z</time></trkpt><trkpt lat="43.7935733" lon="12.6950667"><ele>238.0</ele><time>2026-04-04T12:42:38.689Z</time></trkpt><trkpt lat="43.7936" lon="12.695245"><ele>238.0</ele><time>2026-04-04T12:42:39.689Z</time></trkpt><trkpt lat="43.7936467" lon="12.6954267"><ele>238.0</ele><time>2026-04-04T12:42:40.689Z</time></trkpt><trkpt lat="43.7937083" lon="12.6956067"><ele>238.0</ele><time>2026-04-04T12:42:41.688Z</time></trkpt><trkpt lat="43.7937817" lon="12.6957733"><ele>238.5</ele><time>2026-04-04T12:42:42.689Z</time></trkpt><trkpt lat="43.7938583" lon="12.6959283"><ele>239.0</ele><time>2026-04-04T12:42:43.691Z</time></trkpt><trkpt lat="43.79393" lon="12.69607"><ele>239.5</ele><time>2026-04-04T12:42:44.689Z</time></trkpt><trkpt lat="43.7939817" lon="12.6962117"><ele>240.0</ele><time>2026-04-04T12:42:45.691Z</time></trkpt><trkpt lat="43.7940083" lon="12.696365"><ele>242.5</ele><time>2026-04-04T12:42:46.689Z</time></trkpt><trkpt lat="43.7940083" lon="12.6965283"><ele>245.0</ele><time>2026-04-04T12:42:47.689Z</time></trkpt><trkpt lat="43.79399" lon="12.6967017"><ele>247.5</ele><time>2026-04-04T12:42:48.689Z</time></trkpt><trkpt lat="43.7939467" lon="12.696885"><ele>250.0</ele><time>2026-04-04T12:42:49.691Z</time></trkpt><trkpt lat="43.7938917" lon="12.6970617"><ele>251.4</ele><time>2026-04-04T12:42:50.689Z</time></trkpt><trkpt lat="43.7938367" lon="12.69721"><ele>252.8</ele><time>2026-04-04T12:42:51.689Z</time></trkpt><trkpt lat="43.7937867" lon="12.69733"><ele>254.2</ele><time>2026-04-04T12:42:52.693Z</time></trkpt><trkpt lat="43.79374" lon="12.6974367"><ele>255.6</ele><time>2026-04-04T12:42:53.689Z</time></trkpt><trkpt lat="43.7937067" lon="12.6975367"><ele>257.0</ele><time>2026-04-04T12:42:54.688Z</time></trkpt><trkpt lat="43.79369" lon="12.6976383"><ele>257.0</ele><time>2026-04-04T12:42:55.691Z</time></trkpt><trkpt lat="43.7936883" lon="12.6977417"><ele>257.0</ele><time>2026-04-04T12:42:56.689Z</time></trkpt><trkpt lat="43.793695" lon="12.697835"><ele>257.0</ele><time>2026-04-04T12:42:57.688Z</time></trkpt><trkpt lat="43.793705" lon="12.697955"><ele>257.0</ele><time>2026-04-04T12:42:59.69Z</time></trkpt><trkpt lat="43.7936467" lon="12.698"><ele>257.0</ele><time>2026-04-04T12:43:02.689Z</time></trkpt><trkpt lat="43.7935317" lon="12.697875"><ele>257.0</ele><time>2026-04-04T12:43:04.689Z</time></trkpt><trkpt lat="43.7934383" lon="12.6977717"><ele>256.5</ele><time>2026-04-04T12:43:05.689Z</time></trkpt><trkpt lat="43.793335" lon="12.69767"><ele>256.0</ele><time>2026-04-04T12:43:06.689Z</time></trkpt><trkpt lat="43.7932183" lon="12.69756"><ele>255.5</ele><time>2026-04-04T12:43:07.688Z</time></trkpt><trkpt lat="43.7931" lon="12.69745"><ele>255.0</ele><time>2026-04-04T12:43:08.689Z</time></trkpt><trkpt lat="43.7929883" lon="12.69735"><ele>255.0</ele><time>2026-04-04T12:43:09.689Z</time></trkpt><trkpt lat="43.792885" lon="12.6972567"><ele>255.0</ele><time>2026-04-04T12:43:10.688Z</time></trkpt><trkpt lat="43.7927917" lon="12.6971683"><ele>255.0</ele><time>2026-04-04T12:43:11.689Z</time></trkpt><trkpt lat="43.7927017" lon="12.69708"><ele>255.0</ele><time>2026-04-04T12:43:12.688Z</time></trkpt><trkpt lat="43.7926117" lon="12.696995"><ele>254.0</ele><time>2026-04-04T12:43:13.691Z</time></trkpt><trkpt lat="43.7925217" lon="12.696915"><ele>253.0</ele><time>2026-04-04T12:43:14.689Z</time></trkpt><trkpt lat="43.792425" lon="12.69684"><ele>252.0</ele><time>2026-04-04T12:43:15.689Z</time></trkpt><trkpt lat="43.7923233" lon="12.6967683"><ele>251.0</ele><time>2026-04-04T12:43:16.689Z</time></trkpt><trkpt lat="43.792225" lon="12.6967017"><ele>250.0</ele><time>2026-04-04T12:43:17.691Z</time></trkpt><trkpt lat="43.79213" lon="12.69664"><ele>250.0</ele><time>2026-04-04T12:43:18.689Z</time></trkpt><trkpt lat="43.7920383" lon="12.6965833"><ele>250.0</ele><time>2026-04-04T12:43:19.695Z</time></trkpt><trkpt lat="43.791945" lon="12.696535"><ele>250.0</ele><time>2026-04-04T12:43:20.685Z</time></trkpt><trkpt lat="43.7918483" lon="12.6965"><ele>250.0</ele><time>2026-04-04T12:43:21.688Z</time></trkpt><trkpt lat="43.7917533" lon="12.6964867"><ele>250.0</ele><time>2026-04-04T12:43:22.687Z</time></trkpt><trkpt lat="43.7916667" lon="12.6964933"><ele>248.49999999999997</ele><time>2026-04-04T12:43:23.691Z</time></trkpt><trkpt lat="43.7915817" lon="12.6965083"><ele>247.0</ele><time>2026-04-04T12:43:24.688Z</time></trkpt><trkpt lat="43.7915033" lon="12.6965317"><ele>245.5</ele><time>2026-04-04T12:43:25.691Z</time></trkpt><trkpt lat="43.7914233" lon="12.69656"><ele>244.0</ele><time>2026-04-04T12:43:26.688Z</time></trkpt><trkpt lat="43.79135" lon="12.6965883"><ele>242.49999999999997</ele><time>2026-04-04T12:43:27.689Z</time></trkpt><trkpt lat="43.79128" lon="12.696615"><ele>241.0</ele><time>2026-04-04T12:43:28.688Z</time></trkpt><trkpt lat="43.7912133" lon="12.696635"><ele>240.99999999999997</ele><time>2026-04-04T12:43:29.69Z</time></trkpt><trkpt lat="43.7911033" lon="12.69667"><ele>241.0</ele><time>2026-04-04T12:43:31.689Z</time></trkpt><trkpt lat="43.7910167" lon="12.6967083"><ele>241.0</ele><time>2026-04-04T12:43:51.686Z</time></trkpt><trkpt lat="43.7909433" lon="12.696775"><ele>241.0</ele><time>2026-04-04T12:43:53.689Z</time></trkpt><trkpt lat="43.79089" lon="12.6968267"><ele>240.99999999999997</ele><time>2026-04-04T12:43:54.688Z</time></trkpt><trkpt lat="43.790835" lon="12.6968783"><ele>241.0</ele><time>2026-04-04T12:43:55.689Z</time></trkpt><trkpt lat="43.7907733" lon="12.6969417"><ele>237.75</ele><time>2026-04-04T12:43:56.688Z</time></trkpt><trkpt lat="43.7906983" lon="12.697015"><ele>234.5</ele><time>2026-04-04T12:43:57.687Z</time></trkpt><trkpt lat="43.79061" lon="12.6971"><ele>231.25</ele><time>2026-04-04T12:43:58.687Z</time></trkpt><trkpt lat="43.7905067" lon="12.6971983"><ele>228.0</ele><time>2026-04-04T12:43:59.688Z</time></trkpt><trkpt lat="43.7903967" lon="12.6973083"><ele>228.0</ele><time>2026-04-04T12:44:00.688Z</time></trkpt><trkpt lat="43.7902833" lon="12.6974283"><ele>228.0</ele><time>2026-04-04T12:44:01.688Z</time></trkpt><trkpt lat="43.7901683" lon="12.6975483"><ele>228.0</ele><time>2026-04-04T12:44:02.689Z</time></trkpt><trkpt lat="43.7900583" lon="12.69767"><ele>228.0</ele><time>2026-04-04T12:44:03.688Z</time></trkpt><trkpt lat="43.7899533" lon="12.69779"><ele>226.25</ele><time>2026-04-04T12:44:04.687Z</time></trkpt><trkpt lat="43.789855" lon="12.6979067"><ele>224.5</ele><time>2026-04-04T12:44:05.688Z</time></trkpt><trkpt lat="43.789755" lon="12.69802"><ele>222.75</ele><time>2026-04-04T12:44:06.687Z</time></trkpt><trkpt lat="43.7896517" lon="12.6981367"><ele>221.0</ele><time>2026-04-04T12:44:07.688Z</time></trkpt><trkpt lat="43.7895433" lon="12.698255"><ele>221.0</ele><time>2026-04-04T12:44:08.688Z</time></trkpt><trkpt lat="43.7894317" lon="12.698375"><ele>221.0</ele><time>2026-04-04T12:44:09.688Z</time></trkpt><trkpt lat="43.7893133" lon="12.6984933"><ele>221.0</ele><time>2026-04-04T12:44:10.688Z</time></trkpt><trkpt lat="43.7891883" lon="12.69861"><ele>221.0</ele><time>2026-04-04T12:44:11.69Z</time></trkpt><trkpt lat="43.7890617" lon="12.6987283"><ele>220.0</ele><time>2026-04-04T12:44:12.688Z</time></trkpt><trkpt lat="43.78894" lon="12.698845"><ele>219.0</ele><time>2026-04-04T12:44:13.69Z</time></trkpt><trkpt lat="43.78882" lon="12.6989567"><ele>218.0</ele><time>2026-04-04T12:44:14.688Z</time></trkpt><trkpt lat="43.7886983" lon="12.6990683"><ele>217.0</ele><time>2026-04-04T12:44:15.688Z</time></trkpt><trkpt lat="43.7885717" lon="12.69918"><ele>215.66666666666666</ele><time>2026-04-04T12:44:16.686Z</time></trkpt><trkpt lat="43.7884417" lon="12.69929"><ele>214.33333333333331</ele><time>2026-04-04T12:44:17.687Z</time></trkpt><trkpt lat="43.7883067" lon="12.6994017"><ele>213.0</ele><time>2026-04-04T12:44:18.688Z</time></trkpt><trkpt lat="43.7881683" lon="12.6995183"><ele>212.66666666666669</ele><time>2026-04-04T12:44:19.69Z</time></trkpt><trkpt lat="43.7880283" lon="12.699635"><ele>212.33333333333334</ele><time>2026-04-04T12:44:20.685Z</time></trkpt><trkpt lat="43.7878883" lon="12.69975"><ele>212.0</ele><time>2026-04-04T12:44:21.687Z</time></trkpt><trkpt lat="43.7877517" lon="12.6998633"><ele>210.25</ele><time>2026-04-04T12:44:22.688Z</time></trkpt><trkpt lat="43.7876183" lon="12.6999667"><ele>208.5</ele><time>2026-04-04T12:44:23.688Z</time></trkpt><trkpt lat="43.787485" lon="12.7000617"><ele>206.75</ele><time>2026-04-04T12:44:24.688Z</time></trkpt><trkpt lat="43.7873533" lon="12.7001483"><ele>205.0</ele><time>2026-04-04T12:44:25.69Z</time></trkpt><trkpt lat="43.7872117" lon="12.70022"><ele>204.5</ele><time>2026-04-04T12:44:26.688Z</time></trkpt><trkpt lat="43.7870667" lon="12.700275"><ele>204.0</ele><time>2026-04-04T12:44:27.687Z</time></trkpt><trkpt lat="43.7869183" lon="12.70031"><ele>203.5</ele><time>2026-04-04T12:44:28.687Z</time></trkpt><trkpt lat="43.7867733" lon="12.7003333"><ele>203.0</ele><time>2026-04-04T12:44:29.688Z</time></trkpt><trkpt lat="43.786635" lon="12.7003517"><ele>203.0</ele><time>2026-04-04T12:44:30.688Z</time></trkpt><trkpt lat="43.7865067" lon="12.700375"><ele>203.0</ele><time>2026-04-04T12:44:31.691Z</time></trkpt><trkpt lat="43.7863833" lon="12.700405"><ele>203.0</ele><time>2026-04-04T12:44:32.688Z</time></trkpt><trkpt lat="43.7862633" lon="12.7004467"><ele>203.0</ele><time>2026-04-04T12:44:33.687Z</time></trkpt><trkpt lat="43.7861433" lon="12.7005033"><ele>203.0</ele><time>2026-04-04T12:44:34.688Z</time></trkpt><trkpt lat="43.7860333" lon="12.7005783"><ele>203.0</ele><time>2026-04-04T12:44:35.689Z</time></trkpt><trkpt lat="43.7859283" lon="12.7006667"><ele>203.0</ele><time>2026-04-04T12:44:36.688Z</time></trkpt><trkpt lat="43.7858317" lon="12.700765"><ele>203.0</ele><time>2026-04-04T12:44:37.688Z</time></trkpt><trkpt lat="43.785735" lon="12.7008683"><ele>202.0</ele><time>2026-04-04T12:44:38.688Z</time></trkpt><trkpt lat="43.78564" lon="12.7009633"><ele>201.0</ele><time>2026-04-04T12:44:39.687Z</time></trkpt><trkpt lat="43.7855433" lon="12.7010417"><ele>200.0</ele><time>2026-04-04T12:44:40.688Z</time></trkpt><trkpt lat="43.78544" lon="12.701105"><ele>199.0</ele><time>2026-04-04T12:44:41.69Z</time></trkpt><trkpt lat="43.78534" lon="12.7011783"><ele>196.5</ele><time>2026-04-04T12:44:42.688Z</time></trkpt><trkpt lat="43.7852467" lon="12.7012667"><ele>194.0</ele><time>2026-04-04T12:44:43.687Z</time></trkpt><trkpt lat="43.785165" lon="12.7013783"><ele>191.5</ele><time>2026-04-04T12:44:44.691Z</time></trkpt><trkpt lat="43.7851033" lon="12.701525"><ele>189.0</ele><time>2026-04-04T12:44:45.688Z</time></trkpt><trkpt lat="43.7850583" lon="12.7016967"><ele>189.0</ele><time>2026-04-04T12:44:46.688Z</time></trkpt><trkpt lat="43.7850183" lon="12.7018783"><ele>189.0</ele><time>2026-04-04T12:44:47.688Z</time></trkpt><trkpt lat="43.7849833" lon="12.7020567"><ele>189.0</ele><time>2026-04-04T12:44:48.688Z</time></trkpt><trkpt lat="43.7849533" lon="12.7022233"><ele>189.0</ele><time>2026-04-04T12:44:49.689Z</time></trkpt><trkpt lat="43.784925" lon="12.7023717"><ele>187.5</ele><time>2026-04-04T12:44:50.687Z</time></trkpt><trkpt lat="43.784895" lon="12.702515"><ele>186.0</ele><time>2026-04-04T12:44:51.686Z</time></trkpt><trkpt lat="43.7848633" lon="12.7026667"><ele>184.5</ele><time>2026-04-04T12:44:52.689Z</time></trkpt><trkpt lat="43.7848217" lon="12.7028233"><ele>183.0</ele><time>2026-04-04T12:44:53.69Z</time></trkpt><trkpt lat="43.7847733" lon="12.7029883"><ele>181.5</ele><time>2026-04-04T12:44:54.688Z</time></trkpt><trkpt lat="43.784715" lon="12.70316"><ele>180.0</ele><time>2026-04-04T12:44:55.69Z</time></trkpt><trkpt lat="43.7846533" lon="12.70333"><ele>178.5</ele><time>2026-04-04T12:44:56.688Z</time></trkpt><trkpt lat="43.7845917" lon="12.7034917"><ele>177.0</ele><time>2026-04-04T12:44:57.687Z</time></trkpt><trkpt lat="43.78453" lon="12.7036433"><ele>175.39999999999998</ele><time>2026-04-04T12:44:58.688Z</time></trkpt><trkpt lat="43.7844717" lon="12.703785"><ele>173.79999999999998</ele><time>2026-04-04T12:44:59.688Z</time></trkpt><trkpt lat="43.7844133" lon="12.7039183"><ele>172.2</ele><time>2026-04-04T12:45:00.688Z</time></trkpt><trkpt lat="43.7843583" lon="12.7040483"><ele>170.6</ele><time>2026-04-04T12:45:01.688Z</time></trkpt><trkpt lat="43.78431" lon="12.7041833"><ele>169.0</ele><time>2026-04-04T12:45:02.688Z</time></trkpt><trkpt lat="43.78427" lon="12.70432"><ele>168.2</ele><time>2026-04-04T12:45:03.689Z</time></trkpt><trkpt lat="43.784245" lon="12.7044617"><ele>167.39999999999998</ele><time>2026-04-04T12:45:04.689Z</time></trkpt><trkpt lat="43.7842233" lon="12.7046117"><ele>166.6</ele><time>2026-04-04T12:45:05.688Z</time></trkpt><trkpt lat="43.7842033" lon="12.7047617"><ele>165.8</ele><time>2026-04-04T12:45:06.689Z</time></trkpt><trkpt lat="43.7841867" lon="12.7049067"><ele>165.0</ele><time>2026-04-04T12:45:07.69Z</time></trkpt><trkpt lat="43.7841717" lon="12.7050483"><ele>165.0</ele><time>2026-04-04T12:45:08.687Z</time></trkpt><trkpt lat="43.7841617" lon="12.7051817"><ele>165.0</ele><time>2026-04-04T12:45:09.691Z</time></trkpt><trkpt lat="43.7841583" lon="12.70531"><ele>165.0</ele><time>2026-04-04T12:45:10.688Z</time></trkpt><trkpt lat="43.7841567" lon="12.7054367"><ele>165.0</ele><time>2026-04-04T12:45:11.69Z</time></trkpt><trkpt lat="43.7841567" lon="12.705555"><ele>165.0</ele><time>2026-04-04T12:45:12.688Z</time></trkpt><trkpt lat="43.7841583" lon="12.7056733"><ele>163.5</ele><time>2026-04-04T12:45:13.689Z</time></trkpt><trkpt lat="43.78416" lon="12.7057917"><ele>162.0</ele><time>2026-04-04T12:45:14.686Z</time></trkpt><trkpt lat="43.7841633" lon="12.7059083"><ele>160.5</ele><time>2026-04-04T12:45:15.69Z</time></trkpt><trkpt lat="43.7841683" lon="12.706025"><ele>159.0</ele><time>2026-04-04T12:45:16.687Z</time></trkpt><trkpt lat="43.7841717" lon="12.7061367"><ele>157.5</ele><time>2026-04-04T12:45:17.688Z</time></trkpt><trkpt lat="43.7841817" lon="12.7062467"><ele>156.0</ele><time>2026-04-04T12:45:18.688Z</time></trkpt><trkpt lat="43.7841967" lon="12.70635"><ele>154.0</ele><time>2026-04-04T12:45:19.69Z</time></trkpt><trkpt lat="43.7842283" lon="12.7064517"><ele>152.0</ele><time>2026-04-04T12:45:20.689Z</time></trkpt><trkpt lat="43.7842667" lon="12.7065383"><ele>150.0</ele><time>2026-04-04T12:45:21.688Z</time></trkpt><trkpt lat="43.7843" lon="12.7066217"><ele>148.0</ele><time>2026-04-04T12:45:22.688Z</time></trkpt><trkpt lat="43.7842983" lon="12.7068"><ele>146.0</ele><time>2026-04-04T12:45:24.689Z</time></trkpt><trkpt lat="43.7842567" lon="12.7068883"><ele>144.0</ele><time>2026-04-04T12:45:25.69Z</time></trkpt><trkpt lat="43.78419" lon="12.7069383"><ele>144.0</ele><time>2026-04-04T12:45:26.689Z</time></trkpt><trkpt lat="43.7841233" lon="12.7069733"><ele>144.0</ele><time>2026-04-04T12:45:27.689Z</time></trkpt><trkpt lat="43.784045" lon="12.7069717"><ele>144.0</ele><time>2026-04-04T12:45:28.687Z</time></trkpt><trkpt lat="43.7839417" lon="12.70693"><ele>144.0</ele><time>2026-04-04T12:45:29.689Z</time></trkpt><trkpt lat="43.783855" lon="12.7069017"><ele>144.0</ele><time>2026-04-04T12:45:30.688Z</time></trkpt><trkpt lat="43.7837783" lon="12.7069067"><ele>144.0</ele><time>2026-04-04T12:45:31.689Z</time></trkpt><trkpt lat="43.7837183" lon="12.7069467"><ele>140.0</ele><time>2026-04-04T12:45:32.688Z</time></trkpt><trkpt lat="43.7836933" lon="12.707095"><ele>136.0</ele><time>2026-04-04T12:45:34.69Z</time></trkpt><trkpt lat="43.7837317" lon="12.7072083"><ele>132.0</ele><time>2026-04-04T12:45:35.686Z</time></trkpt><trkpt lat="43.783755" lon="12.7073283"><ele>128.0</ele><time>2026-04-04T12:45:36.69Z</time></trkpt><trkpt lat="43.7837683" lon="12.7074633"><ele>124.0</ele><time>2026-04-04T12:45:37.688Z</time></trkpt><trkpt lat="43.7837683" lon="12.7076117"><ele>122.2</ele><time>2026-04-04T12:45:38.689Z</time></trkpt><trkpt lat="43.7837683" lon="12.707765"><ele>120.4</ele><time>2026-04-04T12:45:39.689Z</time></trkpt><trkpt lat="43.7837667" lon="12.7079133"><ele>118.6</ele><time>2026-04-04T12:45:40.689Z</time></trkpt><trkpt lat="43.783765" lon="12.708065"><ele>116.8</ele><time>2026-04-04T12:45:41.687Z</time></trkpt><trkpt lat="43.7837617" lon="12.708215"><ele>115.0</ele><time>2026-04-04T12:45:42.689Z</time></trkpt><trkpt lat="43.7837533" lon="12.7083633"><ele>115.00000000000001</ele><time>2026-04-04T12:45:43.689Z</time></trkpt><trkpt lat="43.7837417" lon="12.7085033"><ele>115.0</ele><time>2026-04-04T12:45:44.688Z</time></trkpt><trkpt lat="43.7837367" lon="12.7086267"><ele>115.0</ele><time>2026-04-04T12:45:45.687Z</time></trkpt><trkpt lat="43.7837367" lon="12.7087217"><ele>115.0</ele><time>2026-04-04T12:45:46.687Z</time></trkpt><trkpt lat="43.7837367" lon="12.7088333"><ele>115.00000000000001</ele><time>2026-04-04T12:45:48.689Z</time></trkpt><trkpt lat="43.7836483" lon="12.7087783"><ele>115.0</ele><time>2026-04-04T12:45:57.686Z</time></trkpt><trkpt lat="43.7835883" lon="12.7086933"><ele>114.5</ele><time>2026-04-04T12:45:58.688Z</time></trkpt><trkpt lat="43.78351" lon="12.7085883"><ele>114.0</ele><time>2026-04-04T12:45:59.685Z</time></trkpt><trkpt lat="43.7834217" lon="12.7084683"><ele>113.5</ele><time>2026-04-04T12:46:00.69Z</time></trkpt><trkpt lat="43.7833267" lon="12.7083417"><ele>113.0</ele><time>2026-04-04T12:46:01.69Z</time></trkpt><trkpt lat="43.783225" lon="12.7082117"><ele>113.0</ele><time>2026-04-04T12:46:02.689Z</time></trkpt><trkpt lat="43.7831183" lon="12.708075"><ele>113.0</ele><time>2026-04-04T12:46:03.687Z</time></trkpt><trkpt lat="43.783015" lon="12.70794"><ele>113.0</ele><time>2026-04-04T12:46:04.688Z</time></trkpt><trkpt lat="43.7829117" lon="12.7077983"><ele>113.0</ele><time>2026-04-04T12:46:05.685Z</time></trkpt><trkpt lat="43.78282" lon="12.707655"><ele>112.75</ele><time>2026-04-04T12:46:06.689Z</time></trkpt><trkpt lat="43.7827367" lon="12.7075167"><ele>112.5</ele><time>2026-04-04T12:46:07.691Z</time></trkpt><trkpt lat="43.782655" lon="12.7073867"><ele>112.25</ele><time>2026-04-04T12:46:08.689Z</time></trkpt><trkpt lat="43.78258" lon="12.707265"><ele>112.0</ele><time>2026-04-04T12:46:09.689Z</time></trkpt><trkpt lat="43.782515" lon="12.70715"><ele>112.00000000000001</ele><time>2026-04-04T12:46:10.689Z</time></trkpt><trkpt lat="43.782455" lon="12.707045"><ele>112.0</ele><time>2026-04-04T12:46:11.686Z</time></trkpt><trkpt lat="43.7824017" lon="12.7069517"><ele>112.0</ele><time>2026-04-04T12:46:12.687Z</time></trkpt><trkpt lat="43.7823467" lon="12.7068567"><ele>112.0</ele><time>2026-04-04T12:46:13.689Z</time></trkpt><trkpt lat="43.782295" lon="12.7067617"><ele>112.00000000000001</ele><time>2026-04-04T12:46:14.685Z</time></trkpt><trkpt lat="43.7822433" lon="12.706675"><ele>112.0</ele><time>2026-04-04T12:46:15.686Z</time></trkpt><trkpt lat="43.78219" lon="12.7066033"><ele>112.16666666666667</ele><time>2026-04-04T12:46:16.687Z</time></trkpt><trkpt lat="43.7821317" lon="12.706565"><ele>112.33333333333334</ele><time>2026-04-04T12:46:17.687Z</time></trkpt><trkpt lat="43.782065" lon="12.706565"><ele>112.5</ele><time>2026-04-04T12:46:18.692Z</time></trkpt><trkpt lat="43.7819917" lon="12.7065917"><ele>112.66666666666666</ele><time>2026-04-04T12:46:19.689Z</time></trkpt><trkpt lat="43.7819183" lon="12.7066533"><ele>112.83333333333333</ele><time>2026-04-04T12:46:20.688Z</time></trkpt><trkpt lat="43.7818433" lon="12.70673"><ele>113.0</ele><time>2026-04-04T12:46:21.688Z</time></trkpt><trkpt lat="43.78176" lon="12.70683"><ele>112.60000000000001</ele><time>2026-04-04T12:46:22.688Z</time></trkpt><trkpt lat="43.7816767" lon="12.70693"><ele>112.20000000000002</ele><time>2026-04-04T12:46:23.69Z</time></trkpt><trkpt lat="43.78159" lon="12.707035"><ele>111.8</ele><time>2026-04-04T12:46:24.689Z</time></trkpt><trkpt lat="43.7815067" lon="12.70714"><ele>111.4</ele><time>2026-04-04T12:46:25.69Z</time></trkpt><trkpt lat="43.7814267" lon="12.7072317"><ele>111.0</ele><time>2026-04-04T12:46:26.688Z</time></trkpt><trkpt lat="43.7813517" lon="12.7073183"><ele>111.0</ele><time>2026-04-04T12:46:27.687Z</time></trkpt><trkpt lat="43.7812783" lon="12.7074"><ele>111.0</ele><time>2026-04-04T12:46:28.688Z</time></trkpt><trkpt lat="43.7812017" lon="12.7074683"><ele>111.0</ele><time>2026-04-04T12:46:29.688Z</time></trkpt><trkpt lat="43.78112" lon="12.7075167"><ele>111.0</ele><time>2026-04-04T12:46:30.688Z</time></trkpt><trkpt lat="43.78103" lon="12.7075433"><ele>111.0</ele><time>2026-04-04T12:46:31.688Z</time></trkpt><trkpt lat="43.7809267" lon="12.707555"><ele>111.4</ele><time>2026-04-04T12:46:32.687Z</time></trkpt><trkpt lat="43.780825" lon="12.7075583"><ele>111.8</ele><time>2026-04-04T12:46:33.687Z</time></trkpt><trkpt lat="43.7807267" lon="12.7075633"><ele>112.20000000000002</ele><time>2026-04-04T12:46:34.692Z</time></trkpt><trkpt lat="43.7806383" lon="12.707575"><ele>112.60000000000001</ele><time>2026-04-04T12:46:35.689Z</time></trkpt><trkpt lat="43.7805533" lon="12.7076033"><ele>113.0</ele><time>2026-04-04T12:46:36.688Z</time></trkpt><trkpt lat="43.780475" lon="12.70764"><ele>112.99999999999999</ele><time>2026-04-04T12:46:37.69Z</time></trkpt><trkpt lat="43.78042" lon="12.7077067"><ele>113.0</ele><time>2026-04-04T12:46:38.689Z</time></trkpt><trkpt lat="43.7804017" lon="12.7078017"><ele>113.0</ele><time>2026-04-04T12:46:39.687Z</time></trkpt><trkpt lat="43.7803967" lon="12.7079083"><ele>113.0</ele><time>2026-04-04T12:46:40.688Z</time></trkpt><trkpt lat="43.780425" lon="12.7080383"><ele>112.99999999999999</ele><time>2026-04-04T12:46:41.686Z</time></trkpt><trkpt lat="43.7804533" lon="12.7081683"><ele>113.0</ele><time>2026-04-04T12:46:42.689Z</time></trkpt><trkpt lat="43.7804983" lon="12.7083067"><ele>113.5</ele><time>2026-04-04T12:46:43.688Z</time></trkpt><trkpt lat="43.7805367" lon="12.70845"><ele>114.0</ele><time>2026-04-04T12:46:44.689Z</time></trkpt><trkpt lat="43.780565" lon="12.708595"><ele>114.5</ele><time>2026-04-04T12:46:45.686Z</time></trkpt><trkpt lat="43.7805917" lon="12.7087567"><ele>115.0</ele><time>2026-04-04T12:46:46.687Z</time></trkpt><trkpt lat="43.7806083" lon="12.708925"><ele>116.25</ele><time>2026-04-04T12:46:47.689Z</time></trkpt><trkpt lat="43.7806183" lon="12.70909"><ele>117.5</ele><time>2026-04-04T12:46:48.688Z</time></trkpt><trkpt lat="43.7806317" lon="12.7092517"><ele>118.75</ele><time>2026-04-04T12:46:49.688Z</time></trkpt><trkpt lat="43.780645" lon="12.7094133"><ele>120.0</ele><time>2026-04-04T12:46:50.689Z</time></trkpt><trkpt lat="43.7806583" lon="12.7095783"><ele>121.25</ele><time>2026-04-04T12:46:51.687Z</time></trkpt><trkpt lat="43.7806717" lon="12.7097483"><ele>122.5</ele><time>2026-04-04T12:46:52.689Z</time></trkpt><trkpt lat="43.7806833" lon="12.7099167"><ele>123.75</ele><time>2026-04-04T12:46:53.689Z</time></trkpt><trkpt lat="43.7806933" lon="12.7100783"><ele>125.0</ele><time>2026-04-04T12:46:54.688Z</time></trkpt><trkpt lat="43.7807033" lon="12.710235"><ele>125.8</ele><time>2026-04-04T12:46:55.689Z</time></trkpt><trkpt lat="43.7807167" lon="12.7103917"><ele>126.6</ele><time>2026-04-04T12:46:56.689Z</time></trkpt><trkpt lat="43.7807283" lon="12.7105383"><ele>127.4</ele><time>2026-04-04T12:46:57.689Z</time></trkpt><trkpt lat="43.7807367" lon="12.71067"><ele>128.2</ele><time>2026-04-04T12:46:58.688Z</time></trkpt><trkpt lat="43.7807433" lon="12.7107933"><ele>129.0</ele><time>2026-04-04T12:46:59.688Z</time></trkpt><trkpt lat="43.7807433" lon="12.7109233"><ele>129.0</ele><time>2026-04-04T12:47:00.69Z</time></trkpt><trkpt lat="43.780725" lon="12.7110533"><ele>129.0</ele><time>2026-04-04T12:47:01.689Z</time></trkpt><trkpt lat="43.7806783" lon="12.7111767"><ele>129.0</ele><time>2026-04-04T12:47:02.688Z</time></trkpt><trkpt lat="43.7806" lon="12.7112817"><ele>129.0</ele><time>2026-04-04T12:47:03.686Z</time></trkpt><trkpt lat="43.780505" lon="12.7113517"><ele>129.0</ele><time>2026-04-04T12:47:04.688Z</time></trkpt><trkpt lat="43.7804" lon="12.71138"><ele>130.25</ele><time>2026-04-04T12:47:05.689Z</time></trkpt><trkpt lat="43.7802883" lon="12.7113583"><ele>131.5</ele><time>2026-04-04T12:47:06.687Z</time></trkpt><trkpt lat="43.7801883" lon="12.711275"><ele>132.75</ele><time>2026-04-04T12:47:07.689Z</time></trkpt><trkpt lat="43.78011" lon="12.71115"><ele>134.0</ele><time>2026-04-04T12:47:08.688Z</time></trkpt><trkpt lat="43.7800567" lon="12.71099"><ele>136.25</ele><time>2026-04-04T12:47:09.689Z</time></trkpt><trkpt lat="43.780005" lon="12.7108217"><ele>138.5</ele><time>2026-04-04T12:47:10.689Z</time></trkpt><trkpt lat="43.7799667" lon="12.7106383"><ele>140.75</ele><time>2026-04-04T12:47:11.686Z</time></trkpt><trkpt lat="43.7799317" lon="12.7104467"><ele>143.0</ele><time>2026-04-04T12:47:12.689Z</time></trkpt><trkpt lat="43.7799" lon="12.7102517"><ele>143.0</ele><time>2026-04-04T12:47:13.69Z</time></trkpt><trkpt lat="43.7798633" lon="12.7100583"><ele>143.0</ele><time>2026-04-04T12:47:14.687Z</time></trkpt><trkpt lat="43.779815" lon="12.7098733"><ele>143.0</ele><time>2026-04-04T12:47:15.688Z</time></trkpt><trkpt lat="43.77975" lon="12.7097167"><ele>143.0</ele><time>2026-04-04T12:47:16.686Z</time></trkpt><trkpt lat="43.779675" lon="12.7096033"><ele>143.0</ele><time>2026-04-04T12:47:17.689Z</time></trkpt><trkpt lat="43.7795883" lon="12.70953"><ele>143.0</ele><time>2026-04-04T12:47:18.687Z</time></trkpt><trkpt lat="43.779485" lon="12.7095"><ele>143.0</ele><time>2026-04-04T12:47:19.689Z</time></trkpt><trkpt lat="43.779355" lon="12.7095083"><ele>143.0</ele><time>2026-04-04T12:47:20.689Z</time></trkpt><trkpt lat="43.779215" lon="12.7095433"><ele>147.25</ele><time>2026-04-04T12:47:21.687Z</time></trkpt><trkpt lat="43.779075" lon="12.7095767"><ele>151.5</ele><time>2026-04-04T12:47:22.687Z</time></trkpt><trkpt lat="43.7789383" lon="12.7096017"><ele>155.75</ele><time>2026-04-04T12:47:23.689Z</time></trkpt><trkpt lat="43.7787967" lon="12.7096333"><ele>160.0</ele><time>2026-04-04T12:47:24.689Z</time></trkpt><trkpt lat="43.77866" lon="12.7096767"><ele>160.0</ele><time>2026-04-04T12:47:25.69Z</time></trkpt><trkpt lat="43.7785267" lon="12.709735"><ele>160.0</ele><time>2026-04-04T12:47:26.689Z</time></trkpt><trkpt lat="43.77841" lon="12.7098067"><ele>160.0</ele><time>2026-04-04T12:47:27.689Z</time></trkpt><trkpt lat="43.7783067" lon="12.7098967"><ele>160.0</ele><time>2026-04-04T12:47:28.689Z</time></trkpt><trkpt lat="43.7782283" lon="12.710015"><ele>161.75</ele><time>2026-04-04T12:47:29.692Z</time></trkpt><trkpt lat="43.77819" lon="12.7101583"><ele>163.5</ele><time>2026-04-04T12:47:30.689Z</time></trkpt><trkpt lat="43.77818" lon="12.7103183"><ele>165.25</ele><time>2026-04-04T12:47:31.689Z</time></trkpt><trkpt lat="43.77819" lon="12.7104883"><ele>167.0</ele><time>2026-04-04T12:47:32.687Z</time></trkpt><trkpt lat="43.7782033" lon="12.7106667"><ele>167.25</ele><time>2026-04-04T12:47:33.687Z</time></trkpt><trkpt lat="43.778205" lon="12.71084"><ele>167.5</ele><time>2026-04-04T12:47:34.688Z</time></trkpt><trkpt lat="43.7781733" lon="12.7109967"><ele>167.75</ele><time>2026-04-04T12:47:35.69Z</time></trkpt><trkpt lat="43.7781117" lon="12.7111267"><ele>168.0</ele><time>2026-04-04T12:47:36.688Z</time></trkpt><trkpt lat="43.7780233" lon="12.7112333"><ele>168.0</ele><time>2026-04-04T12:47:37.69Z</time></trkpt><trkpt lat="43.7779233" lon="12.7113133"><ele>168.0</ele><time>2026-04-04T12:47:38.689Z</time></trkpt><trkpt lat="43.7778133" lon="12.7113517"><ele>168.0</ele><time>2026-04-04T12:47:39.689Z</time></trkpt><trkpt lat="43.7777017" lon="12.7113533"><ele>168.0</ele><time>2026-04-04T12:47:40.689Z</time></trkpt><trkpt lat="43.77759" lon="12.7113233"><ele>168.0</ele><time>2026-04-04T12:47:41.688Z</time></trkpt><trkpt lat="43.7774717" lon="12.7112667"><ele>168.0</ele><time>2026-04-04T12:47:42.689Z</time></trkpt><trkpt lat="43.7773533" lon="12.7111883"><ele>168.0</ele><time>2026-04-04T12:47:43.691Z</time></trkpt><trkpt lat="43.777235" lon="12.711095"><ele>168.0</ele><time>2026-04-04T12:47:44.689Z</time></trkpt><trkpt lat="43.7771233" lon="12.7109817"><ele>170.75</ele><time>2026-04-04T12:47:45.687Z</time></trkpt><trkpt lat="43.7770217" lon="12.7108483"><ele>173.5</ele><time>2026-04-04T12:47:46.691Z</time></trkpt><trkpt lat="43.7769433" lon="12.7106883"><ele>176.25</ele><time>2026-04-04T12:47:47.691Z</time></trkpt><trkpt lat="43.7768917" lon="12.7105133"><ele>179.0</ele><time>2026-04-04T12:47:48.689Z</time></trkpt><trkpt lat="43.7768567" lon="12.710325"><ele>180.5</ele><time>2026-04-04T12:47:49.691Z</time></trkpt><trkpt lat="43.7768267" lon="12.7101367"><ele>182.0</ele><time>2026-04-04T12:47:50.689Z</time></trkpt><trkpt lat="43.7768" lon="12.7099433"><ele>183.5</ele><time>2026-04-04T12:47:51.689Z</time></trkpt><trkpt lat="43.7767717" lon="12.7097517"><ele>185.0</ele><time>2026-04-04T12:47:52.688Z</time></trkpt><trkpt lat="43.77674" lon="12.7095583"><ele>185.5</ele><time>2026-04-04T12:47:53.689Z</time></trkpt><trkpt lat="43.7767117" lon="12.7093633"><ele>186.0</ele><time>2026-04-04T12:47:54.69Z</time></trkpt><trkpt lat="43.77668" lon="12.7091717"><ele>186.5</ele><time>2026-04-04T12:47:55.691Z</time></trkpt><trkpt lat="43.77665" lon="12.7089817"><ele>187.0</ele><time>2026-04-04T12:47:56.689Z</time></trkpt><trkpt lat="43.7766167" lon="12.7087867"><ele>187.0</ele><time>2026-04-04T12:47:57.689Z</time></trkpt><trkpt lat="43.7765817" lon="12.70859"><ele>187.0</ele><time>2026-04-04T12:47:58.689Z</time></trkpt><trkpt lat="43.77654" lon="12.7084017"><ele>187.0</ele><time>2026-04-04T12:47:59.689Z</time></trkpt><trkpt lat="43.7764967" lon="12.70823"><ele>187.0</ele><time>2026-04-04T12:48:00.688Z</time></trkpt><trkpt lat="43.7764483" lon="12.7080767"><ele>187.5</ele><time>2026-04-04T12:48:01.69Z</time></trkpt><trkpt lat="43.7763817" lon="12.7079433"><ele>188.0</ele><time>2026-04-04T12:48:02.688Z</time></trkpt><trkpt lat="43.7762967" lon="12.70784"><ele>188.5</ele><time>2026-04-04T12:48:03.688Z</time></trkpt><trkpt lat="43.7761917" lon="12.7077867"><ele>189.0</ele><time>2026-04-04T12:48:04.689Z</time></trkpt><trkpt lat="43.77607" lon="12.70777"><ele>191.5</ele><time>2026-04-04T12:48:05.689Z</time></trkpt><trkpt lat="43.7759383" lon="12.7077733"><ele>194.0</ele><time>2026-04-04T12:48:06.689Z</time></trkpt><trkpt lat="43.7757967" lon="12.7077867"><ele>196.5</ele><time>2026-04-04T12:48:07.69Z</time></trkpt><trkpt lat="43.7756483" lon="12.7078033"><ele>199.0</ele><time>2026-04-04T12:48:08.689Z</time></trkpt><trkpt lat="43.775495" lon="12.70782"><ele>199.0</ele><time>2026-04-04T12:48:09.689Z</time></trkpt><trkpt lat="43.7753367" lon="12.7078283"><ele>199.0</ele><time>2026-04-04T12:48:10.688Z</time></trkpt><trkpt lat="43.7751717" lon="12.7078367"><ele>199.0</ele><time>2026-04-04T12:48:11.689Z</time></trkpt><trkpt lat="43.775005" lon="12.70785"><ele>198.66666666666666</ele><time>2026-04-04T12:48:12.689Z</time></trkpt><trkpt lat="43.7748367" lon="12.7078667"><ele>198.33333333333331</ele><time>2026-04-04T12:48:13.691Z</time></trkpt><trkpt lat="43.77467" lon="12.70788"><ele>198.0</ele><time>2026-04-04T12:48:14.689Z</time></trkpt><trkpt lat="43.7745033" lon="12.7078933"><ele>198.66666666666669</ele><time>2026-04-04T12:48:15.689Z</time></trkpt><trkpt lat="43.7743317" lon="12.7079083"><ele>199.33333333333334</ele><time>2026-04-04T12:48:16.69Z</time></trkpt><trkpt lat="43.77416" lon="12.7079217"><ele>200.0</ele><time>2026-04-04T12:48:17.689Z</time></trkpt><trkpt lat="43.7739883" lon="12.707935"><ele>200.0</ele><time>2026-04-04T12:48:18.688Z</time></trkpt><trkpt lat="43.7738167" lon="12.7079533"><ele>200.0</ele><time>2026-04-04T12:48:19.69Z</time></trkpt><trkpt lat="43.773645" lon="12.70797"><ele>200.0</ele><time>2026-04-04T12:48:20.689Z</time></trkpt><trkpt lat="43.773475" lon="12.707985"><ele>200.33333333333334</ele><time>2026-04-04T12:48:21.689Z</time></trkpt><trkpt lat="43.7733033" lon="12.7079967"><ele>200.66666666666669</ele><time>2026-04-04T12:48:22.689Z</time></trkpt><trkpt lat="43.7731333" lon="12.7080083"><ele>201.0</ele><time>2026-04-04T12:48:23.689Z</time></trkpt><trkpt lat="43.77296" lon="12.7080217"><ele>201.0</ele><time>2026-04-04T12:48:24.688Z</time></trkpt><trkpt lat="43.7727917" lon="12.7080333"><ele>201.0</ele><time>2026-04-04T12:48:25.691Z</time></trkpt><trkpt lat="43.7726217" lon="12.708045"><ele>201.0</ele><time>2026-04-04T12:48:26.689Z</time></trkpt><trkpt lat="43.7724517" lon="12.7080583"><ele>202.33333333333331</ele><time>2026-04-04T12:48:27.688Z</time></trkpt><trkpt lat="43.772285" lon="12.7080683"><ele>203.66666666666666</ele><time>2026-04-04T12:48:28.688Z</time></trkpt><trkpt lat="43.772135" lon="12.7080767"><ele>205.0</ele><time>2026-04-04T12:48:29.689Z</time></trkpt><trkpt lat="43.772" lon="12.7080883"><ele>205.0</ele><time>2026-04-04T12:48:30.689Z</time></trkpt><trkpt lat="43.7718733" lon="12.7081183"><ele>205.0</ele><time>2026-04-04T12:48:31.691Z</time></trkpt><trkpt lat="43.7717533" lon="12.708175"><ele>205.0</ele><time>2026-04-04T12:48:32.69Z</time></trkpt><trkpt lat="43.7716417" lon="12.708265"><ele>205.0</ele><time>2026-04-04T12:48:33.689Z</time></trkpt><trkpt lat="43.7715433" lon="12.70839"><ele>204.25</ele><time>2026-04-04T12:48:34.692Z</time></trkpt><trkpt lat="43.7714567" lon="12.7085467"><ele>203.5</ele><time>2026-04-04T12:48:35.691Z</time></trkpt><trkpt lat="43.7713817" lon="12.7087217"><ele>202.75</ele><time>2026-04-04T12:48:36.689Z</time></trkpt><trkpt lat="43.7713067" lon="12.7089017"><ele>202.0</ele><time>2026-04-04T12:48:37.691Z</time></trkpt><trkpt lat="43.77123" lon="12.7090783"><ele>202.0</ele><time>2026-04-04T12:48:38.689Z</time></trkpt><trkpt lat="43.7711517" lon="12.7092583"><ele>202.0</ele><time>2026-04-04T12:48:39.689Z</time></trkpt><trkpt lat="43.7710717" lon="12.70944"><ele>202.0</ele><time>2026-04-04T12:48:40.689Z</time></trkpt><trkpt lat="43.7709917" lon="12.7096233"><ele>204.0</ele><time>2026-04-04T12:48:41.689Z</time></trkpt><trkpt lat="43.7709117" lon="12.709805"><ele>206.0</ele><time>2026-04-04T12:48:42.688Z</time></trkpt><trkpt lat="43.7708283" lon="12.7099917"><ele>208.0</ele><time>2026-04-04T12:48:43.691Z</time></trkpt><trkpt lat="43.770745" lon="12.71018"><ele>208.66666666666666</ele><time>2026-04-04T12:48:44.688Z</time></trkpt><trkpt lat="43.7706583" lon="12.7103683"><ele>209.33333333333331</ele><time>2026-04-04T12:48:45.689Z</time></trkpt><trkpt lat="43.77057" lon="12.7105617"><ele>210.0</ele><time>2026-04-04T12:48:46.689Z</time></trkpt><trkpt lat="43.7704767" lon="12.7107533"><ele>210.0</ele><time>2026-04-04T12:48:47.689Z</time></trkpt><trkpt lat="43.7703833" lon="12.7109467"><ele>210.0</ele><time>2026-04-04T12:48:48.689Z</time></trkpt><trkpt lat="43.7702883" lon="12.711135"><ele>210.0</ele><time>2026-04-04T12:48:49.69Z</time></trkpt><trkpt lat="43.77019" lon="12.7113083"><ele>211.33333333333331</ele><time>2026-04-04T12:48:50.689Z</time></trkpt><trkpt lat="43.7700817" lon="12.711455"><ele>212.66666666666666</ele><time>2026-04-04T12:48:51.689Z</time></trkpt><trkpt lat="43.7699617" lon="12.7115767"><ele>214.0</ele><time>2026-04-04T12:48:52.688Z</time></trkpt><trkpt lat="43.769825" lon="12.7116783"><ele>214.0</ele><time>2026-04-04T12:48:53.689Z</time></trkpt><trkpt lat="43.7696767" lon="12.7117633"><ele>214.0</ele><time>2026-04-04T12:48:54.689Z</time></trkpt><trkpt lat="43.76952" lon="12.7118333"><ele>214.0</ele><time>2026-04-04T12:48:55.692Z</time></trkpt><trkpt lat="43.7693617" lon="12.7118983"><ele>213.0</ele><time>2026-04-04T12:48:56.689Z</time></trkpt><trkpt lat="43.7692" lon="12.7119667"><ele>212.0</ele><time>2026-04-04T12:48:57.689Z</time></trkpt><trkpt lat="43.76904" lon="12.7120383"><ele>211.0</ele><time>2026-04-04T12:48:58.689Z</time></trkpt><trkpt lat="43.7688783" lon="12.71211"><ele>211.0</ele><time>2026-04-04T12:48:59.689Z</time></trkpt><trkpt lat="43.7687183" lon="12.7121817"><ele>211.0</ele><time>2026-04-04T12:49:00.689Z</time></trkpt><trkpt lat="43.7685583" lon="12.712255"><ele>211.0</ele><time>2026-04-04T12:49:01.691Z</time></trkpt><trkpt lat="43.7683967" lon="12.712325"><ele>211.66666666666666</ele><time>2026-04-04T12:49:02.69Z</time></trkpt><trkpt lat="43.7682317" lon="12.7123967"><ele>212.33333333333331</ele><time>2026-04-04T12:49:03.688Z</time></trkpt><trkpt lat="43.7680683" lon="12.7124717"><ele>213.0</ele><time>2026-04-04T12:49:04.688Z</time></trkpt><trkpt lat="43.7679017" lon="12.712545"><ele>213.0</ele><time>2026-04-04T12:49:05.688Z</time></trkpt><trkpt lat="43.7677367" lon="12.7126133"><ele>213.0</ele><time>2026-04-04T12:49:06.686Z</time></trkpt><trkpt lat="43.7675767" lon="12.7126767"><ele>213.0</ele><time>2026-04-04T12:49:07.69Z</time></trkpt><trkpt lat="43.7674233" lon="12.7127417"><ele>212.33333333333331</ele><time>2026-04-04T12:49:08.688Z</time></trkpt><trkpt lat="43.767275" lon="12.7128033"><ele>211.66666666666666</ele><time>2026-04-04T12:49:09.687Z</time></trkpt><trkpt lat="43.767125" lon="12.71287"><ele>211.0</ele><time>2026-04-04T12:49:10.688Z</time></trkpt><trkpt lat="43.7669733" lon="12.7129367"><ele>211.0</ele><time>2026-04-04T12:49:11.688Z</time></trkpt><trkpt lat="43.7668233" lon="12.7130033"><ele>211.0</ele><time>2026-04-04T12:49:12.687Z</time></trkpt><trkpt lat="43.766675" lon="12.71307"><ele>211.0</ele><time>2026-04-04T12:49:13.69Z</time></trkpt><trkpt lat="43.766525" lon="12.713135"><ele>211.0</ele><time>2026-04-04T12:49:14.688Z</time></trkpt><trkpt lat="43.7663733" lon="12.7131967"><ele>211.0</ele><time>2026-04-04T12:49:15.688Z</time></trkpt><trkpt lat="43.7662233" lon="12.7132583"><ele>211.0</ele><time>2026-04-04T12:49:16.687Z</time></trkpt><trkpt lat="43.76607" lon="12.7133233"><ele>212.33333333333331</ele><time>2026-04-04T12:49:17.691Z</time></trkpt><trkpt lat="43.7659167" lon="12.71339"><ele>213.66666666666669</ele><time>2026-04-04T12:49:18.688Z</time></trkpt><trkpt lat="43.7657617" lon="12.71346"><ele>215.0</ele><time>2026-04-04T12:49:19.689Z</time></trkpt><trkpt lat="43.765605" lon="12.71353"><ele>215.0</ele><time>2026-04-04T12:49:20.688Z</time></trkpt><trkpt lat="43.765445" lon="12.713595"><ele>215.0</ele><time>2026-04-04T12:49:21.687Z</time></trkpt><trkpt lat="43.7652833" lon="12.7136467"><ele>215.0</ele><time>2026-04-04T12:49:22.688Z</time></trkpt><trkpt lat="43.7651217" lon="12.7136783"><ele>213.66666666666669</ele><time>2026-04-04T12:49:23.689Z</time></trkpt><trkpt lat="43.764955" lon="12.7136783"><ele>212.33333333333331</ele><time>2026-04-04T12:49:24.688Z</time></trkpt><trkpt lat="43.7647933" lon="12.7136533"><ele>211.0</ele><time>2026-04-04T12:49:25.689Z</time></trkpt><trkpt lat="43.7646333" lon="12.7136117"><ele>212.0</ele><time>2026-04-04T12:49:26.69Z</time></trkpt><trkpt lat="43.7644783" lon="12.7135583"><ele>213.0</ele><time>2026-04-04T12:49:27.688Z</time></trkpt><trkpt lat="43.7643217" lon="12.7135"><ele>214.0</ele><time>2026-04-04T12:49:28.688Z</time></trkpt><trkpt lat="43.76417" lon="12.7134367"><ele>215.33333333333331</ele><time>2026-04-04T12:49:29.687Z</time></trkpt><trkpt lat="43.7640183" lon="12.7133717"><ele>216.66666666666669</ele><time>2026-04-04T12:49:30.688Z</time></trkpt><trkpt lat="43.7638683" lon="12.7133117"><ele>218.0</ele><time>2026-04-04T12:49:31.69Z</time></trkpt><trkpt lat="43.7637167" lon="12.7132533"><ele>218.0</ele><time>2026-04-04T12:49:32.689Z</time></trkpt><trkpt lat="43.7635667" lon="12.7131983"><ele>218.0</ele><time>2026-04-04T12:49:33.688Z</time></trkpt><trkpt lat="43.763415" lon="12.7131533"><ele>218.0</ele><time>2026-04-04T12:49:34.688Z</time></trkpt><trkpt lat="43.76326" lon="12.7131267"><ele>220.33333333333334</ele><time>2026-04-04T12:49:35.689Z</time></trkpt><trkpt lat="43.7631017" lon="12.7131167"><ele>222.66666666666669</ele><time>2026-04-04T12:49:36.688Z</time></trkpt><trkpt lat="43.7629417" lon="12.7131133"><ele>225.0</ele><time>2026-04-04T12:49:37.69Z</time></trkpt><trkpt lat="43.76278" lon="12.7131117"><ele>227.25</ele><time>2026-04-04T12:49:38.687Z</time></trkpt><trkpt lat="43.762625" lon="12.7131117"><ele>229.5</ele><time>2026-04-04T12:49:39.688Z</time></trkpt><trkpt lat="43.76248" lon="12.7131133"><ele>231.75</ele><time>2026-04-04T12:49:40.688Z</time></trkpt><trkpt lat="43.7623417" lon="12.7131133"><ele>234.0</ele><time>2026-04-04T12:49:41.687Z</time></trkpt><trkpt lat="43.7622067" lon="12.7131133"><ele>234.0</ele><time>2026-04-04T12:49:42.688Z</time></trkpt><trkpt lat="43.7620733" lon="12.7131083"><ele>234.0</ele><time>2026-04-04T12:49:43.689Z</time></trkpt><trkpt lat="43.7619417" lon="12.7131033"><ele>234.0</ele><time>2026-04-04T12:49:44.688Z</time></trkpt><trkpt lat="43.7618217" lon="12.7131017"><ele>234.0</ele><time>2026-04-04T12:49:45.689Z</time></trkpt><trkpt lat="43.761705" lon="12.7131033"><ele>235.75</ele><time>2026-04-04T12:49:46.688Z</time></trkpt><trkpt lat="43.7615883" lon="12.7131033"><ele>237.5</ele><time>2026-04-04T12:49:47.688Z</time></trkpt><trkpt lat="43.761475" lon="12.7130967"><ele>239.25</ele><time>2026-04-04T12:49:48.689Z</time></trkpt><trkpt lat="43.7613617" lon="12.71309"><ele>241.0</ele><time>2026-04-04T12:49:49.69Z</time></trkpt><trkpt lat="43.7612483" lon="12.7130767"><ele>241.0</ele><time>2026-04-04T12:49:50.687Z</time></trkpt><trkpt lat="43.7611317" lon="12.7130517"><ele>241.0</ele><time>2026-04-04T12:49:51.687Z</time></trkpt><trkpt lat="43.7610167" lon="12.7130167"><ele>241.0</ele><time>2026-04-04T12:49:52.688Z</time></trkpt><trkpt lat="43.7608983" lon="12.7129783"><ele>241.0</ele><time>2026-04-04T12:49:53.687Z</time></trkpt><trkpt lat="43.760775" lon="12.71294"><ele>241.75</ele><time>2026-04-04T12:49:54.689Z</time></trkpt><trkpt lat="43.7606417" lon="12.7128983"><ele>242.5</ele><time>2026-04-04T12:49:55.69Z</time></trkpt><trkpt lat="43.7605033" lon="12.7128567"><ele>243.25</ele><time>2026-04-04T12:49:56.688Z</time></trkpt><trkpt lat="43.76036" lon="12.7128167"><ele>244.0</ele><time>2026-04-04T12:49:57.688Z</time></trkpt><trkpt lat="43.760215" lon="12.712775"><ele>245.0</ele><time>2026-04-04T12:49:58.689Z</time></trkpt><trkpt lat="43.7600683" lon="12.7127333"><ele>246.0</ele><time>2026-04-04T12:49:59.688Z</time></trkpt><trkpt lat="43.7599233" lon="12.7126883"><ele>247.0</ele><time>2026-04-04T12:50:00.688Z</time></trkpt><trkpt lat="43.75978" lon="12.7126467"><ele>248.0</ele><time>2026-04-04T12:50:01.69Z</time></trkpt><trkpt lat="43.7596433" lon="12.712605"><ele>248.0</ele><time>2026-04-04T12:50:02.688Z</time></trkpt><trkpt lat="43.7595233" lon="12.712545"><ele>248.0</ele><time>2026-04-04T12:50:03.687Z</time></trkpt><trkpt lat="43.7594167" lon="12.7124517"><ele>248.0</ele><time>2026-04-04T12:50:04.688Z</time></trkpt><trkpt lat="43.7593217" lon="12.7123267"><ele>248.0</ele><time>2026-04-04T12:50:05.686Z</time></trkpt><trkpt lat="43.75925" lon="12.7121683"><ele>252.0</ele><time>2026-04-04T12:50:06.689Z</time></trkpt><trkpt lat="43.7591917" lon="12.71199"><ele>256.0</ele><time>2026-04-04T12:50:07.69Z</time></trkpt><trkpt lat="43.7591467" lon="12.711805"><ele>260.0</ele><time>2026-04-04T12:50:08.688Z</time></trkpt><trkpt lat="43.7590933" lon="12.71162"><ele>264.0</ele><time>2026-04-04T12:50:09.689Z</time></trkpt><trkpt lat="43.7590217" lon="12.7114467"><ele>264.0</ele><time>2026-04-04T12:50:10.689Z</time></trkpt><trkpt lat="43.75893" lon="12.711285"><ele>264.0</ele><time>2026-04-04T12:50:11.688Z</time></trkpt><trkpt lat="43.7588217" lon="12.7111467"><ele>264.0</ele><time>2026-04-04T12:50:12.689Z</time></trkpt><trkpt lat="43.7586933" lon="12.711035"><ele>264.0</ele><time>2026-04-04T12:50:13.69Z</time></trkpt><trkpt lat="43.758555" lon="12.7109467"><ele>266.3333333333333</ele><time>2026-04-04T12:50:14.689Z</time></trkpt><trkpt lat="43.7584067" lon="12.7108683"><ele>268.66666666666663</ele><time>2026-04-04T12:50:15.686Z</time></trkpt><trkpt lat="43.7582517" lon="12.7107867"><ele>271.0</ele><time>2026-04-04T12:50:16.689Z</time></trkpt><trkpt lat="43.7580933" lon="12.7107033"><ele>271.0</ele><time>2026-04-04T12:50:17.689Z</time></trkpt><trkpt lat="43.757935" lon="12.7106183"><ele>271.0</ele><time>2026-04-04T12:50:18.689Z</time></trkpt><trkpt lat="43.7577767" lon="12.7105367"><ele>271.0</ele><time>2026-04-04T12:50:19.69Z</time></trkpt><trkpt lat="43.7576167" lon="12.710455"><ele>271.3333333333333</ele><time>2026-04-04T12:50:20.688Z</time></trkpt><trkpt lat="43.7574567" lon="12.7103717"><ele>271.6666666666667</ele><time>2026-04-04T12:50:21.689Z</time></trkpt><trkpt lat="43.757295" lon="12.7102867"><ele>272.0</ele><time>2026-04-04T12:50:22.688Z</time></trkpt><trkpt lat="43.7571333" lon="12.7102017"><ele>272.0</ele><time>2026-04-04T12:50:23.687Z</time></trkpt><trkpt lat="43.7569733" lon="12.7101117"><ele>272.0</ele><time>2026-04-04T12:50:24.688Z</time></trkpt><trkpt lat="43.7568133" lon="12.7100183"><ele>272.0</ele><time>2026-04-04T12:50:25.689Z</time></trkpt><trkpt lat="43.7566533" lon="12.7099233"><ele>276.6666666666667</ele><time>2026-04-04T12:50:26.688Z</time></trkpt><trkpt lat="43.7564983" lon="12.7098333"><ele>281.3333333333333</ele><time>2026-04-04T12:50:27.689Z</time></trkpt><trkpt lat="43.756345" lon="12.709745"><ele>286.0</ele><time>2026-04-04T12:50:28.689Z</time></trkpt><trkpt lat="43.7561883" lon="12.7096667"><ele>287.0</ele><time>2026-04-04T12:50:29.688Z</time></trkpt><trkpt lat="43.75603" lon="12.709605"><ele>288.0</ele><time>2026-04-04T12:50:30.69Z</time></trkpt><trkpt lat="43.7558717" lon="12.70957"><ele>289.0</ele><time>2026-04-04T12:50:31.689Z</time></trkpt><trkpt lat="43.7557083" lon="12.7095617"><ele>289.0</ele><time>2026-04-04T12:50:32.687Z</time></trkpt><trkpt lat="43.755545" lon="12.7095767"><ele>289.0</ele><time>2026-04-04T12:50:33.688Z</time></trkpt><trkpt lat="43.75538" lon="12.7096067"><ele>289.0</ele><time>2026-04-04T12:50:34.689Z</time></trkpt><trkpt lat="43.7552117" lon="12.7096483"><ele>288.3333333333333</ele><time>2026-04-04T12:50:35.688Z</time></trkpt><trkpt lat="43.755045" lon="12.7096933"><ele>287.6666666666667</ele><time>2026-04-04T12:50:36.688Z</time></trkpt><trkpt lat="43.7548833" lon="12.7097383"><ele>287.0</ele><time>2026-04-04T12:50:37.689Z</time></trkpt><trkpt lat="43.754735" lon="12.7097733"><ele>287.0</ele><time>2026-04-04T12:50:38.688Z</time></trkpt><trkpt lat="43.7546" lon="12.7098033"><ele>287.0</ele><time>2026-04-04T12:50:39.689Z</time></trkpt><trkpt lat="43.754475" lon="12.7098317"><ele>287.0</ele><time>2026-04-04T12:50:40.688Z</time></trkpt><trkpt lat="43.75436" lon="12.7098617"><ele>287.0</ele><time>2026-04-04T12:50:41.689Z</time></trkpt><trkpt lat="43.7542517" lon="12.70989"><ele>288.4</ele><time>2026-04-04T12:50:42.687Z</time></trkpt><trkpt lat="43.7541483" lon="12.709915"><ele>289.79999999999995</ele><time>2026-04-04T12:50:43.692Z</time></trkpt><trkpt lat="43.754055" lon="12.7099333"><ele>291.2</ele><time>2026-04-04T12:50:44.687Z</time></trkpt><trkpt lat="43.7539683" lon="12.7099533"><ele>292.59999999999997</ele><time>2026-04-04T12:50:45.691Z</time></trkpt><trkpt lat="43.7538833" lon="12.7099767"><ele>294.0</ele><time>2026-04-04T12:50:46.686Z</time></trkpt><trkpt lat="43.7538033" lon="12.71"><ele>294.0</ele><time>2026-04-04T12:50:47.689Z</time></trkpt><trkpt lat="43.7537233" lon="12.71002"><ele>294.0</ele><time>2026-04-04T12:50:48.689Z</time></trkpt><trkpt lat="43.7536383" lon="12.71004"><ele>294.0</ele><time>2026-04-04T12:50:49.69Z</time></trkpt><trkpt lat="43.7535483" lon="12.71006"><ele>294.0</ele><time>2026-04-04T12:50:50.688Z</time></trkpt><trkpt lat="43.7534517" lon="12.7100833"><ele>294.0</ele><time>2026-04-04T12:50:51.688Z</time></trkpt><trkpt lat="43.7533433" lon="12.7101117"><ele>293.25</ele><time>2026-04-04T12:50:52.688Z</time></trkpt><trkpt lat="43.7532267" lon="12.7101433"><ele>292.5</ele><time>2026-04-04T12:50:53.688Z</time></trkpt><trkpt lat="43.7531017" lon="12.7101733"><ele>291.75</ele><time>2026-04-04T12:50:54.688Z</time></trkpt><trkpt lat="43.7529683" lon="12.710205"><ele>291.0</ele><time>2026-04-04T12:50:55.69Z</time></trkpt><trkpt lat="43.75283" lon="12.7102417"><ele>295.3333333333333</ele><time>2026-04-04T12:50:56.687Z</time></trkpt><trkpt lat="43.752685" lon="12.7102817"><ele>299.66666666666663</ele><time>2026-04-04T12:50:57.688Z</time></trkpt><trkpt lat="43.752535" lon="12.7103267"><ele>304.0</ele><time>2026-04-04T12:50:58.687Z</time></trkpt><trkpt lat="43.752385" lon="12.7103717"><ele>304.0</ele><time>2026-04-04T12:50:59.688Z</time></trkpt><trkpt lat="43.7522333" lon="12.7104117"><ele>304.0</ele><time>2026-04-04T12:51:00.687Z</time></trkpt><trkpt lat="43.7520883" lon="12.7104417"><ele>304.0</ele><time>2026-04-04T12:51:01.69Z</time></trkpt><trkpt lat="43.7519533" lon="12.71045"><ele>304.0</ele><time>2026-04-04T12:51:02.689Z</time></trkpt><trkpt lat="43.7518233" lon="12.710445"><ele>305.5</ele><time>2026-04-04T12:51:03.689Z</time></trkpt><trkpt lat="43.7517" lon="12.7104183"><ele>307.0</ele><time>2026-04-04T12:51:04.689Z</time></trkpt><trkpt lat="43.7515783" lon="12.7103667"><ele>308.5</ele><time>2026-04-04T12:51:05.687Z</time></trkpt><trkpt lat="43.7514583" lon="12.7102867"><ele>310.0</ele><time>2026-04-04T12:51:06.688Z</time></trkpt><trkpt lat="43.7513433" lon="12.7101917"><ele>310.75</ele><time>2026-04-04T12:51:07.691Z</time></trkpt><trkpt lat="43.7512267" lon="12.7100867"><ele>311.5</ele><time>2026-04-04T12:51:08.689Z</time></trkpt><trkpt lat="43.751105" lon="12.7099817"><ele>312.25</ele><time>2026-04-04T12:51:09.688Z</time></trkpt><trkpt lat="43.7509833" lon="12.70987"><ele>313.0</ele><time>2026-04-04T12:51:10.688Z</time></trkpt><trkpt lat="43.75086" lon="12.70976"><ele>313.0</ele><time>2026-04-04T12:51:11.688Z</time></trkpt><trkpt lat="43.7507383" lon="12.7096383"><ele>313.0</ele><time>2026-04-04T12:51:12.689Z</time></trkpt><trkpt lat="43.7506117" lon="12.709515"><ele>313.0</ele><time>2026-04-04T12:51:13.69Z</time></trkpt><trkpt lat="43.7504867" lon="12.7093983"><ele>313.0</ele><time>2026-04-04T12:51:14.688Z</time></trkpt><trkpt lat="43.75036" lon="12.7092883"><ele>313.0</ele><time>2026-04-04T12:51:15.689Z</time></trkpt><trkpt lat="43.7502333" lon="12.7091867"><ele>313.0</ele><time>2026-04-04T12:51:16.687Z</time></trkpt><trkpt lat="43.750105" lon="12.709105"><ele>313.0</ele><time>2026-04-04T12:51:17.685Z</time></trkpt><trkpt lat="43.749975" lon="12.7090583"><ele>313.0</ele><time>2026-04-04T12:51:18.688Z</time></trkpt><trkpt lat="43.749845" lon="12.7090433"><ele>313.0</ele><time>2026-04-04T12:51:19.688Z</time></trkpt><trkpt lat="43.7497167" lon="12.7090517"><ele>313.0</ele><time>2026-04-04T12:51:20.687Z</time></trkpt><trkpt lat="43.7495917" lon="12.709065"><ele>313.0</ele><time>2026-04-04T12:51:21.687Z</time></trkpt><trkpt lat="43.74947" lon="12.7090717"><ele>315.5</ele><time>2026-04-04T12:51:22.687Z</time></trkpt><trkpt lat="43.74935" lon="12.709065"><ele>318.0</ele><time>2026-04-04T12:51:23.692Z</time></trkpt><trkpt lat="43.7492283" lon="12.7090433"><ele>320.5</ele><time>2026-04-04T12:51:24.688Z</time></trkpt><trkpt lat="43.749105" lon="12.709005"><ele>323.0</ele><time>2026-04-04T12:51:25.688Z</time></trkpt><trkpt lat="43.7489833" lon="12.7089417"><ele>323.0</ele><time>2026-04-04T12:51:26.686Z</time></trkpt><trkpt lat="43.74887" lon="12.708855"><ele>323.0</ele><time>2026-04-04T12:51:27.686Z</time></trkpt><trkpt lat="43.7487667" lon="12.7087617"><ele>323.0</ele><time>2026-04-04T12:51:28.689Z</time></trkpt><trkpt lat="43.7486667" lon="12.7086633"><ele>323.0</ele><time>2026-04-04T12:51:29.688Z</time></trkpt><trkpt lat="43.74856" lon="12.7085983"><ele>323.5</ele><time>2026-04-04T12:51:30.689Z</time></trkpt><trkpt lat="43.7484433" lon="12.7085667"><ele>324.0</ele><time>2026-04-04T12:51:31.69Z</time></trkpt><trkpt lat="43.7483167" lon="12.708575"><ele>324.5</ele><time>2026-04-04T12:51:32.689Z</time></trkpt><trkpt lat="43.74818" lon="12.7086083"><ele>325.0</ele><time>2026-04-04T12:51:33.688Z</time></trkpt><trkpt lat="43.7480367" lon="12.708655"><ele>325.0</ele><time>2026-04-04T12:51:34.688Z</time></trkpt><trkpt lat="43.7478917" lon="12.7087067"><ele>325.0</ele><time>2026-04-04T12:51:35.689Z</time></trkpt><trkpt lat="43.747745" lon="12.70875"><ele>325.0</ele><time>2026-04-04T12:51:36.689Z</time></trkpt><trkpt lat="43.7476133" lon="12.7087783"><ele>325.0</ele><time>2026-04-04T12:51:37.69Z</time></trkpt><trkpt lat="43.74749" lon="12.7087733"><ele>325.25</ele><time>2026-04-04T12:51:38.688Z</time></trkpt><trkpt lat="43.7473667" lon="12.7087333"><ele>325.5</ele><time>2026-04-04T12:51:39.688Z</time></trkpt><trkpt lat="43.7472433" lon="12.708675"><ele>325.75</ele><time>2026-04-04T12:51:40.688Z</time></trkpt><trkpt lat="43.7471167" lon="12.708595"><ele>326.0</ele><time>2026-04-04T12:51:41.689Z</time></trkpt><trkpt lat="43.7469933" lon="12.70851"><ele>330.5</ele><time>2026-04-04T12:51:42.689Z</time></trkpt><trkpt lat="43.746875" lon="12.7084217"><ele>335.0</ele><time>2026-04-04T12:51:43.689Z</time></trkpt><trkpt lat="43.74677" lon="12.70833"><ele>339.5</ele><time>2026-04-04T12:51:44.688Z</time></trkpt><trkpt lat="43.7466917" lon="12.7082317"><ele>344.0</ele><time>2026-04-04T12:51:45.687Z</time></trkpt><trkpt lat="43.7466417" lon="12.708125"><ele>344.0</ele><time>2026-04-04T12:51:46.689Z</time></trkpt><trkpt lat="43.7466233" lon="12.708015"><ele>344.0</ele><time>2026-04-04T12:51:47.687Z</time></trkpt><trkpt lat="43.7466483" lon="12.707925"><ele>344.0</ele><time>2026-04-04T12:51:48.688Z</time></trkpt><trkpt lat="43.74672" lon="12.7078767"><ele>344.0</ele><time>2026-04-04T12:51:49.689Z</time></trkpt><trkpt lat="43.7468017" lon="12.7078717"><ele>344.0</ele><time>2026-04-04T12:51:50.687Z</time></trkpt><trkpt lat="43.7469183" lon="12.707975"><ele>344.5</ele><time>2026-04-04T12:51:51.687Z</time></trkpt><trkpt lat="43.7470533" lon="12.7081433"><ele>345.0</ele><time>2026-04-04T12:51:52.687Z</time></trkpt><trkpt lat="43.7471767" lon="12.7082417"><ele>345.5</ele><time>2026-04-04T12:51:53.686Z</time></trkpt><trkpt lat="43.74728" lon="12.7083167"><ele>346.0</ele><time>2026-04-04T12:51:54.689Z</time></trkpt><trkpt lat="43.7473817" lon="12.7083517"><ele>346.0</ele><time>2026-04-04T12:51:55.688Z</time></trkpt><trkpt lat="43.747475" lon="12.70834"><ele>346.0</ele><time>2026-04-04T12:51:56.691Z</time></trkpt><trkpt lat="43.74755" lon="12.708285"><ele>346.0</ele><time>2026-04-04T12:51:57.688Z</time></trkpt><trkpt lat="43.7475933" lon="12.7082"><ele>346.0</ele><time>2026-04-04T12:51:58.688Z</time></trkpt><trkpt lat="43.7475817" lon="12.70808"><ele>346.0</ele><time>2026-04-04T12:51:59.688Z</time></trkpt><trkpt lat="43.7475217" lon="12.7079483"><ele>346.0</ele><time>2026-04-04T12:52:00.688Z</time></trkpt><trkpt lat="43.747425" lon="12.7078417"><ele>346.0</ele><time>2026-04-04T12:52:01.69Z</time></trkpt><trkpt lat="43.7472983" lon="12.7077367"><ele>346.0</ele><time>2026-04-04T12:52:02.688Z</time></trkpt><trkpt lat="43.7471783" lon="12.7076383"><ele>346.0</ele><time>2026-04-04T12:52:03.688Z</time></trkpt><trkpt lat="43.7470583" lon="12.7075617"><ele>345.5</ele><time>2026-04-04T12:52:04.689Z</time></trkpt><trkpt lat="43.74693" lon="12.7075133"><ele>345.0</ele><time>2026-04-04T12:52:05.689Z</time></trkpt><trkpt lat="43.746795" lon="12.7074917"><ele>344.5</ele><time>2026-04-04T12:52:06.687Z</time></trkpt><trkpt lat="43.7466667" lon="12.70748"><ele>344.0</ele><time>2026-04-04T12:52:07.69Z</time></trkpt><trkpt lat="43.74655" lon="12.7074517"><ele>348.5</ele><time>2026-04-04T12:52:08.688Z</time></trkpt><trkpt lat="43.7464467" lon="12.707385"><ele>353.0</ele><time>2026-04-04T12:52:09.687Z</time></trkpt><trkpt lat="43.7463517" lon="12.7072783"><ele>357.5</ele><time>2026-04-04T12:52:10.689Z</time></trkpt><trkpt lat="43.7462533" lon="12.7071583"><ele>362.0</ele><time>2026-04-04T12:52:11.69Z</time></trkpt><trkpt lat="43.7461467" lon="12.70704"><ele>360.75</ele><time>2026-04-04T12:52:12.688Z</time></trkpt><trkpt lat="43.74603" lon="12.7069333"><ele>359.5</ele><time>2026-04-04T12:52:13.69Z</time></trkpt><trkpt lat="43.7459033" lon="12.7068333"><ele>358.25</ele><time>2026-04-04T12:52:14.69Z</time></trkpt><trkpt lat="43.7457683" lon="12.7067467"><ele>357.0</ele><time>2026-04-04T12:52:15.689Z</time></trkpt><trkpt lat="43.74563" lon="12.70666"><ele>361.75</ele><time>2026-04-04T12:52:16.69Z</time></trkpt><trkpt lat="43.7454917" lon="12.7065733"><ele>366.5</ele><time>2026-04-04T12:52:17.687Z</time></trkpt><trkpt lat="43.7453567" lon="12.7064917"><ele>371.25</ele><time>2026-04-04T12:52:18.688Z</time></trkpt><trkpt lat="43.7452233" lon="12.706415"><ele>376.0</ele><time>2026-04-04T12:52:19.688Z</time></trkpt><trkpt lat="43.7450933" lon="12.7063383"><ele>376.0</ele><time>2026-04-04T12:52:20.688Z</time></trkpt><trkpt lat="43.7449633" lon="12.7062617"><ele>376.0</ele><time>2026-04-04T12:52:21.687Z</time></trkpt><trkpt lat="43.7448367" lon="12.70619"><ele>376.0</ele><time>2026-04-04T12:52:22.688Z</time></trkpt><trkpt lat="43.744705" lon="12.7061283"><ele>376.0</ele><time>2026-04-04T12:52:23.687Z</time></trkpt><trkpt lat="43.7445667" lon="12.70609"><ele>378.5</ele><time>2026-04-04T12:52:24.688Z</time></trkpt><trkpt lat="43.7444217" lon="12.7060683"><ele>381.0</ele><time>2026-04-04T12:52:25.687Z</time></trkpt><trkpt lat="43.744275" lon="12.7060533"><ele>383.5</ele><time>2026-04-04T12:52:26.688Z</time></trkpt><trkpt lat="43.7441283" lon="12.70604"><ele>386.0</ele><time>2026-04-04T12:52:27.687Z</time></trkpt><trkpt lat="43.7439833" lon="12.7060167"><ele>388.25</ele><time>2026-04-04T12:52:28.689Z</time></trkpt><trkpt lat="43.743835" lon="12.7059983"><ele>390.5</ele><time>2026-04-04T12:52:29.687Z</time></trkpt><trkpt lat="43.743685" lon="12.7059817"><ele>392.75</ele><time>2026-04-04T12:52:30.689Z</time></trkpt><trkpt lat="43.7435383" lon="12.7059667"><ele>395.0</ele><time>2026-04-04T12:52:31.691Z</time></trkpt><trkpt lat="43.7433933" lon="12.70594"><ele>397.0</ele><time>2026-04-04T12:52:32.687Z</time></trkpt><trkpt lat="43.7432533" lon="12.705895"><ele>399.0</ele><time>2026-04-04T12:52:33.689Z</time></trkpt><trkpt lat="43.7431167" lon="12.7058433"><ele>401.0</ele><time>2026-04-04T12:52:34.689Z</time></trkpt><trkpt lat="43.7429933" lon="12.70579"><ele>403.0</ele><time>2026-04-04T12:52:35.69Z</time></trkpt><trkpt lat="43.74288" lon="12.705735"><ele>403.0</ele><time>2026-04-04T12:52:36.688Z</time></trkpt><trkpt lat="43.74278" lon="12.7056717"><ele>403.0</ele><time>2026-04-04T12:52:37.69Z</time></trkpt><trkpt lat="43.74269" lon="12.7055833"><ele>403.0</ele><time>2026-04-04T12:52:38.689Z</time></trkpt><trkpt lat="43.7426067" lon="12.7054667"><ele>403.0</ele><time>2026-04-04T12:52:39.689Z</time></trkpt><trkpt lat="43.7425283" lon="12.70533"><ele>404.75</ele><time>2026-04-04T12:52:40.689Z</time></trkpt><trkpt lat="43.7424467" lon="12.7051883"><ele>406.5</ele><time>2026-04-04T12:52:41.686Z</time></trkpt><trkpt lat="43.7423533" lon="12.7050517"><ele>408.25</ele><time>2026-04-04T12:52:42.689Z</time></trkpt><trkpt lat="43.742255" lon="12.7049283"><ele>410.0</ele><time>2026-04-04T12:52:43.69Z</time></trkpt><trkpt lat="43.742155" lon="12.7048217"><ele>410.0</ele><time>2026-04-04T12:52:44.689Z</time></trkpt><trkpt lat="43.7420567" lon="12.7047333"><ele>410.0</ele><time>2026-04-04T12:52:45.69Z</time></trkpt><trkpt lat="43.74195" lon="12.704665"><ele>410.0</ele><time>2026-04-04T12:52:46.687Z</time></trkpt><trkpt lat="43.7418467" lon="12.7046033"><ele>410.0</ele><time>2026-04-04T12:52:47.687Z</time></trkpt><trkpt lat="43.7417517" lon="12.704545"><ele>409.6</ele><time>2026-04-04T12:52:48.687Z</time></trkpt><trkpt lat="43.74166" lon="12.7044883"><ele>409.2</ele><time>2026-04-04T12:52:49.69Z</time></trkpt><trkpt lat="43.7415733" lon="12.704425"><ele>408.79999999999995</ele><time>2026-04-04T12:52:50.687Z</time></trkpt><trkpt lat="43.7414917" lon="12.7043633"><ele>408.4</ele><time>2026-04-04T12:52:51.688Z</time></trkpt><trkpt lat="43.7414133" lon="12.704305"><ele>408.0</ele><time>2026-04-04T12:52:52.689Z</time></trkpt><trkpt lat="43.741345" lon="12.704255"><ele>408.0</ele><time>2026-04-04T12:52:53.687Z</time></trkpt><trkpt lat="43.7412567" lon="12.704185"><ele>408.0</ele><time>2026-04-04T12:52:55.688Z</time></trkpt><trkpt lat="43.7411633" lon="12.70418"><ele>408.0</ele><time>2026-04-04T12:52:57.688Z</time></trkpt><trkpt lat="43.741095" lon="12.7042033"><ele>408.0</ele><time>2026-04-04T12:52:58.69Z</time></trkpt><trkpt lat="43.7410133" lon="12.70424"><ele>408.0</ele><time>2026-04-04T12:52:59.688Z</time></trkpt><trkpt lat="43.7409367" lon="12.7042667"><ele>408.0</ele><time>2026-04-04T12:53:00.69Z</time></trkpt><trkpt lat="43.740855" lon="12.70428"><ele>408.4</ele><time>2026-04-04T12:53:01.691Z</time></trkpt><trkpt lat="43.7407633" lon="12.7042733"><ele>408.79999999999995</ele><time>2026-04-04T12:53:02.687Z</time></trkpt><trkpt lat="43.740655" lon="12.7042417"><ele>409.2</ele><time>2026-04-04T12:53:03.69Z</time></trkpt><trkpt lat="43.74054" lon="12.704185"><ele>409.6</ele><time>2026-04-04T12:53:04.689Z</time></trkpt><trkpt lat="43.7404267" lon="12.7041283"><ele>410.0</ele><time>2026-04-04T12:53:05.689Z</time></trkpt><trkpt lat="43.7403017" lon="12.70411"><ele>412.25</ele><time>2026-04-04T12:53:06.688Z</time></trkpt><trkpt lat="43.740165" lon="12.7041167"><ele>414.5</ele><time>2026-04-04T12:53:07.69Z</time></trkpt><trkpt lat="43.7400267" lon="12.7041483"><ele>416.75</ele><time>2026-04-04T12:53:08.689Z</time></trkpt><trkpt lat="43.739885" lon="12.704175"><ele>419.0</ele><time>2026-04-04T12:53:09.688Z</time></trkpt><trkpt lat="43.73974" lon="12.70419"><ele>419.0</ele><time>2026-04-04T12:53:10.689Z</time></trkpt><trkpt lat="43.73959" lon="12.7041917"><ele>419.0</ele><time>2026-04-04T12:53:11.689Z</time></trkpt><trkpt lat="43.7394383" lon="12.704195"><ele>419.0</ele><time>2026-04-04T12:53:12.69Z</time></trkpt><trkpt lat="43.7392883" lon="12.704195"><ele>420.75</ele><time>2026-04-04T12:53:13.691Z</time></trkpt><trkpt lat="43.7391367" lon="12.7041917"><ele>422.5</ele><time>2026-04-04T12:53:14.689Z</time></trkpt><trkpt lat="43.7389933" lon="12.7041867"><ele>424.25</ele><time>2026-04-04T12:53:15.689Z</time></trkpt><trkpt lat="43.738855" lon="12.7041767"><ele>426.0</ele><time>2026-04-04T12:53:16.686Z</time></trkpt><trkpt lat="43.7387217" lon="12.704175"><ele>426.0</ele><time>2026-04-04T12:53:17.687Z</time></trkpt><trkpt lat="43.7385883" lon="12.7041983"><ele>426.0</ele><time>2026-04-04T12:53:18.687Z</time></trkpt><trkpt lat="43.73846" lon="12.70425"><ele>426.0</ele><time>2026-04-04T12:53:19.689Z</time></trkpt><trkpt lat="43.738335" lon="12.704315"><ele>426.0</ele><time>2026-04-04T12:53:20.686Z</time></trkpt><trkpt lat="43.7382117" lon="12.7043783"><ele>428.75</ele><time>2026-04-04T12:53:21.688Z</time></trkpt><trkpt lat="43.7380867" lon="12.70442"><ele>431.5</ele><time>2026-04-04T12:53:22.689Z</time></trkpt><trkpt lat="43.7379567" lon="12.7044367"><ele>434.25</ele><time>2026-04-04T12:53:23.691Z</time></trkpt><trkpt lat="43.7378267" lon="12.7044433"><ele>437.0</ele><time>2026-04-04T12:53:24.688Z</time></trkpt><trkpt lat="43.7377083" lon="12.7044583"><ele>439.0</ele><time>2026-04-04T12:53:25.689Z</time></trkpt><trkpt lat="43.7375983" lon="12.7044933"><ele>441.00000000000006</ele><time>2026-04-04T12:53:26.69Z</time></trkpt><trkpt lat="43.7374933" lon="12.70456"><ele>443.00000000000006</ele><time>2026-04-04T12:53:27.686Z</time></trkpt><trkpt lat="43.7374017" lon="12.7046183"><ele>445.0</ele><time>2026-04-04T12:53:28.688Z</time></trkpt><trkpt lat="43.7373117" lon="12.7046483"><ele>447.0</ele><time>2026-04-04T12:53:29.688Z</time></trkpt><trkpt lat="43.7372333" lon="12.704635"><ele>447.0</ele><time>2026-04-04T12:53:30.69Z</time></trkpt><trkpt lat="43.7371717" lon="12.7045817"><ele>447.00000000000006</ele><time>2026-04-04T12:53:31.691Z</time></trkpt><trkpt lat="43.7371033" lon="12.7045117"><ele>447.00000000000006</ele><time>2026-04-04T12:53:32.69Z</time></trkpt><trkpt lat="43.73707" lon="12.7043417"><ele>447.0</ele><time>2026-04-04T12:53:33.689Z</time></trkpt><trkpt lat="43.7370117" lon="12.7041983"><ele>447.0</ele><time>2026-04-04T12:53:34.691Z</time></trkpt><trkpt lat="43.7369333" lon="12.704055"><ele>447.0</ele><time>2026-04-04T12:53:35.689Z</time></trkpt><trkpt lat="43.736835" lon="12.703935"><ele>447.0</ele><time>2026-04-04T12:53:36.689Z</time></trkpt><trkpt lat="43.7367233" lon="12.7038417"><ele>447.0</ele><time>2026-04-04T12:53:37.691Z</time></trkpt><trkpt lat="43.7366167" lon="12.7037517"><ele>447.0</ele><time>2026-04-04T12:53:38.688Z</time></trkpt><trkpt lat="43.7365133" lon="12.70366"><ele>450.25</ele><time>2026-04-04T12:53:39.69Z</time></trkpt><trkpt lat="43.7364067" lon="12.703575"><ele>453.5</ele><time>2026-04-04T12:53:40.688Z</time></trkpt><trkpt lat="43.7362933" lon="12.703505"><ele>456.75</ele><time>2026-04-04T12:53:41.688Z</time></trkpt><trkpt lat="43.7361833" lon="12.7034533"><ele>460.0</ele><time>2026-04-04T12:53:42.689Z</time></trkpt><trkpt lat="43.7360767" lon="12.7034083"><ele>460.4</ele><time>2026-04-04T12:53:43.691Z</time></trkpt><trkpt lat="43.73597" lon="12.7033767"><ele>460.8</ele><time>2026-04-04T12:53:44.689Z</time></trkpt><trkpt lat="43.7358633" lon="12.7033633"><ele>461.20000000000005</ele><time>2026-04-04T12:53:45.689Z</time></trkpt><trkpt lat="43.7357517" lon="12.7033717"><ele>461.6</ele><time>2026-04-04T12:53:46.687Z</time></trkpt><trkpt lat="43.7356383" lon="12.7033883"><ele>462.0</ele><time>2026-04-04T12:53:47.686Z</time></trkpt><trkpt lat="43.7355233" lon="12.7034083"><ele>462.0</ele><time>2026-04-04T12:53:48.688Z</time></trkpt><trkpt lat="43.7354033" lon="12.7034233"><ele>462.0</ele><time>2026-04-04T12:53:49.689Z</time></trkpt><trkpt lat="43.73528" lon="12.7034267"><ele>462.0</ele><time>2026-04-04T12:53:50.686Z</time></trkpt><trkpt lat="43.7351683" lon="12.7034283"><ele>462.0</ele><time>2026-04-04T12:53:51.686Z</time></trkpt><trkpt lat="43.735065" lon="12.7034433"><ele>463.75</ele><time>2026-04-04T12:53:52.691Z</time></trkpt><trkpt lat="43.7349633" lon="12.7034833"><ele>465.5</ele><time>2026-04-04T12:53:53.688Z</time></trkpt><trkpt lat="43.7348683" lon="12.7035717"><ele>467.25</ele><time>2026-04-04T12:53:54.688Z</time></trkpt><trkpt lat="43.7347767" lon="12.7036767"><ele>469.0</ele><time>2026-04-04T12:53:55.691Z</time></trkpt><trkpt lat="43.7346767" lon="12.7037967"><ele>469.0</ele><time>2026-04-04T12:53:56.689Z</time></trkpt><trkpt lat="43.73458" lon="12.70392"><ele>469.0</ele><time>2026-04-04T12:53:57.689Z</time></trkpt><trkpt lat="43.7344817" lon="12.7040483"><ele>469.0</ele><time>2026-04-04T12:53:58.687Z</time></trkpt><trkpt lat="43.7343817" lon="12.7041717"><ele>469.0</ele><time>2026-04-04T12:53:59.694Z</time></trkpt><trkpt lat="43.734285" lon="12.7042967"><ele>471.0</ele><time>2026-04-04T12:54:00.69Z</time></trkpt><trkpt lat="43.7341867" lon="12.7044217"><ele>473.0</ele><time>2026-04-04T12:54:01.691Z</time></trkpt><trkpt lat="43.7340917" lon="12.7045467"><ele>475.0</ele><time>2026-04-04T12:54:02.688Z</time></trkpt><trkpt lat="43.7340033" lon="12.7046683"><ele>477.0</ele><time>2026-04-04T12:54:03.689Z</time></trkpt><trkpt lat="43.73393" lon="12.7047833"><ele>477.0</ele><time>2026-04-04T12:54:04.689Z</time></trkpt><trkpt lat="43.73387" lon="12.7048883"><ele>477.0</ele><time>2026-04-04T12:54:05.687Z</time></trkpt><trkpt lat="43.7338217" lon="12.7049833"><ele>477.0</ele><time>2026-04-04T12:54:06.689Z</time></trkpt><trkpt lat="43.7337683" lon="12.7050567"><ele>477.0</ele><time>2026-04-04T12:54:07.69Z</time></trkpt><trkpt lat="43.7337117" lon="12.7051067"><ele>477.0</ele><time>2026-04-04T12:54:08.689Z</time></trkpt><trkpt lat="43.733605" lon="12.705085"><ele>477.0</ele><time>2026-04-04T12:54:10.688Z</time></trkpt><trkpt lat="43.7335667" lon="12.7048833"><ele>477.0</ele><time>2026-04-04T12:54:12.688Z</time></trkpt><trkpt lat="43.7335683" lon="12.70473"><ele>477.0</ele><time>2026-04-04T12:54:13.691Z</time></trkpt><trkpt lat="43.7335717" lon="12.704585"><ele>477.0</ele><time>2026-04-04T12:54:14.687Z</time></trkpt><trkpt lat="43.7335967" lon="12.7043967"><ele>477.0</ele><time>2026-04-04T12:54:15.688Z</time></trkpt><trkpt lat="43.73363" lon="12.7042083"><ele>478.25</ele><time>2026-04-04T12:54:16.689Z</time></trkpt><trkpt lat="43.733655" lon="12.7040167"><ele>479.5</ele><time>2026-04-04T12:54:17.687Z</time></trkpt><trkpt lat="43.733685" lon="12.7038217"><ele>480.75</ele><time>2026-04-04T12:54:18.69Z</time></trkpt><trkpt lat="43.733715" lon="12.703655"><ele>482.0</ele><time>2026-04-04T12:54:19.69Z</time></trkpt><trkpt lat="43.7337417" lon="12.7034983"><ele>483.0</ele><time>2026-04-04T12:54:20.688Z</time></trkpt><trkpt lat="43.73375" lon="12.7033683"><ele>484.00000000000006</ele><time>2026-04-04T12:54:21.69Z</time></trkpt><trkpt lat="43.7337333" lon="12.7032533"><ele>485.00000000000006</ele><time>2026-04-04T12:54:22.689Z</time></trkpt><trkpt lat="43.7336983" lon="12.7031417"><ele>486.0</ele><time>2026-04-04T12:54:23.687Z</time></trkpt><trkpt lat="43.7336333" lon="12.70303"><ele>487.0</ele><time>2026-04-04T12:54:24.69Z</time></trkpt><trkpt lat="43.7335817" lon="12.7029233"><ele>489.0</ele><time>2026-04-04T12:54:25.691Z</time></trkpt><trkpt lat="43.7335417" lon="12.7028083"><ele>491.00000000000006</ele><time>2026-04-04T12:54:26.691Z</time></trkpt><trkpt lat="43.7335183" lon="12.7026883"><ele>493.00000000000006</ele><time>2026-04-04T12:54:27.689Z</time></trkpt><trkpt lat="43.7335133" lon="12.70257"><ele>495.0</ele><time>2026-04-04T12:54:28.689Z</time></trkpt><trkpt lat="43.7335433" lon="12.7024383"><ele>497.0</ele><time>2026-04-04T12:54:29.689Z</time></trkpt><trkpt lat="43.73358" lon="12.7023"><ele>497.0</ele><time>2026-04-04T12:54:30.691Z</time></trkpt><trkpt lat="43.7336" lon="12.7021633"><ele>497.00000000000006</ele><time>2026-04-04T12:54:31.691Z</time></trkpt><trkpt lat="43.7336017" lon="12.7020233"><ele>497.00000000000006</ele><time>2026-04-04T12:54:32.689Z</time></trkpt><trkpt lat="43.73359" lon="12.7018817"><ele>497.0</ele><time>2026-04-04T12:54:33.689Z</time></trkpt><trkpt lat="43.733565" lon="12.7017333"><ele>497.0</ele><time>2026-04-04T12:54:34.688Z</time></trkpt><trkpt lat="43.7335233" lon="12.7015917"><ele>500.6</ele><time>2026-04-04T12:54:35.689Z</time></trkpt><trkpt lat="43.73349" lon="12.7014517"><ele>504.20000000000005</ele><time>2026-04-04T12:54:36.689Z</time></trkpt><trkpt lat="43.7334567" lon="12.7013067"><ele>507.8</ele><time>2026-04-04T12:54:37.689Z</time></trkpt><trkpt lat="43.733425" lon="12.7011617"><ele>511.4</ele><time>2026-04-04T12:54:38.689Z</time></trkpt><trkpt lat="43.733395" lon="12.7010167"><ele>515.0</ele><time>2026-04-04T12:54:39.688Z</time></trkpt><trkpt lat="43.7333667" lon="12.7008817"><ele>516.3333333333333</ele><time>2026-04-04T12:54:40.688Z</time></trkpt><trkpt lat="43.733345" lon="12.7007583"><ele>517.6666666666666</ele><time>2026-04-04T12:54:41.687Z</time></trkpt><trkpt lat="43.73332" lon="12.7006517"><ele>519.0</ele><time>2026-04-04T12:54:42.69Z</time></trkpt><trkpt lat="43.7332917" lon="12.7005667"><ele>520.3333333333334</ele><time>2026-04-04T12:54:43.688Z</time></trkpt><trkpt lat="43.733245" lon="12.700495"><ele>521.6666666666667</ele><time>2026-04-04T12:54:44.69Z</time></trkpt><trkpt lat="43.733185" lon="12.7004517"><ele>523.0</ele><time>2026-04-04T12:54:45.688Z</time></trkpt><trkpt lat="43.7331133" lon="12.7004317"><ele>523.0</ele><time>2026-04-04T12:54:46.688Z</time></trkpt><trkpt lat="43.73303" lon="12.7004233"><ele>523.0</ele><time>2026-04-04T12:54:47.689Z</time></trkpt><trkpt lat="43.7329417" lon="12.7004117"><ele>523.0</ele><time>2026-04-04T12:54:48.689Z</time></trkpt><trkpt lat="43.7328517" lon="12.7003833"><ele>523.0</ele><time>2026-04-04T12:54:49.69Z</time></trkpt><trkpt lat="43.732775" lon="12.7003183"><ele>523.0</ele><time>2026-04-04T12:54:50.69Z</time></trkpt><trkpt lat="43.73271" lon="12.7002317"><ele>523.0</ele><time>2026-04-04T12:54:51.689Z</time></trkpt><trkpt lat="43.7326583" lon="12.7001167"><ele>526.0</ele><time>2026-04-04T12:54:52.689Z</time></trkpt><trkpt lat="43.7326417" lon="12.699965"><ele>529.0</ele><time>2026-04-04T12:54:53.689Z</time></trkpt><trkpt lat="43.7326367" lon="12.6998183"><ele>532.0</ele><time>2026-04-04T12:54:54.689Z</time></trkpt><trkpt lat="43.7326433" lon="12.69966"><ele>535.0</ele><time>2026-04-04T12:54:55.691Z</time></trkpt><trkpt lat="43.7326583" lon="12.6995033"><ele>538.0</ele><time>2026-04-04T12:54:56.688Z</time></trkpt><trkpt lat="43.7326867" lon="12.699345"><ele>538.6666666666667</ele><time>2026-04-04T12:54:57.687Z</time></trkpt><trkpt lat="43.7327233" lon="12.6991983"><ele>539.3333333333334</ele><time>2026-04-04T12:54:58.688Z</time></trkpt><trkpt lat="43.73275" lon="12.699075"><ele>540.0</ele><time>2026-04-04T12:54:59.689Z</time></trkpt><trkpt lat="43.7327583" lon="12.69897"><ele>540.6666666666666</ele><time>2026-04-04T12:55:00.688Z</time></trkpt><trkpt lat="43.7327467" lon="12.6988833"><ele>541.3333333333333</ele><time>2026-04-04T12:55:01.688Z</time></trkpt><trkpt lat="43.7327033" lon="12.698805"><ele>542.0</ele><time>2026-04-04T12:55:02.687Z</time></trkpt><trkpt lat="43.7326467" lon="12.698735"><ele>542.0</ele><time>2026-04-04T12:55:03.688Z</time></trkpt><trkpt lat="43.73255" lon="12.6986933"><ele>542.0</ele><time>2026-04-04T12:55:04.688Z</time></trkpt><trkpt lat="43.7324467" lon="12.6986733"><ele>542.0</ele><time>2026-04-04T12:55:05.688Z</time></trkpt><trkpt lat="43.7323517" lon="12.698655"><ele>542.0</ele><time>2026-04-04T12:55:06.687Z</time></trkpt><trkpt lat="43.732255" lon="12.6986483"><ele>542.0</ele><time>2026-04-04T12:55:07.69Z</time></trkpt><trkpt lat="43.7321733" lon="12.6986067"><ele>540.8000000000001</ele><time>2026-04-04T12:55:08.688Z</time></trkpt><trkpt lat="43.7321" lon="12.6985367"><ele>539.6</ele><time>2026-04-04T12:55:09.688Z</time></trkpt><trkpt lat="43.7320567" lon="12.698445"><ele>538.4000000000001</ele><time>2026-04-04T12:55:10.687Z</time></trkpt><trkpt lat="43.73205" lon="12.698315"><ele>537.2</ele><time>2026-04-04T12:55:11.687Z</time></trkpt><trkpt lat="43.7320467" lon="12.6981617"><ele>536.0</ele><time>2026-04-04T12:55:12.688Z</time></trkpt><trkpt lat="43.732025" lon="12.69802"><ele>536.0</ele><time>2026-04-04T12:55:13.69Z</time></trkpt><trkpt lat="43.732" lon="12.6978817"><ele>536.0</ele><time>2026-04-04T12:55:14.689Z</time></trkpt><trkpt lat="43.7319667" lon="12.69776"><ele>536.0</ele><time>2026-04-04T12:55:15.688Z</time></trkpt><trkpt lat="43.73192" lon="12.69766"><ele>536.0</ele><time>2026-04-04T12:55:16.687Z</time></trkpt><trkpt lat="43.7318683" lon="12.69757"><ele>536.0</ele><time>2026-04-04T12:55:17.685Z</time></trkpt><trkpt lat="43.731815" lon="12.6974917"><ele>536.0</ele><time>2026-04-04T12:55:18.688Z</time></trkpt><trkpt lat="43.73174" lon="12.6973833"><ele>537.0</ele><time>2026-04-04T12:55:20.689Z</time></trkpt><trkpt lat="43.7316983" lon="12.697295"><ele>538.0</ele><time>2026-04-04T12:55:22.689Z</time></trkpt><trkpt lat="43.7316967" lon="12.69711"><ele>539.0</ele><time>2026-04-04T12:55:24.688Z</time></trkpt><trkpt lat="43.731705" lon="12.6969967"><ele>540.0</ele><time>2026-04-04T12:55:25.691Z</time></trkpt><trkpt lat="43.7317117" lon="12.6968867"><ele>541.0</ele><time>2026-04-04T12:55:26.688Z</time></trkpt><trkpt lat="43.73172" lon="12.6967683"><ele>541.0</ele><time>2026-04-04T12:55:27.688Z</time></trkpt><trkpt lat="43.73173" lon="12.696635"><ele>541.0</ele><time>2026-04-04T12:55:28.687Z</time></trkpt><trkpt lat="43.7317417" lon="12.6964933"><ele>541.0</ele><time>2026-04-04T12:55:29.688Z</time></trkpt><trkpt lat="43.731755" lon="12.696355"><ele>541.0</ele><time>2026-04-04T12:55:30.687Z</time></trkpt><trkpt lat="43.73177" lon="12.6962267"><ele>541.0</ele><time>2026-04-04T12:55:31.691Z</time></trkpt><trkpt lat="43.7317883" lon="12.6961033"><ele>540.2857142857143</ele><time>2026-04-04T12:55:32.688Z</time></trkpt><trkpt lat="43.7318083" lon="12.6959917"><ele>539.5714285714286</ele><time>2026-04-04T12:55:33.688Z</time></trkpt><trkpt lat="43.7318317" lon="12.69589"><ele>538.8571428571429</ele><time>2026-04-04T12:55:34.688Z</time></trkpt><trkpt lat="43.7318533" lon="12.6957983"><ele>538.1428571428571</ele><time>2026-04-04T12:55:35.689Z</time></trkpt><trkpt lat="43.731875" lon="12.69571"><ele>537.4285714285714</ele><time>2026-04-04T12:55:36.689Z</time></trkpt><trkpt lat="43.7318933" lon="12.69562"><ele>536.7142857142858</ele><time>2026-04-04T12:55:37.691Z</time></trkpt><trkpt lat="43.7319083" lon="12.695535"><ele>536.0</ele><time>2026-04-04T12:55:38.687Z</time></trkpt><trkpt lat="43.7319533" lon="12.69537"><ele>536.0</ele><time>2026-04-04T12:55:40.688Z</time></trkpt><trkpt lat="43.7319783" lon="12.6952783"><ele>536.0</ele><time>2026-04-04T12:55:41.688Z</time></trkpt><trkpt lat="43.732005" lon="12.6951817"><ele>536.0</ele><time>2026-04-04T12:55:42.688Z</time></trkpt><trkpt lat="43.7320317" lon="12.69508"><ele>536.0</ele><time>2026-04-04T12:55:43.689Z</time></trkpt><trkpt lat="43.7320617" lon="12.6949733"><ele>536.0</ele><time>2026-04-04T12:55:44.687Z</time></trkpt><trkpt lat="43.7320983" lon="12.6948533"><ele>536.0</ele><time>2026-04-04T12:55:45.687Z</time></trkpt><trkpt lat="43.732135" lon="12.6947183"><ele>536.0</ele><time>2026-04-04T12:55:46.689Z</time></trkpt><trkpt lat="43.7321767" lon="12.6945683"><ele>536.0</ele><time>2026-04-04T12:55:47.687Z</time></trkpt><trkpt lat="43.7322217" lon="12.694405"><ele>536.0</ele><time>2026-04-04T12:55:48.688Z</time></trkpt><trkpt lat="43.7322683" lon="12.694235"><ele>536.0</ele><time>2026-04-04T12:55:49.689Z</time></trkpt><trkpt lat="43.7323083" lon="12.69406"><ele>534.75</ele><time>2026-04-04T12:55:50.687Z</time></trkpt><trkpt lat="43.73234" lon="12.6938767"><ele>533.5</ele><time>2026-04-04T12:55:51.688Z</time></trkpt><trkpt lat="43.7323617" lon="12.693685"><ele>532.25</ele><time>2026-04-04T12:55:52.687Z</time></trkpt><trkpt lat="43.7323717" lon="12.6934883"><ele>531.0</ele><time>2026-04-04T12:55:53.69Z</time></trkpt><trkpt lat="43.7323867" lon="12.693285"><ele>529.0</ele><time>2026-04-04T12:55:54.688Z</time></trkpt><trkpt lat="43.7324" lon="12.6930733"><ele>527.0</ele><time>2026-04-04T12:55:55.691Z</time></trkpt><trkpt lat="43.73241" lon="12.6928617"><ele>525.0</ele><time>2026-04-04T12:55:56.687Z</time></trkpt><trkpt lat="43.7324217" lon="12.6926533"><ele>524.75</ele><time>2026-04-04T12:55:57.688Z</time></trkpt><trkpt lat="43.7324333" lon="12.6924483"><ele>524.5</ele><time>2026-04-04T12:55:58.688Z</time></trkpt><trkpt lat="43.7324483" lon="12.6922433"><ele>524.25</ele><time>2026-04-04T12:55:59.688Z</time></trkpt><trkpt lat="43.7324683" lon="12.6920433"><ele>524.0</ele><time>2026-04-04T12:56:00.689Z</time></trkpt><trkpt lat="43.7324983" lon="12.69184"><ele>523.3333333333333</ele><time>2026-04-04T12:56:01.69Z</time></trkpt><trkpt lat="43.7325367" lon="12.6916367"><ele>522.6666666666666</ele><time>2026-04-04T12:56:02.689Z</time></trkpt><trkpt lat="43.7325783" lon="12.6914317"><ele>522.0</ele><time>2026-04-04T12:56:03.689Z</time></trkpt><trkpt lat="43.7326267" lon="12.6912283"><ele>522.0</ele><time>2026-04-04T12:56:04.689Z</time></trkpt><trkpt lat="43.7326667" lon="12.6910233"><ele>522.0</ele><time>2026-04-04T12:56:05.689Z</time></trkpt><trkpt lat="43.73271" lon="12.69083"><ele>522.0</ele><time>2026-04-04T12:56:06.688Z</time></trkpt><trkpt lat="43.7327517" lon="12.6906433"><ele>522.0</ele><time>2026-04-04T12:56:07.689Z</time></trkpt><trkpt lat="43.7327917" lon="12.6904567"><ele>519.75</ele><time>2026-04-04T12:56:08.689Z</time></trkpt><trkpt lat="43.7328267" lon="12.6902667"><ele>517.5</ele><time>2026-04-04T12:56:09.689Z</time></trkpt><trkpt lat="43.7328567" lon="12.6900683"><ele>515.25</ele><time>2026-04-04T12:56:10.688Z</time></trkpt><trkpt lat="43.7328833" lon="12.689865"><ele>513.0</ele><time>2026-04-04T12:56:11.689Z</time></trkpt><trkpt lat="43.7329033" lon="12.6896583"><ele>513.0</ele><time>2026-04-04T12:56:12.689Z</time></trkpt><trkpt lat="43.7329217" lon="12.6894483"><ele>513.0</ele><time>2026-04-04T12:56:13.69Z</time></trkpt><trkpt lat="43.7329417" lon="12.6892333"><ele>513.0</ele><time>2026-04-04T12:56:14.689Z</time></trkpt><trkpt lat="43.7329633" lon="12.6890217"><ele>512.25</ele><time>2026-04-04T12:56:15.689Z</time></trkpt><trkpt lat="43.7329833" lon="12.688815"><ele>511.5</ele><time>2026-04-04T12:56:16.687Z</time></trkpt><trkpt lat="43.7330017" lon="12.68861"><ele>510.75</ele><time>2026-04-04T12:56:17.685Z</time></trkpt><trkpt lat="43.7330217" lon="12.6884067"><ele>510.0</ele><time>2026-04-04T12:56:18.689Z</time></trkpt><trkpt lat="43.7330383" lon="12.6881983"><ele>509.0</ele><time>2026-04-04T12:56:19.691Z</time></trkpt><trkpt lat="43.733055" lon="12.6879917"><ele>508.0</ele><time>2026-04-04T12:56:20.689Z</time></trkpt><trkpt lat="43.733075" lon="12.68779"><ele>507.0</ele><time>2026-04-04T12:56:21.688Z</time></trkpt><trkpt lat="43.733095" lon="12.6875933"><ele>506.0</ele><time>2026-04-04T12:56:22.689Z</time></trkpt><trkpt lat="43.7331083" lon="12.6873933"><ele>506.0</ele><time>2026-04-04T12:56:23.688Z</time></trkpt><trkpt lat="43.7331117" lon="12.687195"><ele>506.0</ele><time>2026-04-04T12:56:24.689Z</time></trkpt><trkpt lat="43.7330967" lon="12.6870033"><ele>506.0</ele><time>2026-04-04T12:56:25.691Z</time></trkpt><trkpt lat="43.73306" lon="12.6868133"><ele>506.0</ele><time>2026-04-04T12:56:26.687Z</time></trkpt><trkpt lat="43.7330017" lon="12.68663"><ele>506.0</ele><time>2026-04-04T12:56:27.687Z</time></trkpt><trkpt lat="43.7329267" lon="12.686455"><ele>506.0</ele><time>2026-04-04T12:56:28.691Z</time></trkpt><trkpt lat="43.73284" lon="12.68628"><ele>506.0</ele><time>2026-04-04T12:56:29.688Z</time></trkpt><trkpt lat="43.7327467" lon="12.6861033"><ele>506.66666666666663</ele><time>2026-04-04T12:56:30.688Z</time></trkpt><trkpt lat="43.7326533" lon="12.6859233"><ele>507.33333333333337</ele><time>2026-04-04T12:56:31.691Z</time></trkpt><trkpt lat="43.73256" lon="12.6857433"><ele>508.0</ele><time>2026-04-04T12:56:32.689Z</time></trkpt><trkpt lat="43.7324633" lon="12.6855633"><ele>508.0</ele><time>2026-04-04T12:56:33.688Z</time></trkpt><trkpt lat="43.732365" lon="12.6853817"><ele>508.0</ele><time>2026-04-04T12:56:34.688Z</time></trkpt><trkpt lat="43.7322683" lon="12.6851967"><ele>508.0</ele><time>2026-04-04T12:56:35.688Z</time></trkpt><trkpt lat="43.7321717" lon="12.6850117"><ele>508.6666666666667</ele><time>2026-04-04T12:56:36.687Z</time></trkpt><trkpt lat="43.732075" lon="12.6848233"><ele>509.33333333333337</ele><time>2026-04-04T12:56:37.691Z</time></trkpt><trkpt lat="43.73198" lon="12.68463"><ele>510.0</ele><time>2026-04-04T12:56:38.689Z</time></trkpt><trkpt lat="43.7318867" lon="12.684435"><ele>511.0</ele><time>2026-04-04T12:56:39.689Z</time></trkpt><trkpt lat="43.7317967" lon="12.6842417"><ele>512.0</ele><time>2026-04-04T12:56:40.688Z</time></trkpt><trkpt lat="43.7317083" lon="12.6840483"><ele>513.0</ele><time>2026-04-04T12:56:41.689Z</time></trkpt><trkpt lat="43.7316183" lon="12.6838617"><ele>513.0</ele><time>2026-04-04T12:56:42.689Z</time></trkpt><trkpt lat="43.7315333" lon="12.6836783"><ele>513.0</ele><time>2026-04-04T12:56:43.691Z</time></trkpt><trkpt lat="43.7314517" lon="12.6834933"><ele>513.0</ele><time>2026-04-04T12:56:44.69Z</time></trkpt><trkpt lat="43.7313767" lon="12.6833"><ele>512.6666666666666</ele><time>2026-04-04T12:56:45.689Z</time></trkpt><trkpt lat="43.7313" lon="12.683095"><ele>512.3333333333333</ele><time>2026-04-04T12:56:46.688Z</time></trkpt><trkpt lat="43.7312267" lon="12.6828833"><ele>512.0</ele><time>2026-04-04T12:56:47.689Z</time></trkpt><trkpt lat="43.7311583" lon="12.682665"><ele>511.0</ele><time>2026-04-04T12:56:48.688Z</time></trkpt><trkpt lat="43.7310883" lon="12.6824483"><ele>510.0</ele><time>2026-04-04T12:56:49.69Z</time></trkpt><trkpt lat="43.7310183" lon="12.682235"><ele>509.0</ele><time>2026-04-04T12:56:50.689Z</time></trkpt><trkpt lat="43.7309483" lon="12.6820267"><ele>510.0</ele><time>2026-04-04T12:56:51.689Z</time></trkpt><trkpt lat="43.730875" lon="12.6818167"><ele>511.0</ele><time>2026-04-04T12:56:52.689Z</time></trkpt><trkpt lat="43.7308" lon="12.6816033"><ele>512.0</ele><time>2026-04-04T12:56:53.687Z</time></trkpt><trkpt lat="43.7307267" lon="12.68139"><ele>512.0</ele><time>2026-04-04T12:56:54.688Z</time></trkpt><trkpt lat="43.7306533" lon="12.68118"><ele>512.0</ele><time>2026-04-04T12:56:55.688Z</time></trkpt><trkpt lat="43.7305817" lon="12.6809733"><ele>512.0</ele><time>2026-04-04T12:56:56.688Z</time></trkpt><trkpt lat="43.73051" lon="12.68077"><ele>511.3333333333333</ele><time>2026-04-04T12:56:57.689Z</time></trkpt><trkpt lat="43.73044" lon="12.6805667"><ele>510.66666666666663</ele><time>2026-04-04T12:56:58.69Z</time></trkpt><trkpt lat="43.7303717" lon="12.6803667"><ele>510.0</ele><time>2026-04-04T12:56:59.688Z</time></trkpt><trkpt lat="43.7303033" lon="12.6801683"><ele>509.66666666666663</ele><time>2026-04-04T12:57:00.687Z</time></trkpt><trkpt lat="43.7302333" lon="12.6799717"><ele>509.3333333333333</ele><time>2026-04-04T12:57:01.69Z</time></trkpt><trkpt lat="43.73016" lon="12.679775"><ele>509.0</ele><time>2026-04-04T12:57:02.689Z</time></trkpt><trkpt lat="43.7300867" lon="12.6795833"><ele>513.6666666666666</ele><time>2026-04-04T12:57:03.688Z</time></trkpt><trkpt lat="43.7300083" lon="12.679395"><ele>518.3333333333334</ele><time>2026-04-04T12:57:04.688Z</time></trkpt><trkpt lat="43.7299283" lon="12.6792083"><ele>523.0</ele><time>2026-04-04T12:57:05.69Z</time></trkpt><trkpt lat="43.7298483" lon="12.67902"><ele>523.0</ele><time>2026-04-04T12:57:06.687Z</time></trkpt><trkpt lat="43.7297683" lon="12.6788267"><ele>523.0</ele><time>2026-04-04T12:57:07.69Z</time></trkpt><trkpt lat="43.72969" lon="12.678635"><ele>523.0</ele><time>2026-04-04T12:57:08.687Z</time></trkpt><trkpt lat="43.72961" lon="12.6784433"><ele>521.3333333333334</ele><time>2026-04-04T12:57:09.687Z</time></trkpt><trkpt lat="43.7295283" lon="12.67825"><ele>519.6666666666666</ele><time>2026-04-04T12:57:10.689Z</time></trkpt><trkpt lat="43.7294467" lon="12.678055"><ele>518.0</ele><time>2026-04-04T12:57:11.687Z</time></trkpt><trkpt lat="43.7293667" lon="12.6778583"><ele>521.3333333333333</ele><time>2026-04-04T12:57:12.688Z</time></trkpt><trkpt lat="43.7292867" lon="12.6776617"><ele>524.6666666666666</ele><time>2026-04-04T12:57:13.688Z</time></trkpt><trkpt lat="43.7292067" lon="12.677465"><ele>528.0</ele><time>2026-04-04T12:57:14.689Z</time></trkpt><trkpt lat="43.7291267" lon="12.6772683"><ele>528.0</ele><time>2026-04-04T12:57:15.689Z</time></trkpt><trkpt lat="43.729045" lon="12.67707"><ele>528.0</ele><time>2026-04-04T12:57:16.688Z</time></trkpt><trkpt lat="43.7289633" lon="12.67687"><ele>528.0</ele><time>2026-04-04T12:57:17.688Z</time></trkpt><trkpt lat="43.72888" lon="12.6766767"><ele>528.0</ele><time>2026-04-04T12:57:18.688Z</time></trkpt><trkpt lat="43.7288033" lon="12.676495"><ele>528.0</ele><time>2026-04-04T12:57:19.689Z</time></trkpt><trkpt lat="43.728735" lon="12.6763283"><ele>528.0</ele><time>2026-04-04T12:57:20.688Z</time></trkpt><trkpt lat="43.728675" lon="12.6761767"><ele>528.0</ele><time>2026-04-04T12:57:21.688Z</time></trkpt><trkpt lat="43.72863" lon="12.676045"><ele>527.4</ele><time>2026-04-04T12:57:22.688Z</time></trkpt><trkpt lat="43.7286033" lon="12.6759467"><ele>526.8</ele><time>2026-04-04T12:57:23.69Z</time></trkpt><trkpt lat="43.7285633" lon="12.675825"><ele>526.2</ele><time>2026-04-04T12:57:25.688Z</time></trkpt><trkpt lat="43.72847" lon="12.6758217"><ele>525.6</ele><time>2026-04-04T12:57:28.689Z</time></trkpt><trkpt lat="43.72833" lon="12.6758383"><ele>525.0</ele><time>2026-04-04T12:57:30.689Z</time></trkpt><trkpt lat="43.728245" lon="12.6758417"><ele>526.6666666666666</ele><time>2026-04-04T12:57:31.69Z</time></trkpt><trkpt lat="43.728155" lon="12.675845"><ele>528.3333333333334</ele><time>2026-04-04T12:57:32.688Z</time></trkpt><trkpt lat="43.728065" lon="12.6758517"><ele>530.0</ele><time>2026-04-04T12:57:33.687Z</time></trkpt><trkpt lat="43.7279783" lon="12.6758533"><ele>531.6666666666667</ele><time>2026-04-04T12:57:34.692Z</time></trkpt><trkpt lat="43.7278967" lon="12.6758533"><ele>533.3333333333334</ele><time>2026-04-04T12:57:35.688Z</time></trkpt><trkpt lat="43.7278183" lon="12.6758517"><ele>535.0</ele><time>2026-04-04T12:57:36.688Z</time></trkpt><trkpt lat="43.7277533" lon="12.675845"><ele>535.0</ele><time>2026-04-04T12:57:37.69Z</time></trkpt><trkpt lat="43.72765" lon="12.675785"><ele>535.0</ele><time>2026-04-04T12:57:39.687Z</time></trkpt><trkpt lat="43.7276033" lon="12.67563"><ele>535.0</ele><time>2026-04-04T12:57:41.689Z</time></trkpt><trkpt lat="43.72763" lon="12.6755333"><ele>535.0</ele><time>2026-04-04T12:57:42.688Z</time></trkpt><trkpt lat="43.72768" lon="12.6754533"><ele>535.0</ele><time>2026-04-04T12:57:43.692Z</time></trkpt><trkpt lat="43.7277367" lon="12.6753933"><ele>535.0</ele><time>2026-04-04T12:57:44.689Z</time></trkpt><trkpt lat="43.7277983" lon="12.6752883"><ele>535.0</ele><time>2026-04-04T12:57:46.687Z</time></trkpt><trkpt lat="43.7277483" lon="12.6752"><ele>535.0</ele><time>2026-04-04T12:57:48.689Z</time></trkpt><trkpt lat="43.7276817" lon="12.6751517"><ele>535.0</ele><time>2026-04-04T12:57:49.689Z</time></trkpt><trkpt lat="43.7275933" lon="12.6750933"><ele>535.0</ele><time>2026-04-04T12:57:50.688Z</time></trkpt><trkpt lat="43.7275067" lon="12.6750417"><ele>535.0</ele><time>2026-04-04T12:57:51.687Z</time></trkpt><trkpt lat="43.7274133" lon="12.6749933"><ele>532.2</ele><time>2026-04-04T12:57:52.686Z</time></trkpt><trkpt lat="43.7273167" lon="12.674955"><ele>529.4</ele><time>2026-04-04T12:57:53.691Z</time></trkpt><trkpt lat="43.7272167" lon="12.6749217"><ele>526.6</ele><time>2026-04-04T12:57:54.689Z</time></trkpt><trkpt lat="43.72714" lon="12.6748567"><ele>523.8</ele><time>2026-04-04T12:57:55.69Z</time></trkpt><trkpt lat="43.7270783" lon="12.6747717"><ele>521.0</ele><time>2026-04-04T12:57:56.687Z</time></trkpt><trkpt lat="43.7270417" lon="12.67466"><ele>521.0</ele><time>2026-04-04T12:57:57.687Z</time></trkpt><trkpt lat="43.7270067" lon="12.674555"><ele>521.0</ele><time>2026-04-04T12:57:58.688Z</time></trkpt><trkpt lat="43.7269667" lon="12.6744667"><ele>521.0</ele><time>2026-04-04T12:57:59.689Z</time></trkpt><trkpt lat="43.7269167" lon="12.6744033"><ele>521.0</ele><time>2026-04-04T12:58:00.689Z</time></trkpt><trkpt lat="43.7268117" lon="12.6743533"><ele>521.0</ele><time>2026-04-04T12:58:02.689Z</time></trkpt><trkpt lat="43.7266683" lon="12.674505"><ele>517.2</ele><time>2026-04-04T12:58:03.687Z</time></trkpt><trkpt lat="43.7265667" lon="12.674565"><ele>513.4000000000001</ele><time>2026-04-04T12:58:04.688Z</time></trkpt><trkpt lat="43.7264733" lon="12.6746133"><ele>509.6</ele><time>2026-04-04T12:58:05.689Z</time></trkpt><trkpt lat="43.72638" lon="12.674645"><ele>505.8</ele><time>2026-04-04T12:58:06.688Z</time></trkpt><trkpt lat="43.7262817" lon="12.674675"><ele>502.0</ele><time>2026-04-04T12:58:07.687Z</time></trkpt><trkpt lat="43.72619" lon="12.6746983"><ele>502.00000000000006</ele><time>2026-04-04T12:58:08.686Z</time></trkpt><trkpt lat="43.726105" lon="12.6747083"><ele>502.0</ele><time>2026-04-04T12:58:09.688Z</time></trkpt><trkpt lat="43.7260217" lon="12.67469"><ele>502.0</ele><time>2026-04-04T12:58:10.693Z</time></trkpt><trkpt lat="43.7259433" lon="12.674665"><ele>502.0</ele><time>2026-04-04T12:58:11.687Z</time></trkpt><trkpt lat="43.725855" lon="12.6746333"><ele>502.00000000000006</ele><time>2026-04-04T12:58:12.688Z</time></trkpt><trkpt lat="43.7257583" lon="12.6745967"><ele>502.0</ele><time>2026-04-04T12:58:13.69Z</time></trkpt><trkpt lat="43.7256667" lon="12.6745483"><ele>500.83333333333337</ele><time>2026-04-04T12:58:14.688Z</time></trkpt><trkpt lat="43.7255833" lon="12.6744917"><ele>499.6666666666667</ele><time>2026-04-04T12:58:15.687Z</time></trkpt><trkpt lat="43.7255033" lon="12.6744267"><ele>498.5</ele><time>2026-04-04T12:58:16.687Z</time></trkpt><trkpt lat="43.7254317" lon="12.674355"><ele>497.33333333333337</ele><time>2026-04-04T12:58:17.688Z</time></trkpt><trkpt lat="43.7253667" lon="12.6742833"><ele>496.1666666666667</ele><time>2026-04-04T12:58:18.688Z</time></trkpt><trkpt lat="43.7253017" lon="12.67421"><ele>495.0</ele><time>2026-04-04T12:58:19.688Z</time></trkpt><trkpt lat="43.7252267" lon="12.6741483"><ele>495.0</ele><time>2026-04-04T12:58:20.688Z</time></trkpt><trkpt lat="43.7251467" lon="12.674095"><ele>495.0</ele><time>2026-04-04T12:58:21.688Z</time></trkpt><trkpt lat="43.72507" lon="12.6740517"><ele>495.0</ele><time>2026-04-04T12:58:22.689Z</time></trkpt><trkpt lat="43.7249967" lon="12.67402"><ele>495.0</ele><time>2026-04-04T12:58:23.689Z</time></trkpt><trkpt lat="43.72493" lon="12.67399"><ele>495.0</ele><time>2026-04-04T12:58:24.689Z</time></trkpt><trkpt lat="43.7248233" lon="12.6739683"><ele>495.0</ele><time>2026-04-04T12:58:26.687Z</time></trkpt><trkpt lat="43.724755" lon="12.6739733"><ele>495.0</ele><time>2026-04-04T12:58:28.687Z</time></trkpt><trkpt lat="43.724695" lon="12.6740317"><ele>495.0</ele><time>2026-04-04T12:58:32.688Z</time></trkpt><trkpt lat="43.72465" lon="12.6741217"><ele>495.0</ele><time>2026-04-04T12:58:34.689Z</time></trkpt><trkpt lat="43.7246333" lon="12.6742583"><ele>495.0</ele><time>2026-04-04T12:58:36.689Z</time></trkpt><trkpt lat="43.7245983" lon="12.67435"><ele>495.0</ele><time>2026-04-04T12:58:38.689Z</time></trkpt><trkpt lat="43.7245583" lon="12.67422"><ele>495.0</ele><time>2026-04-04T12:58:42.688Z</time></trkpt><trkpt lat="43.7245583" lon="12.6741017"><ele>495.0</ele><time>2026-04-04T12:58:43.69Z</time></trkpt><trkpt lat="43.7245517" lon="12.67398"><ele>495.0</ele><time>2026-04-04T12:58:44.687Z</time></trkpt><trkpt lat="43.724545" lon="12.6738583"><ele>495.0</ele><time>2026-04-04T12:58:45.688Z</time></trkpt><trkpt lat="43.724525" lon="12.67373"><ele>495.0</ele><time>2026-04-04T12:58:46.688Z</time></trkpt><trkpt lat="43.7244917" lon="12.6736"><ele>495.0</ele><time>2026-04-04T12:58:47.687Z</time></trkpt><trkpt lat="43.7244383" lon="12.673475"><ele>489.25</ele><time>2026-04-04T12:58:48.688Z</time></trkpt><trkpt lat="43.7243767" lon="12.6733567"><ele>483.5</ele><time>2026-04-04T12:58:49.689Z</time></trkpt><trkpt lat="43.7243167" lon="12.67323"><ele>477.75</ele><time>2026-04-04T12:58:50.688Z</time></trkpt><trkpt lat="43.7242333" lon="12.6731067"><ele>472.0</ele><time>2026-04-04T12:58:51.686Z</time></trkpt><trkpt lat="43.72415" lon="12.67297"><ele>472.0</ele><time>2026-04-04T12:58:52.69Z</time></trkpt><trkpt lat="43.7240633" lon="12.67284"><ele>472.0</ele><time>2026-04-04T12:58:53.689Z</time></trkpt><trkpt lat="43.7239817" lon="12.6727183"><ele>472.0</ele><time>2026-04-04T12:58:54.688Z</time></trkpt><trkpt lat="43.7239033" lon="12.672605"><ele>472.0</ele><time>2026-04-04T12:58:55.69Z</time></trkpt><trkpt lat="43.7238367" lon="12.67249"><ele>473.0</ele><time>2026-04-04T12:58:56.689Z</time></trkpt><trkpt lat="43.72378" lon="12.6723833"><ele>474.00000000000006</ele><time>2026-04-04T12:58:57.687Z</time></trkpt><trkpt lat="43.7237317" lon="12.6722667"><ele>475.00000000000006</ele><time>2026-04-04T12:58:58.689Z</time></trkpt><trkpt lat="43.7236933" lon="12.672145"><ele>476.0</ele><time>2026-04-04T12:58:59.689Z</time></trkpt><trkpt lat="43.723675" lon="12.6720033"><ele>477.0</ele><time>2026-04-04T12:59:00.688Z</time></trkpt><trkpt lat="43.7236733" lon="12.671855"><ele>477.0</ele><time>2026-04-04T12:59:01.688Z</time></trkpt><trkpt lat="43.7236933" lon="12.671705"><ele>477.0</ele><time>2026-04-04T12:59:02.687Z</time></trkpt><trkpt lat="43.72373" lon="12.67155"><ele>477.0</ele><time>2026-04-04T12:59:03.689Z</time></trkpt><trkpt lat="43.7237783" lon="12.671385"><ele>477.0</ele><time>2026-04-04T12:59:04.688Z</time></trkpt><trkpt lat="43.72384" lon="12.6712217"><ele>474.25</ele><time>2026-04-04T12:59:05.687Z</time></trkpt><trkpt lat="43.7239017" lon="12.6710617"><ele>471.5</ele><time>2026-04-04T12:59:06.689Z</time></trkpt><trkpt lat="43.7239683" lon="12.6709083"><ele>468.75</ele><time>2026-04-04T12:59:07.689Z</time></trkpt><trkpt lat="43.7240383" lon="12.6707633"><ele>466.0</ele><time>2026-04-04T12:59:08.689Z</time></trkpt><trkpt lat="43.7240983" lon="12.6706267"><ele>466.0</ele><time>2026-04-04T12:59:09.69Z</time></trkpt><trkpt lat="43.72415" lon="12.6705"><ele>466.0</ele><time>2026-04-04T12:59:10.689Z</time></trkpt><trkpt lat="43.7241867" lon="12.6703717"><ele>466.0</ele><time>2026-04-04T12:59:11.689Z</time></trkpt><trkpt lat="43.724205" lon="12.670235"><ele>466.0</ele><time>2026-04-04T12:59:12.689Z</time></trkpt><trkpt lat="43.7241917" lon="12.6700867"><ele>466.0</ele><time>2026-04-04T12:59:13.69Z</time></trkpt><trkpt lat="43.724175" lon="12.6699317"><ele>466.0</ele><time>2026-04-04T12:59:14.687Z</time></trkpt><trkpt lat="43.7241483" lon="12.669775"><ele>466.0</ele><time>2026-04-04T12:59:15.686Z</time></trkpt><trkpt lat="43.7241183" lon="12.6696133"><ele>466.0</ele><time>2026-04-04T12:59:16.688Z</time></trkpt><trkpt lat="43.7240933" lon="12.669455"><ele>466.0</ele><time>2026-04-04T12:59:17.687Z</time></trkpt><trkpt lat="43.72407" lon="12.6693017"><ele>466.0</ele><time>2026-04-04T12:59:18.688Z</time></trkpt><trkpt lat="43.7240517" lon="12.669145"><ele>466.0</ele><time>2026-04-04T12:59:19.692Z</time></trkpt><trkpt lat="43.7240367" lon="12.6689883"><ele>466.0</ele><time>2026-04-04T12:59:20.688Z</time></trkpt><trkpt lat="43.7240183" lon="12.66883"><ele>466.0</ele><time>2026-04-04T12:59:21.689Z</time></trkpt><trkpt lat="43.723995" lon="12.6686567"><ele>469.25</ele><time>2026-04-04T12:59:22.69Z</time></trkpt><trkpt lat="43.7239733" lon="12.66848"><ele>472.5</ele><time>2026-04-04T12:59:23.684Z</time></trkpt><trkpt lat="43.7239533" lon="12.6683033"><ele>475.75</ele><time>2026-04-04T12:59:24.687Z</time></trkpt><trkpt lat="43.7239217" lon="12.6681217"><ele>479.0</ele><time>2026-04-04T12:59:25.688Z</time></trkpt><trkpt lat="43.72388" lon="12.667945"><ele>479.0</ele><time>2026-04-04T12:59:26.686Z</time></trkpt><trkpt lat="43.7238267" lon="12.6677883"><ele>479.0</ele><time>2026-04-04T12:59:27.687Z</time></trkpt><trkpt lat="43.7237567" lon="12.6676417"><ele>479.0</ele><time>2026-04-04T12:59:28.689Z</time></trkpt><trkpt lat="43.7236667" lon="12.6675017"><ele>479.0</ele><time>2026-04-04T12:59:29.691Z</time></trkpt><trkpt lat="43.72357" lon="12.6673717"><ele>475.5</ele><time>2026-04-04T12:59:30.689Z</time></trkpt><trkpt lat="43.7234683" lon="12.66726"><ele>472.0</ele><time>2026-04-04T12:59:31.689Z</time></trkpt><trkpt lat="43.7233683" lon="12.6671533"><ele>468.5</ele><time>2026-04-04T12:59:32.686Z</time></trkpt><trkpt lat="43.72327" lon="12.6671017"><ele>465.0</ele><time>2026-04-04T12:59:33.688Z</time></trkpt><trkpt lat="43.723175" lon="12.6670483"><ele>465.0</ele><time>2026-04-04T12:59:34.688Z</time></trkpt><trkpt lat="43.7230883" lon="12.666995"><ele>465.0</ele><time>2026-04-04T12:59:35.687Z</time></trkpt><trkpt lat="43.7230083" lon="12.66694"><ele>465.0</ele><time>2026-04-04T12:59:36.688Z</time></trkpt><trkpt lat="43.72294" lon="12.66686"><ele>465.0</ele><time>2026-04-04T12:59:37.691Z</time></trkpt><trkpt lat="43.7229" lon="12.66676"><ele>465.0</ele><time>2026-04-04T12:59:38.687Z</time></trkpt><trkpt lat="43.7228717" lon="12.6666483"><ele>465.0</ele><time>2026-04-04T12:59:39.687Z</time></trkpt><trkpt lat="43.72286" lon="12.6665217"><ele>466.8</ele><time>2026-04-04T12:59:40.688Z</time></trkpt><trkpt lat="43.722885" lon="12.6663833"><ele>468.6</ele><time>2026-04-04T12:59:41.69Z</time></trkpt><trkpt lat="43.7228933" lon="12.66624"><ele>470.4</ele><time>2026-04-04T12:59:42.687Z</time></trkpt><trkpt lat="43.722895" lon="12.6660967"><ele>472.2</ele><time>2026-04-04T12:59:43.69Z</time></trkpt><trkpt lat="43.722895" lon="12.6659583"><ele>474.0</ele><time>2026-04-04T12:59:44.688Z</time></trkpt><trkpt lat="43.722865" lon="12.6658233"><ele>474.0</ele><time>2026-04-04T12:59:45.687Z</time></trkpt><trkpt lat="43.72281" lon="12.6656983"><ele>474.0</ele><time>2026-04-04T12:59:46.689Z</time></trkpt><trkpt lat="43.7227483" lon="12.66557"><ele>474.0</ele><time>2026-04-04T12:59:47.689Z</time></trkpt><trkpt lat="43.7226933" lon="12.6654383"><ele>474.0</ele><time>2026-04-04T12:59:48.688Z</time></trkpt><trkpt lat="43.7226417" lon="12.6653033"><ele>474.0</ele><time>2026-04-04T12:59:49.689Z</time></trkpt><trkpt lat="43.722595" lon="12.6651583"><ele>464.5</ele><time>2026-04-04T12:59:50.687Z</time></trkpt><trkpt lat="43.72256" lon="12.6649967"><ele>455.0</ele><time>2026-04-04T12:59:51.689Z</time></trkpt><trkpt lat="43.72254" lon="12.6648283"><ele>445.5</ele><time>2026-04-04T12:59:52.689Z</time></trkpt><trkpt lat="43.7225217" lon="12.6646633"><ele>436.0</ele><time>2026-04-04T12:59:53.685Z</time></trkpt><trkpt lat="43.7224983" lon="12.66451"><ele>434.4</ele><time>2026-04-04T12:59:54.688Z</time></trkpt><trkpt lat="43.7224833" lon="12.6643717"><ele>432.8</ele><time>2026-04-04T12:59:55.688Z</time></trkpt><trkpt lat="43.7224833" lon="12.6642433"><ele>431.19999999999993</ele><time>2026-04-04T12:59:56.686Z</time></trkpt><trkpt lat="43.7225067" lon="12.6641117"><ele>429.59999999999997</ele><time>2026-04-04T12:59:57.686Z</time></trkpt><trkpt lat="43.722545" lon="12.663975"><ele>428.0</ele><time>2026-04-04T12:59:58.688Z</time></trkpt><trkpt lat="43.7225983" lon="12.6638383"><ele>428.0</ele><time>2026-04-04T12:59:59.687Z</time></trkpt><trkpt lat="43.7226633" lon="12.6637033"><ele>427.99999999999994</ele><time>2026-04-04T13:00:00.689Z</time></trkpt><trkpt lat="43.7227283" lon="12.66357"><ele>427.99999999999994</ele><time>2026-04-04T13:00:01.689Z</time></trkpt><trkpt lat="43.7228" lon="12.6634667"><ele>428.0</ele><time>2026-04-04T13:00:02.687Z</time></trkpt><trkpt lat="43.7228717" lon="12.66339"><ele>428.0</ele><time>2026-04-04T13:00:03.686Z</time></trkpt><trkpt lat="43.7229517" lon="12.663345"><ele>429.16666666666663</ele><time>2026-04-04T13:00:04.689Z</time></trkpt><trkpt lat="43.7230417" lon="12.663325"><ele>430.3333333333333</ele><time>2026-04-04T13:00:05.69Z</time></trkpt><trkpt lat="43.7231267" lon="12.66332"><ele>431.5</ele><time>2026-04-04T13:00:06.687Z</time></trkpt><trkpt lat="43.7232017" lon="12.6633217"><ele>432.66666666666663</ele><time>2026-04-04T13:00:07.689Z</time></trkpt><trkpt lat="43.72327" lon="12.6633133"><ele>433.8333333333333</ele><time>2026-04-04T13:00:08.686Z</time></trkpt><trkpt lat="43.7233333" lon="12.6632867"><ele>435.0</ele><time>2026-04-04T13:00:09.687Z</time></trkpt><trkpt lat="43.723425" lon="12.6632"><ele>435.0</ele><time>2026-04-04T13:00:11.688Z</time></trkpt><trkpt lat="43.72341" lon="12.6630383"><ele>435.0</ele><time>2026-04-04T13:00:13.689Z</time></trkpt><trkpt lat="43.7233717" lon="12.6629467"><ele>435.0</ele><time>2026-04-04T13:00:14.689Z</time></trkpt><trkpt lat="43.7232817" lon="12.662835"><ele>435.0</ele><time>2026-04-04T13:00:15.689Z</time></trkpt><trkpt lat="43.7231883" lon="12.662735"><ele>435.0</ele><time>2026-04-04T13:00:16.689Z</time></trkpt><trkpt lat="43.72311" lon="12.6626383"><ele>435.6</ele><time>2026-04-04T13:00:17.688Z</time></trkpt><trkpt lat="43.7230333" lon="12.6625517"><ele>436.2</ele><time>2026-04-04T13:00:18.687Z</time></trkpt><trkpt lat="43.72298" lon="12.6624617"><ele>436.79999999999995</ele><time>2026-04-04T13:00:19.688Z</time></trkpt><trkpt lat="43.722945" lon="12.6623733"><ele>437.4</ele><time>2026-04-04T13:00:20.689Z</time></trkpt><trkpt lat="43.72296" lon="12.662205"><ele>438.0</ele><time>2026-04-04T13:00:22.689Z</time></trkpt><trkpt lat="43.7230067" lon="12.66212"><ele>438.0</ele><time>2026-04-04T13:00:23.687Z</time></trkpt><trkpt lat="43.7230817" lon="12.662025"><ele>438.0</ele><time>2026-04-04T13:00:24.688Z</time></trkpt><trkpt lat="43.72317" lon="12.661915"><ele>438.0</ele><time>2026-04-04T13:00:25.689Z</time></trkpt><trkpt lat="43.723255" lon="12.6617833"><ele>438.0</ele><time>2026-04-04T13:00:26.687Z</time></trkpt><trkpt lat="43.723335" lon="12.661645"><ele>438.0</ele><time>2026-04-04T13:00:27.687Z</time></trkpt><trkpt lat="43.7234067" lon="12.661505"><ele>438.0</ele><time>2026-04-04T13:00:28.689Z</time></trkpt><trkpt lat="43.7234667" lon="12.6613633"><ele>438.0</ele><time>2026-04-04T13:00:29.69Z</time></trkpt><trkpt lat="43.7235183" lon="12.6612217"><ele>438.0</ele><time>2026-04-04T13:00:30.688Z</time></trkpt><trkpt lat="43.723565" lon="12.6610783"><ele>438.0</ele><time>2026-04-04T13:00:31.689Z</time></trkpt><trkpt lat="43.7236083" lon="12.6609317"><ele>438.0</ele><time>2026-04-04T13:00:32.688Z</time></trkpt><trkpt lat="43.7236583" lon="12.6607867"><ele>438.0</ele><time>2026-04-04T13:00:33.688Z</time></trkpt><trkpt lat="43.723715" lon="12.6606417"><ele>438.0</ele><time>2026-04-04T13:00:34.688Z</time></trkpt><trkpt lat="43.7237667" lon="12.660505"><ele>438.0</ele><time>2026-04-04T13:00:35.689Z</time></trkpt><trkpt lat="43.72382" lon="12.6603633"><ele>437.99999999999994</ele><time>2026-04-04T13:00:36.689Z</time></trkpt><trkpt lat="43.723875" lon="12.6602317"><ele>437.99999999999994</ele><time>2026-04-04T13:00:37.689Z</time></trkpt><trkpt lat="43.7239317" lon="12.660105"><ele>438.0</ele><time>2026-04-04T13:00:38.687Z</time></trkpt><trkpt lat="43.7239983" lon="12.65999"><ele>438.0</ele><time>2026-04-04T13:00:39.687Z</time></trkpt><trkpt lat="43.7240733" lon="12.6598717"><ele>435.75</ele><time>2026-04-04T13:00:40.689Z</time></trkpt><trkpt lat="43.72416" lon="12.6597483"><ele>433.5</ele><time>2026-04-04T13:00:41.69Z</time></trkpt><trkpt lat="43.72424" lon="12.6596083"><ele>431.25</ele><time>2026-04-04T13:00:42.688Z</time></trkpt><trkpt lat="43.724325" lon="12.6594783"><ele>429.0</ele><time>2026-04-04T13:00:43.689Z</time></trkpt><trkpt lat="43.72441" lon="12.659345"><ele>429.0</ele><time>2026-04-04T13:00:44.688Z</time></trkpt><trkpt lat="43.724495" lon="12.65922"><ele>429.0</ele><time>2026-04-04T13:00:45.687Z</time></trkpt><trkpt lat="43.724575" lon="12.6590967"><ele>429.0</ele><time>2026-04-04T13:00:46.688Z</time></trkpt><trkpt lat="43.7246383" lon="12.6589683"><ele>429.0</ele><time>2026-04-04T13:00:47.689Z</time></trkpt><trkpt lat="43.724695" lon="12.6588383"><ele>429.0</ele><time>2026-04-04T13:00:48.689Z</time></trkpt><trkpt lat="43.7247467" lon="12.65871"><ele>429.0</ele><time>2026-04-04T13:00:49.689Z</time></trkpt><trkpt lat="43.7248" lon="12.6586083"><ele>429.0</ele><time>2026-04-04T13:00:50.689Z</time></trkpt><trkpt lat="43.724855" lon="12.6585333"><ele>429.0</ele><time>2026-04-04T13:00:51.686Z</time></trkpt><trkpt lat="43.724905" lon="12.65847"><ele>429.0</ele><time>2026-04-04T13:00:52.688Z</time></trkpt><trkpt lat="43.724955" lon="12.6583767"><ele>429.0</ele><time>2026-04-04T13:00:54.689Z</time></trkpt><trkpt lat="43.7248817" lon="12.6583233"><ele>429.0</ele><time>2026-04-04T13:00:57.687Z</time></trkpt><trkpt lat="43.7247583" lon="12.65838"><ele>429.0</ele><time>2026-04-04T13:00:59.687Z</time></trkpt><trkpt lat="43.724685" lon="12.6584517"><ele>429.0</ele><time>2026-04-04T13:01:00.69Z</time></trkpt><trkpt lat="43.7246083" lon="12.65854"><ele>429.0</ele><time>2026-04-04T13:01:01.688Z</time></trkpt><trkpt lat="43.7245233" lon="12.6586467"><ele>429.0</ele><time>2026-04-04T13:01:02.687Z</time></trkpt><trkpt lat="43.7244333" lon="12.6587517"><ele>424.2</ele><time>2026-04-04T13:01:03.687Z</time></trkpt><trkpt lat="43.7243483" lon="12.6588533"><ele>419.4</ele><time>2026-04-04T13:01:04.69Z</time></trkpt><trkpt lat="43.72427" lon="12.6589617"><ele>414.6</ele><time>2026-04-04T13:01:05.688Z</time></trkpt><trkpt lat="43.7241917" lon="12.6590683"><ele>409.8</ele><time>2026-04-04T13:01:06.69Z</time></trkpt><trkpt lat="43.7241083" lon="12.6591633"><ele>405.0</ele><time>2026-04-04T13:01:07.69Z</time></trkpt><trkpt lat="43.7240167" lon="12.6592383"><ele>405.0</ele><time>2026-04-04T13:01:08.691Z</time></trkpt><trkpt lat="43.7239017" lon="12.6592833"><ele>405.0</ele><time>2026-04-04T13:01:09.687Z</time></trkpt><trkpt lat="43.7237833" lon="12.6593183"><ele>405.0</ele><time>2026-04-04T13:01:10.69Z</time></trkpt><trkpt lat="43.7236617" lon="12.6593667"><ele>405.0</ele><time>2026-04-04T13:01:11.688Z</time></trkpt><trkpt lat="43.7235317" lon="12.6594267"><ele>405.0</ele><time>2026-04-04T13:01:12.689Z</time></trkpt><trkpt lat="43.723405" lon="12.65949"><ele>405.0</ele><time>2026-04-04T13:01:13.688Z</time></trkpt><trkpt lat="43.7232817" lon="12.6595567"><ele>405.0</ele><time>2026-04-04T13:01:14.689Z</time></trkpt><trkpt lat="43.7231533" lon="12.6596333"><ele>405.0</ele><time>2026-04-04T13:01:15.688Z</time></trkpt><trkpt lat="43.723015" lon="12.6597167"><ele>405.0</ele><time>2026-04-04T13:01:16.688Z</time></trkpt><trkpt lat="43.722885" lon="12.6598083"><ele>405.0</ele><time>2026-04-04T13:01:17.689Z</time></trkpt><trkpt lat="43.722745" lon="12.6598933"><ele>405.0</ele><time>2026-04-04T13:01:18.689Z</time></trkpt><trkpt lat="43.7226117" lon="12.659965"><ele>405.0</ele><time>2026-04-04T13:01:19.689Z</time></trkpt><trkpt lat="43.7224783" lon="12.660025"><ele>404.5</ele><time>2026-04-04T13:01:20.686Z</time></trkpt><trkpt lat="43.7223533" lon="12.6600833"><ele>404.0</ele><time>2026-04-04T13:01:21.689Z</time></trkpt><trkpt lat="43.7222367" lon="12.6601683"><ele>403.5</ele><time>2026-04-04T13:01:22.687Z</time></trkpt><trkpt lat="43.7221217" lon="12.6602683"><ele>403.0</ele><time>2026-04-04T13:01:23.689Z</time></trkpt><trkpt lat="43.722015" lon="12.6603617"><ele>403.0</ele><time>2026-04-04T13:01:24.69Z</time></trkpt><trkpt lat="43.7219167" lon="12.6604617"><ele>403.0</ele><time>2026-04-04T13:01:25.689Z</time></trkpt><trkpt lat="43.7218133" lon="12.6605583"><ele>403.0</ele><time>2026-04-04T13:01:26.689Z</time></trkpt><trkpt lat="43.721695" lon="12.66066"><ele>403.0</ele><time>2026-04-04T13:01:27.687Z</time></trkpt><trkpt lat="43.7215817" lon="12.66078"><ele>399.5</ele><time>2026-04-04T13:01:28.687Z</time></trkpt><trkpt lat="43.7214783" lon="12.6609167"><ele>396.0</ele><time>2026-04-04T13:01:29.689Z</time></trkpt><trkpt lat="43.7213817" lon="12.6610483"><ele>392.5</ele><time>2026-04-04T13:01:30.689Z</time></trkpt><trkpt lat="43.7212833" lon="12.6611633"><ele>389.0</ele><time>2026-04-04T13:01:31.69Z</time></trkpt><trkpt lat="43.721175" lon="12.6612583"><ele>389.0</ele><time>2026-04-04T13:01:32.688Z</time></trkpt><trkpt lat="43.7210717" lon="12.6613467"><ele>389.0</ele><time>2026-04-04T13:01:33.689Z</time></trkpt><trkpt lat="43.7209667" lon="12.661435"><ele>389.0</ele><time>2026-04-04T13:01:34.687Z</time></trkpt><trkpt lat="43.720865" lon="12.6615133"><ele>389.0</ele><time>2026-04-04T13:01:35.689Z</time></trkpt><trkpt lat="43.7207683" lon="12.661585"><ele>385.4</ele><time>2026-04-04T13:01:36.689Z</time></trkpt><trkpt lat="43.72069" lon="12.6616667"><ele>381.79999999999995</ele><time>2026-04-04T13:01:37.689Z</time></trkpt><trkpt lat="43.720625" lon="12.6617683"><ele>378.20000000000005</ele><time>2026-04-04T13:01:38.689Z</time></trkpt><trkpt lat="43.7205717" lon="12.6618917"><ele>374.6</ele><time>2026-04-04T13:01:39.686Z</time></trkpt><trkpt lat="43.7205283" lon="12.6620383"><ele>371.0</ele><time>2026-04-04T13:01:40.687Z</time></trkpt><trkpt lat="43.720485" lon="12.6621867"><ele>371.0</ele><time>2026-04-04T13:01:41.688Z</time></trkpt><trkpt lat="43.720435" lon="12.66234"><ele>371.0</ele><time>2026-04-04T13:01:42.689Z</time></trkpt><trkpt lat="43.7203767" lon="12.6624833"><ele>371.0</ele><time>2026-04-04T13:01:43.69Z</time></trkpt><trkpt lat="43.7202883" lon="12.66261"><ele>371.0</ele><time>2026-04-04T13:01:44.687Z</time></trkpt><trkpt lat="43.7201967" lon="12.6627517"><ele>364.25</ele><time>2026-04-04T13:01:45.689Z</time></trkpt><trkpt lat="43.7201167" lon="12.6629"><ele>357.5</ele><time>2026-04-04T13:01:46.689Z</time></trkpt><trkpt lat="43.7200433" lon="12.663045"><ele>350.75</ele><time>2026-04-04T13:01:47.689Z</time></trkpt><trkpt lat="43.7199633" lon="12.66317"><ele>344.0</ele><time>2026-04-04T13:01:48.688Z</time></trkpt><trkpt lat="43.7198783" lon="12.6632717"><ele>344.0</ele><time>2026-04-04T13:01:49.69Z</time></trkpt><trkpt lat="43.719785" lon="12.6633317"><ele>344.0</ele><time>2026-04-04T13:01:50.689Z</time></trkpt><trkpt lat="43.7196933" lon="12.6633533"><ele>344.0</ele><time>2026-04-04T13:01:51.686Z</time></trkpt><trkpt lat="43.7195983" lon="12.6633617"><ele>344.0</ele><time>2026-04-04T13:01:52.689Z</time></trkpt><trkpt lat="43.719485" lon="12.663385"><ele>344.0</ele><time>2026-04-04T13:01:53.689Z</time></trkpt><trkpt lat="43.7193667" lon="12.66344"><ele>340.75</ele><time>2026-04-04T13:01:54.688Z</time></trkpt><trkpt lat="43.7192433" lon="12.663505"><ele>337.5</ele><time>2026-04-04T13:01:55.69Z</time></trkpt><trkpt lat="43.7191167" lon="12.6635667"><ele>334.25</ele><time>2026-04-04T13:01:56.688Z</time></trkpt><trkpt lat="43.7189967" lon="12.6636217"><ele>331.0</ele><time>2026-04-04T13:01:57.688Z</time></trkpt><trkpt lat="43.7188833" lon="12.6636633"><ele>331.0</ele><time>2026-04-04T13:01:58.689Z</time></trkpt><trkpt lat="43.7187683" lon="12.66369"><ele>331.0</ele><time>2026-04-04T13:01:59.688Z</time></trkpt><trkpt lat="43.718645" lon="12.66368"><ele>331.0</ele><time>2026-04-04T13:02:00.689Z</time></trkpt><trkpt lat="43.7185133" lon="12.6636617"><ele>331.0</ele><time>2026-04-04T13:02:01.689Z</time></trkpt><trkpt lat="43.7183733" lon="12.663655"><ele>330.25</ele><time>2026-04-04T13:02:02.687Z</time></trkpt><trkpt lat="43.71823" lon="12.6636717"><ele>329.5</ele><time>2026-04-04T13:02:03.686Z</time></trkpt><trkpt lat="43.7180833" lon="12.6636983"><ele>328.75</ele><time>2026-04-04T13:02:04.689Z</time></trkpt><trkpt lat="43.7179333" lon="12.6637283"><ele>328.0</ele><time>2026-04-04T13:02:05.689Z</time></trkpt><trkpt lat="43.7177767" lon="12.663765"><ele>328.0</ele><time>2026-04-04T13:02:06.688Z</time></trkpt><trkpt lat="43.71762" lon="12.6638083"><ele>328.0</ele><time>2026-04-04T13:02:07.689Z</time></trkpt><trkpt lat="43.717465" lon="12.6638583"><ele>328.0</ele><time>2026-04-04T13:02:08.689Z</time></trkpt><trkpt lat="43.7173083" lon="12.6639033"><ele>328.0</ele><time>2026-04-04T13:02:09.689Z</time></trkpt><trkpt lat="43.7171467" lon="12.663935"><ele>328.0</ele><time>2026-04-04T13:02:10.689Z</time></trkpt><trkpt lat="43.71698" lon="12.6639633"><ele>328.0</ele><time>2026-04-04T13:02:11.689Z</time></trkpt><trkpt lat="43.716815" lon="12.6639933"><ele>329.75</ele><time>2026-04-04T13:02:12.689Z</time></trkpt><trkpt lat="43.716655" lon="12.66403"><ele>331.5</ele><time>2026-04-04T13:02:13.691Z</time></trkpt><trkpt lat="43.716515" lon="12.6640717"><ele>333.25</ele><time>2026-04-04T13:02:14.688Z</time></trkpt><trkpt lat="43.7164033" lon="12.6641233"><ele>335.0</ele><time>2026-04-04T13:02:15.691Z</time></trkpt><trkpt lat="43.71631" lon="12.6642033"><ele>335.0</ele><time>2026-04-04T13:02:16.689Z</time></trkpt><trkpt lat="43.7162233" lon="12.6643167"><ele>335.0</ele><time>2026-04-04T13:02:17.687Z</time></trkpt><trkpt lat="43.716135" lon="12.6644317"><ele>335.0</ele><time>2026-04-04T13:02:18.689Z</time></trkpt><trkpt lat="43.716035" lon="12.6645317"><ele>335.0</ele><time>2026-04-04T13:02:19.69Z</time></trkpt><trkpt lat="43.7159217" lon="12.6646233"><ele>334.5</ele><time>2026-04-04T13:02:20.689Z</time></trkpt><trkpt lat="43.7158017" lon="12.6647183"><ele>334.0</ele><time>2026-04-04T13:02:21.689Z</time></trkpt><trkpt lat="43.71568" lon="12.6648183"><ele>333.5</ele><time>2026-04-04T13:02:22.691Z</time></trkpt><trkpt lat="43.7155583" lon="12.6649117"><ele>333.0</ele><time>2026-04-04T13:02:23.69Z</time></trkpt><trkpt lat="43.7154367" lon="12.6649933"><ele>333.0</ele><time>2026-04-04T13:02:24.687Z</time></trkpt><trkpt lat="43.715315" lon="12.6650617"><ele>333.0</ele><time>2026-04-04T13:02:25.69Z</time></trkpt><trkpt lat="43.7151933" lon="12.665115"><ele>333.0</ele><time>2026-04-04T13:02:26.689Z</time></trkpt><trkpt lat="43.71508" lon="12.6651467"><ele>333.0</ele><time>2026-04-04T13:02:27.687Z</time></trkpt><trkpt lat="43.714965" lon="12.6651567"><ele>336.75</ele><time>2026-04-04T13:02:28.686Z</time></trkpt><trkpt lat="43.71485" lon="12.66515"><ele>340.5</ele><time>2026-04-04T13:02:29.688Z</time></trkpt><trkpt lat="43.7147333" lon="12.665135"><ele>344.25</ele><time>2026-04-04T13:02:30.687Z</time></trkpt><trkpt lat="43.714615" lon="12.6651217"><ele>348.0</ele><time>2026-04-04T13:02:31.688Z</time></trkpt><trkpt lat="43.7145017" lon="12.6651233"><ele>349.75</ele><time>2026-04-04T13:02:32.688Z</time></trkpt><trkpt lat="43.71438" lon="12.6651517"><ele>351.5</ele><time>2026-04-04T13:02:33.687Z</time></trkpt><trkpt lat="43.714255" lon="12.6652067"><ele>353.25</ele><time>2026-04-04T13:02:34.687Z</time></trkpt><trkpt lat="43.7141383" lon="12.66528"><ele>355.0</ele><time>2026-04-04T13:02:35.689Z</time></trkpt><trkpt lat="43.71403" lon="12.6653733"><ele>349.75</ele><time>2026-04-04T13:02:36.687Z</time></trkpt><trkpt lat="43.71393" lon="12.6654667"><ele>344.5</ele><time>2026-04-04T13:02:37.689Z</time></trkpt><trkpt lat="43.71384" lon="12.6655617"><ele>339.25</ele><time>2026-04-04T13:02:38.686Z</time></trkpt><trkpt lat="43.71375" lon="12.66565"><ele>334.0</ele><time>2026-04-04T13:02:39.687Z</time></trkpt><trkpt lat="43.7136467" lon="12.6657183"><ele>337.0</ele><time>2026-04-04T13:02:40.687Z</time></trkpt><trkpt lat="43.71353" lon="12.6657683"><ele>340.0</ele><time>2026-04-04T13:02:41.689Z</time></trkpt><trkpt lat="43.7134083" lon="12.6658"><ele>343.0</ele><time>2026-04-04T13:02:42.685Z</time></trkpt><trkpt lat="43.7132817" lon="12.6657983"><ele>346.0</ele><time>2026-04-04T13:02:43.687Z</time></trkpt><trkpt lat="43.7131383" lon="12.6657983"><ele>346.0</ele><time>2026-04-04T13:02:44.688Z</time></trkpt><trkpt lat="43.713" lon="12.6658067"><ele>346.0</ele><time>2026-04-04T13:02:45.689Z</time></trkpt><trkpt lat="43.71287" lon="12.665835"><ele>346.0</ele><time>2026-04-04T13:02:46.687Z</time></trkpt><trkpt lat="43.7127533" lon="12.6658867"><ele>346.0</ele><time>2026-04-04T13:02:47.688Z</time></trkpt><trkpt lat="43.7126467" lon="12.66596"><ele>345.6</ele><time>2026-04-04T13:02:48.688Z</time></trkpt><trkpt lat="43.7125633" lon="12.6660483"><ele>345.20000000000005</ele><time>2026-04-04T13:02:49.689Z</time></trkpt><trkpt lat="43.7124983" lon="12.6661517"><ele>344.79999999999995</ele><time>2026-04-04T13:02:50.687Z</time></trkpt><trkpt lat="43.712455" lon="12.6662783"><ele>344.4</ele><time>2026-04-04T13:02:51.687Z</time></trkpt><trkpt lat="43.7124183" lon="12.6664133"><ele>344.0</ele><time>2026-04-04T13:02:52.687Z</time></trkpt><trkpt lat="43.7123933" lon="12.66656"><ele>344.0</ele><time>2026-04-04T13:02:53.688Z</time></trkpt><trkpt lat="43.7123683" lon="12.666705"><ele>344.0</ele><time>2026-04-04T13:02:54.687Z</time></trkpt><trkpt lat="43.7123383" lon="12.6668333"><ele>344.0</ele><time>2026-04-04T13:02:55.691Z</time></trkpt><trkpt lat="43.712285" lon="12.6669417"><ele>344.0</ele><time>2026-04-04T13:02:56.688Z</time></trkpt><trkpt lat="43.7122133" lon="12.66702"><ele>344.0</ele><time>2026-04-04T13:02:57.687Z</time></trkpt><trkpt lat="43.712115" lon="12.6670683"><ele>343.25</ele><time>2026-04-04T13:02:58.687Z</time></trkpt><trkpt lat="43.7120017" lon="12.6671067"><ele>342.5</ele><time>2026-04-04T13:02:59.689Z</time></trkpt><trkpt lat="43.7118767" lon="12.6671317"><ele>341.75</ele><time>2026-04-04T13:03:00.688Z</time></trkpt><trkpt lat="43.7117433" lon="12.6671483"><ele>341.0</ele><time>2026-04-04T13:03:01.688Z</time></trkpt><trkpt lat="43.7116167" lon="12.6671667"><ele>343.8</ele><time>2026-04-04T13:03:02.688Z</time></trkpt><trkpt lat="43.7114967" lon="12.66719"><ele>346.6</ele><time>2026-04-04T13:03:03.687Z</time></trkpt><trkpt lat="43.711385" lon="12.6672283"><ele>349.4</ele><time>2026-04-04T13:03:04.688Z</time></trkpt><trkpt lat="43.711295" lon="12.6672767"><ele>352.2</ele><time>2026-04-04T13:03:05.687Z</time></trkpt><trkpt lat="43.7112267" lon="12.66734"><ele>355.0</ele><time>2026-04-04T13:03:06.686Z</time></trkpt><trkpt lat="43.7111717" lon="12.6674117"><ele>355.0</ele><time>2026-04-04T13:03:07.688Z</time></trkpt><trkpt lat="43.7111267" lon="12.6675"><ele>355.0</ele><time>2026-04-04T13:03:08.687Z</time></trkpt><trkpt lat="43.7110917" lon="12.6676017"><ele>355.0</ele><time>2026-04-04T13:03:09.686Z</time></trkpt><trkpt lat="43.7110717" lon="12.6677217"><ele>355.0</ele><time>2026-04-04T13:03:10.69Z</time></trkpt><trkpt lat="43.7110533" lon="12.6678567"><ele>355.0</ele><time>2026-04-04T13:03:11.688Z</time></trkpt><trkpt lat="43.7110467" lon="12.668005"><ele>353.6</ele><time>2026-04-04T13:03:12.687Z</time></trkpt><trkpt lat="43.7110583" lon="12.6681667"><ele>352.2</ele><time>2026-04-04T13:03:13.688Z</time></trkpt><trkpt lat="43.7110633" lon="12.668325"><ele>350.79999999999995</ele><time>2026-04-04T13:03:14.688Z</time></trkpt><trkpt lat="43.7110617" lon="12.6684733"><ele>349.4</ele><time>2026-04-04T13:03:15.688Z</time></trkpt><trkpt lat="43.7110533" lon="12.6686067"><ele>348.0</ele><time>2026-04-04T13:03:16.688Z</time></trkpt><trkpt lat="43.711025" lon="12.668725"><ele>348.0</ele><time>2026-04-04T13:03:17.686Z</time></trkpt><trkpt lat="43.71098" lon="12.6688267"><ele>348.0</ele><time>2026-04-04T13:03:18.687Z</time></trkpt><trkpt lat="43.7109283" lon="12.6689133"><ele>348.0</ele><time>2026-04-04T13:03:19.688Z</time></trkpt><trkpt lat="43.710855" lon="12.66897"><ele>348.0</ele><time>2026-04-04T13:03:20.69Z</time></trkpt><trkpt lat="43.710755" lon="12.6690117"><ele>348.0</ele><time>2026-04-04T13:03:21.688Z</time></trkpt><trkpt lat="43.7106267" lon="12.66904"><ele>348.0</ele><time>2026-04-04T13:03:22.687Z</time></trkpt><trkpt lat="43.710515" lon="12.669085"><ele>348.0</ele><time>2026-04-04T13:03:23.688Z</time></trkpt><trkpt lat="43.7104067" lon="12.6691367"><ele>348.0</ele><time>2026-04-04T13:03:24.687Z</time></trkpt><trkpt lat="43.7103083" lon="12.6691883"><ele>348.0</ele><time>2026-04-04T13:03:25.688Z</time></trkpt><trkpt lat="43.7102167" lon="12.6692417"><ele>348.0</ele><time>2026-04-04T13:03:26.686Z</time></trkpt><trkpt lat="43.7101333" lon="12.6693067"><ele>346.2</ele><time>2026-04-04T13:03:27.687Z</time></trkpt><trkpt lat="43.7100567" lon="12.6693917"><ele>344.4</ele><time>2026-04-04T13:03:28.687Z</time></trkpt><trkpt lat="43.7099783" lon="12.6694917"><ele>342.59999999999997</ele><time>2026-04-04T13:03:29.688Z</time></trkpt><trkpt lat="43.7098867" lon="12.6696033"><ele>340.79999999999995</ele><time>2026-04-04T13:03:30.687Z</time></trkpt><trkpt lat="43.7098" lon="12.6697183"><ele>339.0</ele><time>2026-04-04T13:03:31.689Z</time></trkpt><trkpt lat="43.7097133" lon="12.66984"><ele>338.75</ele><time>2026-04-04T13:03:32.687Z</time></trkpt><trkpt lat="43.709625" lon="12.669965"><ele>338.5</ele><time>2026-04-04T13:03:33.687Z</time></trkpt><trkpt lat="43.7095417" lon="12.6701033"><ele>338.25</ele><time>2026-04-04T13:03:34.687Z</time></trkpt><trkpt lat="43.7094517" lon="12.6702383"><ele>338.0</ele><time>2026-04-04T13:03:35.689Z</time></trkpt><trkpt lat="43.7093617" lon="12.6703683"><ele>336.0</ele><time>2026-04-04T13:03:36.688Z</time></trkpt><trkpt lat="43.7092783" lon="12.6704967"><ele>334.0</ele><time>2026-04-04T13:03:37.688Z</time></trkpt><trkpt lat="43.7091983" lon="12.6706133"><ele>332.0</ele><time>2026-04-04T13:03:38.687Z</time></trkpt><trkpt lat="43.70913" lon="12.6707167"><ele>330.0</ele><time>2026-04-04T13:03:39.687Z</time></trkpt><trkpt lat="43.7090683" lon="12.6707983"><ele>328.0</ele><time>2026-04-04T13:03:40.687Z</time></trkpt><trkpt lat="43.7090233" lon="12.6708817"><ele>328.0</ele><time>2026-04-04T13:03:41.688Z</time></trkpt><trkpt lat="43.7089967" lon="12.6709617"><ele>328.0</ele><time>2026-04-04T13:03:42.687Z</time></trkpt><trkpt lat="43.70899" lon="12.6711433"><ele>328.0</ele><time>2026-04-04T13:03:44.689Z</time></trkpt><trkpt lat="43.70902" lon="12.671265"><ele>328.0</ele><time>2026-04-04T13:03:45.69Z</time></trkpt><trkpt lat="43.7090733" lon="12.6714017"><ele>328.0</ele><time>2026-04-04T13:03:46.688Z</time></trkpt><trkpt lat="43.7091183" lon="12.67153"><ele>327.8333333333333</ele><time>2026-04-04T13:03:47.686Z</time></trkpt><trkpt lat="43.7091783" lon="12.6716433"><ele>327.66666666666663</ele><time>2026-04-04T13:03:48.686Z</time></trkpt><trkpt lat="43.709225" lon="12.671755"><ele>327.5</ele><time>2026-04-04T13:03:49.687Z</time></trkpt><trkpt lat="43.709265" lon="12.67186"><ele>327.3333333333333</ele><time>2026-04-04T13:03:50.687Z</time></trkpt><trkpt lat="43.7092883" lon="12.6719617"><ele>327.1666666666667</ele><time>2026-04-04T13:03:51.686Z</time></trkpt><trkpt lat="43.7092817" lon="12.67205"><ele>327.0</ele><time>2026-04-04T13:03:52.687Z</time></trkpt><trkpt lat="43.709205" lon="12.672145"><ele>323.0</ele><time>2026-04-04T13:03:54.686Z</time></trkpt><trkpt lat="43.709105" lon="12.6721483"><ele>319.0</ele><time>2026-04-04T13:03:55.687Z</time></trkpt><trkpt lat="43.709" lon="12.6721517"><ele>315.0</ele><time>2026-04-04T13:03:56.688Z</time></trkpt><trkpt lat="43.70885" lon="12.67212"><ele>311.0</ele><time>2026-04-04T13:03:57.687Z</time></trkpt><trkpt lat="43.70873" lon="12.6721067"><ele>311.0</ele><time>2026-04-04T13:03:58.687Z</time></trkpt><trkpt lat="43.7086033" lon="12.6721017"><ele>311.0</ele><time>2026-04-04T13:03:59.689Z</time></trkpt><trkpt lat="43.7084917" lon="12.672115"><ele>311.0</ele><time>2026-04-04T13:04:00.687Z</time></trkpt><trkpt lat="43.7083783" lon="12.6721317"><ele>311.0</ele><time>2026-04-04T13:04:01.688Z</time></trkpt><trkpt lat="43.7082617" lon="12.67216"><ele>311.0</ele><time>2026-04-04T13:04:02.687Z</time></trkpt><trkpt lat="43.7081483" lon="12.6721967"><ele>311.0</ele><time>2026-04-04T13:04:03.685Z</time></trkpt><trkpt lat="43.7080383" lon="12.6722383"><ele>311.0</ele><time>2026-04-04T13:04:04.688Z</time></trkpt><trkpt lat="43.707935" lon="12.6722833"><ele>311.0</ele><time>2026-04-04T13:04:05.687Z</time></trkpt><trkpt lat="43.7078333" lon="12.67234"><ele>311.0</ele><time>2026-04-04T13:04:06.688Z</time></trkpt><trkpt lat="43.7077367" lon="12.6724083"><ele>310.6</ele><time>2026-04-04T13:04:07.689Z</time></trkpt><trkpt lat="43.7076433" lon="12.6724833"><ele>310.20000000000005</ele><time>2026-04-04T13:04:08.687Z</time></trkpt><trkpt lat="43.70756" lon="12.6725633"><ele>309.79999999999995</ele><time>2026-04-04T13:04:09.686Z</time></trkpt><trkpt lat="43.7074867" lon="12.6726583"><ele>309.4</ele><time>2026-04-04T13:04:10.689Z</time></trkpt><trkpt lat="43.7074267" lon="12.6727717"><ele>309.0</ele><time>2026-04-04T13:04:11.687Z</time></trkpt><trkpt lat="43.7073833" lon="12.6728883"><ele>306.0</ele><time>2026-04-04T13:04:12.687Z</time></trkpt><trkpt lat="43.7073367" lon="12.6729917"><ele>303.0</ele><time>2026-04-04T13:04:13.687Z</time></trkpt><trkpt lat="43.7072817" lon="12.6730733"><ele>300.0</ele><time>2026-04-04T13:04:14.687Z</time></trkpt><trkpt lat="43.707215" lon="12.6731217"><ele>297.0</ele><time>2026-04-04T13:04:15.689Z</time></trkpt><trkpt lat="43.7071283" lon="12.67314"><ele>294.0</ele><time>2026-04-04T13:04:16.688Z</time></trkpt><trkpt lat="43.707035" lon="12.6731133"><ele>291.0</ele><time>2026-04-04T13:04:17.685Z</time></trkpt><trkpt lat="43.7069367" lon="12.6730483"><ele>290.2</ele><time>2026-04-04T13:04:18.687Z</time></trkpt><trkpt lat="43.70685" lon="12.67295"><ele>289.40000000000003</ele><time>2026-04-04T13:04:19.688Z</time></trkpt><trkpt lat="43.7067817" lon="12.6728367"><ele>288.6</ele><time>2026-04-04T13:04:20.688Z</time></trkpt><trkpt lat="43.7067167" lon="12.6727317"><ele>287.8</ele><time>2026-04-04T13:04:21.687Z</time></trkpt><trkpt lat="43.70665" lon="12.6726467"><ele>287.0</ele><time>2026-04-04T13:04:22.686Z</time></trkpt><trkpt lat="43.70658" lon="12.6725933"><ele>287.0</ele><time>2026-04-04T13:04:23.687Z</time></trkpt><trkpt lat="43.7065117" lon="12.6725633"><ele>287.0</ele><time>2026-04-04T13:04:24.687Z</time></trkpt><trkpt lat="43.7063917" lon="12.6725733"><ele>287.0</ele><time>2026-04-04T13:04:26.689Z</time></trkpt><trkpt lat="43.7063" lon="12.672685"><ele>287.0</ele><time>2026-04-04T13:04:28.688Z</time></trkpt><trkpt lat="43.7063083" lon="12.672805"><ele>287.0</ele><time>2026-04-04T13:04:29.688Z</time></trkpt><trkpt lat="43.706345" lon="12.6729283"><ele>287.0</ele><time>2026-04-04T13:04:30.687Z</time></trkpt><trkpt lat="43.7064" lon="12.67306"><ele>287.0</ele><time>2026-04-04T13:04:31.688Z</time></trkpt><trkpt lat="43.7064583" lon="12.6731967"><ele>287.0</ele><time>2026-04-04T13:04:32.689Z</time></trkpt><trkpt lat="43.7065133" lon="12.6733333"><ele>287.0</ele><time>2026-04-04T13:04:33.687Z</time></trkpt><trkpt lat="43.70657" lon="12.6734717"><ele>287.0</ele><time>2026-04-04T13:04:34.687Z</time></trkpt><trkpt lat="43.7066233" lon="12.6735967"><ele>287.0</ele><time>2026-04-04T13:04:35.687Z</time></trkpt><trkpt lat="43.70668" lon="12.67371"><ele>287.0</ele><time>2026-04-04T13:04:36.688Z</time></trkpt><trkpt lat="43.7067483" lon="12.6738117"><ele>287.0</ele><time>2026-04-04T13:04:37.691Z</time></trkpt><trkpt lat="43.7068217" lon="12.6738967"><ele>287.0</ele><time>2026-04-04T13:04:38.69Z</time></trkpt><trkpt lat="43.7069" lon="12.6739583"><ele>283.6666666666667</ele><time>2026-04-04T13:04:39.687Z</time></trkpt><trkpt lat="43.7069783" lon="12.6740083"><ele>280.33333333333337</ele><time>2026-04-04T13:04:40.69Z</time></trkpt><trkpt lat="43.7070433" lon="12.6740467"><ele>277.0</ele><time>2026-04-04T13:04:41.688Z</time></trkpt><trkpt lat="43.7071417" lon="12.674135"><ele>273.6666666666667</ele><time>2026-04-04T13:04:43.688Z</time></trkpt><trkpt lat="43.707145" lon="12.6742583"><ele>270.3333333333333</ele><time>2026-04-04T13:04:45.688Z</time></trkpt><trkpt lat="43.7070933" lon="12.6743167"><ele>267.0</ele><time>2026-04-04T13:04:46.689Z</time></trkpt><trkpt lat="43.706985" lon="12.6743683"><ele>268.0</ele><time>2026-04-04T13:04:47.686Z</time></trkpt><trkpt lat="43.706825" lon="12.674405"><ele>269.0</ele><time>2026-04-04T13:04:48.687Z</time></trkpt><trkpt lat="43.70667" lon="12.67443"><ele>270.0</ele><time>2026-04-04T13:04:49.688Z</time></trkpt><trkpt lat="43.706515" lon="12.67445"><ele>270.0</ele><time>2026-04-04T13:04:50.688Z</time></trkpt><trkpt lat="43.7063733" lon="12.6744583"><ele>270.0</ele><time>2026-04-04T13:04:51.688Z</time></trkpt><trkpt lat="43.7062583" lon="12.67444"><ele>270.0</ele><time>2026-04-04T13:04:52.686Z</time></trkpt><trkpt lat="43.7061533" lon="12.6743933"><ele>270.0</ele><time>2026-04-04T13:04:53.689Z</time></trkpt><trkpt lat="43.70605" lon="12.67433"><ele>267.8</ele><time>2026-04-04T13:04:54.688Z</time></trkpt><trkpt lat="43.70596" lon="12.6742467"><ele>265.6</ele><time>2026-04-04T13:04:55.688Z</time></trkpt><trkpt lat="43.7058833" lon="12.674145"><ele>263.4</ele><time>2026-04-04T13:04:56.686Z</time></trkpt><trkpt lat="43.705815" lon="12.67403"><ele>261.2</ele><time>2026-04-04T13:04:57.687Z</time></trkpt><trkpt lat="43.7057467" lon="12.6739217"><ele>259.0</ele><time>2026-04-04T13:04:58.687Z</time></trkpt><trkpt lat="43.705655" lon="12.6738383"><ele>259.0</ele><time>2026-04-04T13:04:59.688Z</time></trkpt><trkpt lat="43.7055483" lon="12.6737833"><ele>259.0</ele><time>2026-04-04T13:05:00.688Z</time></trkpt><trkpt lat="43.7054267" lon="12.67376"><ele>259.0</ele><time>2026-04-04T13:05:01.689Z</time></trkpt><trkpt lat="43.70529" lon="12.6737617"><ele>259.0</ele><time>2026-04-04T13:05:02.687Z</time></trkpt><trkpt lat="43.70515" lon="12.6737833"><ele>255.75</ele><time>2026-04-04T13:05:03.69Z</time></trkpt><trkpt lat="43.7050133" lon="12.67381"><ele>252.5</ele><time>2026-04-04T13:05:04.686Z</time></trkpt><trkpt lat="43.7048733" lon="12.6738383"><ele>249.25</ele><time>2026-04-04T13:05:05.688Z</time></trkpt><trkpt lat="43.7047333" lon="12.6738717"><ele>246.0</ele><time>2026-04-04T13:05:06.688Z</time></trkpt><trkpt lat="43.7045883" lon="12.6739183"><ele>246.0</ele><time>2026-04-04T13:05:07.687Z</time></trkpt><trkpt lat="43.704445" lon="12.6739717"><ele>246.0</ele><time>2026-04-04T13:05:08.689Z</time></trkpt><trkpt lat="43.7043083" lon="12.67403"><ele>246.0</ele><time>2026-04-04T13:05:09.686Z</time></trkpt><trkpt lat="43.704185" lon="12.6740883"><ele>246.0</ele><time>2026-04-04T13:05:10.689Z</time></trkpt><trkpt lat="43.7040617" lon="12.6741367"><ele>246.5</ele><time>2026-04-04T13:05:11.688Z</time></trkpt><trkpt lat="43.7039383" lon="12.6741667"><ele>247.0</ele><time>2026-04-04T13:05:12.688Z</time></trkpt><trkpt lat="43.7038217" lon="12.67418"><ele>247.5</ele><time>2026-04-04T13:05:13.688Z</time></trkpt><trkpt lat="43.7036967" lon="12.674185"><ele>248.0</ele><time>2026-04-04T13:05:14.688Z</time></trkpt><trkpt lat="43.703585" lon="12.67419"><ele>248.60000000000002</ele><time>2026-04-04T13:05:15.689Z</time></trkpt><trkpt lat="43.7034767" lon="12.6742167"><ele>249.20000000000002</ele><time>2026-04-04T13:05:16.688Z</time></trkpt><trkpt lat="43.70338" lon="12.6742717"><ele>249.8</ele><time>2026-04-04T13:05:17.687Z</time></trkpt><trkpt lat="43.7032983" lon="12.6743567"><ele>250.4</ele><time>2026-04-04T13:05:18.687Z</time></trkpt><trkpt lat="43.7032267" lon="12.6744667"><ele>251.0</ele><time>2026-04-04T13:05:19.689Z</time></trkpt><trkpt lat="43.7031583" lon="12.6745883"><ele>248.5</ele><time>2026-04-04T13:05:20.687Z</time></trkpt><trkpt lat="43.703075" lon="12.6747017"><ele>246.0</ele><time>2026-04-04T13:05:21.688Z</time></trkpt><trkpt lat="43.70297" lon="12.6748117"><ele>243.5</ele><time>2026-04-04T13:05:22.69Z</time></trkpt><trkpt lat="43.7028633" lon="12.6749233"><ele>241.0</ele><time>2026-04-04T13:05:23.686Z</time></trkpt><trkpt lat="43.7027633" lon="12.6750533"><ele>240.75</ele><time>2026-04-04T13:05:24.689Z</time></trkpt><trkpt lat="43.7026717" lon="12.6751983"><ele>240.5</ele><time>2026-04-04T13:05:25.689Z</time></trkpt><trkpt lat="43.7025983" lon="12.67535"><ele>240.25</ele><time>2026-04-04T13:05:26.689Z</time></trkpt><trkpt lat="43.7025417" lon="12.6755"><ele>240.0</ele><time>2026-04-04T13:05:27.687Z</time></trkpt><trkpt lat="43.7024933" lon="12.6756417"><ele>240.0</ele><time>2026-04-04T13:05:28.687Z</time></trkpt><trkpt lat="43.7024483" lon="12.6757717"><ele>240.0</ele><time>2026-04-04T13:05:29.689Z</time></trkpt><trkpt lat="43.7023983" lon="12.6758983"><ele>240.0</ele><time>2026-04-04T13:05:30.688Z</time></trkpt><trkpt lat="43.7023417" lon="12.676025"><ele>240.0</ele><time>2026-04-04T13:05:31.689Z</time></trkpt><trkpt lat="43.7022817" lon="12.676155"><ele>240.0</ele><time>2026-04-04T13:05:32.689Z</time></trkpt><trkpt lat="43.7022133" lon="12.6762683"><ele>237.6</ele><time>2026-04-04T13:05:33.686Z</time></trkpt><trkpt lat="43.7021417" lon="12.6763383"><ele>235.2</ele><time>2026-04-04T13:05:34.688Z</time></trkpt><trkpt lat="43.702065" lon="12.6763767"><ele>232.8</ele><time>2026-04-04T13:05:35.687Z</time></trkpt><trkpt lat="43.7019767" lon="12.6763717"><ele>230.4</ele><time>2026-04-04T13:05:36.688Z</time></trkpt><trkpt lat="43.701875" lon="12.6763283"><ele>228.0</ele><time>2026-04-04T13:05:37.689Z</time></trkpt><trkpt lat="43.7017683" lon="12.6762517"><ele>228.0</ele><time>2026-04-04T13:05:38.689Z</time></trkpt><trkpt lat="43.7016683" lon="12.6761467"><ele>228.0</ele><time>2026-04-04T13:05:39.686Z</time></trkpt><trkpt lat="43.7015733" lon="12.67607"><ele>228.0</ele><time>2026-04-04T13:05:40.688Z</time></trkpt><trkpt lat="43.701485" lon="12.6760167"><ele>228.0</ele><time>2026-04-04T13:05:41.689Z</time></trkpt><trkpt lat="43.7014033" lon="12.6759917"><ele>228.0</ele><time>2026-04-04T13:05:42.691Z</time></trkpt><trkpt lat="43.7013317" lon="12.6759883"><ele>228.0</ele><time>2026-04-04T13:05:43.691Z</time></trkpt><trkpt lat="43.70126" lon="12.67601"><ele>228.0</ele><time>2026-04-04T13:05:44.689Z</time></trkpt><trkpt lat="43.7011967" lon="12.6760667"><ele>228.0</ele><time>2026-04-04T13:05:45.693Z</time></trkpt><trkpt lat="43.701135" lon="12.6761267"><ele>228.0</ele><time>2026-04-04T13:05:46.689Z</time></trkpt><trkpt lat="43.70108" lon="12.6762117"><ele>228.0</ele><time>2026-04-04T13:05:47.69Z</time></trkpt><trkpt lat="43.7010367" lon="12.6763167"><ele>228.0</ele><time>2026-04-04T13:05:48.688Z</time></trkpt><trkpt lat="43.700985" lon="12.6764"><ele>227.5</ele><time>2026-04-04T13:05:49.691Z</time></trkpt><trkpt lat="43.7009233" lon="12.6764467"><ele>227.0</ele><time>2026-04-04T13:05:50.688Z</time></trkpt><trkpt lat="43.7008583" lon="12.676455"><ele>226.5</ele><time>2026-04-04T13:05:51.688Z</time></trkpt><trkpt lat="43.70079" lon="12.6764533"><ele>226.0</ele><time>2026-04-04T13:05:52.688Z</time></trkpt><trkpt lat="43.7007217" lon="12.676455"><ele>225.5</ele><time>2026-04-04T13:05:53.688Z</time></trkpt><trkpt lat="43.7006583" lon="12.676465"><ele>225.0</ele><time>2026-04-04T13:05:54.687Z</time></trkpt><trkpt lat="43.7005617" lon="12.676585"><ele>225.0</ele><time>2026-04-04T13:05:56.69Z</time></trkpt><trkpt lat="43.7005083" lon="12.6766717"><ele>225.0</ele><time>2026-04-04T13:05:57.687Z</time></trkpt><trkpt lat="43.7004983" lon="12.676795"><ele>225.0</ele><time>2026-04-04T13:05:58.688Z</time></trkpt><trkpt lat="43.7004817" lon="12.6769267"><ele>225.0</ele><time>2026-04-04T13:05:59.69Z</time></trkpt><trkpt lat="43.70044" lon="12.67703"><ele>225.0</ele><time>2026-04-04T13:06:00.689Z</time></trkpt><trkpt lat="43.7003833" lon="12.677105"><ele>225.0</ele><time>2026-04-04T13:06:01.689Z</time></trkpt><trkpt lat="43.700305" lon="12.6771683"><ele>222.0</ele><time>2026-04-04T13:06:02.687Z</time></trkpt><trkpt lat="43.7002" lon="12.67723"><ele>219.0</ele><time>2026-04-04T13:06:03.686Z</time></trkpt><trkpt lat="43.7001067" lon="12.6773067"><ele>216.0</ele><time>2026-04-04T13:06:04.689Z</time></trkpt><trkpt lat="43.7000267" lon="12.6774033"><ele>213.0</ele><time>2026-04-04T13:06:05.69Z</time></trkpt><trkpt lat="43.6999567" lon="12.6775117"><ele>210.0</ele><time>2026-04-04T13:06:06.689Z</time></trkpt><trkpt lat="43.699905" lon="12.677625"><ele>210.0</ele><time>2026-04-04T13:06:07.688Z</time></trkpt><trkpt lat="43.699855" lon="12.6777183"><ele>210.0</ele><time>2026-04-04T13:06:08.687Z</time></trkpt><trkpt lat="43.6997883" lon="12.677785"><ele>210.0</ele><time>2026-04-04T13:06:09.688Z</time></trkpt><trkpt lat="43.6997183" lon="12.6778367"><ele>210.0</ele><time>2026-04-04T13:06:10.687Z</time></trkpt><trkpt lat="43.6996233" lon="12.6778367"><ele>210.0</ele><time>2026-04-04T13:06:11.689Z</time></trkpt><trkpt lat="43.6995317" lon="12.6778517"><ele>210.0</ele><time>2026-04-04T13:06:12.686Z</time></trkpt><trkpt lat="43.6994217" lon="12.6778517"><ele>208.4</ele><time>2026-04-04T13:06:13.69Z</time></trkpt><trkpt lat="43.6993133" lon="12.6778167"><ele>206.8</ele><time>2026-04-04T13:06:14.689Z</time></trkpt><trkpt lat="43.6992083" lon="12.6777833"><ele>205.2</ele><time>2026-04-04T13:06:15.688Z</time></trkpt><trkpt lat="43.6990967" lon="12.677755"><ele>203.6</ele><time>2026-04-04T13:06:16.689Z</time></trkpt><trkpt lat="43.69899" lon="12.677725"><ele>202.0</ele><time>2026-04-04T13:06:17.688Z</time></trkpt><trkpt lat="43.698885" lon="12.6776733"><ele>202.0</ele><time>2026-04-04T13:06:18.687Z</time></trkpt><trkpt lat="43.6987883" lon="12.6776117"><ele>202.0</ele><time>2026-04-04T13:06:19.69Z</time></trkpt><trkpt lat="43.698695" lon="12.677545"><ele>202.0</ele><time>2026-04-04T13:06:20.688Z</time></trkpt><trkpt lat="43.6986067" lon="12.677465"><ele>202.0</ele><time>2026-04-04T13:06:21.686Z</time></trkpt><trkpt lat="43.6985083" lon="12.6773933"><ele>202.0</ele><time>2026-04-04T13:06:22.687Z</time></trkpt><trkpt lat="43.698415" lon="12.6773417"><ele>197.6</ele><time>2026-04-04T13:06:23.691Z</time></trkpt><trkpt lat="43.69832" lon="12.6772683"><ele>193.2</ele><time>2026-04-04T13:06:24.69Z</time></trkpt><trkpt lat="43.6982217" lon="12.6772117"><ele>188.8</ele><time>2026-04-04T13:06:25.688Z</time></trkpt><trkpt lat="43.698125" lon="12.67716"><ele>184.4</ele><time>2026-04-04T13:06:26.686Z</time></trkpt><trkpt lat="43.698025" lon="12.67711"><ele>180.0</ele><time>2026-04-04T13:06:27.686Z</time></trkpt><trkpt lat="43.6979267" lon="12.6770533"><ele>180.0</ele><time>2026-04-04T13:06:28.689Z</time></trkpt><trkpt lat="43.6978317" lon="12.6769983"><ele>180.0</ele><time>2026-04-04T13:06:29.687Z</time></trkpt><trkpt lat="43.697745" lon="12.676955"><ele>180.0</ele><time>2026-04-04T13:06:30.686Z</time></trkpt><trkpt lat="43.6976633" lon="12.676925"><ele>180.0</ele><time>2026-04-04T13:06:31.688Z</time></trkpt><trkpt lat="43.697585" lon="12.6768983"><ele>180.0</ele><time>2026-04-04T13:06:32.688Z</time></trkpt><trkpt lat="43.6974767" lon="12.6769133"><ele>177.8</ele><time>2026-04-04T13:06:34.689Z</time></trkpt><trkpt lat="43.6974233" lon="12.6769783"><ele>175.6</ele><time>2026-04-04T13:06:37.69Z</time></trkpt><trkpt lat="43.6973967" lon="12.677095"><ele>173.39999999999998</ele><time>2026-04-04T13:06:39.689Z</time></trkpt><trkpt lat="43.6973233" lon="12.6771283"><ele>171.2</ele><time>2026-04-04T13:06:42.688Z</time></trkpt><trkpt lat="43.697235" lon="12.676975"><ele>169.0</ele><time>2026-04-04T13:06:44.69Z</time></trkpt><trkpt lat="43.6971767" lon="12.6768817"><ele>169.0</ele><time>2026-04-04T13:06:45.688Z</time></trkpt><trkpt lat="43.697125" lon="12.6767967"><ele>169.0</ele><time>2026-04-04T13:06:46.688Z</time></trkpt><trkpt lat="43.6970767" lon="12.6767183"><ele>169.0</ele><time>2026-04-04T13:06:47.688Z</time></trkpt><trkpt lat="43.6970117" lon="12.67663"><ele>169.0</ele><time>2026-04-04T13:06:49.69Z</time></trkpt><trkpt lat="43.6969383" lon="12.67664"><ele>169.0</ele><time>2026-04-04T13:06:51.688Z</time></trkpt><trkpt lat="43.6968767" lon="12.6766667"><ele>169.0</ele><time>2026-04-04T13:06:52.689Z</time></trkpt><trkpt lat="43.6968" lon="12.676705"><ele>167.6</ele><time>2026-04-04T13:06:53.688Z</time></trkpt><trkpt lat="43.69672" lon="12.6767417"><ele>166.2</ele><time>2026-04-04T13:06:54.687Z</time></trkpt><trkpt lat="43.6966467" lon="12.676775"><ele>164.79999999999998</ele><time>2026-04-04T13:06:55.689Z</time></trkpt><trkpt lat="43.6965817" lon="12.6768033"><ele>163.39999999999998</ele><time>2026-04-04T13:06:56.689Z</time></trkpt><trkpt lat="43.696465" lon="12.676815"><ele>162.0</ele><time>2026-04-04T13:06:58.687Z</time></trkpt><trkpt lat="43.69635" lon="12.676735"><ele>162.0</ele><time>2026-04-04T13:07:00.689Z</time></trkpt><trkpt lat="43.6963017" lon="12.6766383"><ele>162.0</ele><time>2026-04-04T13:07:01.692Z</time></trkpt><trkpt lat="43.696255" lon="12.67655"><ele>162.0</ele><time>2026-04-04T13:07:02.686Z</time></trkpt><trkpt lat="43.6962167" lon="12.67648"><ele>162.0</ele><time>2026-04-04T13:07:03.686Z</time></trkpt><trkpt lat="43.696125" lon="12.67646"><ele>162.0</ele><time>2026-04-04T13:07:05.688Z</time></trkpt><trkpt lat="43.6960533" lon="12.67659"><ele>162.0</ele><time>2026-04-04T13:07:07.689Z</time></trkpt><trkpt lat="43.6960117" lon="12.676735"><ele>164.2</ele><time>2026-04-04T13:07:09.686Z</time></trkpt><trkpt lat="43.6959483" lon="12.676825"><ele>166.39999999999998</ele><time>2026-04-04T13:07:11.689Z</time></trkpt><trkpt lat="43.6958283" lon="12.67679"><ele>168.60000000000002</ele><time>2026-04-04T13:07:13.69Z</time></trkpt><trkpt lat="43.69576" lon="12.6767367"><ele>170.8</ele><time>2026-04-04T13:07:14.688Z</time></trkpt><trkpt lat="43.6956667" lon="12.6766733"><ele>173.0</ele><time>2026-04-04T13:07:15.686Z</time></trkpt><trkpt lat="43.695575" lon="12.6766083"><ele>173.0</ele><time>2026-04-04T13:07:16.69Z</time></trkpt><trkpt lat="43.6954933" lon="12.6765233"><ele>173.0</ele><time>2026-04-04T13:07:17.689Z</time></trkpt><trkpt lat="43.69543" lon="12.67643"><ele>173.0</ele><time>2026-04-04T13:07:18.689Z</time></trkpt><trkpt lat="43.6953767" lon="12.676335"><ele>173.0</ele><time>2026-04-04T13:07:19.69Z</time></trkpt><trkpt lat="43.6953217" lon="12.6762383"><ele>173.0</ele><time>2026-04-04T13:07:20.689Z</time></trkpt><trkpt lat="43.6952767" lon="12.6761617"><ele>173.0</ele><time>2026-04-04T13:07:21.688Z</time></trkpt><trkpt lat="43.6952317" lon="12.6760983"><ele>173.16666666666666</ele><time>2026-04-04T13:07:22.687Z</time></trkpt><trkpt lat="43.6951783" lon="12.6760417"><ele>173.33333333333331</ele><time>2026-04-04T13:07:23.689Z</time></trkpt><trkpt lat="43.6951" lon="12.6759917"><ele>173.5</ele><time>2026-04-04T13:07:24.688Z</time></trkpt><trkpt lat="43.695015" lon="12.6759433"><ele>173.66666666666666</ele><time>2026-04-04T13:07:25.692Z</time></trkpt><trkpt lat="43.6949317" lon="12.6758967"><ele>173.83333333333334</ele><time>2026-04-04T13:07:26.689Z</time></trkpt><trkpt lat="43.6948417" lon="12.67585"><ele>174.0</ele><time>2026-04-04T13:07:27.689Z</time></trkpt><trkpt lat="43.6947383" lon="12.6758083"><ele>174.0</ele><time>2026-04-04T13:07:28.687Z</time></trkpt><trkpt lat="43.6946317" lon="12.6757733"><ele>174.0</ele><time>2026-04-04T13:07:29.689Z</time></trkpt><trkpt lat="43.6945167" lon="12.6757533"><ele>174.0</ele><time>2026-04-04T13:07:30.687Z</time></trkpt><trkpt lat="43.6943983" lon="12.67575"><ele>174.0</ele><time>2026-04-04T13:07:31.689Z</time></trkpt><trkpt lat="43.6942883" lon="12.6757483"><ele>175.39999999999998</ele><time>2026-04-04T13:07:32.688Z</time></trkpt><trkpt lat="43.694185" lon="12.6757433"><ele>176.8</ele><time>2026-04-04T13:07:33.687Z</time></trkpt><trkpt lat="43.6940867" lon="12.6757217"><ele>178.2</ele><time>2026-04-04T13:07:34.688Z</time></trkpt><trkpt lat="43.694" lon="12.6756717"><ele>179.60000000000002</ele><time>2026-04-04T13:07:35.691Z</time></trkpt><trkpt lat="43.6939267" lon="12.67559"><ele>181.0</ele><time>2026-04-04T13:07:36.687Z</time></trkpt><trkpt lat="43.6938617" lon="12.6755033"><ele>181.0</ele><time>2026-04-04T13:07:37.69Z</time></trkpt><trkpt lat="43.69379" lon="12.6754167"><ele>181.0</ele><time>2026-04-04T13:07:38.687Z</time></trkpt><trkpt lat="43.6937017" lon="12.6753533"><ele>181.0</ele><time>2026-04-04T13:07:39.687Z</time></trkpt><trkpt lat="43.6936033" lon="12.6753233"><ele>181.0</ele><time>2026-04-04T13:07:40.689Z</time></trkpt><trkpt lat="43.6935083" lon="12.6753017"><ele>181.0</ele><time>2026-04-04T13:07:41.689Z</time></trkpt><trkpt lat="43.6934033" lon="12.6752633"><ele>181.0</ele><time>2026-04-04T13:07:42.689Z</time></trkpt><trkpt lat="43.6933017" lon="12.6751967"><ele>181.0</ele><time>2026-04-04T13:07:43.689Z</time></trkpt><trkpt lat="43.6932067" lon="12.6751133"><ele>181.0</ele><time>2026-04-04T13:07:44.689Z</time></trkpt><trkpt lat="43.693115" lon="12.6750333"><ele>181.0</ele><time>2026-04-04T13:07:45.688Z</time></trkpt><trkpt lat="43.6930183" lon="12.6749717"><ele>181.0</ele><time>2026-04-04T13:07:46.69Z</time></trkpt><trkpt lat="43.6929167" lon="12.6749383"><ele>181.0</ele><time>2026-04-04T13:07:47.686Z</time></trkpt><trkpt lat="43.6928167" lon="12.6749167"><ele>181.0</ele><time>2026-04-04T13:07:48.689Z</time></trkpt><trkpt lat="43.6927167" lon="12.6749167"><ele>181.0</ele><time>2026-04-04T13:07:49.688Z</time></trkpt><trkpt lat="43.692615" lon="12.67495"><ele>181.0</ele><time>2026-04-04T13:07:50.688Z</time></trkpt><trkpt lat="43.6925083" lon="12.6750067"><ele>181.0</ele><time>2026-04-04T13:07:51.689Z</time></trkpt><trkpt lat="43.6924017" lon="12.6750733"><ele>182.0</ele><time>2026-04-04T13:07:52.687Z</time></trkpt><trkpt lat="43.6923033" lon="12.675135"><ele>183.0</ele><time>2026-04-04T13:07:53.692Z</time></trkpt><trkpt lat="43.6922117" lon="12.6751783"><ele>184.0</ele><time>2026-04-04T13:07:54.688Z</time></trkpt><trkpt lat="43.6921217" lon="12.675215"><ele>185.0</ele><time>2026-04-04T13:07:55.689Z</time></trkpt><trkpt lat="43.6920283" lon="12.6752483"><ele>186.0</ele><time>2026-04-04T13:07:56.689Z</time></trkpt><trkpt lat="43.6919317" lon="12.6752667"><ele>190.0</ele><time>2026-04-04T13:07:57.688Z</time></trkpt><trkpt lat="43.6918317" lon="12.6752733"><ele>194.0</ele><time>2026-04-04T13:07:58.689Z</time></trkpt><trkpt lat="43.6917333" lon="12.6752667"><ele>198.0</ele><time>2026-04-04T13:07:59.688Z</time></trkpt><trkpt lat="43.6916417" lon="12.6752417"><ele>202.0</ele><time>2026-04-04T13:08:00.689Z</time></trkpt><trkpt lat="43.691555" lon="12.6752"><ele>206.0</ele><time>2026-04-04T13:08:01.691Z</time></trkpt><trkpt lat="43.69146" lon="12.67515"><ele>206.0</ele><time>2026-04-04T13:08:02.689Z</time></trkpt><trkpt lat="43.6913617" lon="12.6750883"><ele>206.0</ele><time>2026-04-04T13:08:03.688Z</time></trkpt><trkpt lat="43.6912783" lon="12.6750033"><ele>206.0</ele><time>2026-04-04T13:08:04.688Z</time></trkpt><trkpt lat="43.69121" lon="12.6748817"><ele>206.0</ele><time>2026-04-04T13:08:05.686Z</time></trkpt><trkpt lat="43.691135" lon="12.6747483"><ele>206.0</ele><time>2026-04-04T13:08:06.688Z</time></trkpt><trkpt lat="43.6910617" lon="12.6746233"><ele>208.20000000000002</ele><time>2026-04-04T13:08:07.688Z</time></trkpt><trkpt lat="43.6909883" lon="12.67451"><ele>210.4</ele><time>2026-04-04T13:08:08.691Z</time></trkpt><trkpt lat="43.6909317" lon="12.6744083"><ele>212.6</ele><time>2026-04-04T13:08:09.688Z</time></trkpt><trkpt lat="43.6908867" lon="12.6743267"><ele>214.8</ele><time>2026-04-04T13:08:10.689Z</time></trkpt><trkpt lat="43.690845" lon="12.6741817"><ele>217.0</ele><time>2026-04-04T13:08:12.689Z</time></trkpt><trkpt lat="43.6908617" lon="12.6740367"><ele>217.0</ele><time>2026-04-04T13:08:14.69Z</time></trkpt><trkpt lat="43.6908783" lon="12.6738883"><ele>217.0</ele><time>2026-04-04T13:08:16.689Z</time></trkpt><trkpt lat="43.6908833" lon="12.6737283"><ele>217.0</ele><time>2026-04-04T13:08:18.687Z</time></trkpt><trkpt lat="43.6908933" lon="12.67355"><ele>217.0</ele><time>2026-04-04T13:08:20.687Z</time></trkpt><trkpt lat="43.6909033" lon="12.6734517"><ele>217.0</ele><time>2026-04-04T13:08:21.688Z</time></trkpt><trkpt lat="43.6909083" lon="12.67333"><ele>216.39999999999998</ele><time>2026-04-04T13:08:22.689Z</time></trkpt><trkpt lat="43.690905" lon="12.6732033"><ele>215.79999999999998</ele><time>2026-04-04T13:08:23.689Z</time></trkpt><trkpt lat="43.6909" lon="12.6730817"><ele>215.2</ele><time>2026-04-04T13:08:24.688Z</time></trkpt><trkpt lat="43.6909" lon="12.67296"><ele>214.6</ele><time>2026-04-04T13:08:25.688Z</time></trkpt><trkpt lat="43.6909067" lon="12.6728367"><ele>214.0</ele><time>2026-04-04T13:08:26.689Z</time></trkpt><trkpt lat="43.690915" lon="12.6727083"><ele>213.0</ele><time>2026-04-04T13:08:27.688Z</time></trkpt><trkpt lat="43.690925" lon="12.6725733"><ele>211.99999999999997</ele><time>2026-04-04T13:08:28.688Z</time></trkpt><trkpt lat="43.690935" lon="12.672435"><ele>211.0</ele><time>2026-04-04T13:08:29.689Z</time></trkpt><trkpt lat="43.6909383" lon="12.6722933"><ele>210.0</ele><time>2026-04-04T13:08:30.689Z</time></trkpt><trkpt lat="43.6909367" lon="12.672145"><ele>209.0</ele><time>2026-04-04T13:08:31.691Z</time></trkpt><trkpt lat="43.6909183" lon="12.67198"><ele>207.5</ele><time>2026-04-04T13:08:32.687Z</time></trkpt><trkpt lat="43.6908933" lon="12.6718017"><ele>206.0</ele><time>2026-04-04T13:08:33.689Z</time></trkpt><trkpt lat="43.69086" lon="12.6716283"><ele>204.5</ele><time>2026-04-04T13:08:34.688Z</time></trkpt><trkpt lat="43.6908217" lon="12.6714567"><ele>203.0</ele><time>2026-04-04T13:08:35.691Z</time></trkpt><trkpt lat="43.6907783" lon="12.6712967"><ele>203.0</ele><time>2026-04-04T13:08:36.688Z</time></trkpt><trkpt lat="43.69073" lon="12.671145"><ele>203.0</ele><time>2026-04-04T13:08:37.688Z</time></trkpt><trkpt lat="43.6906867" lon="12.67101"><ele>203.0</ele><time>2026-04-04T13:08:38.69Z</time></trkpt><trkpt lat="43.6906367" lon="12.6708883"><ele>203.0</ele><time>2026-04-04T13:08:39.688Z</time></trkpt><trkpt lat="43.690575" lon="12.6707783"><ele>203.0</ele><time>2026-04-04T13:08:40.689Z</time></trkpt><trkpt lat="43.6904983" lon="12.6706783"><ele>202.33333333333334</ele><time>2026-04-04T13:08:41.689Z</time></trkpt><trkpt lat="43.6904167" lon="12.6705883"><ele>201.66666666666669</ele><time>2026-04-04T13:08:42.689Z</time></trkpt><trkpt lat="43.69034" lon="12.6705117"><ele>201.0</ele><time>2026-04-04T13:08:43.689Z</time></trkpt><trkpt lat="43.6902683" lon="12.6704533"><ele>200.33333333333331</ele><time>2026-04-04T13:08:44.69Z</time></trkpt><trkpt lat="43.690195" lon="12.670415"><ele>199.66666666666666</ele><time>2026-04-04T13:08:45.687Z</time></trkpt><trkpt lat="43.6901117" lon="12.6703917"><ele>199.0</ele><time>2026-04-04T13:08:46.689Z</time></trkpt><trkpt lat="43.6900283" lon="12.670385"><ele>198.99999999999997</ele><time>2026-04-04T13:08:47.689Z</time></trkpt><trkpt lat="43.689935" lon="12.6703917"><ele>199.0</ele><time>2026-04-04T13:08:48.689Z</time></trkpt><trkpt lat="43.689845" lon="12.6704"><ele>199.0</ele><time>2026-04-04T13:08:49.69Z</time></trkpt><trkpt lat="43.6897733" lon="12.6704133"><ele>199.0</ele><time>2026-04-04T13:08:50.689Z</time></trkpt><trkpt lat="43.6897033" lon="12.6704033"><ele>198.99999999999997</ele><time>2026-04-04T13:08:51.688Z</time></trkpt><trkpt lat="43.6896167" lon="12.670345"><ele>199.0</ele><time>2026-04-04T13:08:53.691Z</time></trkpt><trkpt lat="43.689595" lon="12.6702317"><ele>198.25</ele><time>2026-04-04T13:08:55.691Z</time></trkpt><trkpt lat="43.6897067" lon="12.6700883"><ele>197.5</ele><time>2026-04-04T13:08:57.687Z</time></trkpt><trkpt lat="43.6897833" lon="12.6700117"><ele>196.75</ele><time>2026-04-04T13:08:58.692Z</time></trkpt><trkpt lat="43.6898667" lon="12.669915"><ele>196.0</ele><time>2026-04-04T13:08:59.691Z</time></trkpt><trkpt lat="43.6899483" lon="12.6698"><ele>196.0</ele><time>2026-04-04T13:09:00.688Z</time></trkpt><trkpt lat="43.69002" lon="12.669675"><ele>196.0</ele><time>2026-04-04T13:09:01.69Z</time></trkpt><trkpt lat="43.690085" lon="12.6695333"><ele>196.0</ele><time>2026-04-04T13:09:02.688Z</time></trkpt><trkpt lat="43.6901517" lon="12.6693733"><ele>196.0</ele><time>2026-04-04T13:09:03.688Z</time></trkpt><trkpt lat="43.6902117" lon="12.6692033"><ele>194.25</ele><time>2026-04-04T13:09:04.689Z</time></trkpt><trkpt lat="43.690275" lon="12.6690283"><ele>192.5</ele><time>2026-04-04T13:09:05.688Z</time></trkpt><trkpt lat="43.6903333" lon="12.6688533"><ele>190.75</ele><time>2026-04-04T13:09:06.69Z</time></trkpt><trkpt lat="43.6904083" lon="12.668675"><ele>189.0</ele><time>2026-04-04T13:09:07.689Z</time></trkpt><trkpt lat="43.69047" lon="12.6685133"><ele>187.0</ele><time>2026-04-04T13:09:08.687Z</time></trkpt><trkpt lat="43.6905233" lon="12.6683633"><ele>185.0</ele><time>2026-04-04T13:09:09.688Z</time></trkpt><trkpt lat="43.6905667" lon="12.6682183"><ele>183.0</ele><time>2026-04-04T13:09:10.689Z</time></trkpt><trkpt lat="43.69063" lon="12.6680867"><ele>181.0</ele><time>2026-04-04T13:09:11.689Z</time></trkpt><trkpt lat="43.6907083" lon="12.667975"><ele>181.0</ele><time>2026-04-04T13:09:12.689Z</time></trkpt><trkpt lat="43.690795" lon="12.66788"><ele>181.0</ele><time>2026-04-04T13:09:13.688Z</time></trkpt><trkpt lat="43.6908883" lon="12.6678"><ele>181.0</ele><time>2026-04-04T13:09:14.689Z</time></trkpt><trkpt lat="43.690975" lon="12.66772"><ele>181.0</ele><time>2026-04-04T13:09:15.69Z</time></trkpt><trkpt lat="43.6910417" lon="12.6676167"><ele>181.0</ele><time>2026-04-04T13:09:16.686Z</time></trkpt><trkpt lat="43.6910833" lon="12.667485"><ele>180.25</ele><time>2026-04-04T13:09:17.691Z</time></trkpt><trkpt lat="43.6910967" lon="12.667325"><ele>179.5</ele><time>2026-04-04T13:09:18.689Z</time></trkpt><trkpt lat="43.691085" lon="12.667145"><ele>178.75</ele><time>2026-04-04T13:09:19.69Z</time></trkpt><trkpt lat="43.6910617" lon="12.6669483"><ele>178.0</ele><time>2026-04-04T13:09:20.687Z</time></trkpt><trkpt lat="43.69103" lon="12.6667367"><ele>178.0</ele><time>2026-04-04T13:09:21.69Z</time></trkpt><trkpt lat="43.6909933" lon="12.666515"><ele>178.0</ele><time>2026-04-04T13:09:22.69Z</time></trkpt><trkpt lat="43.6909533" lon="12.6662883"><ele>178.0</ele><time>2026-04-04T13:09:23.686Z</time></trkpt><trkpt lat="43.69091" lon="12.6660583"><ele>177.33333333333334</ele><time>2026-04-04T13:09:24.689Z</time></trkpt><trkpt lat="43.69086" lon="12.66583"><ele>176.66666666666666</ele><time>2026-04-04T13:09:25.689Z</time></trkpt><trkpt lat="43.690805" lon="12.66561"><ele>176.0</ele><time>2026-04-04T13:09:26.686Z</time></trkpt><trkpt lat="43.6907517" lon="12.6654033"><ele>176.25</ele><time>2026-04-04T13:09:27.687Z</time></trkpt><trkpt lat="43.6907067" lon="12.6652133"><ele>176.5</ele><time>2026-04-04T13:09:28.689Z</time></trkpt><trkpt lat="43.6906667" lon="12.6650383"><ele>176.75</ele><time>2026-04-04T13:09:29.688Z</time></trkpt><trkpt lat="43.6906367" lon="12.6648767"><ele>177.0</ele><time>2026-04-04T13:09:30.688Z</time></trkpt><trkpt lat="43.6906217" lon="12.664715"><ele>177.0</ele><time>2026-04-04T13:09:31.69Z</time></trkpt><trkpt lat="43.690625" lon="12.6645417"><ele>177.0</ele><time>2026-04-04T13:09:32.687Z</time></trkpt><trkpt lat="43.690645" lon="12.6643517"><ele>177.0</ele><time>2026-04-04T13:09:33.688Z</time></trkpt><trkpt lat="43.690655" lon="12.664145"><ele>177.0</ele><time>2026-04-04T13:09:34.689Z</time></trkpt><trkpt lat="43.690655" lon="12.6639383"><ele>176.66666666666666</ele><time>2026-04-04T13:09:35.689Z</time></trkpt><trkpt lat="43.69064" lon="12.6637283"><ele>176.33333333333331</ele><time>2026-04-04T13:09:36.688Z</time></trkpt><trkpt lat="43.6906067" lon="12.6635067"><ele>176.0</ele><time>2026-04-04T13:09:37.69Z</time></trkpt><trkpt lat="43.69056" lon="12.6632833"><ele>175.33333333333331</ele><time>2026-04-04T13:09:38.687Z</time></trkpt><trkpt lat="43.6905067" lon="12.663065"><ele>174.66666666666666</ele><time>2026-04-04T13:09:39.688Z</time></trkpt><trkpt lat="43.6904567" lon="12.6628467"><ele>174.0</ele><time>2026-04-04T13:09:40.688Z</time></trkpt><trkpt lat="43.6904217" lon="12.6626367"><ele>173.5</ele><time>2026-04-04T13:09:41.687Z</time></trkpt><trkpt lat="43.6904083" lon="12.6624533"><ele>173.0</ele><time>2026-04-04T13:09:42.689Z</time></trkpt><trkpt lat="43.6903967" lon="12.66228"><ele>172.5</ele><time>2026-04-04T13:09:43.69Z</time></trkpt><trkpt lat="43.69037" lon="12.6621183"><ele>172.0</ele><time>2026-04-04T13:09:44.687Z</time></trkpt><trkpt lat="43.6903317" lon="12.6619733"><ele>172.5</ele><time>2026-04-04T13:09:45.689Z</time></trkpt><trkpt lat="43.6902733" lon="12.6618417"><ele>173.0</ele><time>2026-04-04T13:09:46.689Z</time></trkpt><trkpt lat="43.69019" lon="12.6617183"><ele>173.5</ele><time>2026-04-04T13:09:47.687Z</time></trkpt><trkpt lat="43.6900867" lon="12.6616083"><ele>174.0</ele><time>2026-04-04T13:09:48.691Z</time></trkpt><trkpt lat="43.6899683" lon="12.661505"><ele>177.25</ele><time>2026-04-04T13:09:49.689Z</time></trkpt><trkpt lat="43.6898533" lon="12.66141"><ele>180.5</ele><time>2026-04-04T13:09:50.688Z</time></trkpt><trkpt lat="43.6897383" lon="12.6613183"><ele>183.75</ele><time>2026-04-04T13:09:51.687Z</time></trkpt><trkpt lat="43.6896233" lon="12.6612483"><ele>187.0</ele><time>2026-04-04T13:09:52.688Z</time></trkpt><trkpt lat="43.6895083" lon="12.6612017"><ele>188.25</ele><time>2026-04-04T13:09:53.691Z</time></trkpt><trkpt lat="43.6893917" lon="12.661185"><ele>189.5</ele><time>2026-04-04T13:09:54.689Z</time></trkpt><trkpt lat="43.6892733" lon="12.6611767"><ele>190.75</ele><time>2026-04-04T13:09:55.691Z</time></trkpt><trkpt lat="43.6891517" lon="12.6611517"><ele>192.0</ele><time>2026-04-04T13:09:56.689Z</time></trkpt><trkpt lat="43.6890233" lon="12.6611017"><ele>192.0</ele><time>2026-04-04T13:09:57.688Z</time></trkpt><trkpt lat="43.6888917" lon="12.6610433"><ele>192.0</ele><time>2026-04-04T13:09:58.689Z</time></trkpt><trkpt lat="43.68875" lon="12.66099"><ele>192.0</ele><time>2026-04-04T13:09:59.686Z</time></trkpt><trkpt lat="43.6886" lon="12.6609417"><ele>192.0</ele><time>2026-04-04T13:10:00.69Z</time></trkpt><trkpt lat="43.68844" lon="12.6609067"><ele>194.0</ele><time>2026-04-04T13:10:01.69Z</time></trkpt><trkpt lat="43.6882783" lon="12.6608733"><ele>196.0</ele><time>2026-04-04T13:10:02.687Z</time></trkpt><trkpt lat="43.688115" lon="12.66083"><ele>198.0</ele><time>2026-04-04T13:10:03.686Z</time></trkpt><trkpt lat="43.6879583" lon="12.6607733"><ele>198.0</ele><time>2026-04-04T13:10:04.689Z</time></trkpt><trkpt lat="43.6878217" lon="12.6607083"><ele>198.0</ele><time>2026-04-04T13:10:05.688Z</time></trkpt><trkpt lat="43.6877033" lon="12.66065"><ele>198.0</ele><time>2026-04-04T13:10:06.688Z</time></trkpt><trkpt lat="43.6876" lon="12.6606083"><ele>198.0</ele><time>2026-04-04T13:10:07.689Z</time></trkpt><trkpt lat="43.6875133" lon="12.6605967"><ele>200.2</ele><time>2026-04-04T13:10:08.687Z</time></trkpt><trkpt lat="43.6874267" lon="12.6606067"><ele>202.4</ele><time>2026-04-04T13:10:09.688Z</time></trkpt><trkpt lat="43.68734" lon="12.6606317"><ele>204.6</ele><time>2026-04-04T13:10:10.689Z</time></trkpt><trkpt lat="43.6872533" lon="12.6606817"><ele>206.79999999999998</ele><time>2026-04-04T13:10:11.689Z</time></trkpt><trkpt lat="43.6871667" lon="12.660715"><ele>209.0</ele><time>2026-04-04T13:10:12.688Z</time></trkpt><trkpt lat="43.6870767" lon="12.6607267"><ele>209.0</ele><time>2026-04-04T13:10:13.691Z</time></trkpt><trkpt lat="43.6869983" lon="12.6606933"><ele>209.0</ele><time>2026-04-04T13:10:14.689Z</time></trkpt><trkpt lat="43.68692" lon="12.6606433"><ele>209.0</ele><time>2026-04-04T13:10:15.689Z</time></trkpt><trkpt lat="43.6868683" lon="12.66052"><ele>209.0</ele><time>2026-04-04T13:10:16.688Z</time></trkpt><trkpt lat="43.6868" lon="12.6603733"><ele>209.0</ele><time>2026-04-04T13:10:17.688Z</time></trkpt><trkpt lat="43.6867283" lon="12.66024"><ele>210.79999999999998</ele><time>2026-04-04T13:10:18.688Z</time></trkpt><trkpt lat="43.6866483" lon="12.6601233"><ele>212.6</ele><time>2026-04-04T13:10:19.692Z</time></trkpt><trkpt lat="43.686575" lon="12.6600167"><ele>214.4</ele><time>2026-04-04T13:10:20.689Z</time></trkpt><trkpt lat="43.6865117" lon="12.659925"><ele>216.2</ele><time>2026-04-04T13:10:21.688Z</time></trkpt><trkpt lat="43.6864533" lon="12.6598367"><ele>218.0</ele><time>2026-04-04T13:10:22.689Z</time></trkpt><trkpt lat="43.6863867" lon="12.6597617"><ele>218.0</ele><time>2026-04-04T13:10:23.688Z</time></trkpt><trkpt lat="43.68632" lon="12.659715"><ele>218.0</ele><time>2026-04-04T13:10:24.689Z</time></trkpt><trkpt lat="43.6862533" lon="12.659695"><ele>218.0</ele><time>2026-04-04T13:10:25.691Z</time></trkpt><trkpt lat="43.68619" lon="12.6597333"><ele>218.0</ele><time>2026-04-04T13:10:26.689Z</time></trkpt><trkpt lat="43.686135" lon="12.6598067"><ele>218.0</ele><time>2026-04-04T13:10:27.688Z</time></trkpt><trkpt lat="43.686105" lon="12.6598983"><ele>218.0</ele><time>2026-04-04T13:10:28.689Z</time></trkpt><trkpt lat="43.68609" lon="12.65999"><ele>218.0</ele><time>2026-04-04T13:10:29.689Z</time></trkpt><trkpt lat="43.6860633" lon="12.66007"><ele>220.0</ele><time>2026-04-04T13:10:30.689Z</time></trkpt><trkpt lat="43.68599" lon="12.6601317"><ele>222.0</ele><time>2026-04-04T13:10:32.689Z</time></trkpt><trkpt lat="43.6859233" lon="12.659995"><ele>224.0</ele><time>2026-04-04T13:10:34.689Z</time></trkpt><trkpt lat="43.68588" lon="12.65988"><ele>226.0</ele><time>2026-04-04T13:10:35.691Z</time></trkpt><trkpt lat="43.6858083" lon="12.659755"><ele>228.0</ele><time>2026-04-04T13:10:36.687Z</time></trkpt><trkpt lat="43.6857183" lon="12.6596517"><ele>228.0</ele><time>2026-04-04T13:10:37.689Z</time></trkpt><trkpt lat="43.6856017" lon="12.6595583"><ele>228.0</ele><time>2026-04-04T13:10:38.688Z</time></trkpt><trkpt lat="43.6854667" lon="12.6594817"><ele>228.0</ele><time>2026-04-04T13:10:39.687Z</time></trkpt><trkpt lat="43.6853217" lon="12.6594117"><ele>228.0</ele><time>2026-04-04T13:10:40.69Z</time></trkpt><trkpt lat="43.68517" lon="12.6593383"><ele>230.66666666666669</ele><time>2026-04-04T13:10:41.689Z</time></trkpt><trkpt lat="43.68501" lon="12.659265"><ele>233.33333333333334</ele><time>2026-04-04T13:10:42.689Z</time></trkpt><trkpt lat="43.684865" lon="12.6591883"><ele>236.0</ele><time>2026-04-04T13:10:43.69Z</time></trkpt><trkpt lat="43.6847367" lon="12.6591067"><ele>236.0</ele><time>2026-04-04T13:10:44.688Z</time></trkpt><trkpt lat="43.68462" lon="12.6590133"><ele>236.0</ele><time>2026-04-04T13:10:45.687Z</time></trkpt><trkpt lat="43.6845133" lon="12.65892"><ele>236.0</ele><time>2026-04-04T13:10:46.688Z</time></trkpt><trkpt lat="43.68442" lon="12.6588317"><ele>236.0</ele><time>2026-04-04T13:10:47.688Z</time></trkpt><trkpt lat="43.68434" lon="12.6587533"><ele>236.60000000000002</ele><time>2026-04-04T13:10:48.687Z</time></trkpt><trkpt lat="43.6842667" lon="12.6586767"><ele>237.20000000000002</ele><time>2026-04-04T13:10:49.689Z</time></trkpt><trkpt lat="43.6841967" lon="12.6585883"><ele>237.79999999999998</ele><time>2026-04-04T13:10:50.688Z</time></trkpt><trkpt lat="43.6841433" lon="12.6584817"><ele>238.39999999999998</ele><time>2026-04-04T13:10:51.688Z</time></trkpt><trkpt lat="43.6841033" lon="12.6583633"><ele>239.0</ele><time>2026-04-04T13:10:52.688Z</time></trkpt><trkpt lat="43.6840817" lon="12.65824"><ele>239.00000000000003</ele><time>2026-04-04T13:10:53.69Z</time></trkpt><trkpt lat="43.6840667" lon="12.6581167"><ele>239.0</ele><time>2026-04-04T13:10:54.687Z</time></trkpt><trkpt lat="43.6840533" lon="12.657995"><ele>239.0</ele><time>2026-04-04T13:10:55.689Z</time></trkpt><trkpt lat="43.6840433" lon="12.6578767"><ele>239.0</ele><time>2026-04-04T13:10:56.689Z</time></trkpt><trkpt lat="43.684035" lon="12.657765"><ele>239.00000000000003</ele><time>2026-04-04T13:10:57.686Z</time></trkpt><trkpt lat="43.6840133" lon="12.657655"><ele>239.0</ele><time>2026-04-04T13:10:58.689Z</time></trkpt><trkpt lat="43.6839767" lon="12.6575467"><ele>238.79999999999998</ele><time>2026-04-04T13:10:59.687Z</time></trkpt><trkpt lat="43.683925" lon="12.65744"><ele>238.59999999999997</ele><time>2026-04-04T13:11:00.688Z</time></trkpt><trkpt lat="43.6838683" lon="12.6573383"><ele>238.4</ele><time>2026-04-04T13:11:01.687Z</time></trkpt><trkpt lat="43.6838083" lon="12.6572417"><ele>238.2</ele><time>2026-04-04T13:11:02.687Z</time></trkpt><trkpt lat="43.6837367" lon="12.657145"><ele>238.0</ele><time>2026-04-04T13:11:03.688Z</time></trkpt><trkpt lat="43.683645" lon="12.6570617"><ele>237.0</ele><time>2026-04-04T13:11:04.689Z</time></trkpt><trkpt lat="43.6835367" lon="12.656995"><ele>236.0</ele><time>2026-04-04T13:11:05.687Z</time></trkpt><trkpt lat="43.6834283" lon="12.6569467"><ele>235.0</ele><time>2026-04-04T13:11:06.688Z</time></trkpt><trkpt lat="43.6833233" lon="12.6569133"><ele>234.0</ele><time>2026-04-04T13:11:07.69Z</time></trkpt><trkpt lat="43.683225" lon="12.6568867"><ele>233.0</ele><time>2026-04-04T13:11:08.686Z</time></trkpt><trkpt lat="43.6831533" lon="12.6568517"><ele>232.4</ele><time>2026-04-04T13:11:09.686Z</time></trkpt><trkpt lat="43.68307" lon="12.6567367"><ele>231.8</ele><time>2026-04-04T13:11:11.686Z</time></trkpt><trkpt lat="43.68305" lon="12.6566233"><ele>231.2</ele><time>2026-04-04T13:11:12.688Z</time></trkpt><trkpt lat="43.6830383" lon="12.6564817"><ele>230.6</ele><time>2026-04-04T13:11:13.69Z</time></trkpt><trkpt lat="43.6830033" lon="12.6563517"><ele>230.0</ele><time>2026-04-04T13:11:14.688Z</time></trkpt><trkpt lat="43.6829417" lon="12.6562333"><ele>229.75</ele><time>2026-04-04T13:11:15.687Z</time></trkpt><trkpt lat="43.6828483" lon="12.656115"><ele>229.5</ele><time>2026-04-04T13:11:16.686Z</time></trkpt><trkpt lat="43.6827383" lon="12.6559933"><ele>229.25</ele><time>2026-04-04T13:11:17.688Z</time></trkpt><trkpt lat="43.6826367" lon="12.65586"><ele>229.0</ele><time>2026-04-04T13:11:18.688Z</time></trkpt><trkpt lat="43.6825317" lon="12.65573"><ele>229.5</ele><time>2026-04-04T13:11:19.688Z</time></trkpt><trkpt lat="43.6824233" lon="12.6556"><ele>230.0</ele><time>2026-04-04T13:11:20.688Z</time></trkpt><trkpt lat="43.682315" lon="12.655465"><ele>230.5</ele><time>2026-04-04T13:11:21.689Z</time></trkpt><trkpt lat="43.6822067" lon="12.65533"><ele>231.0</ele><time>2026-04-04T13:11:22.687Z</time></trkpt><trkpt lat="43.6821033" lon="12.6551883"><ele>231.0</ele><time>2026-04-04T13:11:23.687Z</time></trkpt><trkpt lat="43.6820033" lon="12.65506"><ele>231.0</ele><time>2026-04-04T13:11:24.688Z</time></trkpt><trkpt lat="43.6819167" lon="12.654945"><ele>231.0</ele><time>2026-04-04T13:11:25.689Z</time></trkpt><trkpt lat="43.681855" lon="12.654825"><ele>231.0</ele><time>2026-04-04T13:11:26.688Z</time></trkpt><trkpt lat="43.68181" lon="12.6546933"><ele>232.83333333333334</ele><time>2026-04-04T13:11:27.689Z</time></trkpt><trkpt lat="43.6817783" lon="12.654555"><ele>234.66666666666669</ele><time>2026-04-04T13:11:28.687Z</time></trkpt><trkpt lat="43.6817583" lon="12.654435"><ele>236.5</ele><time>2026-04-04T13:11:29.686Z</time></trkpt><trkpt lat="43.6817367" lon="12.6543383"><ele>238.33333333333334</ele><time>2026-04-04T13:11:30.687Z</time></trkpt><trkpt lat="43.6816683" lon="12.6542367"><ele>240.16666666666669</ele><time>2026-04-04T13:11:32.688Z</time></trkpt><trkpt lat="43.6815967" lon="12.654245"><ele>242.0</ele><time>2026-04-04T13:11:33.689Z</time></trkpt><trkpt lat="43.6815167" lon="12.6542683"><ele>243.2</ele><time>2026-04-04T13:11:34.687Z</time></trkpt><trkpt lat="43.6814267" lon="12.6542967"><ele>244.39999999999998</ele><time>2026-04-04T13:11:35.688Z</time></trkpt><trkpt lat="43.6813183" lon="12.65432"><ele>245.60000000000002</ele><time>2026-04-04T13:11:36.686Z</time></trkpt><trkpt lat="43.681205" lon="12.654315"><ele>246.8</ele><time>2026-04-04T13:11:37.688Z</time></trkpt><trkpt lat="43.6811" lon="12.654305"><ele>248.0</ele><time>2026-04-04T13:11:38.687Z</time></trkpt><trkpt lat="43.6809867" lon="12.6543067"><ele>244.75</ele><time>2026-04-04T13:11:39.686Z</time></trkpt><trkpt lat="43.6808733" lon="12.6543233"><ele>241.5</ele><time>2026-04-04T13:11:40.688Z</time></trkpt><trkpt lat="43.6807617" lon="12.6543533"><ele>238.25</ele><time>2026-04-04T13:11:41.689Z</time></trkpt><trkpt lat="43.6806383" lon="12.6543883"><ele>235.0</ele><time>2026-04-04T13:11:42.689Z</time></trkpt><trkpt lat="43.6805133" lon="12.6544283"><ele>235.6</ele><time>2026-04-04T13:11:43.69Z</time></trkpt><trkpt lat="43.6803983" lon="12.65447"><ele>236.2</ele><time>2026-04-04T13:11:44.688Z</time></trkpt><trkpt lat="43.6802883" lon="12.6545083"><ele>236.8</ele><time>2026-04-04T13:11:45.688Z</time></trkpt><trkpt lat="43.6801833" lon="12.6545417"><ele>237.4</ele><time>2026-04-04T13:11:46.688Z</time></trkpt><trkpt lat="43.680085" lon="12.654575"><ele>238.0</ele><time>2026-04-04T13:11:47.691Z</time></trkpt><trkpt lat="43.67999" lon="12.6546083"><ele>238.0</ele><time>2026-04-04T13:11:48.688Z</time></trkpt><trkpt lat="43.6798967" lon="12.6546383"><ele>238.0</ele><time>2026-04-04T13:11:49.69Z</time></trkpt><trkpt lat="43.6798117" lon="12.6546667"><ele>238.0</ele><time>2026-04-04T13:11:50.694Z</time></trkpt><trkpt lat="43.6797433" lon="12.6546917"><ele>238.0</ele><time>2026-04-04T13:11:51.688Z</time></trkpt><trkpt lat="43.67963" lon="12.6547133"><ele>238.0</ele><time>2026-04-04T13:11:53.689Z</time></trkpt><trkpt lat="43.679525" lon="12.65465"><ele>238.0</ele><time>2026-04-04T13:11:55.689Z</time></trkpt><trkpt lat="43.6794783" lon="12.6545833"><ele>238.0</ele><time>2026-04-04T13:11:56.687Z</time></trkpt><trkpt lat="43.6794383" lon="12.654495"><ele>238.0</ele><time>2026-04-04T13:11:57.687Z</time></trkpt><trkpt lat="43.6794267" lon="12.654385"><ele>238.0</ele><time>2026-04-04T13:11:58.686Z</time></trkpt><trkpt lat="43.6794533" lon="12.65426"><ele>238.0</ele><time>2026-04-04T13:11:59.687Z</time></trkpt><trkpt lat="43.6795283" lon="12.6541067"><ele>235.75</ele><time>2026-04-04T13:12:00.689Z</time></trkpt><trkpt lat="43.679605" lon="12.6539433"><ele>233.5</ele><time>2026-04-04T13:12:01.687Z</time></trkpt><trkpt lat="43.6796767" lon="12.6537683"><ele>231.25</ele><time>2026-04-04T13:12:02.688Z</time></trkpt><trkpt lat="43.6797533" lon="12.6535933"><ele>229.0</ele><time>2026-04-04T13:12:03.687Z</time></trkpt><trkpt lat="43.67983" lon="12.6534167"><ele>227.5</ele><time>2026-04-04T13:12:04.69Z</time></trkpt><trkpt lat="43.6799017" lon="12.6532467"><ele>226.0</ele><time>2026-04-04T13:12:05.688Z</time></trkpt><trkpt lat="43.6799617" lon="12.6530833"><ele>224.5</ele><time>2026-04-04T13:12:06.688Z</time></trkpt><trkpt lat="43.68001" lon="12.6529267"><ele>223.0</ele><time>2026-04-04T13:12:07.691Z</time></trkpt><trkpt lat="43.68005" lon="12.65277"><ele>222.5</ele><time>2026-04-04T13:12:08.688Z</time></trkpt><trkpt lat="43.6800817" lon="12.6525967"><ele>222.0</ele><time>2026-04-04T13:12:09.687Z</time></trkpt><trkpt lat="43.6801017" lon="12.652415"><ele>221.5</ele><time>2026-04-04T13:12:10.687Z</time></trkpt><trkpt lat="43.6801133" lon="12.6522417"><ele>221.0</ele><time>2026-04-04T13:12:11.688Z</time></trkpt><trkpt lat="43.6801217" lon="12.65206"><ele>220.0</ele><time>2026-04-04T13:12:12.689Z</time></trkpt><trkpt lat="43.6801267" lon="12.6518717"><ele>219.0</ele><time>2026-04-04T13:12:13.691Z</time></trkpt><trkpt lat="43.6801283" lon="12.6516767"><ele>218.0</ele><time>2026-04-04T13:12:14.688Z</time></trkpt><trkpt lat="43.6801333" lon="12.6514783"><ele>217.0</ele><time>2026-04-04T13:12:15.688Z</time></trkpt><trkpt lat="43.6801517" lon="12.6512967"><ele>217.0</ele><time>2026-04-04T13:12:16.687Z</time></trkpt><trkpt lat="43.6801733" lon="12.65113"><ele>217.0</ele><time>2026-04-04T13:12:17.688Z</time></trkpt><trkpt lat="43.680195" lon="12.6509767"><ele>217.0</ele><time>2026-04-04T13:12:18.691Z</time></trkpt><trkpt lat="43.6802117" lon="12.6508317"><ele>217.0</ele><time>2026-04-04T13:12:19.691Z</time></trkpt><trkpt lat="43.6802217" lon="12.6506933"><ele>217.0</ele><time>2026-04-04T13:12:20.689Z</time></trkpt><trkpt lat="43.68021" lon="12.6505517"><ele>215.75</ele><time>2026-04-04T13:12:21.688Z</time></trkpt><trkpt lat="43.6801817" lon="12.6504"><ele>214.5</ele><time>2026-04-04T13:12:22.687Z</time></trkpt><trkpt lat="43.6801417" lon="12.65024"><ele>213.25</ele><time>2026-04-04T13:12:23.689Z</time></trkpt><trkpt lat="43.680095" lon="12.650075"><ele>212.0</ele><time>2026-04-04T13:12:24.688Z</time></trkpt><trkpt lat="43.6800433" lon="12.6499067"><ele>211.25</ele><time>2026-04-04T13:12:25.693Z</time></trkpt><trkpt lat="43.6799933" lon="12.6497367"><ele>210.5</ele><time>2026-04-04T13:12:26.688Z</time></trkpt><trkpt lat="43.6799367" lon="12.649565"><ele>209.75</ele><time>2026-04-04T13:12:27.689Z</time></trkpt><trkpt lat="43.6798833" lon="12.6494"><ele>209.0</ele><time>2026-04-04T13:12:28.687Z</time></trkpt><trkpt lat="43.679825" lon="12.649235"><ele>207.75</ele><time>2026-04-04T13:12:29.691Z</time></trkpt><trkpt lat="43.6797683" lon="12.6490783"><ele>206.5</ele><time>2026-04-04T13:12:30.686Z</time></trkpt><trkpt lat="43.67971" lon="12.64893"><ele>205.25</ele><time>2026-04-04T13:12:31.691Z</time></trkpt><trkpt lat="43.6796567" lon="12.648785"><ele>204.0</ele><time>2026-04-04T13:12:32.687Z</time></trkpt><trkpt lat="43.6796" lon="12.6486417"><ele>204.75</ele><time>2026-04-04T13:12:33.688Z</time></trkpt><trkpt lat="43.6795317" lon="12.6485033"><ele>205.5</ele><time>2026-04-04T13:12:34.687Z</time></trkpt><trkpt lat="43.679455" lon="12.648365"><ele>206.25</ele><time>2026-04-04T13:12:35.688Z</time></trkpt><trkpt lat="43.67937" lon="12.6482283"><ele>207.0</ele><time>2026-04-04T13:12:36.686Z</time></trkpt><trkpt lat="43.67928" lon="12.648095"><ele>207.0</ele><time>2026-04-04T13:12:37.687Z</time></trkpt><trkpt lat="43.6791883" lon="12.647975"><ele>207.0</ele><time>2026-04-04T13:12:38.687Z</time></trkpt><trkpt lat="43.679095" lon="12.647865"><ele>207.0</ele><time>2026-04-04T13:12:39.687Z</time></trkpt><trkpt lat="43.6789983" lon="12.647765"><ele>207.0</ele><time>2026-04-04T13:12:40.687Z</time></trkpt><trkpt lat="43.6788967" lon="12.6476883"><ele>206.0</ele><time>2026-04-04T13:12:41.69Z</time></trkpt><trkpt lat="43.678795" lon="12.6476233"><ele>205.0</ele><time>2026-04-04T13:12:42.687Z</time></trkpt><trkpt lat="43.6786967" lon="12.6475717"><ele>204.0</ele><time>2026-04-04T13:12:43.688Z</time></trkpt><trkpt lat="43.6786" lon="12.6475283"><ele>203.0</ele><time>2026-04-04T13:12:44.688Z</time></trkpt><trkpt lat="43.6785017" lon="12.6474967"><ele>202.0</ele><time>2026-04-04T13:12:45.689Z</time></trkpt><trkpt lat="43.678395" lon="12.647485"><ele>202.0</ele><time>2026-04-04T13:12:46.688Z</time></trkpt><trkpt lat="43.67828" lon="12.647495"><ele>202.0</ele><time>2026-04-04T13:12:47.689Z</time></trkpt><trkpt lat="43.678165" lon="12.64753"><ele>202.0</ele><time>2026-04-04T13:12:48.689Z</time></trkpt><trkpt lat="43.67805" lon="12.64758"><ele>202.0</ele><time>2026-04-04T13:12:49.691Z</time></trkpt><trkpt lat="43.67794" lon="12.6476383"><ele>202.0</ele><time>2026-04-04T13:12:50.689Z</time></trkpt><trkpt lat="43.6778267" lon="12.6477"><ele>202.0</ele><time>2026-04-04T13:12:51.689Z</time></trkpt><trkpt lat="43.6777133" lon="12.6477667"><ele>202.0</ele><time>2026-04-04T13:12:52.69Z</time></trkpt><trkpt lat="43.677605" lon="12.647835"><ele>202.0</ele><time>2026-04-04T13:12:53.687Z</time></trkpt><trkpt lat="43.6774967" lon="12.647905"><ele>204.0</ele><time>2026-04-04T13:12:54.688Z</time></trkpt><trkpt lat="43.6773883" lon="12.6479783"><ele>206.0</ele><time>2026-04-04T13:12:55.691Z</time></trkpt><trkpt lat="43.677285" lon="12.6480467"><ele>208.0</ele><time>2026-04-04T13:12:56.688Z</time></trkpt><trkpt lat="43.677185" lon="12.6481133"><ele>210.0</ele><time>2026-04-04T13:12:57.686Z</time></trkpt><trkpt lat="43.6770817" lon="12.64818"><ele>210.0</ele><time>2026-04-04T13:12:58.688Z</time></trkpt><trkpt lat="43.67698" lon="12.6482483"><ele>210.0</ele><time>2026-04-04T13:12:59.687Z</time></trkpt><trkpt lat="43.6768783" lon="12.64831"><ele>210.0</ele><time>2026-04-04T13:13:00.688Z</time></trkpt><trkpt lat="43.6767783" lon="12.6483583"><ele>210.0</ele><time>2026-04-04T13:13:01.687Z</time></trkpt><trkpt lat="43.6766767" lon="12.6483967"><ele>210.0</ele><time>2026-04-04T13:13:02.688Z</time></trkpt><trkpt lat="43.676575" lon="12.6484417"><ele>207.4</ele><time>2026-04-04T13:13:03.686Z</time></trkpt><trkpt lat="43.6764783" lon="12.64848"><ele>204.8</ele><time>2026-04-04T13:13:04.688Z</time></trkpt><trkpt lat="43.6763817" lon="12.6485133"><ele>202.2</ele><time>2026-04-04T13:13:05.689Z</time></trkpt><trkpt lat="43.6762817" lon="12.64854"><ele>199.6</ele><time>2026-04-04T13:13:06.69Z</time></trkpt><trkpt lat="43.6761867" lon="12.6485483"><ele>197.0</ele><time>2026-04-04T13:13:07.688Z</time></trkpt><trkpt lat="43.6760933" lon="12.6485417"><ele>196.8</ele><time>2026-04-04T13:13:08.686Z</time></trkpt><trkpt lat="43.6760067" lon="12.648525"><ele>196.6</ele><time>2026-04-04T13:13:09.686Z</time></trkpt><trkpt lat="43.6759217" lon="12.648505"><ele>196.4</ele><time>2026-04-04T13:13:10.687Z</time></trkpt><trkpt lat="43.675835" lon="12.6484717"><ele>196.20000000000002</ele><time>2026-04-04T13:13:11.687Z</time></trkpt><trkpt lat="43.6757333" lon="12.6484383"><ele>196.0</ele><time>2026-04-04T13:13:12.688Z</time></trkpt><trkpt lat="43.675635" lon="12.648405"><ele>195.99999999999997</ele><time>2026-04-04T13:13:13.691Z</time></trkpt><trkpt lat="43.67554" lon="12.648375"><ele>196.0</ele><time>2026-04-04T13:13:14.688Z</time></trkpt><trkpt lat="43.675445" lon="12.6483467"><ele>196.0</ele><time>2026-04-04T13:13:15.685Z</time></trkpt><trkpt lat="43.6753533" lon="12.6483317"><ele>196.0</ele><time>2026-04-04T13:13:16.688Z</time></trkpt><trkpt lat="43.675275" lon="12.64833"><ele>195.99999999999997</ele><time>2026-04-04T13:13:17.688Z</time></trkpt><trkpt lat="43.6752083" lon="12.6483383"><ele>196.0</ele><time>2026-04-04T13:13:18.69Z</time></trkpt><trkpt lat="43.6751183" lon="12.6483467"><ele>197.4</ele><time>2026-04-04T13:13:20.688Z</time></trkpt><trkpt lat="43.6750517" lon="12.648275"><ele>198.8</ele><time>2026-04-04T13:13:23.689Z</time></trkpt><trkpt lat="43.6750383" lon="12.6481833"><ele>200.20000000000002</ele><time>2026-04-04T13:13:26.687Z</time></trkpt><trkpt lat="43.6749833" lon="12.6481117"><ele>201.60000000000002</ele><time>2026-04-04T13:13:28.688Z</time></trkpt><trkpt lat="43.6748533" lon="12.6480483"><ele>203.0</ele><time>2026-04-04T13:13:30.688Z</time></trkpt><trkpt lat="43.6747567" lon="12.64802"><ele>203.0</ele><time>2026-04-04T13:13:31.689Z</time></trkpt><trkpt lat="43.674645" lon="12.648"><ele>203.0</ele><time>2026-04-04T13:13:32.689Z</time></trkpt><trkpt lat="43.67453" lon="12.64798"><ele>203.0</ele><time>2026-04-04T13:13:33.689Z</time></trkpt><trkpt lat="43.674415" lon="12.6479583"><ele>203.0</ele><time>2026-04-04T13:13:34.691Z</time></trkpt><trkpt lat="43.6742983" lon="12.6479367"><ele>204.25</ele><time>2026-04-04T13:13:35.688Z</time></trkpt><trkpt lat="43.67418" lon="12.6479133"><ele>205.5</ele><time>2026-04-04T13:13:36.689Z</time></trkpt><trkpt lat="43.674055" lon="12.64789"><ele>206.75</ele><time>2026-04-04T13:13:37.69Z</time></trkpt><trkpt lat="43.673925" lon="12.647865"><ele>208.0</ele><time>2026-04-04T13:13:38.688Z</time></trkpt><trkpt lat="43.6737933" lon="12.6478383"><ele>208.0</ele><time>2026-04-04T13:13:39.689Z</time></trkpt><trkpt lat="43.6736683" lon="12.6478133"><ele>208.0</ele><time>2026-04-04T13:13:40.688Z</time></trkpt><trkpt lat="43.6735517" lon="12.647795"><ele>208.0</ele><time>2026-04-04T13:13:41.689Z</time></trkpt><trkpt lat="43.6734483" lon="12.6477783"><ele>208.0</ele><time>2026-04-04T13:13:42.689Z</time></trkpt><trkpt lat="43.6733667" lon="12.6477683"><ele>208.0</ele><time>2026-04-04T13:13:43.69Z</time></trkpt><trkpt lat="43.67326" lon="12.6477417"><ele>207.2</ele><time>2026-04-04T13:13:45.688Z</time></trkpt><trkpt lat="43.6731333" lon="12.6477033"><ele>206.4</ele><time>2026-04-04T13:13:47.689Z</time></trkpt><trkpt lat="43.6730617" lon="12.6477017"><ele>205.6</ele><time>2026-04-04T13:13:48.689Z</time></trkpt><trkpt lat="43.672985" lon="12.6477333"><ele>204.79999999999998</ele><time>2026-04-04T13:13:49.69Z</time></trkpt><trkpt lat="43.672915" lon="12.6477883"><ele>204.0</ele><time>2026-04-04T13:13:50.689Z</time></trkpt><trkpt lat="43.6728383" lon="12.64786"><ele>206.6</ele><time>2026-04-04T13:13:51.688Z</time></trkpt><trkpt lat="43.6727533" lon="12.6479283"><ele>209.2</ele><time>2026-04-04T13:13:52.689Z</time></trkpt><trkpt lat="43.6726667" lon="12.6479883"><ele>211.79999999999998</ele><time>2026-04-04T13:13:53.689Z</time></trkpt><trkpt lat="43.67258" lon="12.6480367"><ele>214.39999999999998</ele><time>2026-04-04T13:13:54.688Z</time></trkpt><trkpt lat="43.6724983" lon="12.648075"><ele>217.0</ele><time>2026-04-04T13:13:55.691Z</time></trkpt><trkpt lat="43.6724167" lon="12.6481067"><ele>216.99999999999997</ele><time>2026-04-04T13:13:56.69Z</time></trkpt><trkpt lat="43.672335" lon="12.64814"><ele>217.0</ele><time>2026-04-04T13:13:57.689Z</time></trkpt><trkpt lat="43.67226" lon="12.6481683"><ele>217.0</ele><time>2026-04-04T13:13:58.687Z</time></trkpt><trkpt lat="43.6721933" lon="12.6481883"><ele>217.0</ele><time>2026-04-04T13:13:59.689Z</time></trkpt><trkpt lat="43.67209" lon="12.6481983"><ele>216.99999999999997</ele><time>2026-04-04T13:14:01.689Z</time></trkpt><trkpt lat="43.67203" lon="12.648225"><ele>217.0</ele><time>2026-04-04T13:14:03.692Z</time></trkpt><trkpt lat="43.6721067" lon="12.6482683"><ele>216.99999999999997</ele><time>2026-04-04T13:14:10.688Z</time></trkpt><trkpt lat="43.672225" lon="12.6482233"><ele>217.0</ele><time>2026-04-04T13:14:12.688Z</time></trkpt><trkpt lat="43.672305" lon="12.64819"><ele>217.0</ele><time>2026-04-04T13:14:13.69Z</time></trkpt><trkpt lat="43.67238" lon="12.6481533"><ele>217.0</ele><time>2026-04-04T13:14:14.689Z</time></trkpt><trkpt lat="43.6724517" lon="12.6481217"><ele>216.99999999999997</ele><time>2026-04-04T13:14:15.688Z</time></trkpt><trkpt lat="43.6725167" lon="12.6480917"><ele>217.0</ele><time>2026-04-04T13:14:16.688Z</time></trkpt><trkpt lat="43.6725833" lon="12.6480633"><ele>216.99999999999997</ele><time>2026-04-04T13:14:17.688Z</time></trkpt><trkpt lat="43.6726467" lon="12.648035"><ele>217.0</ele><time>2026-04-04T13:14:18.689Z</time></trkpt><trkpt lat="43.6727067" lon="12.6480083"><ele>217.0</ele><time>2026-04-04T13:14:19.69Z</time></trkpt><trkpt lat="43.6727683" lon="12.64798"><ele>217.0</ele><time>2026-04-04T13:14:20.699Z</time></trkpt><trkpt lat="43.6728317" lon="12.6479517"><ele>216.99999999999997</ele><time>2026-04-04T13:14:21.69Z</time></trkpt><trkpt lat="43.6729417" lon="12.64791"><ele>217.0</ele><time>2026-04-04T13:14:23.687Z</time></trkpt><trkpt lat="43.6730183" lon="12.6478783"><ele>216.49999999999997</ele><time>2026-04-04T13:14:25.69Z</time></trkpt><trkpt lat="43.6730883" lon="12.647805"><ele>216.0</ele><time>2026-04-04T13:14:58.689Z</time></trkpt><trkpt lat="43.673115" lon="12.6477067"><ele>215.5</ele><time>2026-04-04T13:14:59.688Z</time></trkpt><trkpt lat="43.67313" lon="12.6475867"><ele>215.0</ele><time>2026-04-04T13:15:00.689Z</time></trkpt><trkpt lat="43.67313" lon="12.6474533"><ele>214.49999999999997</ele><time>2026-04-04T13:15:01.691Z</time></trkpt><trkpt lat="43.6731217" lon="12.6473167"><ele>214.0</ele><time>2026-04-04T13:15:02.689Z</time></trkpt><trkpt lat="43.673115" lon="12.64717"><ele>211.5</ele><time>2026-04-04T13:15:03.689Z</time></trkpt><trkpt lat="43.673115" lon="12.6470167"><ele>209.0</ele><time>2026-04-04T13:15:04.689Z</time></trkpt><trkpt lat="43.673115" lon="12.6467033"><ele>206.5</ele><time>2026-04-04T13:15:06.688Z</time></trkpt><trkpt lat="43.6731183" lon="12.6465633"><ele>204.0</ele><time>2026-04-04T13:15:07.689Z</time></trkpt><trkpt lat="43.67312" lon="12.646425"><ele>293.0</ele><time>2026-04-04T13:15:08.689Z</time></trkpt><trkpt lat="43.6645567" lon="12.657115"><ele>288.0</ele><time>2026-04-04T13:24:20.688Z</time></trkpt><trkpt lat="43.6643967" lon="12.6571967"><ele>283.0</ele><time>2026-04-04T13:24:21.688Z</time></trkpt><trkpt lat="43.6642333" lon="12.65727"><ele>278.0</ele><time>2026-04-04T13:24:22.69Z</time></trkpt><trkpt lat="43.66407" lon="12.657345"><ele>278.0</ele><time>2026-04-04T13:24:23.688Z</time></trkpt><trkpt lat="43.6638983" lon="12.65742"><ele>278.0</ele><time>2026-04-04T13:24:24.687Z</time></trkpt><trkpt lat="43.6637267" lon="12.6574983"><ele>278.0</ele><time>2026-04-04T13:24:25.692Z</time></trkpt><trkpt lat="43.6635617" lon="12.6575933"><ele>278.33333333333337</ele><time>2026-04-04T13:24:26.687Z</time></trkpt><trkpt lat="43.6634067" lon="12.657705"><ele>278.6666666666667</ele><time>2026-04-04T13:24:27.688Z</time></trkpt><trkpt lat="43.66327" lon="12.6578317"><ele>279.0</ele><time>2026-04-04T13:24:28.687Z</time></trkpt><trkpt lat="43.663145" lon="12.6579883"><ele>279.0</ele><time>2026-04-04T13:24:29.687Z</time></trkpt><trkpt lat="43.6630283" lon="12.6581733"><ele>279.0</ele><time>2026-04-04T13:24:30.689Z</time></trkpt><trkpt lat="43.6629183" lon="12.6583833"><ele>279.0</ele><time>2026-04-04T13:24:31.69Z</time></trkpt><trkpt lat="43.6628117" lon="12.6586017"><ele>277.6666666666667</ele><time>2026-04-04T13:24:32.688Z</time></trkpt><trkpt lat="43.662705" lon="12.6588217"><ele>276.33333333333337</ele><time>2026-04-04T13:24:33.691Z</time></trkpt><trkpt lat="43.6625933" lon="12.6590183"><ele>275.0</ele><time>2026-04-04T13:24:34.687Z</time></trkpt><trkpt lat="43.66248" lon="12.6591933"><ele>275.0</ele><time>2026-04-04T13:24:35.69Z</time></trkpt><trkpt lat="43.6623617" lon="12.6593567"><ele>275.0</ele><time>2026-04-04T13:24:36.688Z</time></trkpt><trkpt lat="43.6622467" lon="12.6595267"><ele>275.0</ele><time>2026-04-04T13:24:37.691Z</time></trkpt><trkpt lat="43.6621317" lon="12.6596967"><ele>271.5</ele><time>2026-04-04T13:24:38.688Z</time></trkpt><trkpt lat="43.6620233" lon="12.6598583"><ele>268.0</ele><time>2026-04-04T13:24:39.688Z</time></trkpt><trkpt lat="43.6618383" lon="12.6601717"><ele>273.0</ele><time>2026-04-04T13:24:41.689Z</time></trkpt><trkpt lat="43.66176" lon="12.6603433"><ele>278.0</ele><time>2026-04-04T13:24:42.689Z</time></trkpt><trkpt lat="43.6616967" lon="12.6605417"><ele>283.0</ele><time>2026-04-04T13:24:43.69Z</time></trkpt><trkpt lat="43.6616417" lon="12.6607517"><ele>283.0</ele><time>2026-04-04T13:24:44.688Z</time></trkpt><trkpt lat="43.6615867" lon="12.66096"><ele>283.0</ele><time>2026-04-04T13:24:45.689Z</time></trkpt><trkpt lat="43.661525" lon="12.66116"><ele>283.0</ele><time>2026-04-04T13:24:46.689Z</time></trkpt><trkpt lat="43.6614533" lon="12.66135"><ele>285.5</ele><time>2026-04-04T13:24:47.686Z</time></trkpt><trkpt lat="43.661375" lon="12.661525"><ele>288.0</ele><time>2026-04-04T13:24:48.686Z</time></trkpt><trkpt lat="43.66131" lon="12.6617"><ele>290.5</ele><time>2026-04-04T13:24:49.689Z</time></trkpt><trkpt lat="43.6612533" lon="12.661875"><ele>293.0</ele><time>2026-04-04T13:24:50.688Z</time></trkpt><trkpt lat="43.6612133" lon="12.66205"><ele>294.0</ele><time>2026-04-04T13:24:51.688Z</time></trkpt><trkpt lat="43.66119" lon="12.6622233"><ele>295.0</ele><time>2026-04-04T13:24:52.688Z</time></trkpt><trkpt lat="43.6611883" lon="12.6624"><ele>296.0</ele><time>2026-04-04T13:24:53.687Z</time></trkpt><trkpt lat="43.6611783" lon="12.66257"><ele>297.0</ele><time>2026-04-04T13:24:54.689Z</time></trkpt><trkpt lat="43.6611433" lon="12.66273"><ele>291.0</ele><time>2026-04-04T13:24:55.689Z</time></trkpt><trkpt lat="43.6610833" lon="12.6628867"><ele>285.0</ele><time>2026-04-04T13:24:56.686Z</time></trkpt><trkpt lat="43.6609917" lon="12.66303"><ele>279.0</ele><time>2026-04-04T13:24:57.688Z</time></trkpt><trkpt lat="43.6608867" lon="12.6631667"><ele>273.0</ele><time>2026-04-04T13:24:58.689Z</time></trkpt><trkpt lat="43.6607767" lon="12.6632967"><ele>273.0</ele><time>2026-04-04T13:24:59.687Z</time></trkpt><trkpt lat="43.6606683" lon="12.6634283"><ele>273.0</ele><time>2026-04-04T13:25:00.69Z</time></trkpt><trkpt lat="43.660465" lon="12.663695"><ele>273.0</ele><time>2026-04-04T13:25:02.687Z</time></trkpt><trkpt lat="43.6603633" lon="12.6638233"><ele>276.5</ele><time>2026-04-04T13:25:03.687Z</time></trkpt><trkpt lat="43.6602667" lon="12.6639433"><ele>280.0</ele><time>2026-04-04T13:25:04.688Z</time></trkpt><trkpt lat="43.6601967" lon="12.66407"><ele>283.5</ele><time>2026-04-04T13:25:05.689Z</time></trkpt><trkpt lat="43.6601567" lon="12.66421"><ele>287.0</ele><time>2026-04-04T13:25:06.688Z</time></trkpt><trkpt lat="43.6601467" lon="12.6643517"><ele>288.8</ele><time>2026-04-04T13:25:07.69Z</time></trkpt><trkpt lat="43.660185" lon="12.6644783"><ele>290.6</ele><time>2026-04-04T13:25:08.687Z</time></trkpt><trkpt lat="43.6602517" lon="12.6645783"><ele>292.40000000000003</ele><time>2026-04-04T13:25:09.688Z</time></trkpt><trkpt lat="43.6603283" lon="12.6646467"><ele>294.2</ele><time>2026-04-04T13:25:10.688Z</time></trkpt><trkpt lat="43.6604367" lon="12.664655"><ele>296.0</ele><time>2026-04-04T13:25:11.69Z</time></trkpt><trkpt lat="43.6605633" lon="12.6646"><ele>296.0</ele><time>2026-04-04T13:25:12.689Z</time></trkpt><trkpt lat="43.6606967" lon="12.6645333"><ele>296.0</ele><time>2026-04-04T13:25:13.688Z</time></trkpt><trkpt lat="43.660825" lon="12.6644917"><ele>296.0</ele><time>2026-04-04T13:25:14.688Z</time></trkpt><trkpt lat="43.6609417" lon="12.6644883"><ele>296.0</ele><time>2026-04-04T13:25:15.688Z</time></trkpt><trkpt lat="43.6610433" lon="12.6645517"><ele>296.0</ele><time>2026-04-04T13:25:16.687Z</time></trkpt><trkpt lat="43.6610983" lon="12.664655"><ele>296.0</ele><time>2026-04-04T13:25:17.688Z</time></trkpt><trkpt lat="43.661105" lon="12.6647983"><ele>296.0</ele><time>2026-04-04T13:25:18.687Z</time></trkpt><trkpt lat="43.661065" lon="12.664965"><ele>296.0</ele><time>2026-04-04T13:25:19.69Z</time></trkpt><trkpt lat="43.661" lon="12.6651133"><ele>296.0</ele><time>2026-04-04T13:25:20.688Z</time></trkpt><trkpt lat="43.6609283" lon="12.6652533"><ele>301.33333333333337</ele><time>2026-04-04T13:25:21.688Z</time></trkpt><trkpt lat="43.6607667" lon="12.6654933"><ele>306.6666666666667</ele><time>2026-04-04T13:25:23.69Z</time></trkpt><trkpt lat="43.6606833" lon="12.665605"><ele>312.0</ele><time>2026-04-04T13:25:24.688Z</time></trkpt><trkpt lat="43.6605933" lon="12.6657"><ele>312.0</ele><time>2026-04-04T13:25:25.69Z</time></trkpt><trkpt lat="43.6604983" lon="12.6657667"><ele>312.0</ele><time>2026-04-04T13:25:26.688Z</time></trkpt><trkpt lat="43.66039" lon="12.6657933"><ele>312.0</ele><time>2026-04-04T13:25:27.688Z</time></trkpt><trkpt lat="43.660275" lon="12.66577"><ele>312.0</ele><time>2026-04-04T13:25:28.686Z</time></trkpt><trkpt lat="43.6601567" lon="12.6657083"><ele>313.25</ele><time>2026-04-04T13:25:29.69Z</time></trkpt><trkpt lat="43.660045" lon="12.6656217"><ele>314.5</ele><time>2026-04-04T13:25:30.688Z</time></trkpt><trkpt lat="43.6599217" lon="12.6655267"><ele>315.75</ele><time>2026-04-04T13:25:31.69Z</time></trkpt><trkpt lat="43.6598033" lon="12.6654333"><ele>317.0</ele><time>2026-04-04T13:25:32.689Z</time></trkpt><trkpt lat="43.65968" lon="12.6653667"><ele>317.0</ele><time>2026-04-04T13:25:33.689Z</time></trkpt><trkpt lat="43.6595483" lon="12.6653367"><ele>317.0</ele><time>2026-04-04T13:25:34.688Z</time></trkpt><trkpt lat="43.6594117" lon="12.66535"><ele>317.0</ele><time>2026-04-04T13:25:35.688Z</time></trkpt><trkpt lat="43.6592817" lon="12.6653933"><ele>317.0</ele><time>2026-04-04T13:25:36.688Z</time></trkpt><trkpt lat="43.6591567" lon="12.6654667"><ele>318.25</ele><time>2026-04-04T13:25:37.69Z</time></trkpt><trkpt lat="43.6590417" lon="12.665565"><ele>319.5</ele><time>2026-04-04T13:25:38.688Z</time></trkpt><trkpt lat="43.6589383" lon="12.66569"><ele>320.75</ele><time>2026-04-04T13:25:39.688Z</time></trkpt><trkpt lat="43.6588467" lon="12.6658333"><ele>322.0</ele><time>2026-04-04T13:25:40.687Z</time></trkpt><trkpt lat="43.6587567" lon="12.66599"><ele>323.3333333333333</ele><time>2026-04-04T13:25:41.689Z</time></trkpt><trkpt lat="43.6586717" lon="12.6661533"><ele>324.6666666666667</ele><time>2026-04-04T13:25:42.687Z</time></trkpt><trkpt lat="43.6584967" lon="12.6664817"><ele>326.0</ele><time>2026-04-04T13:25:44.688Z</time></trkpt><trkpt lat="43.6584083" lon="12.66664"><ele>326.0</ele><time>2026-04-04T13:25:45.689Z</time></trkpt><trkpt lat="43.6583167" lon="12.6667917"><ele>326.0</ele><time>2026-04-04T13:25:46.688Z</time></trkpt><trkpt lat="43.6582167" lon="12.6669317"><ele>326.0</ele><time>2026-04-04T13:25:47.686Z</time></trkpt><trkpt lat="43.6581083" lon="12.66706"><ele>326.0</ele><time>2026-04-04T13:25:48.688Z</time></trkpt><trkpt lat="43.6579933" lon="12.6671733"><ele>330.6666666666667</ele><time>2026-04-04T13:25:49.692Z</time></trkpt><trkpt lat="43.6578683" lon="12.667275"><ele>335.3333333333333</ele><time>2026-04-04T13:25:50.69Z</time></trkpt><trkpt lat="43.657735" lon="12.6673767"><ele>340.0</ele><time>2026-04-04T13:25:51.69Z</time></trkpt><trkpt lat="43.6575983" lon="12.66748"><ele>340.0</ele><time>2026-04-04T13:25:52.69Z</time></trkpt><trkpt lat="43.6574583" lon="12.6675833"><ele>340.0</ele><time>2026-04-04T13:25:53.689Z</time></trkpt><trkpt lat="43.657315" lon="12.6676817"><ele>340.0</ele><time>2026-04-04T13:25:54.689Z</time></trkpt><trkpt lat="43.6571717" lon="12.6677717"><ele>343.66666666666663</ele><time>2026-04-04T13:25:55.69Z</time></trkpt><trkpt lat="43.65703" lon="12.66786"><ele>347.3333333333333</ele><time>2026-04-04T13:25:56.689Z</time></trkpt><trkpt lat="43.6568883" lon="12.667945"><ele>351.0</ele><time>2026-04-04T13:25:57.69Z</time></trkpt><trkpt lat="43.65674" lon="12.6680267"><ele>351.0</ele><time>2026-04-04T13:25:58.688Z</time></trkpt><trkpt lat="43.656595" lon="12.6681083"><ele>351.0</ele><time>2026-04-04T13:25:59.692Z</time></trkpt><trkpt lat="43.6564533" lon="12.6681967"><ele>351.0</ele><time>2026-04-04T13:26:00.689Z</time></trkpt><trkpt lat="43.6563133" lon="12.6682867"><ele>351.0</ele><time>2026-04-04T13:26:01.69Z</time></trkpt><trkpt lat="43.6561733" lon="12.6683833"><ele>351.0</ele><time>2026-04-04T13:26:02.69Z</time></trkpt><trkpt lat="43.65603" lon="12.6684817"><ele>351.0</ele><time>2026-04-04T13:26:03.688Z</time></trkpt><trkpt lat="43.6557467" lon="12.6686867"><ele>352.75</ele><time>2026-04-04T13:26:05.687Z</time></trkpt><trkpt lat="43.65562" lon="12.6687917"><ele>354.5</ele><time>2026-04-04T13:26:06.688Z</time></trkpt><trkpt lat="43.6555083" lon="12.6688917"><ele>356.25</ele><time>2026-04-04T13:26:07.689Z</time></trkpt><trkpt lat="43.65542" lon="12.6689817"><ele>358.0</ele><time>2026-04-04T13:26:08.689Z</time></trkpt><trkpt lat="43.6553467" lon="12.6690567"><ele>358.0</ele><time>2026-04-04T13:26:09.687Z</time></trkpt><trkpt lat="43.6552983" lon="12.6691217"><ele>358.0</ele><time>2026-04-04T13:26:10.688Z</time></trkpt><trkpt lat="43.655265" lon="12.6692083"><ele>358.0</ele><time>2026-04-04T13:26:12.688Z</time></trkpt><trkpt lat="43.6553167" lon="12.66931"><ele>358.0</ele><time>2026-04-04T13:26:14.688Z</time></trkpt><trkpt lat="43.6553683" lon="12.66937"><ele>358.0</ele><time>2026-04-04T13:26:15.687Z</time></trkpt><trkpt lat="43.6554383" lon="12.6694383"><ele>358.0</ele><time>2026-04-04T13:26:16.687Z</time></trkpt><trkpt lat="43.65553" lon="12.669505"><ele>362.0</ele><time>2026-04-04T13:26:17.69Z</time></trkpt><trkpt lat="43.6556517" lon="12.6695683"><ele>366.0</ele><time>2026-04-04T13:26:18.689Z</time></trkpt><trkpt lat="43.655775" lon="12.6696217"><ele>370.0</ele><time>2026-04-04T13:26:19.689Z</time></trkpt><trkpt lat="43.6558833" lon="12.6696667"><ele>374.0</ele><time>2026-04-04T13:26:20.689Z</time></trkpt><trkpt lat="43.655965" lon="12.6697183"><ele>374.0</ele><time>2026-04-04T13:26:21.69Z</time></trkpt><trkpt lat="43.6560317" lon="12.669785"><ele>374.0</ele><time>2026-04-04T13:26:22.69Z</time></trkpt><trkpt lat="43.6560783" lon="12.6698567"><ele>374.0</ele><time>2026-04-04T13:26:23.688Z</time></trkpt><trkpt lat="43.65609" lon="12.670005"><ele>374.0</ele><time>2026-04-04T13:26:25.69Z</time></trkpt><trkpt lat="43.6559433" lon="12.6701617"><ele>374.0</ele><time>2026-04-04T13:26:28.688Z</time></trkpt><trkpt lat="43.6558567" lon="12.6702083"><ele>374.0</ele><time>2026-04-04T13:26:29.688Z</time></trkpt><trkpt lat="43.6557583" lon="12.67026"><ele>374.0</ele><time>2026-04-04T13:26:30.69Z</time></trkpt><trkpt lat="43.655665" lon="12.6703117"><ele>374.0</ele><time>2026-04-04T13:26:31.69Z</time></trkpt><trkpt lat="43.6555717" lon="12.67036"><ele>374.0</ele><time>2026-04-04T13:26:32.69Z</time></trkpt><trkpt lat="43.655475" lon="12.6704067"><ele>374.0</ele><time>2026-04-04T13:26:33.688Z</time></trkpt><trkpt lat="43.655385" lon="12.6704583"><ele>375.0</ele><time>2026-04-04T13:26:34.69Z</time></trkpt><trkpt lat="43.6553083" lon="12.6705183"><ele>376.0</ele><time>2026-04-04T13:26:35.687Z</time></trkpt><trkpt lat="43.6552433" lon="12.6705817"><ele>377.0</ele><time>2026-04-04T13:26:36.689Z</time></trkpt><trkpt lat="43.6551733" lon="12.6706767"><ele>378.0</ele><time>2026-04-04T13:26:38.689Z</time></trkpt><trkpt lat="43.6552333" lon="12.6707467"><ele>379.0</ele><time>2026-04-04T13:26:41.687Z</time></trkpt><trkpt lat="43.6552983" lon="12.6707333"><ele>380.0</ele><time>2026-04-04T13:26:42.688Z</time></trkpt><trkpt lat="43.65538" lon="12.6707183"><ele>382.5</ele><time>2026-04-04T13:26:43.689Z</time></trkpt><trkpt lat="43.6554717" lon="12.67072"><ele>385.0</ele><time>2026-04-04T13:26:44.689Z</time></trkpt><trkpt lat="43.6555717" lon="12.6707333"><ele>387.5</ele><time>2026-04-04T13:26:45.689Z</time></trkpt><trkpt lat="43.6556767" lon="12.6707483"><ele>390.0</ele><time>2026-04-04T13:26:46.691Z</time></trkpt><trkpt lat="43.65589" lon="12.6707917"><ele>390.0</ele><time>2026-04-04T13:26:48.687Z</time></trkpt><trkpt lat="43.6559867" lon="12.6708283"><ele>390.0</ele><time>2026-04-04T13:26:49.691Z</time></trkpt><trkpt lat="43.6560833" lon="12.6708783"><ele>390.0</ele><time>2026-04-04T13:26:50.689Z</time></trkpt><trkpt lat="43.656175" lon="12.6709433"><ele>390.0</ele><time>2026-04-04T13:26:51.689Z</time></trkpt><trkpt lat="43.6562617" lon="12.671025"><ele>390.0</ele><time>2026-04-04T13:26:52.69Z</time></trkpt><trkpt lat="43.6563433" lon="12.6711233"><ele>394.0</ele><time>2026-04-04T13:26:53.688Z</time></trkpt><trkpt lat="43.6564283" lon="12.6712333"><ele>398.0</ele><time>2026-04-04T13:26:54.69Z</time></trkpt><trkpt lat="43.6565133" lon="12.6713483"><ele>402.0</ele><time>2026-04-04T13:26:55.692Z</time></trkpt><trkpt lat="43.6565967" lon="12.67146"><ele>406.0</ele><time>2026-04-04T13:26:56.688Z</time></trkpt><trkpt lat="43.656675" lon="12.6715567"><ele>406.00000000000006</ele><time>2026-04-04T13:26:57.689Z</time></trkpt><trkpt lat="43.656745" lon="12.671635"><ele>406.0</ele><time>2026-04-04T13:26:58.688Z</time></trkpt><trkpt lat="43.6568183" lon="12.6716867"><ele>406.0</ele><time>2026-04-04T13:26:59.689Z</time></trkpt><trkpt lat="43.6568983" lon="12.6717117"><ele>406.0</ele><time>2026-04-04T13:27:00.688Z</time></trkpt><trkpt lat="43.656985" lon="12.6717"><ele>406.00000000000006</ele><time>2026-04-04T13:27:01.69Z</time></trkpt><trkpt lat="43.6570767" lon="12.6716533"><ele>406.0</ele><time>2026-04-04T13:27:02.689Z</time></trkpt><trkpt lat="43.6571667" lon="12.671565"><ele>406.20000000000005</ele><time>2026-04-04T13:27:03.688Z</time></trkpt><trkpt lat="43.6572467" lon="12.6714467"><ele>406.40000000000003</ele><time>2026-04-04T13:27:04.689Z</time></trkpt><trkpt lat="43.6573117" lon="12.6713183"><ele>406.6</ele><time>2026-04-04T13:27:05.689Z</time></trkpt><trkpt lat="43.6573733" lon="12.6712117"><ele>406.8</ele><time>2026-04-04T13:27:06.69Z</time></trkpt><trkpt lat="43.6574467" lon="12.6711233"><ele>407.0</ele><time>2026-04-04T13:27:07.688Z</time></trkpt><trkpt lat="43.6576133" lon="12.670935"><ele>407.0</ele><time>2026-04-04T13:27:09.689Z</time></trkpt><trkpt lat="43.65769" lon="12.670825"><ele>407.0</ele><time>2026-04-04T13:27:10.689Z</time></trkpt><trkpt lat="43.657755" lon="12.6707133"><ele>407.0</ele><time>2026-04-04T13:27:11.687Z</time></trkpt><trkpt lat="43.6578133" lon="12.6706067"><ele>407.0</ele><time>2026-04-04T13:27:12.689Z</time></trkpt><trkpt lat="43.6578717" lon="12.6705183"><ele>407.0</ele><time>2026-04-04T13:27:13.691Z</time></trkpt><trkpt lat="43.6579267" lon="12.6704533"><ele>409.99999999999994</ele><time>2026-04-04T13:27:14.689Z</time></trkpt><trkpt lat="43.6579867" lon="12.6704233"><ele>413.0</ele><time>2026-04-04T13:27:15.689Z</time></trkpt><trkpt lat="43.6580783" lon="12.6704433"><ele>416.0</ele><time>2026-04-04T13:27:17.686Z</time></trkpt><trkpt lat="43.658135" lon="12.6706"><ele>419.0</ele><time>2026-04-04T13:27:19.688Z</time></trkpt><trkpt lat="43.6581567" lon="12.6706967"><ele>421.99999999999994</ele><time>2026-04-04T13:27:20.687Z</time></trkpt><trkpt lat="43.6581917" lon="12.6707817"><ele>425.0</ele><time>2026-04-04T13:27:21.687Z</time></trkpt><trkpt lat="43.6583017" lon="12.6708733"><ele>425.0</ele><time>2026-04-04T13:27:23.688Z</time></trkpt><trkpt lat="43.6583717" lon="12.67088"><ele>425.0</ele><time>2026-04-04T13:27:24.689Z</time></trkpt><trkpt lat="43.658455" lon="12.67086"><ele>425.0</ele><time>2026-04-04T13:27:25.69Z</time></trkpt><trkpt lat="43.65856" lon="12.670815"><ele>425.0</ele><time>2026-04-04T13:27:26.687Z</time></trkpt><trkpt lat="43.6586717" lon="12.67076"><ele>425.0</ele><time>2026-04-04T13:27:27.686Z</time></trkpt><trkpt lat="43.6587867" lon="12.6707033"><ele>428.25</ele><time>2026-04-04T13:27:28.689Z</time></trkpt><trkpt lat="43.6590017" lon="12.6706217"><ele>431.5</ele><time>2026-04-04T13:27:30.69Z</time></trkpt><trkpt lat="43.6590967" lon="12.6706017"><ele>434.75</ele><time>2026-04-04T13:27:31.69Z</time></trkpt><trkpt lat="43.6591783" lon="12.6706033"><ele>438.0</ele><time>2026-04-04T13:27:32.688Z</time></trkpt><trkpt lat="43.6592533" lon="12.6706217"><ele>438.0</ele><time>2026-04-04T13:27:33.689Z</time></trkpt><trkpt lat="43.6593217" lon="12.6706583"><ele>438.0</ele><time>2026-04-04T13:27:34.688Z</time></trkpt><trkpt lat="43.6593867" lon="12.67071"><ele>438.0</ele><time>2026-04-04T13:27:35.691Z</time></trkpt><trkpt lat="43.6594417" lon="12.67078"><ele>438.0</ele><time>2026-04-04T13:27:36.689Z</time></trkpt><trkpt lat="43.6594983" lon="12.6708717"><ele>438.0</ele><time>2026-04-04T13:27:37.691Z</time></trkpt><trkpt lat="43.6595533" lon="12.6710033"><ele>438.0</ele><time>2026-04-04T13:27:38.692Z</time></trkpt><trkpt lat="43.6596133" lon="12.6711483"><ele>438.5</ele><time>2026-04-04T13:27:39.689Z</time></trkpt><trkpt lat="43.659675" lon="12.6713"><ele>439.0</ele><time>2026-04-04T13:27:40.689Z</time></trkpt><trkpt lat="43.6597417" lon="12.6714517"><ele>439.5</ele><time>2026-04-04T13:27:41.688Z</time></trkpt><trkpt lat="43.6598017" lon="12.671605"><ele>440.0</ele><time>2026-04-04T13:27:42.689Z</time></trkpt><trkpt lat="43.6598533" lon="12.6717633"><ele>440.0</ele><time>2026-04-04T13:27:43.69Z</time></trkpt><trkpt lat="43.6599" lon="12.6719267"><ele>440.0</ele><time>2026-04-04T13:27:44.688Z</time></trkpt><trkpt lat="43.6599417" lon="12.672095"><ele>440.0</ele><time>2026-04-04T13:27:45.688Z</time></trkpt><trkpt lat="43.659975" lon="12.6722617"><ele>440.0</ele><time>2026-04-04T13:27:46.686Z</time></trkpt><trkpt lat="43.659995" lon="12.672425"><ele>443.0</ele><time>2026-04-04T13:27:47.688Z</time></trkpt><trkpt lat="43.6600067" lon="12.6725667"><ele>446.0</ele><time>2026-04-04T13:27:48.691Z</time></trkpt><trkpt lat="43.6600333" lon="12.6726933"><ele>449.0</ele><time>2026-04-04T13:27:49.688Z</time></trkpt><trkpt lat="43.6601383" lon="12.67289"><ele>452.0</ele><time>2026-04-04T13:27:51.687Z</time></trkpt><trkpt lat="43.6602233" lon="12.6729617"><ele>454.5</ele><time>2026-04-04T13:27:52.688Z</time></trkpt><trkpt lat="43.6603183" lon="12.6730183"><ele>457.0</ele><time>2026-04-04T13:27:53.688Z</time></trkpt><trkpt lat="43.660455" lon="12.6730867"><ele>459.5</ele><time>2026-04-04T13:27:54.688Z</time></trkpt><trkpt lat="43.6605817" lon="12.6731433"><ele>462.0</ele><time>2026-04-04T13:27:55.689Z</time></trkpt><trkpt lat="43.6606883" lon="12.67319"><ele>462.0</ele><time>2026-04-04T13:27:56.689Z</time></trkpt><trkpt lat="43.6607917" lon="12.6732417"><ele>462.00000000000006</ele><time>2026-04-04T13:27:57.688Z</time></trkpt><trkpt lat="43.660895" lon="12.6733"><ele>462.00000000000006</ele><time>2026-04-04T13:27:58.688Z</time></trkpt><trkpt lat="43.6609917" lon="12.6733667"><ele>462.0</ele><time>2026-04-04T13:27:59.688Z</time></trkpt><trkpt lat="43.6610783" lon="12.6734467"><ele>462.0</ele><time>2026-04-04T13:28:00.69Z</time></trkpt><trkpt lat="43.6611567" lon="12.67352"><ele>463.1666666666667</ele><time>2026-04-04T13:28:01.688Z</time></trkpt><trkpt lat="43.6612367" lon="12.67357"><ele>464.33333333333337</ele><time>2026-04-04T13:28:02.688Z</time></trkpt><trkpt lat="43.6613167" lon="12.6735867"><ele>465.5</ele><time>2026-04-04T13:28:03.687Z</time></trkpt><trkpt lat="43.66139" lon="12.673565"><ele>466.6666666666667</ele><time>2026-04-04T13:28:04.688Z</time></trkpt><trkpt lat="43.661465" lon="12.67352"><ele>467.83333333333337</ele><time>2026-04-04T13:28:05.691Z</time></trkpt><trkpt lat="43.661545" lon="12.673445"><ele>469.0</ele><time>2026-04-04T13:28:06.689Z</time></trkpt><trkpt lat="43.6616333" lon="12.6733617"><ele>469.0</ele><time>2026-04-04T13:28:07.69Z</time></trkpt><trkpt lat="43.66172" lon="12.6732933"><ele>469.0</ele><time>2026-04-04T13:28:08.69Z</time></trkpt><trkpt lat="43.6617983" lon="12.673245"><ele>469.0</ele><time>2026-04-04T13:28:09.688Z</time></trkpt><trkpt lat="43.66188" lon="12.6732267"><ele>469.0</ele><time>2026-04-04T13:28:10.688Z</time></trkpt><trkpt lat="43.6620333" lon="12.6732667"><ele>469.0</ele><time>2026-04-04T13:28:12.689Z</time></trkpt><trkpt lat="43.6620883" lon="12.6733483"><ele>470.1666666666667</ele><time>2026-04-04T13:28:13.689Z</time></trkpt><trkpt lat="43.662135" lon="12.6734333"><ele>471.33333333333337</ele><time>2026-04-04T13:28:14.689Z</time></trkpt><trkpt lat="43.66216" lon="12.6735167"><ele>472.5</ele><time>2026-04-04T13:28:15.688Z</time></trkpt><trkpt lat="43.662135" lon="12.67366"><ele>473.66666666666663</ele><time>2026-04-04T13:28:17.687Z</time></trkpt><trkpt lat="43.6620783" lon="12.6737283"><ele>474.8333333333333</ele><time>2026-04-04T13:28:18.688Z</time></trkpt><trkpt lat="43.6619967" lon="12.67379"><ele>476.0</ele><time>2026-04-04T13:28:19.69Z</time></trkpt><trkpt lat="43.6618767" lon="12.6738633"><ele>480.5</ele><time>2026-04-04T13:28:20.689Z</time></trkpt><trkpt lat="43.66175" lon="12.67394"><ele>485.0</ele><time>2026-04-04T13:28:21.687Z</time></trkpt><trkpt lat="43.66163" lon="12.6740183"><ele>489.5</ele><time>2026-04-04T13:28:22.691Z</time></trkpt><trkpt lat="43.661535" lon="12.674085"><ele>494.0</ele><time>2026-04-04T13:28:23.69Z</time></trkpt><trkpt lat="43.6614533" lon="12.6741467"><ele>494.0</ele><time>2026-04-04T13:28:24.689Z</time></trkpt><trkpt lat="43.6613883" lon="12.6742083"><ele>494.0</ele><time>2026-04-04T13:28:25.689Z</time></trkpt><trkpt lat="43.6613333" lon="12.6742733"><ele>494.0</ele><time>2026-04-04T13:28:26.687Z</time></trkpt><trkpt lat="43.6613067" lon="12.6744"><ele>494.0</ele><time>2026-04-04T13:28:28.689Z</time></trkpt><trkpt lat="43.6614267" lon="12.6745233"><ele>494.0</ele><time>2026-04-04T13:28:30.691Z</time></trkpt><trkpt lat="43.6615067" lon="12.6745817"><ele>496.2</ele><time>2026-04-04T13:28:31.691Z</time></trkpt><trkpt lat="43.6616717" lon="12.674665"><ele>498.4</ele><time>2026-04-04T13:28:33.691Z</time></trkpt><trkpt lat="43.6617567" lon="12.674675"><ele>500.6</ele><time>2026-04-04T13:28:34.691Z</time></trkpt><trkpt lat="43.6618383" lon="12.67466"><ele>502.8</ele><time>2026-04-04T13:28:35.689Z</time></trkpt><trkpt lat="43.6619117" lon="12.674625"><ele>505.0</ele><time>2026-04-04T13:28:36.689Z</time></trkpt><trkpt lat="43.661985" lon="12.6745983"><ele>505.00000000000006</ele><time>2026-04-04T13:28:37.691Z</time></trkpt><trkpt lat="43.662055" lon="12.6745867"><ele>505.0</ele><time>2026-04-04T13:28:38.689Z</time></trkpt><trkpt lat="43.6621383" lon="12.6746"><ele>505.0</ele><time>2026-04-04T13:28:39.687Z</time></trkpt><trkpt lat="43.6622167" lon="12.6746383"><ele>505.0</ele><time>2026-04-04T13:28:40.689Z</time></trkpt><trkpt lat="43.662295" lon="12.6747183"><ele>505.00000000000006</ele><time>2026-04-04T13:28:41.689Z</time></trkpt><trkpt lat="43.662365" lon="12.6748333"><ele>505.0</ele><time>2026-04-04T13:28:42.689Z</time></trkpt><trkpt lat="43.662425" lon="12.6749617"><ele>505.0</ele><time>2026-04-04T13:28:43.688Z</time></trkpt><trkpt lat="43.662495" lon="12.6750933"><ele>505.0</ele><time>2026-04-04T13:28:44.688Z</time></trkpt><trkpt lat="43.662575" lon="12.6752217"><ele>505.0</ele><time>2026-04-04T13:28:45.686Z</time></trkpt><trkpt lat="43.662645" lon="12.6753483"><ele>505.0</ele><time>2026-04-04T13:28:46.689Z</time></trkpt><trkpt lat="43.662705" lon="12.6754833"><ele>506.75</ele><time>2026-04-04T13:28:47.688Z</time></trkpt><trkpt lat="43.6627583" lon="12.6756333"><ele>508.5</ele><time>2026-04-04T13:28:48.689Z</time></trkpt><trkpt lat="43.6628067" lon="12.6757883"><ele>510.25</ele><time>2026-04-04T13:28:49.689Z</time></trkpt><trkpt lat="43.66286" lon="12.6759533"><ele>512.0</ele><time>2026-04-04T13:28:50.69Z</time></trkpt><trkpt lat="43.6629167" lon="12.676125"><ele>512.0</ele><time>2026-04-04T13:28:51.688Z</time></trkpt><trkpt lat="43.6629633" lon="12.6762983"><ele>512.0</ele><time>2026-04-04T13:28:52.689Z</time></trkpt><trkpt lat="43.6630767" lon="12.6766367"><ele>512.0</ele><time>2026-04-04T13:28:54.689Z</time></trkpt><trkpt lat="43.663125" lon="12.676775"><ele>512.0</ele><time>2026-04-04T13:28:55.689Z</time></trkpt><trkpt lat="43.66318" lon="12.6768983"><ele>512.0</ele><time>2026-04-04T13:28:56.689Z</time></trkpt><trkpt lat="43.66325" lon="12.6770017"><ele>512.0</ele><time>2026-04-04T13:28:57.686Z</time></trkpt><trkpt lat="43.663325" lon="12.677095"><ele>512.0</ele><time>2026-04-04T13:28:58.689Z</time></trkpt><trkpt lat="43.6634217" lon="12.6771617"><ele>512.0</ele><time>2026-04-04T13:28:59.689Z</time></trkpt><trkpt lat="43.6635217" lon="12.6772167"><ele>510.40000000000003</ele><time>2026-04-04T13:29:00.688Z</time></trkpt><trkpt lat="43.6636183" lon="12.6772733"><ele>508.80000000000007</ele><time>2026-04-04T13:29:01.691Z</time></trkpt><trkpt lat="43.6637067" lon="12.6773333"><ele>507.2</ele><time>2026-04-04T13:29:02.688Z</time></trkpt><trkpt lat="43.6637783" lon="12.6774"><ele>505.6</ele><time>2026-04-04T13:29:03.688Z</time></trkpt><trkpt lat="43.6638367" lon="12.6774917"><ele>504.0</ele><time>2026-04-04T13:29:04.689Z</time></trkpt><trkpt lat="43.6639017" lon="12.6776017"><ele>504.0</ele><time>2026-04-04T13:29:05.691Z</time></trkpt><trkpt lat="43.663945" lon="12.6777317"><ele>504.0</ele><time>2026-04-04T13:29:06.688Z</time></trkpt><trkpt lat="43.66399" lon="12.6778817"><ele>504.0</ele><time>2026-04-04T13:29:07.69Z</time></trkpt><trkpt lat="43.6640267" lon="12.6780367"><ele>504.0</ele><time>2026-04-04T13:29:08.689Z</time></trkpt><trkpt lat="43.6640683" lon="12.67819"><ele>505.75</ele><time>2026-04-04T13:29:09.686Z</time></trkpt><trkpt lat="43.6641183" lon="12.6783433"><ele>507.5</ele><time>2026-04-04T13:29:10.689Z</time></trkpt><trkpt lat="43.664185" lon="12.6784983"><ele>509.25</ele><time>2026-04-04T13:29:11.69Z</time></trkpt><trkpt lat="43.6642633" lon="12.6786567"><ele>511.0</ele><time>2026-04-04T13:29:12.689Z</time></trkpt><trkpt lat="43.664345" lon="12.6788167"><ele>509.33333333333337</ele><time>2026-04-04T13:29:13.69Z</time></trkpt><trkpt lat="43.6644983" lon="12.6791217"><ele>507.66666666666663</ele><time>2026-04-04T13:29:15.691Z</time></trkpt><trkpt lat="43.66457" lon="12.6792617"><ele>506.0</ele><time>2026-04-04T13:29:16.687Z</time></trkpt><trkpt lat="43.664635" lon="12.6793933"><ele>507.5</ele><time>2026-04-04T13:29:17.69Z</time></trkpt><trkpt lat="43.6646983" lon="12.679515"><ele>509.0</ele><time>2026-04-04T13:29:18.689Z</time></trkpt><trkpt lat="43.664765" lon="12.6796333"><ele>510.5</ele><time>2026-04-04T13:29:19.69Z</time></trkpt><trkpt lat="43.6648483" lon="12.67975"><ele>512.0</ele><time>2026-04-04T13:29:20.689Z</time></trkpt><trkpt lat="43.66494" lon="12.67987"><ele>512.0</ele><time>2026-04-04T13:29:21.688Z</time></trkpt><trkpt lat="43.6650383" lon="12.679975"><ele>512.0</ele><time>2026-04-04T13:29:22.689Z</time></trkpt><trkpt lat="43.66514" lon="12.680075"><ele>512.0</ele><time>2026-04-04T13:29:23.689Z</time></trkpt><trkpt lat="43.6652333" lon="12.680165"><ele>512.0</ele><time>2026-04-04T13:29:24.689Z</time></trkpt><trkpt lat="43.665325" lon="12.68026"><ele>514.0</ele><time>2026-04-04T13:29:25.689Z</time></trkpt><trkpt lat="43.6654217" lon="12.6803583"><ele>516.0</ele><time>2026-04-04T13:29:26.69Z</time></trkpt><trkpt lat="43.6655217" lon="12.6804517"><ele>518.0</ele><time>2026-04-04T13:29:27.689Z</time></trkpt><trkpt lat="43.6656083" lon="12.68054"><ele>520.0</ele><time>2026-04-04T13:29:28.69Z</time></trkpt><trkpt lat="43.665695" lon="12.680615"><ele>520.0</ele><time>2026-04-04T13:29:29.69Z</time></trkpt><trkpt lat="43.665785" lon="12.68068"><ele>520.0</ele><time>2026-04-04T13:29:30.69Z</time></trkpt><trkpt lat="43.6658883" lon="12.68073"><ele>520.0</ele><time>2026-04-04T13:29:31.69Z</time></trkpt><trkpt lat="43.6659817" lon="12.6807783"><ele>520.0</ele><time>2026-04-04T13:29:32.687Z</time></trkpt><trkpt lat="43.66607" lon="12.6808317"><ele>520.0</ele><time>2026-04-04T13:29:33.688Z</time></trkpt><trkpt lat="43.666165" lon="12.6808983"><ele>520.75</ele><time>2026-04-04T13:29:34.687Z</time></trkpt><trkpt lat="43.6663367" lon="12.6810633"><ele>521.5</ele><time>2026-04-04T13:29:36.687Z</time></trkpt><trkpt lat="43.66642" lon="12.6811733"><ele>522.25</ele><time>2026-04-04T13:29:37.688Z</time></trkpt><trkpt lat="43.666495" lon="12.6812983"><ele>523.0</ele><time>2026-04-04T13:29:38.688Z</time></trkpt><trkpt lat="43.66658" lon="12.68142"><ele>523.0</ele><time>2026-04-04T13:29:39.686Z</time></trkpt><trkpt lat="43.6666667" lon="12.6815317"><ele>523.0</ele><time>2026-04-04T13:29:40.688Z</time></trkpt><trkpt lat="43.6667517" lon="12.681645"><ele>523.0</ele><time>2026-04-04T13:29:41.687Z</time></trkpt><trkpt lat="43.6668267" lon="12.6817633"><ele>523.0</ele><time>2026-04-04T13:29:42.686Z</time></trkpt><trkpt lat="43.6668917" lon="12.6818733"><ele>524.4</ele><time>2026-04-04T13:29:43.687Z</time></trkpt><trkpt lat="43.6669517" lon="12.681965"><ele>525.8</ele><time>2026-04-04T13:29:44.688Z</time></trkpt><trkpt lat="43.6670167" lon="12.6820367"><ele>527.2</ele><time>2026-04-04T13:29:45.688Z</time></trkpt><trkpt lat="43.6670867" lon="12.6820867"><ele>528.6</ele><time>2026-04-04T13:29:46.687Z</time></trkpt><trkpt lat="43.6671767" lon="12.6821117"><ele>530.0</ele><time>2026-04-04T13:29:47.688Z</time></trkpt><trkpt lat="43.667285" lon="12.68211"><ele>530.0</ele><time>2026-04-04T13:29:48.687Z</time></trkpt><trkpt lat="43.6674033" lon="12.6821"><ele>530.0</ele><time>2026-04-04T13:29:49.69Z</time></trkpt><trkpt lat="43.6675183" lon="12.6820883"><ele>530.0</ele><time>2026-04-04T13:29:50.687Z</time></trkpt><trkpt lat="43.6676233" lon="12.68209"><ele>530.0</ele><time>2026-04-04T13:29:51.688Z</time></trkpt><trkpt lat="43.6677217" lon="12.68211"><ele>530.0</ele><time>2026-04-04T13:29:52.688Z</time></trkpt><trkpt lat="43.6678167" lon="12.6821433"><ele>528.0</ele><time>2026-04-04T13:29:53.69Z</time></trkpt><trkpt lat="43.6679167" lon="12.682205"><ele>526.0</ele><time>2026-04-04T13:29:54.688Z</time></trkpt><trkpt lat="43.668015" lon="12.6822717"><ele>524.0</ele><time>2026-04-04T13:29:55.69Z</time></trkpt><trkpt lat="43.6682183" lon="12.6823833"><ele>522.0</ele><time>2026-04-04T13:29:57.687Z</time></trkpt><trkpt lat="43.668315" lon="12.68244"><ele>522.0</ele><time>2026-04-04T13:29:58.688Z</time></trkpt><trkpt lat="43.66841" lon="12.68249"><ele>522.0</ele><time>2026-04-04T13:29:59.689Z</time></trkpt><trkpt lat="43.6685" lon="12.6825217"><ele>522.0</ele><time>2026-04-04T13:30:00.688Z</time></trkpt><trkpt lat="43.6686017" lon="12.6825317"><ele>522.0</ele><time>2026-04-04T13:30:01.689Z</time></trkpt><trkpt lat="43.6687033" lon="12.682525"><ele>522.0</ele><time>2026-04-04T13:30:02.688Z</time></trkpt><trkpt lat="43.6688017" lon="12.6825117"><ele>519.5</ele><time>2026-04-04T13:30:03.687Z</time></trkpt><trkpt lat="43.6689033" lon="12.68251"><ele>517.0</ele><time>2026-04-04T13:30:04.688Z</time></trkpt><trkpt lat="43.6690117" lon="12.6825317"><ele>514.5</ele><time>2026-04-04T13:30:05.69Z</time></trkpt><trkpt lat="43.6691267" lon="12.6825683"><ele>512.0</ele><time>2026-04-04T13:30:06.689Z</time></trkpt><trkpt lat="43.669245" lon="12.6826183"><ele>512.0</ele><time>2026-04-04T13:30:07.689Z</time></trkpt><trkpt lat="43.6693683" lon="12.6826883"><ele>512.0</ele><time>2026-04-04T13:30:08.688Z</time></trkpt><trkpt lat="43.6694817" lon="12.6827667"><ele>512.0</ele><time>2026-04-04T13:30:09.688Z</time></trkpt><trkpt lat="43.6695983" lon="12.6828483"><ele>512.0</ele><time>2026-04-04T13:30:10.69Z</time></trkpt><trkpt lat="43.6697117" lon="12.6829083"><ele>512.75</ele><time>2026-04-04T13:30:11.688Z</time></trkpt><trkpt lat="43.669825" lon="12.6829717"><ele>513.5</ele><time>2026-04-04T13:30:12.687Z</time></trkpt><trkpt lat="43.6699317" lon="12.683035"><ele>514.25</ele><time>2026-04-04T13:30:13.688Z</time></trkpt><trkpt lat="43.67004" lon="12.6831"><ele>515.0</ele><time>2026-04-04T13:30:14.689Z</time></trkpt><trkpt lat="43.6701433" lon="12.6831783"><ele>515.0</ele><time>2026-04-04T13:30:15.689Z</time></trkpt><trkpt lat="43.670235" lon="12.683255"><ele>515.0</ele><time>2026-04-04T13:30:16.688Z</time></trkpt><trkpt lat="43.6704017" lon="12.68341"><ele>515.0</ele><time>2026-04-04T13:30:18.688Z</time></trkpt><trkpt lat="43.6704767" lon="12.6835067"><ele>515.0</ele><time>2026-04-04T13:30:19.691Z</time></trkpt><trkpt lat="43.670545" lon="12.68361"><ele>513.6</ele><time>2026-04-04T13:30:20.688Z</time></trkpt><trkpt lat="43.6706133" lon="12.6837117"><ele>512.2</ele><time>2026-04-04T13:30:21.688Z</time></trkpt><trkpt lat="43.6706917" lon="12.6838133"><ele>510.79999999999995</ele><time>2026-04-04T13:30:22.689Z</time></trkpt><trkpt lat="43.6707717" lon="12.683905"><ele>509.4</ele><time>2026-04-04T13:30:23.688Z</time></trkpt><trkpt lat="43.6708483" lon="12.6839933"><ele>508.0</ele><time>2026-04-04T13:30:24.689Z</time></trkpt><trkpt lat="43.6709167" lon="12.6840817"><ele>508.0</ele><time>2026-04-04T13:30:25.689Z</time></trkpt><trkpt lat="43.6709767" lon="12.6841717"><ele>507.99999999999994</ele><time>2026-04-04T13:30:26.688Z</time></trkpt><trkpt lat="43.6710333" lon="12.684265"><ele>507.99999999999994</ele><time>2026-04-04T13:30:27.686Z</time></trkpt><trkpt lat="43.6710883" lon="12.684365"><ele>508.0</ele><time>2026-04-04T13:30:28.688Z</time></trkpt><trkpt lat="43.671145" lon="12.684465"><ele>508.0</ele><time>2026-04-04T13:30:29.688Z</time></trkpt><trkpt lat="43.671205" lon="12.6845617"><ele>505.0</ele><time>2026-04-04T13:30:30.689Z</time></trkpt><trkpt lat="43.6712633" lon="12.6846533"><ele>501.99999999999994</ele><time>2026-04-04T13:30:31.689Z</time></trkpt><trkpt lat="43.6713267" lon="12.6847417"><ele>498.99999999999994</ele><time>2026-04-04T13:30:32.687Z</time></trkpt><trkpt lat="43.6713917" lon="12.6848267"><ele>496.0</ele><time>2026-04-04T13:30:33.687Z</time></trkpt><trkpt lat="43.6714567" lon="12.6849117"><ele>493.0</ele><time>2026-04-04T13:30:34.688Z</time></trkpt><trkpt lat="43.67152" lon="12.685005"><ele>493.0</ele><time>2026-04-04T13:30:35.689Z</time></trkpt><trkpt lat="43.6715817" lon="12.6851"><ele>492.99999999999994</ele><time>2026-04-04T13:30:36.688Z</time></trkpt><trkpt lat="43.6716417" lon="12.6851933"><ele>492.99999999999994</ele><time>2026-04-04T13:30:37.689Z</time></trkpt><trkpt lat="43.6717517" lon="12.6853983"><ele>493.0</ele><time>2026-04-04T13:30:39.686Z</time></trkpt><trkpt lat="43.6717867" lon="12.685495"><ele>493.0</ele><time>2026-04-04T13:30:40.688Z</time></trkpt><trkpt lat="43.6718067" lon="12.6855783"><ele>493.4</ele><time>2026-04-04T13:30:41.689Z</time></trkpt><trkpt lat="43.67186" lon="12.6857"><ele>493.79999999999995</ele><time>2026-04-04T13:30:43.691Z</time></trkpt><trkpt lat="43.6719417" lon="12.6857333"><ele>494.2</ele><time>2026-04-04T13:30:45.688Z</time></trkpt><trkpt lat="43.6720333" lon="12.68567"><ele>494.6</ele><time>2026-04-04T13:30:47.69Z</time></trkpt><trkpt lat="43.6720883" lon="12.68553"><ele>495.0</ele><time>2026-04-04T13:30:49.69Z</time></trkpt><trkpt lat="43.6720967" lon="12.68544"><ele>492.0</ele><time>2026-04-04T13:30:50.688Z</time></trkpt><trkpt lat="43.672095" lon="12.68535"><ele>489.0</ele><time>2026-04-04T13:30:51.69Z</time></trkpt><trkpt lat="43.6720583" lon="12.6851767"><ele>486.0</ele><time>2026-04-04T13:30:53.69Z</time></trkpt><trkpt lat="43.6720333" lon="12.6850733"><ele>483.0</ele><time>2026-04-04T13:30:54.689Z</time></trkpt><trkpt lat="43.6720117" lon="12.6849583"><ele>480.0</ele><time>2026-04-04T13:30:55.689Z</time></trkpt><trkpt lat="43.6719917" lon="12.6848483"><ele>477.0</ele><time>2026-04-04T13:30:56.688Z</time></trkpt><trkpt lat="43.6719667" lon="12.68474"><ele>476.5</ele><time>2026-04-04T13:30:57.687Z</time></trkpt><trkpt lat="43.67195" lon="12.68463"><ele>476.0</ele><time>2026-04-04T13:30:58.687Z</time></trkpt><trkpt lat="43.6719" lon="12.6843917"><ele>475.5</ele><time>2026-04-04T13:31:00.688Z</time></trkpt><trkpt lat="43.6718683" lon="12.6842567"><ele>475.0</ele><time>2026-04-04T13:31:01.688Z</time></trkpt><trkpt lat="43.67184" lon="12.6841283"><ele>475.0</ele><time>2026-04-04T13:31:02.687Z</time></trkpt><trkpt lat="43.6718083" lon="12.684"><ele>475.0</ele><time>2026-04-04T13:31:03.687Z</time></trkpt><trkpt lat="43.67178" lon="12.6838717"><ele>475.0</ele><time>2026-04-04T13:31:04.688Z</time></trkpt><trkpt lat="43.6717517" lon="12.6837483"><ele>475.0</ele><time>2026-04-04T13:31:05.689Z</time></trkpt><trkpt lat="43.6717233" lon="12.6836333"><ele>475.0</ele><time>2026-04-04T13:31:06.687Z</time></trkpt><trkpt lat="43.6716883" lon="12.683525"><ele>475.00000000000006</ele><time>2026-04-04T13:31:07.689Z</time></trkpt><trkpt lat="43.67166" lon="12.68343"><ele>475.0</ele><time>2026-04-04T13:31:08.688Z</time></trkpt><trkpt lat="43.6716367" lon="12.6833483"><ele>475.0</ele><time>2026-04-04T13:31:09.687Z</time></trkpt><trkpt lat="43.6716183" lon="12.6831967"><ele>475.0</ele><time>2026-04-04T13:31:11.687Z</time></trkpt><trkpt lat="43.671645" lon="12.6831117"><ele>475.00000000000006</ele><time>2026-04-04T13:31:13.69Z</time></trkpt><trkpt lat="43.67175" lon="12.68319"><ele>475.0</ele><time>2026-04-04T13:31:15.688Z</time></trkpt><trkpt lat="43.6717867" lon="12.683265"><ele>475.0</ele><time>2026-04-04T13:31:16.688Z</time></trkpt><trkpt lat="43.671855" lon="12.6833817"><ele>475.0</ele><time>2026-04-04T13:31:17.689Z</time></trkpt><trkpt lat="43.671935" lon="12.68351"><ele>475.0</ele><time>2026-04-04T13:31:18.688Z</time></trkpt><trkpt lat="43.67201" lon="12.6836317"><ele>475.0</ele><time>2026-04-04T13:31:19.689Z</time></trkpt><trkpt lat="43.6721383" lon="12.6838117"><ele>473.2</ele><time>2026-04-04T13:31:21.688Z</time></trkpt><trkpt lat="43.6722117" lon="12.68388"><ele>471.4</ele><time>2026-04-04T13:31:22.687Z</time></trkpt><trkpt lat="43.6722867" lon="12.68393"><ele>469.6</ele><time>2026-04-04T13:31:23.689Z</time></trkpt><trkpt lat="43.6723717" lon="12.6839833"><ele>467.8</ele><time>2026-04-04T13:31:24.689Z</time></trkpt><trkpt lat="43.6724617" lon="12.68404"><ele>466.0</ele><time>2026-04-04T13:31:25.689Z</time></trkpt><trkpt lat="43.6725433" lon="12.6841117"><ele>466.0</ele><time>2026-04-04T13:31:26.687Z</time></trkpt><trkpt lat="43.6726233" lon="12.6841883"><ele>466.0</ele><time>2026-04-04T13:31:27.687Z</time></trkpt><trkpt lat="43.672705" lon="12.6842767"><ele>466.0</ele><time>2026-04-04T13:31:28.689Z</time></trkpt><trkpt lat="43.6727683" lon="12.684375"><ele>466.0</ele><time>2026-04-04T13:31:29.688Z</time></trkpt><trkpt lat="43.67282" lon="12.6844933"><ele>466.0</ele><time>2026-04-04T13:31:30.688Z</time></trkpt><trkpt lat="43.672875" lon="12.684625"><ele>463.25</ele><time>2026-04-04T13:31:31.69Z</time></trkpt><trkpt lat="43.6729317" lon="12.6847583"><ele>460.5</ele><time>2026-04-04T13:31:32.688Z</time></trkpt><trkpt lat="43.6729983" lon="12.6848967"><ele>457.75</ele><time>2026-04-04T13:31:33.687Z</time></trkpt><trkpt lat="43.673065" lon="12.6850333"><ele>455.0</ele><time>2026-04-04T13:31:34.687Z</time></trkpt><trkpt lat="43.67313" lon="12.6851667"><ele>456.4</ele><time>2026-04-04T13:31:35.688Z</time></trkpt><trkpt lat="43.6731933" lon="12.6852883"><ele>457.8</ele><time>2026-04-04T13:31:36.687Z</time></trkpt><trkpt lat="43.6732567" lon="12.6854017"><ele>459.20000000000005</ele><time>2026-04-04T13:31:37.689Z</time></trkpt><trkpt lat="43.67333" lon="12.6855083"><ele>460.6</ele><time>2026-04-04T13:31:38.688Z</time></trkpt><trkpt lat="43.6734133" lon="12.6856067"><ele>462.0</ele><time>2026-04-04T13:31:39.687Z</time></trkpt><trkpt lat="43.673505" lon="12.68569"><ele>460.0</ele><time>2026-04-04T13:31:40.689Z</time></trkpt><trkpt lat="43.67369" lon="12.6858483"><ele>458.0</ele><time>2026-04-04T13:31:42.688Z</time></trkpt><trkpt lat="43.6737683" lon="12.6859317"><ele>456.0</ele><time>2026-04-04T13:31:43.69Z</time></trkpt><trkpt lat="43.673835" lon="12.68603"><ele>454.0</ele><time>2026-04-04T13:31:44.688Z</time></trkpt><trkpt lat="43.6738833" lon="12.6861383"><ele>454.00000000000006</ele><time>2026-04-04T13:31:45.689Z</time></trkpt><trkpt lat="43.6739267" lon="12.6862517"><ele>454.0</ele><time>2026-04-04T13:31:46.688Z</time></trkpt><trkpt lat="43.6739617" lon="12.68637"><ele>454.0</ele><time>2026-04-04T13:31:47.689Z</time></trkpt><trkpt lat="43.67399" lon="12.6864783"><ele>454.0</ele><time>2026-04-04T13:31:48.688Z</time></trkpt><trkpt lat="43.6740167" lon="12.6865667"><ele>454.00000000000006</ele><time>2026-04-04T13:31:49.69Z</time></trkpt><trkpt lat="43.6740567" lon="12.6866667"><ele>454.0</ele><time>2026-04-04T13:31:51.688Z</time></trkpt><trkpt lat="43.674115" lon="12.6865817"><ele>454.0</ele><time>2026-04-04T13:31:54.688Z</time></trkpt><trkpt lat="43.67412" lon="12.6863967"><ele>454.0</ele><time>2026-04-04T13:31:56.688Z</time></trkpt><trkpt lat="43.6740917" lon="12.68626"><ele>454.0</ele><time>2026-04-04T13:31:57.687Z</time></trkpt><trkpt lat="43.6740733" lon="12.68614"><ele>454.0</ele><time>2026-04-04T13:31:58.687Z</time></trkpt><trkpt lat="43.6740533" lon="12.686025"><ele>454.0</ele><time>2026-04-04T13:31:59.689Z</time></trkpt><trkpt lat="43.674035" lon="12.6859167"><ele>452.0</ele><time>2026-04-04T13:32:00.688Z</time></trkpt><trkpt lat="43.6740067" lon="12.685815"><ele>450.0</ele><time>2026-04-04T13:32:01.689Z</time></trkpt><trkpt lat="43.6739217" lon="12.6856217"><ele>448.0</ele><time>2026-04-04T13:32:03.686Z</time></trkpt><trkpt lat="43.673865" lon="12.685525"><ele>446.0</ele><time>2026-04-04T13:32:04.688Z</time></trkpt><trkpt lat="43.6737983" lon="12.6854217"><ele>444.0</ele><time>2026-04-04T13:32:05.689Z</time></trkpt><trkpt lat="43.67374" lon="12.6853133"><ele>442.0</ele><time>2026-04-04T13:32:06.69Z</time></trkpt><trkpt lat="43.6737" lon="12.6851967"><ele>440.0</ele><time>2026-04-04T13:32:07.69Z</time></trkpt><trkpt lat="43.6736717" lon="12.68508"><ele>438.0</ele><time>2026-04-04T13:32:08.687Z</time></trkpt><trkpt lat="43.6736517" lon="12.6849717"><ele>436.0</ele><time>2026-04-04T13:32:09.687Z</time></trkpt><trkpt lat="43.6736317" lon="12.684865"><ele>434.0</ele><time>2026-04-04T13:32:10.687Z</time></trkpt><trkpt lat="43.6736183" lon="12.6847617"><ele>432.0</ele><time>2026-04-04T13:32:11.691Z</time></trkpt><trkpt lat="43.6736083" lon="12.6846583"><ele>434.1666666666667</ele><time>2026-04-04T13:32:12.689Z</time></trkpt><trkpt lat="43.6736017" lon="12.684545"><ele>436.33333333333337</ele><time>2026-04-04T13:32:13.69Z</time></trkpt><trkpt lat="43.6735933" lon="12.6844283"><ele>438.5</ele><time>2026-04-04T13:32:14.688Z</time></trkpt><trkpt lat="43.6735783" lon="12.6843167"><ele>440.6666666666667</ele><time>2026-04-04T13:32:15.689Z</time></trkpt><trkpt lat="43.6735617" lon="12.684205"><ele>442.83333333333337</ele><time>2026-04-04T13:32:16.689Z</time></trkpt><trkpt lat="43.6735517" lon="12.6840833"><ele>445.0</ele><time>2026-04-04T13:32:17.689Z</time></trkpt><trkpt lat="43.6735517" lon="12.6839567"><ele>445.0</ele><time>2026-04-04T13:32:18.688Z</time></trkpt><trkpt lat="43.673555" lon="12.6838283"><ele>445.0</ele><time>2026-04-04T13:32:19.691Z</time></trkpt><trkpt lat="43.6735633" lon="12.6837067"><ele>445.0</ele><time>2026-04-04T13:32:20.687Z</time></trkpt><trkpt lat="43.67357" lon="12.68359"><ele>445.0</ele><time>2026-04-04T13:32:21.688Z</time></trkpt><trkpt lat="43.6735767" lon="12.6834767"><ele>445.0</ele><time>2026-04-04T13:32:22.689Z</time></trkpt><trkpt lat="43.6735917" lon="12.6832617"><ele>443.6</ele><time>2026-04-04T13:32:24.689Z</time></trkpt><trkpt lat="43.6735933" lon="12.6831667"><ele>442.2</ele><time>2026-04-04T13:32:25.69Z</time></trkpt><trkpt lat="43.6736167" lon="12.6830217"><ele>440.79999999999995</ele><time>2026-04-04T13:32:27.686Z</time></trkpt><trkpt lat="43.67368" lon="12.6829133"><ele>439.4</ele><time>2026-04-04T13:32:29.687Z</time></trkpt><trkpt lat="43.6737533" lon="12.6828483"><ele>438.0</ele><time>2026-04-04T13:32:31.689Z</time></trkpt><trkpt lat="43.6738617" lon="12.68279"><ele>435.1666666666667</ele><time>2026-04-04T13:32:33.69Z</time></trkpt><trkpt lat="43.6739833" lon="12.6827217"><ele>432.33333333333337</ele><time>2026-04-04T13:32:35.689Z</time></trkpt><trkpt lat="43.6740383" lon="12.6826667"><ele>429.5</ele><time>2026-04-04T13:32:36.688Z</time></trkpt><trkpt lat="43.674085" lon="12.6826017"><ele>426.6666666666667</ele><time>2026-04-04T13:32:37.691Z</time></trkpt><trkpt lat="43.6741333" lon="12.68252"><ele>423.83333333333337</ele><time>2026-04-04T13:32:38.689Z</time></trkpt><trkpt lat="43.67417" lon="12.6824133"><ele>421.0</ele><time>2026-04-04T13:32:39.686Z</time></trkpt><trkpt lat="43.6742067" lon="12.68231"><ele>421.0</ele><time>2026-04-04T13:32:40.689Z</time></trkpt><trkpt lat="43.6742383" lon="12.6821933"><ele>421.0</ele><time>2026-04-04T13:32:41.688Z</time></trkpt><trkpt lat="43.67428" lon="12.6820767"><ele>421.0</ele><time>2026-04-04T13:32:42.69Z</time></trkpt><trkpt lat="43.67431" lon="12.6819683"><ele>421.0</ele><time>2026-04-04T13:32:43.689Z</time></trkpt><trkpt lat="43.6743867" lon="12.6817617"><ele>421.0</ele><time>2026-04-04T13:32:45.689Z</time></trkpt><trkpt lat="43.6744283" lon="12.6816683"><ele>417.83333333333337</ele><time>2026-04-04T13:32:46.689Z</time></trkpt><trkpt lat="43.6744583" lon="12.681565"><ele>414.6666666666667</ele><time>2026-04-04T13:32:47.689Z</time></trkpt><trkpt lat="43.6744783" lon="12.681455"><ele>411.5</ele><time>2026-04-04T13:32:48.688Z</time></trkpt><trkpt lat="43.6744967" lon="12.6813433"><ele>408.33333333333337</ele><time>2026-04-04T13:32:49.689Z</time></trkpt><trkpt lat="43.6745167" lon="12.681235"><ele>405.1666666666667</ele><time>2026-04-04T13:32:50.687Z</time></trkpt><trkpt lat="43.6745367" lon="12.6811317"><ele>402.0</ele><time>2026-04-04T13:32:51.686Z</time></trkpt><trkpt lat="43.674555" lon="12.6810317"><ele>401.3333333333333</ele><time>2026-04-04T13:32:52.689Z</time></trkpt><trkpt lat="43.67457" lon="12.680935"><ele>400.66666666666663</ele><time>2026-04-04T13:32:53.689Z</time></trkpt><trkpt lat="43.674585" lon="12.6808483"><ele>400.0</ele><time>2026-04-04T13:32:54.689Z</time></trkpt><trkpt lat="43.6746" lon="12.68076"><ele>399.3333333333333</ele><time>2026-04-04T13:32:55.689Z</time></trkpt><trkpt lat="43.674615" lon="12.6806717"><ele>398.66666666666663</ele><time>2026-04-04T13:32:56.688Z</time></trkpt><trkpt lat="43.67464" lon="12.6805117"><ele>398.0</ele><time>2026-04-04T13:32:58.688Z</time></trkpt><trkpt lat="43.6746767" lon="12.680385"><ele>398.0</ele><time>2026-04-04T13:33:00.688Z</time></trkpt><trkpt lat="43.6747533" lon="12.6803617"><ele>398.0</ele><time>2026-04-04T13:33:02.689Z</time></trkpt><trkpt lat="43.6748583" lon="12.680485"><ele>398.0</ele><time>2026-04-04T13:33:04.687Z</time></trkpt><trkpt lat="43.6749333" lon="12.6806733"><ele>398.0</ele><time>2026-04-04T13:33:06.687Z</time></trkpt><trkpt lat="43.6749767" lon="12.6807683"><ele>397.99999999999994</ele><time>2026-04-04T13:33:07.689Z</time></trkpt><trkpt lat="43.67502" lon="12.6808533"><ele>398.0</ele><time>2026-04-04T13:33:08.69Z</time></trkpt><trkpt lat="43.6750633" lon="12.68094"><ele>398.0</ele><time>2026-04-04T13:33:09.686Z</time></trkpt><trkpt lat="43.675115" lon="12.6810333"><ele>398.0</ele><time>2026-04-04T13:33:10.687Z</time></trkpt><trkpt lat="43.6751683" lon="12.6811267"><ele>397.99999999999994</ele><time>2026-04-04T13:33:11.689Z</time></trkpt><trkpt lat="43.6752167" lon="12.681215"><ele>398.0</ele><time>2026-04-04T13:33:12.688Z</time></trkpt><trkpt lat="43.6752617" lon="12.681305"><ele>396.99999999999994</ele><time>2026-04-04T13:33:13.689Z</time></trkpt><trkpt lat="43.6752967" lon="12.68139"><ele>396.0</ele><time>2026-04-04T13:33:14.688Z</time></trkpt><trkpt lat="43.6753333" lon="12.6814617"><ele>395.0</ele><time>2026-04-04T13:33:15.689Z</time></trkpt><trkpt lat="43.6754183" lon="12.6815333"><ele>394.0</ele><time>2026-04-04T13:33:17.689Z</time></trkpt><trkpt lat="43.6755317" lon="12.6814983"><ele>392.99999999999994</ele><time>2026-04-04T13:33:19.69Z</time></trkpt><trkpt lat="43.6755833" lon="12.6814483"><ele>392.0</ele><time>2026-04-04T13:33:20.689Z</time></trkpt><trkpt lat="43.67564" lon="12.681395"><ele>392.0</ele><time>2026-04-04T13:33:21.689Z</time></trkpt><trkpt lat="43.6757033" lon="12.6813467"><ele>392.0</ele><time>2026-04-04T13:33:22.689Z</time></trkpt><trkpt lat="43.6757667" lon="12.681305"><ele>392.0</ele><time>2026-04-04T13:33:23.688Z</time></trkpt><trkpt lat="43.6758383" lon="12.6812883"><ele>392.0</ele><time>2026-04-04T13:33:24.689Z</time></trkpt><trkpt lat="43.67592" lon="12.6812883"><ele>392.0</ele><time>2026-04-04T13:33:25.689Z</time></trkpt><trkpt lat="43.6760983" lon="12.6813033"><ele>392.8</ele><time>2026-04-04T13:33:27.688Z</time></trkpt><trkpt lat="43.6761933" lon="12.6813133"><ele>393.6</ele><time>2026-04-04T13:33:28.689Z</time></trkpt><trkpt lat="43.6762783" lon="12.6813233"><ele>394.40000000000003</ele><time>2026-04-04T13:33:29.689Z</time></trkpt><trkpt lat="43.6763667" lon="12.6813333"><ele>395.20000000000005</ele><time>2026-04-04T13:33:30.688Z</time></trkpt><trkpt lat="43.6764683" lon="12.68135"><ele>396.0</ele><time>2026-04-04T13:33:31.691Z</time></trkpt><trkpt lat="43.676565" lon="12.681365"><ele>396.0</ele><time>2026-04-04T13:33:32.687Z</time></trkpt><trkpt lat="43.6766683" lon="12.68139"><ele>396.0</ele><time>2026-04-04T13:33:33.689Z</time></trkpt><trkpt lat="43.676755" lon="12.68142"><ele>396.0</ele><time>2026-04-04T13:33:34.687Z</time></trkpt><trkpt lat="43.6768483" lon="12.6814567"><ele>396.0</ele><time>2026-04-04T13:33:35.689Z</time></trkpt><trkpt lat="43.6769383" lon="12.6815"><ele>396.0</ele><time>2026-04-04T13:33:36.689Z</time></trkpt><trkpt lat="43.6770367" lon="12.6815583"><ele>397.5</ele><time>2026-04-04T13:33:37.689Z</time></trkpt><trkpt lat="43.6771167" lon="12.681655"><ele>399.0</ele><time>2026-04-04T13:33:38.688Z</time></trkpt><trkpt lat="43.6772" lon="12.68179"><ele>400.5</ele><time>2026-04-04T13:33:39.686Z</time></trkpt><trkpt lat="43.677285" lon="12.6819467"><ele>402.0</ele><time>2026-04-04T13:33:40.688Z</time></trkpt><trkpt lat="43.67737" lon="12.6821033"><ele>402.0</ele><time>2026-04-04T13:33:41.691Z</time></trkpt><trkpt lat="43.6774483" lon="12.682245"><ele>402.0</ele><time>2026-04-04T13:33:42.689Z</time></trkpt><trkpt lat="43.677515" lon="12.6823683"><ele>402.0</ele><time>2026-04-04T13:33:43.691Z</time></trkpt><trkpt lat="43.67758" lon="12.6824667"><ele>402.0</ele><time>2026-04-04T13:33:44.687Z</time></trkpt><trkpt lat="43.6776533" lon="12.68255"><ele>402.0</ele><time>2026-04-04T13:33:45.689Z</time></trkpt><trkpt lat="43.6777283" lon="12.6826267"><ele>399.75</ele><time>2026-04-04T13:33:46.688Z</time></trkpt><trkpt lat="43.6778967" lon="12.6827833"><ele>397.5</ele><time>2026-04-04T13:33:48.688Z</time></trkpt><trkpt lat="43.6779933" lon="12.68285"><ele>395.25</ele><time>2026-04-04T13:33:49.687Z</time></trkpt><trkpt lat="43.6780967" lon="12.6829067"><ele>393.0</ele><time>2026-04-04T13:33:50.689Z</time></trkpt><trkpt lat="43.6782033" lon="12.682955"><ele>393.0</ele><time>2026-04-04T13:33:51.687Z</time></trkpt><trkpt lat="43.67832" lon="12.6829967"><ele>393.0</ele><time>2026-04-04T13:33:52.688Z</time></trkpt><trkpt lat="43.6784367" lon="12.6830333"><ele>393.0</ele><time>2026-04-04T13:33:53.689Z</time></trkpt><trkpt lat="43.6785583" lon="12.6830667"><ele>393.0</ele><time>2026-04-04T13:33:54.686Z</time></trkpt><trkpt lat="43.6786767" lon="12.683105"><ele>394.25</ele><time>2026-04-04T13:33:55.689Z</time></trkpt><trkpt lat="43.6787983" lon="12.6831467"><ele>395.5</ele><time>2026-04-04T13:33:56.687Z</time></trkpt><trkpt lat="43.6789333" lon="12.6831833"><ele>396.75</ele><time>2026-04-04T13:33:57.686Z</time></trkpt><trkpt lat="43.6790767" lon="12.68322"><ele>398.0</ele><time>2026-04-04T13:33:58.689Z</time></trkpt><trkpt lat="43.6792133" lon="12.6832567"><ele>398.0</ele><time>2026-04-04T13:33:59.687Z</time></trkpt><trkpt lat="43.6793567" lon="12.683305"><ele>398.0</ele><time>2026-04-04T13:34:00.688Z</time></trkpt><trkpt lat="43.6794917" lon="12.683355"><ele>398.0</ele><time>2026-04-04T13:34:01.69Z</time></trkpt><trkpt lat="43.6796217" lon="12.6833983"><ele>398.0</ele><time>2026-04-04T13:34:02.687Z</time></trkpt><trkpt lat="43.67975" lon="12.683435"><ele>400.25</ele><time>2026-04-04T13:34:03.686Z</time></trkpt><trkpt lat="43.67988" lon="12.683475"><ele>402.5</ele><time>2026-04-04T13:34:04.687Z</time></trkpt><trkpt lat="43.6800017" lon="12.6835133"><ele>404.75</ele><time>2026-04-04T13:34:05.689Z</time></trkpt><trkpt lat="43.68012" lon="12.68356"><ele>407.0</ele><time>2026-04-04T13:34:06.688Z</time></trkpt><trkpt lat="43.6802317" lon="12.68362"><ele>400.0</ele><time>2026-04-04T13:34:07.688Z</time></trkpt><trkpt lat="43.6804267" lon="12.6837767"><ele>393.0</ele><time>2026-04-04T13:34:09.687Z</time></trkpt><trkpt lat="43.6805083" lon="12.6838417"><ele>386.0</ele><time>2026-04-04T13:34:10.688Z</time></trkpt><trkpt lat="43.68058" lon="12.683895"><ele>379.0</ele><time>2026-04-04T13:34:11.69Z</time></trkpt><trkpt lat="43.680645" lon="12.6839217"><ele>379.0</ele><time>2026-04-04T13:34:12.689Z</time></trkpt><trkpt lat="43.680745" lon="12.6838833"><ele>379.0</ele><time>2026-04-04T13:34:14.689Z</time></trkpt><trkpt lat="43.68081" lon="12.6838267"><ele>379.0</ele><time>2026-04-04T13:34:15.688Z</time></trkpt><trkpt lat="43.6808917" lon="12.6837583"><ele>379.0</ele><time>2026-04-04T13:34:16.688Z</time></trkpt><trkpt lat="43.6809883" lon="12.683675"><ele>379.0</ele><time>2026-04-04T13:34:17.687Z</time></trkpt><trkpt lat="43.6810933" lon="12.683585"><ele>378.75</ele><time>2026-04-04T13:34:18.686Z</time></trkpt><trkpt lat="43.6811983" lon="12.6834933"><ele>378.5</ele><time>2026-04-04T13:34:19.689Z</time></trkpt><trkpt lat="43.6813033" lon="12.68341"><ele>378.25</ele><time>2026-04-04T13:34:20.687Z</time></trkpt><trkpt lat="43.6814033" lon="12.68333"><ele>378.0</ele><time>2026-04-04T13:34:21.686Z</time></trkpt><trkpt lat="43.6815017" lon="12.6832583"><ele>378.0</ele><time>2026-04-04T13:34:22.689Z</time></trkpt><trkpt lat="43.6816" lon="12.683185"><ele>378.0</ele><time>2026-04-04T13:34:23.688Z</time></trkpt><trkpt lat="43.6816883" lon="12.6831067"><ele>378.0</ele><time>2026-04-04T13:34:24.689Z</time></trkpt><trkpt lat="43.681775" lon="12.683025"><ele>378.0</ele><time>2026-04-04T13:34:25.69Z</time></trkpt><trkpt lat="43.68186" lon="12.6829467"><ele>378.0</ele><time>2026-04-04T13:34:26.687Z</time></trkpt><trkpt lat="43.6819483" lon="12.6828767"><ele>376.5</ele><time>2026-04-04T13:34:27.687Z</time></trkpt><trkpt lat="43.68204" lon="12.6828117"><ele>375.0</ele><time>2026-04-04T13:34:28.688Z</time></trkpt><trkpt lat="43.6822317" lon="12.6827417"><ele>373.5</ele><time>2026-04-04T13:34:30.688Z</time></trkpt><trkpt lat="43.6823283" lon="12.6827417"><ele>372.0</ele><time>2026-04-04T13:34:31.691Z</time></trkpt><trkpt lat="43.6824133" lon="12.6827567"><ele>371.1666666666667</ele><time>2026-04-04T13:34:32.689Z</time></trkpt><trkpt lat="43.6824883" lon="12.682775"><ele>370.3333333333333</ele><time>2026-04-04T13:34:33.687Z</time></trkpt><trkpt lat="43.6825717" lon="12.6827917"><ele>369.5</ele><time>2026-04-04T13:34:35.69Z</time></trkpt><trkpt lat="43.6825433" lon="12.6828717"><ele>368.66666666666663</ele><time>2026-04-04T13:34:38.688Z</time></trkpt><trkpt lat="43.6824617" lon="12.6829317"><ele>367.8333333333333</ele><time>2026-04-04T13:34:40.689Z</time></trkpt><trkpt lat="43.682355" lon="12.6830183"><ele>367.0</ele><time>2026-04-04T13:34:42.689Z</time></trkpt><trkpt lat="43.6823" lon="12.6830733"><ele>367.0</ele><time>2026-04-04T13:34:43.692Z</time></trkpt><trkpt lat="43.6822433" lon="12.6831467"><ele>367.0</ele><time>2026-04-04T13:34:44.689Z</time></trkpt><trkpt lat="43.68219" lon="12.683235"><ele>367.0</ele><time>2026-04-04T13:34:45.688Z</time></trkpt><trkpt lat="43.6821417" lon="12.6833333"><ele>367.0</ele><time>2026-04-04T13:34:46.686Z</time></trkpt><trkpt lat="43.68209" lon="12.6834483"><ele>367.0</ele><time>2026-04-04T13:34:47.689Z</time></trkpt><trkpt lat="43.6820467" lon="12.6835767"><ele>367.0</ele><time>2026-04-04T13:34:48.689Z</time></trkpt><trkpt lat="43.68201" lon="12.6837067"><ele>364.75</ele><time>2026-04-04T13:34:49.691Z</time></trkpt><trkpt lat="43.6819367" lon="12.683955"><ele>362.5</ele><time>2026-04-04T13:34:51.689Z</time></trkpt><trkpt lat="43.6819067" lon="12.6840717"><ele>360.25</ele><time>2026-04-04T13:34:52.688Z</time></trkpt><trkpt lat="43.6818733" lon="12.6841833"><ele>358.0</ele><time>2026-04-04T13:34:53.689Z</time></trkpt><trkpt lat="43.6818333" lon="12.68429"><ele>358.0</ele><time>2026-04-04T13:34:54.691Z</time></trkpt><trkpt lat="43.6817867" lon="12.68439"><ele>358.0</ele><time>2026-04-04T13:34:55.689Z</time></trkpt><trkpt lat="43.68173" lon="12.684485"><ele>358.0</ele><time>2026-04-04T13:34:56.689Z</time></trkpt><trkpt lat="43.681665" lon="12.68457"><ele>358.0</ele><time>2026-04-04T13:34:57.687Z</time></trkpt><trkpt lat="43.681605" lon="12.684665"><ele>358.0</ele><time>2026-04-04T13:34:58.69Z</time></trkpt><trkpt lat="43.6815567" lon="12.6847717"><ele>358.0</ele><time>2026-04-04T13:34:59.687Z</time></trkpt><trkpt lat="43.68153" lon="12.68489"><ele>355.8333333333333</ele><time>2026-04-04T13:35:00.689Z</time></trkpt><trkpt lat="43.68151" lon="12.68501"><ele>353.66666666666663</ele><time>2026-04-04T13:35:01.688Z</time></trkpt><trkpt lat="43.6814917" lon="12.6851267"><ele>351.5</ele><time>2026-04-04T13:35:02.687Z</time></trkpt><trkpt lat="43.6814617" lon="12.6852283"><ele>349.3333333333333</ele><time>2026-04-04T13:35:03.686Z</time></trkpt><trkpt lat="43.6814167" lon="12.6853067"><ele>347.1666666666667</ele><time>2026-04-04T13:35:04.69Z</time></trkpt><trkpt lat="43.6813567" lon="12.68537"><ele>345.0</ele><time>2026-04-04T13:35:05.689Z</time></trkpt><trkpt lat="43.6812817" lon="12.6854383"><ele>345.0</ele><time>2026-04-04T13:35:06.689Z</time></trkpt><trkpt lat="43.6811967" lon="12.68552"><ele>345.0</ele><time>2026-04-04T13:35:07.689Z</time></trkpt><trkpt lat="43.6811017" lon="12.685615"><ele>345.0</ele><time>2026-04-04T13:35:08.688Z</time></trkpt><trkpt lat="43.6809983" lon="12.68571"><ele>345.0</ele><time>2026-04-04T13:35:09.687Z</time></trkpt><trkpt lat="43.6808933" lon="12.6857983"><ele>345.0</ele><time>2026-04-04T13:35:10.689Z</time></trkpt><trkpt lat="43.6806883" lon="12.68597"><ele>345.0</ele><time>2026-04-04T13:35:12.689Z</time></trkpt><trkpt lat="43.6805883" lon="12.6860517"><ele>345.0</ele><time>2026-04-04T13:35:13.69Z</time></trkpt><trkpt lat="43.6804933" lon="12.6861367"><ele>342.2</ele><time>2026-04-04T13:35:14.688Z</time></trkpt><trkpt lat="43.680405" lon="12.6862217"><ele>339.4</ele><time>2026-04-04T13:35:15.687Z</time></trkpt><trkpt lat="43.6803167" lon="12.6863033"><ele>336.6</ele><time>2026-04-04T13:35:16.689Z</time></trkpt><trkpt lat="43.6802333" lon="12.68639"><ele>333.8</ele><time>2026-04-04T13:35:17.689Z</time></trkpt><trkpt lat="43.680155" lon="12.6864617"><ele>331.0</ele><time>2026-04-04T13:35:18.688Z</time></trkpt><trkpt lat="43.6800817" lon="12.68652"><ele>331.0</ele><time>2026-04-04T13:35:19.689Z</time></trkpt><trkpt lat="43.6800117" lon="12.68656"><ele>331.0</ele><time>2026-04-04T13:35:20.688Z</time></trkpt><trkpt lat="43.6799467" lon="12.686575"><ele>331.0</ele><time>2026-04-04T13:35:21.688Z</time></trkpt><trkpt lat="43.6798833" lon="12.686565"><ele>331.0</ele><time>2026-04-04T13:35:22.69Z</time></trkpt><trkpt lat="43.6798183" lon="12.6865317"><ele>331.0</ele><time>2026-04-04T13:35:23.69Z</time></trkpt><trkpt lat="43.6797467" lon="12.6865083"><ele>331.0</ele><time>2026-04-04T13:35:24.69Z</time></trkpt><trkpt lat="43.6796817" lon="12.6865033"><ele>331.0</ele><time>2026-04-04T13:35:25.689Z</time></trkpt><trkpt lat="43.6796133" lon="12.6865167"><ele>331.0</ele><time>2026-04-04T13:35:26.69Z</time></trkpt><trkpt lat="43.6795433" lon="12.6865517"><ele>331.0</ele><time>2026-04-04T13:35:27.688Z</time></trkpt><trkpt lat="43.6794617" lon="12.6866283"><ele>331.0</ele><time>2026-04-04T13:35:28.69Z</time></trkpt><trkpt lat="43.6793833" lon="12.6866983"><ele>331.0</ele><time>2026-04-04T13:35:29.691Z</time></trkpt><trkpt lat="43.67932" lon="12.6867733"><ele>331.0</ele><time>2026-04-04T13:35:30.691Z</time></trkpt><trkpt lat="43.6792717" lon="12.68687"><ele>331.0</ele><time>2026-04-04T13:35:31.69Z</time></trkpt><trkpt lat="43.6792333" lon="12.6871033"><ele>330.8</ele><time>2026-04-04T13:35:33.688Z</time></trkpt><trkpt lat="43.6792617" lon="12.6872317"><ele>330.6</ele><time>2026-04-04T13:35:34.691Z</time></trkpt><trkpt lat="43.6793267" lon="12.687355"><ele>330.4</ele><time>2026-04-04T13:35:35.689Z</time></trkpt><trkpt lat="43.679405" lon="12.687465"><ele>330.2</ele><time>2026-04-04T13:35:36.689Z</time></trkpt><trkpt lat="43.6794917" lon="12.68757"><ele>330.0</ele><time>2026-04-04T13:35:37.691Z</time></trkpt><trkpt lat="43.6795833" lon="12.68767"><ele>330.0</ele><time>2026-04-04T13:35:38.69Z</time></trkpt><trkpt lat="43.679675" lon="12.6877567"><ele>330.0</ele><time>2026-04-04T13:35:39.688Z</time></trkpt><trkpt lat="43.6797683" lon="12.6878167"><ele>330.0</ele><time>2026-04-04T13:35:40.688Z</time></trkpt><trkpt lat="43.67987" lon="12.6878417"><ele>330.0</ele><time>2026-04-04T13:35:41.693Z</time></trkpt><trkpt lat="43.6799917" lon="12.6878533"><ele>330.0</ele><time>2026-04-04T13:35:42.691Z</time></trkpt><trkpt lat="43.68012" lon="12.6878583"><ele>333.25</ele><time>2026-04-04T13:35:43.691Z</time></trkpt><trkpt lat="43.68025" lon="12.6878717"><ele>336.5</ele><time>2026-04-04T13:35:44.688Z</time></trkpt><trkpt lat="43.6803783" lon="12.687885"><ele>339.75</ele><time>2026-04-04T13:35:45.69Z</time></trkpt><trkpt lat="43.6805117" lon="12.6879"><ele>343.0</ele><time>2026-04-04T13:35:46.69Z</time></trkpt><trkpt lat="43.6806383" lon="12.6879033"><ele>343.0</ele><time>2026-04-04T13:35:47.691Z</time></trkpt><trkpt lat="43.6807517" lon="12.6878917"><ele>343.0</ele><time>2026-04-04T13:35:48.69Z</time></trkpt><trkpt lat="43.6808517" lon="12.68789"><ele>343.0</ele><time>2026-04-04T13:35:49.69Z</time></trkpt><trkpt lat="43.680925" lon="12.6879067"><ele>343.0</ele><time>2026-04-04T13:35:50.691Z</time></trkpt><trkpt lat="43.6809883" lon="12.6879533"><ele>343.0</ele><time>2026-04-04T13:35:51.689Z</time></trkpt><trkpt lat="43.681065" lon="12.68811"><ele>335.75</ele><time>2026-04-04T13:35:53.691Z</time></trkpt><trkpt lat="43.6811383" lon="12.6883517"><ele>328.5</ele><time>2026-04-04T13:35:55.692Z</time></trkpt><trkpt lat="43.6811717" lon="12.688485"><ele>321.25</ele><time>2026-04-04T13:35:56.688Z</time></trkpt><trkpt lat="43.6811867" lon="12.6886183"><ele>314.0</ele><time>2026-04-04T13:35:57.688Z</time></trkpt><trkpt lat="43.6811817" lon="12.6887567"><ele>313.75</ele><time>2026-04-04T13:35:58.691Z</time></trkpt><trkpt lat="43.6811533" lon="12.6888983"><ele>313.5</ele><time>2026-04-04T13:35:59.69Z</time></trkpt><trkpt lat="43.6811117" lon="12.68904"><ele>313.25</ele><time>2026-04-04T13:36:00.69Z</time></trkpt><trkpt lat="43.6810683" lon="12.6891933"><ele>313.0</ele><time>2026-04-04T13:36:01.69Z</time></trkpt><trkpt lat="43.6810283" lon="12.6893567"><ele>322.8</ele><time>2026-04-04T13:36:02.689Z</time></trkpt><trkpt lat="43.6810017" lon="12.68952"><ele>332.6</ele><time>2026-04-04T13:36:03.688Z</time></trkpt><trkpt lat="43.6809817" lon="12.6896683"><ele>342.40000000000003</ele><time>2026-04-04T13:36:04.689Z</time></trkpt><trkpt lat="43.6809783" lon="12.6898067"><ele>352.20000000000005</ele><time>2026-04-04T13:36:05.689Z</time></trkpt><trkpt lat="43.6809933" lon="12.6899317"><ele>362.0</ele><time>2026-04-04T13:36:06.69Z</time></trkpt><trkpt lat="43.6810217" lon="12.6900533"><ele>362.0</ele><time>2026-04-04T13:36:07.689Z</time></trkpt><trkpt lat="43.6810617" lon="12.6901717"><ele>362.0</ele><time>2026-04-04T13:36:08.688Z</time></trkpt><trkpt lat="43.6810967" lon="12.690285"><ele>362.0</ele><time>2026-04-04T13:36:09.69Z</time></trkpt><trkpt lat="43.6811133" lon="12.6903967"><ele>362.0</ele><time>2026-04-04T13:36:10.689Z</time></trkpt><trkpt lat="43.68113" lon="12.69052"><ele>362.0</ele><time>2026-04-04T13:36:11.687Z</time></trkpt><trkpt lat="43.6811217" lon="12.690655"><ele>362.0</ele><time>2026-04-04T13:36:12.688Z</time></trkpt><trkpt lat="43.6811067" lon="12.6908133"><ele>362.0</ele><time>2026-04-04T13:36:13.691Z</time></trkpt><trkpt lat="43.6810833" lon="12.6909783"><ele>362.0</ele><time>2026-04-04T13:36:14.687Z</time></trkpt><trkpt lat="43.6810367" lon="12.6913083"><ele>360.5</ele><time>2026-04-04T13:36:16.686Z</time></trkpt><trkpt lat="43.6810117" lon="12.6914733"><ele>359.0</ele><time>2026-04-04T13:36:17.689Z</time></trkpt><trkpt lat="43.680995" lon="12.691635"><ele>357.5</ele><time>2026-04-04T13:36:18.686Z</time></trkpt><trkpt lat="43.6809833" lon="12.6917883"><ele>356.0</ele><time>2026-04-04T13:36:19.69Z</time></trkpt><trkpt lat="43.680975" lon="12.6919317"><ele>354.0</ele><time>2026-04-04T13:36:20.689Z</time></trkpt><trkpt lat="43.6809633" lon="12.6920617"><ele>352.0</ele><time>2026-04-04T13:36:21.689Z</time></trkpt><trkpt lat="43.680935" lon="12.69218"><ele>350.0</ele><time>2026-04-04T13:36:22.689Z</time></trkpt><trkpt lat="43.680895" lon="12.692305"><ele>348.0</ele><time>2026-04-04T13:36:23.689Z</time></trkpt><trkpt lat="43.6808433" lon="12.6924267"><ele>346.0</ele><time>2026-04-04T13:36:24.688Z</time></trkpt><trkpt lat="43.6807867" lon="12.6925533"><ele>346.0</ele><time>2026-04-04T13:36:25.688Z</time></trkpt><trkpt lat="43.6807317" lon="12.6926683"><ele>346.0</ele><time>2026-04-04T13:36:26.688Z</time></trkpt><trkpt lat="43.68068" lon="12.6927883"><ele>346.0</ele><time>2026-04-04T13:36:27.689Z</time></trkpt><trkpt lat="43.6806333" lon="12.6928983"><ele>346.0</ele><time>2026-04-04T13:36:28.688Z</time></trkpt><trkpt lat="43.6805917" lon="12.693"><ele>346.0</ele><time>2026-04-04T13:36:29.688Z</time></trkpt><trkpt lat="43.6805583" lon="12.6930967"><ele>342.8</ele><time>2026-04-04T13:36:30.687Z</time></trkpt><trkpt lat="43.6805333" lon="12.6931833"><ele>339.6</ele><time>2026-04-04T13:36:31.687Z</time></trkpt><trkpt lat="43.6805333" lon="12.6932867"><ele>336.4</ele><time>2026-04-04T13:36:33.688Z</time></trkpt><trkpt lat="43.6805933" lon="12.6933267"><ele>333.2</ele><time>2026-04-04T13:36:35.689Z</time></trkpt><trkpt lat="43.6807383" lon="12.6932167"><ele>330.0</ele><time>2026-04-04T13:36:38.687Z</time></trkpt><trkpt lat="43.6808283" lon="12.6930767"><ele>330.0</ele><time>2026-04-04T13:36:40.686Z</time></trkpt><trkpt lat="43.68087" lon="12.6929933"><ele>330.0</ele><time>2026-04-04T13:36:41.687Z</time></trkpt><trkpt lat="43.6809117" lon="12.69291"><ele>330.0</ele><time>2026-04-04T13:36:42.687Z</time></trkpt><trkpt lat="43.6809533" lon="12.6928283"><ele>330.0</ele><time>2026-04-04T13:36:43.689Z</time></trkpt><trkpt lat="43.6810117" lon="12.6927567"><ele>330.0</ele><time>2026-04-04T13:36:44.688Z</time></trkpt><trkpt lat="43.681075" lon="12.69269"><ele>330.0</ele><time>2026-04-04T13:36:45.687Z</time></trkpt><trkpt lat="43.6811517" lon="12.69264"><ele>328.8</ele><time>2026-04-04T13:36:46.688Z</time></trkpt><trkpt lat="43.681235" lon="12.69261"><ele>327.6</ele><time>2026-04-04T13:36:47.688Z</time></trkpt><trkpt lat="43.681335" lon="12.692595"><ele>326.4</ele><time>2026-04-04T13:36:48.688Z</time></trkpt><trkpt lat="43.681435" lon="12.6925867"><ele>325.2</ele><time>2026-04-04T13:36:49.691Z</time></trkpt><trkpt lat="43.6815367" lon="12.6925783"><ele>324.0</ele><time>2026-04-04T13:36:50.687Z</time></trkpt><trkpt lat="43.68164" lon="12.6925617"><ele>324.0</ele><time>2026-04-04T13:36:51.686Z</time></trkpt><trkpt lat="43.6817483" lon="12.6925383"><ele>324.0</ele><time>2026-04-04T13:36:52.686Z</time></trkpt><trkpt lat="43.6818517" lon="12.6925067"><ele>324.0</ele><time>2026-04-04T13:36:53.687Z</time></trkpt><trkpt lat="43.68195" lon="12.6924783"><ele>324.0</ele><time>2026-04-04T13:36:54.689Z</time></trkpt><trkpt lat="43.6820517" lon="12.6924633"><ele>324.0</ele><time>2026-04-04T13:36:55.691Z</time></trkpt><trkpt lat="43.6821483" lon="12.6924617"><ele>322.25</ele><time>2026-04-04T13:36:56.689Z</time></trkpt><trkpt lat="43.6823233" lon="12.692515"><ele>320.5</ele><time>2026-04-04T13:36:58.687Z</time></trkpt><trkpt lat="43.68238" lon="12.692595"><ele>318.75</ele><time>2026-04-04T13:36:59.688Z</time></trkpt><trkpt lat="43.68243" lon="12.6926983"><ele>317.0</ele><time>2026-04-04T13:37:00.687Z</time></trkpt><trkpt lat="43.6824717" lon="12.6928367"><ele>315.4</ele><time>2026-04-04T13:37:01.688Z</time></trkpt><trkpt lat="43.6825117" lon="12.6929783"><ele>313.79999999999995</ele><time>2026-04-04T13:37:02.692Z</time></trkpt><trkpt lat="43.6825467" lon="12.6931233"><ele>312.2</ele><time>2026-04-04T13:37:03.688Z</time></trkpt><trkpt lat="43.6825833" lon="12.6932583"><ele>310.59999999999997</ele><time>2026-04-04T13:37:04.688Z</time></trkpt><trkpt lat="43.6826167" lon="12.69338"><ele>309.0</ele><time>2026-04-04T13:37:05.688Z</time></trkpt><trkpt lat="43.6826517" lon="12.693495"><ele>306.6666666666667</ele><time>2026-04-04T13:37:06.688Z</time></trkpt><trkpt lat="43.6826933" lon="12.6936017"><ele>304.3333333333333</ele><time>2026-04-04T13:37:07.689Z</time></trkpt><trkpt lat="43.6827433" lon="12.6936967"><ele>302.0</ele><time>2026-04-04T13:37:08.688Z</time></trkpt><trkpt lat="43.6827967" lon="12.6937817"><ele>299.66666666666663</ele><time>2026-04-04T13:37:09.687Z</time></trkpt><trkpt lat="43.6828583" lon="12.6938617"><ele>297.3333333333333</ele><time>2026-04-04T13:37:10.688Z</time></trkpt><trkpt lat="43.6829233" lon="12.6939333"><ele>295.0</ele><time>2026-04-04T13:37:11.689Z</time></trkpt><trkpt lat="43.68299" lon="12.693995"><ele>295.0</ele><time>2026-04-04T13:37:12.688Z</time></trkpt><trkpt lat="43.6830583" lon="12.6940433"><ele>295.0</ele><time>2026-04-04T13:37:13.691Z</time></trkpt><trkpt lat="43.6831217" lon="12.6940767"><ele>295.0</ele><time>2026-04-04T13:37:14.688Z</time></trkpt><trkpt lat="43.683215" lon="12.69413"><ele>295.0</ele><time>2026-04-04T13:37:16.685Z</time></trkpt><trkpt lat="43.68327" lon="12.6942167"><ele>295.0</ele><time>2026-04-04T13:37:18.688Z</time></trkpt><trkpt lat="43.683185" lon="12.6943733"><ele>295.0</ele><time>2026-04-04T13:37:22.686Z</time></trkpt><trkpt lat="43.68311" lon="12.694355"><ele>295.0</ele><time>2026-04-04T13:37:23.689Z</time></trkpt><trkpt lat="43.68304" lon="12.69434"><ele>295.0</ele><time>2026-04-04T13:37:24.69Z</time></trkpt><trkpt lat="43.6829417" lon="12.6943117"><ele>295.0</ele><time>2026-04-04T13:37:25.687Z</time></trkpt><trkpt lat="43.68283" lon="12.6942817"><ele>295.0</ele><time>2026-04-04T13:37:26.687Z</time></trkpt><trkpt lat="43.682725" lon="12.6942467"><ele>293.8</ele><time>2026-04-04T13:37:27.685Z</time></trkpt><trkpt lat="43.6826217" lon="12.6942117"><ele>292.6</ele><time>2026-04-04T13:37:28.688Z</time></trkpt><trkpt lat="43.682525" lon="12.6941683"><ele>291.4</ele><time>2026-04-04T13:37:29.69Z</time></trkpt><trkpt lat="43.6824333" lon="12.6941117"><ele>290.2</ele><time>2026-04-04T13:37:30.687Z</time></trkpt><trkpt lat="43.6823483" lon="12.694055"><ele>289.0</ele><time>2026-04-04T13:37:31.689Z</time></trkpt><trkpt lat="43.6822733" lon="12.6940033"><ele>289.0</ele><time>2026-04-04T13:37:32.688Z</time></trkpt><trkpt lat="43.6821967" lon="12.69396"><ele>289.0</ele><time>2026-04-04T13:37:33.688Z</time></trkpt><trkpt lat="43.6821183" lon="12.69393"><ele>289.0</ele><time>2026-04-04T13:37:34.688Z</time></trkpt><trkpt lat="43.6820433" lon="12.6939233"><ele>289.0</ele><time>2026-04-04T13:37:35.688Z</time></trkpt><trkpt lat="43.68198" lon="12.6939467"><ele>289.0</ele><time>2026-04-04T13:37:36.687Z</time></trkpt><trkpt lat="43.6819167" lon="12.6939933"><ele>289.0</ele><time>2026-04-04T13:37:37.687Z</time></trkpt><trkpt lat="43.6818533" lon="12.694075"><ele>288.66666666666663</ele><time>2026-04-04T13:37:38.689Z</time></trkpt><trkpt lat="43.6818017" lon="12.6941617"><ele>288.3333333333333</ele><time>2026-04-04T13:37:39.688Z</time></trkpt><trkpt lat="43.68168" lon="12.6942733"><ele>288.0</ele><time>2026-04-04T13:37:41.685Z</time></trkpt><trkpt lat="43.681615" lon="12.694315"><ele>287.6666666666667</ele><time>2026-04-04T13:37:42.688Z</time></trkpt><trkpt lat="43.681555" lon="12.6943667"><ele>287.33333333333337</ele><time>2026-04-04T13:37:43.689Z</time></trkpt><trkpt lat="43.6815033" lon="12.6944333"><ele>287.0</ele><time>2026-04-04T13:37:44.688Z</time></trkpt><trkpt lat="43.6814617" lon="12.6945117"><ele>285.0</ele><time>2026-04-04T13:37:45.687Z</time></trkpt><trkpt lat="43.6814383" lon="12.6946017"><ele>283.0</ele><time>2026-04-04T13:37:46.688Z</time></trkpt><trkpt lat="43.6814283" lon="12.6947167"><ele>281.0</ele><time>2026-04-04T13:37:47.689Z</time></trkpt><trkpt lat="43.6814517" lon="12.6948517"><ele>279.0</ele><time>2026-04-04T13:37:48.688Z</time></trkpt><trkpt lat="43.6814617" lon="12.69498"><ele>277.0</ele><time>2026-04-04T13:37:49.689Z</time></trkpt><trkpt lat="43.6814733" lon="12.6951083"><ele>275.0</ele><time>2026-04-04T13:37:50.688Z</time></trkpt><trkpt lat="43.681495" lon="12.6952267"><ele>271.4</ele><time>2026-04-04T13:37:51.686Z</time></trkpt><trkpt lat="43.6814983" lon="12.6953233"><ele>267.8</ele><time>2026-04-04T13:37:52.689Z</time></trkpt><trkpt lat="43.6814483" lon="12.69545"><ele>264.2</ele><time>2026-04-04T13:37:54.688Z</time></trkpt><trkpt lat="43.681365" lon="12.695495"><ele>260.6</ele><time>2026-04-04T13:37:55.687Z</time></trkpt><trkpt lat="43.68126" lon="12.6955383"><ele>257.0</ele><time>2026-04-04T13:37:56.688Z</time></trkpt><trkpt lat="43.681155" lon="12.6955867"><ele>260.0</ele><time>2026-04-04T13:37:57.686Z</time></trkpt><trkpt lat="43.6810517" lon="12.6956333"><ele>263.0</ele><time>2026-04-04T13:37:58.686Z</time></trkpt><trkpt lat="43.6809433" lon="12.695675"><ele>266.0</ele><time>2026-04-04T13:37:59.688Z</time></trkpt><trkpt lat="43.6808333" lon="12.6957117"><ele>269.0</ele><time>2026-04-04T13:38:00.687Z</time></trkpt><trkpt lat="43.6806333" lon="12.69579"><ele>269.0</ele><time>2026-04-04T13:38:02.686Z</time></trkpt><trkpt lat="43.68053" lon="12.695835"><ele>269.0</ele><time>2026-04-04T13:38:03.685Z</time></trkpt><trkpt lat="43.680435" lon="12.6958833"><ele>269.0</ele><time>2026-04-04T13:38:04.688Z</time></trkpt><trkpt lat="43.680345" lon="12.695935"><ele>269.0</ele><time>2026-04-04T13:38:05.687Z</time></trkpt><trkpt lat="43.6802633" lon="12.6959917"><ele>269.0</ele><time>2026-04-04T13:38:06.688Z</time></trkpt><trkpt lat="43.6802" lon="12.6960267"><ele>270.0</ele><time>2026-04-04T13:38:07.688Z</time></trkpt><trkpt lat="43.6801433" lon="12.6960783"><ele>271.0</ele><time>2026-04-04T13:38:08.691Z</time></trkpt><trkpt lat="43.6800883" lon="12.696125"><ele>272.0</ele><time>2026-04-04T13:38:09.686Z</time></trkpt><trkpt lat="43.6800367" lon="12.6961767"><ele>273.0</ele><time>2026-04-04T13:38:10.689Z</time></trkpt><trkpt lat="43.6799867" lon="12.69623"><ele>274.0</ele><time>2026-04-04T13:38:11.685Z</time></trkpt><trkpt lat="43.6799283" lon="12.6963617"><ele>275.0</ele><time>2026-04-04T13:38:13.688Z</time></trkpt><trkpt lat="43.6799183" lon="12.6965267"><ele>270.4</ele><time>2026-04-04T13:38:15.686Z</time></trkpt><trkpt lat="43.6798817" lon="12.696675"><ele>265.8</ele><time>2026-04-04T13:38:17.689Z</time></trkpt><trkpt lat="43.6797767" lon="12.69677"><ele>261.2</ele><time>2026-04-04T13:38:19.689Z</time></trkpt><trkpt lat="43.6797167" lon="12.6968133"><ele>256.6</ele><time>2026-04-04T13:38:20.69Z</time></trkpt><trkpt lat="43.6796583" lon="12.6969317"><ele>252.0</ele><time>2026-04-04T13:38:22.69Z</time></trkpt><trkpt lat="43.67975" lon="12.69713"><ele>251.5</ele><time>2026-04-04T13:38:25.689Z</time></trkpt><trkpt lat="43.679825" lon="12.6971917"><ele>251.0</ele><time>2026-04-04T13:38:26.687Z</time></trkpt><trkpt lat="43.67989" lon="12.6972567"><ele>250.5</ele><time>2026-04-04T13:38:27.69Z</time></trkpt><trkpt lat="43.679965" lon="12.6973333"><ele>250.0</ele><time>2026-04-04T13:38:28.689Z</time></trkpt><trkpt lat="43.6800317" lon="12.69741"><ele>249.5</ele><time>2026-04-04T13:38:29.691Z</time></trkpt><trkpt lat="43.6801067" lon="12.6974667"><ele>249.0</ele><time>2026-04-04T13:38:30.69Z</time></trkpt><trkpt lat="43.680205" lon="12.697495"><ele>249.5</ele><time>2026-04-04T13:38:31.69Z</time></trkpt><trkpt lat="43.6803017" lon="12.6975067"><ele>250.0</ele><time>2026-04-04T13:38:32.69Z</time></trkpt><trkpt lat="43.68044" lon="12.6974833"><ele>250.5</ele><time>2026-04-04T13:38:33.69Z</time></trkpt><trkpt lat="43.6805717" lon="12.697465"><ele>251.0</ele><time>2026-04-04T13:38:34.69Z</time></trkpt><trkpt lat="43.68068" lon="12.6974633"><ele>251.0</ele><time>2026-04-04T13:38:35.69Z</time></trkpt><trkpt lat="43.68078" lon="12.6974817"><ele>251.00000000000003</ele><time>2026-04-04T13:38:36.688Z</time></trkpt><trkpt lat="43.6808633" lon="12.69752"><ele>251.00000000000003</ele><time>2026-04-04T13:38:37.69Z</time></trkpt><trkpt lat="43.6809417" lon="12.6975783"><ele>251.0</ele><time>2026-04-04T13:38:38.688Z</time></trkpt><trkpt lat="43.6810167" lon="12.69767"><ele>251.0</ele><time>2026-04-04T13:38:39.687Z</time></trkpt><trkpt lat="43.6810833" lon="12.6977867"><ele>249.75</ele><time>2026-04-04T13:38:40.688Z</time></trkpt><trkpt lat="43.6811367" lon="12.6979283"><ele>248.5</ele><time>2026-04-04T13:38:41.688Z</time></trkpt><trkpt lat="43.6811717" lon="12.698075"><ele>247.25</ele><time>2026-04-04T13:38:42.689Z</time></trkpt><trkpt lat="43.6811983" lon="12.6982183"><ele>246.0</ele><time>2026-04-04T13:38:43.687Z</time></trkpt><trkpt lat="43.6812283" lon="12.6984683"><ele>246.0</ele><time>2026-04-04T13:38:45.687Z</time></trkpt><trkpt lat="43.6812433" lon="12.6985583"><ele>246.0</ele><time>2026-04-04T13:38:46.687Z</time></trkpt><trkpt lat="43.6812367" lon="12.69867"><ele>246.0</ele><time>2026-04-04T13:38:48.687Z</time></trkpt><trkpt lat="43.68118" lon="12.6986067"><ele>246.0</ele><time>2026-04-04T13:38:52.688Z</time></trkpt><trkpt lat="43.681175" lon="12.69851"><ele>246.0</ele><time>2026-04-04T13:38:53.689Z</time></trkpt><trkpt lat="43.6811517" lon="12.6983917"><ele>246.0</ele><time>2026-04-04T13:38:54.688Z</time></trkpt><trkpt lat="43.6811333" lon="12.6982867"><ele>250.33333333333334</ele><time>2026-04-04T13:38:55.688Z</time></trkpt><trkpt lat="43.6810933" lon="12.6981917"><ele>254.66666666666669</ele><time>2026-04-04T13:38:56.688Z</time></trkpt><trkpt lat="43.68103" lon="12.6981017"><ele>259.0</ele><time>2026-04-04T13:38:57.687Z</time></trkpt><trkpt lat="43.6809717" lon="12.698025"><ele>263.33333333333337</ele><time>2026-04-04T13:38:58.688Z</time></trkpt><trkpt lat="43.68091" lon="12.69796"><ele>267.6666666666667</ele><time>2026-04-04T13:38:59.688Z</time></trkpt><trkpt lat="43.6808317" lon="12.697925"><ele>272.0</ele><time>2026-04-04T13:39:00.688Z</time></trkpt><trkpt lat="43.68075" lon="12.6979117"><ele>272.0</ele><time>2026-04-04T13:39:01.695Z</time></trkpt><trkpt lat="43.6806783" lon="12.6979467"><ele>272.0</ele><time>2026-04-04T13:39:02.688Z</time></trkpt><trkpt lat="43.68061" lon="12.6979867"><ele>272.0</ele><time>2026-04-04T13:39:03.686Z</time></trkpt><trkpt lat="43.6805583" lon="12.6980433"><ele>272.0</ele><time>2026-04-04T13:39:04.687Z</time></trkpt><trkpt lat="43.6805667" lon="12.6983283"><ele>272.0</ele><time>2026-04-04T13:39:08.688Z</time></trkpt><trkpt lat="43.6806217" lon="12.6984"><ele>272.0</ele><time>2026-04-04T13:39:09.688Z</time></trkpt><trkpt lat="43.6806667" lon="12.6984917"><ele>272.0</ele><time>2026-04-04T13:39:10.69Z</time></trkpt><trkpt lat="43.6807217" lon="12.6986033"><ele>272.0</ele><time>2026-04-04T13:39:11.688Z</time></trkpt><trkpt lat="43.6807833" lon="12.6987067"><ele>272.0</ele><time>2026-04-04T13:39:12.69Z</time></trkpt><trkpt lat="43.680865" lon="12.6987967"><ele>272.0</ele><time>2026-04-04T13:39:13.691Z</time></trkpt><trkpt lat="43.6809467" lon="12.6988817"><ele>272.4</ele><time>2026-04-04T13:39:14.686Z</time></trkpt><trkpt lat="43.6810283" lon="12.6989633"><ele>272.79999999999995</ele><time>2026-04-04T13:39:15.686Z</time></trkpt><trkpt lat="43.6811117" lon="12.699045"><ele>273.2</ele><time>2026-04-04T13:39:16.688Z</time></trkpt><trkpt lat="43.6811967" lon="12.6991333"><ele>273.59999999999997</ele><time>2026-04-04T13:39:17.687Z</time></trkpt><trkpt lat="43.6812833" lon="12.699215"><ele>274.0</ele><time>2026-04-04T13:39:18.688Z</time></trkpt><trkpt lat="43.6813817" lon="12.6992733"><ele>274.0</ele><time>2026-04-04T13:39:19.689Z</time></trkpt><trkpt lat="43.6814883" lon="12.6993"><ele>274.0</ele><time>2026-04-04T13:39:20.692Z</time></trkpt><trkpt lat="43.6815967" lon="12.699305"><ele>274.0</ele><time>2026-04-04T13:39:21.686Z</time></trkpt><trkpt lat="43.68171" lon="12.6993017"><ele>274.0</ele><time>2026-04-04T13:39:22.69Z</time></trkpt><trkpt lat="43.6818133" lon="12.6992933"><ele>274.0</ele><time>2026-04-04T13:39:23.69Z</time></trkpt><trkpt lat="43.6819117" lon="12.6992983"><ele>272.0</ele><time>2026-04-04T13:39:24.689Z</time></trkpt><trkpt lat="43.6820117" lon="12.6993217"><ele>270.0</ele><time>2026-04-04T13:39:25.689Z</time></trkpt><trkpt lat="43.6821967" lon="12.6994233"><ele>268.0</ele><time>2026-04-04T13:39:27.688Z</time></trkpt><trkpt lat="43.6822783" lon="12.69949"><ele>266.0</ele><time>2026-04-04T13:39:28.687Z</time></trkpt><trkpt lat="43.6823483" lon="12.6995767"><ele>266.0</ele><time>2026-04-04T13:39:29.691Z</time></trkpt><trkpt lat="43.6824167" lon="12.6996683"><ele>266.0</ele><time>2026-04-04T13:39:30.688Z</time></trkpt><trkpt lat="43.6824767" lon="12.69976"><ele>266.0</ele><time>2026-04-04T13:39:31.69Z</time></trkpt><trkpt lat="43.6825267" lon="12.6998467"><ele>266.0</ele><time>2026-04-04T13:39:32.69Z</time></trkpt><trkpt lat="43.6825567" lon="12.6999417"><ele>266.0</ele><time>2026-04-04T13:39:33.689Z</time></trkpt><trkpt lat="43.6825567" lon="12.700055"><ele>266.0</ele><time>2026-04-04T13:39:34.689Z</time></trkpt><trkpt lat="43.6825467" lon="12.7001883"><ele>263.8</ele><time>2026-04-04T13:39:35.689Z</time></trkpt><trkpt lat="43.68254" lon="12.7003133"><ele>261.6</ele><time>2026-04-04T13:39:36.687Z</time></trkpt><trkpt lat="43.682525" lon="12.70044"><ele>259.4</ele><time>2026-04-04T13:39:37.687Z</time></trkpt><trkpt lat="43.6825033" lon="12.7005733"><ele>257.2</ele><time>2026-04-04T13:39:38.688Z</time></trkpt><trkpt lat="43.6824733" lon="12.7007033"><ele>255.0</ele><time>2026-04-04T13:39:39.688Z</time></trkpt><trkpt lat="43.6824433" lon="12.7008217"><ele>255.0</ele><time>2026-04-04T13:39:40.689Z</time></trkpt><trkpt lat="43.6824067" lon="12.7009267"><ele>255.0</ele><time>2026-04-04T13:39:41.688Z</time></trkpt><trkpt lat="43.68236" lon="12.7010133"><ele>255.0</ele><time>2026-04-04T13:39:42.689Z</time></trkpt><trkpt lat="43.682305" lon="12.7010817"><ele>255.0</ele><time>2026-04-04T13:39:43.691Z</time></trkpt><trkpt lat="43.68222" lon="12.7011917"><ele>255.0</ele><time>2026-04-04T13:39:45.688Z</time></trkpt><trkpt lat="43.6821483" lon="12.7013017"><ele>256.25</ele><time>2026-04-04T13:39:47.69Z</time></trkpt><trkpt lat="43.6820283" lon="12.7015"><ele>257.5</ele><time>2026-04-04T13:39:50.687Z</time></trkpt><trkpt lat="43.6819667" lon="12.7015917"><ele>258.75</ele><time>2026-04-04T13:39:51.687Z</time></trkpt><trkpt lat="43.6819067" lon="12.7017017"><ele>260.0</ele><time>2026-04-04T13:39:52.688Z</time></trkpt><trkpt lat="43.681855" lon="12.7018267"><ele>258.1666666666667</ele><time>2026-04-04T13:39:53.69Z</time></trkpt><trkpt lat="43.6818167" lon="12.70195"><ele>256.33333333333337</ele><time>2026-04-04T13:39:54.688Z</time></trkpt><trkpt lat="43.6817917" lon="12.70207"><ele>254.5</ele><time>2026-04-04T13:39:55.69Z</time></trkpt><trkpt lat="43.6817783" lon="12.70219"><ele>252.66666666666669</ele><time>2026-04-04T13:39:56.687Z</time></trkpt><trkpt lat="43.6817717" lon="12.7023083"><ele>250.83333333333334</ele><time>2026-04-04T13:39:57.688Z</time></trkpt><trkpt lat="43.6817733" lon="12.7024183"><ele>249.0</ele><time>2026-04-04T13:39:58.687Z</time></trkpt><trkpt lat="43.6817767" lon="12.7025133"><ele>249.0</ele><time>2026-04-04T13:39:59.69Z</time></trkpt><trkpt lat="43.68181" lon="12.70266"><ele>248.99999999999997</ele><time>2026-04-04T13:40:01.69Z</time></trkpt><trkpt lat="43.6818967" lon="12.70272"><ele>248.99999999999997</ele><time>2026-04-04T13:40:03.686Z</time></trkpt><trkpt lat="43.6819917" lon="12.7026333"><ele>249.0</ele><time>2026-04-04T13:40:05.687Z</time></trkpt><trkpt lat="43.6820333" lon="12.7025183"><ele>249.0</ele><time>2026-04-04T13:40:06.688Z</time></trkpt><trkpt lat="43.68207" lon="12.702355"><ele>245.79999999999998</ele><time>2026-04-04T13:40:07.691Z</time></trkpt><trkpt lat="43.682105" lon="12.702235"><ele>242.59999999999997</ele><time>2026-04-04T13:40:08.689Z</time></trkpt><trkpt lat="43.682175" lon="12.7020167"><ele>239.4</ele><time>2026-04-04T13:40:10.689Z</time></trkpt><trkpt lat="43.6822183" lon="12.7019467"><ele>236.2</ele><time>2026-04-04T13:40:11.69Z</time></trkpt><trkpt lat="43.68232" lon="12.7018767"><ele>233.0</ele><time>2026-04-04T13:40:13.689Z</time></trkpt><trkpt lat="43.6824067" lon="12.7019567"><ele>232.2</ele><time>2026-04-04T13:40:15.688Z</time></trkpt><trkpt lat="43.6824333" lon="12.7020667"><ele>231.4</ele><time>2026-04-04T13:40:16.689Z</time></trkpt><trkpt lat="43.6824533" lon="12.7022283"><ele>230.59999999999997</ele><time>2026-04-04T13:40:17.684Z</time></trkpt><trkpt lat="43.68248" lon="12.7023883"><ele>229.79999999999998</ele><time>2026-04-04T13:40:18.688Z</time></trkpt><trkpt lat="43.6825117" lon="12.702545"><ele>229.0</ele><time>2026-04-04T13:40:19.69Z</time></trkpt><trkpt lat="43.6825467" lon="12.7027017"><ele>227.6</ele><time>2026-04-04T13:40:20.686Z</time></trkpt><trkpt lat="43.682585" lon="12.70284"><ele>226.2</ele><time>2026-04-04T13:40:21.686Z</time></trkpt><trkpt lat="43.6826283" lon="12.7029667"><ele>224.79999999999998</ele><time>2026-04-04T13:40:22.687Z</time></trkpt><trkpt lat="43.6826783" lon="12.7030867"><ele>223.39999999999998</ele><time>2026-04-04T13:40:23.688Z</time></trkpt><trkpt lat="43.6827367" lon="12.703195"><ele>222.0</ele><time>2026-04-04T13:40:24.69Z</time></trkpt><trkpt lat="43.682805" lon="12.7032933"><ele>219.8</ele><time>2026-04-04T13:40:25.689Z</time></trkpt><trkpt lat="43.6828817" lon="12.703375"><ele>217.6</ele><time>2026-04-04T13:40:26.687Z</time></trkpt><trkpt lat="43.6829617" lon="12.7034383"><ele>215.4</ele><time>2026-04-04T13:40:27.687Z</time></trkpt><trkpt lat="43.6830433" lon="12.70348"><ele>213.20000000000002</ele><time>2026-04-04T13:40:28.691Z</time></trkpt><trkpt lat="43.683125" lon="12.7035033"><ele>211.0</ele><time>2026-04-04T13:40:29.688Z</time></trkpt><trkpt lat="43.68328" lon="12.7034967"><ele>210.99999999999997</ele><time>2026-04-04T13:40:31.69Z</time></trkpt><trkpt lat="43.6833517" lon="12.703465"><ele>211.0</ele><time>2026-04-04T13:40:32.688Z</time></trkpt><trkpt lat="43.6834167" lon="12.7034083"><ele>211.0</ele><time>2026-04-04T13:40:33.686Z</time></trkpt><trkpt lat="43.6834733" lon="12.7033367"><ele>211.0</ele><time>2026-04-04T13:40:34.688Z</time></trkpt><trkpt lat="43.683525" lon="12.7032533"><ele>210.99999999999997</ele><time>2026-04-04T13:40:35.689Z</time></trkpt><trkpt lat="43.6835683" lon="12.7031517"><ele>211.0</ele><time>2026-04-04T13:40:36.689Z</time></trkpt><trkpt lat="43.683605" lon="12.7030367"><ele>209.0</ele><time>2026-04-04T13:40:37.691Z</time></trkpt><trkpt lat="43.6836333" lon="12.7029017"><ele>207.0</ele><time>2026-04-04T13:40:38.689Z</time></trkpt><trkpt lat="43.6836567" lon="12.7027567"><ele>205.0</ele><time>2026-04-04T13:40:39.688Z</time></trkpt><trkpt lat="43.6836817" lon="12.7026167"><ele>203.0</ele><time>2026-04-04T13:40:40.688Z</time></trkpt><trkpt lat="43.6837067" lon="12.702475"><ele>201.0</ele><time>2026-04-04T13:40:41.684Z</time></trkpt><trkpt lat="43.6837367" lon="12.7023333"><ele>201.0</ele><time>2026-04-04T13:40:42.689Z</time></trkpt><trkpt lat="43.683765" lon="12.7022017"><ele>201.0</ele><time>2026-04-04T13:40:43.689Z</time></trkpt><trkpt lat="43.683805" lon="12.7020933"><ele>201.0</ele><time>2026-04-04T13:40:44.685Z</time></trkpt><trkpt lat="43.6838433" lon="12.70201"><ele>201.0</ele><time>2026-04-04T13:40:45.689Z</time></trkpt><trkpt lat="43.6839583" lon="12.70197"><ele>201.0</ele><time>2026-04-04T13:40:47.686Z</time></trkpt><trkpt lat="43.6840317" lon="12.70204"><ele>201.0</ele><time>2026-04-04T13:40:48.688Z</time></trkpt><trkpt lat="43.6841117" lon="12.702165"><ele>201.0</ele><time>2026-04-04T13:40:49.69Z</time></trkpt><trkpt lat="43.684185" lon="12.7022867"><ele>201.0</ele><time>2026-04-04T13:40:50.686Z</time></trkpt><trkpt lat="43.6843617" lon="12.7026217"><ele>197.0</ele><time>2026-04-04T13:40:52.689Z</time></trkpt><trkpt lat="43.6844417" lon="12.7027717"><ele>193.0</ele><time>2026-04-04T13:40:53.688Z</time></trkpt><trkpt lat="43.6845117" lon="12.7029083"><ele>189.0</ele><time>2026-04-04T13:40:54.69Z</time></trkpt><trkpt lat="43.68457" lon="12.7030433"><ele>185.0</ele><time>2026-04-04T13:40:55.69Z</time></trkpt><trkpt lat="43.6846117" lon="12.7031817"><ele>185.0</ele><time>2026-04-04T13:40:56.687Z</time></trkpt><trkpt lat="43.684635" lon="12.7033317"><ele>185.0</ele><time>2026-04-04T13:40:57.688Z</time></trkpt><trkpt lat="43.6846467" lon="12.703495"><ele>185.0</ele><time>2026-04-04T13:40:58.688Z</time></trkpt><trkpt lat="43.6846517" lon="12.703665"><ele>185.0</ele><time>2026-04-04T13:40:59.689Z</time></trkpt><trkpt lat="43.68465" lon="12.7038333"><ele>184.25</ele><time>2026-04-04T13:41:00.688Z</time></trkpt><trkpt lat="43.68465" lon="12.704"><ele>183.5</ele><time>2026-04-04T13:41:01.689Z</time></trkpt><trkpt lat="43.6846617" lon="12.704165"><ele>182.75</ele><time>2026-04-04T13:41:02.686Z</time></trkpt><trkpt lat="43.6846967" lon="12.7043167"><ele>182.0</ele><time>2026-04-04T13:41:03.688Z</time></trkpt><trkpt lat="43.6847567" lon="12.7044733"><ele>181.25</ele><time>2026-04-04T13:41:04.687Z</time></trkpt><trkpt lat="43.6848333" lon="12.7046433"><ele>180.5</ele><time>2026-04-04T13:41:05.685Z</time></trkpt><trkpt lat="43.6849183" lon="12.704815"><ele>179.75</ele><time>2026-04-04T13:41:06.688Z</time></trkpt><trkpt lat="43.685" lon="12.70498"><ele>179.0</ele><time>2026-04-04T13:41:07.687Z</time></trkpt><trkpt lat="43.6850783" lon="12.705135"><ele>177.75</ele><time>2026-04-04T13:41:08.685Z</time></trkpt><trkpt lat="43.6851517" lon="12.70528"><ele>176.5</ele><time>2026-04-04T13:41:09.686Z</time></trkpt><trkpt lat="43.6852167" lon="12.7054117"><ele>175.25</ele><time>2026-04-04T13:41:10.689Z</time></trkpt><trkpt lat="43.685265" lon="12.7055283"><ele>174.0</ele><time>2026-04-04T13:41:11.689Z</time></trkpt><trkpt lat="43.685305" lon="12.7057183"><ele>174.0</ele><time>2026-04-04T13:41:13.691Z</time></trkpt><trkpt lat="43.6852433" lon="12.7058583"><ele>174.0</ele><time>2026-04-04T13:41:15.688Z</time></trkpt><trkpt lat="43.685165" lon="12.7059517"><ele>174.0</ele><time>2026-04-04T13:41:16.687Z</time></trkpt><trkpt lat="43.68505" lon="12.7060783"><ele>174.0</ele><time>2026-04-04T13:41:17.687Z</time></trkpt><trkpt lat="43.6849383" lon="12.706215"><ele>172.0</ele><time>2026-04-04T13:41:18.688Z</time></trkpt><trkpt lat="43.68482" lon="12.7063617"><ele>170.0</ele><time>2026-04-04T13:41:19.69Z</time></trkpt><trkpt lat="43.6846983" lon="12.7065233"><ele>168.0</ele><time>2026-04-04T13:41:20.687Z</time></trkpt><trkpt lat="43.6845817" lon="12.7066967"><ele>168.0</ele><time>2026-04-04T13:41:21.689Z</time></trkpt><trkpt lat="43.6844683" lon="12.7068783"><ele>168.0</ele><time>2026-04-04T13:41:22.688Z</time></trkpt><trkpt lat="43.6843583" lon="12.7070617"><ele>168.0</ele><time>2026-04-04T13:41:23.692Z</time></trkpt><trkpt lat="43.68426" lon="12.7072467"><ele>167.33333333333334</ele><time>2026-04-04T13:41:24.688Z</time></trkpt><trkpt lat="43.68417" lon="12.7074383"><ele>166.66666666666669</ele><time>2026-04-04T13:41:25.689Z</time></trkpt><trkpt lat="43.6840817" lon="12.7076383"><ele>166.0</ele><time>2026-04-04T13:41:26.689Z</time></trkpt><trkpt lat="43.683995" lon="12.70785"><ele>166.0</ele><time>2026-04-04T13:41:27.686Z</time></trkpt><trkpt lat="43.68391" lon="12.7080733"><ele>166.0</ele><time>2026-04-04T13:41:28.686Z</time></trkpt><trkpt lat="43.6838317" lon="12.7083033"><ele>166.0</ele><time>2026-04-04T13:41:29.686Z</time></trkpt><trkpt lat="43.6837583" lon="12.7085283"><ele>164.0</ele><time>2026-04-04T13:41:30.688Z</time></trkpt><trkpt lat="43.6836883" lon="12.7087417"><ele>162.0</ele><time>2026-04-04T13:41:31.69Z</time></trkpt><trkpt lat="43.6836217" lon="12.7089483"><ele>160.0</ele><time>2026-04-04T13:41:32.689Z</time></trkpt><trkpt lat="43.6834967" lon="12.70933"><ele>163.25</ele><time>2026-04-04T13:41:34.689Z</time></trkpt><trkpt lat="43.6834283" lon="12.7095067"><ele>166.5</ele><time>2026-04-04T13:41:35.689Z</time></trkpt><trkpt lat="43.6833533" lon="12.70967"><ele>169.75</ele><time>2026-04-04T13:41:36.688Z</time></trkpt><trkpt lat="43.6832633" lon="12.70983"><ele>173.0</ele><time>2026-04-04T13:41:37.691Z</time></trkpt><trkpt lat="43.683165" lon="12.70999"><ele>173.0</ele><time>2026-04-04T13:41:38.689Z</time></trkpt><trkpt lat="43.6830517" lon="12.7101517"><ele>173.0</ele><time>2026-04-04T13:41:39.689Z</time></trkpt><trkpt lat="43.6829383" lon="12.710315"><ele>173.0</ele><time>2026-04-04T13:41:40.69Z</time></trkpt><trkpt lat="43.6828333" lon="12.7104783"><ele>175.0</ele><time>2026-04-04T13:41:41.686Z</time></trkpt><trkpt lat="43.6827333" lon="12.7106383"><ele>177.0</ele><time>2026-04-04T13:41:42.689Z</time></trkpt><trkpt lat="43.682625" lon="12.7108083"><ele>179.0</ele><time>2026-04-04T13:41:43.69Z</time></trkpt><trkpt lat="43.682505" lon="12.7109783"><ele>177.66666666666666</ele><time>2026-04-04T13:41:44.689Z</time></trkpt><trkpt lat="43.6823767" lon="12.7111467"><ele>176.33333333333334</ele><time>2026-04-04T13:41:45.691Z</time></trkpt><trkpt lat="43.68225" lon="12.7113033"><ele>175.0</ele><time>2026-04-04T13:41:46.688Z</time></trkpt><trkpt lat="43.68213" lon="12.7114533"><ele>175.0</ele><time>2026-04-04T13:41:47.685Z</time></trkpt><trkpt lat="43.68202" lon="12.711585"><ele>175.0</ele><time>2026-04-04T13:41:48.689Z</time></trkpt><trkpt lat="43.6819233" lon="12.7117133"><ele>175.0</ele><time>2026-04-04T13:41:49.69Z</time></trkpt><trkpt lat="43.6818433" lon="12.7118517"><ele>175.0</ele><time>2026-04-04T13:41:50.685Z</time></trkpt><trkpt lat="43.681785" lon="12.7120133"><ele>178.0</ele><time>2026-04-04T13:41:51.687Z</time></trkpt><trkpt lat="43.6817433" lon="12.712195"><ele>181.0</ele><time>2026-04-04T13:41:52.688Z</time></trkpt><trkpt lat="43.6817067" lon="12.7123933"><ele>184.0</ele><time>2026-04-04T13:41:53.692Z</time></trkpt><trkpt lat="43.68163" lon="12.71278"><ele>184.0</ele><time>2026-04-04T13:41:55.69Z</time></trkpt><trkpt lat="43.6816" lon="12.7129383"><ele>184.0</ele><time>2026-04-04T13:41:56.688Z</time></trkpt><trkpt lat="43.6815767" lon="12.7130633"><ele>184.0</ele><time>2026-04-04T13:41:57.686Z</time></trkpt><trkpt lat="43.6815533" lon="12.7131633"><ele>184.0</ele><time>2026-04-04T13:41:58.687Z</time></trkpt><trkpt lat="43.68153" lon="12.713245"><ele>184.0</ele><time>2026-04-04T13:41:59.686Z</time></trkpt><trkpt lat="43.6814933" lon="12.7133167"><ele>184.0</ele><time>2026-04-04T13:42:00.689Z</time></trkpt><trkpt lat="43.6814433" lon="12.713395"><ele>184.0</ele><time>2026-04-04T13:42:01.688Z</time></trkpt><trkpt lat="43.6813683" lon="12.7135067"><ele>184.0</ele><time>2026-04-04T13:42:02.687Z</time></trkpt><trkpt lat="43.6812783" lon="12.7136667"><ele>184.0</ele><time>2026-04-04T13:42:03.687Z</time></trkpt><trkpt lat="43.6811917" lon="12.7138417"><ele>184.0</ele><time>2026-04-04T13:42:04.688Z</time></trkpt><trkpt lat="43.681105" lon="12.714"><ele>184.5</ele><time>2026-04-04T13:42:05.686Z</time></trkpt><trkpt lat="43.681025" lon="12.7141483"><ele>185.0</ele><time>2026-04-04T13:42:06.689Z</time></trkpt><trkpt lat="43.680955" lon="12.7142867"><ele>185.5</ele><time>2026-04-04T13:42:07.691Z</time></trkpt><trkpt lat="43.6808867" lon="12.71441"><ele>186.0</ele><time>2026-04-04T13:42:08.687Z</time></trkpt><trkpt lat="43.68082" lon="12.7145133"><ele>186.0</ele><time>2026-04-04T13:42:09.686Z</time></trkpt><trkpt lat="43.6807533" lon="12.7145883"><ele>186.0</ele><time>2026-04-04T13:42:10.689Z</time></trkpt><trkpt lat="43.6806833" lon="12.7146467"><ele>186.0</ele><time>2026-04-04T13:42:11.687Z</time></trkpt><trkpt lat="43.6806083" lon="12.7146617"><ele>186.0</ele><time>2026-04-04T13:42:12.687Z</time></trkpt><trkpt lat="43.6805333" lon="12.7146617"><ele>186.0</ele><time>2026-04-04T13:42:13.689Z</time></trkpt><trkpt lat="43.680465" lon="12.71463"><ele>186.0</ele><time>2026-04-04T13:42:14.688Z</time></trkpt><trkpt lat="43.6803383" lon="12.7143917"><ele>186.0</ele><time>2026-04-04T13:42:16.689Z</time></trkpt><trkpt lat="43.6802583" lon="12.7142517"><ele>186.0</ele><time>2026-04-04T13:42:17.689Z</time></trkpt><trkpt lat="43.680175" lon="12.7141183"><ele>186.0</ele><time>2026-04-04T13:42:18.689Z</time></trkpt><trkpt lat="43.680095" lon="12.71401"><ele>186.0</ele><time>2026-04-04T13:42:19.689Z</time></trkpt><trkpt lat="43.6800267" lon="12.71391"><ele>186.0</ele><time>2026-04-04T13:42:20.689Z</time></trkpt><trkpt lat="43.6799583" lon="12.7138017"><ele>186.0</ele><time>2026-04-04T13:42:21.689Z</time></trkpt><trkpt lat="43.67988" lon="12.71371"><ele>186.0</ele><time>2026-04-04T13:42:22.689Z</time></trkpt><trkpt lat="43.6797917" lon="12.7136417"><ele>186.0</ele><time>2026-04-04T13:42:23.689Z</time></trkpt><trkpt lat="43.679685" lon="12.7136"><ele>186.0</ele><time>2026-04-04T13:42:24.689Z</time></trkpt><trkpt lat="43.6795833" lon="12.71356"><ele>187.5</ele><time>2026-04-04T13:42:25.69Z</time></trkpt><trkpt lat="43.6794833" lon="12.713495"><ele>189.0</ele><time>2026-04-04T13:42:26.689Z</time></trkpt><trkpt lat="43.6793867" lon="12.7133983"><ele>190.5</ele><time>2026-04-04T13:42:27.687Z</time></trkpt><trkpt lat="43.6792883" lon="12.7132933"><ele>192.0</ele><time>2026-04-04T13:42:28.688Z</time></trkpt><trkpt lat="43.67918" lon="12.7131917"><ele>193.25</ele><time>2026-04-04T13:42:29.689Z</time></trkpt><trkpt lat="43.6790717" lon="12.7130917"><ele>194.5</ele><time>2026-04-04T13:42:30.688Z</time></trkpt><trkpt lat="43.678965" lon="12.7129867"><ele>195.75</ele><time>2026-04-04T13:42:31.689Z</time></trkpt><trkpt lat="43.6788617" lon="12.7128817"><ele>197.0</ele><time>2026-04-04T13:42:32.689Z</time></trkpt><trkpt lat="43.6787633" lon="12.7127767"><ele>200.0</ele><time>2026-04-04T13:42:33.69Z</time></trkpt><trkpt lat="43.6786717" lon="12.7126667"><ele>203.0</ele><time>2026-04-04T13:42:34.689Z</time></trkpt><trkpt lat="43.678585" lon="12.712555"><ele>206.0</ele><time>2026-04-04T13:42:35.69Z</time></trkpt><trkpt lat="43.678415" lon="12.712375"><ele>207.20000000000002</ele><time>2026-04-04T13:42:37.69Z</time></trkpt><trkpt lat="43.6783267" lon="12.71231"><ele>208.4</ele><time>2026-04-04T13:42:38.689Z</time></trkpt><trkpt lat="43.67822" lon="12.7122567"><ele>209.6</ele><time>2026-04-04T13:42:39.688Z</time></trkpt><trkpt lat="43.6781217" lon="12.7122117"><ele>210.8</ele><time>2026-04-04T13:42:40.688Z</time></trkpt><trkpt lat="43.6780283" lon="12.712165"><ele>212.0</ele><time>2026-04-04T13:42:41.69Z</time></trkpt><trkpt lat="43.6779417" lon="12.7121183"><ele>212.0</ele><time>2026-04-04T13:42:42.689Z</time></trkpt><trkpt lat="43.6778433" lon="12.71208"><ele>212.0</ele><time>2026-04-04T13:42:43.688Z</time></trkpt><trkpt lat="43.67774" lon="12.71206"><ele>212.0</ele><time>2026-04-04T13:42:44.687Z</time></trkpt><trkpt lat="43.6776333" lon="12.7120617"><ele>212.0</ele><time>2026-04-04T13:42:45.688Z</time></trkpt><trkpt lat="43.6775333" lon="12.7120783"><ele>212.0</ele><time>2026-04-04T13:42:46.687Z</time></trkpt><trkpt lat="43.67743" lon="12.71209"><ele>213.39999999999998</ele><time>2026-04-04T13:42:47.688Z</time></trkpt><trkpt lat="43.6773267" lon="12.7120817"><ele>214.79999999999998</ele><time>2026-04-04T13:42:48.688Z</time></trkpt><trkpt lat="43.6772267" lon="12.712065"><ele>216.2</ele><time>2026-04-04T13:42:49.692Z</time></trkpt><trkpt lat="43.6771367" lon="12.7120333"><ele>217.6</ele><time>2026-04-04T13:42:50.689Z</time></trkpt><trkpt lat="43.6770517" lon="12.7119767"><ele>219.0</ele><time>2026-04-04T13:42:51.691Z</time></trkpt><trkpt lat="43.6769683" lon="12.7119017"><ele>221.2</ele><time>2026-04-04T13:42:52.689Z</time></trkpt><trkpt lat="43.6768933" lon="12.7118083"><ele>223.39999999999998</ele><time>2026-04-04T13:42:53.692Z</time></trkpt><trkpt lat="43.6768333" lon="12.7116867"><ele>225.6</ele><time>2026-04-04T13:42:54.689Z</time></trkpt><trkpt lat="43.676795" lon="12.711545"><ele>227.8</ele><time>2026-04-04T13:42:55.689Z</time></trkpt><trkpt lat="43.6767583" lon="12.7113967"><ele>230.0</ele><time>2026-04-04T13:42:56.689Z</time></trkpt><trkpt lat="43.6766767" lon="12.7111033"><ele>231.6</ele><time>2026-04-04T13:42:58.69Z</time></trkpt><trkpt lat="43.6766333" lon="12.7109567"><ele>233.2</ele><time>2026-04-04T13:42:59.691Z</time></trkpt><trkpt lat="43.6765817" lon="12.7108083"><ele>234.8</ele><time>2026-04-04T13:43:00.689Z</time></trkpt><trkpt lat="43.6765317" lon="12.7106783"><ele>236.4</ele><time>2026-04-04T13:43:01.693Z</time></trkpt><trkpt lat="43.6764833" lon="12.710565"><ele>238.0</ele><time>2026-04-04T13:43:02.689Z</time></trkpt><trkpt lat="43.6764283" lon="12.7104733"><ele>237.99999999999997</ele><time>2026-04-04T13:43:03.69Z</time></trkpt><trkpt lat="43.6763667" lon="12.7104"><ele>238.0</ele><time>2026-04-04T13:43:04.689Z</time></trkpt><trkpt lat="43.6763" lon="12.7103483"><ele>238.0</ele><time>2026-04-04T13:43:05.69Z</time></trkpt><trkpt lat="43.67623" lon="12.71032"><ele>238.0</ele><time>2026-04-04T13:43:06.689Z</time></trkpt><trkpt lat="43.6761483" lon="12.7103117"><ele>237.99999999999997</ele><time>2026-04-04T13:43:07.693Z</time></trkpt><trkpt lat="43.6760583" lon="12.7102883"><ele>238.0</ele><time>2026-04-04T13:43:08.69Z</time></trkpt><trkpt lat="43.675955" lon="12.7102933"><ele>238.2</ele><time>2026-04-04T13:43:09.689Z</time></trkpt><trkpt lat="43.6758583" lon="12.710295"><ele>238.4</ele><time>2026-04-04T13:43:10.689Z</time></trkpt><trkpt lat="43.6757583" lon="12.7103067"><ele>238.59999999999997</ele><time>2026-04-04T13:43:11.689Z</time></trkpt><trkpt lat="43.67566" lon="12.7103233"><ele>238.79999999999998</ele><time>2026-04-04T13:43:12.689Z</time></trkpt><trkpt lat="43.6755583" lon="12.7103517"><ele>239.0</ele><time>2026-04-04T13:43:13.69Z</time></trkpt><trkpt lat="43.6754667" lon="12.7103683"><ele>239.0</ele><time>2026-04-04T13:43:14.688Z</time></trkpt><trkpt lat="43.675375" lon="12.71037"><ele>239.0</ele><time>2026-04-04T13:43:15.686Z</time></trkpt><trkpt lat="43.67528" lon="12.7103667"><ele>239.0</ele><time>2026-04-04T13:43:16.69Z</time></trkpt><trkpt lat="43.6751783" lon="12.7103467"><ele>239.0</ele><time>2026-04-04T13:43:17.689Z</time></trkpt><trkpt lat="43.6749518" lon="12.7102787"><ele>243.0</ele><time>2026-04-04T13:43:19.689Z</time></trkpt><trkpt lat="43.6748292" lon="12.7102286"><ele>247.0</ele><time>2026-04-04T13:43:20.689Z</time></trkpt><trkpt lat="43.6747131" lon="12.7101846"><ele>251.0</ele><time>2026-04-04T13:43:21.687Z</time></trkpt><trkpt lat="43.6746017" lon="12.710145"><ele>255.0</ele><time>2026-04-04T13:43:22.688Z</time></trkpt><trkpt lat="43.674493" lon="12.7101106"><ele>257.8</ele><time>2026-04-04T13:43:23.689Z</time></trkpt><trkpt lat="43.6743914" lon="12.7100741"><ele>260.6</ele><time>2026-04-04T13:43:24.688Z</time></trkpt><trkpt lat="43.6742973" lon="12.7100296"><ele>263.4</ele><time>2026-04-04T13:43:25.689Z</time></trkpt><trkpt lat="43.6742093" lon="12.7099631"><ele>266.2</ele><time>2026-04-04T13:43:26.687Z</time></trkpt><trkpt lat="43.6741259" lon="12.7098843"><ele>269.0</ele><time>2026-04-04T13:43:27.686Z</time></trkpt><trkpt lat="43.6740343" lon="12.7097996"><ele>269.0</ele><time>2026-04-04T13:43:28.686Z</time></trkpt><trkpt lat="43.6739384" lon="12.7097052"><ele>269.0</ele><time>2026-04-04T13:43:29.688Z</time></trkpt><trkpt lat="43.6738448" lon="12.7095979"><ele>269.0</ele><time>2026-04-04T13:43:30.688Z</time></trkpt><trkpt lat="43.6737544" lon="12.7094862"><ele>269.0</ele><time>2026-04-04T13:43:31.69Z</time></trkpt><trkpt lat="43.673665" lon="12.7093791"><ele>272.0</ele><time>2026-04-04T13:43:32.688Z</time></trkpt><trkpt lat="43.6735841" lon="12.7092903"><ele>275.0</ele><time>2026-04-04T13:43:33.688Z</time></trkpt><trkpt lat="43.6735184" lon="12.7092249"><ele>278.0</ele><time>2026-04-04T13:43:34.69Z</time></trkpt><trkpt lat="43.6734516" lon="12.7091875"><ele>281.0</ele><time>2026-04-04T13:43:35.69Z</time></trkpt><trkpt lat="43.6733851" lon="12.7091767"><ele>284.0</ele><time>2026-04-04T13:43:36.689Z</time></trkpt><trkpt lat="43.6733135" lon="12.7091838"><ele>287.0</ele><time>2026-04-04T13:43:37.692Z</time></trkpt><trkpt lat="43.6732327" lon="12.7092004"><ele>287.0</ele><time>2026-04-04T13:43:38.689Z</time></trkpt><trkpt lat="43.6730601" lon="12.7092532"><ele>287.0</ele><time>2026-04-04T13:43:40.69Z</time></trkpt><trkpt lat="43.6729782" lon="12.7092765"><ele>287.0</ele><time>2026-04-04T13:43:41.689Z</time></trkpt><trkpt lat="43.6729026" lon="12.7092935"><ele>287.0</ele><time>2026-04-04T13:43:42.689Z</time></trkpt><trkpt lat="43.6728048" lon="12.7093024"><ele>287.0</ele><time>2026-04-04T13:43:44.69Z</time></trkpt><trkpt lat="43.6727672" lon="12.7093767"><ele>287.0</ele><time>2026-04-04T13:43:48.689Z</time></trkpt><trkpt lat="43.6728772" lon="12.7094056"><ele>287.0</ele><time>2026-04-04T13:43:50.691Z</time></trkpt><trkpt lat="43.6729586" lon="12.709425"><ele>287.0</ele><time>2026-04-04T13:43:51.688Z</time></trkpt><trkpt lat="43.6730558" lon="12.7094665"><ele>287.0</ele><time>2026-04-04T13:43:52.689Z</time></trkpt><trkpt lat="43.6731375" lon="12.7095186"><ele>287.0</ele><time>2026-04-04T13:43:53.69Z</time></trkpt><trkpt lat="43.6732143" lon="12.7095765"><ele>288.0</ele><time>2026-04-04T13:43:54.69Z</time></trkpt><trkpt lat="43.6732846" lon="12.7096493"><ele>289.0</ele><time>2026-04-04T13:43:55.691Z</time></trkpt><trkpt lat="43.673349" lon="12.7097385"><ele>290.0</ele><time>2026-04-04T13:43:56.687Z</time></trkpt><trkpt lat="43.6734083" lon="12.7098463"><ele>291.0</ele><time>2026-04-04T13:43:57.687Z</time></trkpt><trkpt lat="43.6734477" lon="12.70998"><ele>292.0</ele><time>2026-04-04T13:43:58.689Z</time></trkpt><trkpt lat="43.6734742" lon="12.7101303"><ele>289.0</ele><time>2026-04-04T13:43:59.692Z</time></trkpt><trkpt lat="43.6735445" lon="12.7104048"><ele>286.0</ele><time>2026-04-04T13:44:01.691Z</time></trkpt><trkpt lat="43.6735936" lon="12.710515"><ele>283.0</ele><time>2026-04-04T13:44:02.69Z</time></trkpt><trkpt lat="43.6736579" lon="12.7106166"><ele>280.0</ele><time>2026-04-04T13:44:03.692Z</time></trkpt><trkpt lat="43.673724" lon="12.7107074"><ele>280.0</ele><time>2026-04-04T13:44:04.691Z</time></trkpt><trkpt lat="43.6737879" lon="12.7107966"><ele>280.0</ele><time>2026-04-04T13:44:05.69Z</time></trkpt><trkpt lat="43.6738418" lon="12.7108937"><ele>280.0</ele><time>2026-04-04T13:44:06.691Z</time></trkpt><trkpt lat="43.6738855" lon="12.7110117"><ele>280.0</ele><time>2026-04-04T13:44:07.69Z</time></trkpt><trkpt lat="43.6739263" lon="12.7111476"><ele>280.0</ele><time>2026-04-04T13:44:08.691Z</time></trkpt><trkpt lat="43.6739782" lon="12.7112765"><ele>282.66666666666663</ele><time>2026-04-04T13:44:09.692Z</time></trkpt><trkpt lat="43.6740302" lon="12.7113956"><ele>285.3333333333333</ele><time>2026-04-04T13:44:10.689Z</time></trkpt><trkpt lat="43.6740778" lon="12.7115012"><ele>288.0</ele><time>2026-04-04T13:44:11.69Z</time></trkpt><trkpt lat="43.6741159" lon="12.7115959"><ele>290.6666666666667</ele><time>2026-04-04T13:44:12.69Z</time></trkpt><trkpt lat="43.6741428" lon="12.7116849"><ele>293.33333333333337</ele><time>2026-04-04T13:44:13.69Z</time></trkpt><trkpt lat="43.6741445" lon="12.7117728"><ele>296.0</ele><time>2026-04-04T13:44:14.688Z</time></trkpt><trkpt lat="43.6741231" lon="12.7118593"><ele>293.5</ele><time>2026-04-04T13:44:15.687Z</time></trkpt><trkpt lat="43.6740867" lon="12.7119513"><ele>291.0</ele><time>2026-04-04T13:44:16.688Z</time></trkpt><trkpt lat="43.6740483" lon="12.712048"><ele>288.5</ele><time>2026-04-04T13:44:17.688Z</time></trkpt><trkpt lat="43.6739958" lon="12.7121359"><ele>286.0</ele><time>2026-04-04T13:44:18.688Z</time></trkpt><trkpt lat="43.6739196" lon="12.7122111"><ele>283.5</ele><time>2026-04-04T13:44:19.691Z</time></trkpt><trkpt lat="43.6738285" lon="12.7122753"><ele>281.0</ele><time>2026-04-04T13:44:20.689Z</time></trkpt><trkpt lat="43.6736263" lon="12.7123719"><ele>287.2</ele><time>2026-04-04T13:44:22.689Z</time></trkpt><trkpt lat="43.6735133" lon="12.7124089"><ele>293.40000000000003</ele><time>2026-04-04T13:44:23.689Z</time></trkpt><trkpt lat="43.6733995" lon="12.7124452"><ele>299.6</ele><time>2026-04-04T13:44:24.69Z</time></trkpt><trkpt lat="43.6732954" lon="12.7124789"><ele>305.8</ele><time>2026-04-04T13:44:25.691Z</time></trkpt><trkpt lat="43.6731916" lon="12.7125123"><ele>312.0</ele><time>2026-04-04T13:44:26.689Z</time></trkpt><trkpt lat="43.6731011" lon="12.712544"><ele>312.0</ele><time>2026-04-04T13:44:27.688Z</time></trkpt><trkpt lat="43.6730172" lon="12.7125862"><ele>312.0</ele><time>2026-04-04T13:44:28.69Z</time></trkpt><trkpt lat="43.6729424" lon="12.7126354"><ele>312.0</ele><time>2026-04-04T13:44:29.688Z</time></trkpt><trkpt lat="43.672875" lon="12.7126991"><ele>312.0</ele><time>2026-04-04T13:44:30.69Z</time></trkpt><trkpt lat="43.6728128" lon="12.7127699"><ele>312.0</ele><time>2026-04-04T13:44:31.69Z</time></trkpt><trkpt lat="43.6727556" lon="12.7128298"><ele>312.0</ele><time>2026-04-04T13:44:32.689Z</time></trkpt><trkpt lat="43.672706" lon="12.7128978"><ele>315.1666666666667</ele><time>2026-04-04T13:44:33.688Z</time></trkpt><trkpt lat="43.6726661" lon="12.7130005"><ele>318.3333333333333</ele><time>2026-04-04T13:44:34.687Z</time></trkpt><trkpt lat="43.6726414" lon="12.7131013"><ele>321.5</ele><time>2026-04-04T13:44:35.689Z</time></trkpt><trkpt lat="43.6726162" lon="12.7131883"><ele>324.66666666666663</ele><time>2026-04-04T13:44:36.687Z</time></trkpt><trkpt lat="43.6725664" lon="12.7133154"><ele>327.8333333333333</ele><time>2026-04-04T13:44:38.69Z</time></trkpt><trkpt lat="43.672533" lon="12.7131884"><ele>331.0</ele><time>2026-04-04T13:44:43.688Z</time></trkpt><trkpt lat="43.6725304" lon="12.7129287"><ele>331.0</ele><time>2026-04-04T13:44:45.688Z</time></trkpt><trkpt lat="43.6725214" lon="12.712789"><ele>331.0</ele><time>2026-04-04T13:44:46.689Z</time></trkpt><trkpt lat="43.6725235" lon="12.7126635"><ele>331.0</ele><time>2026-04-04T13:44:47.69Z</time></trkpt><trkpt lat="43.6725323" lon="12.7125497"><ele>331.0</ele><time>2026-04-04T13:44:48.688Z</time></trkpt><trkpt lat="43.672554" lon="12.712443"><ele>331.0</ele><time>2026-04-04T13:44:49.691Z</time></trkpt><trkpt lat="43.6725945" lon="12.7123476"><ele>331.0</ele><time>2026-04-04T13:44:50.69Z</time></trkpt><trkpt lat="43.6726634" lon="12.7122748"><ele>332.6</ele><time>2026-04-04T13:44:51.69Z</time></trkpt><trkpt lat="43.6727527" lon="12.7122168"><ele>334.20000000000005</ele><time>2026-04-04T13:44:52.691Z</time></trkpt><trkpt lat="43.6728535" lon="12.7121676"><ele>335.79999999999995</ele><time>2026-04-04T13:44:53.691Z</time></trkpt><trkpt lat="43.6729515" lon="12.7121139"><ele>337.4</ele><time>2026-04-04T13:44:54.688Z</time></trkpt><trkpt lat="43.6730335" lon="12.712059"><ele>339.0</ele><time>2026-04-04T13:44:55.69Z</time></trkpt><trkpt lat="43.6731038" lon="12.712009"><ele>339.0</ele><time>2026-04-04T13:44:56.688Z</time></trkpt><trkpt lat="43.6731784" lon="12.7119216"><ele>339.0</ele><time>2026-04-04T13:44:58.69Z</time></trkpt><trkpt lat="43.6731174" lon="12.7118869"><ele>339.0</ele><time>2026-04-04T13:45:01.69Z</time></trkpt><trkpt lat="43.6729963" lon="12.7119493"><ele>339.0</ele><time>2026-04-04T13:45:03.689Z</time></trkpt><trkpt lat="43.6728885" lon="12.7120055"><ele>339.0</ele><time>2026-04-04T13:45:04.692Z</time></trkpt><trkpt lat="43.6726688" lon="12.7121331"><ele>339.0</ele><time>2026-04-04T13:45:06.688Z</time></trkpt><trkpt lat="43.6725763" lon="12.7121911"><ele>339.0</ele><time>2026-04-04T13:45:07.69Z</time></trkpt><trkpt lat="43.6724951" lon="12.7122557"><ele>339.0</ele><time>2026-04-04T13:45:08.689Z</time></trkpt><trkpt lat="43.6724288" lon="12.7123336"><ele>339.0</ele><time>2026-04-04T13:45:09.687Z</time></trkpt><trkpt lat="43.6723781" lon="12.7124241"><ele>339.0</ele><time>2026-04-04T13:45:10.687Z</time></trkpt><trkpt lat="43.6723378" lon="12.7125349"><ele>339.0</ele><time>2026-04-04T13:45:11.687Z</time></trkpt><trkpt lat="43.6723051" lon="12.7126626"><ele>339.0</ele><time>2026-04-04T13:45:12.688Z</time></trkpt><trkpt lat="43.6722782" lon="12.7127989"><ele>339.0</ele><time>2026-04-04T13:45:13.69Z</time></trkpt><trkpt lat="43.672249" lon="12.7129342"><ele>339.0</ele><time>2026-04-04T13:45:14.688Z</time></trkpt><trkpt lat="43.672217" lon="12.7130674"><ele>339.0</ele><time>2026-04-04T13:45:15.687Z</time></trkpt><trkpt lat="43.6721787" lon="12.7131943"><ele>338.3333333333333</ele><time>2026-04-04T13:45:16.688Z</time></trkpt><trkpt lat="43.6721356" lon="12.7133113"><ele>337.6666666666667</ele><time>2026-04-04T13:45:17.696Z</time></trkpt><trkpt lat="43.6720995" lon="12.7134211"><ele>337.0</ele><time>2026-04-04T13:45:18.688Z</time></trkpt><trkpt lat="43.6720629" lon="12.7135215"><ele>336.33333333333337</ele><time>2026-04-04T13:45:19.69Z</time></trkpt><trkpt lat="43.6720225" lon="12.7136003"><ele>335.6666666666667</ele><time>2026-04-04T13:45:20.686Z</time></trkpt><trkpt lat="43.6719608" lon="12.7137207"><ele>335.0</ele><time>2026-04-04T13:45:22.688Z</time></trkpt><trkpt lat="43.6719333" lon="12.71384"><ele>335.0</ele><time>2026-04-04T13:45:24.688Z</time></trkpt><trkpt lat="43.6719624" lon="12.7140142"><ele>335.0</ele><time>2026-04-04T13:45:26.687Z</time></trkpt><trkpt lat="43.6719805" lon="12.7142119"><ele>335.0</ele><time>2026-04-04T13:45:28.687Z</time></trkpt><trkpt lat="43.6719634" lon="12.7143254"><ele>335.0</ele><time>2026-04-04T13:45:29.687Z</time></trkpt><trkpt lat="43.6719303" lon="12.7144496"><ele>343.2</ele><time>2026-04-04T13:45:30.69Z</time></trkpt><trkpt lat="43.6718927" lon="12.7145799"><ele>351.4</ele><time>2026-04-04T13:45:31.689Z</time></trkpt><trkpt lat="43.6718641" lon="12.7147165"><ele>359.6</ele><time>2026-04-04T13:45:32.688Z</time></trkpt><trkpt lat="43.6718555" lon="12.7148574"><ele>367.8</ele><time>2026-04-04T13:45:33.688Z</time></trkpt><trkpt lat="43.6718604" lon="12.715004"><ele>376.0</ele><time>2026-04-04T13:45:34.688Z</time></trkpt><trkpt lat="43.671872" lon="12.715146"><ele>376.5</ele><time>2026-04-04T13:45:35.688Z</time></trkpt><trkpt lat="43.6718847" lon="12.7152738"><ele>377.0</ele><time>2026-04-04T13:45:36.687Z</time></trkpt><trkpt lat="43.6719055" lon="12.7153908"><ele>377.5</ele><time>2026-04-04T13:45:37.69Z</time></trkpt><trkpt lat="43.6719426" lon="12.7154967"><ele>378.0</ele><time>2026-04-04T13:45:38.687Z</time></trkpt><trkpt lat="43.6719946" lon="12.7155948"><ele>378.5</ele><time>2026-04-04T13:45:39.686Z</time></trkpt><trkpt lat="43.6720507" lon="12.7156958"><ele>379.0</ele><time>2026-04-04T13:45:40.688Z</time></trkpt><trkpt lat="43.6720941" lon="12.7158001"><ele>373.2</ele><time>2026-04-04T13:45:41.688Z</time></trkpt><trkpt lat="43.6721215" lon="12.7159147"><ele>367.4</ele><time>2026-04-04T13:45:42.689Z</time></trkpt><trkpt lat="43.6721294" lon="12.7160359"><ele>361.6</ele><time>2026-04-04T13:45:43.687Z</time></trkpt><trkpt lat="43.6721216" lon="12.7161648"><ele>355.8</ele><time>2026-04-04T13:45:44.687Z</time></trkpt><trkpt lat="43.6720943" lon="12.7162988"><ele>350.0</ele><time>2026-04-04T13:45:45.687Z</time></trkpt><trkpt lat="43.6720621" lon="12.7164384"><ele>350.0</ele><time>2026-04-04T13:45:46.686Z</time></trkpt><trkpt lat="43.6720311" lon="12.7165836"><ele>350.0</ele><time>2026-04-04T13:45:47.687Z</time></trkpt><trkpt lat="43.6719887" lon="12.7168919"><ele>350.0</ele><time>2026-04-04T13:45:49.691Z</time></trkpt><trkpt lat="43.6719673" lon="12.7170319"><ele>350.0</ele><time>2026-04-04T13:45:50.688Z</time></trkpt><trkpt lat="43.67196" lon="12.7171524"><ele>350.33333333333337</ele><time>2026-04-04T13:45:51.686Z</time></trkpt><trkpt lat="43.6719621" lon="12.7172569"><ele>350.6666666666667</ele><time>2026-04-04T13:45:52.686Z</time></trkpt><trkpt lat="43.671982" lon="12.71736"><ele>351.0</ele><time>2026-04-04T13:45:53.688Z</time></trkpt><trkpt lat="43.6720166" lon="12.717475"><ele>351.3333333333333</ele><time>2026-04-04T13:45:54.688Z</time></trkpt><trkpt lat="43.6720552" lon="12.7175928"><ele>351.66666666666663</ele><time>2026-04-04T13:45:55.688Z</time></trkpt><trkpt lat="43.6720869" lon="12.7177215"><ele>352.0</ele><time>2026-04-04T13:45:56.688Z</time></trkpt><trkpt lat="43.6720968" lon="12.7178427"><ele>353.16666666666663</ele><time>2026-04-04T13:45:57.688Z</time></trkpt><trkpt lat="43.6720952" lon="12.71796"><ele>354.3333333333333</ele><time>2026-04-04T13:45:58.687Z</time></trkpt><trkpt lat="43.6720865" lon="12.7180719"><ele>355.5</ele><time>2026-04-04T13:45:59.689Z</time></trkpt><trkpt lat="43.672071" lon="12.7181761"><ele>356.6666666666667</ele><time>2026-04-04T13:46:00.686Z</time></trkpt><trkpt lat="43.6720428" lon="12.7182791"><ele>357.83333333333337</ele><time>2026-04-04T13:46:01.687Z</time></trkpt><trkpt lat="43.6720113" lon="12.7183874"><ele>359.0</ele><time>2026-04-04T13:46:02.688Z</time></trkpt><trkpt lat="43.6719816" lon="12.7185028"><ele>359.33333333333337</ele><time>2026-04-04T13:46:03.687Z</time></trkpt><trkpt lat="43.6719553" lon="12.7186171"><ele>359.6666666666667</ele><time>2026-04-04T13:46:04.687Z</time></trkpt><trkpt lat="43.6719271" lon="12.7187228"><ele>360.0</ele><time>2026-04-04T13:46:05.689Z</time></trkpt><trkpt lat="43.671883" lon="12.7188196"><ele>360.3333333333333</ele><time>2026-04-04T13:46:06.689Z</time></trkpt><trkpt lat="43.671821" lon="12.7189073"><ele>360.66666666666663</ele><time>2026-04-04T13:46:07.689Z</time></trkpt><trkpt lat="43.6717493" lon="12.7189847"><ele>361.0</ele><time>2026-04-04T13:46:08.686Z</time></trkpt><trkpt lat="43.6715706" lon="12.7190943"><ele>362.0</ele><time>2026-04-04T13:46:10.687Z</time></trkpt><trkpt lat="43.6714746" lon="12.7191247"><ele>363.0</ele><time>2026-04-04T13:46:11.688Z</time></trkpt><trkpt lat="43.6713876" lon="12.7191424"><ele>364.0</ele><time>2026-04-04T13:46:12.688Z</time></trkpt><trkpt lat="43.6713061" lon="12.7191306"><ele>365.0</ele><time>2026-04-04T13:46:13.691Z</time></trkpt><trkpt lat="43.6712299" lon="12.7190949"><ele>366.0</ele><time>2026-04-04T13:46:14.688Z</time></trkpt><trkpt lat="43.671158" lon="12.7190483"><ele>367.0</ele><time>2026-04-04T13:46:15.688Z</time></trkpt><trkpt lat="43.6710882" lon="12.7190082"><ele>368.5</ele><time>2026-04-04T13:46:16.687Z</time></trkpt><trkpt lat="43.6710173" lon="12.7189911"><ele>370.0</ele><time>2026-04-04T13:46:17.689Z</time></trkpt><trkpt lat="43.6709537" lon="12.7189996"><ele>371.5</ele><time>2026-04-04T13:46:18.688Z</time></trkpt><trkpt lat="43.6708484" lon="12.7190726"><ele>373.0</ele><time>2026-04-04T13:46:20.688Z</time></trkpt><trkpt lat="43.67081" lon="12.7191593"><ele>374.5</ele><time>2026-04-04T13:46:21.687Z</time></trkpt><trkpt lat="43.6707836" lon="12.7192747"><ele>376.0</ele><time>2026-04-04T13:46:22.688Z</time></trkpt><trkpt lat="43.6707505" lon="12.7194011"><ele>376.0</ele><time>2026-04-04T13:46:23.69Z</time></trkpt><trkpt lat="43.6707135" lon="12.7195239"><ele>376.0</ele><time>2026-04-04T13:46:24.69Z</time></trkpt><trkpt lat="43.6706734" lon="12.7196275"><ele>376.0</ele><time>2026-04-04T13:46:25.69Z</time></trkpt><trkpt lat="43.6706342" lon="12.7197177"><ele>376.0</ele><time>2026-04-04T13:46:26.688Z</time></trkpt><trkpt lat="43.6705948" lon="12.7197921"><ele>376.0</ele><time>2026-04-04T13:46:27.688Z</time></trkpt><trkpt lat="43.6705169" lon="12.7198796"><ele>376.0</ele><time>2026-04-04T13:46:29.689Z</time></trkpt><trkpt lat="43.6704889" lon="12.7196458"><ele>376.0</ele><time>2026-04-04T13:46:34.687Z</time></trkpt><trkpt lat="43.6705058" lon="12.7195398"><ele>376.0</ele><time>2026-04-04T13:46:35.688Z</time></trkpt><trkpt lat="43.6705398" lon="12.71937"><ele>376.0</ele><time>2026-04-04T13:46:36.687Z</time></trkpt><trkpt lat="43.6705736" lon="12.7192133"><ele>376.0</ele><time>2026-04-04T13:46:37.689Z</time></trkpt><trkpt lat="43.6706145" lon="12.7190584"><ele>376.0</ele><time>2026-04-04T13:46:38.689Z</time></trkpt><trkpt lat="43.6706723" lon="12.7189057"><ele>379.20000000000005</ele><time>2026-04-04T13:46:39.686Z</time></trkpt><trkpt lat="43.6707266" lon="12.7187767"><ele>382.40000000000003</ele><time>2026-04-04T13:46:40.69Z</time></trkpt><trkpt lat="43.6707738" lon="12.7186778"><ele>385.6</ele><time>2026-04-04T13:46:41.686Z</time></trkpt><trkpt lat="43.6708296" lon="12.7185781"><ele>388.8</ele><time>2026-04-04T13:46:42.687Z</time></trkpt><trkpt lat="43.6708942" lon="12.7184824"><ele>392.0</ele><time>2026-04-04T13:46:43.689Z</time></trkpt><trkpt lat="43.6709666" lon="12.7184029"><ele>390.3333333333333</ele><time>2026-04-04T13:46:44.69Z</time></trkpt><trkpt lat="43.6710369" lon="12.7183491"><ele>388.66666666666663</ele><time>2026-04-04T13:46:45.688Z</time></trkpt><trkpt lat="43.6710964" lon="12.7182984"><ele>387.0</ele><time>2026-04-04T13:46:46.687Z</time></trkpt><trkpt lat="43.6711477" lon="12.7182327"><ele>385.3333333333333</ele><time>2026-04-04T13:46:47.689Z</time></trkpt><trkpt lat="43.6711863" lon="12.7181378"><ele>383.66666666666663</ele><time>2026-04-04T13:46:48.688Z</time></trkpt><trkpt lat="43.6712153" lon="12.7180293"><ele>382.0</ele><time>2026-04-04T13:46:49.691Z</time></trkpt><trkpt lat="43.6712349" lon="12.7179102"><ele>382.5</ele><time>2026-04-04T13:46:50.686Z</time></trkpt><trkpt lat="43.6712291" lon="12.7176813"><ele>383.0</ele><time>2026-04-04T13:46:52.688Z</time></trkpt><trkpt lat="43.6712018" lon="12.717561"><ele>383.5</ele><time>2026-04-04T13:46:53.69Z</time></trkpt><trkpt lat="43.6711645" lon="12.7174256"><ele>384.0</ele><time>2026-04-04T13:46:54.688Z</time></trkpt><trkpt lat="43.6711282" lon="12.7172903"><ele>390.8333333333333</ele><time>2026-04-04T13:46:55.691Z</time></trkpt><trkpt lat="43.6710961" lon="12.7171685"><ele>397.66666666666663</ele><time>2026-04-04T13:46:56.687Z</time></trkpt><trkpt lat="43.6710576" lon="12.7170585"><ele>404.5</ele><time>2026-04-04T13:46:57.686Z</time></trkpt><trkpt lat="43.6710167" lon="12.7169507"><ele>411.3333333333333</ele><time>2026-04-04T13:46:58.69Z</time></trkpt><trkpt lat="43.67098" lon="12.7168431"><ele>418.16666666666663</ele><time>2026-04-04T13:46:59.69Z</time></trkpt><trkpt lat="43.6709503" lon="12.7167339"><ele>425.0</ele><time>2026-04-04T13:47:00.687Z</time></trkpt><trkpt lat="43.6709347" lon="12.7166184"><ele>425.3333333333333</ele><time>2026-04-04T13:47:01.688Z</time></trkpt><trkpt lat="43.6709282" lon="12.7164991"><ele>425.66666666666663</ele><time>2026-04-04T13:47:02.688Z</time></trkpt><trkpt lat="43.670924" lon="12.7163875"><ele>426.0</ele><time>2026-04-04T13:47:03.688Z</time></trkpt><trkpt lat="43.6709119" lon="12.7162911"><ele>426.33333333333337</ele><time>2026-04-04T13:47:04.689Z</time></trkpt><trkpt lat="43.6708784" lon="12.7161323"><ele>426.6666666666667</ele><time>2026-04-04T13:47:06.69Z</time></trkpt><trkpt lat="43.6708525" lon="12.7160522"><ele>427.0</ele><time>2026-04-04T13:47:07.689Z</time></trkpt><trkpt lat="43.6708319" lon="12.7159686"><ele>427.00000000000006</ele><time>2026-04-04T13:47:08.688Z</time></trkpt><trkpt lat="43.6708187" lon="12.7158775"><ele>427.0</ele><time>2026-04-04T13:47:09.688Z</time></trkpt><trkpt lat="43.6708184" lon="12.7157831"><ele>427.0</ele><time>2026-04-04T13:47:10.688Z</time></trkpt><trkpt lat="43.670828" lon="12.7156745"><ele>427.0</ele><time>2026-04-04T13:47:11.689Z</time></trkpt><trkpt lat="43.6708399" lon="12.7154587"><ele>427.00000000000006</ele><time>2026-04-04T13:47:13.689Z</time></trkpt><trkpt lat="43.6708413" lon="12.7153604"><ele>427.0</ele><time>2026-04-04T13:47:14.688Z</time></trkpt><trkpt lat="43.670841" lon="12.7152636"><ele>426.6</ele><time>2026-04-04T13:47:15.689Z</time></trkpt><trkpt lat="43.6708262" lon="12.7151577"><ele>426.20000000000005</ele><time>2026-04-04T13:47:16.689Z</time></trkpt><trkpt lat="43.6708032" lon="12.7150481"><ele>425.8</ele><time>2026-04-04T13:47:17.688Z</time></trkpt><trkpt lat="43.6707724" lon="12.7149302"><ele>425.4</ele><time>2026-04-04T13:47:18.687Z</time></trkpt><trkpt lat="43.6707368" lon="12.7148037"><ele>425.0</ele><time>2026-04-04T13:47:19.688Z</time></trkpt><trkpt lat="43.6707013" lon="12.7146664"><ele>424.99999999999994</ele><time>2026-04-04T13:47:20.688Z</time></trkpt><trkpt lat="43.6706762" lon="12.7145259"><ele>425.0</ele><time>2026-04-04T13:47:21.688Z</time></trkpt><trkpt lat="43.6706707" lon="12.7144008"><ele>425.0</ele><time>2026-04-04T13:47:22.688Z</time></trkpt><trkpt lat="43.6706729" lon="12.7142876"><ele>425.0</ele><time>2026-04-04T13:47:23.688Z</time></trkpt><trkpt lat="43.6706766" lon="12.7141859"><ele>424.99999999999994</ele><time>2026-04-04T13:47:24.688Z</time></trkpt><trkpt lat="43.6706711" lon="12.7140917"><ele>425.0</ele><time>2026-04-04T13:47:25.69Z</time></trkpt><trkpt lat="43.6706588" lon="12.7139941"><ele>424.66666666666663</ele><time>2026-04-04T13:47:26.689Z</time></trkpt><trkpt lat="43.6706414" lon="12.7138937"><ele>424.3333333333333</ele><time>2026-04-04T13:47:27.687Z</time></trkpt><trkpt lat="43.6706283" lon="12.7137935"><ele>424.0</ele><time>2026-04-04T13:47:28.689Z</time></trkpt><trkpt lat="43.6706295" lon="12.7136922"><ele>423.66666666666663</ele><time>2026-04-04T13:47:29.688Z</time></trkpt><trkpt lat="43.6706529" lon="12.7135854"><ele>423.3333333333333</ele><time>2026-04-04T13:47:30.688Z</time></trkpt><trkpt lat="43.6706805" lon="12.7134832"><ele>423.0</ele><time>2026-04-04T13:47:31.69Z</time></trkpt><trkpt lat="43.6707155" lon="12.7133909"><ele>423.79999999999995</ele><time>2026-04-04T13:47:32.688Z</time></trkpt><trkpt lat="43.6707475" lon="12.7131886"><ele>424.6</ele><time>2026-04-04T13:47:34.688Z</time></trkpt><trkpt lat="43.6707487" lon="12.7130771"><ele>425.40000000000003</ele><time>2026-04-04T13:47:35.688Z</time></trkpt><trkpt lat="43.6707452" lon="12.7129583"><ele>426.20000000000005</ele><time>2026-04-04T13:47:36.688Z</time></trkpt><trkpt lat="43.6707284" lon="12.7128332"><ele>427.0</ele><time>2026-04-04T13:47:37.688Z</time></trkpt><trkpt lat="43.6707168" lon="12.7127111"><ele>428.33333333333337</ele><time>2026-04-04T13:47:38.688Z</time></trkpt><trkpt lat="43.6707112" lon="12.7125919"><ele>429.6666666666667</ele><time>2026-04-04T13:47:39.689Z</time></trkpt><trkpt lat="43.6707068" lon="12.7124817"><ele>431.0</ele><time>2026-04-04T13:47:40.687Z</time></trkpt><trkpt lat="43.6706987" lon="12.712373"><ele>432.33333333333337</ele><time>2026-04-04T13:47:41.689Z</time></trkpt><trkpt lat="43.6706846" lon="12.7122622"><ele>433.6666666666667</ele><time>2026-04-04T13:47:42.688Z</time></trkpt><trkpt lat="43.6706677" lon="12.7121481"><ele>435.0</ele><time>2026-04-04T13:47:43.689Z</time></trkpt><trkpt lat="43.6706425" lon="12.7120265"><ele>434.0</ele><time>2026-04-04T13:47:44.688Z</time></trkpt><trkpt lat="43.6706045" lon="12.7119014"><ele>433.0</ele><time>2026-04-04T13:47:45.689Z</time></trkpt><trkpt lat="43.6705621" lon="12.71178"><ele>432.0</ele><time>2026-04-04T13:47:46.688Z</time></trkpt><trkpt lat="43.6705155" lon="12.7116652"><ele>431.0</ele><time>2026-04-04T13:47:47.689Z</time></trkpt><trkpt lat="43.6704614" lon="12.7115538"><ele>430.0</ele><time>2026-04-04T13:47:48.69Z</time></trkpt><trkpt lat="43.6703992" lon="12.7114522"><ele>430.0</ele><time>2026-04-04T13:47:49.688Z</time></trkpt><trkpt lat="43.670318" lon="12.7113585"><ele>430.0</ele><time>2026-04-04T13:47:50.689Z</time></trkpt><trkpt lat="43.6702331" lon="12.7112769"><ele>430.0</ele><time>2026-04-04T13:47:51.686Z</time></trkpt><trkpt lat="43.6701439" lon="12.7112033"><ele>430.0</ele><time>2026-04-04T13:47:52.688Z</time></trkpt><trkpt lat="43.6700528" lon="12.7111432"><ele>430.0</ele><time>2026-04-04T13:47:53.69Z</time></trkpt><trkpt lat="43.6698765" lon="12.7110524"><ele>433.0</ele><time>2026-04-04T13:47:55.687Z</time></trkpt><trkpt lat="43.6697793" lon="12.7110271"><ele>436.0</ele><time>2026-04-04T13:47:56.688Z</time></trkpt><trkpt lat="43.6696789" lon="12.7110119"><ele>439.0</ele><time>2026-04-04T13:47:57.687Z</time></trkpt><trkpt lat="43.6695766" lon="12.7109933"><ele>442.0</ele><time>2026-04-04T13:47:58.688Z</time></trkpt><trkpt lat="43.6694755" lon="12.7109685"><ele>445.0</ele><time>2026-04-04T13:47:59.688Z</time></trkpt><trkpt lat="43.6693724" lon="12.7109312"><ele>450.4</ele><time>2026-04-04T13:48:00.687Z</time></trkpt><trkpt lat="43.6692689" lon="12.7108857"><ele>455.8</ele><time>2026-04-04T13:48:01.688Z</time></trkpt><trkpt lat="43.6691703" lon="12.7108387"><ele>461.20000000000005</ele><time>2026-04-04T13:48:02.687Z</time></trkpt><trkpt lat="43.6690679" lon="12.7107861"><ele>466.6</ele><time>2026-04-04T13:48:03.687Z</time></trkpt><trkpt lat="43.6689607" lon="12.7107314"><ele>472.0</ele><time>2026-04-04T13:48:04.689Z</time></trkpt><trkpt lat="43.6688577" lon="12.7106755"><ele>472.00000000000006</ele><time>2026-04-04T13:48:05.69Z</time></trkpt><trkpt lat="43.668764" lon="12.7106184"><ele>472.0</ele><time>2026-04-04T13:48:06.687Z</time></trkpt><trkpt lat="43.6686804" lon="12.7105583"><ele>472.0</ele><time>2026-04-04T13:48:07.689Z</time></trkpt><trkpt lat="43.6686117" lon="12.7104861"><ele>472.0</ele><time>2026-04-04T13:48:08.688Z</time></trkpt><trkpt lat="43.6685711" lon="12.7104028"><ele>472.00000000000006</ele><time>2026-04-04T13:48:09.689Z</time></trkpt><trkpt lat="43.6685354" lon="12.7103189"><ele>472.0</ele><time>2026-04-04T13:48:10.687Z</time></trkpt><trkpt lat="43.6684667" lon="12.7102169"><ele>479.75</ele><time>2026-04-04T13:48:12.686Z</time></trkpt><trkpt lat="43.6683927" lon="12.7102536"><ele>487.5</ele><time>2026-04-04T13:48:14.689Z</time></trkpt><trkpt lat="43.668391" lon="12.7105279"><ele>495.25</ele><time>2026-04-04T13:48:18.686Z</time></trkpt><trkpt lat="43.6684519" lon="12.7106348"><ele>503.0</ele><time>2026-04-04T13:48:19.688Z</time></trkpt><trkpt lat="43.6685347" lon="12.7107481"><ele>502.5</ele><time>2026-04-04T13:48:20.686Z</time></trkpt><trkpt lat="43.6686489" lon="12.710865"><ele>502.0</ele><time>2026-04-04T13:48:21.688Z</time></trkpt><trkpt lat="43.6687699" lon="12.7109782"><ele>501.5</ele><time>2026-04-04T13:48:22.688Z</time></trkpt><trkpt lat="43.6688914" lon="12.7110904"><ele>501.0</ele><time>2026-04-04T13:48:23.689Z</time></trkpt><trkpt lat="43.6690053" lon="12.7111928"><ele>501.0</ele><time>2026-04-04T13:48:24.689Z</time></trkpt><trkpt lat="43.669118" lon="12.7112819"><ele>501.0</ele><time>2026-04-04T13:48:25.69Z</time></trkpt><trkpt lat="43.6692106" lon="12.7113564"><ele>501.0</ele><time>2026-04-04T13:48:26.688Z</time></trkpt><trkpt lat="43.669279" lon="12.711431"><ele>501.0</ele><time>2026-04-04T13:48:27.689Z</time></trkpt><trkpt lat="43.6693419" lon="12.7115173"><ele>501.0</ele><time>2026-04-04T13:48:28.686Z</time></trkpt><trkpt lat="43.6693869" lon="12.7116097"><ele>501.0</ele><time>2026-04-04T13:48:29.688Z</time></trkpt><trkpt lat="43.6694111" lon="12.7117139"><ele>501.0</ele><time>2026-04-04T13:48:30.688Z</time></trkpt><trkpt lat="43.6694221" lon="12.7118272"><ele>501.0</ele><time>2026-04-04T13:48:31.687Z</time></trkpt><trkpt lat="43.669418" lon="12.7119521"><ele>501.0</ele><time>2026-04-04T13:48:32.686Z</time></trkpt><trkpt lat="43.6694069" lon="12.7120835"><ele>501.0</ele><time>2026-04-04T13:48:33.687Z</time></trkpt><trkpt lat="43.6693928" lon="12.7122175"><ele>501.0</ele><time>2026-04-04T13:48:34.687Z</time></trkpt><trkpt lat="43.6693829" lon="12.7123524"><ele>504.25</ele><time>2026-04-04T13:48:35.69Z</time></trkpt><trkpt lat="43.6693563" lon="12.7126475"><ele>507.5</ele><time>2026-04-04T13:48:37.69Z</time></trkpt><trkpt lat="43.6693425" lon="12.7127984"><ele>510.75</ele><time>2026-04-04T13:48:38.687Z</time></trkpt><trkpt lat="43.6693278" lon="12.7129465"><ele>514.0</ele><time>2026-04-04T13:48:39.688Z</time></trkpt><trkpt lat="43.669322" lon="12.713087"><ele>515.6666666666667</ele><time>2026-04-04T13:48:40.687Z</time></trkpt><trkpt lat="43.6693228" lon="12.7132209"><ele>517.3333333333334</ele><time>2026-04-04T13:48:41.688Z</time></trkpt><trkpt lat="43.6693251" lon="12.7133387"><ele>519.0</ele><time>2026-04-04T13:48:42.687Z</time></trkpt><trkpt lat="43.6693334" lon="12.7134382"><ele>520.6666666666666</ele><time>2026-04-04T13:48:43.689Z</time></trkpt><trkpt lat="43.66935" lon="12.7135933"><ele>522.3333333333333</ele><time>2026-04-04T13:48:45.688Z</time></trkpt><trkpt lat="43.6692817" lon="12.713559"><ele>524.0</ele><time>2026-04-04T13:48:49.688Z</time></trkpt><trkpt lat="43.6692482" lon="12.713442"><ele>524.0</ele><time>2026-04-04T13:48:50.687Z</time></trkpt><trkpt lat="43.6692123" lon="12.7132829"><ele>524.0</ele><time>2026-04-04T13:48:51.687Z</time></trkpt><trkpt lat="43.6691642" lon="12.7131131"><ele>524.0</ele><time>2026-04-04T13:48:52.688Z</time></trkpt><trkpt lat="43.6690969" lon="12.7129489"><ele>524.0</ele><time>2026-04-04T13:48:53.688Z</time></trkpt><trkpt lat="43.6690301" lon="12.7127888"><ele>520.6666666666666</ele><time>2026-04-04T13:48:54.688Z</time></trkpt><trkpt lat="43.6689737" lon="12.7126356"><ele>517.3333333333334</ele><time>2026-04-04T13:48:55.687Z</time></trkpt><trkpt lat="43.668923" lon="12.7124847"><ele>514.0</ele><time>2026-04-04T13:48:56.687Z</time></trkpt><trkpt lat="43.668836" lon="12.712182"><ele>514.0</ele><time>2026-04-04T13:48:58.688Z</time></trkpt><trkpt lat="43.668787" lon="12.7120424"><ele>514.0</ele><time>2026-04-04T13:48:59.687Z</time></trkpt><trkpt lat="43.6687324" lon="12.7119219"><ele>514.0</ele><time>2026-04-04T13:49:00.687Z</time></trkpt><trkpt lat="43.6686625" lon="12.7118236"><ele>514.0</ele><time>2026-04-04T13:49:01.688Z</time></trkpt><trkpt lat="43.6685793" lon="12.7117409"><ele>514.0</ele><time>2026-04-04T13:49:02.687Z</time></trkpt><trkpt lat="43.6684911" lon="12.7116761"><ele>517.4</ele><time>2026-04-04T13:49:03.688Z</time></trkpt><trkpt lat="43.668396" lon="12.7116262"><ele>520.8</ele><time>2026-04-04T13:49:04.688Z</time></trkpt><trkpt lat="43.6682954" lon="12.7115965"><ele>524.2</ele><time>2026-04-04T13:49:05.688Z</time></trkpt><trkpt lat="43.6681871" lon="12.7115839"><ele>527.6</ele><time>2026-04-04T13:49:06.688Z</time></trkpt><trkpt lat="43.6680717" lon="12.7115853"><ele>531.0</ele><time>2026-04-04T13:49:07.691Z</time></trkpt><trkpt lat="43.6679542" lon="12.7115899"><ele>531.0</ele><time>2026-04-04T13:49:08.689Z</time></trkpt><trkpt lat="43.6678407" lon="12.7115903"><ele>531.0</ele><time>2026-04-04T13:49:09.688Z</time></trkpt><trkpt lat="43.6677414" lon="12.711583"><ele>531.0</ele><time>2026-04-04T13:49:10.687Z</time></trkpt><trkpt lat="43.6676446" lon="12.7115565"><ele>531.0</ele><time>2026-04-04T13:49:11.687Z</time></trkpt><trkpt lat="43.667548" lon="12.7115007"><ele>531.0</ele><time>2026-04-04T13:49:12.687Z</time></trkpt><trkpt lat="43.6674697" lon="12.7114235"><ele>532.0</ele><time>2026-04-04T13:49:13.69Z</time></trkpt><trkpt lat="43.6673892" lon="12.7113237"><ele>533.0</ele><time>2026-04-04T13:49:14.688Z</time></trkpt><trkpt lat="43.6673247" lon="12.7111963"><ele>534.0</ele><time>2026-04-04T13:49:15.688Z</time></trkpt><trkpt lat="43.6672891" lon="12.7110576"><ele>535.0</ele><time>2026-04-04T13:49:16.688Z</time></trkpt><trkpt lat="43.6672587" lon="12.7109243"><ele>536.0</ele><time>2026-04-04T13:49:17.689Z</time></trkpt><trkpt lat="43.6671897" lon="12.7107166"><ele>536.0</ele><time>2026-04-04T13:49:19.689Z</time></trkpt><trkpt lat="43.6671226" lon="12.7106427"><ele>536.0</ele><time>2026-04-04T13:49:21.687Z</time></trkpt><trkpt lat="43.6670803" lon="12.7107163"><ele>536.0</ele><time>2026-04-04T13:49:23.688Z</time></trkpt><trkpt lat="43.6671067" lon="12.7108934"><ele>536.0</ele><time>2026-04-04T13:49:25.69Z</time></trkpt><trkpt lat="43.6671487" lon="12.7110044"><ele>536.0</ele><time>2026-04-04T13:49:26.688Z</time></trkpt><trkpt lat="43.6671992" lon="12.7111281"><ele>541.75</ele><time>2026-04-04T13:49:27.687Z</time></trkpt><trkpt lat="43.6672416" lon="12.7112667"><ele>547.5</ele><time>2026-04-04T13:49:28.687Z</time></trkpt><trkpt lat="43.6672853" lon="12.7114114"><ele>553.25</ele><time>2026-04-04T13:49:29.687Z</time></trkpt><trkpt lat="43.6673543" lon="12.7115427"><ele>559.0</ele><time>2026-04-04T13:49:30.686Z</time></trkpt><trkpt lat="43.6674485" lon="12.7116602"><ele>559.0</ele><time>2026-04-04T13:49:31.689Z</time></trkpt><trkpt lat="43.6675537" lon="12.7117617"><ele>559.0</ele><time>2026-04-04T13:49:32.689Z</time></trkpt><trkpt lat="43.6676581" lon="12.7118505"><ele>559.0</ele><time>2026-04-04T13:49:33.687Z</time></trkpt><trkpt lat="43.6677589" lon="12.711931"><ele>559.0</ele><time>2026-04-04T13:49:34.686Z</time></trkpt><trkpt lat="43.6678424" lon="12.7120089"><ele>556.75</ele><time>2026-04-04T13:49:35.689Z</time></trkpt><trkpt lat="43.6679182" lon="12.7120944"><ele>554.5</ele><time>2026-04-04T13:49:36.688Z</time></trkpt><trkpt lat="43.6679862" lon="12.7121887"><ele>552.25</ele><time>2026-04-04T13:49:37.69Z</time></trkpt><trkpt lat="43.6680464" lon="12.7122922"><ele>550.0</ele><time>2026-04-04T13:49:38.688Z</time></trkpt><trkpt lat="43.6681378" lon="12.712552"><ele>550.0</ele><time>2026-04-04T13:49:40.686Z</time></trkpt><trkpt lat="43.6681707" lon="12.7127127"><ele>550.0</ele><time>2026-04-04T13:49:41.687Z</time></trkpt><trkpt lat="43.6682104" lon="12.7128865"><ele>550.0</ele><time>2026-04-04T13:49:42.687Z</time></trkpt><trkpt lat="43.6682463" lon="12.7130675"><ele>550.0</ele><time>2026-04-04T13:49:43.688Z</time></trkpt><trkpt lat="43.6682925" lon="12.7132435"><ele>553.75</ele><time>2026-04-04T13:49:44.688Z</time></trkpt><trkpt lat="43.6683464" lon="12.7134194"><ele>557.5</ele><time>2026-04-04T13:49:45.688Z</time></trkpt><trkpt lat="43.6683963" lon="12.7135859"><ele>561.25</ele><time>2026-04-04T13:49:46.687Z</time></trkpt><trkpt lat="43.6684374" lon="12.7137422"><ele>565.0</ele><time>2026-04-04T13:49:47.689Z</time></trkpt><trkpt lat="43.6684784" lon="12.7139002"><ele>566.0</ele><time>2026-04-04T13:49:48.69Z</time></trkpt><trkpt lat="43.6685243" lon="12.7140584"><ele>567.0</ele><time>2026-04-04T13:49:49.688Z</time></trkpt><trkpt lat="43.6685693" lon="12.7142124"><ele>568.0</ele><time>2026-04-04T13:49:50.688Z</time></trkpt><trkpt lat="43.6686039" lon="12.7143603"><ele>569.0</ele><time>2026-04-04T13:49:51.687Z</time></trkpt><trkpt lat="43.668626" lon="12.7145129"><ele>563.0</ele><time>2026-04-04T13:49:52.687Z</time></trkpt><trkpt lat="43.6686473" lon="12.71466"><ele>557.0</ele><time>2026-04-04T13:49:53.691Z</time></trkpt><trkpt lat="43.6686697" lon="12.7148034"><ele>551.0</ele><time>2026-04-04T13:49:54.688Z</time></trkpt><trkpt lat="43.6686849" lon="12.7149506"><ele>545.0</ele><time>2026-04-04T13:49:55.688Z</time></trkpt><trkpt lat="43.6686953" lon="12.7150947"><ele>539.0</ele><time>2026-04-04T13:49:56.687Z</time></trkpt><trkpt lat="43.6686984" lon="12.715238"><ele>538.0</ele><time>2026-04-04T13:49:57.689Z</time></trkpt><trkpt lat="43.6686899" lon="12.7153755"><ele>537.0</ele><time>2026-04-04T13:49:58.687Z</time></trkpt><trkpt lat="43.668673" lon="12.7155023"><ele>536.0</ele><time>2026-04-04T13:49:59.686Z</time></trkpt><trkpt lat="43.6686028" lon="12.715718"><ele>535.0</ele><time>2026-04-04T13:50:01.689Z</time></trkpt><trkpt lat="43.6685465" lon="12.715814"><ele>539.6</ele><time>2026-04-04T13:50:02.686Z</time></trkpt><trkpt lat="43.6684833" lon="12.7159121"><ele>544.2</ele><time>2026-04-04T13:50:03.687Z</time></trkpt><trkpt lat="43.6684254" lon="12.7160287"><ele>548.8</ele><time>2026-04-04T13:50:04.689Z</time></trkpt><trkpt lat="43.6683727" lon="12.716161"><ele>553.4</ele><time>2026-04-04T13:50:05.687Z</time></trkpt><trkpt lat="43.6683253" lon="12.7162945"><ele>558.0</ele><time>2026-04-04T13:50:06.687Z</time></trkpt><trkpt lat="43.6682788" lon="12.716426"><ele>558.0</ele><time>2026-04-04T13:50:07.691Z</time></trkpt><trkpt lat="43.6682298" lon="12.7165469"><ele>558.0</ele><time>2026-04-04T13:50:08.687Z</time></trkpt><trkpt lat="43.6681733" lon="12.7166601"><ele>558.0</ele><time>2026-04-04T13:50:09.687Z</time></trkpt><trkpt lat="43.6681199" lon="12.7167797"><ele>558.0</ele><time>2026-04-04T13:50:10.687Z</time></trkpt><trkpt lat="43.6680706" lon="12.7169096"><ele>558.0</ele><time>2026-04-04T13:50:11.689Z</time></trkpt><trkpt lat="43.6680252" lon="12.7170452"><ele>559.8</ele><time>2026-04-04T13:50:12.688Z</time></trkpt><trkpt lat="43.6679779" lon="12.7171881"><ele>561.5999999999999</ele><time>2026-04-04T13:50:13.688Z</time></trkpt><trkpt lat="43.6679319" lon="12.7173228"><ele>563.4000000000001</ele><time>2026-04-04T13:50:14.688Z</time></trkpt><trkpt lat="43.6678825" lon="12.7174485"><ele>565.2</ele><time>2026-04-04T13:50:15.687Z</time></trkpt><trkpt lat="43.6678246" lon="12.7175593"><ele>567.0</ele><time>2026-04-04T13:50:16.69Z</time></trkpt><trkpt lat="43.6677588" lon="12.7176598"><ele>563.0</ele><time>2026-04-04T13:50:17.687Z</time></trkpt><trkpt lat="43.6676912" lon="12.7177467"><ele>559.0</ele><time>2026-04-04T13:50:18.688Z</time></trkpt><trkpt lat="43.6676224" lon="12.7178311"><ele>555.0</ele><time>2026-04-04T13:50:19.689Z</time></trkpt><trkpt lat="43.6675446" lon="12.7178969"><ele>551.0</ele><time>2026-04-04T13:50:20.687Z</time></trkpt><trkpt lat="43.6673753" lon="12.7179598"><ele>551.0</ele><time>2026-04-04T13:50:22.687Z</time></trkpt><trkpt lat="43.6672738" lon="12.717966"><ele>551.0</ele><time>2026-04-04T13:50:23.688Z</time></trkpt><trkpt lat="43.6671604" lon="12.7179485"><ele>551.0</ele><time>2026-04-04T13:50:24.687Z</time></trkpt><trkpt lat="43.6670442" lon="12.717928"><ele>551.0</ele><time>2026-04-04T13:50:25.689Z</time></trkpt><trkpt lat="43.6669256" lon="12.7179134"><ele>553.75</ele><time>2026-04-04T13:50:26.687Z</time></trkpt><trkpt lat="43.6668074" lon="12.7178996"><ele>556.5</ele><time>2026-04-04T13:50:27.69Z</time></trkpt><trkpt lat="43.6666889" lon="12.7179007"><ele>559.25</ele><time>2026-04-04T13:50:28.688Z</time></trkpt><trkpt lat="43.6665753" lon="12.71791"><ele>562.0</ele><time>2026-04-04T13:50:29.69Z</time></trkpt><trkpt lat="43.6664754" lon="12.7179237"><ele>562.0</ele><time>2026-04-04T13:50:30.689Z</time></trkpt><trkpt lat="43.6663916" lon="12.7179547"><ele>562.0</ele><time>2026-04-04T13:50:31.689Z</time></trkpt><trkpt lat="43.6663156" lon="12.717994"><ele>562.0</ele><time>2026-04-04T13:50:32.686Z</time></trkpt><trkpt lat="43.666244" lon="12.7180415"><ele>562.0</ele><time>2026-04-04T13:50:33.688Z</time></trkpt><trkpt lat="43.6661877" lon="12.7181089"><ele>562.0</ele><time>2026-04-04T13:50:34.69Z</time></trkpt><trkpt lat="43.6661607" lon="12.7181934"><ele>562.0</ele><time>2026-04-04T13:50:35.69Z</time></trkpt><trkpt lat="43.666068" lon="12.7183064"><ele>565.5</ele><time>2026-04-04T13:50:37.689Z</time></trkpt><trkpt lat="43.6659638" lon="12.7183426"><ele>569.0</ele><time>2026-04-04T13:50:39.688Z</time></trkpt><trkpt lat="43.6658854" lon="12.718342"><ele>572.5</ele><time>2026-04-04T13:50:40.69Z</time></trkpt><trkpt lat="43.6658037" lon="12.7183527"><ele>576.0</ele><time>2026-04-04T13:50:41.688Z</time></trkpt><trkpt lat="43.6656127" lon="12.7183973"><ele>576.0</ele><time>2026-04-04T13:50:43.689Z</time></trkpt><trkpt lat="43.6655263" lon="12.7184145"><ele>576.0</ele><time>2026-04-04T13:50:44.689Z</time></trkpt><trkpt lat="43.6654449" lon="12.7184252"><ele>576.0</ele><time>2026-04-04T13:50:45.687Z</time></trkpt><trkpt lat="43.6653667" lon="12.7184239"><ele>576.0</ele><time>2026-04-04T13:50:46.689Z</time></trkpt><trkpt lat="43.665293" lon="12.7184259"><ele>576.0</ele><time>2026-04-04T13:50:47.69Z</time></trkpt><trkpt lat="43.6652315" lon="12.7184458"><ele>576.0</ele><time>2026-04-04T13:50:48.69Z</time></trkpt><trkpt lat="43.6651509" lon="12.7185387"><ele>577.1666666666666</ele><time>2026-04-04T13:50:50.689Z</time></trkpt><trkpt lat="43.6651382" lon="12.7186302"><ele>578.3333333333334</ele><time>2026-04-04T13:50:51.688Z</time></trkpt><trkpt lat="43.6651434" lon="12.7187359"><ele>579.5</ele><time>2026-04-04T13:50:52.689Z</time></trkpt><trkpt lat="43.6651538" lon="12.7188603"><ele>580.6666666666667</ele><time>2026-04-04T13:50:53.688Z</time></trkpt><trkpt lat="43.6651455" lon="12.7189664"><ele>581.8333333333334</ele><time>2026-04-04T13:50:54.69Z</time></trkpt><trkpt lat="43.6651286" lon="12.7190576"><ele>583.0</ele><time>2026-04-04T13:50:55.69Z</time></trkpt><trkpt lat="43.6650499" lon="12.7191919"><ele>583.0</ele><time>2026-04-04T13:50:57.689Z</time></trkpt><trkpt lat="43.6649834" lon="12.7192344"><ele>583.0</ele><time>2026-04-04T13:50:58.688Z</time></trkpt><trkpt lat="43.6648956" lon="12.7192607"><ele>583.0</ele><time>2026-04-04T13:50:59.689Z</time></trkpt><trkpt lat="43.6647942" lon="12.7192694"><ele>583.0</ele><time>2026-04-04T13:51:00.688Z</time></trkpt><trkpt lat="43.6646964" lon="12.7192664"><ele>583.0</ele><time>2026-04-04T13:51:01.687Z</time></trkpt><trkpt lat="43.6646113" lon="12.7192675"><ele>583.0</ele><time>2026-04-04T13:51:02.688Z</time></trkpt><trkpt lat="43.6644629" lon="12.7192976"><ele>588.8</ele><time>2026-04-04T13:51:04.688Z</time></trkpt><trkpt lat="43.6644072" lon="12.719345"><ele>594.5999999999999</ele><time>2026-04-04T13:51:05.688Z</time></trkpt><trkpt lat="43.6643643" lon="12.7194235"><ele>600.4000000000001</ele><time>2026-04-04T13:51:06.687Z</time></trkpt><trkpt lat="43.6643494" lon="12.7195724"><ele>606.2</ele><time>2026-04-04T13:51:07.689Z</time></trkpt><trkpt lat="43.6643275" lon="12.7197407"><ele>612.0</ele><time>2026-04-04T13:51:08.687Z</time></trkpt><trkpt lat="43.6643139" lon="12.719896"><ele>612.0</ele><time>2026-04-04T13:51:09.689Z</time></trkpt><trkpt lat="43.6642947" lon="12.7200346"><ele>612.0</ele><time>2026-04-04T13:51:10.688Z</time></trkpt><trkpt lat="43.6642761" lon="12.7201483"><ele>612.0</ele><time>2026-04-04T13:51:11.688Z</time></trkpt><trkpt lat="43.6642675" lon="12.7202525"><ele>612.0</ele><time>2026-04-04T13:51:12.689Z</time></trkpt><trkpt lat="43.6642717" lon="12.7203543"><ele>612.0</ele><time>2026-04-04T13:51:13.688Z</time></trkpt><trkpt lat="43.6642919" lon="12.7204507"><ele>612.0</ele><time>2026-04-04T13:51:14.688Z</time></trkpt><trkpt lat="43.6643401" lon="12.7205548"><ele>614.5</ele><time>2026-04-04T13:51:15.686Z</time></trkpt><trkpt lat="43.664409" lon="12.7206675"><ele>617.0</ele><time>2026-04-04T13:51:16.689Z</time></trkpt><trkpt lat="43.6645078" lon="12.7207876"><ele>619.5</ele><time>2026-04-04T13:51:17.692Z</time></trkpt><trkpt lat="43.6646048" lon="12.7209027"><ele>622.0</ele><time>2026-04-04T13:51:18.69Z</time></trkpt><trkpt lat="43.6646963" lon="12.7210186"><ele>615.0</ele><time>2026-04-04T13:51:19.689Z</time></trkpt><trkpt lat="43.6647756" lon="12.7211477"><ele>608.0</ele><time>2026-04-04T13:51:20.686Z</time></trkpt><trkpt lat="43.6648552" lon="12.7212872"><ele>601.0</ele><time>2026-04-04T13:51:21.687Z</time></trkpt><trkpt lat="43.6649337" lon="12.7214363"><ele>594.0</ele><time>2026-04-04T13:51:22.688Z</time></trkpt><trkpt lat="43.6650098" lon="12.7215898"><ele>594.0</ele><time>2026-04-04T13:51:23.689Z</time></trkpt><trkpt lat="43.6651246" lon="12.7218902"><ele>594.0</ele><time>2026-04-04T13:51:25.69Z</time></trkpt><trkpt lat="43.6651729" lon="12.7220409"><ele>594.0</ele><time>2026-04-04T13:51:26.688Z</time></trkpt><trkpt lat="43.6652188" lon="12.7221915"><ele>596.8</ele><time>2026-04-04T13:51:27.688Z</time></trkpt><trkpt lat="43.6652524" lon="12.7223391"><ele>599.5999999999999</ele><time>2026-04-04T13:51:28.689Z</time></trkpt><trkpt lat="43.6652713" lon="12.722487"><ele>602.4</ele><time>2026-04-04T13:51:29.69Z</time></trkpt><trkpt lat="43.66528" lon="12.7226362"><ele>605.1999999999999</ele><time>2026-04-04T13:51:30.688Z</time></trkpt><trkpt lat="43.6652772" lon="12.7227825"><ele>608.0</ele><time>2026-04-04T13:51:31.689Z</time></trkpt><trkpt lat="43.6652628" lon="12.7229321"><ele>608.0</ele><time>2026-04-04T13:51:32.689Z</time></trkpt><trkpt lat="43.6652407" lon="12.7230836"><ele>608.0</ele><time>2026-04-04T13:51:33.687Z</time></trkpt><trkpt lat="43.6652134" lon="12.7232409"><ele>608.0</ele><time>2026-04-04T13:51:34.689Z</time></trkpt><trkpt lat="43.665189" lon="12.7234075"><ele>608.0</ele><time>2026-04-04T13:51:35.689Z</time></trkpt><trkpt lat="43.6651673" lon="12.7235788"><ele>607.5</ele><time>2026-04-04T13:51:36.687Z</time></trkpt><trkpt lat="43.6651464" lon="12.7237501"><ele>607.0</ele><time>2026-04-04T13:51:37.69Z</time></trkpt><trkpt lat="43.6651141" lon="12.7239244"><ele>606.5</ele><time>2026-04-04T13:51:38.689Z</time></trkpt><trkpt lat="43.6650795" lon="12.7241039"><ele>606.0</ele><time>2026-04-04T13:51:39.688Z</time></trkpt><trkpt lat="43.6650394" lon="12.7242899"><ele>605.25</ele><time>2026-04-04T13:51:40.688Z</time></trkpt><trkpt lat="43.6649997" lon="12.7244671"><ele>604.5</ele><time>2026-04-04T13:51:41.689Z</time></trkpt><trkpt lat="43.6649618" lon="12.7246463"><ele>603.75</ele><time>2026-04-04T13:51:42.689Z</time></trkpt><trkpt lat="43.6649182" lon="12.7248197"><ele>603.0</ele><time>2026-04-04T13:51:43.688Z</time></trkpt><trkpt lat="43.6648604" lon="12.7249812"><ele>601.3333333333334</ele><time>2026-04-04T13:51:44.689Z</time></trkpt><trkpt lat="43.6647272" lon="12.7252928"><ele>599.6666666666667</ele><time>2026-04-04T13:51:46.688Z</time></trkpt><trkpt lat="43.664651" lon="12.7254383"><ele>598.0</ele><time>2026-04-04T13:51:47.688Z</time></trkpt><trkpt lat="43.6645834" lon="12.7255688"><ele>598.0</ele><time>2026-04-04T13:51:48.688Z</time></trkpt><trkpt lat="43.6645267" lon="12.7256944"><ele>598.0</ele><time>2026-04-04T13:51:49.689Z</time></trkpt><trkpt lat="43.664468" lon="12.7258025"><ele>598.0</ele><time>2026-04-04T13:51:50.688Z</time></trkpt><trkpt lat="43.6643987" lon="12.7259038"><ele>598.0</ele><time>2026-04-04T13:51:51.688Z</time></trkpt><trkpt lat="43.6643308" lon="12.7260015"><ele>598.0</ele><time>2026-04-04T13:51:52.687Z</time></trkpt><trkpt lat="43.6642542" lon="12.7260978"><ele>600.0</ele><time>2026-04-04T13:51:53.691Z</time></trkpt><trkpt lat="43.664178" lon="12.7261889"><ele>602.0</ele><time>2026-04-04T13:51:54.688Z</time></trkpt><trkpt lat="43.6640958" lon="12.7262741"><ele>604.0</ele><time>2026-04-04T13:51:55.69Z</time></trkpt><trkpt lat="43.6640109" lon="12.7263484"><ele>606.0</ele><time>2026-04-04T13:51:56.69Z</time></trkpt><trkpt lat="43.6639077" lon="12.7264025"><ele>608.0</ele><time>2026-04-04T13:51:57.689Z</time></trkpt><trkpt lat="43.6638202" lon="12.7264555"><ele>608.0</ele><time>2026-04-04T13:51:58.688Z</time></trkpt><trkpt lat="43.6637507" lon="12.7265101"><ele>608.0</ele><time>2026-04-04T13:51:59.689Z</time></trkpt><trkpt lat="43.6636923" lon="12.7265615"><ele>608.0</ele><time>2026-04-04T13:52:00.689Z</time></trkpt><trkpt lat="43.6635957" lon="12.7266155"><ele>608.0</ele><time>2026-04-04T13:52:02.688Z</time></trkpt><trkpt lat="43.6635382" lon="12.7265625"><ele>608.0</ele><time>2026-04-04T13:52:04.689Z</time></trkpt><trkpt lat="43.6635738" lon="12.7264318"><ele>608.0</ele><time>2026-04-04T13:52:06.687Z</time></trkpt><trkpt lat="43.6636951" lon="12.7262879"><ele>608.0</ele><time>2026-04-04T13:52:08.687Z</time></trkpt><trkpt lat="43.6637665" lon="12.726221"><ele>608.0</ele><time>2026-04-04T13:52:09.687Z</time></trkpt><trkpt lat="43.6638269" lon="12.7261534"><ele>608.0</ele><time>2026-04-04T13:52:10.688Z</time></trkpt><trkpt lat="43.6638819" lon="12.7260746"><ele>608.0</ele><time>2026-04-04T13:52:11.688Z</time></trkpt><trkpt lat="43.663926" lon="12.7259653"><ele>608.0</ele><time>2026-04-04T13:52:12.687Z</time></trkpt><trkpt lat="43.6639627" lon="12.7258403"><ele>608.0</ele><time>2026-04-04T13:52:13.69Z</time></trkpt><trkpt lat="43.6639936" lon="12.7257027"><ele>611.25</ele><time>2026-04-04T13:52:14.687Z</time></trkpt><trkpt lat="43.664024" lon="12.7255586"><ele>614.5</ele><time>2026-04-04T13:52:15.686Z</time></trkpt><trkpt lat="43.6640495" lon="12.725414"><ele>617.75</ele><time>2026-04-04T13:52:16.687Z</time></trkpt><trkpt lat="43.6640749" lon="12.7252544"><ele>621.0</ele><time>2026-04-04T13:52:17.688Z</time></trkpt><trkpt lat="43.6640969" lon="12.7250939"><ele>624.0</ele><time>2026-04-04T13:52:18.69Z</time></trkpt><trkpt lat="43.6641127" lon="12.7249341"><ele>627.0</ele><time>2026-04-04T13:52:19.689Z</time></trkpt><trkpt lat="43.6641204" lon="12.7247814"><ele>630.0</ele><time>2026-04-04T13:52:20.688Z</time></trkpt><trkpt lat="43.6641273" lon="12.7246298"><ele>633.0</ele><time>2026-04-04T13:52:21.687Z</time></trkpt><trkpt lat="43.6641206" lon="12.7244794"><ele>636.0</ele><time>2026-04-04T13:52:22.688Z</time></trkpt><trkpt lat="43.6641114" lon="12.7243244"><ele>637.5</ele><time>2026-04-04T13:52:23.688Z</time></trkpt><trkpt lat="43.6641102" lon="12.72416"><ele>639.0</ele><time>2026-04-04T13:52:24.688Z</time></trkpt><trkpt lat="43.6641098" lon="12.7239915"><ele>640.5</ele><time>2026-04-04T13:52:25.692Z</time></trkpt><trkpt lat="43.6641086" lon="12.7238155"><ele>642.0</ele><time>2026-04-04T13:52:26.689Z</time></trkpt><trkpt lat="43.6641002" lon="12.7236233"><ele>642.3333333333334</ele><time>2026-04-04T13:52:27.687Z</time></trkpt><trkpt lat="43.6640833" lon="12.7232283"><ele>642.6666666666667</ele><time>2026-04-04T13:52:29.688Z</time></trkpt><trkpt lat="43.6640701" lon="12.7230412"><ele>643.0</ele><time>2026-04-04T13:52:30.687Z</time></trkpt><trkpt lat="43.664062" lon="12.7228674"><ele>643.2</ele><time>2026-04-04T13:52:31.687Z</time></trkpt><trkpt lat="43.6640617" lon="12.7227062"><ele>643.4</ele><time>2026-04-04T13:52:32.688Z</time></trkpt><trkpt lat="43.664069" lon="12.7225557"><ele>643.6</ele><time>2026-04-04T13:52:33.688Z</time></trkpt><trkpt lat="43.6640757" lon="12.7224154"><ele>643.8000000000001</ele><time>2026-04-04T13:52:34.687Z</time></trkpt><trkpt lat="43.6640813" lon="12.7222927"><ele>644.0</ele><time>2026-04-04T13:52:35.688Z</time></trkpt><trkpt lat="43.6640813" lon="12.7221757"><ele>644.0</ele><time>2026-04-04T13:52:36.687Z</time></trkpt><trkpt lat="43.6640734" lon="12.7220667"><ele>644.0</ele><time>2026-04-04T13:52:37.691Z</time></trkpt><trkpt lat="43.6640528" lon="12.7219729"><ele>644.0</ele><time>2026-04-04T13:52:38.686Z</time></trkpt><trkpt lat="43.6640143" lon="12.7218845"><ele>644.0</ele><time>2026-04-04T13:52:39.687Z</time></trkpt><trkpt lat="43.6639652" lon="12.7217898"><ele>644.0</ele><time>2026-04-04T13:52:40.688Z</time></trkpt><trkpt lat="43.6639043" lon="12.7216824"><ele>644.0</ele><time>2026-04-04T13:52:41.688Z</time></trkpt><trkpt lat="43.6638338" lon="12.7215671"><ele>643.2</ele><time>2026-04-04T13:52:42.689Z</time></trkpt><trkpt lat="43.6637594" lon="12.7214518"><ele>642.4000000000001</ele><time>2026-04-04T13:52:43.689Z</time></trkpt><trkpt lat="43.663683" lon="12.7213411"><ele>641.6</ele><time>2026-04-04T13:52:44.688Z</time></trkpt><trkpt lat="43.6636052" lon="12.7212352"><ele>640.8</ele><time>2026-04-04T13:52:45.686Z</time></trkpt><trkpt lat="43.6635183" lon="12.7211366"><ele>640.0</ele><time>2026-04-04T13:52:46.687Z</time></trkpt><trkpt lat="43.6634223" lon="12.7210513"><ele>645.6666666666667</ele><time>2026-04-04T13:52:47.688Z</time></trkpt><trkpt lat="43.6633244" lon="12.7209731"><ele>651.3333333333334</ele><time>2026-04-04T13:52:48.686Z</time></trkpt><trkpt lat="43.663127" lon="12.7208218"><ele>657.0</ele><time>2026-04-04T13:52:50.687Z</time></trkpt><trkpt lat="43.6630356" lon="12.7207326"><ele>657.0</ele><time>2026-04-04T13:52:51.688Z</time></trkpt><trkpt lat="43.6629508" lon="12.7206436"><ele>657.0</ele><time>2026-04-04T13:52:52.687Z</time></trkpt><trkpt lat="43.6628702" lon="12.7205617"><ele>657.0</ele><time>2026-04-04T13:52:53.689Z</time></trkpt><trkpt lat="43.6628027" lon="12.7204843"><ele>657.0</ele><time>2026-04-04T13:52:54.688Z</time></trkpt><trkpt lat="43.6627496" lon="12.7204055"><ele>657.0</ele><time>2026-04-04T13:52:55.689Z</time></trkpt><trkpt lat="43.6627181" lon="12.7203231"><ele>657.0</ele><time>2026-04-04T13:52:56.688Z</time></trkpt><trkpt lat="43.6627055" lon="12.7202279"><ele>655.4000000000001</ele><time>2026-04-04T13:52:57.687Z</time></trkpt><trkpt lat="43.6627203" lon="12.7201277"><ele>653.8000000000001</ele><time>2026-04-04T13:52:58.688Z</time></trkpt><trkpt lat="43.6627551" lon="12.7200061"><ele>652.2</ele><time>2026-04-04T13:52:59.687Z</time></trkpt><trkpt lat="43.6628121" lon="12.7198678"><ele>650.6</ele><time>2026-04-04T13:53:00.687Z</time></trkpt><trkpt lat="43.6628981" lon="12.7197111"><ele>649.0</ele><time>2026-04-04T13:53:01.689Z</time></trkpt><trkpt lat="43.6629814" lon="12.7195617"><ele>649.0</ele><time>2026-04-04T13:53:02.69Z</time></trkpt><trkpt lat="43.6630486" lon="12.7194188"><ele>649.0</ele><time>2026-04-04T13:53:03.687Z</time></trkpt><trkpt lat="43.6631196" lon="12.7192708"><ele>649.0</ele><time>2026-04-04T13:53:04.688Z</time></trkpt><trkpt lat="43.6631811" lon="12.7191246"><ele>649.0</ele><time>2026-04-04T13:53:05.688Z</time></trkpt><trkpt lat="43.6632343" lon="12.7189812"><ele>650.4000000000001</ele><time>2026-04-04T13:53:06.689Z</time></trkpt><trkpt lat="43.6632847" lon="12.7188518"><ele>651.8</ele><time>2026-04-04T13:53:07.689Z</time></trkpt><trkpt lat="43.6633241" lon="12.7187358"><ele>653.2</ele><time>2026-04-04T13:53:08.689Z</time></trkpt><trkpt lat="43.6633548" lon="12.7186323"><ele>654.5999999999999</ele><time>2026-04-04T13:53:09.688Z</time></trkpt><trkpt lat="43.6633833" lon="12.7184164"><ele>656.0</ele><time>2026-04-04T13:53:11.689Z</time></trkpt><trkpt lat="43.6633869" lon="12.7182934"><ele>658.0</ele><time>2026-04-04T13:53:12.691Z</time></trkpt><trkpt lat="43.6633833" lon="12.7181634"><ele>660.0</ele><time>2026-04-04T13:53:13.689Z</time></trkpt><trkpt lat="43.6633706" lon="12.7180408"><ele>662.0</ele><time>2026-04-04T13:53:14.689Z</time></trkpt><trkpt lat="43.663354" lon="12.7179296"><ele>664.0</ele><time>2026-04-04T13:53:15.689Z</time></trkpt><trkpt lat="43.6633326" lon="12.7178313"><ele>666.0</ele><time>2026-04-04T13:53:16.688Z</time></trkpt><trkpt lat="43.6633046" lon="12.7176719"><ele>668.1666666666666</ele><time>2026-04-04T13:53:18.689Z</time></trkpt><trkpt lat="43.6633293" lon="12.7175747"><ele>670.3333333333334</ele><time>2026-04-04T13:53:20.69Z</time></trkpt><trkpt lat="43.6633949" lon="12.717551"><ele>672.5</ele><time>2026-04-04T13:53:22.689Z</time></trkpt><trkpt lat="43.6634951" lon="12.717563"><ele>674.6666666666667</ele><time>2026-04-04T13:53:24.689Z</time></trkpt><trkpt lat="43.6635857" lon="12.7175262"><ele>676.8333333333334</ele><time>2026-04-04T13:53:26.688Z</time></trkpt><trkpt lat="43.663635" lon="12.7174033"><ele>679.0</ele><time>2026-04-04T13:53:28.689Z</time></trkpt><trkpt lat="43.6636817" lon="12.7172367"><ele>673.5</ele><time>2026-04-04T13:53:30.689Z</time></trkpt><trkpt lat="43.6636883" lon="12.71698"><ele>668.0</ele><time>2026-04-04T13:53:32.688Z</time></trkpt><trkpt lat="43.6636933" lon="12.716835"><ele>662.5</ele><time>2026-04-04T13:53:33.689Z</time></trkpt><trkpt lat="43.6637033" lon="12.7166883"><ele>657.0</ele><time>2026-04-04T13:53:34.689Z</time></trkpt><trkpt lat="43.6637267" lon="12.71655"><ele>657.0</ele><time>2026-04-04T13:53:35.69Z</time></trkpt><trkpt lat="43.66375" lon="12.71643"><ele>657.0</ele><time>2026-04-04T13:53:36.688Z</time></trkpt><trkpt lat="43.663795" lon="12.7163067"><ele>657.0</ele><time>2026-04-04T13:53:37.69Z</time></trkpt><trkpt lat="43.6638533" lon="12.71618"><ele>657.0</ele><time>2026-04-04T13:53:38.69Z</time></trkpt><trkpt lat="43.6639117" lon="12.7160617"><ele>657.0</ele><time>2026-04-04T13:53:39.689Z</time></trkpt><trkpt lat="43.66398" lon="12.7159467"><ele>660.0</ele><time>2026-04-04T13:53:40.691Z</time></trkpt><trkpt lat="43.6640567" lon="12.71584"><ele>663.0</ele><time>2026-04-04T13:53:41.69Z</time></trkpt><trkpt lat="43.6641417" lon="12.7157383"><ele>666.0</ele><time>2026-04-04T13:53:42.69Z</time></trkpt><trkpt lat="43.6642333" lon="12.71564"><ele>669.0</ele><time>2026-04-04T13:53:43.689Z</time></trkpt><trkpt lat="43.6643333" lon="12.71555"><ele>669.0</ele><time>2026-04-04T13:53:44.688Z</time></trkpt><trkpt lat="43.6644233" lon="12.715455"><ele>669.0</ele><time>2026-04-04T13:53:45.692Z</time></trkpt><trkpt lat="43.6644983" lon="12.7153683"><ele>669.0</ele><time>2026-04-04T13:53:46.688Z</time></trkpt><trkpt lat="43.6645633" lon="12.71528"><ele>669.0</ele><time>2026-04-04T13:53:47.69Z</time></trkpt><trkpt lat="43.6646267" lon="12.7151867"><ele>669.0</ele><time>2026-04-04T13:53:48.687Z</time></trkpt><trkpt lat="43.66468" lon="12.715095"><ele>668.6666666666666</ele><time>2026-04-04T13:53:49.688Z</time></trkpt><trkpt lat="43.6647133" lon="12.7150067"><ele>668.3333333333334</ele><time>2026-04-04T13:53:50.689Z</time></trkpt><trkpt lat="43.6647433" lon="12.7149133"><ele>668.0</ele><time>2026-04-04T13:53:51.688Z</time></trkpt><trkpt lat="43.6647833" lon="12.714725"><ele>667.6666666666667</ele><time>2026-04-04T13:53:53.689Z</time></trkpt><trkpt lat="43.66479" lon="12.7146383"><ele>667.3333333333334</ele><time>2026-04-04T13:53:54.688Z</time></trkpt><trkpt lat="43.6647867" lon="12.7145483"><ele>667.0</ele><time>2026-04-04T13:53:55.691Z</time></trkpt><trkpt lat="43.664735" lon="12.71438"><ele>667.0</ele><time>2026-04-04T13:53:57.686Z</time></trkpt><trkpt lat="43.6646767" lon="12.71424"><ele>667.0</ele><time>2026-04-04T13:53:59.687Z</time></trkpt><trkpt lat="43.664615" lon="12.7141633"><ele>667.0</ele><time>2026-04-04T13:54:01.688Z</time></trkpt><trkpt lat="43.664615" lon="12.7143233"><ele>667.0</ele><time>2026-04-04T13:54:05.687Z</time></trkpt><trkpt lat="43.664645" lon="12.71442"><ele>667.0</ele><time>2026-04-04T13:54:06.687Z</time></trkpt><trkpt lat="43.6646467" lon="12.7145883"><ele>665.0</ele><time>2026-04-04T13:54:08.69Z</time></trkpt><trkpt lat="43.664625" lon="12.71467"><ele>663.0</ele><time>2026-04-04T13:54:09.688Z</time></trkpt><trkpt lat="43.6645833" lon="12.71476"><ele>661.0</ele><time>2026-04-04T13:54:10.686Z</time></trkpt><trkpt lat="43.6645367" lon="12.7148383"><ele>659.0</ele><time>2026-04-04T13:54:11.69Z</time></trkpt><trkpt lat="43.6644433" lon="12.7149367"><ele>657.0</ele><time>2026-04-04T13:54:13.689Z</time></trkpt><trkpt lat="43.66431" lon="12.7150133"><ele>661.1666666666666</ele><time>2026-04-04T13:54:15.687Z</time></trkpt><trkpt lat="43.6642383" lon="12.7150467"><ele>665.3333333333334</ele><time>2026-04-04T13:54:16.688Z</time></trkpt><trkpt lat="43.66413" lon="12.7150667"><ele>669.5</ele><time>2026-04-04T13:54:18.686Z</time></trkpt><trkpt lat="43.664055" lon="12.7149983"><ele>673.6666666666667</ele><time>2026-04-04T13:54:20.689Z</time></trkpt><trkpt lat="43.664085" lon="12.714885"><ele>677.8333333333334</ele><time>2026-04-04T13:54:22.689Z</time></trkpt><trkpt lat="43.664145" lon="12.7148333"><ele>682.0</ele><time>2026-04-04T13:54:23.689Z</time></trkpt><trkpt lat="43.6642033" lon="12.7147817"><ele>682.0</ele><time>2026-04-04T13:54:24.688Z</time></trkpt><trkpt lat="43.6642633" lon="12.7147167"><ele>682.0</ele><time>2026-04-04T13:54:25.691Z</time></trkpt><trkpt lat="43.6643267" lon="12.7145883"><ele>682.0</ele><time>2026-04-04T13:54:27.687Z</time></trkpt><trkpt lat="43.6643117" lon="12.7144783"><ele>682.0</ele><time>2026-04-04T13:54:29.687Z</time></trkpt><trkpt lat="43.66419" lon="12.7144783"><ele>682.0</ele><time>2026-04-04T13:54:31.689Z</time></trkpt><trkpt lat="43.6641133" lon="12.714525"><ele>682.0</ele><time>2026-04-04T13:54:32.686Z</time></trkpt><trkpt lat="43.664035" lon="12.7145883"><ele>682.0</ele><time>2026-04-04T13:54:33.687Z</time></trkpt><trkpt lat="43.6639567" lon="12.71466"><ele>682.0</ele><time>2026-04-04T13:54:34.686Z</time></trkpt><trkpt lat="43.66382" lon="12.7148383"><ele>682.0</ele><time>2026-04-04T13:54:36.687Z</time></trkpt><trkpt lat="43.6637583" lon="12.7149267"><ele>682.0</ele><time>2026-04-04T13:54:37.69Z</time></trkpt><trkpt lat="43.6637067" lon="12.7149967"><ele>682.0</ele><time>2026-04-04T13:54:38.689Z</time></trkpt><trkpt lat="43.663615" lon="12.715075"><ele>682.0</ele><time>2026-04-04T13:54:40.689Z</time></trkpt><trkpt lat="43.6635767" lon="12.7149417"><ele>682.0</ele><time>2026-04-04T13:54:43.688Z</time></trkpt><trkpt lat="43.663615" lon="12.7148433"><ele>682.0</ele><time>2026-04-04T13:54:44.69Z</time></trkpt><trkpt lat="43.6636583" lon="12.714765"><ele>682.0</ele><time>2026-04-04T13:54:45.687Z</time></trkpt><trkpt lat="43.6636983" lon="12.714685"><ele>682.0</ele><time>2026-04-04T13:54:46.687Z</time></trkpt><trkpt lat="43.6637333" lon="12.7145917"><ele>682.0</ele><time>2026-04-04T13:54:47.689Z</time></trkpt><trkpt lat="43.6637483" lon="12.7144883"><ele>682.0</ele><time>2026-04-04T13:54:48.689Z</time></trkpt><trkpt lat="43.6637567" lon="12.7143783"><ele>682.0</ele><time>2026-04-04T13:54:49.69Z</time></trkpt><trkpt lat="43.6637767" lon="12.714275"><ele>682.0</ele><time>2026-04-04T13:54:50.687Z</time></trkpt><trkpt lat="43.663805" lon="12.71418"><ele>682.0</ele><time>2026-04-04T13:54:51.688Z</time></trkpt><trkpt lat="43.6638567" lon="12.7140917"><ele>685.25</ele><time>2026-04-04T13:54:52.688Z</time></trkpt><trkpt lat="43.6639117" lon="12.7140017"><ele>688.5</ele><time>2026-04-04T13:54:53.689Z</time></trkpt><trkpt lat="43.6639717" lon="12.7139017"><ele>691.75</ele><time>2026-04-04T13:54:54.688Z</time></trkpt><trkpt lat="43.6640367" lon="12.7137833"><ele>695.0</ele><time>2026-04-04T13:54:55.691Z</time></trkpt><trkpt lat="43.6641567" lon="12.7135733"><ele>697.8333333333333</ele><time>2026-04-04T13:54:57.687Z</time></trkpt><trkpt lat="43.664205" lon="12.71348"><ele>700.6666666666666</ele><time>2026-04-04T13:54:58.687Z</time></trkpt><trkpt lat="43.6642417" lon="12.7133817"><ele>703.5</ele><time>2026-04-04T13:54:59.689Z</time></trkpt><trkpt lat="43.66427" lon="12.7132767"><ele>706.3333333333334</ele><time>2026-04-04T13:55:00.688Z</time></trkpt><trkpt lat="43.6642833" lon="12.713165"><ele>709.1666666666667</ele><time>2026-04-04T13:55:01.689Z</time></trkpt><trkpt lat="43.66429" lon="12.7130567"><ele>712.0</ele><time>2026-04-04T13:55:02.688Z</time></trkpt><trkpt lat="43.6642867" lon="12.71295"><ele>712.0</ele><time>2026-04-04T13:55:03.687Z</time></trkpt><trkpt lat="43.66427" lon="12.7128533"><ele>712.0</ele><time>2026-04-04T13:55:04.687Z</time></trkpt><trkpt lat="43.664245" lon="12.7127667"><ele>712.0</ele><time>2026-04-04T13:55:05.69Z</time></trkpt><trkpt lat="43.6642" lon="12.7126883"><ele>712.0</ele><time>2026-04-04T13:55:06.687Z</time></trkpt><trkpt lat="43.664155" lon="12.712615"><ele>712.0</ele><time>2026-04-04T13:55:07.69Z</time></trkpt><trkpt lat="43.6641033" lon="12.7125233"><ele>712.0</ele><time>2026-04-04T13:55:08.688Z</time></trkpt><trkpt lat="43.664055" lon="12.71242"><ele>710.8</ele><time>2026-04-04T13:55:09.689Z</time></trkpt><trkpt lat="43.6640083" lon="12.7122933"><ele>709.6</ele><time>2026-04-04T13:55:10.689Z</time></trkpt><trkpt lat="43.663965" lon="12.71216"><ele>708.4</ele><time>2026-04-04T13:55:11.689Z</time></trkpt><trkpt lat="43.663925" lon="12.7120367"><ele>707.1999999999999</ele><time>2026-04-04T13:55:12.686Z</time></trkpt><trkpt lat="43.6638783" lon="12.7119317"><ele>706.0</ele><time>2026-04-04T13:55:13.688Z</time></trkpt><trkpt lat="43.663815" lon="12.711835"><ele>706.0</ele><time>2026-04-04T13:55:14.688Z</time></trkpt><trkpt lat="43.6637483" lon="12.7117417"><ele>706.0</ele><time>2026-04-04T13:55:15.688Z</time></trkpt><trkpt lat="43.6636817" lon="12.711635"><ele>706.0</ele><time>2026-04-04T13:55:16.688Z</time></trkpt><trkpt lat="43.6635583" lon="12.7114183"><ele>706.0</ele><time>2026-04-04T13:55:18.687Z</time></trkpt><trkpt lat="43.66351" lon="12.711325"><ele>709.0</ele><time>2026-04-04T13:55:19.689Z</time></trkpt><trkpt lat="43.6634433" lon="12.7112433"><ele>712.0</ele><time>2026-04-04T13:55:20.687Z</time></trkpt><trkpt lat="43.6633533" lon="12.7111667"><ele>715.0</ele><time>2026-04-04T13:55:21.686Z</time></trkpt><trkpt lat="43.6632567" lon="12.7110983"><ele>718.0</ele><time>2026-04-04T13:55:22.689Z</time></trkpt><trkpt lat="43.6631533" lon="12.711035"><ele>721.0</ele><time>2026-04-04T13:55:23.691Z</time></trkpt><trkpt lat="43.66305" lon="12.7109833"><ele>721.0</ele><time>2026-04-04T13:55:24.689Z</time></trkpt><trkpt lat="43.66296" lon="12.7109467"><ele>721.0</ele><time>2026-04-04T13:55:25.689Z</time></trkpt><trkpt lat="43.6628683" lon="12.7109167"><ele>721.0</ele><time>2026-04-04T13:55:26.69Z</time></trkpt><trkpt lat="43.6628" lon="12.7109"><ele>721.0</ele><time>2026-04-04T13:55:27.688Z</time></trkpt><trkpt lat="43.6627017" lon="12.7108683"><ele>721.0</ele><time>2026-04-04T13:55:29.688Z</time></trkpt><trkpt lat="43.6626533" lon="12.7107483"><ele>728.25</ele><time>2026-04-04T13:55:32.689Z</time></trkpt><trkpt lat="43.6626933" lon="12.7106317"><ele>735.5</ele><time>2026-04-04T13:55:34.688Z</time></trkpt><trkpt lat="43.662755" lon="12.71052"><ele>742.75</ele><time>2026-04-04T13:55:36.688Z</time></trkpt><trkpt lat="43.6627633" lon="12.71037"><ele>750.0</ele><time>2026-04-04T13:55:38.687Z</time></trkpt><trkpt lat="43.6626817" lon="12.7101133"><ele>750.0</ele><time>2026-04-04T13:55:41.689Z</time></trkpt><trkpt lat="43.6626583" lon="12.71001"><ele>750.0</ele><time>2026-04-04T13:55:42.687Z</time></trkpt><trkpt lat="43.662635" lon="12.709915"><ele>750.0</ele><time>2026-04-04T13:55:43.689Z</time></trkpt><trkpt lat="43.6626033" lon="12.709835"><ele>750.0</ele><time>2026-04-04T13:55:44.687Z</time></trkpt><trkpt lat="43.6625252" lon="12.7097067"><ele>750.0</ele><time>2026-04-04T13:55:46.688Z</time></trkpt><trkpt lat="43.6624139" lon="12.7096178"><ele>750.0</ele><time>2026-04-04T13:55:48.69Z</time></trkpt><trkpt lat="43.6623407" lon="12.7095872"><ele>750.0</ele><time>2026-04-04T13:55:49.691Z</time></trkpt><trkpt lat="43.6622692" lon="12.7095629"><ele>750.0</ele><time>2026-04-04T13:55:50.689Z</time></trkpt><trkpt lat="43.6621947" lon="12.7095448"><ele>750.0</ele><time>2026-04-04T13:55:51.689Z</time></trkpt><trkpt lat="43.662131" lon="12.7095275"><ele>750.0</ele><time>2026-04-04T13:55:52.687Z</time></trkpt><trkpt lat="43.6620459" lon="12.7094902"><ele>750.0</ele><time>2026-04-04T13:55:54.689Z</time></trkpt><trkpt lat="43.6619751" lon="12.7093959"><ele>748.25</ele><time>2026-04-04T13:55:56.688Z</time></trkpt><trkpt lat="43.6619317" lon="12.7092723"><ele>746.5</ele><time>2026-04-04T13:55:58.689Z</time></trkpt><trkpt lat="43.6619986" lon="12.7091121"><ele>744.75</ele><time>2026-04-04T13:56:00.689Z</time></trkpt><trkpt lat="43.6621261" lon="12.7089183"><ele>743.0</ele><time>2026-04-04T13:56:02.69Z</time></trkpt><trkpt lat="43.662176" lon="12.7088287"><ele>743.0</ele><time>2026-04-04T13:56:03.686Z</time></trkpt><trkpt lat="43.6622209" lon="12.7087264"><ele>743.0</ele><time>2026-04-04T13:56:04.687Z</time></trkpt><trkpt lat="43.6622654" lon="12.7086035"><ele>743.0</ele><time>2026-04-04T13:56:05.688Z</time></trkpt><trkpt lat="43.6622957" lon="12.7084725"><ele>743.0</ele><time>2026-04-04T13:56:06.688Z</time></trkpt><trkpt lat="43.6623087" lon="12.7083291"><ele>743.0</ele><time>2026-04-04T13:56:07.687Z</time></trkpt><trkpt lat="43.6623112" lon="12.7081794"><ele>744.0</ele><time>2026-04-04T13:56:08.688Z</time></trkpt><trkpt lat="43.6623049" lon="12.7080174"><ele>745.0</ele><time>2026-04-04T13:56:09.687Z</time></trkpt><trkpt lat="43.6622925" lon="12.7078644"><ele>746.0</ele><time>2026-04-04T13:56:10.689Z</time></trkpt><trkpt lat="43.6622874" lon="12.7077134"><ele>747.0</ele><time>2026-04-04T13:56:11.688Z</time></trkpt><trkpt lat="43.6622924" lon="12.7075551"><ele>747.8</ele><time>2026-04-04T13:56:12.69Z</time></trkpt><trkpt lat="43.6623099" lon="12.7073917"><ele>748.6</ele><time>2026-04-04T13:56:13.691Z</time></trkpt><trkpt lat="43.6623271" lon="12.7072427"><ele>749.4</ele><time>2026-04-04T13:56:14.689Z</time></trkpt><trkpt lat="43.662341" lon="12.7071147"><ele>750.1999999999999</ele><time>2026-04-04T13:56:15.687Z</time></trkpt><trkpt lat="43.662355" lon="12.7070061"><ele>751.0</ele><time>2026-04-04T13:56:16.688Z</time></trkpt><trkpt lat="43.6623767" lon="12.7069046"><ele>752.5999999999999</ele><time>2026-04-04T13:56:17.687Z</time></trkpt><trkpt lat="43.6624174" lon="12.7068045"><ele>754.2</ele><time>2026-04-04T13:56:18.688Z</time></trkpt><trkpt lat="43.6624641" lon="12.7066909"><ele>755.8</ele><time>2026-04-04T13:56:19.692Z</time></trkpt><trkpt lat="43.6625075" lon="12.7065646"><ele>757.4000000000001</ele><time>2026-04-04T13:56:20.689Z</time></trkpt><trkpt lat="43.6625429" lon="12.7064363"><ele>759.0</ele><time>2026-04-04T13:56:21.688Z</time></trkpt><trkpt lat="43.6625983" lon="12.7061745"><ele>760.4000000000001</ele><time>2026-04-04T13:56:23.689Z</time></trkpt><trkpt lat="43.6626169" lon="12.7060374"><ele>761.8</ele><time>2026-04-04T13:56:24.688Z</time></trkpt><trkpt lat="43.6626312" lon="12.7058973"><ele>763.2</ele><time>2026-04-04T13:56:25.69Z</time></trkpt><trkpt lat="43.6626398" lon="12.7057558"><ele>764.5999999999999</ele><time>2026-04-04T13:56:26.691Z</time></trkpt><trkpt lat="43.6626435" lon="12.7056155"><ele>766.0</ele><time>2026-04-04T13:56:27.688Z</time></trkpt><trkpt lat="43.6626422" lon="12.7054754"><ele>766.0</ele><time>2026-04-04T13:56:28.69Z</time></trkpt><trkpt lat="43.6626305" lon="12.7053301"><ele>766.0</ele><time>2026-04-04T13:56:29.688Z</time></trkpt><trkpt lat="43.662608" lon="12.7051792"><ele>766.0</ele><time>2026-04-04T13:56:30.689Z</time></trkpt><trkpt lat="43.6625766" lon="12.7050215"><ele>766.0</ele><time>2026-04-04T13:56:31.691Z</time></trkpt><trkpt lat="43.6625405" lon="12.7048571"><ele>766.5</ele><time>2026-04-04T13:56:32.687Z</time></trkpt><trkpt lat="43.6625015" lon="12.7046881"><ele>767.0</ele><time>2026-04-04T13:56:33.686Z</time></trkpt><trkpt lat="43.6624636" lon="12.7045175"><ele>767.5</ele><time>2026-04-04T13:56:34.689Z</time></trkpt><trkpt lat="43.6624265" lon="12.7043509"><ele>768.0</ele><time>2026-04-04T13:56:35.689Z</time></trkpt><trkpt lat="43.6623965" lon="12.7041897"><ele>768.0</ele><time>2026-04-04T13:56:36.688Z</time></trkpt><trkpt lat="43.662376" lon="12.7040339"><ele>768.0</ele><time>2026-04-04T13:56:37.69Z</time></trkpt><trkpt lat="43.6623683" lon="12.7038792"><ele>768.0</ele><time>2026-04-04T13:56:38.688Z</time></trkpt><trkpt lat="43.6623755" lon="12.7037269"><ele>768.0</ele><time>2026-04-04T13:56:39.69Z</time></trkpt><trkpt lat="43.662395" lon="12.7035758"><ele>768.0</ele><time>2026-04-04T13:56:40.689Z</time></trkpt><trkpt lat="43.6624206" lon="12.7034275"><ele>769.0</ele><time>2026-04-04T13:56:41.688Z</time></trkpt><trkpt lat="43.662456" lon="12.703281"><ele>770.0</ele><time>2026-04-04T13:56:42.69Z</time></trkpt><trkpt lat="43.6625526" lon="12.7030117"><ele>771.0</ele><time>2026-04-04T13:56:44.689Z</time></trkpt><trkpt lat="43.6626125" lon="12.7028839"><ele>772.0</ele><time>2026-04-04T13:56:45.689Z</time></trkpt><trkpt lat="43.6626764" lon="12.7027636"><ele>773.1666666666666</ele><time>2026-04-04T13:56:46.689Z</time></trkpt><trkpt lat="43.6627362" lon="12.7026595"><ele>774.3333333333333</ele><time>2026-04-04T13:56:47.687Z</time></trkpt><trkpt lat="43.662786" lon="12.7025707"><ele>775.5</ele><time>2026-04-04T13:56:48.688Z</time></trkpt><trkpt lat="43.6628179" lon="12.702484"><ele>776.6666666666667</ele><time>2026-04-04T13:56:49.693Z</time></trkpt><trkpt lat="43.662845" lon="12.7023991"><ele>777.8333333333334</ele><time>2026-04-04T13:56:50.688Z</time></trkpt><trkpt lat="43.662877" lon="12.7023149"><ele>779.0</ele><time>2026-04-04T13:56:51.689Z</time></trkpt><trkpt lat="43.6629044" lon="12.7022313"><ele>776.3333333333334</ele><time>2026-04-04T13:56:52.689Z</time></trkpt><trkpt lat="43.6629246" lon="12.7021327"><ele>773.6666666666667</ele><time>2026-04-04T13:56:53.69Z</time></trkpt><trkpt lat="43.6629407" lon="12.7020202"><ele>771.0</ele><time>2026-04-04T13:56:54.687Z</time></trkpt><trkpt lat="43.6629556" lon="12.7018971"><ele>768.3333333333334</ele><time>2026-04-04T13:56:55.69Z</time></trkpt><trkpt lat="43.6629659" lon="12.7017669"><ele>765.6666666666667</ele><time>2026-04-04T13:56:56.688Z</time></trkpt><trkpt lat="43.6629694" lon="12.7016274"><ele>763.0</ele><time>2026-04-04T13:56:57.689Z</time></trkpt><trkpt lat="43.6629657" lon="12.7014866"><ele>763.0</ele><time>2026-04-04T13:56:58.687Z</time></trkpt><trkpt lat="43.6629531" lon="12.7013507"><ele>763.0</ele><time>2026-04-04T13:56:59.688Z</time></trkpt><trkpt lat="43.6629232" lon="12.701213"><ele>763.0</ele><time>2026-04-04T13:57:00.69Z</time></trkpt><trkpt lat="43.6628801" lon="12.7010675"><ele>763.0</ele><time>2026-04-04T13:57:01.687Z</time></trkpt><trkpt lat="43.6628239" lon="12.7009188"><ele>763.0</ele><time>2026-04-04T13:57:02.687Z</time></trkpt><trkpt lat="43.6627652" lon="12.7007729"><ele>763.0</ele><time>2026-04-04T13:57:03.688Z</time></trkpt><trkpt lat="43.6626484" lon="12.7005145"><ele>763.0</ele><time>2026-04-04T13:57:05.688Z</time></trkpt><trkpt lat="43.6625829" lon="12.7003943"><ele>763.0</ele><time>2026-04-04T13:57:06.689Z</time></trkpt><trkpt lat="43.6625062" lon="12.7002818"><ele>763.0</ele><time>2026-04-04T13:57:07.687Z</time></trkpt><trkpt lat="43.6624183" lon="12.7001779"><ele>763.0</ele><time>2026-04-04T13:57:08.689Z</time></trkpt><trkpt lat="43.6623215" lon="12.7000816"><ele>763.0</ele><time>2026-04-04T13:57:09.686Z</time></trkpt><trkpt lat="43.6622196" lon="12.6999952"><ele>763.0</ele><time>2026-04-04T13:57:10.688Z</time></trkpt><trkpt lat="43.6621172" lon="12.6999223"><ele>763.0</ele><time>2026-04-04T13:57:11.688Z</time></trkpt><trkpt lat="43.6620214" lon="12.6998602"><ele>767.0</ele><time>2026-04-04T13:57:12.688Z</time></trkpt><trkpt lat="43.6619263" lon="12.6998012"><ele>771.0</ele><time>2026-04-04T13:57:13.69Z</time></trkpt><trkpt lat="43.6618299" lon="12.6997382"><ele>775.0</ele><time>2026-04-04T13:57:14.688Z</time></trkpt><trkpt lat="43.661733" lon="12.6996692"><ele>779.0</ele><time>2026-04-04T13:57:15.686Z</time></trkpt><trkpt lat="43.6616401" lon="12.6995914"><ele>783.0</ele><time>2026-04-04T13:57:16.687Z</time></trkpt><trkpt lat="43.6615503" lon="12.6994994"><ele>780.2</ele><time>2026-04-04T13:57:17.69Z</time></trkpt><trkpt lat="43.661467" lon="12.6993975"><ele>777.4</ele><time>2026-04-04T13:57:18.688Z</time></trkpt><trkpt lat="43.6613915" lon="12.6992973"><ele>774.6</ele><time>2026-04-04T13:57:19.689Z</time></trkpt><trkpt lat="43.6613205" lon="12.6992031"><ele>771.8000000000001</ele><time>2026-04-04T13:57:20.688Z</time></trkpt><trkpt lat="43.6612578" lon="12.6991103"><ele>769.0</ele><time>2026-04-04T13:57:21.686Z</time></trkpt><trkpt lat="43.6611996" lon="12.6990171"><ele>769.0</ele><time>2026-04-04T13:57:22.689Z</time></trkpt><trkpt lat="43.6611507" lon="12.6989167"><ele>769.0</ele><time>2026-04-04T13:57:23.688Z</time></trkpt><trkpt lat="43.6611105" lon="12.6988044"><ele>769.0</ele><time>2026-04-04T13:57:24.687Z</time></trkpt><trkpt lat="43.6610433" lon="12.6985637"><ele>769.0</ele><time>2026-04-04T13:57:26.686Z</time></trkpt><trkpt lat="43.6610074" lon="12.6984333"><ele>769.5</ele><time>2026-04-04T13:57:27.686Z</time></trkpt><trkpt lat="43.6609646" lon="12.6982965"><ele>770.0</ele><time>2026-04-04T13:57:28.686Z</time></trkpt><trkpt lat="43.6609186" lon="12.6981541"><ele>770.5</ele><time>2026-04-04T13:57:29.688Z</time></trkpt><trkpt lat="43.6608718" lon="12.6980091"><ele>771.0</ele><time>2026-04-04T13:57:30.687Z</time></trkpt><trkpt lat="43.660824" lon="12.6978623"><ele>769.4</ele><time>2026-04-04T13:57:31.688Z</time></trkpt><trkpt lat="43.6607697" lon="12.6977224"><ele>767.8</ele><time>2026-04-04T13:57:32.687Z</time></trkpt><trkpt lat="43.6607059" lon="12.6975977"><ele>766.1999999999999</ele><time>2026-04-04T13:57:33.685Z</time></trkpt><trkpt lat="43.6606385" lon="12.6974895"><ele>764.5999999999999</ele><time>2026-04-04T13:57:34.686Z</time></trkpt><trkpt lat="43.6605672" lon="12.6973934"><ele>763.0</ele><time>2026-04-04T13:57:35.688Z</time></trkpt><trkpt lat="43.6604862" lon="12.6973019"><ele>763.0</ele><time>2026-04-04T13:57:36.687Z</time></trkpt><trkpt lat="43.6603941" lon="12.6972171"><ele>763.0</ele><time>2026-04-04T13:57:37.69Z</time></trkpt><trkpt lat="43.6603031" lon="12.6971364"><ele>763.0</ele><time>2026-04-04T13:57:38.687Z</time></trkpt><trkpt lat="43.6602185" lon="12.6970602"><ele>763.0</ele><time>2026-04-04T13:57:39.686Z</time></trkpt><trkpt lat="43.6601389" lon="12.6969825"><ele>763.0</ele><time>2026-04-04T13:57:40.686Z</time></trkpt><trkpt lat="43.6600583" lon="12.6969059"><ele>761.5999999999999</ele><time>2026-04-04T13:57:41.688Z</time></trkpt><trkpt lat="43.6599763" lon="12.6968326"><ele>760.1999999999999</ele><time>2026-04-04T13:57:42.686Z</time></trkpt><trkpt lat="43.659896" lon="12.6967611"><ele>758.8</ele><time>2026-04-04T13:57:43.688Z</time></trkpt><trkpt lat="43.6598211" lon="12.6966972"><ele>757.4</ele><time>2026-04-04T13:57:44.688Z</time></trkpt><trkpt lat="43.6597478" lon="12.6966329"><ele>756.0</ele><time>2026-04-04T13:57:45.69Z</time></trkpt><trkpt lat="43.6595852" lon="12.6965535"><ele>756.0</ele><time>2026-04-04T13:57:48.687Z</time></trkpt><trkpt lat="43.6595186" lon="12.6965477"><ele>756.0</ele><time>2026-04-04T13:57:50.687Z</time></trkpt><trkpt lat="43.6595415" lon="12.696456"><ele>756.0</ele><time>2026-04-04T13:57:53.691Z</time></trkpt><trkpt lat="43.6596208" lon="12.6964227"><ele>756.0</ele><time>2026-04-04T13:57:55.69Z</time></trkpt><trkpt lat="43.6597397" lon="12.696441"><ele>756.0</ele><time>2026-04-04T13:57:57.687Z</time></trkpt><trkpt lat="43.6598157" lon="12.6964575"><ele>756.0</ele><time>2026-04-04T13:57:58.687Z</time></trkpt><trkpt lat="43.6599057" lon="12.6964699"><ele>756.0</ele><time>2026-04-04T13:57:59.689Z</time></trkpt><trkpt lat="43.6599922" lon="12.6964858"><ele>756.0</ele><time>2026-04-04T13:58:00.688Z</time></trkpt><trkpt lat="43.6600821" lon="12.6965085"><ele>756.0</ele><time>2026-04-04T13:58:01.69Z</time></trkpt><trkpt lat="43.6601752" lon="12.696544"><ele>756.0</ele><time>2026-04-04T13:58:02.686Z</time></trkpt><trkpt lat="43.6602614" lon="12.6965846"><ele>756.0</ele><time>2026-04-04T13:58:03.685Z</time></trkpt><trkpt lat="43.6603376" lon="12.6966323"><ele>754.5</ele><time>2026-04-04T13:58:04.686Z</time></trkpt><trkpt lat="43.66042" lon="12.6966801"><ele>753.0</ele><time>2026-04-04T13:58:05.687Z</time></trkpt><trkpt lat="43.6605005" lon="12.6967153"><ele>751.5</ele><time>2026-04-04T13:58:06.688Z</time></trkpt><trkpt lat="43.6606809" lon="12.6967764"><ele>750.0</ele><time>2026-04-04T13:58:08.688Z</time></trkpt><trkpt lat="43.6607731" lon="12.6968032"><ele>750.0</ele><time>2026-04-04T13:58:09.685Z</time></trkpt><trkpt lat="43.6608655" lon="12.6968211"><ele>750.0</ele><time>2026-04-04T13:58:10.689Z</time></trkpt><trkpt lat="43.6609615" lon="12.6968367"><ele>750.0</ele><time>2026-04-04T13:58:11.69Z</time></trkpt><trkpt lat="43.6610635" lon="12.696855"><ele>750.0</ele><time>2026-04-04T13:58:12.686Z</time></trkpt><trkpt lat="43.6611674" lon="12.6968697"><ele>750.0</ele><time>2026-04-04T13:58:13.688Z</time></trkpt><trkpt lat="43.6612688" lon="12.6968804"><ele>748.2</ele><time>2026-04-04T13:58:14.688Z</time></trkpt><trkpt lat="43.6613706" lon="12.6968874"><ele>746.4</ele><time>2026-04-04T13:58:15.685Z</time></trkpt><trkpt lat="43.6614698" lon="12.6968882"><ele>744.5999999999999</ele><time>2026-04-04T13:58:16.686Z</time></trkpt><trkpt lat="43.6615693" lon="12.6968815"><ele>742.8</ele><time>2026-04-04T13:58:17.688Z</time></trkpt><trkpt lat="43.6616702" lon="12.696866"><ele>741.0</ele><time>2026-04-04T13:58:18.69Z</time></trkpt><trkpt lat="43.6617638" lon="12.6968386"><ele>741.0</ele><time>2026-04-04T13:58:19.688Z</time></trkpt><trkpt lat="43.66185" lon="12.696812"><ele>741.0</ele><time>2026-04-04T13:58:20.686Z</time></trkpt><trkpt lat="43.6619441" lon="12.6967969"><ele>741.0</ele><time>2026-04-04T13:58:21.687Z</time></trkpt><trkpt lat="43.6620258" lon="12.6967974"><ele>741.0</ele><time>2026-04-04T13:58:22.688Z</time></trkpt><trkpt lat="43.6621019" lon="12.6968101"><ele>741.0</ele><time>2026-04-04T13:58:23.688Z</time></trkpt><trkpt lat="43.6621724" lon="12.6968307"><ele>741.0</ele><time>2026-04-04T13:58:24.687Z</time></trkpt><trkpt lat="43.6622402" lon="12.6968552"><ele>740.8</ele><time>2026-04-04T13:58:25.688Z</time></trkpt><trkpt lat="43.6623015" lon="12.6968811"><ele>740.5999999999999</ele><time>2026-04-04T13:58:26.688Z</time></trkpt><trkpt lat="43.6623643" lon="12.6969107"><ele>740.4</ele><time>2026-04-04T13:58:27.688Z</time></trkpt><trkpt lat="43.6625082" lon="12.69698"><ele>740.2</ele><time>2026-04-04T13:58:29.686Z</time></trkpt><trkpt lat="43.662587" lon="12.6970257"><ele>740.0</ele><time>2026-04-04T13:58:30.686Z</time></trkpt><trkpt lat="43.6626718" lon="12.6970791"><ele>740.0</ele><time>2026-04-04T13:58:31.69Z</time></trkpt><trkpt lat="43.6627627" lon="12.6971414"><ele>740.0</ele><time>2026-04-04T13:58:32.686Z</time></trkpt><trkpt lat="43.6628471" lon="12.6972092"><ele>740.0</ele><time>2026-04-04T13:58:33.687Z</time></trkpt><trkpt lat="43.6629266" lon="12.6972824"><ele>740.0</ele><time>2026-04-04T13:58:34.686Z</time></trkpt><trkpt lat="43.6630035" lon="12.6973538"><ele>740.0</ele><time>2026-04-04T13:58:35.69Z</time></trkpt><trkpt lat="43.6630767" lon="12.6974298"><ele>738.2</ele><time>2026-04-04T13:58:36.689Z</time></trkpt><trkpt lat="43.6631479" lon="12.6975126"><ele>736.4</ele><time>2026-04-04T13:58:37.687Z</time></trkpt><trkpt lat="43.6632194" lon="12.6976024"><ele>734.5999999999999</ele><time>2026-04-04T13:58:38.688Z</time></trkpt><trkpt lat="43.6632911" lon="12.6976976"><ele>732.8</ele><time>2026-04-04T13:58:39.687Z</time></trkpt><trkpt lat="43.6633641" lon="12.6977952"><ele>731.0</ele><time>2026-04-04T13:58:40.687Z</time></trkpt><trkpt lat="43.6634343" lon="12.697891"><ele>731.0</ele><time>2026-04-04T13:58:41.686Z</time></trkpt><trkpt lat="43.6634995" lon="12.6979847"><ele>731.0</ele><time>2026-04-04T13:58:42.686Z</time></trkpt><trkpt lat="43.6635546" lon="12.6980711"><ele>731.0</ele><time>2026-04-04T13:58:43.688Z</time></trkpt><trkpt lat="43.6635997" lon="12.6981426"><ele>731.0</ele><time>2026-04-04T13:58:44.686Z</time></trkpt><trkpt lat="43.6636678" lon="12.6982682"><ele>731.0</ele><time>2026-04-04T13:58:46.687Z</time></trkpt><trkpt lat="43.6637252" lon="12.6983435"><ele>731.0</ele><time>2026-04-04T13:58:48.686Z</time></trkpt><trkpt lat="43.6637915" lon="12.6982139"><ele>729.3333333333333</ele><time>2026-04-04T13:58:53.69Z</time></trkpt><trkpt lat="43.6637679" lon="12.6981241"><ele>727.6666666666666</ele><time>2026-04-04T13:58:54.689Z</time></trkpt><trkpt lat="43.6637331" lon="12.6980047"><ele>726.0</ele><time>2026-04-04T13:58:55.689Z</time></trkpt><trkpt lat="43.6636963" lon="12.6978743"><ele>724.3333333333334</ele><time>2026-04-04T13:58:56.687Z</time></trkpt><trkpt lat="43.6636609" lon="12.6977549"><ele>722.6666666666667</ele><time>2026-04-04T13:58:57.685Z</time></trkpt><trkpt lat="43.6636269" lon="12.6976532"><ele>721.0</ele><time>2026-04-04T13:58:58.688Z</time></trkpt><trkpt lat="43.6635931" lon="12.6975651"><ele>721.0</ele><time>2026-04-04T13:58:59.686Z</time></trkpt><trkpt lat="43.6635616" lon="12.6974832"><ele>721.0</ele><time>2026-04-04T13:59:00.687Z</time></trkpt><trkpt lat="43.66353" lon="12.6974006"><ele>721.0</ele><time>2026-04-04T13:59:01.688Z</time></trkpt><trkpt lat="43.6634966" lon="12.6973119"><ele>721.0</ele><time>2026-04-04T13:59:02.688Z</time></trkpt><trkpt lat="43.6634589" lon="12.6972116"><ele>721.0</ele><time>2026-04-04T13:59:03.691Z</time></trkpt><trkpt lat="43.6634204" lon="12.6971076"><ele>721.0</ele><time>2026-04-04T13:59:04.688Z</time></trkpt><trkpt lat="43.6633829" lon="12.6970092"><ele>719.5999999999999</ele><time>2026-04-04T13:59:05.687Z</time></trkpt><trkpt lat="43.663349" lon="12.6969171"><ele>718.2</ele><time>2026-04-04T13:59:06.687Z</time></trkpt><trkpt lat="43.6633185" lon="12.6968318"><ele>716.8</ele><time>2026-04-04T13:59:07.69Z</time></trkpt><trkpt lat="43.6632874" lon="12.6967509"><ele>715.4000000000001</ele><time>2026-04-04T13:59:08.688Z</time></trkpt><trkpt lat="43.6632232" lon="12.6966012"><ele>714.0</ele><time>2026-04-04T13:59:10.687Z</time></trkpt><trkpt lat="43.6631618" lon="12.6964439"><ele>714.0</ele><time>2026-04-04T13:59:12.688Z</time></trkpt><trkpt lat="43.6631316" lon="12.6963628"><ele>714.0</ele><time>2026-04-04T13:59:13.69Z</time></trkpt><trkpt lat="43.6631004" lon="12.6962816"><ele>714.0</ele><time>2026-04-04T13:59:14.689Z</time></trkpt><trkpt lat="43.6630674" lon="12.6961941"><ele>714.0</ele><time>2026-04-04T13:59:15.689Z</time></trkpt><trkpt lat="43.6630376" lon="12.6960981"><ele>714.0</ele><time>2026-04-04T13:59:16.688Z</time></trkpt><trkpt lat="43.6630122" lon="12.6959978"><ele>714.0</ele><time>2026-04-04T13:59:17.688Z</time></trkpt><trkpt lat="43.6629879" lon="12.6958972"><ele>714.0</ele><time>2026-04-04T13:59:18.686Z</time></trkpt><trkpt lat="43.6629634" lon="12.6957939"><ele>712.1666666666666</ele><time>2026-04-04T13:59:19.689Z</time></trkpt><trkpt lat="43.66294" lon="12.6956875"><ele>710.3333333333334</ele><time>2026-04-04T13:59:20.686Z</time></trkpt><trkpt lat="43.6629152" lon="12.6955788"><ele>708.5</ele><time>2026-04-04T13:59:21.686Z</time></trkpt><trkpt lat="43.66289" lon="12.695467"><ele>706.6666666666667</ele><time>2026-04-04T13:59:22.689Z</time></trkpt><trkpt lat="43.6628707" lon="12.6953563"><ele>704.8333333333334</ele><time>2026-04-04T13:59:23.689Z</time></trkpt><trkpt lat="43.6628573" lon="12.6952521"><ele>703.0</ele><time>2026-04-04T13:59:24.687Z</time></trkpt><trkpt lat="43.6628488" lon="12.6951549"><ele>702.4285714285714</ele><time>2026-04-04T13:59:25.69Z</time></trkpt><trkpt lat="43.6628454" lon="12.6950594"><ele>701.8571428571429</ele><time>2026-04-04T13:59:26.686Z</time></trkpt><trkpt lat="43.6628511" lon="12.6949632"><ele>701.2857142857142</ele><time>2026-04-04T13:59:27.687Z</time></trkpt><trkpt lat="43.6628674" lon="12.6948624"><ele>700.7142857142858</ele><time>2026-04-04T13:59:28.688Z</time></trkpt><trkpt lat="43.6628884" lon="12.6947603"><ele>700.1428571428572</ele><time>2026-04-04T13:59:29.689Z</time></trkpt><trkpt lat="43.6629121" lon="12.6946609"><ele>699.5714285714286</ele><time>2026-04-04T13:59:30.686Z</time></trkpt><trkpt lat="43.6629386" lon="12.6945542"><ele>699.0</ele><time>2026-04-04T13:59:31.688Z</time></trkpt><trkpt lat="43.6629841" lon="12.694338"><ele>698.8333333333334</ele><time>2026-04-04T13:59:33.686Z</time></trkpt><trkpt lat="43.6629963" lon="12.6942384"><ele>698.6666666666666</ele><time>2026-04-04T13:59:34.686Z</time></trkpt><trkpt lat="43.6629916" lon="12.6941372"><ele>698.5</ele><time>2026-04-04T13:59:35.688Z</time></trkpt><trkpt lat="43.6629768" lon="12.6940279"><ele>698.3333333333333</ele><time>2026-04-04T13:59:36.687Z</time></trkpt><trkpt lat="43.6629499" lon="12.6939057"><ele>698.1666666666666</ele><time>2026-04-04T13:59:37.688Z</time></trkpt><trkpt lat="43.6629115" lon="12.6937816"><ele>698.0</ele><time>2026-04-04T13:59:38.687Z</time></trkpt><trkpt lat="43.662871" lon="12.6936639"><ele>697.0</ele><time>2026-04-04T13:59:39.689Z</time></trkpt><trkpt lat="43.6628287" lon="12.6935594"><ele>696.0</ele><time>2026-04-04T13:59:40.688Z</time></trkpt><trkpt lat="43.6627767" lon="12.6934664"><ele>695.0</ele><time>2026-04-04T13:59:41.688Z</time></trkpt><trkpt lat="43.6627206" lon="12.6933803"><ele>694.0</ele><time>2026-04-04T13:59:42.686Z</time></trkpt><trkpt lat="43.6626627" lon="12.6932947"><ele>693.0</ele><time>2026-04-04T13:59:43.688Z</time></trkpt><trkpt lat="43.6625968" lon="12.6932087"><ele>692.0</ele><time>2026-04-04T13:59:44.688Z</time></trkpt><trkpt lat="43.6625223" lon="12.693128"><ele>691.6666666666666</ele><time>2026-04-04T13:59:45.686Z</time></trkpt><trkpt lat="43.6624436" lon="12.6930513"><ele>691.3333333333333</ele><time>2026-04-04T13:59:46.685Z</time></trkpt><trkpt lat="43.6623661" lon="12.6929795"><ele>691.0</ele><time>2026-04-04T13:59:47.689Z</time></trkpt><trkpt lat="43.6622957" lon="12.6929126"><ele>690.6666666666666</ele><time>2026-04-04T13:59:48.688Z</time></trkpt><trkpt lat="43.6622285" lon="12.6928462"><ele>690.3333333333334</ele><time>2026-04-04T13:59:49.69Z</time></trkpt><trkpt lat="43.6621706" lon="12.6927781"><ele>690.0</ele><time>2026-04-04T13:59:50.688Z</time></trkpt><trkpt lat="43.6621119" lon="12.6927088"><ele>690.0</ele><time>2026-04-04T13:59:51.688Z</time></trkpt><trkpt lat="43.6620454" lon="12.6926407"><ele>690.0</ele><time>2026-04-04T13:59:52.688Z</time></trkpt><trkpt lat="43.661896" lon="12.6925329"><ele>690.0</ele><time>2026-04-04T13:59:54.688Z</time></trkpt><trkpt lat="43.6618123" lon="12.6925019"><ele>690.0</ele><time>2026-04-04T13:59:55.688Z</time></trkpt><trkpt lat="43.6617263" lon="12.6924851"><ele>690.0</ele><time>2026-04-04T13:59:56.689Z</time></trkpt><trkpt lat="43.6616349" lon="12.6924805"><ele>690.5</ele><time>2026-04-04T13:59:57.687Z</time></trkpt><trkpt lat="43.661543" lon="12.692486"><ele>691.0</ele><time>2026-04-04T13:59:58.686Z</time></trkpt><trkpt lat="43.6614566" lon="12.6924936"><ele>691.5</ele><time>2026-04-04T13:59:59.688Z</time></trkpt><trkpt lat="43.6613795" lon="12.6925061"><ele>692.0</ele><time>2026-04-04T14:00:00.687Z</time></trkpt><trkpt lat="43.661317" lon="12.6925328"><ele>692.5</ele><time>2026-04-04T14:00:01.688Z</time></trkpt><trkpt lat="43.66124" lon="12.6926299"><ele>693.0</ele><time>2026-04-04T14:00:03.686Z</time></trkpt><trkpt lat="43.6612239" lon="12.6927937"><ele>694.6666666666666</ele><time>2026-04-04T14:00:05.687Z</time></trkpt><trkpt lat="43.661243" lon="12.6929104"><ele>696.3333333333334</ele><time>2026-04-04T14:00:06.686Z</time></trkpt><trkpt lat="43.66127" lon="12.6930407"><ele>698.0</ele><time>2026-04-04T14:00:07.689Z</time></trkpt><trkpt lat="43.6612906" lon="12.6931683"><ele>699.6666666666667</ele><time>2026-04-04T14:00:08.689Z</time></trkpt><trkpt lat="43.661295" lon="12.6932847"><ele>701.3333333333334</ele><time>2026-04-04T14:00:09.687Z</time></trkpt><trkpt lat="43.661278" lon="12.6933964"><ele>703.0</ele><time>2026-04-04T14:00:10.689Z</time></trkpt><trkpt lat="43.6612367" lon="12.6934888"><ele>703.0</ele><time>2026-04-04T14:00:11.689Z</time></trkpt><trkpt lat="43.6611834" lon="12.6935691"><ele>703.0</ele><time>2026-04-04T14:00:12.688Z</time></trkpt><trkpt lat="43.661141" lon="12.6936559"><ele>703.0</ele><time>2026-04-04T14:00:13.69Z</time></trkpt><trkpt lat="43.6610982" lon="12.6938575"><ele>703.0</ele><time>2026-04-04T14:00:15.686Z</time></trkpt><trkpt lat="43.6611059" lon="12.6939644"><ele>703.0</ele><time>2026-04-04T14:00:16.687Z</time></trkpt><trkpt lat="43.6611376" lon="12.6940812"><ele>703.8</ele><time>2026-04-04T14:00:17.692Z</time></trkpt><trkpt lat="43.6611867" lon="12.6942114"><ele>704.5999999999999</ele><time>2026-04-04T14:00:18.688Z</time></trkpt><trkpt lat="43.6612402" lon="12.6943454"><ele>705.4000000000001</ele><time>2026-04-04T14:00:19.691Z</time></trkpt><trkpt lat="43.6612899" lon="12.6944686"><ele>706.2</ele><time>2026-04-04T14:00:20.688Z</time></trkpt><trkpt lat="43.6613269" lon="12.6945688"><ele>707.0</ele><time>2026-04-04T14:00:21.691Z</time></trkpt><trkpt lat="43.6613528" lon="12.6946558"><ele>707.8</ele><time>2026-04-04T14:00:22.689Z</time></trkpt><trkpt lat="43.6613477" lon="12.6947857"><ele>708.6</ele><time>2026-04-04T14:00:24.686Z</time></trkpt><trkpt lat="43.661284" lon="12.6948364"><ele>709.4</ele><time>2026-04-04T14:00:26.687Z</time></trkpt><trkpt lat="43.6611596" lon="12.694818"><ele>710.1999999999999</ele><time>2026-04-04T14:00:28.688Z</time></trkpt><trkpt lat="43.6610813" lon="12.6948135"><ele>711.0</ele><time>2026-04-04T14:00:29.69Z</time></trkpt><trkpt lat="43.6609969" lon="12.6948291"><ele>708.5999999999999</ele><time>2026-04-04T14:00:30.688Z</time></trkpt><trkpt lat="43.6609023" lon="12.6948613"><ele>706.2</ele><time>2026-04-04T14:00:31.689Z</time></trkpt><trkpt lat="43.6608096" lon="12.6949131"><ele>703.8</ele><time>2026-04-04T14:00:32.687Z</time></trkpt><trkpt lat="43.6607168" lon="12.6949643"><ele>701.4000000000001</ele><time>2026-04-04T14:00:33.686Z</time></trkpt><trkpt lat="43.6606364" lon="12.6950044"><ele>699.0</ele><time>2026-04-04T14:00:34.688Z</time></trkpt><trkpt lat="43.6604778" lon="12.6949828"><ele>699.0</ele><time>2026-04-04T14:00:36.689Z</time></trkpt><trkpt lat="43.6604103" lon="12.6949046"><ele>699.0</ele><time>2026-04-04T14:00:37.687Z</time></trkpt><trkpt lat="43.6603439" lon="12.6947995"><ele>699.0</ele><time>2026-04-04T14:00:38.689Z</time></trkpt><trkpt lat="43.6603157" lon="12.6946621"><ele>699.0</ele><time>2026-04-04T14:00:39.686Z</time></trkpt><trkpt lat="43.660293" lon="12.6945155"><ele>699.0</ele><time>2026-04-04T14:00:40.689Z</time></trkpt><trkpt lat="43.6602695" lon="12.6943705"><ele>697.8000000000001</ele><time>2026-04-04T14:00:41.687Z</time></trkpt><trkpt lat="43.6602357" lon="12.6942232"><ele>696.6</ele><time>2026-04-04T14:00:42.688Z</time></trkpt><trkpt lat="43.6601932" lon="12.6940812"><ele>695.4</ele><time>2026-04-04T14:00:43.689Z</time></trkpt><trkpt lat="43.6601428" lon="12.6939559"><ele>694.2</ele><time>2026-04-04T14:00:44.687Z</time></trkpt><trkpt lat="43.6600813" lon="12.69385"><ele>693.0</ele><time>2026-04-04T14:00:45.687Z</time></trkpt><trkpt lat="43.6600104" lon="12.6937619"><ele>693.0</ele><time>2026-04-04T14:00:46.689Z</time></trkpt><trkpt lat="43.6599217" lon="12.6936865"><ele>693.0</ele><time>2026-04-04T14:00:47.688Z</time></trkpt><trkpt lat="43.659822" lon="12.6936196"><ele>693.0</ele><time>2026-04-04T14:00:48.688Z</time></trkpt><trkpt lat="43.6597224" lon="12.6935503"><ele>693.0</ele><time>2026-04-04T14:00:49.689Z</time></trkpt><trkpt lat="43.6596281" lon="12.693481"><ele>693.0</ele><time>2026-04-04T14:00:50.688Z</time></trkpt><trkpt lat="43.6595387" lon="12.6934113"><ele>688.5999999999999</ele><time>2026-04-04T14:00:51.686Z</time></trkpt><trkpt lat="43.6594572" lon="12.6933392"><ele>684.1999999999999</ele><time>2026-04-04T14:00:52.688Z</time></trkpt><trkpt lat="43.6593792" lon="12.6932717"><ele>679.8</ele><time>2026-04-04T14:00:53.688Z</time></trkpt><trkpt lat="43.6593003" lon="12.693212"><ele>675.4</ele><time>2026-04-04T14:00:54.688Z</time></trkpt><trkpt lat="43.6592204" lon="12.6931614"><ele>671.0</ele><time>2026-04-04T14:00:55.69Z</time></trkpt><trkpt lat="43.6590556" lon="12.6930938"><ele>671.0</ele><time>2026-04-04T14:00:57.685Z</time></trkpt><trkpt lat="43.6589749" lon="12.6930868"><ele>671.0</ele><time>2026-04-04T14:00:58.686Z</time></trkpt><trkpt lat="43.6588935" lon="12.6931022"><ele>671.0</ele><time>2026-04-04T14:00:59.689Z</time></trkpt><trkpt lat="43.6588131" lon="12.6931474"><ele>671.0</ele><time>2026-04-04T14:01:00.688Z</time></trkpt><trkpt lat="43.6587358" lon="12.693213"><ele>671.0</ele><time>2026-04-04T14:01:01.689Z</time></trkpt><trkpt lat="43.6586607" lon="12.6932785"><ele>671.0</ele><time>2026-04-04T14:01:02.688Z</time></trkpt><trkpt lat="43.6585916" lon="12.6933314"><ele>671.0</ele><time>2026-04-04T14:01:03.688Z</time></trkpt><trkpt lat="43.6584844" lon="12.6933666"><ele>671.0</ele><time>2026-04-04T14:01:05.69Z</time></trkpt><trkpt lat="43.6584496" lon="12.6932896"><ele>671.0</ele><time>2026-04-04T14:01:07.69Z</time></trkpt><trkpt lat="43.658494" lon="12.6931471"><ele>671.0</ele><time>2026-04-04T14:01:09.692Z</time></trkpt><trkpt lat="43.6586003" lon="12.6930708"><ele>671.0</ele><time>2026-04-04T14:01:10.692Z</time></trkpt><trkpt lat="43.6587201" lon="12.6929973"><ele>671.0</ele><time>2026-04-04T14:01:11.691Z</time></trkpt><trkpt lat="43.6588245" lon="12.6929402"><ele>671.0</ele><time>2026-04-04T14:01:12.688Z</time></trkpt><trkpt lat="43.6589347" lon="12.6929084"><ele>671.0</ele><time>2026-04-04T14:01:13.689Z</time></trkpt><trkpt lat="43.6590409" lon="12.6928864"><ele>671.0</ele><time>2026-04-04T14:01:14.688Z</time></trkpt><trkpt lat="43.6591407" lon="12.6928691"><ele>671.0</ele><time>2026-04-04T14:01:15.688Z</time></trkpt><trkpt lat="43.6592333" lon="12.6928487"><ele>671.0</ele><time>2026-04-04T14:01:16.692Z</time></trkpt><trkpt lat="43.6594107" lon="12.6927968"><ele>671.0</ele><time>2026-04-04T14:01:18.691Z</time></trkpt><trkpt lat="43.6594925" lon="12.6927749"><ele>671.0</ele><time>2026-04-04T14:01:19.692Z</time></trkpt><trkpt lat="43.6595677" lon="12.6927645"><ele>671.0</ele><time>2026-04-04T14:01:20.688Z</time></trkpt><trkpt lat="43.6596437" lon="12.6927759"><ele>671.0</ele><time>2026-04-04T14:01:21.687Z</time></trkpt><trkpt lat="43.659708" lon="12.6928301"><ele>669.5999999999999</ele><time>2026-04-04T14:01:22.689Z</time></trkpt><trkpt lat="43.6597667" lon="12.6928883"><ele>668.2</ele><time>2026-04-04T14:01:23.69Z</time></trkpt><trkpt lat="43.65987" lon="12.6929283"><ele>666.8</ele><time>2026-04-04T14:01:25.693Z</time></trkpt><trkpt lat="43.6599067" lon="12.6928483"><ele>665.4000000000001</ele><time>2026-04-04T14:01:27.687Z</time></trkpt><trkpt lat="43.65984" lon="12.6927033"><ele>664.0</ele><time>2026-04-04T14:01:29.687Z</time></trkpt><trkpt lat="43.65976" lon="12.692645"><ele>659.25</ele><time>2026-04-04T14:01:30.689Z</time></trkpt><trkpt lat="43.6596533" lon="12.692595"><ele>654.5</ele><time>2026-04-04T14:01:31.69Z</time></trkpt><trkpt lat="43.65954" lon="12.6925683"><ele>649.75</ele><time>2026-04-04T14:01:32.688Z</time></trkpt><trkpt lat="43.65942" lon="12.692555"><ele>645.0</ele><time>2026-04-04T14:01:33.687Z</time></trkpt><trkpt lat="43.6593067" lon="12.692545"><ele>643.75</ele><time>2026-04-04T14:01:34.688Z</time></trkpt><trkpt lat="43.65919" lon="12.6925283"><ele>642.5</ele><time>2026-04-04T14:01:35.688Z</time></trkpt><trkpt lat="43.65908" lon="12.6925033"><ele>641.25</ele><time>2026-04-04T14:01:36.687Z</time></trkpt><trkpt lat="43.6589767" lon="12.6924717"><ele>640.0</ele><time>2026-04-04T14:01:37.688Z</time></trkpt><trkpt lat="43.6587833" lon="12.6924"><ele>640.0</ele><time>2026-04-04T14:01:39.686Z</time></trkpt><trkpt lat="43.658695" lon="12.692375"><ele>640.0</ele><time>2026-04-04T14:01:40.689Z</time></trkpt><trkpt lat="43.6586133" lon="12.6923633"><ele>640.0</ele><time>2026-04-04T14:01:41.688Z</time></trkpt><trkpt lat="43.658535" lon="12.692365"><ele>640.0</ele><time>2026-04-04T14:01:42.687Z</time></trkpt><trkpt lat="43.6584633" lon="12.6923917"><ele>640.0</ele><time>2026-04-04T14:01:43.69Z</time></trkpt><trkpt lat="43.6583967" lon="12.6924383"><ele>640.0</ele><time>2026-04-04T14:01:44.69Z</time></trkpt><trkpt lat="43.658335" lon="12.6924833"><ele>638.8</ele><time>2026-04-04T14:01:45.688Z</time></trkpt><trkpt lat="43.65827" lon="12.69251"><ele>637.6</ele><time>2026-04-04T14:01:46.686Z</time></trkpt><trkpt lat="43.6581583" lon="12.6924767"><ele>636.4</ele><time>2026-04-04T14:01:48.689Z</time></trkpt><trkpt lat="43.6580867" lon="12.6924067"><ele>635.2</ele><time>2026-04-04T14:01:49.691Z</time></trkpt><trkpt lat="43.6580067" lon="12.6923333"><ele>634.0</ele><time>2026-04-04T14:01:50.689Z</time></trkpt><trkpt lat="43.6579133" lon="12.6922683"><ele>634.0</ele><time>2026-04-04T14:01:51.688Z</time></trkpt><trkpt lat="43.65782" lon="12.6922067"><ele>634.0</ele><time>2026-04-04T14:01:52.688Z</time></trkpt><trkpt lat="43.65773" lon="12.6921433"><ele>634.0</ele><time>2026-04-04T14:01:53.689Z</time></trkpt><trkpt lat="43.6576483" lon="12.6920783"><ele>634.0</ele><time>2026-04-04T14:01:54.688Z</time></trkpt><trkpt lat="43.6575733" lon="12.6920167"><ele>634.0</ele><time>2026-04-04T14:01:55.688Z</time></trkpt><trkpt lat="43.6574983" lon="12.6919667"><ele>636.25</ele><time>2026-04-04T14:01:56.687Z</time></trkpt><trkpt lat="43.6574033" lon="12.6919367"><ele>638.5</ele><time>2026-04-04T14:01:57.687Z</time></trkpt><trkpt lat="43.65729" lon="12.69191"><ele>640.75</ele><time>2026-04-04T14:01:58.688Z</time></trkpt><trkpt lat="43.6570633" lon="12.6918417"><ele>643.0</ele><time>2026-04-04T14:02:00.688Z</time></trkpt><trkpt lat="43.6569583" lon="12.6918033"><ele>635.1999999999999</ele><time>2026-04-04T14:02:01.688Z</time></trkpt><trkpt lat="43.6568517" lon="12.6917683"><ele>627.4</ele><time>2026-04-04T14:02:02.689Z</time></trkpt><trkpt lat="43.656745" lon="12.69174"><ele>619.5999999999999</ele><time>2026-04-04T14:02:03.688Z</time></trkpt><trkpt lat="43.6566417" lon="12.6917217"><ele>611.8</ele><time>2026-04-04T14:02:04.688Z</time></trkpt><trkpt lat="43.65654" lon="12.6917083"><ele>604.0</ele><time>2026-04-04T14:02:05.689Z</time></trkpt><trkpt lat="43.6564417" lon="12.6916817"><ele>604.0</ele><time>2026-04-04T14:02:06.687Z</time></trkpt><trkpt lat="43.6563517" lon="12.691655"><ele>604.0</ele><time>2026-04-04T14:02:07.692Z</time></trkpt><trkpt lat="43.6562683" lon="12.6916267"><ele>604.0</ele><time>2026-04-04T14:02:08.689Z</time></trkpt><trkpt lat="43.65619" lon="12.6916033"><ele>604.0</ele><time>2026-04-04T14:02:09.688Z</time></trkpt><trkpt lat="43.6561117" lon="12.691595"><ele>604.0</ele><time>2026-04-04T14:02:10.691Z</time></trkpt><trkpt lat="43.6560383" lon="12.691605"><ele>604.0</ele><time>2026-04-04T14:02:11.692Z</time></trkpt><trkpt lat="43.6559683" lon="12.6916367"><ele>602.4</ele><time>2026-04-04T14:02:12.691Z</time></trkpt><trkpt lat="43.655885" lon="12.6916883"><ele>600.8</ele><time>2026-04-04T14:02:13.693Z</time></trkpt><trkpt lat="43.655795" lon="12.6917583"><ele>599.2</ele><time>2026-04-04T14:02:14.691Z</time></trkpt><trkpt lat="43.6557083" lon="12.6918467"><ele>597.6</ele><time>2026-04-04T14:02:15.69Z</time></trkpt><trkpt lat="43.6556283" lon="12.6919317"><ele>596.0</ele><time>2026-04-04T14:02:16.69Z</time></trkpt><trkpt lat="43.65554" lon="12.6920083"><ele>595.6</ele><time>2026-04-04T14:02:17.69Z</time></trkpt><trkpt lat="43.6554483" lon="12.69208"><ele>595.2</ele><time>2026-04-04T14:02:18.693Z</time></trkpt><trkpt lat="43.655365" lon="12.6921367"><ele>594.8</ele><time>2026-04-04T14:02:19.691Z</time></trkpt><trkpt lat="43.6552267" lon="12.69225"><ele>594.4</ele><time>2026-04-04T14:02:21.69Z</time></trkpt><trkpt lat="43.6551717" lon="12.6923217"><ele>594.0</ele><time>2026-04-04T14:02:22.691Z</time></trkpt><trkpt lat="43.65511" lon="12.6923933"><ele>594.0</ele><time>2026-04-04T14:02:23.692Z</time></trkpt><trkpt lat="43.6550433" lon="12.6924433"><ele>594.0</ele><time>2026-04-04T14:02:24.692Z</time></trkpt><trkpt lat="43.654975" lon="12.692485"><ele>594.0</ele><time>2026-04-04T14:02:25.691Z</time></trkpt><trkpt lat="43.6548933" lon="12.6924917"><ele>594.0</ele><time>2026-04-04T14:02:26.688Z</time></trkpt><trkpt lat="43.6548083" lon="12.692495"><ele>594.0</ele><time>2026-04-04T14:02:27.689Z</time></trkpt><trkpt lat="43.654715" lon="12.6925083"><ele>594.0</ele><time>2026-04-04T14:02:28.689Z</time></trkpt><trkpt lat="43.6546333" lon="12.692535"><ele>594.0</ele><time>2026-04-04T14:02:29.69Z</time></trkpt><trkpt lat="43.6545683" lon="12.6925817"><ele>594.0</ele><time>2026-04-04T14:02:30.691Z</time></trkpt><trkpt lat="43.6545" lon="12.692655"><ele>594.0</ele><time>2026-04-04T14:02:31.691Z</time></trkpt><trkpt lat="43.6544383" lon="12.6927617"><ele>594.0</ele><time>2026-04-04T14:02:32.692Z</time></trkpt><trkpt lat="43.6543667" lon="12.6928733"><ele>594.0</ele><time>2026-04-04T14:02:33.689Z</time></trkpt><trkpt lat="43.6542883" lon="12.6929833"><ele>593.0</ele><time>2026-04-04T14:02:34.691Z</time></trkpt><trkpt lat="43.654205" lon="12.6930883"><ele>592.0</ele><time>2026-04-04T14:02:35.689Z</time></trkpt><trkpt lat="43.6541167" lon="12.69318"><ele>591.0</ele><time>2026-04-04T14:02:36.69Z</time></trkpt><trkpt lat="43.654025" lon="12.6932567"><ele>590.0</ele><time>2026-04-04T14:02:37.69Z</time></trkpt><trkpt lat="43.653925" lon="12.6933217"><ele>589.0</ele><time>2026-04-04T14:02:38.69Z</time></trkpt><trkpt lat="43.6538167" lon="12.6933817"><ele>589.0</ele><time>2026-04-04T14:02:39.687Z</time></trkpt><trkpt lat="43.653705" lon="12.693425"><ele>589.0</ele><time>2026-04-04T14:02:40.69Z</time></trkpt><trkpt lat="43.6534883" lon="12.6935267"><ele>589.0</ele><time>2026-04-04T14:02:42.688Z</time></trkpt><trkpt lat="43.653385" lon="12.6935833"><ele>588.8</ele><time>2026-04-04T14:02:43.688Z</time></trkpt><trkpt lat="43.6532867" lon="12.6936383"><ele>588.5999999999999</ele><time>2026-04-04T14:02:44.688Z</time></trkpt><trkpt lat="43.6531883" lon="12.69369"><ele>588.4</ele><time>2026-04-04T14:02:45.687Z</time></trkpt><trkpt lat="43.6530883" lon="12.6937467"><ele>588.1999999999999</ele><time>2026-04-04T14:02:46.688Z</time></trkpt><trkpt lat="43.65299" lon="12.69381"><ele>588.0</ele><time>2026-04-04T14:02:47.69Z</time></trkpt><trkpt lat="43.6528983" lon="12.6938817"><ele>588.0</ele><time>2026-04-04T14:02:48.688Z</time></trkpt><trkpt lat="43.6528083" lon="12.6939717"><ele>588.0</ele><time>2026-04-04T14:02:49.69Z</time></trkpt><trkpt lat="43.6527117" lon="12.694045"><ele>588.0</ele><time>2026-04-04T14:02:50.689Z</time></trkpt><trkpt lat="43.65261" lon="12.6941083"><ele>588.0</ele><time>2026-04-04T14:02:51.688Z</time></trkpt><trkpt lat="43.65251" lon="12.69417"><ele>588.0</ele><time>2026-04-04T14:02:52.69Z</time></trkpt><trkpt lat="43.6524183" lon="12.6942283"><ele>582.0</ele><time>2026-04-04T14:02:53.689Z</time></trkpt><trkpt lat="43.652325" lon="12.6942833"><ele>576.0</ele><time>2026-04-04T14:02:54.689Z</time></trkpt><trkpt lat="43.6522333" lon="12.6943367"><ele>570.0</ele><time>2026-04-04T14:02:55.691Z</time></trkpt><trkpt lat="43.652145" lon="12.6943833"><ele>564.0</ele><time>2026-04-04T14:02:56.688Z</time></trkpt><trkpt lat="43.65206" lon="12.694425"><ele>558.0</ele><time>2026-04-04T14:02:57.688Z</time></trkpt><trkpt lat="43.6519767" lon="12.694465"><ele>551.1999999999999</ele><time>2026-04-04T14:02:58.689Z</time></trkpt><trkpt lat="43.651895" lon="12.6945017"><ele>544.4</ele><time>2026-04-04T14:02:59.689Z</time></trkpt><trkpt lat="43.6518317" lon="12.69454"><ele>537.5999999999999</ele><time>2026-04-04T14:03:00.688Z</time></trkpt><trkpt lat="43.6517633" lon="12.694575"><ele>530.8</ele><time>2026-04-04T14:03:01.688Z</time></trkpt><trkpt lat="43.65163" lon="12.694625"><ele>524.0</ele><time>2026-04-04T14:03:03.688Z</time></trkpt><trkpt lat="43.6515083" lon="12.6945917"><ele>524.0</ele><time>2026-04-04T14:03:05.689Z</time></trkpt><trkpt lat="43.6514617" lon="12.6945317"><ele>524.0</ele><time>2026-04-04T14:03:06.689Z</time></trkpt><trkpt lat="43.65144" lon="12.6944417"><ele>524.0</ele><time>2026-04-04T14:03:07.689Z</time></trkpt><trkpt lat="43.6514567" lon="12.6943483"><ele>524.0</ele><time>2026-04-04T14:03:08.689Z</time></trkpt><trkpt lat="43.651485" lon="12.69427"><ele>524.0</ele><time>2026-04-04T14:03:09.687Z</time></trkpt><trkpt lat="43.651545" lon="12.6941833"><ele>524.0</ele><time>2026-04-04T14:03:10.688Z</time></trkpt><trkpt lat="43.6516117" lon="12.6940833"><ele>522.8</ele><time>2026-04-04T14:03:11.688Z</time></trkpt><trkpt lat="43.65169" lon="12.6939633"><ele>521.5999999999999</ele><time>2026-04-04T14:03:12.688Z</time></trkpt><trkpt lat="43.651755" lon="12.693855"><ele>520.4</ele><time>2026-04-04T14:03:13.689Z</time></trkpt><trkpt lat="43.65181" lon="12.6937417"><ele>519.1999999999999</ele><time>2026-04-04T14:03:14.686Z</time></trkpt><trkpt lat="43.651865" lon="12.69362"><ele>518.0</ele><time>2026-04-04T14:03:15.686Z</time></trkpt><trkpt lat="43.65193" lon="12.6934967"><ele>522.4</ele><time>2026-04-04T14:03:16.688Z</time></trkpt><trkpt lat="43.652005" lon="12.6933783"><ele>526.8</ele><time>2026-04-04T14:03:17.688Z</time></trkpt><trkpt lat="43.6520833" lon="12.6932683"><ele>531.2</ele><time>2026-04-04T14:03:18.687Z</time></trkpt><trkpt lat="43.6521583" lon="12.693165"><ele>535.6</ele><time>2026-04-04T14:03:19.688Z</time></trkpt><trkpt lat="43.6522367" lon="12.6930633"><ele>540.0</ele><time>2026-04-04T14:03:20.687Z</time></trkpt><trkpt lat="43.6523183" lon="12.6929683"><ele>540.0</ele><time>2026-04-04T14:03:21.688Z</time></trkpt><trkpt lat="43.6524017" lon="12.6928733"><ele>540.0</ele><time>2026-04-04T14:03:22.688Z</time></trkpt><trkpt lat="43.6525867" lon="12.692715"><ele>540.0</ele><time>2026-04-04T14:03:24.687Z</time></trkpt><trkpt lat="43.65269" lon="12.6926483"><ele>540.0</ele><time>2026-04-04T14:03:25.688Z</time></trkpt><trkpt lat="43.65279" lon="12.692575"><ele>539.2</ele><time>2026-04-04T14:03:26.689Z</time></trkpt><trkpt lat="43.6528883" lon="12.6925033"><ele>538.4</ele><time>2026-04-04T14:03:27.687Z</time></trkpt><trkpt lat="43.6529833" lon="12.6924267"><ele>537.6</ele><time>2026-04-04T14:03:28.688Z</time></trkpt><trkpt lat="43.653075" lon="12.692355"><ele>536.8</ele><time>2026-04-04T14:03:29.688Z</time></trkpt><trkpt lat="43.6531583" lon="12.6922683"><ele>536.0</ele><time>2026-04-04T14:03:30.689Z</time></trkpt><trkpt lat="43.65323" lon="12.6921583"><ele>536.0</ele><time>2026-04-04T14:03:31.69Z</time></trkpt><trkpt lat="43.6532933" lon="12.692035"><ele>536.0</ele><time>2026-04-04T14:03:32.689Z</time></trkpt><trkpt lat="43.6533467" lon="12.6919033"><ele>536.0</ele><time>2026-04-04T14:03:33.688Z</time></trkpt><trkpt lat="43.6533967" lon="12.6917633"><ele>536.0</ele><time>2026-04-04T14:03:34.687Z</time></trkpt><trkpt lat="43.653455" lon="12.6916317"><ele>536.0</ele><time>2026-04-04T14:03:35.69Z</time></trkpt><trkpt lat="43.6535233" lon="12.69151"><ele>537.0</ele><time>2026-04-04T14:03:36.688Z</time></trkpt><trkpt lat="43.6535933" lon="12.6913983"><ele>538.0</ele><time>2026-04-04T14:03:37.691Z</time></trkpt><trkpt lat="43.6536567" lon="12.69129"><ele>539.0</ele><time>2026-04-04T14:03:38.687Z</time></trkpt><trkpt lat="43.653715" lon="12.6911767"><ele>540.0</ele><time>2026-04-04T14:03:39.688Z</time></trkpt><trkpt lat="43.6537583" lon="12.6910467"><ele>541.0</ele><time>2026-04-04T14:03:40.692Z</time></trkpt><trkpt lat="43.6537883" lon="12.690905"><ele>535.3333333333334</ele><time>2026-04-04T14:03:41.69Z</time></trkpt><trkpt lat="43.653815" lon="12.6907483"><ele>529.6666666666666</ele><time>2026-04-04T14:03:42.687Z</time></trkpt><trkpt lat="43.6538383" lon="12.69058"><ele>524.0</ele><time>2026-04-04T14:03:43.69Z</time></trkpt><trkpt lat="43.65387" lon="12.6902383"><ele>520.8</ele><time>2026-04-04T14:03:45.686Z</time></trkpt><trkpt lat="43.653885" lon="12.6900767"><ele>517.5999999999999</ele><time>2026-04-04T14:03:46.687Z</time></trkpt><trkpt lat="43.6538967" lon="12.689925"><ele>514.4</ele><time>2026-04-04T14:03:47.691Z</time></trkpt><trkpt lat="43.653915" lon="12.6897783"><ele>511.2</ele><time>2026-04-04T14:03:48.687Z</time></trkpt><trkpt lat="43.6539467" lon="12.68964"><ele>508.0</ele><time>2026-04-04T14:03:49.692Z</time></trkpt><trkpt lat="43.6539817" lon="12.6895217"><ele>508.00000000000006</ele><time>2026-04-04T14:03:50.687Z</time></trkpt><trkpt lat="43.654" lon="12.6894267"><ele>508.0</ele><time>2026-04-04T14:03:51.687Z</time></trkpt><trkpt lat="43.65398" lon="12.68929"><ele>508.0</ele><time>2026-04-04T14:03:53.689Z</time></trkpt><trkpt lat="43.6538967" lon="12.689265"><ele>508.0</ele><time>2026-04-04T14:03:55.688Z</time></trkpt><trkpt lat="43.6538367" lon="12.6893283"><ele>508.00000000000006</ele><time>2026-04-04T14:03:56.688Z</time></trkpt><trkpt lat="43.65379" lon="12.6894533"><ele>508.0</ele><time>2026-04-04T14:03:57.688Z</time></trkpt><trkpt lat="43.653745" lon="12.6895883"><ele>508.0</ele><time>2026-04-04T14:03:58.689Z</time></trkpt><trkpt lat="43.6537033" lon="12.6897233"><ele>507.99999999999994</ele><time>2026-04-04T14:03:59.689Z</time></trkpt><trkpt lat="43.65366" lon="12.689865"><ele>507.99999999999994</ele><time>2026-04-04T14:04:00.69Z</time></trkpt><trkpt lat="43.653615" lon="12.6900083"><ele>508.0</ele><time>2026-04-04T14:04:01.689Z</time></trkpt><trkpt lat="43.6535767" lon="12.6901467"><ele>508.0</ele><time>2026-04-04T14:04:02.689Z</time></trkpt><trkpt lat="43.653535" lon="12.6902817"><ele>504.0</ele><time>2026-04-04T14:04:03.689Z</time></trkpt><trkpt lat="43.6534917" lon="12.6904083"><ele>500.0</ele><time>2026-04-04T14:04:04.689Z</time></trkpt><trkpt lat="43.6533567" lon="12.690605"><ele>496.0</ele><time>2026-04-04T14:04:06.688Z</time></trkpt><trkpt lat="43.65327" lon="12.6906833"><ele>492.0</ele><time>2026-04-04T14:04:07.69Z</time></trkpt><trkpt lat="43.6531717" lon="12.6907467"><ele>492.0</ele><time>2026-04-04T14:04:08.689Z</time></trkpt><trkpt lat="43.6530733" lon="12.6908017"><ele>492.00000000000006</ele><time>2026-04-04T14:04:09.688Z</time></trkpt><trkpt lat="43.6529817" lon="12.6908617"><ele>492.00000000000006</ele><time>2026-04-04T14:04:10.689Z</time></trkpt><trkpt lat="43.6529033" lon="12.6909433"><ele>492.0</ele><time>2026-04-04T14:04:11.687Z</time></trkpt><trkpt lat="43.6528433" lon="12.6910433"><ele>492.0</ele><time>2026-04-04T14:04:12.687Z</time></trkpt><trkpt lat="43.652795" lon="12.6911567"><ele>490.6666666666667</ele><time>2026-04-04T14:04:13.689Z</time></trkpt><trkpt lat="43.6527583" lon="12.6912667"><ele>489.33333333333337</ele><time>2026-04-04T14:04:14.689Z</time></trkpt><trkpt lat="43.652715" lon="12.691365"><ele>488.0</ele><time>2026-04-04T14:04:15.688Z</time></trkpt><trkpt lat="43.6526583" lon="12.6914567"><ele>486.6666666666667</ele><time>2026-04-04T14:04:16.689Z</time></trkpt><trkpt lat="43.652585" lon="12.6915217"><ele>485.33333333333337</ele><time>2026-04-04T14:04:17.69Z</time></trkpt><trkpt lat="43.652485" lon="12.6915467"><ele>484.0</ele><time>2026-04-04T14:04:18.688Z</time></trkpt><trkpt lat="43.65237" lon="12.6915567"><ele>484.0</ele><time>2026-04-04T14:04:19.689Z</time></trkpt><trkpt lat="43.6522567" lon="12.6915717"><ele>484.0</ele><time>2026-04-04T14:04:20.688Z</time></trkpt><trkpt lat="43.6521433" lon="12.6915817"><ele>484.0</ele><time>2026-04-04T14:04:21.688Z</time></trkpt><trkpt lat="43.652035" lon="12.6915983"><ele>484.0</ele><time>2026-04-04T14:04:22.691Z</time></trkpt><trkpt lat="43.651925" lon="12.6916167"><ele>484.0</ele><time>2026-04-04T14:04:23.689Z</time></trkpt><trkpt lat="43.6518167" lon="12.6916317"><ele>480.25</ele><time>2026-04-04T14:04:24.688Z</time></trkpt><trkpt lat="43.6517167" lon="12.6916533"><ele>476.5</ele><time>2026-04-04T14:04:25.689Z</time></trkpt><trkpt lat="43.6515067" lon="12.6917483"><ele>472.75</ele><time>2026-04-04T14:04:27.687Z</time></trkpt><trkpt lat="43.651395" lon="12.6918067"><ele>469.0</ele><time>2026-04-04T14:04:28.688Z</time></trkpt><trkpt lat="43.6512767" lon="12.6918633"><ele>468.75</ele><time>2026-04-04T14:04:29.687Z</time></trkpt><trkpt lat="43.651165" lon="12.6919267"><ele>468.5</ele><time>2026-04-04T14:04:30.689Z</time></trkpt><trkpt lat="43.6510583" lon="12.691995"><ele>468.25</ele><time>2026-04-04T14:04:31.688Z</time></trkpt><trkpt lat="43.6509483" lon="12.6920733"><ele>468.0</ele><time>2026-04-04T14:04:32.687Z</time></trkpt><trkpt lat="43.65085" lon="12.692165"><ele>468.0</ele><time>2026-04-04T14:04:33.686Z</time></trkpt><trkpt lat="43.6507617" lon="12.6922567"><ele>467.99999999999994</ele><time>2026-04-04T14:04:34.688Z</time></trkpt><trkpt lat="43.6506867" lon="12.6923583"><ele>467.99999999999994</ele><time>2026-04-04T14:04:35.688Z</time></trkpt><trkpt lat="43.65062" lon="12.6924683"><ele>468.0</ele><time>2026-04-04T14:04:36.687Z</time></trkpt><trkpt lat="43.6505567" lon="12.6925883"><ele>468.0</ele><time>2026-04-04T14:04:37.689Z</time></trkpt><trkpt lat="43.6504983" lon="12.6927067"><ele>466.59999999999997</ele><time>2026-04-04T14:04:38.688Z</time></trkpt><trkpt lat="43.6504283" lon="12.692805"><ele>465.19999999999993</ele><time>2026-04-04T14:04:39.686Z</time></trkpt><trkpt lat="43.65034" lon="12.6928817"><ele>463.8</ele><time>2026-04-04T14:04:40.687Z</time></trkpt><trkpt lat="43.6502517" lon="12.6929283"><ele>462.4</ele><time>2026-04-04T14:04:41.687Z</time></trkpt><trkpt lat="43.6501667" lon="12.6929617"><ele>461.0</ele><time>2026-04-04T14:04:42.687Z</time></trkpt><trkpt lat="43.650085" lon="12.693"><ele>461.0</ele><time>2026-04-04T14:04:43.688Z</time></trkpt><trkpt lat="43.6500067" lon="12.6930483"><ele>461.0</ele><time>2026-04-04T14:04:44.688Z</time></trkpt><trkpt lat="43.6499367" lon="12.6931167"><ele>461.0</ele><time>2026-04-04T14:04:45.687Z</time></trkpt><trkpt lat="43.6498617" lon="12.6931967"><ele>461.0</ele><time>2026-04-04T14:04:46.688Z</time></trkpt><trkpt lat="43.6496933" lon="12.6933517"><ele>461.0</ele><time>2026-04-04T14:04:48.686Z</time></trkpt><trkpt lat="43.6495933" lon="12.6934233"><ele>461.0</ele><time>2026-04-04T14:04:49.687Z</time></trkpt><trkpt lat="43.6494817" lon="12.693485"><ele>461.0</ele><time>2026-04-04T14:04:50.688Z</time></trkpt><trkpt lat="43.6493683" lon="12.693535"><ele>461.0</ele><time>2026-04-04T14:04:51.686Z</time></trkpt><trkpt lat="43.64926" lon="12.693585"><ele>460.75</ele><time>2026-04-04T14:04:52.687Z</time></trkpt><trkpt lat="43.649155" lon="12.6936383"><ele>460.5</ele><time>2026-04-04T14:04:53.689Z</time></trkpt><trkpt lat="43.6490517" lon="12.6937117"><ele>460.25</ele><time>2026-04-04T14:04:54.688Z</time></trkpt><trkpt lat="43.6489517" lon="12.69379"><ele>460.0</ele><time>2026-04-04T14:04:55.689Z</time></trkpt><trkpt lat="43.6488533" lon="12.69388"><ele>460.0</ele><time>2026-04-04T14:04:56.688Z</time></trkpt><trkpt lat="43.6487583" lon="12.6939733"><ele>460.0</ele><time>2026-04-04T14:04:57.687Z</time></trkpt><trkpt lat="43.6486717" lon="12.6940717"><ele>460.0</ele><time>2026-04-04T14:04:58.691Z</time></trkpt><trkpt lat="43.6485833" lon="12.694175"><ele>460.0</ele><time>2026-04-04T14:04:59.689Z</time></trkpt><trkpt lat="43.6484917" lon="12.694285"><ele>455.5</ele><time>2026-04-04T14:05:00.689Z</time></trkpt><trkpt lat="43.6484" lon="12.6944067"><ele>451.0</ele><time>2026-04-04T14:05:01.687Z</time></trkpt><trkpt lat="43.6483133" lon="12.6945383"><ele>446.5</ele><time>2026-04-04T14:05:02.689Z</time></trkpt><trkpt lat="43.6482383" lon="12.6946733"><ele>442.0</ele><time>2026-04-04T14:05:03.686Z</time></trkpt><trkpt lat="43.6481617" lon="12.6948033"><ele>442.0</ele><time>2026-04-04T14:05:04.687Z</time></trkpt><trkpt lat="43.6480783" lon="12.6949233"><ele>442.0</ele><time>2026-04-04T14:05:05.689Z</time></trkpt><trkpt lat="43.647985" lon="12.695035"><ele>442.0</ele><time>2026-04-04T14:05:06.687Z</time></trkpt><trkpt lat="43.6478867" lon="12.6951433"><ele>442.0</ele><time>2026-04-04T14:05:07.689Z</time></trkpt><trkpt lat="43.6476883" lon="12.6953233"><ele>437.20000000000005</ele><time>2026-04-04T14:05:09.686Z</time></trkpt><trkpt lat="43.6475917" lon="12.6953933"><ele>432.40000000000003</ele><time>2026-04-04T14:05:10.689Z</time></trkpt><trkpt lat="43.6474983" lon="12.695455"><ele>427.6</ele><time>2026-04-04T14:05:11.688Z</time></trkpt><trkpt lat="43.64741" lon="12.6955183"><ele>422.79999999999995</ele><time>2026-04-04T14:05:12.688Z</time></trkpt><trkpt lat="43.6473317" lon="12.69559"><ele>418.0</ele><time>2026-04-04T14:05:13.688Z</time></trkpt><trkpt lat="43.6472767" lon="12.6956733"><ele>418.0</ele><time>2026-04-04T14:05:14.688Z</time></trkpt><trkpt lat="43.64724" lon="12.69576"><ele>418.0</ele><time>2026-04-04T14:05:15.687Z</time></trkpt><trkpt lat="43.6472017" lon="12.6958867"><ele>418.0</ele><time>2026-04-04T14:05:17.687Z</time></trkpt><trkpt lat="43.6471317" lon="12.6959267"><ele>418.0</ele><time>2026-04-04T14:05:20.687Z</time></trkpt><trkpt lat="43.6470983" lon="12.69581"><ele>418.0</ele><time>2026-04-04T14:05:22.686Z</time></trkpt><trkpt lat="43.6471183" lon="12.6956583"><ele>418.0</ele><time>2026-04-04T14:05:24.688Z</time></trkpt><trkpt lat="43.6471883" lon="12.6955367"><ele>418.0</ele><time>2026-04-04T14:05:25.69Z</time></trkpt><trkpt lat="43.6472867" lon="12.6954083"><ele>418.0</ele><time>2026-04-04T14:05:26.689Z</time></trkpt><trkpt lat="43.6474117" lon="12.6952867"><ele>418.0</ele><time>2026-04-04T14:05:27.688Z</time></trkpt><trkpt lat="43.6475167" lon="12.6951733"><ele>415.33333333333337</ele><time>2026-04-04T14:05:28.687Z</time></trkpt><trkpt lat="43.6477233" lon="12.69491"><ele>412.66666666666663</ele><time>2026-04-04T14:05:30.688Z</time></trkpt><trkpt lat="43.6478083" lon="12.6947683"><ele>410.0</ele><time>2026-04-04T14:05:31.69Z</time></trkpt><trkpt lat="43.647885" lon="12.6946233"><ele>413.0</ele><time>2026-04-04T14:05:32.688Z</time></trkpt><trkpt lat="43.6479583" lon="12.6944683"><ele>416.0</ele><time>2026-04-04T14:05:33.686Z</time></trkpt><trkpt lat="43.648025" lon="12.6943083"><ele>419.0</ele><time>2026-04-04T14:05:34.689Z</time></trkpt><trkpt lat="43.648085" lon="12.6941433"><ele>422.0</ele><time>2026-04-04T14:05:35.687Z</time></trkpt><trkpt lat="43.6481467" lon="12.693965"><ele>422.0</ele><time>2026-04-04T14:05:36.687Z</time></trkpt><trkpt lat="43.64821" lon="12.69379"><ele>422.0</ele><time>2026-04-04T14:05:37.688Z</time></trkpt><trkpt lat="43.6482783" lon="12.69362"><ele>422.0</ele><time>2026-04-04T14:05:38.688Z</time></trkpt><trkpt lat="43.6483483" lon="12.6934583"><ele>422.0</ele><time>2026-04-04T14:05:39.686Z</time></trkpt><trkpt lat="43.6484217" lon="12.6933067"><ele>423.0</ele><time>2026-04-04T14:05:40.689Z</time></trkpt><trkpt lat="43.648495" lon="12.6931567"><ele>424.0</ele><time>2026-04-04T14:05:41.689Z</time></trkpt><trkpt lat="43.6485717" lon="12.6930183"><ele>425.0</ele><time>2026-04-04T14:05:42.688Z</time></trkpt><trkpt lat="43.6486533" lon="12.6928917"><ele>426.0</ele><time>2026-04-04T14:05:43.691Z</time></trkpt><trkpt lat="43.648735" lon="12.69278"><ele>421.6</ele><time>2026-04-04T14:05:44.686Z</time></trkpt><trkpt lat="43.6488117" lon="12.6926783"><ele>417.20000000000005</ele><time>2026-04-04T14:05:45.687Z</time></trkpt><trkpt lat="43.648875" lon="12.692585"><ele>412.79999999999995</ele><time>2026-04-04T14:05:46.69Z</time></trkpt><trkpt lat="43.64892" lon="12.6924783"><ele>408.4</ele><time>2026-04-04T14:05:47.687Z</time></trkpt><trkpt lat="43.6489433" lon="12.6923683"><ele>404.0</ele><time>2026-04-04T14:05:48.687Z</time></trkpt><trkpt lat="43.6489383" lon="12.6922567"><ele>404.0</ele><time>2026-04-04T14:05:49.691Z</time></trkpt><trkpt lat="43.6488683" lon="12.692055"><ele>404.0</ele><time>2026-04-04T14:05:51.687Z</time></trkpt><trkpt lat="43.648825" lon="12.6919583"><ele>404.0</ele><time>2026-04-04T14:05:52.688Z</time></trkpt><trkpt lat="43.6487833" lon="12.6918633"><ele>404.0</ele><time>2026-04-04T14:05:53.69Z</time></trkpt><trkpt lat="43.6487583" lon="12.6917717"><ele>404.0</ele><time>2026-04-04T14:05:54.688Z</time></trkpt><trkpt lat="43.6487483" lon="12.69168"><ele>401.66666666666663</ele><time>2026-04-04T14:05:55.689Z</time></trkpt><trkpt lat="43.648795" lon="12.69154"><ele>399.3333333333333</ele><time>2026-04-04T14:05:57.688Z</time></trkpt><trkpt lat="43.6488633" lon="12.691515"><ele>397.0</ele><time>2026-04-04T14:05:58.687Z</time></trkpt><trkpt lat="43.6489383" lon="12.6915033"><ele>394.66666666666663</ele><time>2026-04-04T14:05:59.687Z</time></trkpt><trkpt lat="43.6490283" lon="12.69149"><ele>392.3333333333333</ele><time>2026-04-04T14:06:00.688Z</time></trkpt><trkpt lat="43.649115" lon="12.691465"><ele>390.0</ele><time>2026-04-04T14:06:01.688Z</time></trkpt><trkpt lat="43.64921" lon="12.6914267"><ele>390.0</ele><time>2026-04-04T14:06:02.69Z</time></trkpt><trkpt lat="43.6493067" lon="12.6913483"><ele>390.0</ele><time>2026-04-04T14:06:03.689Z</time></trkpt><trkpt lat="43.649395" lon="12.6912317"><ele>390.0</ele><time>2026-04-04T14:06:04.687Z</time></trkpt><trkpt lat="43.6494917" lon="12.6911183"><ele>390.0</ele><time>2026-04-04T14:06:05.688Z</time></trkpt><trkpt lat="43.6495867" lon="12.691005"><ele>389.0</ele><time>2026-04-04T14:06:06.69Z</time></trkpt><trkpt lat="43.649685" lon="12.6908817"><ele>388.0</ele><time>2026-04-04T14:06:07.691Z</time></trkpt><trkpt lat="43.6497883" lon="12.6907583"><ele>387.0</ele><time>2026-04-04T14:06:08.69Z</time></trkpt><trkpt lat="43.64989" lon="12.6906483"><ele>386.0</ele><time>2026-04-04T14:06:09.689Z</time></trkpt><trkpt lat="43.6499833" lon="12.69054"><ele>386.0</ele><time>2026-04-04T14:06:10.689Z</time></trkpt><trkpt lat="43.650165" lon="12.6903317"><ele>386.0</ele><time>2026-04-04T14:06:12.691Z</time></trkpt><trkpt lat="43.65024" lon="12.6902217"><ele>386.0</ele><time>2026-04-04T14:06:13.69Z</time></trkpt><trkpt lat="43.6503017" lon="12.6901067"><ele>386.0</ele><time>2026-04-04T14:06:14.689Z</time></trkpt><trkpt lat="43.6503617" lon="12.6899967"><ele>385.20000000000005</ele><time>2026-04-04T14:06:15.688Z</time></trkpt><trkpt lat="43.6504233" lon="12.689895"><ele>384.40000000000003</ele><time>2026-04-04T14:06:16.689Z</time></trkpt><trkpt lat="43.6505033" lon="12.6898117"><ele>383.6</ele><time>2026-04-04T14:06:17.689Z</time></trkpt><trkpt lat="43.65059" lon="12.6897367"><ele>382.8</ele><time>2026-04-04T14:06:18.689Z</time></trkpt><trkpt lat="43.6506833" lon="12.68966"><ele>382.0</ele><time>2026-04-04T14:06:19.689Z</time></trkpt><trkpt lat="43.6507767" lon="12.6895783"><ele>382.0</ele><time>2026-04-04T14:06:20.689Z</time></trkpt><trkpt lat="43.6508683" lon="12.6895083"><ele>382.0</ele><time>2026-04-04T14:06:21.687Z</time></trkpt><trkpt lat="43.6509483" lon="12.6894483"><ele>382.0</ele><time>2026-04-04T14:06:22.688Z</time></trkpt><trkpt lat="43.6510117" lon="12.6893933"><ele>382.0</ele><time>2026-04-04T14:06:23.69Z</time></trkpt><trkpt lat="43.65107" lon="12.6892767"><ele>382.0</ele><time>2026-04-04T14:06:25.689Z</time></trkpt><trkpt lat="43.6510083" lon="12.6891433"><ele>378.40000000000003</ele><time>2026-04-04T14:06:27.687Z</time></trkpt><trkpt lat="43.6509533" lon="12.689075"><ele>374.8</ele><time>2026-04-04T14:06:28.687Z</time></trkpt><trkpt lat="43.6509017" lon="12.6889883"><ele>371.2</ele><time>2026-04-04T14:06:29.687Z</time></trkpt><trkpt lat="43.650865" lon="12.6888867"><ele>367.6</ele><time>2026-04-04T14:06:30.688Z</time></trkpt><trkpt lat="43.6508683" lon="12.68878"><ele>364.0</ele><time>2026-04-04T14:06:31.688Z</time></trkpt><trkpt lat="43.6509667" lon="12.6885783"><ele>361.79999999999995</ele><time>2026-04-04T14:06:33.687Z</time></trkpt><trkpt lat="43.6510517" lon="12.6884833"><ele>359.59999999999997</ele><time>2026-04-04T14:06:34.687Z</time></trkpt><trkpt lat="43.6511233" lon="12.6883867"><ele>357.4</ele><time>2026-04-04T14:06:35.686Z</time></trkpt><trkpt lat="43.65119" lon="12.68829"><ele>355.2</ele><time>2026-04-04T14:06:36.69Z</time></trkpt><trkpt lat="43.651255" lon="12.6881967"><ele>353.0</ele><time>2026-04-04T14:06:37.688Z</time></trkpt><trkpt lat="43.651305" lon="12.6880983"><ele>357.0</ele><time>2026-04-04T14:06:38.685Z</time></trkpt><trkpt lat="43.6513383" lon="12.68799"><ele>361.0</ele><time>2026-04-04T14:06:39.686Z</time></trkpt><trkpt lat="43.6513533" lon="12.6878767"><ele>365.0</ele><time>2026-04-04T14:06:40.689Z</time></trkpt><trkpt lat="43.6513533" lon="12.68777"><ele>369.0</ele><time>2026-04-04T14:06:41.688Z</time></trkpt><trkpt lat="43.6513267" lon="12.6876717"><ele>373.0</ele><time>2026-04-04T14:06:42.688Z</time></trkpt><trkpt lat="43.6512717" lon="12.687585"><ele>377.0</ele><time>2026-04-04T14:06:43.691Z</time></trkpt><trkpt lat="43.65119" lon="12.6875033"><ele>372.20000000000005</ele><time>2026-04-04T14:06:44.685Z</time></trkpt><trkpt lat="43.65109" lon="12.6874283"><ele>367.4</ele><time>2026-04-04T14:06:45.69Z</time></trkpt><trkpt lat="43.6509933" lon="12.6873583"><ele>362.6</ele><time>2026-04-04T14:06:46.687Z</time></trkpt><trkpt lat="43.6508967" lon="12.68729"><ele>357.79999999999995</ele><time>2026-04-04T14:06:47.692Z</time></trkpt><trkpt lat="43.6508033" lon="12.6872133"><ele>353.0</ele><time>2026-04-04T14:06:48.688Z</time></trkpt><trkpt lat="43.6507167" lon="12.6871283"><ele>353.0</ele><time>2026-04-04T14:06:49.688Z</time></trkpt><trkpt lat="43.6506367" lon="12.6870333"><ele>353.0</ele><time>2026-04-04T14:06:50.689Z</time></trkpt><trkpt lat="43.6505667" lon="12.6869267"><ele>353.0</ele><time>2026-04-04T14:06:51.689Z</time></trkpt><trkpt lat="43.6505117" lon="12.68681"><ele>353.0</ele><time>2026-04-04T14:06:52.687Z</time></trkpt><trkpt lat="43.65043" lon="12.6865717"><ele>354.0</ele><time>2026-04-04T14:06:54.686Z</time></trkpt><trkpt lat="43.6503967" lon="12.686435"><ele>355.0</ele><time>2026-04-04T14:06:55.689Z</time></trkpt><trkpt lat="43.65037" lon="12.686295"><ele>356.0</ele><time>2026-04-04T14:06:56.689Z</time></trkpt><trkpt lat="43.6503517" lon="12.6861533"><ele>357.0</ele><time>2026-04-04T14:06:57.686Z</time></trkpt><trkpt lat="43.6503383" lon="12.6860217"><ele>358.0</ele><time>2026-04-04T14:06:58.688Z</time></trkpt><trkpt lat="43.650325" lon="12.6859067"><ele>358.0</ele><time>2026-04-04T14:06:59.688Z</time></trkpt><trkpt lat="43.6503083" lon="12.6858167"><ele>358.0</ele><time>2026-04-04T14:07:00.686Z</time></trkpt><trkpt lat="43.6502367" lon="12.68571"><ele>358.0</ele><time>2026-04-04T14:07:02.685Z</time></trkpt><trkpt lat="43.6501333" lon="12.6857617"><ele>358.0</ele><time>2026-04-04T14:07:04.688Z</time></trkpt><trkpt lat="43.6500833" lon="12.6858567"><ele>358.0</ele><time>2026-04-04T14:07:05.688Z</time></trkpt><trkpt lat="43.65004" lon="12.6859533"><ele>353.79999999999995</ele><time>2026-04-04T14:07:06.688Z</time></trkpt><trkpt lat="43.6500067" lon="12.68609"><ele>349.6</ele><time>2026-04-04T14:07:07.689Z</time></trkpt><trkpt lat="43.649975" lon="12.68624"><ele>345.4</ele><time>2026-04-04T14:07:08.686Z</time></trkpt><trkpt lat="43.6499417" lon="12.6863767"><ele>341.20000000000005</ele><time>2026-04-04T14:07:09.686Z</time></trkpt><trkpt lat="43.649905" lon="12.686515"><ele>337.0</ele><time>2026-04-04T14:07:10.688Z</time></trkpt><trkpt lat="43.64987" lon="12.6866567"><ele>337.0</ele><time>2026-04-04T14:07:11.689Z</time></trkpt><trkpt lat="43.64983" lon="12.6867967"><ele>337.0</ele><time>2026-04-04T14:07:12.688Z</time></trkpt><trkpt lat="43.6497883" lon="12.6869317"><ele>337.0</ele><time>2026-04-04T14:07:13.689Z</time></trkpt><trkpt lat="43.64971" lon="12.6871967"><ele>337.0</ele><time>2026-04-04T14:07:15.686Z</time></trkpt><trkpt lat="43.6496833" lon="12.68733"><ele>336.20000000000005</ele><time>2026-04-04T14:07:16.69Z</time></trkpt><trkpt lat="43.6496633" lon="12.6874733"><ele>335.4</ele><time>2026-04-04T14:07:17.688Z</time></trkpt><trkpt lat="43.649645" lon="12.6876233"><ele>334.6</ele><time>2026-04-04T14:07:18.689Z</time></trkpt><trkpt lat="43.649635" lon="12.6877783"><ele>333.79999999999995</ele><time>2026-04-04T14:07:19.69Z</time></trkpt><trkpt lat="43.6496283" lon="12.6879317"><ele>333.0</ele><time>2026-04-04T14:07:20.691Z</time></trkpt><trkpt lat="43.6496217" lon="12.6880767"><ele>332.59999999999997</ele><time>2026-04-04T14:07:21.689Z</time></trkpt><trkpt lat="43.6496117" lon="12.688215"><ele>332.2</ele><time>2026-04-04T14:07:22.688Z</time></trkpt><trkpt lat="43.6496" lon="12.6883467"><ele>331.8</ele><time>2026-04-04T14:07:23.689Z</time></trkpt><trkpt lat="43.6495783" lon="12.6884717"><ele>331.4</ele><time>2026-04-04T14:07:24.686Z</time></trkpt><trkpt lat="43.6495367" lon="12.6885733"><ele>331.0</ele><time>2026-04-04T14:07:25.691Z</time></trkpt><trkpt lat="43.6494733" lon="12.6886683"><ele>330.0</ele><time>2026-04-04T14:07:26.689Z</time></trkpt><trkpt lat="43.6494017" lon="12.6887583"><ele>329.0</ele><time>2026-04-04T14:07:27.687Z</time></trkpt><trkpt lat="43.6493367" lon="12.688845"><ele>328.0</ele><time>2026-04-04T14:07:28.687Z</time></trkpt><trkpt lat="43.6492683" lon="12.68893"><ele>327.0</ele><time>2026-04-04T14:07:29.688Z</time></trkpt><trkpt lat="43.64921" lon="12.689005"><ele>326.0</ele><time>2026-04-04T14:07:30.686Z</time></trkpt><trkpt lat="43.649145" lon="12.6890733"><ele>325.0</ele><time>2026-04-04T14:07:31.688Z</time></trkpt><trkpt lat="43.649075" lon="12.68913"><ele>325.0</ele><time>2026-04-04T14:07:32.687Z</time></trkpt><trkpt lat="43.6489983" lon="12.6891717"><ele>325.0</ele><time>2026-04-04T14:07:33.688Z</time></trkpt><trkpt lat="43.6489233" lon="12.6892"><ele>325.0</ele><time>2026-04-04T14:07:34.687Z</time></trkpt><trkpt lat="43.6487533" lon="12.6891633"><ele>325.0</ele><time>2026-04-04T14:07:36.686Z</time></trkpt><trkpt lat="43.6486583" lon="12.6891033"><ele>325.0</ele><time>2026-04-04T14:07:37.689Z</time></trkpt><trkpt lat="43.6485733" lon="12.6890133"><ele>324.6</ele><time>2026-04-04T14:07:38.686Z</time></trkpt><trkpt lat="43.6484883" lon="12.688925"><ele>324.2</ele><time>2026-04-04T14:07:39.686Z</time></trkpt><trkpt lat="43.64841" lon="12.6888233"><ele>323.79999999999995</ele><time>2026-04-04T14:07:40.688Z</time></trkpt><trkpt lat="43.6483167" lon="12.68872"><ele>323.4</ele><time>2026-04-04T14:07:41.688Z</time></trkpt><trkpt lat="43.648225" lon="12.6886317"><ele>323.0</ele><time>2026-04-04T14:07:42.687Z</time></trkpt><trkpt lat="43.64813" lon="12.6885733"><ele>318.25</ele><time>2026-04-04T14:07:43.69Z</time></trkpt><trkpt lat="43.6480167" lon="12.6885233"><ele>313.5</ele><time>2026-04-04T14:07:44.687Z</time></trkpt><trkpt lat="43.6479017" lon="12.6884833"><ele>308.75</ele><time>2026-04-04T14:07:45.691Z</time></trkpt><trkpt lat="43.6477867" lon="12.6884417"><ele>304.0</ele><time>2026-04-04T14:07:46.687Z</time></trkpt><trkpt lat="43.6476683" lon="12.6884033"><ele>304.0</ele><time>2026-04-04T14:07:47.689Z</time></trkpt><trkpt lat="43.6475517" lon="12.6883683"><ele>304.0</ele><time>2026-04-04T14:07:48.687Z</time></trkpt><trkpt lat="43.6474333" lon="12.6883283"><ele>304.0</ele><time>2026-04-04T14:07:49.69Z</time></trkpt><trkpt lat="43.6473117" lon="12.6882833"><ele>304.0</ele><time>2026-04-04T14:07:50.69Z</time></trkpt><trkpt lat="43.6471917" lon="12.6882383"><ele>304.0</ele><time>2026-04-04T14:07:51.687Z</time></trkpt><trkpt lat="43.6470783" lon="12.6882033"><ele>304.0</ele><time>2026-04-04T14:07:52.688Z</time></trkpt><trkpt lat="43.646965" lon="12.6881683"><ele>304.0</ele><time>2026-04-04T14:07:53.688Z</time></trkpt><trkpt lat="43.6468533" lon="12.6881317"><ele>304.0</ele><time>2026-04-04T14:07:54.689Z</time></trkpt><trkpt lat="43.6467467" lon="12.6880983"><ele>302.25</ele><time>2026-04-04T14:07:55.689Z</time></trkpt><trkpt lat="43.64653" lon="12.6880517"><ele>300.5</ele><time>2026-04-04T14:07:57.689Z</time></trkpt><trkpt lat="43.6464167" lon="12.6880417"><ele>298.75</ele><time>2026-04-04T14:07:58.688Z</time></trkpt><trkpt lat="43.646305" lon="12.6880417"><ele>297.0</ele><time>2026-04-04T14:07:59.689Z</time></trkpt><trkpt lat="43.6461917" lon="12.6880467"><ele>295.8</ele><time>2026-04-04T14:08:00.689Z</time></trkpt><trkpt lat="43.6460817" lon="12.6880517"><ele>294.6</ele><time>2026-04-04T14:08:01.69Z</time></trkpt><trkpt lat="43.6459767" lon="12.68807"><ele>293.40000000000003</ele><time>2026-04-04T14:08:02.688Z</time></trkpt><trkpt lat="43.6458733" lon="12.688105"><ele>292.2</ele><time>2026-04-04T14:08:03.687Z</time></trkpt><trkpt lat="43.6457717" lon="12.6881567"><ele>291.0</ele><time>2026-04-04T14:08:04.688Z</time></trkpt><trkpt lat="43.64567" lon="12.6882317"><ele>291.0</ele><time>2026-04-04T14:08:05.69Z</time></trkpt><trkpt lat="43.645575" lon="12.6883117"><ele>291.0</ele><time>2026-04-04T14:08:06.69Z</time></trkpt><trkpt lat="43.6454867" lon="12.6883983"><ele>291.0</ele><time>2026-04-04T14:08:07.688Z</time></trkpt><trkpt lat="43.6453967" lon="12.6884867"><ele>291.0</ele><time>2026-04-04T14:08:08.688Z</time></trkpt><trkpt lat="43.6453117" lon="12.68859"><ele>291.0</ele><time>2026-04-04T14:08:09.686Z</time></trkpt><trkpt lat="43.6452317" lon="12.6887083"><ele>289.75</ele><time>2026-04-04T14:08:10.688Z</time></trkpt><trkpt lat="43.6451567" lon="12.6888317"><ele>288.5</ele><time>2026-04-04T14:08:11.689Z</time></trkpt><trkpt lat="43.6450783" lon="12.6889467"><ele>287.25</ele><time>2026-04-04T14:08:12.688Z</time></trkpt><trkpt lat="43.6449933" lon="12.689065"><ele>286.0</ele><time>2026-04-04T14:08:13.693Z</time></trkpt><trkpt lat="43.6449033" lon="12.6891833"><ele>286.0</ele><time>2026-04-04T14:08:14.692Z</time></trkpt><trkpt lat="43.64481" lon="12.6893"><ele>286.0</ele><time>2026-04-04T14:08:15.688Z</time></trkpt><trkpt lat="43.6447183" lon="12.6894183"><ele>286.0</ele><time>2026-04-04T14:08:16.687Z</time></trkpt><trkpt lat="43.6445183" lon="12.6896483"><ele>283.75</ele><time>2026-04-04T14:08:18.687Z</time></trkpt><trkpt lat="43.64442" lon="12.68975"><ele>281.5</ele><time>2026-04-04T14:08:19.689Z</time></trkpt><trkpt lat="43.6443267" lon="12.6898433"><ele>279.25</ele><time>2026-04-04T14:08:20.687Z</time></trkpt><trkpt lat="43.6442417" lon="12.6899333"><ele>277.0</ele><time>2026-04-04T14:08:21.688Z</time></trkpt><trkpt lat="43.6441583" lon="12.6900233"><ele>277.0</ele><time>2026-04-04T14:08:22.688Z</time></trkpt><trkpt lat="43.6440783" lon="12.6901117"><ele>277.0</ele><time>2026-04-04T14:08:23.691Z</time></trkpt><trkpt lat="43.6440067" lon="12.6902067"><ele>277.0</ele><time>2026-04-04T14:08:24.69Z</time></trkpt><trkpt lat="43.643935" lon="12.69031"><ele>277.0</ele><time>2026-04-04T14:08:25.689Z</time></trkpt><trkpt lat="43.64387" lon="12.69041"><ele>277.0</ele><time>2026-04-04T14:08:26.689Z</time></trkpt><trkpt lat="43.6438183" lon="12.6904917"><ele>278.0</ele><time>2026-04-04T14:08:27.689Z</time></trkpt><trkpt lat="43.6437717" lon="12.690555"><ele>279.0</ele><time>2026-04-04T14:08:28.689Z</time></trkpt><trkpt lat="43.6436667" lon="12.6906517"><ele>280.0</ele><time>2026-04-04T14:08:30.687Z</time></trkpt><trkpt lat="43.6436" lon="12.69069"><ele>281.0</ele><time>2026-04-04T14:08:31.69Z</time></trkpt><trkpt lat="43.64352" lon="12.6907267"><ele>282.0</ele><time>2026-04-04T14:08:32.689Z</time></trkpt><trkpt lat="43.6434383" lon="12.6907733"><ele>283.0</ele><time>2026-04-04T14:08:33.687Z</time></trkpt><trkpt lat="43.64334" lon="12.6908217"><ele>279.5</ele><time>2026-04-04T14:08:34.688Z</time></trkpt><trkpt lat="43.6432433" lon="12.6908683"><ele>276.0</ele><time>2026-04-04T14:08:35.689Z</time></trkpt><trkpt lat="43.6431483" lon="12.6909183"><ele>272.5</ele><time>2026-04-04T14:08:36.688Z</time></trkpt><trkpt lat="43.6430517" lon="12.6909633"><ele>269.0</ele><time>2026-04-04T14:08:37.688Z</time></trkpt><trkpt lat="43.642895" lon="12.6910383"><ele>267.5</ele><time>2026-04-04T14:08:39.69Z</time></trkpt><trkpt lat="43.64284" lon="12.691095"><ele>266.0</ele><time>2026-04-04T14:08:40.689Z</time></trkpt><trkpt lat="43.6427917" lon="12.691175"><ele>264.5</ele><time>2026-04-04T14:08:41.688Z</time></trkpt><trkpt lat="43.642755" lon="12.6912633"><ele>263.0</ele><time>2026-04-04T14:08:42.686Z</time></trkpt><trkpt lat="43.6427333" lon="12.6913517"><ele>261.5</ele><time>2026-04-04T14:08:43.688Z</time></trkpt><trkpt lat="43.6427533" lon="12.6915083"><ele>260.0</ele><time>2026-04-04T14:08:45.69Z</time></trkpt><trkpt lat="43.6428633" lon="12.6916183"><ele>260.0</ele><time>2026-04-04T14:08:47.691Z</time></trkpt><trkpt lat="43.64295" lon="12.6916583"><ele>260.0</ele><time>2026-04-04T14:08:48.689Z</time></trkpt><trkpt lat="43.6430417" lon="12.6916967"><ele>260.0</ele><time>2026-04-04T14:08:49.69Z</time></trkpt><trkpt lat="43.64314" lon="12.6917333"><ele>260.0</ele><time>2026-04-04T14:08:50.69Z</time></trkpt><trkpt lat="43.6432333" lon="12.6917717"><ele>260.0</ele><time>2026-04-04T14:08:51.687Z</time></trkpt><trkpt lat="43.64333" lon="12.6918083"><ele>260.0</ele><time>2026-04-04T14:08:52.688Z</time></trkpt><trkpt lat="43.6434033" lon="12.6918417"><ele>260.0</ele><time>2026-04-04T14:08:53.69Z</time></trkpt><trkpt lat="43.6434617" lon="12.6918767"><ele>260.0</ele><time>2026-04-04T14:08:54.688Z</time></trkpt><trkpt lat="43.6435233" lon="12.69196"><ele>260.0</ele><time>2026-04-04T14:08:56.688Z</time></trkpt><trkpt lat="43.6434483" lon="12.6920083"><ele>260.0</ele><time>2026-04-04T14:08:59.688Z</time></trkpt><trkpt lat="43.6432567" lon="12.69197"><ele>258.0</ele><time>2026-04-04T14:09:02.69Z</time></trkpt><trkpt lat="43.6431733" lon="12.691985"><ele>256.0</ele><time>2026-04-04T14:09:03.687Z</time></trkpt><trkpt lat="43.64303" lon="12.692005"><ele>254.0</ele><time>2026-04-04T14:09:04.691Z</time></trkpt><trkpt lat="43.6429283" lon="12.6920533"><ele>252.0</ele><time>2026-04-04T14:09:05.691Z</time></trkpt><trkpt lat="43.642825" lon="12.692105"><ele>250.0</ele><time>2026-04-04T14:09:06.689Z</time></trkpt><trkpt lat="43.6427183" lon="12.692155"><ele>247.8</ele><time>2026-04-04T14:09:07.692Z</time></trkpt><trkpt lat="43.6426083" lon="12.6921983"><ele>245.6</ele><time>2026-04-04T14:09:08.689Z</time></trkpt><trkpt lat="43.6425017" lon="12.69225"><ele>243.39999999999998</ele><time>2026-04-04T14:09:09.688Z</time></trkpt><trkpt lat="43.6423933" lon="12.6923017"><ele>241.2</ele><time>2026-04-04T14:09:10.689Z</time></trkpt><trkpt lat="43.6422917" lon="12.6923483"><ele>239.0</ele><time>2026-04-04T14:09:11.688Z</time></trkpt><trkpt lat="43.642195" lon="12.6923767"><ele>239.0</ele><time>2026-04-04T14:09:12.688Z</time></trkpt><trkpt lat="43.6420883" lon="12.6923933"><ele>238.99999999999997</ele><time>2026-04-04T14:09:13.689Z</time></trkpt><trkpt lat="43.6419817" lon="12.6924033"><ele>238.99999999999997</ele><time>2026-04-04T14:09:14.689Z</time></trkpt><trkpt lat="43.64188" lon="12.692405"><ele>239.0</ele><time>2026-04-04T14:09:15.689Z</time></trkpt><trkpt lat="43.6417717" lon="12.6924033"><ele>239.0</ele><time>2026-04-04T14:09:16.69Z</time></trkpt><trkpt lat="43.64166" lon="12.6924017"><ele>237.0</ele><time>2026-04-04T14:09:17.69Z</time></trkpt><trkpt lat="43.6415517" lon="12.6923983"><ele>235.0</ele><time>2026-04-04T14:09:18.687Z</time></trkpt><trkpt lat="43.6414383" lon="12.6923917"><ele>233.0</ele><time>2026-04-04T14:09:19.691Z</time></trkpt><trkpt lat="43.641325" lon="12.6923917"><ele>231.0</ele><time>2026-04-04T14:09:20.689Z</time></trkpt><trkpt lat="43.6411017" lon="12.692385"><ele>229.0</ele><time>2026-04-04T14:09:22.689Z</time></trkpt><trkpt lat="43.6409933" lon="12.6923867"><ele>227.00000000000003</ele><time>2026-04-04T14:09:23.688Z</time></trkpt><trkpt lat="43.6408883" lon="12.6923833"><ele>225.00000000000003</ele><time>2026-04-04T14:09:24.688Z</time></trkpt><trkpt lat="43.640795" lon="12.6923783"><ele>223.0</ele><time>2026-04-04T14:09:25.69Z</time></trkpt><trkpt lat="43.64071" lon="12.6923717"><ele>221.0</ele><time>2026-04-04T14:09:26.689Z</time></trkpt><trkpt lat="43.64063" lon="12.6923583"><ele>221.0</ele><time>2026-04-04T14:09:27.689Z</time></trkpt><trkpt lat="43.6405533" lon="12.6923233"><ele>221.00000000000003</ele><time>2026-04-04T14:09:28.688Z</time></trkpt><trkpt lat="43.6404767" lon="12.6922617"><ele>221.00000000000003</ele><time>2026-04-04T14:09:29.688Z</time></trkpt><trkpt lat="43.6404067" lon="12.692175"><ele>221.0</ele><time>2026-04-04T14:09:30.687Z</time></trkpt><trkpt lat="43.6403333" lon="12.6920767"><ele>221.0</ele><time>2026-04-04T14:09:31.689Z</time></trkpt><trkpt lat="43.6402567" lon="12.6919783"><ele>218.5</ele><time>2026-04-04T14:09:32.688Z</time></trkpt><trkpt lat="43.6401717" lon="12.691875"><ele>216.0</ele><time>2026-04-04T14:09:33.688Z</time></trkpt><trkpt lat="43.640085" lon="12.691765"><ele>213.5</ele><time>2026-04-04T14:09:34.689Z</time></trkpt><trkpt lat="43.6399967" lon="12.6916517"><ele>211.0</ele><time>2026-04-04T14:09:35.688Z</time></trkpt><trkpt lat="43.63992" lon="12.691555"><ele>211.0</ele><time>2026-04-04T14:09:36.688Z</time></trkpt><trkpt lat="43.6398633" lon="12.6914817"><ele>211.0</ele><time>2026-04-04T14:09:37.689Z</time></trkpt><trkpt lat="43.6398083" lon="12.6914067"><ele>211.0</ele><time>2026-04-04T14:09:39.689Z</time></trkpt><trkpt lat="43.639815" lon="12.691555"><ele>211.0</ele><time>2026-04-04T14:09:44.688Z</time></trkpt><trkpt lat="43.6398983" lon="12.6917517"><ele>211.0</ele><time>2026-04-04T14:09:46.688Z</time></trkpt><trkpt lat="43.6399383" lon="12.69188"><ele>211.0</ele><time>2026-04-04T14:09:47.688Z</time></trkpt><trkpt lat="43.639975" lon="12.692025"><ele>211.0</ele><time>2026-04-04T14:09:48.689Z</time></trkpt><trkpt lat="43.64001" lon="12.692175"><ele>211.0</ele><time>2026-04-04T14:09:49.689Z</time></trkpt><trkpt lat="43.6400367" lon="12.692315"><ele>211.0</ele><time>2026-04-04T14:09:50.688Z</time></trkpt><trkpt lat="43.6400533" lon="12.6924317"><ele>211.0</ele><time>2026-04-04T14:09:51.688Z</time></trkpt><trkpt lat="43.64007" lon="12.6925267"><ele>211.0</ele><time>2026-04-04T14:09:52.689Z</time></trkpt><trkpt lat="43.64009" lon="12.6926683"><ele>211.0</ele><time>2026-04-04T14:09:54.688Z</time></trkpt><trkpt lat="43.6401017" lon="12.6927967"><ele>211.0</ele><time>2026-04-04T14:09:56.688Z</time></trkpt><trkpt lat="43.6401033" lon="12.692965"><ele>211.0</ele><time>2026-04-04T14:09:58.688Z</time></trkpt><trkpt lat="43.6401" lon="12.6930567"><ele>211.0</ele><time>2026-04-04T14:09:59.689Z</time></trkpt><trkpt lat="43.6400967" lon="12.6931517"><ele>210.83333333333331</ele><time>2026-04-04T14:10:00.687Z</time></trkpt><trkpt lat="43.640085" lon="12.6932483"><ele>210.66666666666666</ele><time>2026-04-04T14:10:01.688Z</time></trkpt><trkpt lat="43.6400533" lon="12.693345"><ele>210.5</ele><time>2026-04-04T14:10:02.689Z</time></trkpt><trkpt lat="43.6400083" lon="12.6934317"><ele>210.33333333333331</ele><time>2026-04-04T14:10:03.689Z</time></trkpt><trkpt lat="43.6399567" lon="12.693515"><ele>210.16666666666666</ele><time>2026-04-04T14:10:04.688Z</time></trkpt><trkpt lat="43.6398967" lon="12.6935983"><ele>210.0</ele><time>2026-04-04T14:10:05.689Z</time></trkpt><trkpt lat="43.63979" lon="12.6937467"><ele>210.0</ele><time>2026-04-04T14:10:07.69Z</time></trkpt><trkpt lat="43.63974" lon="12.6938317"><ele>210.0</ele><time>2026-04-04T14:10:08.687Z</time></trkpt><trkpt lat="43.6396833" lon="12.6939317"><ele>210.0</ele><time>2026-04-04T14:10:09.689Z</time></trkpt><trkpt lat="43.639615" lon="12.6940417"><ele>210.0</ele><time>2026-04-04T14:10:10.689Z</time></trkpt><trkpt lat="43.63955" lon="12.6941667"><ele>210.0</ele><time>2026-04-04T14:10:11.69Z</time></trkpt><trkpt lat="43.6394767" lon="12.6943017"><ele>207.75</ele><time>2026-04-04T14:10:12.688Z</time></trkpt><trkpt lat="43.6394017" lon="12.6944383"><ele>205.5</ele><time>2026-04-04T14:10:13.688Z</time></trkpt><trkpt lat="43.6393183" lon="12.6945783"><ele>203.25</ele><time>2026-04-04T14:10:14.69Z</time></trkpt><trkpt lat="43.639225" lon="12.6947267"><ele>201.0</ele><time>2026-04-04T14:10:15.689Z</time></trkpt><trkpt lat="43.63912" lon="12.6948833"><ele>201.0</ele><time>2026-04-04T14:10:16.69Z</time></trkpt><trkpt lat="43.6390067" lon="12.6950433"><ele>201.0</ele><time>2026-04-04T14:10:17.689Z</time></trkpt><trkpt lat="43.6388917" lon="12.6952"><ele>201.0</ele><time>2026-04-04T14:10:18.689Z</time></trkpt><trkpt lat="43.6387683" lon="12.6953533"><ele>202.66666666666669</ele><time>2026-04-04T14:10:19.69Z</time></trkpt><trkpt lat="43.6386583" lon="12.6955083"><ele>204.33333333333334</ele><time>2026-04-04T14:10:20.689Z</time></trkpt><trkpt lat="43.6385633" lon="12.6956633"><ele>206.0</ele><time>2026-04-04T14:10:21.689Z</time></trkpt><trkpt lat="43.63846" lon="12.6958067"><ele>203.5</ele><time>2026-04-04T14:10:22.69Z</time></trkpt><trkpt lat="43.6383767" lon="12.6959517"><ele>201.0</ele><time>2026-04-04T14:10:23.692Z</time></trkpt><trkpt lat="43.6382983" lon="12.6960967"><ele>198.5</ele><time>2026-04-04T14:10:24.689Z</time></trkpt><trkpt lat="43.6382133" lon="12.6962317"><ele>196.0</ele><time>2026-04-04T14:10:25.688Z</time></trkpt><trkpt lat="43.638135" lon="12.6963617"><ele>196.0</ele><time>2026-04-04T14:10:26.688Z</time></trkpt><trkpt lat="43.63802" lon="12.6967167"><ele>196.0</ele><time>2026-04-04T14:10:28.688Z</time></trkpt><trkpt lat="43.6379783" lon="12.696905"><ele>196.0</ele><time>2026-04-04T14:10:29.688Z</time></trkpt><trkpt lat="43.6379383" lon="12.697095"><ele>195.75</ele><time>2026-04-04T14:10:30.688Z</time></trkpt><trkpt lat="43.6378967" lon="12.6972617"><ele>195.5</ele><time>2026-04-04T14:10:31.689Z</time></trkpt><trkpt lat="43.6378433" lon="12.69741"><ele>195.25</ele><time>2026-04-04T14:10:32.689Z</time></trkpt><trkpt lat="43.6377867" lon="12.6975467"><ele>195.0</ele><time>2026-04-04T14:10:33.686Z</time></trkpt><trkpt lat="43.6377167" lon="12.697675"><ele>193.75</ele><time>2026-04-04T14:10:34.689Z</time></trkpt><trkpt lat="43.6376417" lon="12.6977967"><ele>192.5</ele><time>2026-04-04T14:10:35.689Z</time></trkpt><trkpt lat="43.637565" lon="12.69792"><ele>191.25</ele><time>2026-04-04T14:10:36.688Z</time></trkpt><trkpt lat="43.6374933" lon="12.6980483"><ele>190.0</ele><time>2026-04-04T14:10:37.686Z</time></trkpt><trkpt lat="43.6374267" lon="12.698185"><ele>190.0</ele><time>2026-04-04T14:10:38.687Z</time></trkpt><trkpt lat="43.6373633" lon="12.6983317"><ele>190.0</ele><time>2026-04-04T14:10:39.687Z</time></trkpt><trkpt lat="43.637305" lon="12.6984783"><ele>190.0</ele><time>2026-04-04T14:10:40.689Z</time></trkpt><trkpt lat="43.63725" lon="12.6986217"><ele>190.0</ele><time>2026-04-04T14:10:41.687Z</time></trkpt><trkpt lat="43.6371967" lon="12.6987583"><ele>189.2</ele><time>2026-04-04T14:10:42.687Z</time></trkpt><trkpt lat="43.6371433" lon="12.6988933"><ele>188.4</ele><time>2026-04-04T14:10:43.687Z</time></trkpt><trkpt lat="43.6370883" lon="12.6990217"><ele>187.60000000000002</ele><time>2026-04-04T14:10:44.689Z</time></trkpt><trkpt lat="43.6370367" lon="12.6991367"><ele>186.8</ele><time>2026-04-04T14:10:45.687Z</time></trkpt><trkpt lat="43.6369983" lon="12.6992217"><ele>186.0</ele><time>2026-04-04T14:10:46.688Z</time></trkpt><trkpt lat="43.6369517" lon="12.6993067"><ele>184.5</ele><time>2026-04-04T14:10:48.689Z</time></trkpt><trkpt lat="43.6370083" lon="12.69952"><ele>183.0</ele><time>2026-04-04T14:10:52.69Z</time></trkpt><trkpt lat="43.637065" lon="12.69962"><ele>181.5</ele><time>2026-04-04T14:10:53.689Z</time></trkpt><trkpt lat="43.6371283" lon="12.699735"><ele>180.0</ele><time>2026-04-04T14:10:54.69Z</time></trkpt><trkpt lat="43.6371867" lon="12.6998533"><ele>180.0</ele><time>2026-04-04T14:10:55.689Z</time></trkpt><trkpt lat="43.6372467" lon="12.6999733"><ele>180.0</ele><time>2026-04-04T14:10:56.687Z</time></trkpt><trkpt lat="43.6373083" lon="12.7000917"><ele>180.0</ele><time>2026-04-04T14:10:57.687Z</time></trkpt><trkpt lat="43.6373717" lon="12.7002133"><ele>180.0</ele><time>2026-04-04T14:10:58.688Z</time></trkpt><trkpt lat="43.6374367" lon="12.7003367"><ele>180.0</ele><time>2026-04-04T14:10:59.69Z</time></trkpt><trkpt lat="43.6375033" lon="12.7004633"><ele>179.75</ele><time>2026-04-04T14:11:00.689Z</time></trkpt><trkpt lat="43.6375767" lon="12.7005967"><ele>179.5</ele><time>2026-04-04T14:11:01.691Z</time></trkpt><trkpt lat="43.6376517" lon="12.7007367"><ele>179.25</ele><time>2026-04-04T14:11:02.689Z</time></trkpt><trkpt lat="43.63773" lon="12.70088"><ele>179.0</ele><time>2026-04-04T14:11:03.687Z</time></trkpt><trkpt lat="43.6378133" lon="12.7010267"><ele>177.75</ele><time>2026-04-04T14:11:04.689Z</time></trkpt><trkpt lat="43.6378967" lon="12.7011767"><ele>176.5</ele><time>2026-04-04T14:11:05.689Z</time></trkpt><trkpt lat="43.6379783" lon="12.7013283"><ele>175.25</ele><time>2026-04-04T14:11:06.69Z</time></trkpt><trkpt lat="43.63806" lon="12.7014783"><ele>174.0</ele><time>2026-04-04T14:11:07.69Z</time></trkpt><trkpt lat="43.6381417" lon="12.7016267"><ele>174.0</ele><time>2026-04-04T14:11:08.689Z</time></trkpt><trkpt lat="43.63822" lon="12.7017767"><ele>174.0</ele><time>2026-04-04T14:11:09.69Z</time></trkpt><trkpt lat="43.6383767" lon="12.70209"><ele>174.0</ele><time>2026-04-04T14:11:11.69Z</time></trkpt><trkpt lat="43.6384533" lon="12.70225"><ele>175.0</ele><time>2026-04-04T14:11:12.689Z</time></trkpt><trkpt lat="43.6385267" lon="12.7024133"><ele>176.0</ele><time>2026-04-04T14:11:13.691Z</time></trkpt><trkpt lat="43.638595" lon="12.7025783"><ele>177.0</ele><time>2026-04-04T14:11:14.688Z</time></trkpt><trkpt lat="43.6386567" lon="12.7027433"><ele>178.0</ele><time>2026-04-04T14:11:15.688Z</time></trkpt><trkpt lat="43.6387033" lon="12.70292"><ele>180.25</ele><time>2026-04-04T14:11:16.689Z</time></trkpt><trkpt lat="43.6387217" lon="12.7031017"><ele>182.5</ele><time>2026-04-04T14:11:17.689Z</time></trkpt><trkpt lat="43.6387017" lon="12.7032817"><ele>184.75</ele><time>2026-04-04T14:11:18.687Z</time></trkpt><trkpt lat="43.63866" lon="12.703455"><ele>187.0</ele><time>2026-04-04T14:11:19.689Z</time></trkpt><trkpt lat="43.638605" lon="12.703615"><ele>187.0</ele><time>2026-04-04T14:11:20.689Z</time></trkpt><trkpt lat="43.638545" lon="12.70377"><ele>187.0</ele><time>2026-04-04T14:11:21.687Z</time></trkpt><trkpt lat="43.6384917" lon="12.7039267"><ele>187.0</ele><time>2026-04-04T14:11:22.689Z</time></trkpt><trkpt lat="43.6384367" lon="12.7040917"><ele>187.0</ele><time>2026-04-04T14:11:23.688Z</time></trkpt><trkpt lat="43.63838" lon="12.7042633"><ele>188.75</ele><time>2026-04-04T14:11:24.688Z</time></trkpt><trkpt lat="43.6383283" lon="12.7044367"><ele>190.5</ele><time>2026-04-04T14:11:25.691Z</time></trkpt><trkpt lat="43.6382783" lon="12.70461"><ele>192.25</ele><time>2026-04-04T14:11:26.69Z</time></trkpt><trkpt lat="43.6382267" lon="12.7047883"><ele>194.0</ele><time>2026-04-04T14:11:27.692Z</time></trkpt><trkpt lat="43.6381683" lon="12.70496"><ele>194.0</ele><time>2026-04-04T14:11:28.69Z</time></trkpt><trkpt lat="43.6381067" lon="12.7051267"><ele>194.0</ele><time>2026-04-04T14:11:29.689Z</time></trkpt><trkpt lat="43.6380433" lon="12.7052933"><ele>194.0</ele><time>2026-04-04T14:11:30.691Z</time></trkpt><trkpt lat="43.6379133" lon="12.705635"><ele>192.25</ele><time>2026-04-04T14:11:32.689Z</time></trkpt><trkpt lat="43.6378433" lon="12.7058033"><ele>190.5</ele><time>2026-04-04T14:11:33.69Z</time></trkpt><trkpt lat="43.63777" lon="12.7059733"><ele>188.75</ele><time>2026-04-04T14:11:34.691Z</time></trkpt><trkpt lat="43.637695" lon="12.706145"><ele>187.0</ele><time>2026-04-04T14:11:35.69Z</time></trkpt><trkpt lat="43.6376217" lon="12.70631"><ele>187.0</ele><time>2026-04-04T14:11:36.691Z</time></trkpt><trkpt lat="43.63755" lon="12.7064683"><ele>187.0</ele><time>2026-04-04T14:11:37.691Z</time></trkpt><trkpt lat="43.6374767" lon="12.706625"><ele>187.0</ele><time>2026-04-04T14:11:38.691Z</time></trkpt><trkpt lat="43.637405" lon="12.7067833"><ele>187.0</ele><time>2026-04-04T14:11:39.69Z</time></trkpt><trkpt lat="43.6373283" lon="12.7069417"><ele>190.25</ele><time>2026-04-04T14:11:40.691Z</time></trkpt><trkpt lat="43.6372483" lon="12.7071"><ele>193.5</ele><time>2026-04-04T14:11:41.691Z</time></trkpt><trkpt lat="43.637175" lon="12.7072533"><ele>196.75</ele><time>2026-04-04T14:11:42.69Z</time></trkpt><trkpt lat="43.6371067" lon="12.7073933"><ele>200.0</ele><time>2026-04-04T14:11:43.693Z</time></trkpt><trkpt lat="43.6370383" lon="12.7075267"><ele>200.0</ele><time>2026-04-04T14:11:44.691Z</time></trkpt><trkpt lat="43.636975" lon="12.7076567"><ele>200.0</ele><time>2026-04-04T14:11:45.691Z</time></trkpt><trkpt lat="43.6369167" lon="12.7077767"><ele>200.0</ele><time>2026-04-04T14:11:46.691Z</time></trkpt><trkpt lat="43.6368683" lon="12.70789"><ele>200.0</ele><time>2026-04-04T14:11:47.69Z</time></trkpt><trkpt lat="43.6368267" lon="12.7079967"><ele>200.0</ele><time>2026-04-04T14:11:48.69Z</time></trkpt><trkpt lat="43.6367833" lon="12.70811"><ele>201.25</ele><time>2026-04-04T14:11:49.69Z</time></trkpt><trkpt lat="43.6367367" lon="12.7082317"><ele>202.5</ele><time>2026-04-04T14:11:50.69Z</time></trkpt><trkpt lat="43.636685" lon="12.7083567"><ele>203.75</ele><time>2026-04-04T14:11:51.688Z</time></trkpt><trkpt lat="43.6365717" lon="12.7086183"><ele>205.0</ele><time>2026-04-04T14:11:53.69Z</time></trkpt><trkpt lat="43.6365133" lon="12.7087567"><ele>205.0</ele><time>2026-04-04T14:11:54.69Z</time></trkpt><trkpt lat="43.6364567" lon="12.7089067"><ele>205.0</ele><time>2026-04-04T14:11:55.69Z</time></trkpt><trkpt lat="43.6364017" lon="12.7090633"><ele>205.0</ele><time>2026-04-04T14:11:56.691Z</time></trkpt><trkpt lat="43.63635" lon="12.709225"><ele>205.0</ele><time>2026-04-04T14:11:57.69Z</time></trkpt><trkpt lat="43.6363033" lon="12.70938"><ele>207.0</ele><time>2026-04-04T14:11:58.689Z</time></trkpt><trkpt lat="43.6362633" lon="12.709525"><ele>209.0</ele><time>2026-04-04T14:11:59.69Z</time></trkpt><trkpt lat="43.6362317" lon="12.709665"><ele>211.0</ele><time>2026-04-04T14:12:00.689Z</time></trkpt><trkpt lat="43.6362083" lon="12.7097917"><ele>213.0</ele><time>2026-04-04T14:12:01.688Z</time></trkpt><trkpt lat="43.6361933" lon="12.7099033"><ele>215.0</ele><time>2026-04-04T14:12:02.689Z</time></trkpt><trkpt lat="43.6361867" lon="12.710005"><ele>215.00000000000003</ele><time>2026-04-04T14:12:03.691Z</time></trkpt><trkpt lat="43.63619" lon="12.710105"><ele>215.0</ele><time>2026-04-04T14:12:04.689Z</time></trkpt><trkpt lat="43.6362" lon="12.7102067"><ele>215.0</ele><time>2026-04-04T14:12:05.691Z</time></trkpt><trkpt lat="43.636215" lon="12.7103183"><ele>215.0</ele><time>2026-04-04T14:12:06.689Z</time></trkpt><trkpt lat="43.6362317" lon="12.7104333"><ele>215.00000000000003</ele><time>2026-04-04T14:12:07.69Z</time></trkpt><trkpt lat="43.6362517" lon="12.7105583"><ele>215.0</ele><time>2026-04-04T14:12:08.689Z</time></trkpt><trkpt lat="43.63627" lon="12.7106867"><ele>215.25</ele><time>2026-04-04T14:12:09.689Z</time></trkpt><trkpt lat="43.6362883" lon="12.7108167"><ele>215.5</ele><time>2026-04-04T14:12:10.688Z</time></trkpt><trkpt lat="43.6363083" lon="12.7109483"><ele>215.75</ele><time>2026-04-04T14:12:11.689Z</time></trkpt><trkpt lat="43.63633" lon="12.71109"><ele>216.0</ele><time>2026-04-04T14:12:12.69Z</time></trkpt><trkpt lat="43.636375" lon="12.7113667"><ele>214.0</ele><time>2026-04-04T14:12:14.691Z</time></trkpt><trkpt lat="43.636395" lon="12.711495"><ele>212.00000000000003</ele><time>2026-04-04T14:12:15.687Z</time></trkpt><trkpt lat="43.636415" lon="12.7116167"><ele>210.0</ele><time>2026-04-04T14:12:16.688Z</time></trkpt><trkpt lat="43.6364367" lon="12.71174"><ele>208.0</ele><time>2026-04-04T14:12:17.688Z</time></trkpt><trkpt lat="43.636465" lon="12.7118633"><ele>206.0</ele><time>2026-04-04T14:12:18.688Z</time></trkpt><trkpt lat="43.6365017" lon="12.7119933"><ele>202.20000000000002</ele><time>2026-04-04T14:12:19.688Z</time></trkpt><trkpt lat="43.6365483" lon="12.7121183"><ele>198.4</ele><time>2026-04-04T14:12:20.689Z</time></trkpt><trkpt lat="43.636605" lon="12.7122417"><ele>194.6</ele><time>2026-04-04T14:12:21.688Z</time></trkpt><trkpt lat="43.6366717" lon="12.7123633"><ele>190.8</ele><time>2026-04-04T14:12:22.691Z</time></trkpt><trkpt lat="43.6367467" lon="12.7124767"><ele>187.0</ele><time>2026-04-04T14:12:23.686Z</time></trkpt><trkpt lat="43.6368267" lon="12.7125733"><ele>187.0</ele><time>2026-04-04T14:12:24.689Z</time></trkpt><trkpt lat="43.6369117" lon="12.7126583"><ele>187.0</ele><time>2026-04-04T14:12:25.686Z</time></trkpt><trkpt lat="43.6369983" lon="12.7127333"><ele>187.0</ele><time>2026-04-04T14:12:26.69Z</time></trkpt><trkpt lat="43.63709" lon="12.7127967"><ele>187.0</ele><time>2026-04-04T14:12:27.691Z</time></trkpt><trkpt lat="43.637185" lon="12.7128483"><ele>187.0</ele><time>2026-04-04T14:12:28.69Z</time></trkpt><trkpt lat="43.6372783" lon="12.7128967"><ele>186.8</ele><time>2026-04-04T14:12:29.689Z</time></trkpt><trkpt lat="43.637375" lon="12.7129433"><ele>186.6</ele><time>2026-04-04T14:12:30.691Z</time></trkpt><trkpt lat="43.63747" lon="12.7129917"><ele>186.4</ele><time>2026-04-04T14:12:31.691Z</time></trkpt><trkpt lat="43.6375617" lon="12.7130383"><ele>186.20000000000002</ele><time>2026-04-04T14:12:32.686Z</time></trkpt><trkpt lat="43.6376517" lon="12.7130833"><ele>186.0</ele><time>2026-04-04T14:12:33.688Z</time></trkpt><trkpt lat="43.6378317" lon="12.71317"><ele>187.4</ele><time>2026-04-04T14:12:35.689Z</time></trkpt><trkpt lat="43.6379233" lon="12.7132117"><ele>188.8</ele><time>2026-04-04T14:12:36.69Z</time></trkpt><trkpt lat="43.638015" lon="12.7132567"><ele>190.20000000000002</ele><time>2026-04-04T14:12:37.69Z</time></trkpt><trkpt lat="43.6381083" lon="12.7133067"><ele>191.60000000000002</ele><time>2026-04-04T14:12:38.686Z</time></trkpt><trkpt lat="43.6382" lon="12.7133483"><ele>193.0</ele><time>2026-04-04T14:12:39.688Z</time></trkpt><trkpt lat="43.6382933" lon="12.7133867"><ele>192.99999999999997</ele><time>2026-04-04T14:12:40.688Z</time></trkpt><trkpt lat="43.6383817" lon="12.7134333"><ele>193.0</ele><time>2026-04-04T14:12:41.689Z</time></trkpt><trkpt lat="43.63846" lon="12.7134867"><ele>193.0</ele><time>2026-04-04T14:12:42.687Z</time></trkpt><trkpt lat="43.6385317" lon="12.7135433"><ele>193.0</ele><time>2026-04-04T14:12:43.688Z</time></trkpt><trkpt lat="43.6385983" lon="12.7136033"><ele>192.99999999999997</ele><time>2026-04-04T14:12:44.686Z</time></trkpt><trkpt lat="43.6386633" lon="12.713665"><ele>193.0</ele><time>2026-04-04T14:12:45.687Z</time></trkpt><trkpt lat="43.6387283" lon="12.7137283"><ele>192.99999999999997</ele><time>2026-04-04T14:12:46.686Z</time></trkpt><trkpt lat="43.6387917" lon="12.71379"><ele>193.0</ele><time>2026-04-04T14:12:47.688Z</time></trkpt><trkpt lat="43.63886" lon="12.7138483"><ele>193.0</ele><time>2026-04-04T14:12:48.691Z</time></trkpt><trkpt lat="43.63893" lon="12.7139033"><ele>193.0</ele><time>2026-04-04T14:12:49.691Z</time></trkpt><trkpt lat="43.6390017" lon="12.7139617"><ele>192.99999999999997</ele><time>2026-04-04T14:12:50.69Z</time></trkpt><trkpt lat="43.6390717" lon="12.7140283"><ele>193.0</ele><time>2026-04-04T14:12:51.687Z</time></trkpt><trkpt lat="43.6391383" lon="12.7141"><ele>193.0</ele><time>2026-04-04T14:12:52.69Z</time></trkpt><trkpt lat="43.63921" lon="12.7141717"><ele>193.0</ele><time>2026-04-04T14:12:53.686Z</time></trkpt><trkpt lat="43.6392817" lon="12.7142417"><ele>193.0</ele><time>2026-04-04T14:12:54.69Z</time></trkpt><trkpt lat="43.6394183" lon="12.71438"><ele>193.0</ele><time>2026-04-04T14:12:56.688Z</time></trkpt><trkpt lat="43.6394833" lon="12.7144483"><ele>193.0</ele><time>2026-04-04T14:12:57.688Z</time></trkpt><trkpt lat="43.639545" lon="12.7145167"><ele>192.4</ele><time>2026-04-04T14:12:58.69Z</time></trkpt><trkpt lat="43.6396017" lon="12.7145733"><ele>191.8</ele><time>2026-04-04T14:12:59.688Z</time></trkpt><trkpt lat="43.6396533" lon="12.714625"><ele>191.2</ele><time>2026-04-04T14:13:00.689Z</time></trkpt><trkpt lat="43.639705" lon="12.714715"><ele>190.6</ele><time>2026-04-04T14:13:02.69Z</time></trkpt><trkpt lat="43.6397567" lon="12.7148033"><ele>190.0</ele><time>2026-04-04T14:13:16.688Z</time></trkpt><trkpt lat="43.6395833" lon="12.7144833"><ele>190.75</ele><time>2026-04-04T14:13:59.69Z</time></trkpt><trkpt lat="43.639485" lon="12.7143867"><ele>191.5</ele><time>2026-04-04T14:14:00.692Z</time></trkpt><trkpt lat="43.6393883" lon="12.71429"><ele>192.25</ele><time>2026-04-04T14:14:01.689Z</time></trkpt><trkpt lat="43.6392983" lon="12.7141983"><ele>193.0</ele><time>2026-04-04T14:14:02.688Z</time></trkpt><trkpt lat="43.6392133" lon="12.714115"><ele>193.0</ele><time>2026-04-04T14:14:03.687Z</time></trkpt><trkpt lat="43.639135" lon="12.7140367"><ele>193.0</ele><time>2026-04-04T14:14:04.688Z</time></trkpt><trkpt lat="43.63898" lon="12.7139"><ele>193.0</ele><time>2026-04-04T14:14:06.69Z</time></trkpt><trkpt lat="43.6389" lon="12.7138333"><ele>193.0</ele><time>2026-04-04T14:14:07.69Z</time></trkpt><trkpt lat="43.6388333" lon="12.7137683"><ele>193.0</ele><time>2026-04-04T14:14:08.69Z</time></trkpt><trkpt lat="43.6387683" lon="12.7137033"><ele>193.0</ele><time>2026-04-04T14:14:09.688Z</time></trkpt><trkpt lat="43.6386917" lon="12.71363"><ele>193.0</ele><time>2026-04-04T14:14:10.69Z</time></trkpt><trkpt lat="43.6386083" lon="12.713565"><ele>193.0</ele><time>2026-04-04T14:14:11.69Z</time></trkpt><trkpt lat="43.6385267" lon="12.7134933"><ele>193.0</ele><time>2026-04-04T14:14:12.693Z</time></trkpt><trkpt lat="43.63844" lon="12.71343"><ele>193.0</ele><time>2026-04-04T14:14:13.688Z</time></trkpt><trkpt lat="43.6383433" lon="12.7133733"><ele>193.0</ele><time>2026-04-04T14:14:14.69Z</time></trkpt><trkpt lat="43.638245" lon="12.7133267"><ele>193.0</ele><time>2026-04-04T14:14:15.69Z</time></trkpt><trkpt lat="43.6381467" lon="12.7132783"><ele>193.0</ele><time>2026-04-04T14:14:16.689Z</time></trkpt><trkpt lat="43.6380483" lon="12.7132283"><ele>193.0</ele><time>2026-04-04T14:14:17.69Z</time></trkpt><trkpt lat="43.6379583" lon="12.7131867"><ele>191.25</ele><time>2026-04-04T14:14:18.69Z</time></trkpt><trkpt lat="43.63778" lon="12.71311"><ele>189.5</ele><time>2026-04-04T14:14:20.69Z</time></trkpt><trkpt lat="43.6376917" lon="12.71307"><ele>187.75</ele><time>2026-04-04T14:14:21.69Z</time></trkpt><trkpt lat="43.63761" lon="12.7130383"><ele>186.0</ele><time>2026-04-04T14:14:22.69Z</time></trkpt><trkpt lat="43.637525" lon="12.7130017"><ele>186.0</ele><time>2026-04-04T14:14:23.69Z</time></trkpt><trkpt lat="43.63744" lon="12.712955"><ele>186.0</ele><time>2026-04-04T14:14:24.69Z</time></trkpt><trkpt lat="43.6373583" lon="12.7129117"><ele>186.0</ele><time>2026-04-04T14:14:25.689Z</time></trkpt><trkpt lat="43.637275" lon="12.7128633"><ele>186.0</ele><time>2026-04-04T14:14:26.689Z</time></trkpt><trkpt lat="43.6371883" lon="12.7128133"><ele>186.0</ele><time>2026-04-04T14:14:27.689Z</time></trkpt><trkpt lat="43.6371017" lon="12.7127617"><ele>186.16666666666666</ele><time>2026-04-04T14:14:28.687Z</time></trkpt><trkpt lat="43.6370267" lon="12.7127083"><ele>186.33333333333334</ele><time>2026-04-04T14:14:29.691Z</time></trkpt><trkpt lat="43.6369583" lon="12.7126517"><ele>186.5</ele><time>2026-04-04T14:14:30.69Z</time></trkpt><trkpt lat="43.6368933" lon="12.712595"><ele>186.66666666666669</ele><time>2026-04-04T14:14:31.687Z</time></trkpt><trkpt lat="43.6368283" lon="12.7125383"><ele>186.83333333333334</ele><time>2026-04-04T14:14:32.688Z</time></trkpt><trkpt lat="43.636775" lon="12.712485"><ele>187.0</ele><time>2026-04-04T14:14:33.69Z</time></trkpt><trkpt lat="43.6367217" lon="12.7124233"><ele>187.0</ele><time>2026-04-04T14:14:34.686Z</time></trkpt><trkpt lat="43.636675" lon="12.7123417"><ele>187.0</ele><time>2026-04-04T14:14:35.69Z</time></trkpt><trkpt lat="43.6366183" lon="12.7122467"><ele>187.0</ele><time>2026-04-04T14:14:36.688Z</time></trkpt><trkpt lat="43.6365733" lon="12.7121483"><ele>187.0</ele><time>2026-04-04T14:14:37.688Z</time></trkpt><trkpt lat="43.6365383" lon="12.7120633"><ele>187.0</ele><time>2026-04-04T14:14:38.689Z</time></trkpt><trkpt lat="43.63651" lon="12.7119733"><ele>187.0</ele><time>2026-04-04T14:14:39.687Z</time></trkpt><trkpt lat="43.63643" lon="12.71181"><ele>185.83333333333334</ele><time>2026-04-04T14:14:42.686Z</time></trkpt><trkpt lat="43.6363783" lon="12.71186"><ele>184.66666666666669</ele><time>2026-04-04T14:14:47.688Z</time></trkpt><trkpt lat="43.6363883" lon="12.7117467"><ele>183.5</ele><time>2026-04-04T14:14:54.69Z</time></trkpt><trkpt lat="43.6363217" lon="12.7115617"><ele>182.33333333333334</ele><time>2026-04-04T14:14:56.688Z</time></trkpt><trkpt lat="43.6362733" lon="12.7114817"><ele>181.16666666666666</ele><time>2026-04-04T14:14:57.687Z</time></trkpt><trkpt lat="43.6362067" lon="12.7114283"><ele>180.0</ele><time>2026-04-04T14:14:58.686Z</time></trkpt><trkpt lat="43.6361267" lon="12.71139"><ele>180.0</ele><time>2026-04-04T14:14:59.69Z</time></trkpt><trkpt lat="43.636035" lon="12.7113717"><ele>180.0</ele><time>2026-04-04T14:15:00.687Z</time></trkpt><trkpt lat="43.6358467" lon="12.7114"><ele>180.0</ele><time>2026-04-04T14:15:02.69Z</time></trkpt><trkpt lat="43.635755" lon="12.7114183"><ele>180.0</ele><time>2026-04-04T14:15:03.688Z</time></trkpt><trkpt lat="43.635665" lon="12.711435"><ele>180.0</ele><time>2026-04-04T14:15:04.686Z</time></trkpt><trkpt lat="43.6355833" lon="12.711455"><ele>180.0</ele><time>2026-04-04T14:15:05.689Z</time></trkpt><trkpt lat="43.635505" lon="12.711475"><ele>180.0</ele><time>2026-04-04T14:15:06.69Z</time></trkpt><trkpt lat="43.6354233" lon="12.7114933"><ele>180.0</ele><time>2026-04-04T14:15:07.691Z</time></trkpt><trkpt lat="43.6353383" lon="12.7115083"><ele>180.0</ele><time>2026-04-04T14:15:08.687Z</time></trkpt><trkpt lat="43.635255" lon="12.7115283"><ele>180.0</ele><time>2026-04-04T14:15:09.686Z</time></trkpt><trkpt lat="43.6351683" lon="12.7115467"><ele>180.2</ele><time>2026-04-04T14:15:10.688Z</time></trkpt><trkpt lat="43.63509" lon="12.7115867"><ele>180.4</ele><time>2026-04-04T14:15:11.688Z</time></trkpt><trkpt lat="43.6350183" lon="12.711645"><ele>180.60000000000002</ele><time>2026-04-04T14:15:12.688Z</time></trkpt><trkpt lat="43.6349567" lon="12.7117283"><ele>180.8</ele><time>2026-04-04T14:15:13.69Z</time></trkpt><trkpt lat="43.6349017" lon="12.7118367"><ele>181.0</ele><time>2026-04-04T14:15:14.689Z</time></trkpt><trkpt lat="43.6348583" lon="12.7119717"><ele>181.25</ele><time>2026-04-04T14:15:15.688Z</time></trkpt><trkpt lat="43.6348017" lon="12.7121"><ele>181.5</ele><time>2026-04-04T14:15:16.689Z</time></trkpt><trkpt lat="43.6347283" lon="12.712225"><ele>181.75</ele><time>2026-04-04T14:15:17.689Z</time></trkpt><trkpt lat="43.634635" lon="12.712335"><ele>182.0</ele><time>2026-04-04T14:15:18.69Z</time></trkpt><trkpt lat="43.634535" lon="12.712435"><ele>184.0</ele><time>2026-04-04T14:15:19.69Z</time></trkpt><trkpt lat="43.6344383" lon="12.7125417"><ele>186.0</ele><time>2026-04-04T14:15:20.687Z</time></trkpt><trkpt lat="43.6343483" lon="12.7126517"><ele>188.0</ele><time>2026-04-04T14:15:21.685Z</time></trkpt><trkpt lat="43.6342067" lon="12.7128933"><ele>188.0</ele><time>2026-04-04T14:15:23.687Z</time></trkpt><trkpt lat="43.6341483" lon="12.7129983"><ele>188.0</ele><time>2026-04-04T14:15:24.691Z</time></trkpt><trkpt lat="43.6341017" lon="12.71309"><ele>188.0</ele><time>2026-04-04T14:15:25.687Z</time></trkpt><trkpt lat="43.6340533" lon="12.7131617"><ele>188.0</ele><time>2026-04-04T14:15:26.69Z</time></trkpt><trkpt lat="43.6339617" lon="12.7132483"><ele>188.0</ele><time>2026-04-04T14:15:28.688Z</time></trkpt><trkpt lat="43.633835" lon="12.7133083"><ele>188.0</ele><time>2026-04-04T14:15:30.688Z</time></trkpt><trkpt lat="43.633755" lon="12.7133317"><ele>188.0</ele><time>2026-04-04T14:15:31.688Z</time></trkpt><trkpt lat="43.6336683" lon="12.7133633"><ele>188.0</ele><time>2026-04-04T14:15:32.688Z</time></trkpt><trkpt lat="43.63358" lon="12.7134067"><ele>188.0</ele><time>2026-04-04T14:15:33.687Z</time></trkpt><trkpt lat="43.633485" lon="12.71346"><ele>188.0</ele><time>2026-04-04T14:15:34.688Z</time></trkpt><trkpt lat="43.633385" lon="12.7135267"><ele>188.0</ele><time>2026-04-04T14:15:35.687Z</time></trkpt><trkpt lat="43.633265" lon="12.7136"><ele>188.0</ele><time>2026-04-04T14:15:36.69Z</time></trkpt><trkpt lat="43.63314" lon="12.7136667"><ele>188.0</ele><time>2026-04-04T14:15:37.69Z</time></trkpt><trkpt lat="43.6330133" lon="12.7137167"><ele>188.0</ele><time>2026-04-04T14:15:38.69Z</time></trkpt><trkpt lat="43.632885" lon="12.71377"><ele>190.25</ele><time>2026-04-04T14:15:39.69Z</time></trkpt><trkpt lat="43.6327533" lon="12.7138433"><ele>192.5</ele><time>2026-04-04T14:15:40.69Z</time></trkpt><trkpt lat="43.63262" lon="12.7139383"><ele>194.75</ele><time>2026-04-04T14:15:41.691Z</time></trkpt><trkpt lat="43.6324917" lon="12.71405"><ele>197.0</ele><time>2026-04-04T14:15:42.69Z</time></trkpt><trkpt lat="43.6322467" lon="12.7142917"><ele>196.5</ele><time>2026-04-04T14:15:44.69Z</time></trkpt><trkpt lat="43.6321333" lon="12.7144083"><ele>196.0</ele><time>2026-04-04T14:15:45.688Z</time></trkpt><trkpt lat="43.63203" lon="12.71453"><ele>195.5</ele><time>2026-04-04T14:15:46.691Z</time></trkpt><trkpt lat="43.6319417" lon="12.714675"><ele>195.0</ele><time>2026-04-04T14:15:47.689Z</time></trkpt><trkpt lat="43.6318633" lon="12.71484"><ele>195.0</ele><time>2026-04-04T14:15:48.691Z</time></trkpt><trkpt lat="43.6317933" lon="12.715025"><ele>195.0</ele><time>2026-04-04T14:15:49.689Z</time></trkpt><trkpt lat="43.6317233" lon="12.7152217"><ele>195.0</ele><time>2026-04-04T14:15:50.69Z</time></trkpt><trkpt lat="43.6316483" lon="12.7154183"><ele>194.66666666666669</ele><time>2026-04-04T14:15:51.691Z</time></trkpt><trkpt lat="43.6315633" lon="12.715615"><ele>194.33333333333334</ele><time>2026-04-04T14:15:52.69Z</time></trkpt><trkpt lat="43.6314783" lon="12.71581"><ele>194.0</ele><time>2026-04-04T14:15:53.689Z</time></trkpt><trkpt lat="43.63139" lon="12.716005"><ele>196.0</ele><time>2026-04-04T14:15:54.689Z</time></trkpt><trkpt lat="43.631295" lon="12.7162033"><ele>198.0</ele><time>2026-04-04T14:15:55.691Z</time></trkpt><trkpt lat="43.6311917" lon="12.7163933"><ele>200.0</ele><time>2026-04-04T14:15:56.69Z</time></trkpt><trkpt lat="43.631075" lon="12.7165733"><ele>200.66666666666669</ele><time>2026-04-04T14:15:57.688Z</time></trkpt><trkpt lat="43.6309467" lon="12.71674"><ele>201.33333333333331</ele><time>2026-04-04T14:15:58.689Z</time></trkpt><trkpt lat="43.6308167" lon="12.7169117"><ele>202.0</ele><time>2026-04-04T14:15:59.69Z</time></trkpt><trkpt lat="43.6307033" lon="12.7170967"><ele>202.0</ele><time>2026-04-04T14:16:00.69Z</time></trkpt><trkpt lat="43.6305783" lon="12.7172617"><ele>202.0</ele><time>2026-04-04T14:16:01.69Z</time></trkpt><trkpt lat="43.6304533" lon="12.71741"><ele>202.0</ele><time>2026-04-04T14:16:02.69Z</time></trkpt><trkpt lat="43.6303367" lon="12.7175533"><ele>203.0</ele><time>2026-04-04T14:16:03.688Z</time></trkpt><trkpt lat="43.63014" lon="12.71786"><ele>204.0</ele><time>2026-04-04T14:16:05.691Z</time></trkpt><trkpt lat="43.6300533" lon="12.7180367"><ele>204.0</ele><time>2026-04-04T14:16:06.689Z</time></trkpt><trkpt lat="43.6299733" lon="12.7182267"><ele>204.0</ele><time>2026-04-04T14:16:07.691Z</time></trkpt><trkpt lat="43.6298733" lon="12.71841"><ele>204.0</ele><time>2026-04-04T14:16:08.69Z</time></trkpt><trkpt lat="43.6297633" lon="12.718575"><ele>205.0</ele><time>2026-04-04T14:16:09.69Z</time></trkpt><trkpt lat="43.62966" lon="12.718745"><ele>206.0</ele><time>2026-04-04T14:16:10.689Z</time></trkpt><trkpt lat="43.62956" lon="12.7189217"><ele>207.0</ele><time>2026-04-04T14:16:11.689Z</time></trkpt><trkpt lat="43.62947" lon="12.7191117"><ele>211.0</ele><time>2026-04-04T14:16:12.69Z</time></trkpt><trkpt lat="43.6293733" lon="12.7193"><ele>215.0</ele><time>2026-04-04T14:16:13.692Z</time></trkpt><trkpt lat="43.6292817" lon="12.7194967"><ele>219.0</ele><time>2026-04-04T14:16:14.69Z</time></trkpt><trkpt lat="43.6291933" lon="12.7197067"><ele>219.0</ele><time>2026-04-04T14:16:15.688Z</time></trkpt><trkpt lat="43.6290983" lon="12.719915"><ele>219.0</ele><time>2026-04-04T14:16:16.689Z</time></trkpt><trkpt lat="43.62901" lon="12.7201183"><ele>219.0</ele><time>2026-04-04T14:16:17.69Z</time></trkpt><trkpt lat="43.6289217" lon="12.7203083"><ele>216.75</ele><time>2026-04-04T14:16:18.69Z</time></trkpt><trkpt lat="43.628835" lon="12.7204817"><ele>214.5</ele><time>2026-04-04T14:16:19.689Z</time></trkpt><trkpt lat="43.6287367" lon="12.7206367"><ele>212.25</ele><time>2026-04-04T14:16:20.69Z</time></trkpt><trkpt lat="43.6286333" lon="12.7207767"><ele>210.0</ele><time>2026-04-04T14:16:21.688Z</time></trkpt><trkpt lat="43.6285533" lon="12.7209167"><ele>217.0</ele><time>2026-04-04T14:16:22.689Z</time></trkpt><trkpt lat="43.6285017" lon="12.7210733"><ele>224.0</ele><time>2026-04-04T14:16:23.69Z</time></trkpt><trkpt lat="43.6284733" lon="12.721255"><ele>231.0</ele><time>2026-04-04T14:16:24.689Z</time></trkpt><trkpt lat="43.6284417" lon="12.7216567"><ele>231.0</ele><time>2026-04-04T14:16:26.69Z</time></trkpt><trkpt lat="43.628425" lon="12.721855"><ele>231.0</ele><time>2026-04-04T14:16:27.689Z</time></trkpt><trkpt lat="43.6283983" lon="12.72205"><ele>231.0</ele><time>2026-04-04T14:16:28.69Z</time></trkpt><trkpt lat="43.6283667" lon="12.7222317"><ele>231.0</ele><time>2026-04-04T14:16:29.689Z</time></trkpt><trkpt lat="43.6283217" lon="12.7224"><ele>232.25</ele><time>2026-04-04T14:16:30.689Z</time></trkpt><trkpt lat="43.62826" lon="12.722535"><ele>233.5</ele><time>2026-04-04T14:16:31.69Z</time></trkpt><trkpt lat="43.6281717" lon="12.722625"><ele>234.75</ele><time>2026-04-04T14:16:32.69Z</time></trkpt><trkpt lat="43.6280683" lon="12.7227017"><ele>236.0</ele><time>2026-04-04T14:16:33.688Z</time></trkpt><trkpt lat="43.6279467" lon="12.7227733"><ele>236.0</ele><time>2026-04-04T14:16:34.69Z</time></trkpt><trkpt lat="43.627815" lon="12.7228583"><ele>236.0</ele><time>2026-04-04T14:16:35.69Z</time></trkpt><trkpt lat="43.6276733" lon="12.722945"><ele>236.0</ele><time>2026-04-04T14:16:36.691Z</time></trkpt><trkpt lat="43.6275283" lon="12.7230283"><ele>233.33333333333334</ele><time>2026-04-04T14:16:37.69Z</time></trkpt><trkpt lat="43.6273867" lon="12.723115"><ele>230.66666666666669</ele><time>2026-04-04T14:16:38.689Z</time></trkpt><trkpt lat="43.62725" lon="12.723205"><ele>228.0</ele><time>2026-04-04T14:16:39.689Z</time></trkpt><trkpt lat="43.62711" lon="12.7233"><ele>229.0</ele><time>2026-04-04T14:16:40.692Z</time></trkpt><trkpt lat="43.6269717" lon="12.7234"><ele>230.0</ele><time>2026-04-04T14:16:41.69Z</time></trkpt><trkpt lat="43.62684" lon="12.7235117"><ele>231.0</ele><time>2026-04-04T14:16:42.689Z</time></trkpt><trkpt lat="43.626705" lon="12.7236317"><ele>231.0</ele><time>2026-04-04T14:16:43.689Z</time></trkpt><trkpt lat="43.62657" lon="12.7237533"><ele>231.0</ele><time>2026-04-04T14:16:44.689Z</time></trkpt><trkpt lat="43.626435" lon="12.7238717"><ele>231.0</ele><time>2026-04-04T14:16:45.688Z</time></trkpt><trkpt lat="43.6261833" lon="12.7241433"><ele>232.66666666666669</ele><time>2026-04-04T14:16:47.69Z</time></trkpt><trkpt lat="43.6260617" lon="12.7242817"><ele>234.33333333333334</ele><time>2026-04-04T14:16:48.69Z</time></trkpt><trkpt lat="43.625945" lon="12.72442"><ele>236.0</ele><time>2026-04-04T14:16:49.689Z</time></trkpt><trkpt lat="43.6258317" lon="12.724555"><ele>236.0</ele><time>2026-04-04T14:16:50.69Z</time></trkpt><trkpt lat="43.6257033" lon="12.7246683"><ele>236.0</ele><time>2026-04-04T14:16:51.689Z</time></trkpt><trkpt lat="43.625565" lon="12.7247533"><ele>236.0</ele><time>2026-04-04T14:16:52.69Z</time></trkpt><trkpt lat="43.6254133" lon="12.72481"><ele>239.0</ele><time>2026-04-04T14:16:53.689Z</time></trkpt><trkpt lat="43.6252583" lon="12.7248467"><ele>242.0</ele><time>2026-04-04T14:16:54.689Z</time></trkpt><trkpt lat="43.6251017" lon="12.72488"><ele>245.0</ele><time>2026-04-04T14:16:55.692Z</time></trkpt><trkpt lat="43.6249467" lon="12.7249183"><ele>245.0</ele><time>2026-04-04T14:16:56.689Z</time></trkpt><trkpt lat="43.6248" lon="12.72498"><ele>245.0</ele><time>2026-04-04T14:16:57.69Z</time></trkpt><trkpt lat="43.6246617" lon="12.72507"><ele>245.0</ele><time>2026-04-04T14:16:58.69Z</time></trkpt><trkpt lat="43.6245383" lon="12.7251917"><ele>246.33333333333334</ele><time>2026-04-04T14:16:59.689Z</time></trkpt><trkpt lat="43.6244183" lon="12.72532"><ele>247.66666666666669</ele><time>2026-04-04T14:17:00.691Z</time></trkpt><trkpt lat="43.6243133" lon="12.72546"><ele>249.0</ele><time>2026-04-04T14:17:01.692Z</time></trkpt><trkpt lat="43.6242033" lon="12.7256083"><ele>249.0</ele><time>2026-04-04T14:17:02.69Z</time></trkpt><trkpt lat="43.6240983" lon="12.72577"><ele>249.0</ele><time>2026-04-04T14:17:03.692Z</time></trkpt><trkpt lat="43.62401" lon="12.7259483"><ele>249.0</ele><time>2026-04-04T14:17:04.692Z</time></trkpt><trkpt lat="43.62392" lon="12.7261367"><ele>248.0</ele><time>2026-04-04T14:17:05.691Z</time></trkpt><trkpt lat="43.623825" lon="12.726315"><ele>247.0</ele><time>2026-04-04T14:17:06.693Z</time></trkpt><trkpt lat="43.6236533" lon="12.7266883"><ele>250.33333333333331</ele><time>2026-04-04T14:17:08.69Z</time></trkpt><trkpt lat="43.6235617" lon="12.7268667"><ele>253.66666666666669</ele><time>2026-04-04T14:17:09.69Z</time></trkpt><trkpt lat="43.623475" lon="12.7270433"><ele>257.0</ele><time>2026-04-04T14:17:10.69Z</time></trkpt><trkpt lat="43.6234033" lon="12.7272183"><ele>257.0</ele><time>2026-04-04T14:17:11.692Z</time></trkpt><trkpt lat="43.62334" lon="12.7273867"><ele>257.0</ele><time>2026-04-04T14:17:12.69Z</time></trkpt><trkpt lat="43.6232917" lon="12.7275567"><ele>257.0</ele><time>2026-04-04T14:17:13.69Z</time></trkpt><trkpt lat="43.6232383" lon="12.72771"><ele>257.0</ele><time>2026-04-04T14:17:14.688Z</time></trkpt><trkpt lat="43.6231717" lon="12.7278417"><ele>256.6</ele><time>2026-04-04T14:17:15.688Z</time></trkpt><trkpt lat="43.623085" lon="12.72793"><ele>256.2</ele><time>2026-04-04T14:17:16.688Z</time></trkpt><trkpt lat="43.622985" lon="12.7279867"><ele>255.8</ele><time>2026-04-04T14:17:17.69Z</time></trkpt><trkpt lat="43.6228933" lon="12.72803"><ele>255.4</ele><time>2026-04-04T14:17:18.689Z</time></trkpt><trkpt lat="43.62282" lon="12.7280817"><ele>255.0</ele><time>2026-04-04T14:17:19.69Z</time></trkpt><trkpt lat="43.62276" lon="12.728145"><ele>256.5</ele><time>2026-04-04T14:17:20.688Z</time></trkpt><trkpt lat="43.622725" lon="12.7283433"><ele>258.0</ele><time>2026-04-04T14:17:22.689Z</time></trkpt><trkpt lat="43.62271" lon="12.72848"><ele>259.5</ele><time>2026-04-04T14:17:23.69Z</time></trkpt><trkpt lat="43.62272" lon="12.728685"><ele>261.0</ele><time>2026-04-04T14:17:24.69Z</time></trkpt><trkpt lat="43.6227283" lon="12.728875"><ele>261.0</ele><time>2026-04-04T14:17:25.689Z</time></trkpt><trkpt lat="43.62272" lon="12.729035"><ele>261.0</ele><time>2026-04-04T14:17:26.69Z</time></trkpt><trkpt lat="43.6226833" lon="12.72917"><ele>261.0</ele><time>2026-04-04T14:17:27.689Z</time></trkpt><trkpt lat="43.622555" lon="12.729455"><ele>261.25</ele><time>2026-04-04T14:17:29.689Z</time></trkpt><trkpt lat="43.6224683" lon="12.7295883"><ele>261.5</ele><time>2026-04-04T14:17:30.69Z</time></trkpt><trkpt lat="43.622375" lon="12.72972"><ele>261.75</ele><time>2026-04-04T14:17:31.691Z</time></trkpt><trkpt lat="43.6222817" lon="12.7298483"><ele>262.0</ele><time>2026-04-04T14:17:32.689Z</time></trkpt><trkpt lat="43.6222" lon="12.72997"><ele>262.0</ele><time>2026-04-04T14:17:33.692Z</time></trkpt><trkpt lat="43.6221183" lon="12.73008"><ele>262.0</ele><time>2026-04-04T14:17:34.691Z</time></trkpt><trkpt lat="43.6220333" lon="12.73017"><ele>262.0</ele><time>2026-04-04T14:17:35.689Z</time></trkpt><trkpt lat="43.6219483" lon="12.7302483"><ele>262.0</ele><time>2026-04-04T14:17:36.69Z</time></trkpt><trkpt lat="43.62186" lon="12.73032"><ele>262.0</ele><time>2026-04-04T14:17:37.691Z</time></trkpt><trkpt lat="43.62176" lon="12.7303917"><ele>263.5</ele><time>2026-04-04T14:17:38.691Z</time></trkpt><trkpt lat="43.6216567" lon="12.7304667"><ele>265.0</ele><time>2026-04-04T14:17:39.687Z</time></trkpt><trkpt lat="43.6215467" lon="12.730535"><ele>266.5</ele><time>2026-04-04T14:17:40.69Z</time></trkpt><trkpt lat="43.62144" lon="12.73061"><ele>268.0</ele><time>2026-04-04T14:17:41.689Z</time></trkpt><trkpt lat="43.6213383" lon="12.7306883"><ele>268.0</ele><time>2026-04-04T14:17:42.687Z</time></trkpt><trkpt lat="43.621225" lon="12.73077"><ele>268.0</ele><time>2026-04-04T14:17:43.688Z</time></trkpt><trkpt lat="43.6211083" lon="12.7308583"><ele>268.0</ele><time>2026-04-04T14:17:44.689Z</time></trkpt><trkpt lat="43.62099" lon="12.7309467"><ele>268.0</ele><time>2026-04-04T14:17:45.689Z</time></trkpt><trkpt lat="43.6208733" lon="12.7310317"><ele>270.0</ele><time>2026-04-04T14:17:46.69Z</time></trkpt><trkpt lat="43.6207583" lon="12.7311233"><ele>272.0</ele><time>2026-04-04T14:17:47.689Z</time></trkpt><trkpt lat="43.6206417" lon="12.7312167"><ele>274.0</ele><time>2026-04-04T14:17:48.692Z</time></trkpt><trkpt lat="43.6204117" lon="12.7313967"><ele>275.5</ele><time>2026-04-04T14:17:50.69Z</time></trkpt><trkpt lat="43.6202917" lon="12.7314867"><ele>277.0</ele><time>2026-04-04T14:17:51.689Z</time></trkpt><trkpt lat="43.6201783" lon="12.731575"><ele>278.5</ele><time>2026-04-04T14:17:52.688Z</time></trkpt><trkpt lat="43.6200783" lon="12.7316583"><ele>280.0</ele><time>2026-04-04T14:17:53.686Z</time></trkpt><trkpt lat="43.6199883" lon="12.731725"><ele>280.0</ele><time>2026-04-04T14:17:54.69Z</time></trkpt><trkpt lat="43.6199167" lon="12.7317817"><ele>280.0</ele><time>2026-04-04T14:17:55.692Z</time></trkpt><trkpt lat="43.6198583" lon="12.731825"><ele>280.0</ele><time>2026-04-04T14:17:56.688Z</time></trkpt><trkpt lat="43.6197733" lon="12.7319117"><ele>280.0</ele><time>2026-04-04T14:17:58.688Z</time></trkpt><trkpt lat="43.6197317" lon="12.7320133"><ele>280.0</ele><time>2026-04-04T14:18:00.689Z</time></trkpt><trkpt lat="43.6197733" lon="12.7321767"><ele>279.66666666666663</ele><time>2026-04-04T14:18:02.69Z</time></trkpt><trkpt lat="43.61982" lon="12.7322667"><ele>279.3333333333333</ele><time>2026-04-04T14:18:03.687Z</time></trkpt><trkpt lat="43.61987" lon="12.7323483"><ele>279.0</ele><time>2026-04-04T14:18:04.689Z</time></trkpt><trkpt lat="43.619925" lon="12.7324283"><ele>278.6666666666667</ele><time>2026-04-04T14:18:05.688Z</time></trkpt><trkpt lat="43.619985" lon="12.7325017"><ele>278.33333333333337</ele><time>2026-04-04T14:18:06.689Z</time></trkpt><trkpt lat="43.6200467" lon="12.7325667"><ele>278.0</ele><time>2026-04-04T14:18:07.688Z</time></trkpt><trkpt lat="43.6201233" lon="12.7326217"><ele>278.0</ele><time>2026-04-04T14:18:08.688Z</time></trkpt><trkpt lat="43.620205" lon="12.732655"><ele>278.0</ele><time>2026-04-04T14:18:09.687Z</time></trkpt><trkpt lat="43.620435" lon="12.732645"><ele>278.0</ele><time>2026-04-04T14:18:11.689Z</time></trkpt><trkpt lat="43.6205717" lon="12.73262"><ele>278.6666666666667</ele><time>2026-04-04T14:18:12.689Z</time></trkpt><trkpt lat="43.6207167" lon="12.73258"><ele>279.3333333333333</ele><time>2026-04-04T14:18:13.689Z</time></trkpt><trkpt lat="43.6208633" lon="12.7325233"><ele>280.0</ele><time>2026-04-04T14:18:14.689Z</time></trkpt><trkpt lat="43.621015" lon="12.732455"><ele>281.75</ele><time>2026-04-04T14:18:15.69Z</time></trkpt><trkpt lat="43.6211533" lon="12.7323817"><ele>283.5</ele><time>2026-04-04T14:18:16.687Z</time></trkpt><trkpt lat="43.6212783" lon="12.73231"><ele>285.25</ele><time>2026-04-04T14:18:17.69Z</time></trkpt><trkpt lat="43.62139" lon="12.7322383"><ele>287.0</ele><time>2026-04-04T14:18:18.689Z</time></trkpt><trkpt lat="43.621475" lon="12.73219"><ele>287.0</ele><time>2026-04-04T14:18:19.689Z</time></trkpt><trkpt lat="43.6215517" lon="12.73216"><ele>287.0</ele><time>2026-04-04T14:18:20.691Z</time></trkpt><trkpt lat="43.621615" lon="12.7321567"><ele>287.0</ele><time>2026-04-04T14:18:21.689Z</time></trkpt><trkpt lat="43.62168" lon="12.7322467"><ele>287.0</ele><time>2026-04-04T14:18:23.692Z</time></trkpt><trkpt lat="43.6216133" lon="12.7324117"><ele>287.0</ele><time>2026-04-04T14:18:25.688Z</time></trkpt><trkpt lat="43.6215433" lon="12.7325083"><ele>287.0</ele><time>2026-04-04T14:18:26.69Z</time></trkpt><trkpt lat="43.6214683" lon="12.7326083"><ele>287.0</ele><time>2026-04-04T14:18:27.687Z</time></trkpt><trkpt lat="43.6213983" lon="12.732705"><ele>287.0</ele><time>2026-04-04T14:18:28.688Z</time></trkpt><trkpt lat="43.62134" lon="12.732805"><ele>287.0</ele><time>2026-04-04T14:18:29.688Z</time></trkpt><trkpt lat="43.621275" lon="12.7329117"><ele>287.0</ele><time>2026-04-04T14:18:30.688Z</time></trkpt><trkpt lat="43.62114" lon="12.73313"><ele>288.2</ele><time>2026-04-04T14:18:32.691Z</time></trkpt><trkpt lat="43.621055" lon="12.73324"><ele>289.4</ele><time>2026-04-04T14:18:33.689Z</time></trkpt><trkpt lat="43.62097" lon="12.7333383"><ele>290.6</ele><time>2026-04-04T14:18:34.688Z</time></trkpt><trkpt lat="43.620885" lon="12.733425"><ele>291.8</ele><time>2026-04-04T14:18:35.688Z</time></trkpt><trkpt lat="43.6208167" lon="12.7335"><ele>293.0</ele><time>2026-04-04T14:18:36.69Z</time></trkpt><trkpt lat="43.620755" lon="12.7335717"><ele>296.2</ele><time>2026-04-04T14:18:37.689Z</time></trkpt><trkpt lat="43.6206983" lon="12.733635"><ele>299.4</ele><time>2026-04-04T14:18:38.688Z</time></trkpt><trkpt lat="43.62066" lon="12.73374"><ele>302.59999999999997</ele><time>2026-04-04T14:18:40.689Z</time></trkpt><trkpt lat="43.6207417" lon="12.7337517"><ele>305.8</ele><time>2026-04-04T14:18:42.689Z</time></trkpt><trkpt lat="43.6208833" lon="12.7337283"><ele>309.0</ele><time>2026-04-04T14:18:44.689Z</time></trkpt><trkpt lat="43.6209667" lon="12.733735"><ele>309.0</ele><time>2026-04-04T14:18:45.689Z</time></trkpt><trkpt lat="43.62106" lon="12.7337517"><ele>309.0</ele><time>2026-04-04T14:18:46.687Z</time></trkpt><trkpt lat="43.6211533" lon="12.7337683"><ele>309.0</ele><time>2026-04-04T14:18:47.69Z</time></trkpt><trkpt lat="43.621235" lon="12.733785"><ele>309.0</ele><time>2026-04-04T14:18:48.688Z</time></trkpt><trkpt lat="43.6213033" lon="12.73379"><ele>309.0</ele><time>2026-04-04T14:18:49.69Z</time></trkpt><trkpt lat="43.6214133" lon="12.733795"><ele>309.0</ele><time>2026-04-04T14:18:51.69Z</time></trkpt><trkpt lat="43.621555" lon="12.733795"><ele>311.0</ele><time>2026-04-04T14:18:53.689Z</time></trkpt><trkpt lat="43.62164" lon="12.7337917"><ele>313.0</ele><time>2026-04-04T14:18:54.689Z</time></trkpt><trkpt lat="43.6217217" lon="12.7337833"><ele>315.0</ele><time>2026-04-04T14:18:55.692Z</time></trkpt><trkpt lat="43.6218033" lon="12.7337617"><ele>317.0</ele><time>2026-04-04T14:18:56.689Z</time></trkpt><trkpt lat="43.6218867" lon="12.7337217"><ele>319.0</ele><time>2026-04-04T14:18:57.687Z</time></trkpt><trkpt lat="43.621965" lon="12.7336567"><ele>321.0</ele><time>2026-04-04T14:18:58.692Z</time></trkpt><trkpt lat="43.622035" lon="12.7335733"><ele>320.3333333333333</ele><time>2026-04-04T14:18:59.689Z</time></trkpt><trkpt lat="43.622105" lon="12.7334767"><ele>319.6666666666667</ele><time>2026-04-04T14:19:00.687Z</time></trkpt><trkpt lat="43.6221683" lon="12.7333983"><ele>319.0</ele><time>2026-04-04T14:19:01.69Z</time></trkpt><trkpt lat="43.62223" lon="12.7333417"><ele>318.33333333333337</ele><time>2026-04-04T14:19:02.689Z</time></trkpt><trkpt lat="43.6222933" lon="12.7333017"><ele>317.6666666666667</ele><time>2026-04-04T14:19:03.689Z</time></trkpt><trkpt lat="43.6223667" lon="12.73329"><ele>317.0</ele><time>2026-04-04T14:19:04.689Z</time></trkpt><trkpt lat="43.6224483" lon="12.7333117"><ele>317.0</ele><time>2026-04-04T14:19:05.689Z</time></trkpt><trkpt lat="43.6225267" lon="12.7333533"><ele>317.0</ele><time>2026-04-04T14:19:06.692Z</time></trkpt><trkpt lat="43.6225983" lon="12.7333967"><ele>317.0</ele><time>2026-04-04T14:19:07.691Z</time></trkpt><trkpt lat="43.6226583" lon="12.73343"><ele>317.0</ele><time>2026-04-04T14:19:08.691Z</time></trkpt><trkpt lat="43.62276" lon="12.7334133"><ele>317.0</ele><time>2026-04-04T14:19:10.69Z</time></trkpt><trkpt lat="43.6228167" lon="12.7332717"><ele>317.0</ele><time>2026-04-04T14:19:12.691Z</time></trkpt><trkpt lat="43.6228933" lon="12.733045"><ele>320.2</ele><time>2026-04-04T14:19:14.689Z</time></trkpt><trkpt lat="43.6229483" lon="12.73292"><ele>323.4</ele><time>2026-04-04T14:19:15.689Z</time></trkpt><trkpt lat="43.6230117" lon="12.7327983"><ele>326.59999999999997</ele><time>2026-04-04T14:19:16.689Z</time></trkpt><trkpt lat="43.6230817" lon="12.7326767"><ele>329.79999999999995</ele><time>2026-04-04T14:19:17.686Z</time></trkpt><trkpt lat="43.62315" lon="12.7325533"><ele>333.0</ele><time>2026-04-04T14:19:18.689Z</time></trkpt><trkpt lat="43.6232183" lon="12.7324383"><ele>333.0</ele><time>2026-04-04T14:19:19.689Z</time></trkpt><trkpt lat="43.6232833" lon="12.7323317"><ele>333.0</ele><time>2026-04-04T14:19:20.688Z</time></trkpt><trkpt lat="43.6233517" lon="12.7322383"><ele>333.0</ele><time>2026-04-04T14:19:21.687Z</time></trkpt><trkpt lat="43.6234233" lon="12.732155"><ele>333.0</ele><time>2026-04-04T14:19:22.688Z</time></trkpt><trkpt lat="43.6234933" lon="12.7320867"><ele>333.0</ele><time>2026-04-04T14:19:23.688Z</time></trkpt><trkpt lat="43.6235617" lon="12.7320383"><ele>333.0</ele><time>2026-04-04T14:19:24.689Z</time></trkpt><trkpt lat="43.623635" lon="12.732015"><ele>333.0</ele><time>2026-04-04T14:19:25.69Z</time></trkpt><trkpt lat="43.6237167" lon="12.7320033"><ele>333.0</ele><time>2026-04-04T14:19:26.689Z</time></trkpt><trkpt lat="43.623805" lon="12.7319983"><ele>333.0</ele><time>2026-04-04T14:19:27.689Z</time></trkpt><trkpt lat="43.6238933" lon="12.7319983"><ele>333.0</ele><time>2026-04-04T14:19:28.687Z</time></trkpt><trkpt lat="43.6239717" lon="12.7319983"><ele>333.0</ele><time>2026-04-04T14:19:29.688Z</time></trkpt><trkpt lat="43.6240917" lon="12.7320217"><ele>337.1666666666667</ele><time>2026-04-04T14:19:31.689Z</time></trkpt><trkpt lat="43.6241583" lon="12.7320533"><ele>341.3333333333333</ele><time>2026-04-04T14:19:32.688Z</time></trkpt><trkpt lat="43.6242333" lon="12.7320833"><ele>345.5</ele><time>2026-04-04T14:19:33.686Z</time></trkpt><trkpt lat="43.6243833" lon="12.732075"><ele>349.66666666666663</ele><time>2026-04-04T14:19:35.69Z</time></trkpt><trkpt lat="43.6244533" lon="12.73204"><ele>353.8333333333333</ele><time>2026-04-04T14:19:36.687Z</time></trkpt><trkpt lat="43.6245117" lon="12.73199"><ele>358.0</ele><time>2026-04-04T14:19:37.688Z</time></trkpt><trkpt lat="43.6245783" lon="12.7318583"><ele>358.2</ele><time>2026-04-04T14:19:39.688Z</time></trkpt><trkpt lat="43.62462" lon="12.7317367"><ele>358.4</ele><time>2026-04-04T14:19:41.688Z</time></trkpt><trkpt lat="43.6246883" lon="12.7316767"><ele>358.59999999999997</ele><time>2026-04-04T14:19:43.689Z</time></trkpt><trkpt lat="43.6247817" lon="12.73168"><ele>358.79999999999995</ele><time>2026-04-04T14:19:45.687Z</time></trkpt><trkpt lat="43.6249067" lon="12.7316483"><ele>359.0</ele><time>2026-04-04T14:19:47.689Z</time></trkpt><trkpt lat="43.62497" lon="12.7315983"><ele>359.0</ele><time>2026-04-04T14:19:48.688Z</time></trkpt><trkpt lat="43.625015" lon="12.73153"><ele>359.0</ele><time>2026-04-04T14:19:49.688Z</time></trkpt><trkpt lat="43.62505" lon="12.7314467"><ele>359.0</ele><time>2026-04-04T14:19:50.688Z</time></trkpt><trkpt lat="43.62508" lon="12.7313517"><ele>359.0</ele><time>2026-04-04T14:19:51.688Z</time></trkpt><trkpt lat="43.6251083" lon="12.73126"><ele>359.0</ele><time>2026-04-04T14:19:52.69Z</time></trkpt><trkpt lat="43.6251417" lon="12.7311833"><ele>359.0</ele><time>2026-04-04T14:19:53.687Z</time></trkpt><trkpt lat="43.6252433" lon="12.7310867"><ele>363.2</ele><time>2026-04-04T14:19:55.69Z</time></trkpt><trkpt lat="43.62541" lon="12.7310133"><ele>367.4</ele><time>2026-04-04T14:19:57.689Z</time></trkpt><trkpt lat="43.6254983" lon="12.73097"><ele>371.6</ele><time>2026-04-04T14:19:58.69Z</time></trkpt><trkpt lat="43.6255783" lon="12.7309317"><ele>375.8</ele><time>2026-04-04T14:19:59.688Z</time></trkpt><trkpt lat="43.625645" lon="12.730895"><ele>380.0</ele><time>2026-04-04T14:20:00.688Z</time></trkpt><trkpt lat="43.6256983" lon="12.730845"><ele>380.0</ele><time>2026-04-04T14:20:01.688Z</time></trkpt><trkpt lat="43.6257483" lon="12.7306833"><ele>380.0</ele><time>2026-04-04T14:20:03.689Z</time></trkpt><trkpt lat="43.6257417" lon="12.7305617"><ele>380.0</ele><time>2026-04-04T14:20:04.688Z</time></trkpt><trkpt lat="43.625725" lon="12.7304417"><ele>380.0</ele><time>2026-04-04T14:20:05.686Z</time></trkpt><trkpt lat="43.62571" lon="12.73034"><ele>380.0</ele><time>2026-04-04T14:20:06.686Z</time></trkpt><trkpt lat="43.6257067" lon="12.730245"><ele>380.0</ele><time>2026-04-04T14:20:07.691Z</time></trkpt><trkpt lat="43.6257633" lon="12.7301167"><ele>377.0</ele><time>2026-04-04T14:20:09.689Z</time></trkpt><trkpt lat="43.6258933" lon="12.7300583"><ele>374.0</ele><time>2026-04-04T14:20:11.691Z</time></trkpt><trkpt lat="43.625965" lon="12.7300317"><ele>371.0</ele><time>2026-04-04T14:20:12.689Z</time></trkpt><trkpt lat="43.6260283" lon="12.729995"><ele>368.0</ele><time>2026-04-04T14:20:13.692Z</time></trkpt><trkpt lat="43.6260933" lon="12.7298767"><ele>365.0</ele><time>2026-04-04T14:20:15.689Z</time></trkpt><trkpt lat="43.6260533" lon="12.7296667"><ele>365.0</ele><time>2026-04-04T14:20:17.688Z</time></trkpt><trkpt lat="43.625995" lon="12.7294383"><ele>365.0</ele><time>2026-04-04T14:20:19.69Z</time></trkpt><trkpt lat="43.6259767" lon="12.7293433"><ele>365.0</ele><time>2026-04-04T14:20:20.686Z</time></trkpt><trkpt lat="43.6259867" lon="12.7292017"><ele>365.0</ele><time>2026-04-04T14:20:22.69Z</time></trkpt><trkpt lat="43.6260233" lon="12.7291233"><ele>365.0</ele><time>2026-04-04T14:20:23.689Z</time></trkpt><trkpt lat="43.62607" lon="12.7290283"><ele>363.33333333333337</ele><time>2026-04-04T14:20:24.69Z</time></trkpt><trkpt lat="43.6261217" lon="12.728925"><ele>361.6666666666667</ele><time>2026-04-04T14:20:25.69Z</time></trkpt><trkpt lat="43.6261717" lon="12.7288317"><ele>360.0</ele><time>2026-04-04T14:20:26.69Z</time></trkpt><trkpt lat="43.6262183" lon="12.7287367"><ele>358.3333333333333</ele><time>2026-04-04T14:20:27.689Z</time></trkpt><trkpt lat="43.6262667" lon="12.7286583"><ele>356.66666666666663</ele><time>2026-04-04T14:20:28.687Z</time></trkpt><trkpt lat="43.626325" lon="12.7286017"><ele>355.0</ele><time>2026-04-04T14:20:29.691Z</time></trkpt><trkpt lat="43.6263933" lon="12.728575"><ele>360.8333333333333</ele><time>2026-04-04T14:20:30.689Z</time></trkpt><trkpt lat="43.626465" lon="12.728565"><ele>366.66666666666663</ele><time>2026-04-04T14:20:31.69Z</time></trkpt><trkpt lat="43.6265283" lon="12.728545"><ele>372.5</ele><time>2026-04-04T14:20:32.689Z</time></trkpt><trkpt lat="43.62663" lon="12.72846"><ele>378.3333333333333</ele><time>2026-04-04T14:20:34.689Z</time></trkpt><trkpt lat="43.626665" lon="12.728375"><ele>384.1666666666667</ele><time>2026-04-04T14:20:35.688Z</time></trkpt><trkpt lat="43.6267067" lon="12.7282783"><ele>390.0</ele><time>2026-04-04T14:20:36.689Z</time></trkpt><trkpt lat="43.6267567" lon="12.7281783"><ele>390.0</ele><time>2026-04-04T14:20:37.688Z</time></trkpt><trkpt lat="43.62681" lon="12.728085"><ele>390.0</ele><time>2026-04-04T14:20:38.688Z</time></trkpt><trkpt lat="43.6269267" lon="12.727935"><ele>390.0</ele><time>2026-04-04T14:20:41.691Z</time></trkpt><trkpt lat="43.6269633" lon="12.7280367"><ele>390.0</ele><time>2026-04-04T14:20:44.687Z</time></trkpt><trkpt lat="43.626905" lon="12.72817"><ele>390.0</ele><time>2026-04-04T14:20:46.687Z</time></trkpt><trkpt lat="43.6268683" lon="12.7282533"><ele>390.0</ele><time>2026-04-04T14:20:47.69Z</time></trkpt><trkpt lat="43.6268267" lon="12.7283533"><ele>390.0</ele><time>2026-04-04T14:20:48.686Z</time></trkpt><trkpt lat="43.6267933" lon="12.7284683"><ele>390.0</ele><time>2026-04-04T14:20:49.688Z</time></trkpt><trkpt lat="43.6267583" lon="12.72858"><ele>390.0</ele><time>2026-04-04T14:20:50.685Z</time></trkpt><trkpt lat="43.626725" lon="12.72869"><ele>390.0</ele><time>2026-04-04T14:20:51.686Z</time></trkpt><trkpt lat="43.6266933" lon="12.7287867"><ele>390.0</ele><time>2026-04-04T14:20:52.688Z</time></trkpt><trkpt lat="43.626645" lon="12.7288583"><ele>392.4</ele><time>2026-04-04T14:20:53.689Z</time></trkpt><trkpt lat="43.6265533" lon="12.7289467"><ele>394.8</ele><time>2026-04-04T14:20:55.688Z</time></trkpt><trkpt lat="43.6265483" lon="12.7290467"><ele>397.20000000000005</ele><time>2026-04-04T14:20:58.687Z</time></trkpt><trkpt lat="43.6266383" lon="12.7290333"><ele>399.6</ele><time>2026-04-04T14:21:00.687Z</time></trkpt><trkpt lat="43.6267717" lon="12.7289183"><ele>402.0</ele><time>2026-04-04T14:21:02.687Z</time></trkpt><trkpt lat="43.6268467" lon="12.7288083"><ele>402.0</ele><time>2026-04-04T14:21:03.687Z</time></trkpt><trkpt lat="43.6269317" lon="12.72868"><ele>402.0</ele><time>2026-04-04T14:21:04.686Z</time></trkpt><trkpt lat="43.6270067" lon="12.7285733"><ele>402.0</ele><time>2026-04-04T14:21:05.689Z</time></trkpt><trkpt lat="43.6270833" lon="12.72847"><ele>402.0</ele><time>2026-04-04T14:21:06.688Z</time></trkpt><trkpt lat="43.6271667" lon="12.7283833"><ele>402.0</ele><time>2026-04-04T14:21:07.687Z</time></trkpt><trkpt lat="43.627255" lon="12.7282917"><ele>405.8</ele><time>2026-04-04T14:21:08.69Z</time></trkpt><trkpt lat="43.627335" lon="12.72821"><ele>409.6</ele><time>2026-04-04T14:21:09.687Z</time></trkpt><trkpt lat="43.6274217" lon="12.7281417"><ele>413.40000000000003</ele><time>2026-04-04T14:21:10.691Z</time></trkpt><trkpt lat="43.6275067" lon="12.7280767"><ele>417.20000000000005</ele><time>2026-04-04T14:21:11.69Z</time></trkpt><trkpt lat="43.6276033" lon="12.72802"><ele>421.0</ele><time>2026-04-04T14:21:12.691Z</time></trkpt><trkpt lat="43.6277033" lon="12.7279783"><ele>421.0</ele><time>2026-04-04T14:21:13.691Z</time></trkpt><trkpt lat="43.6278017" lon="12.7279383"><ele>421.0</ele><time>2026-04-04T14:21:14.688Z</time></trkpt><trkpt lat="43.6279" lon="12.727885"><ele>421.0</ele><time>2026-04-04T14:21:15.688Z</time></trkpt><trkpt lat="43.6280017" lon="12.7278017"><ele>421.0</ele><time>2026-04-04T14:21:16.689Z</time></trkpt><trkpt lat="43.6280967" lon="12.7277117"><ele>421.0</ele><time>2026-04-04T14:21:17.688Z</time></trkpt><trkpt lat="43.6281867" lon="12.7276183"><ele>421.75</ele><time>2026-04-04T14:21:18.686Z</time></trkpt><trkpt lat="43.6282667" lon="12.7275217"><ele>422.5</ele><time>2026-04-04T14:21:19.689Z</time></trkpt><trkpt lat="43.6283383" lon="12.7274217"><ele>423.25</ele><time>2026-04-04T14:21:20.689Z</time></trkpt><trkpt lat="43.6284183" lon="12.72733"><ele>424.0</ele><time>2026-04-04T14:21:21.689Z</time></trkpt><trkpt lat="43.6285683" lon="12.7272033"><ele>431.0</ele><time>2026-04-04T14:21:23.688Z</time></trkpt><trkpt lat="43.6286617" lon="12.7271533"><ele>438.0</ele><time>2026-04-04T14:21:24.688Z</time></trkpt><trkpt lat="43.6287783" lon="12.727105"><ele>445.0</ele><time>2026-04-04T14:21:25.69Z</time></trkpt><trkpt lat="43.6289133" lon="12.7270483"><ele>452.0</ele><time>2026-04-04T14:21:26.687Z</time></trkpt><trkpt lat="43.6290517" lon="12.7269917"><ele>451.99999999999994</ele><time>2026-04-04T14:21:27.687Z</time></trkpt><trkpt lat="43.6291783" lon="12.7269383"><ele>452.0</ele><time>2026-04-04T14:21:28.688Z</time></trkpt><trkpt lat="43.6292733" lon="12.7268917"><ele>452.0</ele><time>2026-04-04T14:21:29.691Z</time></trkpt><trkpt lat="43.6293317" lon="12.7268583"><ele>452.0</ele><time>2026-04-04T14:21:30.688Z</time></trkpt><trkpt lat="43.62941" lon="12.72686"><ele>451.99999999999994</ele><time>2026-04-04T14:21:32.688Z</time></trkpt><trkpt lat="43.6294517" lon="12.7269283"><ele>452.0</ele><time>2026-04-04T14:21:34.688Z</time></trkpt><trkpt lat="43.629385" lon="12.72703"><ele>452.0</ele><time>2026-04-04T14:21:36.687Z</time></trkpt><trkpt lat="43.6293317" lon="12.7270917"><ele>452.00000000000006</ele><time>2026-04-04T14:21:37.689Z</time></trkpt><trkpt lat="43.6292783" lon="12.7271733"><ele>452.00000000000006</ele><time>2026-04-04T14:21:38.687Z</time></trkpt><trkpt lat="43.6292083" lon="12.7272767"><ele>452.0</ele><time>2026-04-04T14:21:39.686Z</time></trkpt><trkpt lat="43.62914" lon="12.7273883"><ele>452.0</ele><time>2026-04-04T14:21:40.688Z</time></trkpt><trkpt lat="43.6290733" lon="12.7275083"><ele>452.0</ele><time>2026-04-04T14:21:41.689Z</time></trkpt><trkpt lat="43.629015" lon="12.727635"><ele>452.0</ele><time>2026-04-04T14:21:42.687Z</time></trkpt><trkpt lat="43.6289117" lon="12.7279217"><ele>452.0</ele><time>2026-04-04T14:21:44.688Z</time></trkpt><trkpt lat="43.6288767" lon="12.7280683"><ele>454.6</ele><time>2026-04-04T14:21:45.686Z</time></trkpt><trkpt lat="43.6288467" lon="12.7282133"><ele>457.20000000000005</ele><time>2026-04-04T14:21:46.688Z</time></trkpt><trkpt lat="43.6287983" lon="12.7283417"><ele>459.8</ele><time>2026-04-04T14:21:47.689Z</time></trkpt><trkpt lat="43.628735" lon="12.7284467"><ele>462.4</ele><time>2026-04-04T14:21:48.688Z</time></trkpt><trkpt lat="43.6286583" lon="12.728545"><ele>465.0</ele><time>2026-04-04T14:21:49.689Z</time></trkpt><trkpt lat="43.62857" lon="12.7286417"><ele>465.0</ele><time>2026-04-04T14:21:50.687Z</time></trkpt><trkpt lat="43.6284833" lon="12.72875"><ele>465.0</ele><time>2026-04-04T14:21:51.687Z</time></trkpt><trkpt lat="43.6283933" lon="12.7288567"><ele>465.0</ele><time>2026-04-04T14:21:52.687Z</time></trkpt><trkpt lat="43.6282983" lon="12.728975"><ele>465.0</ele><time>2026-04-04T14:21:53.689Z</time></trkpt><trkpt lat="43.6282133" lon="12.72909"><ele>465.0</ele><time>2026-04-04T14:21:54.688Z</time></trkpt><trkpt lat="43.6281367" lon="12.72919"><ele>465.0</ele><time>2026-04-04T14:21:55.689Z</time></trkpt><trkpt lat="43.628075" lon="12.7292717"><ele>465.0</ele><time>2026-04-04T14:21:56.687Z</time></trkpt><trkpt lat="43.6280333" lon="12.72935"><ele>465.0</ele><time>2026-04-04T14:21:57.688Z</time></trkpt><trkpt lat="43.62799" lon="12.7294783"><ele>465.0</ele><time>2026-04-04T14:21:59.69Z</time></trkpt><trkpt lat="43.62806" lon="12.7295367"><ele>465.0</ele><time>2026-04-04T14:22:02.687Z</time></trkpt><trkpt lat="43.628125" lon="12.7294783"><ele>465.0</ele><time>2026-04-04T14:22:03.689Z</time></trkpt><trkpt lat="43.6283433" lon="12.729315"><ele>465.0</ele><time>2026-04-04T14:22:05.693Z</time></trkpt><trkpt lat="43.6284583" lon="12.72926"><ele>465.0</ele><time>2026-04-04T14:22:06.69Z</time></trkpt><trkpt lat="43.6285883" lon="12.7292183"><ele>470.75</ele><time>2026-04-04T14:22:07.689Z</time></trkpt><trkpt lat="43.6287183" lon="12.7291767"><ele>476.5</ele><time>2026-04-04T14:22:08.687Z</time></trkpt><trkpt lat="43.62884" lon="12.7291183"><ele>482.25</ele><time>2026-04-04T14:22:09.686Z</time></trkpt><trkpt lat="43.62895" lon="12.7290383"><ele>488.0</ele><time>2026-04-04T14:22:10.688Z</time></trkpt><trkpt lat="43.6290533" lon="12.72894"><ele>488.0</ele><time>2026-04-04T14:22:11.688Z</time></trkpt><trkpt lat="43.6291583" lon="12.7288433"><ele>488.0</ele><time>2026-04-04T14:22:12.688Z</time></trkpt><trkpt lat="43.6292617" lon="12.7287533"><ele>488.0</ele><time>2026-04-04T14:22:13.689Z</time></trkpt><trkpt lat="43.6293633" lon="12.72866"><ele>488.0</ele><time>2026-04-04T14:22:14.688Z</time></trkpt><trkpt lat="43.6294467" lon="12.7285533"><ele>489.0</ele><time>2026-04-04T14:22:15.686Z</time></trkpt><trkpt lat="43.6295233" lon="12.72844"><ele>489.99999999999994</ele><time>2026-04-04T14:22:16.687Z</time></trkpt><trkpt lat="43.629595" lon="12.7283167"><ele>490.99999999999994</ele><time>2026-04-04T14:22:17.688Z</time></trkpt><trkpt lat="43.6296617" lon="12.7282067"><ele>492.0</ele><time>2026-04-04T14:22:18.687Z</time></trkpt><trkpt lat="43.629725" lon="12.728115"><ele>493.0</ele><time>2026-04-04T14:22:19.689Z</time></trkpt><trkpt lat="43.629785" lon="12.7280533"><ele>493.0</ele><time>2026-04-04T14:22:20.688Z</time></trkpt><trkpt lat="43.6298933" lon="12.7280083"><ele>492.99999999999994</ele><time>2026-04-04T14:22:22.687Z</time></trkpt><trkpt lat="43.6299117" lon="12.728115"><ele>492.99999999999994</ele><time>2026-04-04T14:22:24.688Z</time></trkpt><trkpt lat="43.6298483" lon="12.728295"><ele>493.0</ele><time>2026-04-04T14:22:26.689Z</time></trkpt><trkpt lat="43.629805" lon="12.7284083"><ele>493.0</ele><time>2026-04-04T14:22:27.686Z</time></trkpt><trkpt lat="43.62974" lon="12.7285633"><ele>491.75</ele><time>2026-04-04T14:22:28.687Z</time></trkpt><trkpt lat="43.629655" lon="12.72872"><ele>490.5</ele><time>2026-04-04T14:22:29.687Z</time></trkpt><trkpt lat="43.62957" lon="12.72886"><ele>489.25</ele><time>2026-04-04T14:22:30.689Z</time></trkpt><trkpt lat="43.62949" lon="12.7290017"><ele>488.0</ele><time>2026-04-04T14:22:31.689Z</time></trkpt><trkpt lat="43.629405" lon="12.7291433"><ele>488.0</ele><time>2026-04-04T14:22:32.687Z</time></trkpt><trkpt lat="43.6293217" lon="12.7292883"><ele>488.0</ele><time>2026-04-04T14:22:33.689Z</time></trkpt><trkpt lat="43.6292367" lon="12.7294317"><ele>488.0</ele><time>2026-04-04T14:22:34.687Z</time></trkpt><trkpt lat="43.6291483" lon="12.7295683"><ele>488.0</ele><time>2026-04-04T14:22:35.688Z</time></trkpt><trkpt lat="43.6290567" lon="12.729695"><ele>493.5</ele><time>2026-04-04T14:22:36.689Z</time></trkpt><trkpt lat="43.6289633" lon="12.729805"><ele>499.0</ele><time>2026-04-04T14:22:37.688Z</time></trkpt><trkpt lat="43.628875" lon="12.729905"><ele>504.5</ele><time>2026-04-04T14:22:38.688Z</time></trkpt><trkpt lat="43.62879" lon="12.7300083"><ele>510.0</ele><time>2026-04-04T14:22:39.687Z</time></trkpt><trkpt lat="43.6286967" lon="12.73012"><ele>510.0</ele><time>2026-04-04T14:22:40.688Z</time></trkpt><trkpt lat="43.6285983" lon="12.73024"><ele>510.0</ele><time>2026-04-04T14:22:41.688Z</time></trkpt><trkpt lat="43.6285033" lon="12.7303567"><ele>510.0</ele><time>2026-04-04T14:22:42.687Z</time></trkpt><trkpt lat="43.6284117" lon="12.7304633"><ele>510.0</ele><time>2026-04-04T14:22:43.688Z</time></trkpt><trkpt lat="43.6283267" lon="12.7305667"><ele>510.0</ele><time>2026-04-04T14:22:44.688Z</time></trkpt><trkpt lat="43.6282517" lon="12.730675"><ele>510.0</ele><time>2026-04-04T14:22:45.687Z</time></trkpt><trkpt lat="43.6281017" lon="12.7309333"><ele>510.0</ele><time>2026-04-04T14:22:47.687Z</time></trkpt><trkpt lat="43.62803" lon="12.7310567"><ele>509.4</ele><time>2026-04-04T14:22:48.686Z</time></trkpt><trkpt lat="43.6279633" lon="12.7311583"><ele>508.8</ele><time>2026-04-04T14:22:49.688Z</time></trkpt><trkpt lat="43.6279117" lon="12.7312483"><ele>508.20000000000005</ele><time>2026-04-04T14:22:50.686Z</time></trkpt><trkpt lat="43.6278567" lon="12.73133"><ele>507.6</ele><time>2026-04-04T14:22:51.687Z</time></trkpt><trkpt lat="43.6278017" lon="12.73145"><ele>507.0</ele><time>2026-04-04T14:22:53.689Z</time></trkpt><trkpt lat="43.627905" lon="12.7314433"><ele>515.3333333333334</ele><time>2026-04-04T14:22:56.688Z</time></trkpt><trkpt lat="43.6280533" lon="12.73133"><ele>523.6666666666667</ele><time>2026-04-04T14:22:58.687Z</time></trkpt><trkpt lat="43.6281917" lon="12.73124"><ele>532.0</ele><time>2026-04-04T14:22:59.687Z</time></trkpt><trkpt lat="43.6283767" lon="12.7311417"><ele>531.5</ele><time>2026-04-04T14:23:00.685Z</time></trkpt><trkpt lat="43.6285067" lon="12.73104"><ele>531.0</ele><time>2026-04-04T14:23:01.688Z</time></trkpt><trkpt lat="43.6286183" lon="12.7309567"><ele>530.5</ele><time>2026-04-04T14:23:02.686Z</time></trkpt><trkpt lat="43.6287267" lon="12.7308983"><ele>530.0</ele><time>2026-04-04T14:23:03.686Z</time></trkpt><trkpt lat="43.62883" lon="12.7308633"><ele>530.0</ele><time>2026-04-04T14:23:04.688Z</time></trkpt><trkpt lat="43.628925" lon="12.73084"><ele>530.0</ele><time>2026-04-04T14:23:05.689Z</time></trkpt><trkpt lat="43.6290333" lon="12.7308333"><ele>530.0</ele><time>2026-04-04T14:23:06.687Z</time></trkpt><trkpt lat="43.6292583" lon="12.7308467"><ele>530.0</ele><time>2026-04-04T14:23:08.687Z</time></trkpt><trkpt lat="43.6293667" lon="12.7308583"><ele>530.0</ele><time>2026-04-04T14:23:09.687Z</time></trkpt><trkpt lat="43.6294683" lon="12.7308767"><ele>530.0</ele><time>2026-04-04T14:23:10.688Z</time></trkpt><trkpt lat="43.6295717" lon="12.73088"><ele>530.0</ele><time>2026-04-04T14:23:11.687Z</time></trkpt><trkpt lat="43.629665" lon="12.7308517"><ele>530.0</ele><time>2026-04-04T14:23:12.687Z</time></trkpt><trkpt lat="43.62976" lon="12.7307817"><ele>530.0</ele><time>2026-04-04T14:23:13.688Z</time></trkpt><trkpt lat="43.6298617" lon="12.7306867"><ele>533.0</ele><time>2026-04-04T14:23:14.688Z</time></trkpt><trkpt lat="43.6299617" lon="12.7306033"><ele>536.0</ele><time>2026-04-04T14:23:15.685Z</time></trkpt><trkpt lat="43.6300583" lon="12.7305183"><ele>539.0</ele><time>2026-04-04T14:23:16.687Z</time></trkpt><trkpt lat="43.630145" lon="12.7304233"><ele>542.0</ele><time>2026-04-04T14:23:17.687Z</time></trkpt><trkpt lat="43.630225" lon="12.73034"><ele>545.0</ele><time>2026-04-04T14:23:18.688Z</time></trkpt><trkpt lat="43.6303033" lon="12.7302817"><ele>544.6666666666666</ele><time>2026-04-04T14:23:19.688Z</time></trkpt><trkpt lat="43.6303733" lon="12.7302333"><ele>544.3333333333333</ele><time>2026-04-04T14:23:20.687Z</time></trkpt><trkpt lat="43.6304433" lon="12.7302017"><ele>544.0</ele><time>2026-04-04T14:23:21.687Z</time></trkpt><trkpt lat="43.6305217" lon="12.730175"><ele>543.6666666666666</ele><time>2026-04-04T14:23:22.687Z</time></trkpt><trkpt lat="43.6306017" lon="12.730155"><ele>543.3333333333334</ele><time>2026-04-04T14:23:23.69Z</time></trkpt><trkpt lat="43.6306767" lon="12.73013"><ele>543.0</ele><time>2026-04-04T14:23:24.687Z</time></trkpt><trkpt lat="43.63074" lon="12.7301"><ele>543.0</ele><time>2026-04-04T14:23:25.69Z</time></trkpt><trkpt lat="43.6308" lon="12.7300667"><ele>543.0</ele><time>2026-04-04T14:23:26.688Z</time></trkpt><trkpt lat="43.6309317" lon="12.7300117"><ele>543.0</ele><time>2026-04-04T14:23:28.687Z</time></trkpt><trkpt lat="43.6311" lon="12.72997"><ele>543.0</ele><time>2026-04-04T14:23:30.687Z</time></trkpt><trkpt lat="43.631185" lon="12.7299617"><ele>544.6666666666666</ele><time>2026-04-04T14:23:31.689Z</time></trkpt><trkpt lat="43.6312667" lon="12.7299667"><ele>546.3333333333334</ele><time>2026-04-04T14:23:32.689Z</time></trkpt><trkpt lat="43.6313483" lon="12.729985"><ele>548.0</ele><time>2026-04-04T14:23:33.686Z</time></trkpt><trkpt lat="43.63143" lon="12.7300283"><ele>549.6666666666667</ele><time>2026-04-04T14:23:34.689Z</time></trkpt><trkpt lat="43.631515" lon="12.7300733"><ele>551.3333333333334</ele><time>2026-04-04T14:23:35.69Z</time></trkpt><trkpt lat="43.6315983" lon="12.73011"><ele>553.0</ele><time>2026-04-04T14:23:36.686Z</time></trkpt><trkpt lat="43.63168" lon="12.7301417"><ele>553.0</ele><time>2026-04-04T14:23:37.687Z</time></trkpt><trkpt lat="43.631765" lon="12.7301483"><ele>553.0</ele><time>2026-04-04T14:23:38.688Z</time></trkpt><trkpt lat="43.6318533" lon="12.7301333"><ele>553.0</ele><time>2026-04-04T14:23:39.686Z</time></trkpt><trkpt lat="43.631935" lon="12.7300983"><ele>553.0</ele><time>2026-04-04T14:23:40.687Z</time></trkpt><trkpt lat="43.6320133" lon="12.7300517"><ele>553.0</ele><time>2026-04-04T14:23:41.69Z</time></trkpt><trkpt lat="43.63209" lon="12.7299783"><ele>553.0</ele><time>2026-04-04T14:23:42.689Z</time></trkpt><trkpt lat="43.63218" lon="12.7298833"><ele>557.75</ele><time>2026-04-04T14:23:43.69Z</time></trkpt><trkpt lat="43.63227" lon="12.72979"><ele>562.5</ele><time>2026-04-04T14:23:44.691Z</time></trkpt><trkpt lat="43.632365" lon="12.7296917"><ele>567.25</ele><time>2026-04-04T14:23:45.689Z</time></trkpt><trkpt lat="43.6324633" lon="12.7295783"><ele>572.0</ele><time>2026-04-04T14:23:46.689Z</time></trkpt><trkpt lat="43.632555" lon="12.729465"><ele>571.0</ele><time>2026-04-04T14:23:47.69Z</time></trkpt><trkpt lat="43.6326367" lon="12.7293583"><ele>570.0</ele><time>2026-04-04T14:23:48.691Z</time></trkpt><trkpt lat="43.6327117" lon="12.72925"><ele>569.0</ele><time>2026-04-04T14:23:49.691Z</time></trkpt><trkpt lat="43.632835" lon="12.7291083"><ele>568.0</ele><time>2026-04-04T14:23:51.687Z</time></trkpt><trkpt lat="43.6329017" lon="12.7290667"><ele>568.0</ele><time>2026-04-04T14:23:52.693Z</time></trkpt><trkpt lat="43.6329717" lon="12.72904"><ele>568.0</ele><time>2026-04-04T14:23:53.691Z</time></trkpt><trkpt lat="43.6330483" lon="12.729025"><ele>568.0</ele><time>2026-04-04T14:23:54.687Z</time></trkpt><trkpt lat="43.6331283" lon="12.7290267"><ele>568.0</ele><time>2026-04-04T14:23:55.687Z</time></trkpt><trkpt lat="43.6332183" lon="12.7290533"><ele>568.0</ele><time>2026-04-04T14:23:56.69Z</time></trkpt><trkpt lat="43.6333317" lon="12.7290983"><ele>568.0</ele><time>2026-04-04T14:23:57.687Z</time></trkpt><trkpt lat="43.6334417" lon="12.7291417"><ele>568.0</ele><time>2026-04-04T14:23:58.689Z</time></trkpt><trkpt lat="43.63355" lon="12.729205"><ele>568.0</ele><time>2026-04-04T14:23:59.689Z</time></trkpt><trkpt lat="43.6336383" lon="12.7292683"><ele>568.0</ele><time>2026-04-04T14:24:00.692Z</time></trkpt><trkpt lat="43.6337217" lon="12.7293383"><ele>568.0</ele><time>2026-04-04T14:24:01.689Z</time></trkpt><trkpt lat="43.6337833" lon="12.7294117"><ele>568.0</ele><time>2026-04-04T14:24:02.69Z</time></trkpt><trkpt lat="43.6338383" lon="12.7294883"><ele>566.1999999999999</ele><time>2026-04-04T14:24:03.687Z</time></trkpt><trkpt lat="43.6338767" lon="12.729575"><ele>564.4</ele><time>2026-04-04T14:24:04.688Z</time></trkpt><trkpt lat="43.6338983" lon="12.729695"><ele>562.5999999999999</ele><time>2026-04-04T14:24:05.688Z</time></trkpt><trkpt lat="43.6339217" lon="12.7298367"><ele>560.8</ele><time>2026-04-04T14:24:06.688Z</time></trkpt><trkpt lat="43.6339367" lon="12.7299917"><ele>559.0</ele><time>2026-04-04T14:24:07.691Z</time></trkpt><trkpt lat="43.6339517" lon="12.7301333"><ele>559.0</ele><time>2026-04-04T14:24:08.69Z</time></trkpt><trkpt lat="43.6339617" lon="12.7302767"><ele>559.0</ele><time>2026-04-04T14:24:09.686Z</time></trkpt><trkpt lat="43.6339767" lon="12.7304117"><ele>559.0</ele><time>2026-04-04T14:24:10.69Z</time></trkpt><trkpt lat="43.6339983" lon="12.7306733"><ele>559.0</ele><time>2026-04-04T14:24:12.69Z</time></trkpt><trkpt lat="43.6340017" lon="12.730805"><ele>559.0</ele><time>2026-04-04T14:24:13.69Z</time></trkpt><trkpt lat="43.6340017" lon="12.7309317"><ele>559.0</ele><time>2026-04-04T14:24:14.69Z</time></trkpt><trkpt lat="43.63399" lon="12.7310517"><ele>559.0</ele><time>2026-04-04T14:24:15.69Z</time></trkpt><trkpt lat="43.633975" lon="12.7311783"><ele>559.0</ele><time>2026-04-04T14:24:16.691Z</time></trkpt><trkpt lat="43.63395" lon="12.73132"><ele>559.0</ele><time>2026-04-04T14:24:17.688Z</time></trkpt><trkpt lat="43.633915" lon="12.73147"><ele>559.2</ele><time>2026-04-04T14:24:18.689Z</time></trkpt><trkpt lat="43.6338833" lon="12.731615"><ele>559.4</ele><time>2026-04-04T14:24:19.69Z</time></trkpt><trkpt lat="43.6338567" lon="12.7317517"><ele>559.6</ele><time>2026-04-04T14:24:20.688Z</time></trkpt><trkpt lat="43.6338233" lon="12.7318817"><ele>559.8</ele><time>2026-04-04T14:24:21.689Z</time></trkpt><trkpt lat="43.63379" lon="12.7320083"><ele>560.0</ele><time>2026-04-04T14:24:22.688Z</time></trkpt><trkpt lat="43.633745" lon="12.73213"><ele>560.2</ele><time>2026-04-04T14:24:23.688Z</time></trkpt><trkpt lat="43.6336933" lon="12.7322517"><ele>560.4</ele><time>2026-04-04T14:24:24.687Z</time></trkpt><trkpt lat="43.63364" lon="12.73237"><ele>560.6</ele><time>2026-04-04T14:24:25.688Z</time></trkpt><trkpt lat="43.6335817" lon="12.732485"><ele>560.8</ele><time>2026-04-04T14:24:26.688Z</time></trkpt><trkpt lat="43.6335233" lon="12.7326067"><ele>561.0</ele><time>2026-04-04T14:24:27.69Z</time></trkpt><trkpt lat="43.633465" lon="12.732735"><ele>566.25</ele><time>2026-04-04T14:24:28.686Z</time></trkpt><trkpt lat="43.6334133" lon="12.7328733"><ele>571.5</ele><time>2026-04-04T14:24:29.689Z</time></trkpt><trkpt lat="43.6333717" lon="12.733025"><ele>576.75</ele><time>2026-04-04T14:24:30.689Z</time></trkpt><trkpt lat="43.6333333" lon="12.73318"><ele>582.0</ele><time>2026-04-04T14:24:31.688Z</time></trkpt><trkpt lat="43.633265" lon="12.7334933"><ele>581.75</ele><time>2026-04-04T14:24:33.689Z</time></trkpt><trkpt lat="43.63324" lon="12.73365"><ele>581.5</ele><time>2026-04-04T14:24:34.689Z</time></trkpt><trkpt lat="43.63322" lon="12.7338067"><ele>581.25</ele><time>2026-04-04T14:24:35.688Z</time></trkpt><trkpt lat="43.6331967" lon="12.7339583"><ele>581.0</ele><time>2026-04-04T14:24:36.687Z</time></trkpt><trkpt lat="43.6331783" lon="12.7341167"><ele>581.0</ele><time>2026-04-04T14:24:37.69Z</time></trkpt><trkpt lat="43.633155" lon="12.7342783"><ele>581.0</ele><time>2026-04-04T14:24:38.688Z</time></trkpt><trkpt lat="43.6331317" lon="12.7344417"><ele>581.0</ele><time>2026-04-04T14:24:39.687Z</time></trkpt><trkpt lat="43.6331017" lon="12.7346133"><ele>581.0</ele><time>2026-04-04T14:24:40.689Z</time></trkpt><trkpt lat="43.6330717" lon="12.7347867"><ele>581.75</ele><time>2026-04-04T14:24:41.688Z</time></trkpt><trkpt lat="43.6330517" lon="12.7349583"><ele>582.5</ele><time>2026-04-04T14:24:42.688Z</time></trkpt><trkpt lat="43.63303" lon="12.735125"><ele>583.25</ele><time>2026-04-04T14:24:43.688Z</time></trkpt><trkpt lat="43.633015" lon="12.7352933"><ele>584.0</ele><time>2026-04-04T14:24:44.689Z</time></trkpt><trkpt lat="43.633005" lon="12.7354567"><ele>584.3333333333333</ele><time>2026-04-04T14:24:45.688Z</time></trkpt><trkpt lat="43.6329867" lon="12.7356017"><ele>584.6666666666666</ele><time>2026-04-04T14:24:46.691Z</time></trkpt><trkpt lat="43.6329817" lon="12.7357333"><ele>585.0</ele><time>2026-04-04T14:24:47.69Z</time></trkpt><trkpt lat="43.6329767" lon="12.7358483"><ele>585.3333333333334</ele><time>2026-04-04T14:24:48.689Z</time></trkpt><trkpt lat="43.6329683" lon="12.735955"><ele>585.6666666666667</ele><time>2026-04-04T14:24:49.69Z</time></trkpt><trkpt lat="43.632955" lon="12.7360417"><ele>586.0</ele><time>2026-04-04T14:24:50.69Z</time></trkpt><trkpt lat="43.6328933" lon="12.7361133"><ele>586.0</ele><time>2026-04-04T14:24:52.69Z</time></trkpt><trkpt lat="43.6328483" lon="12.7358617"><ele>586.0</ele><time>2026-04-04T14:24:55.688Z</time></trkpt><trkpt lat="43.6328217" lon="12.7356683"><ele>586.0</ele><time>2026-04-04T14:24:56.686Z</time></trkpt><trkpt lat="43.6328" lon="12.7355217"><ele>586.0</ele><time>2026-04-04T14:24:57.689Z</time></trkpt><trkpt lat="43.6327733" lon="12.7353333"><ele>593.75</ele><time>2026-04-04T14:24:58.689Z</time></trkpt><trkpt lat="43.6327383" lon="12.7351267"><ele>601.5</ele><time>2026-04-04T14:24:59.691Z</time></trkpt><trkpt lat="43.63271" lon="12.7349267"><ele>609.25</ele><time>2026-04-04T14:25:00.69Z</time></trkpt><trkpt lat="43.6326967" lon="12.734745"><ele>617.0</ele><time>2026-04-04T14:25:01.691Z</time></trkpt><trkpt lat="43.6326867" lon="12.7345533"><ele>616.75</ele><time>2026-04-04T14:25:02.69Z</time></trkpt><trkpt lat="43.63267" lon="12.7343533"><ele>616.5</ele><time>2026-04-04T14:25:03.686Z</time></trkpt><trkpt lat="43.6326633" lon="12.7341683"><ele>616.25</ele><time>2026-04-04T14:25:04.688Z</time></trkpt><trkpt lat="43.6326667" lon="12.73399"><ele>616.0</ele><time>2026-04-04T14:25:05.689Z</time></trkpt><trkpt lat="43.632665" lon="12.73381"><ele>616.0</ele><time>2026-04-04T14:25:06.686Z</time></trkpt><trkpt lat="43.632665" lon="12.7336283"><ele>616.0</ele><time>2026-04-04T14:25:07.689Z</time></trkpt><trkpt lat="43.6326567" lon="12.73344"><ele>616.0</ele><time>2026-04-04T14:25:08.687Z</time></trkpt><trkpt lat="43.6326433" lon="12.7332467"><ele>616.0</ele><time>2026-04-04T14:25:09.689Z</time></trkpt><trkpt lat="43.632635" lon="12.7330583"><ele>616.25</ele><time>2026-04-04T14:25:10.688Z</time></trkpt><trkpt lat="43.632625" lon="12.732875"><ele>616.5</ele><time>2026-04-04T14:25:11.689Z</time></trkpt><trkpt lat="43.6326167" lon="12.7327083"><ele>616.75</ele><time>2026-04-04T14:25:12.687Z</time></trkpt><trkpt lat="43.6326117" lon="12.73256"><ele>617.0</ele><time>2026-04-04T14:25:13.689Z</time></trkpt><trkpt lat="43.6325967" lon="12.7322917"><ele>617.0</ele><time>2026-04-04T14:25:15.687Z</time></trkpt><trkpt lat="43.6325767" lon="12.7321833"><ele>617.0</ele><time>2026-04-04T14:25:16.688Z</time></trkpt><trkpt lat="43.63255" lon="12.7320967"><ele>617.0</ele><time>2026-04-04T14:25:17.687Z</time></trkpt><trkpt lat="43.632485" lon="12.7320117"><ele>617.0</ele><time>2026-04-04T14:25:19.688Z</time></trkpt><trkpt lat="43.6323983" lon="12.73213"><ele>617.0</ele><time>2026-04-04T14:25:21.688Z</time></trkpt><trkpt lat="43.6323133" lon="12.73223"><ele>617.0</ele><time>2026-04-04T14:25:22.687Z</time></trkpt><trkpt lat="43.6322383" lon="12.7323183"><ele>617.0</ele><time>2026-04-04T14:25:23.689Z</time></trkpt><trkpt lat="43.63217" lon="12.7324067"><ele>617.0</ele><time>2026-04-04T14:25:24.688Z</time></trkpt><trkpt lat="43.63211" lon="12.732485"><ele>617.0</ele><time>2026-04-04T14:25:25.687Z</time></trkpt><trkpt lat="43.632055" lon="12.7325567"><ele>617.0</ele><time>2026-04-04T14:25:26.686Z</time></trkpt><trkpt lat="43.6320083" lon="12.7326217"><ele>617.0</ele><time>2026-04-04T14:25:27.687Z</time></trkpt><trkpt lat="43.63199" lon="12.7327983"><ele>617.0</ele><time>2026-04-04T14:25:29.688Z</time></trkpt><trkpt lat="43.6319983" lon="12.7329183"><ele>617.0</ele><time>2026-04-04T14:25:30.691Z</time></trkpt><trkpt lat="43.6320033" lon="12.7330667"><ele>617.0</ele><time>2026-04-04T14:25:31.689Z</time></trkpt><trkpt lat="43.631995" lon="12.7332133"><ele>617.0</ele><time>2026-04-04T14:25:32.687Z</time></trkpt><trkpt lat="43.6319817" lon="12.7333533"><ele>617.0</ele><time>2026-04-04T14:25:33.687Z</time></trkpt><trkpt lat="43.6319683" lon="12.733475"><ele>616.8000000000001</ele><time>2026-04-04T14:25:34.691Z</time></trkpt><trkpt lat="43.6319567" lon="12.7336783"><ele>616.6</ele><time>2026-04-04T14:25:36.688Z</time></trkpt><trkpt lat="43.6319717" lon="12.7337817"><ele>616.4000000000001</ele><time>2026-04-04T14:25:37.689Z</time></trkpt><trkpt lat="43.6319967" lon="12.7338833"><ele>616.2</ele><time>2026-04-04T14:25:38.687Z</time></trkpt><trkpt lat="43.6320133" lon="12.733985"><ele>616.0</ele><time>2026-04-04T14:25:39.688Z</time></trkpt><trkpt lat="43.6320183" lon="12.734095"><ele>616.0</ele><time>2026-04-04T14:25:40.687Z</time></trkpt><trkpt lat="43.6320167" lon="12.73422"><ele>616.0</ele><time>2026-04-04T14:25:41.688Z</time></trkpt><trkpt lat="43.6319983" lon="12.734365"><ele>616.0</ele><time>2026-04-04T14:25:42.689Z</time></trkpt><trkpt lat="43.6319833" lon="12.7345183"><ele>616.0</ele><time>2026-04-04T14:25:43.691Z</time></trkpt><trkpt lat="43.6319683" lon="12.7346633"><ele>616.0</ele><time>2026-04-04T14:25:44.689Z</time></trkpt><trkpt lat="43.6319483" lon="12.7348017"><ele>622.75</ele><time>2026-04-04T14:25:45.691Z</time></trkpt><trkpt lat="43.6319317" lon="12.7349483"><ele>629.5</ele><time>2026-04-04T14:25:46.688Z</time></trkpt><trkpt lat="43.6319217" lon="12.7351"><ele>636.25</ele><time>2026-04-04T14:25:47.691Z</time></trkpt><trkpt lat="43.631915" lon="12.73526"><ele>643.0</ele><time>2026-04-04T14:25:48.688Z</time></trkpt><trkpt lat="43.63191" lon="12.7354267"><ele>645.25</ele><time>2026-04-04T14:25:49.688Z</time></trkpt><trkpt lat="43.631905" lon="12.7355917"><ele>647.5</ele><time>2026-04-04T14:25:50.687Z</time></trkpt><trkpt lat="43.6319" lon="12.7357533"><ele>649.75</ele><time>2026-04-04T14:25:51.688Z</time></trkpt><trkpt lat="43.631905" lon="12.7359217"><ele>652.0</ele><time>2026-04-04T14:25:52.692Z</time></trkpt><trkpt lat="43.6319067" lon="12.736085"><ele>654.75</ele><time>2026-04-04T14:25:53.69Z</time></trkpt><trkpt lat="43.6319033" lon="12.7362433"><ele>657.5</ele><time>2026-04-04T14:25:54.688Z</time></trkpt><trkpt lat="43.631895" lon="12.7363967"><ele>660.25</ele><time>2026-04-04T14:25:55.689Z</time></trkpt><trkpt lat="43.631865" lon="12.7367017"><ele>663.0</ele><time>2026-04-04T14:25:57.686Z</time></trkpt><trkpt lat="43.631855" lon="12.7368617"><ele>666.25</ele><time>2026-04-04T14:25:58.689Z</time></trkpt><trkpt lat="43.6318433" lon="12.737025"><ele>669.5</ele><time>2026-04-04T14:25:59.689Z</time></trkpt><trkpt lat="43.63183" lon="12.7371883"><ele>672.75</ele><time>2026-04-04T14:26:00.687Z</time></trkpt><trkpt lat="43.631815" lon="12.7373467"><ele>676.0</ele><time>2026-04-04T14:26:01.69Z</time></trkpt><trkpt lat="43.6318017" lon="12.7374983"><ele>676.0</ele><time>2026-04-04T14:26:02.688Z</time></trkpt><trkpt lat="43.6317933" lon="12.7376467"><ele>676.0</ele><time>2026-04-04T14:26:03.687Z</time></trkpt><trkpt lat="43.6317817" lon="12.737795"><ele>676.0</ele><time>2026-04-04T14:26:04.689Z</time></trkpt><trkpt lat="43.63177" lon="12.737945"><ele>676.0</ele><time>2026-04-04T14:26:05.687Z</time></trkpt><trkpt lat="43.6317567" lon="12.7380933"><ele>676.0</ele><time>2026-04-04T14:26:06.689Z</time></trkpt><trkpt lat="43.63174" lon="12.7382367"><ele>676.4</ele><time>2026-04-04T14:26:07.688Z</time></trkpt><trkpt lat="43.631725" lon="12.73839"><ele>676.8</ele><time>2026-04-04T14:26:08.689Z</time></trkpt><trkpt lat="43.631705" lon="12.73854"><ele>677.1999999999999</ele><time>2026-04-04T14:26:09.686Z</time></trkpt><trkpt lat="43.63168" lon="12.7386933"><ele>677.5999999999999</ele><time>2026-04-04T14:26:10.688Z</time></trkpt><trkpt lat="43.631655" lon="12.7388433"><ele>678.0</ele><time>2026-04-04T14:26:11.688Z</time></trkpt><trkpt lat="43.6316333" lon="12.7389833"><ele>676.8</ele><time>2026-04-04T14:26:12.689Z</time></trkpt><trkpt lat="43.6316117" lon="12.739125"><ele>675.5999999999999</ele><time>2026-04-04T14:26:13.691Z</time></trkpt><trkpt lat="43.631585" lon="12.7392767"><ele>674.4000000000001</ele><time>2026-04-04T14:26:14.69Z</time></trkpt><trkpt lat="43.6315633" lon="12.7394317"><ele>673.2</ele><time>2026-04-04T14:26:15.691Z</time></trkpt><trkpt lat="43.6315333" lon="12.7395783"><ele>672.0</ele><time>2026-04-04T14:26:16.691Z</time></trkpt><trkpt lat="43.6314533" lon="12.739915"><ele>667.25</ele><time>2026-04-04T14:26:18.688Z</time></trkpt><trkpt lat="43.6314167" lon="12.74008"><ele>662.5</ele><time>2026-04-04T14:26:19.689Z</time></trkpt><trkpt lat="43.6313683" lon="12.7402483"><ele>657.75</ele><time>2026-04-04T14:26:20.691Z</time></trkpt><trkpt lat="43.6313217" lon="12.7404067"><ele>653.0</ele><time>2026-04-04T14:26:21.686Z</time></trkpt><trkpt lat="43.6312867" lon="12.740555"><ele>652.0</ele><time>2026-04-04T14:26:22.688Z</time></trkpt><trkpt lat="43.6312467" lon="12.7406917"><ele>651.0</ele><time>2026-04-04T14:26:23.687Z</time></trkpt><trkpt lat="43.6312" lon="12.7408367"><ele>650.0</ele><time>2026-04-04T14:26:24.686Z</time></trkpt><trkpt lat="43.63115" lon="12.7409867"><ele>649.0</ele><time>2026-04-04T14:26:25.69Z</time></trkpt><trkpt lat="43.6310867" lon="12.7411317"><ele>654.1666666666667</ele><time>2026-04-04T14:26:26.689Z</time></trkpt><trkpt lat="43.6310433" lon="12.7412633"><ele>659.3333333333334</ele><time>2026-04-04T14:26:27.69Z</time></trkpt><trkpt lat="43.63101" lon="12.741385"><ele>664.5</ele><time>2026-04-04T14:26:28.69Z</time></trkpt><trkpt lat="43.6309767" lon="12.7414917"><ele>669.6666666666666</ele><time>2026-04-04T14:26:29.689Z</time></trkpt><trkpt lat="43.630935" lon="12.7415867"><ele>674.8333333333333</ele><time>2026-04-04T14:26:30.692Z</time></trkpt><trkpt lat="43.630895" lon="12.7416767"><ele>680.0</ele><time>2026-04-04T14:26:31.69Z</time></trkpt><trkpt lat="43.63086" lon="12.74177"><ele>680.0</ele><time>2026-04-04T14:26:32.689Z</time></trkpt><trkpt lat="43.6308317" lon="12.74185"><ele>680.0</ele><time>2026-04-04T14:26:33.689Z</time></trkpt><trkpt lat="43.6308017" lon="12.74193"><ele>680.0</ele><time>2026-04-04T14:26:34.692Z</time></trkpt><trkpt lat="43.6307533" lon="12.7420083"><ele>680.0</ele><time>2026-04-04T14:26:35.69Z</time></trkpt><trkpt lat="43.63071" lon="12.7420733"><ele>680.0</ele><time>2026-04-04T14:26:36.689Z</time></trkpt><trkpt lat="43.6306733" lon="12.742215"><ele>680.0</ele><time>2026-04-04T14:26:38.69Z</time></trkpt><trkpt lat="43.6306467" lon="12.7425083"><ele>679.5</ele><time>2026-04-04T14:26:42.689Z</time></trkpt><trkpt lat="43.6306633" lon="12.7425967"><ele>679.0</ele><time>2026-04-04T14:26:43.69Z</time></trkpt><trkpt lat="43.6306983" lon="12.7426733"><ele>678.5</ele><time>2026-04-04T14:26:44.689Z</time></trkpt><trkpt lat="43.63074" lon="12.742755"><ele>678.0</ele><time>2026-04-04T14:26:45.688Z</time></trkpt><trkpt lat="43.6308017" lon="12.742815"><ele>677.5</ele><time>2026-04-04T14:26:46.689Z</time></trkpt><trkpt lat="43.6308733" lon="12.7428633"><ele>677.0</ele><time>2026-04-04T14:26:47.69Z</time></trkpt><trkpt lat="43.6309667" lon="12.7428883"><ele>676.8</ele><time>2026-04-04T14:26:48.69Z</time></trkpt><trkpt lat="43.6310517" lon="12.7428883"><ele>676.6</ele><time>2026-04-04T14:26:49.692Z</time></trkpt><trkpt lat="43.6311317" lon="12.74288"><ele>676.4</ele><time>2026-04-04T14:26:50.689Z</time></trkpt><trkpt lat="43.631215" lon="12.74282"><ele>676.1999999999999</ele><time>2026-04-04T14:26:51.688Z</time></trkpt><trkpt lat="43.6313033" lon="12.7427567"><ele>676.0</ele><time>2026-04-04T14:26:52.687Z</time></trkpt><trkpt lat="43.6314083" lon="12.7426867"><ele>676.0</ele><time>2026-04-04T14:26:53.69Z</time></trkpt><trkpt lat="43.631515" lon="12.7426033"><ele>676.0</ele><time>2026-04-04T14:26:54.69Z</time></trkpt><trkpt lat="43.63163" lon="12.742515"><ele>676.0</ele><time>2026-04-04T14:26:55.69Z</time></trkpt><trkpt lat="43.631755" lon="12.7424333"><ele>676.0</ele><time>2026-04-04T14:26:56.69Z</time></trkpt><trkpt lat="43.6318867" lon="12.7423417"><ele>681.0</ele><time>2026-04-04T14:26:57.688Z</time></trkpt><trkpt lat="43.632015" lon="12.7422533"><ele>686.0</ele><time>2026-04-04T14:26:58.69Z</time></trkpt><trkpt lat="43.632145" lon="12.74217"><ele>691.0</ele><time>2026-04-04T14:26:59.692Z</time></trkpt><trkpt lat="43.6323917" lon="12.742015"><ele>691.0</ele><time>2026-04-04T14:27:01.69Z</time></trkpt><trkpt lat="43.6325167" lon="12.7419417"><ele>691.0</ele><time>2026-04-04T14:27:02.689Z</time></trkpt><trkpt lat="43.632645" lon="12.7418683"><ele>691.0</ele><time>2026-04-04T14:27:03.69Z</time></trkpt><trkpt lat="43.6327717" lon="12.7417983"><ele>691.0</ele><time>2026-04-04T14:27:04.692Z</time></trkpt><trkpt lat="43.6329017" lon="12.741725"><ele>689.25</ele><time>2026-04-04T14:27:05.693Z</time></trkpt><trkpt lat="43.6330317" lon="12.7416533"><ele>687.5</ele><time>2026-04-04T14:27:06.69Z</time></trkpt><trkpt lat="43.63316" lon="12.7415833"><ele>685.75</ele><time>2026-04-04T14:27:07.69Z</time></trkpt><trkpt lat="43.6332883" lon="12.74151"><ele>684.0</ele><time>2026-04-04T14:27:08.692Z</time></trkpt><trkpt lat="43.6334083" lon="12.7414233"><ele>684.0</ele><time>2026-04-04T14:27:09.689Z</time></trkpt><trkpt lat="43.6335283" lon="12.7413317"><ele>684.0</ele><time>2026-04-04T14:27:10.687Z</time></trkpt><trkpt lat="43.6336433" lon="12.74124"><ele>684.0</ele><time>2026-04-04T14:27:11.69Z</time></trkpt><trkpt lat="43.63375" lon="12.74115"><ele>684.0</ele><time>2026-04-04T14:27:12.689Z</time></trkpt><trkpt lat="43.6338467" lon="12.7410583"><ele>683.5</ele><time>2026-04-04T14:27:13.69Z</time></trkpt><trkpt lat="43.633935" lon="12.7409683"><ele>683.0</ele><time>2026-04-04T14:27:14.688Z</time></trkpt><trkpt lat="43.6340283" lon="12.740875"><ele>682.5</ele><time>2026-04-04T14:27:15.688Z</time></trkpt><trkpt lat="43.63413" lon="12.7407783"><ele>682.0</ele><time>2026-04-04T14:27:16.69Z</time></trkpt><trkpt lat="43.6342467" lon="12.740675"><ele>682.0</ele><time>2026-04-04T14:27:17.687Z</time></trkpt><trkpt lat="43.634365" lon="12.74057"><ele>682.0</ele><time>2026-04-04T14:27:18.689Z</time></trkpt><trkpt lat="43.6344817" lon="12.74046"><ele>682.0</ele><time>2026-04-04T14:27:19.688Z</time></trkpt><trkpt lat="43.6345917" lon="12.74035"><ele>682.0</ele><time>2026-04-04T14:27:20.687Z</time></trkpt><trkpt lat="43.6347883" lon="12.7401117"><ele>683.25</ele><time>2026-04-04T14:27:22.687Z</time></trkpt><trkpt lat="43.6348883" lon="12.7399767"><ele>684.5</ele><time>2026-04-04T14:27:23.688Z</time></trkpt><trkpt lat="43.6349883" lon="12.7398333"><ele>685.75</ele><time>2026-04-04T14:27:24.688Z</time></trkpt><trkpt lat="43.6350933" lon="12.739685"><ele>687.0</ele><time>2026-04-04T14:27:25.691Z</time></trkpt><trkpt lat="43.6351917" lon="12.73953"><ele>689.5</ele><time>2026-04-04T14:27:26.688Z</time></trkpt><trkpt lat="43.6352833" lon="12.7393733"><ele>692.0</ele><time>2026-04-04T14:27:27.687Z</time></trkpt><trkpt lat="43.6353817" lon="12.739225"><ele>694.5</ele><time>2026-04-04T14:27:28.687Z</time></trkpt><trkpt lat="43.635475" lon="12.7390783"><ele>697.0</ele><time>2026-04-04T14:27:29.689Z</time></trkpt><trkpt lat="43.635565" lon="12.7389417"><ele>697.0</ele><time>2026-04-04T14:27:30.687Z</time></trkpt><trkpt lat="43.63565" lon="12.7388167"><ele>697.0</ele><time>2026-04-04T14:27:31.689Z</time></trkpt><trkpt lat="43.6357367" lon="12.7386967"><ele>697.0</ele><time>2026-04-04T14:27:32.688Z</time></trkpt><trkpt lat="43.63582" lon="12.7385817"><ele>697.0</ele><time>2026-04-04T14:27:33.689Z</time></trkpt><trkpt lat="43.6359" lon="12.7384733"><ele>695.0</ele><time>2026-04-04T14:27:34.687Z</time></trkpt><trkpt lat="43.6359767" lon="12.738375"><ele>693.0</ele><time>2026-04-04T14:27:35.689Z</time></trkpt><trkpt lat="43.63605" lon="12.73829"><ele>691.0</ele><time>2026-04-04T14:27:36.688Z</time></trkpt><trkpt lat="43.6361267" lon="12.7382217"><ele>689.0</ele><time>2026-04-04T14:27:37.688Z</time></trkpt><trkpt lat="43.6362033" lon="12.7381667"><ele>687.0</ele><time>2026-04-04T14:27:38.688Z</time></trkpt><trkpt lat="43.636285" lon="12.7381233"><ele>687.0</ele><time>2026-04-04T14:27:39.687Z</time></trkpt><trkpt lat="43.6363667" lon="12.7381"><ele>687.0</ele><time>2026-04-04T14:27:40.688Z</time></trkpt><trkpt lat="43.63644" lon="12.7380867"><ele>687.0</ele><time>2026-04-04T14:27:41.69Z</time></trkpt><trkpt lat="43.6365733" lon="12.738065"><ele>687.0</ele><time>2026-04-04T14:27:43.689Z</time></trkpt><trkpt lat="43.6366417" lon="12.7380583"><ele>687.0</ele><time>2026-04-04T14:27:44.688Z</time></trkpt><trkpt lat="43.636715" lon="12.738055"><ele>687.0</ele><time>2026-04-04T14:27:45.689Z</time></trkpt><trkpt lat="43.6367967" lon="12.7380517"><ele>687.0</ele><time>2026-04-04T14:27:46.687Z</time></trkpt><trkpt lat="43.6368883" lon="12.73805"><ele>687.0</ele><time>2026-04-04T14:27:47.695Z</time></trkpt><trkpt lat="43.6369933" lon="12.7380533"><ele>687.0</ele><time>2026-04-04T14:27:48.688Z</time></trkpt><trkpt lat="43.637105" lon="12.7380667"><ele>687.0</ele><time>2026-04-04T14:27:49.69Z</time></trkpt><trkpt lat="43.637225" lon="12.73809"><ele>687.0</ele><time>2026-04-04T14:27:50.689Z</time></trkpt><trkpt lat="43.637355" lon="12.738125"><ele>688.0</ele><time>2026-04-04T14:27:51.687Z</time></trkpt><trkpt lat="43.637485" lon="12.7381667"><ele>689.0</ele><time>2026-04-04T14:27:52.691Z</time></trkpt><trkpt lat="43.63761" lon="12.73821"><ele>690.0</ele><time>2026-04-04T14:27:53.688Z</time></trkpt><trkpt lat="43.6377383" lon="12.7382567"><ele>691.0</ele><time>2026-04-04T14:27:54.689Z</time></trkpt><trkpt lat="43.6378617" lon="12.738305"><ele>688.0</ele><time>2026-04-04T14:27:55.689Z</time></trkpt><trkpt lat="43.637985" lon="12.738355"><ele>685.0</ele><time>2026-04-04T14:27:56.688Z</time></trkpt><trkpt lat="43.63811" lon="12.7384083"><ele>682.0</ele><time>2026-04-04T14:27:57.687Z</time></trkpt><trkpt lat="43.638235" lon="12.7384633"><ele>679.0</ele><time>2026-04-04T14:27:58.691Z</time></trkpt><trkpt lat="43.63836" lon="12.73852"><ele>681.5</ele><time>2026-04-04T14:27:59.689Z</time></trkpt><trkpt lat="43.6384817" lon="12.738575"><ele>684.0</ele><time>2026-04-04T14:28:00.688Z</time></trkpt><trkpt lat="43.63861" lon="12.7386317"><ele>686.5</ele><time>2026-04-04T14:28:01.689Z</time></trkpt><trkpt lat="43.6387367" lon="12.73869"><ele>689.0</ele><time>2026-04-04T14:28:02.689Z</time></trkpt><trkpt lat="43.6389967" lon="12.7388167"><ele>689.0</ele><time>2026-04-04T14:28:04.689Z</time></trkpt><trkpt lat="43.6391283" lon="12.738885"><ele>689.0</ele><time>2026-04-04T14:28:05.688Z</time></trkpt><trkpt lat="43.63926" lon="12.7389617"><ele>689.0</ele><time>2026-04-04T14:28:06.689Z</time></trkpt><trkpt lat="43.6393867" lon="12.7390333"><ele>689.0</ele><time>2026-04-04T14:28:07.691Z</time></trkpt><trkpt lat="43.6395167" lon="12.739105"><ele>686.5</ele><time>2026-04-04T14:28:08.688Z</time></trkpt><trkpt lat="43.6396433" lon="12.739175"><ele>684.0</ele><time>2026-04-04T14:28:09.689Z</time></trkpt><trkpt lat="43.6397567" lon="12.7392417"><ele>681.5</ele><time>2026-04-04T14:28:10.689Z</time></trkpt><trkpt lat="43.63986" lon="12.7392983"><ele>679.0</ele><time>2026-04-04T14:28:11.689Z</time></trkpt><trkpt lat="43.6399633" lon="12.7393467"><ele>680.0</ele><time>2026-04-04T14:28:12.689Z</time></trkpt><trkpt lat="43.6400567" lon="12.7393867"><ele>681.0</ele><time>2026-04-04T14:28:13.689Z</time></trkpt><trkpt lat="43.640145" lon="12.7394133"><ele>682.0</ele><time>2026-04-04T14:28:14.688Z</time></trkpt><trkpt lat="43.6402233" lon="12.7394317"><ele>683.0</ele><time>2026-04-04T14:28:15.688Z</time></trkpt><trkpt lat="43.6403267" lon="12.7394667"><ele>684.0</ele><time>2026-04-04T14:28:17.687Z</time></trkpt><trkpt lat="43.6403583" lon="12.739545"><ele>685.0</ele><time>2026-04-04T14:28:19.688Z</time></trkpt><trkpt lat="43.6403217" lon="12.73967"><ele>685.2</ele><time>2026-04-04T14:28:21.689Z</time></trkpt><trkpt lat="43.6402833" lon="12.7397583"><ele>685.4</ele><time>2026-04-04T14:28:22.691Z</time></trkpt><trkpt lat="43.6402483" lon="12.7398567"><ele>685.5999999999999</ele><time>2026-04-04T14:28:23.688Z</time></trkpt><trkpt lat="43.6401717" lon="12.7400517"><ele>685.8</ele><time>2026-04-04T14:28:25.689Z</time></trkpt><trkpt lat="43.64013" lon="12.7401433"><ele>686.0</ele><time>2026-04-04T14:28:26.689Z</time></trkpt><trkpt lat="43.6400817" lon="12.74023"><ele>686.0</ele><time>2026-04-04T14:28:27.687Z</time></trkpt><trkpt lat="43.64003" lon="12.7403167"><ele>686.0</ele><time>2026-04-04T14:28:28.691Z</time></trkpt><trkpt lat="43.639975" lon="12.740395"><ele>686.0</ele><time>2026-04-04T14:28:29.687Z</time></trkpt><trkpt lat="43.639905" lon="12.7404617"><ele>686.0</ele><time>2026-04-04T14:28:30.689Z</time></trkpt><trkpt lat="43.63982" lon="12.7405183"><ele>686.0</ele><time>2026-04-04T14:28:31.688Z</time></trkpt><trkpt lat="43.63972" lon="12.740575"><ele>686.0</ele><time>2026-04-04T14:28:32.688Z</time></trkpt><trkpt lat="43.63961" lon="12.74063"><ele>686.0</ele><time>2026-04-04T14:28:33.688Z</time></trkpt><trkpt lat="43.6394917" lon="12.74069"><ele>686.0</ele><time>2026-04-04T14:28:34.687Z</time></trkpt><trkpt lat="43.6393733" lon="12.7407533"><ele>686.0</ele><time>2026-04-04T14:28:35.689Z</time></trkpt><trkpt lat="43.639255" lon="12.7408183"><ele>686.0</ele><time>2026-04-04T14:28:36.688Z</time></trkpt><trkpt lat="43.6391383" lon="12.7408817"><ele>688.0</ele><time>2026-04-04T14:28:37.688Z</time></trkpt><trkpt lat="43.6390283" lon="12.7409533"><ele>690.0</ele><time>2026-04-04T14:28:38.689Z</time></trkpt><trkpt lat="43.6389217" lon="12.7410383"><ele>692.0</ele><time>2026-04-04T14:28:39.687Z</time></trkpt><trkpt lat="43.638825" lon="12.7411317"><ele>694.0</ele><time>2026-04-04T14:28:40.69Z</time></trkpt><trkpt lat="43.6387383" lon="12.7412317"><ele>694.0</ele><time>2026-04-04T14:28:41.689Z</time></trkpt><trkpt lat="43.6386667" lon="12.741325"><ele>694.0</ele><time>2026-04-04T14:28:42.69Z</time></trkpt><trkpt lat="43.6386017" lon="12.74141"><ele>694.0</ele><time>2026-04-04T14:28:43.69Z</time></trkpt><trkpt lat="43.6385533" lon="12.74149"><ele>694.0</ele><time>2026-04-04T14:28:44.688Z</time></trkpt><trkpt lat="43.63851" lon="12.741675"><ele>694.0</ele><time>2026-04-04T14:28:46.69Z</time></trkpt><trkpt lat="43.63851" lon="12.7417817"><ele>699.3333333333334</ele><time>2026-04-04T14:28:47.69Z</time></trkpt><trkpt lat="43.6385217" lon="12.7418933"><ele>704.6666666666667</ele><time>2026-04-04T14:28:48.688Z</time></trkpt><trkpt lat="43.6385367" lon="12.7420167"><ele>710.0</ele><time>2026-04-04T14:28:49.689Z</time></trkpt><trkpt lat="43.6385467" lon="12.7421383"><ele>715.3333333333334</ele><time>2026-04-04T14:28:50.689Z</time></trkpt><trkpt lat="43.638555" lon="12.7422583"><ele>720.6666666666666</ele><time>2026-04-04T14:28:51.69Z</time></trkpt><trkpt lat="43.6385683" lon="12.74238"><ele>726.0</ele><time>2026-04-04T14:28:52.688Z</time></trkpt><trkpt lat="43.638585" lon="12.74251"><ele>726.0</ele><time>2026-04-04T14:28:53.689Z</time></trkpt><trkpt lat="43.6386133" lon="12.7426417"><ele>726.0</ele><time>2026-04-04T14:28:54.689Z</time></trkpt><trkpt lat="43.6386517" lon="12.7427717"><ele>726.0</ele><time>2026-04-04T14:28:55.69Z</time></trkpt><trkpt lat="43.6386933" lon="12.7429"><ele>726.0</ele><time>2026-04-04T14:28:56.688Z</time></trkpt><trkpt lat="43.6387383" lon="12.7430317"><ele>726.0</ele><time>2026-04-04T14:28:57.688Z</time></trkpt><trkpt lat="43.6387917" lon="12.74316"><ele>723.75</ele><time>2026-04-04T14:28:58.689Z</time></trkpt><trkpt lat="43.6388533" lon="12.7433"><ele>721.5</ele><time>2026-04-04T14:28:59.688Z</time></trkpt><trkpt lat="43.6389167" lon="12.74345"><ele>719.25</ele><time>2026-04-04T14:29:00.689Z</time></trkpt><trkpt lat="43.63899" lon="12.7436017"><ele>717.0</ele><time>2026-04-04T14:29:01.688Z</time></trkpt><trkpt lat="43.6390717" lon="12.743745"><ele>722.75</ele><time>2026-04-04T14:29:02.689Z</time></trkpt><trkpt lat="43.6391483" lon="12.7438917"><ele>728.5</ele><time>2026-04-04T14:29:03.686Z</time></trkpt><trkpt lat="43.63923" lon="12.74404"><ele>734.25</ele><time>2026-04-04T14:29:04.689Z</time></trkpt><trkpt lat="43.6393017" lon="12.7441817"><ele>740.0</ele><time>2026-04-04T14:29:05.689Z</time></trkpt><trkpt lat="43.6394483" lon="12.74445"><ele>736.2</ele><time>2026-04-04T14:29:07.688Z</time></trkpt><trkpt lat="43.639505" lon="12.744575"><ele>732.4</ele><time>2026-04-04T14:29:08.69Z</time></trkpt><trkpt lat="43.639565" lon="12.7446917"><ele>728.5999999999999</ele><time>2026-04-04T14:29:09.69Z</time></trkpt><trkpt lat="43.6396233" lon="12.7448067"><ele>724.8</ele><time>2026-04-04T14:29:10.691Z</time></trkpt><trkpt lat="43.6396783" lon="12.7449183"><ele>721.0</ele><time>2026-04-04T14:29:11.689Z</time></trkpt><trkpt lat="43.63974" lon="12.7450183"><ele>721.0</ele><time>2026-04-04T14:29:12.69Z</time></trkpt><trkpt lat="43.6398167" lon="12.7451033"><ele>721.0</ele><time>2026-04-04T14:29:13.691Z</time></trkpt><trkpt lat="43.6399017" lon="12.74519"><ele>721.0</ele><time>2026-04-04T14:29:14.689Z</time></trkpt><trkpt lat="43.6399983" lon="12.7452783"><ele>721.0</ele><time>2026-04-04T14:29:15.689Z</time></trkpt><trkpt lat="43.6401" lon="12.7453717"><ele>721.0</ele><time>2026-04-04T14:29:16.69Z</time></trkpt><trkpt lat="43.64021" lon="12.7454817"><ele>720.0</ele><time>2026-04-04T14:29:17.692Z</time></trkpt><trkpt lat="43.6403217" lon="12.7456"><ele>719.0</ele><time>2026-04-04T14:29:18.692Z</time></trkpt><trkpt lat="43.6404333" lon="12.745725"><ele>718.0</ele><time>2026-04-04T14:29:19.691Z</time></trkpt><trkpt lat="43.64054" lon="12.74585"><ele>717.0</ele><time>2026-04-04T14:29:20.691Z</time></trkpt><trkpt lat="43.6406467" lon="12.74598"><ele>725.75</ele><time>2026-04-04T14:29:21.689Z</time></trkpt><trkpt lat="43.64075" lon="12.7461067"><ele>734.5</ele><time>2026-04-04T14:29:22.692Z</time></trkpt><trkpt lat="43.6408417" lon="12.7462333"><ele>743.25</ele><time>2026-04-04T14:29:23.69Z</time></trkpt><trkpt lat="43.6409233" lon="12.746355"><ele>752.0</ele><time>2026-04-04T14:29:24.691Z</time></trkpt><trkpt lat="43.6410117" lon="12.746475"><ele>752.0</ele><time>2026-04-04T14:29:25.694Z</time></trkpt><trkpt lat="43.6411" lon="12.7466"><ele>752.0</ele><time>2026-04-04T14:29:26.69Z</time></trkpt><trkpt lat="43.6412933" lon="12.7468517"><ele>752.0</ele><time>2026-04-04T14:29:28.69Z</time></trkpt><trkpt lat="43.6414083" lon="12.7469667"><ele>751.75</ele><time>2026-04-04T14:29:29.69Z</time></trkpt><trkpt lat="43.6415233" lon="12.7470833"><ele>751.5</ele><time>2026-04-04T14:29:30.69Z</time></trkpt><trkpt lat="43.6416383" lon="12.7472"><ele>751.25</ele><time>2026-04-04T14:29:31.689Z</time></trkpt><trkpt lat="43.641755" lon="12.7473233"><ele>751.0</ele><time>2026-04-04T14:29:32.691Z</time></trkpt><trkpt lat="43.6418683" lon="12.7474383"><ele>751.0</ele><time>2026-04-04T14:29:33.687Z</time></trkpt><trkpt lat="43.6419783" lon="12.747565"><ele>751.0</ele><time>2026-04-04T14:29:34.689Z</time></trkpt><trkpt lat="43.64209" lon="12.7476767"><ele>751.0</ele><time>2026-04-04T14:29:35.69Z</time></trkpt><trkpt lat="43.642205" lon="12.7478017"><ele>751.0</ele><time>2026-04-04T14:29:36.69Z</time></trkpt><trkpt lat="43.6423217" lon="12.7479167"><ele>751.0</ele><time>2026-04-04T14:29:37.689Z</time></trkpt><trkpt lat="43.64244" lon="12.7480183"><ele>751.0</ele><time>2026-04-04T14:29:38.688Z</time></trkpt><trkpt lat="43.642555" lon="12.7481217"><ele>751.0</ele><time>2026-04-04T14:29:39.688Z</time></trkpt><trkpt lat="43.6426683" lon="12.74822"><ele>751.0</ele><time>2026-04-04T14:29:40.687Z</time></trkpt><trkpt lat="43.6427883" lon="12.748325"><ele>750.25</ele><time>2026-04-04T14:29:41.69Z</time></trkpt><trkpt lat="43.6429117" lon="12.748425"><ele>749.5</ele><time>2026-04-04T14:29:42.69Z</time></trkpt><trkpt lat="43.6430367" lon="12.7485233"><ele>748.75</ele><time>2026-04-04T14:29:43.689Z</time></trkpt><trkpt lat="43.6431567" lon="12.7486217"><ele>748.0</ele><time>2026-04-04T14:29:44.687Z</time></trkpt><trkpt lat="43.6432733" lon="12.7487183"><ele>748.0</ele><time>2026-04-04T14:29:45.687Z</time></trkpt><trkpt lat="43.6433817" lon="12.7488167"><ele>748.0</ele><time>2026-04-04T14:29:46.688Z</time></trkpt><trkpt lat="43.64349" lon="12.748915"><ele>748.0</ele><time>2026-04-04T14:29:47.688Z</time></trkpt><trkpt lat="43.6436817" lon="12.74915"><ele>745.75</ele><time>2026-04-04T14:29:49.69Z</time></trkpt><trkpt lat="43.6437717" lon="12.74927"><ele>743.5</ele><time>2026-04-04T14:29:50.688Z</time></trkpt><trkpt lat="43.6438567" lon="12.7493883"><ele>741.25</ele><time>2026-04-04T14:29:51.687Z</time></trkpt><trkpt lat="43.6439333" lon="12.74952"><ele>739.0</ele><time>2026-04-04T14:29:52.689Z</time></trkpt><trkpt lat="43.64401" lon="12.7496567"><ele>739.0</ele><time>2026-04-04T14:29:53.688Z</time></trkpt><trkpt lat="43.6440717" lon="12.7497833"><ele>739.0</ele><time>2026-04-04T14:29:54.689Z</time></trkpt><trkpt lat="43.64412" lon="12.7499217"><ele>739.0</ele><time>2026-04-04T14:29:55.686Z</time></trkpt><trkpt lat="43.64415" lon="12.75008"><ele>739.0</ele><time>2026-04-04T14:29:56.686Z</time></trkpt><trkpt lat="43.6441817" lon="12.75025"><ele>742.25</ele><time>2026-04-04T14:29:57.685Z</time></trkpt><trkpt lat="43.6442117" lon="12.75043"><ele>745.5</ele><time>2026-04-04T14:29:58.688Z</time></trkpt><trkpt lat="43.6442367" lon="12.7505933"><ele>748.75</ele><time>2026-04-04T14:29:59.688Z</time></trkpt><trkpt lat="43.6442517" lon="12.7507567"><ele>752.0</ele><time>2026-04-04T14:30:00.687Z</time></trkpt><trkpt lat="43.6442583" lon="12.7509183"><ele>752.75</ele><time>2026-04-04T14:30:01.69Z</time></trkpt><trkpt lat="43.6442583" lon="12.751075"><ele>753.5</ele><time>2026-04-04T14:30:02.687Z</time></trkpt><trkpt lat="43.64427" lon="12.7512333"><ele>754.25</ele><time>2026-04-04T14:30:03.686Z</time></trkpt><trkpt lat="43.6442867" lon="12.7513867"><ele>755.0</ele><time>2026-04-04T14:30:04.689Z</time></trkpt><trkpt lat="43.6442967" lon="12.7515483"><ele>755.0</ele><time>2026-04-04T14:30:05.689Z</time></trkpt><trkpt lat="43.6443017" lon="12.75171"><ele>755.0</ele><time>2026-04-04T14:30:06.687Z</time></trkpt><trkpt lat="43.6443083" lon="12.7518633"><ele>755.0</ele><time>2026-04-04T14:30:07.689Z</time></trkpt><trkpt lat="43.6443117" lon="12.75201"><ele>755.0</ele><time>2026-04-04T14:30:08.686Z</time></trkpt><trkpt lat="43.6442933" lon="12.752285"><ele>755.0</ele><time>2026-04-04T14:30:10.687Z</time></trkpt><trkpt lat="43.6442617" lon="12.75242"><ele>755.0</ele><time>2026-04-04T14:30:11.689Z</time></trkpt><trkpt lat="43.6442233" lon="12.75255"><ele>755.0</ele><time>2026-04-04T14:30:12.688Z</time></trkpt><trkpt lat="43.64418" lon="12.7526583"><ele>755.0</ele><time>2026-04-04T14:30:13.688Z</time></trkpt><trkpt lat="43.6441133" lon="12.7527433"><ele>755.0</ele><time>2026-04-04T14:30:14.688Z</time></trkpt><trkpt lat="43.6440367" lon="12.7528183"><ele>753.5</ele><time>2026-04-04T14:30:15.685Z</time></trkpt><trkpt lat="43.6439383" lon="12.752885"><ele>752.0</ele><time>2026-04-04T14:30:16.688Z</time></trkpt><trkpt lat="43.64385" lon="12.7529783"><ele>750.5</ele><time>2026-04-04T14:30:17.688Z</time></trkpt><trkpt lat="43.6437733" lon="12.7530933"><ele>749.0</ele><time>2026-04-04T14:30:18.689Z</time></trkpt><trkpt lat="43.6436983" lon="12.753215"><ele>749.75</ele><time>2026-04-04T14:30:19.687Z</time></trkpt><trkpt lat="43.6436233" lon="12.7533433"><ele>750.5</ele><time>2026-04-04T14:30:20.689Z</time></trkpt><trkpt lat="43.64354" lon="12.75347"><ele>751.25</ele><time>2026-04-04T14:30:21.688Z</time></trkpt><trkpt lat="43.6434567" lon="12.75359"><ele>752.0</ele><time>2026-04-04T14:30:22.689Z</time></trkpt><trkpt lat="43.6433667" lon="12.75371"><ele>752.0</ele><time>2026-04-04T14:30:23.691Z</time></trkpt><trkpt lat="43.6432833" lon="12.7538333"><ele>752.0</ele><time>2026-04-04T14:30:24.687Z</time></trkpt><trkpt lat="43.6432167" lon="12.7539333"><ele>752.0</ele><time>2026-04-04T14:30:25.69Z</time></trkpt><trkpt lat="43.64315" lon="12.7540083"><ele>752.0</ele><time>2026-04-04T14:30:26.688Z</time></trkpt><trkpt lat="43.6430817" lon="12.754065"><ele>752.0</ele><time>2026-04-04T14:30:27.687Z</time></trkpt><trkpt lat="43.64301" lon="12.7540883"><ele>752.0</ele><time>2026-04-04T14:30:28.689Z</time></trkpt><trkpt lat="43.64293" lon="12.7540833"><ele>752.0</ele><time>2026-04-04T14:30:29.69Z</time></trkpt><trkpt lat="43.6427867" lon="12.754075"><ele>752.0</ele><time>2026-04-04T14:30:31.688Z</time></trkpt><trkpt lat="43.6427117" lon="12.7540483"><ele>752.0</ele><time>2026-04-04T14:30:32.687Z</time></trkpt><trkpt lat="43.6426283" lon="12.7540083"><ele>752.0</ele><time>2026-04-04T14:30:33.687Z</time></trkpt><trkpt lat="43.642535" lon="12.7539617"><ele>754.2</ele><time>2026-04-04T14:30:34.689Z</time></trkpt><trkpt lat="43.6424467" lon="12.753915"><ele>756.4000000000001</ele><time>2026-04-04T14:30:35.688Z</time></trkpt><trkpt lat="43.6423417" lon="12.753865"><ele>758.5999999999999</ele><time>2026-04-04T14:30:36.69Z</time></trkpt><trkpt lat="43.6422467" lon="12.7538017"><ele>760.8</ele><time>2026-04-04T14:30:37.687Z</time></trkpt><trkpt lat="43.6421567" lon="12.7537483"><ele>763.0</ele><time>2026-04-04T14:30:38.688Z</time></trkpt><trkpt lat="43.642065" lon="12.7537233"><ele>763.0</ele><time>2026-04-04T14:30:39.692Z</time></trkpt><trkpt lat="43.6419783" lon="12.753735"><ele>763.0</ele><time>2026-04-04T14:30:40.691Z</time></trkpt><trkpt lat="43.641895" lon="12.753775"><ele>763.0</ele><time>2026-04-04T14:30:41.688Z</time></trkpt><trkpt lat="43.6418083" lon="12.7538417"><ele>763.0</ele><time>2026-04-04T14:30:42.688Z</time></trkpt><trkpt lat="43.64172" lon="12.7539317"><ele>763.0</ele><time>2026-04-04T14:30:43.688Z</time></trkpt><trkpt lat="43.641675" lon="12.7540317"><ele>764.4</ele><time>2026-04-04T14:30:44.688Z</time></trkpt><trkpt lat="43.6416333" lon="12.75414"><ele>765.8</ele><time>2026-04-04T14:30:45.688Z</time></trkpt><trkpt lat="43.6416183" lon="12.7542783"><ele>767.2</ele><time>2026-04-04T14:30:46.687Z</time></trkpt><trkpt lat="43.6416133" lon="12.7544533"><ele>768.6</ele><time>2026-04-04T14:30:47.687Z</time></trkpt><trkpt lat="43.6415933" lon="12.7546133"><ele>770.0</ele><time>2026-04-04T14:30:48.689Z</time></trkpt><trkpt lat="43.641575" lon="12.7547683"><ele>770.0</ele><time>2026-04-04T14:30:49.688Z</time></trkpt><trkpt lat="43.6415517" lon="12.7549133"><ele>770.0</ele><time>2026-04-04T14:30:50.688Z</time></trkpt><trkpt lat="43.6414667" lon="12.7552"><ele>770.0</ele><time>2026-04-04T14:30:52.689Z</time></trkpt><trkpt lat="43.6414217" lon="12.7553417"><ele>770.0</ele><time>2026-04-04T14:30:53.689Z</time></trkpt><trkpt lat="43.6413717" lon="12.7554767"><ele>768.8</ele><time>2026-04-04T14:30:54.688Z</time></trkpt><trkpt lat="43.6413183" lon="12.7556233"><ele>767.6</ele><time>2026-04-04T14:30:55.688Z</time></trkpt><trkpt lat="43.6412717" lon="12.7557517"><ele>766.4000000000001</ele><time>2026-04-04T14:30:56.689Z</time></trkpt><trkpt lat="43.64122" lon="12.7558883"><ele>765.2</ele><time>2026-04-04T14:30:57.685Z</time></trkpt><trkpt lat="43.6411833" lon="12.7560183"><ele>764.0</ele><time>2026-04-04T14:30:58.688Z</time></trkpt><trkpt lat="43.6411467" lon="12.7561467"><ele>766.2</ele><time>2026-04-04T14:30:59.688Z</time></trkpt><trkpt lat="43.6411067" lon="12.7562683"><ele>768.4000000000001</ele><time>2026-04-04T14:31:00.688Z</time></trkpt><trkpt lat="43.6410617" lon="12.7563983"><ele>770.6</ele><time>2026-04-04T14:31:01.687Z</time></trkpt><trkpt lat="43.64101" lon="12.75654"><ele>772.8</ele><time>2026-04-04T14:31:02.688Z</time></trkpt><trkpt lat="43.64095" lon="12.756685"><ele>775.0</ele><time>2026-04-04T14:31:03.688Z</time></trkpt><trkpt lat="43.64088" lon="12.75683"><ele>772.0</ele><time>2026-04-04T14:31:04.689Z</time></trkpt><trkpt lat="43.64081" lon="12.7569717"><ele>769.0</ele><time>2026-04-04T14:31:05.688Z</time></trkpt><trkpt lat="43.6407367" lon="12.75711"><ele>766.0</ele><time>2026-04-04T14:31:06.687Z</time></trkpt><trkpt lat="43.640655" lon="12.7572417"><ele>763.0</ele><time>2026-04-04T14:31:07.689Z</time></trkpt><trkpt lat="43.640585" lon="12.7573667"><ele>763.0</ele><time>2026-04-04T14:31:08.69Z</time></trkpt><trkpt lat="43.640505" lon="12.7574783"><ele>763.0</ele><time>2026-04-04T14:31:09.688Z</time></trkpt><trkpt lat="43.640415" lon="12.7575917"><ele>763.0</ele><time>2026-04-04T14:31:10.69Z</time></trkpt><trkpt lat="43.6403267" lon="12.7577017"><ele>763.0</ele><time>2026-04-04T14:31:11.689Z</time></trkpt><trkpt lat="43.6401617" lon="12.7579367"><ele>765.75</ele><time>2026-04-04T14:31:13.687Z</time></trkpt><trkpt lat="43.6400783" lon="12.7580583"><ele>768.5</ele><time>2026-04-04T14:31:14.688Z</time></trkpt><trkpt lat="43.6400017" lon="12.7581817"><ele>771.25</ele><time>2026-04-04T14:31:15.686Z</time></trkpt><trkpt lat="43.63992" lon="12.7583133"><ele>774.0</ele><time>2026-04-04T14:31:16.688Z</time></trkpt><trkpt lat="43.6398383" lon="12.7584483"><ele>770.5</ele><time>2026-04-04T14:31:17.689Z</time></trkpt><trkpt lat="43.639755" lon="12.75859"><ele>767.0</ele><time>2026-04-04T14:31:18.687Z</time></trkpt><trkpt lat="43.6396867" lon="12.7587333"><ele>763.5</ele><time>2026-04-04T14:31:19.688Z</time></trkpt><trkpt lat="43.639615" lon="12.7588683"><ele>760.0</ele><time>2026-04-04T14:31:20.687Z</time></trkpt><trkpt lat="43.6395483" lon="12.7589967"><ele>760.0</ele><time>2026-04-04T14:31:21.687Z</time></trkpt><trkpt lat="43.639485" lon="12.759105"><ele>760.0</ele><time>2026-04-04T14:31:22.689Z</time></trkpt><trkpt lat="43.6394233" lon="12.7591917"><ele>760.0</ele><time>2026-04-04T14:31:23.689Z</time></trkpt><trkpt lat="43.6393583" lon="12.7592683"><ele>760.0</ele><time>2026-04-04T14:31:24.689Z</time></trkpt><trkpt lat="43.63929" lon="12.7593433"><ele>760.0</ele><time>2026-04-04T14:31:25.69Z</time></trkpt><trkpt lat="43.6392183" lon="12.7594233"><ele>762.2</ele><time>2026-04-04T14:31:26.69Z</time></trkpt><trkpt lat="43.6391383" lon="12.7595117"><ele>764.4</ele><time>2026-04-04T14:31:27.686Z</time></trkpt><trkpt lat="43.6390583" lon="12.7595967"><ele>766.5999999999999</ele><time>2026-04-04T14:31:28.689Z</time></trkpt><trkpt lat="43.638965" lon="12.7596683"><ele>768.8</ele><time>2026-04-04T14:31:29.688Z</time></trkpt><trkpt lat="43.6388733" lon="12.759735"><ele>771.0</ele><time>2026-04-04T14:31:30.689Z</time></trkpt><trkpt lat="43.6387717" lon="12.7597983"><ele>771.0</ele><time>2026-04-04T14:31:31.689Z</time></trkpt><trkpt lat="43.6386617" lon="12.7598667"><ele>771.0</ele><time>2026-04-04T14:31:32.688Z</time></trkpt><trkpt lat="43.63846" lon="12.7600083"><ele>771.0</ele><time>2026-04-04T14:31:34.688Z</time></trkpt><trkpt lat="43.6383583" lon="12.7600583"><ele>769.8</ele><time>2026-04-04T14:31:35.688Z</time></trkpt><trkpt lat="43.6382567" lon="12.7601217"><ele>768.5999999999999</ele><time>2026-04-04T14:31:36.687Z</time></trkpt><trkpt lat="43.638155" lon="12.760175"><ele>767.4</ele><time>2026-04-04T14:31:37.689Z</time></trkpt><trkpt lat="43.6380517" lon="12.7602333"><ele>766.2</ele><time>2026-04-04T14:31:38.687Z</time></trkpt><trkpt lat="43.6379517" lon="12.7602833"><ele>765.0</ele><time>2026-04-04T14:31:39.687Z</time></trkpt><trkpt lat="43.6378333" lon="12.760365"><ele>770.5</ele><time>2026-04-04T14:31:40.689Z</time></trkpt><trkpt lat="43.6377267" lon="12.7604667"><ele>776.0</ele><time>2026-04-04T14:31:41.688Z</time></trkpt><trkpt lat="43.6376283" lon="12.7605733"><ele>781.5</ele><time>2026-04-04T14:31:42.688Z</time></trkpt><trkpt lat="43.6375317" lon="12.7606867"><ele>787.0</ele><time>2026-04-04T14:31:43.689Z</time></trkpt><trkpt lat="43.6374283" lon="12.7608067"><ele>787.0</ele><time>2026-04-04T14:31:44.688Z</time></trkpt><trkpt lat="43.6373333" lon="12.7609183"><ele>787.0</ele><time>2026-04-04T14:31:45.687Z</time></trkpt><trkpt lat="43.6372283" lon="12.76102"><ele>787.0</ele><time>2026-04-04T14:31:46.688Z</time></trkpt><trkpt lat="43.6371317" lon="12.7611133"><ele>787.0</ele><time>2026-04-04T14:31:47.689Z</time></trkpt><trkpt lat="43.6370483" lon="12.7612033"><ele>789.2</ele><time>2026-04-04T14:31:48.692Z</time></trkpt><trkpt lat="43.6369717" lon="12.7613"><ele>791.4000000000001</ele><time>2026-04-04T14:31:49.693Z</time></trkpt><trkpt lat="43.6369133" lon="12.761415"><ele>793.5999999999999</ele><time>2026-04-04T14:31:50.693Z</time></trkpt><trkpt lat="43.63685" lon="12.761545"><ele>795.8</ele><time>2026-04-04T14:31:51.69Z</time></trkpt><trkpt lat="43.6367883" lon="12.7616767"><ele>798.0</ele><time>2026-04-04T14:31:52.688Z</time></trkpt><trkpt lat="43.63672" lon="12.76182"><ele>792.3333333333333</ele><time>2026-04-04T14:31:53.69Z</time></trkpt><trkpt lat="43.6365633" lon="12.7620833"><ele>786.6666666666666</ele><time>2026-04-04T14:31:55.689Z</time></trkpt><trkpt lat="43.636475" lon="12.7622067"><ele>781.0</ele><time>2026-04-04T14:31:56.687Z</time></trkpt><trkpt lat="43.6363867" lon="12.76232"><ele>781.0</ele><time>2026-04-04T14:31:57.69Z</time></trkpt><trkpt lat="43.6362983" lon="12.7624317"><ele>781.0</ele><time>2026-04-04T14:31:58.688Z</time></trkpt><trkpt lat="43.6361933" lon="12.7625017"><ele>781.0</ele><time>2026-04-04T14:31:59.692Z</time></trkpt><trkpt lat="43.6360717" lon="12.7625667"><ele>781.0</ele><time>2026-04-04T14:32:00.693Z</time></trkpt><trkpt lat="43.6359433" lon="12.76263"><ele>782.75</ele><time>2026-04-04T14:32:01.692Z</time></trkpt><trkpt lat="43.6358167" lon="12.7626767"><ele>784.5</ele><time>2026-04-04T14:32:02.692Z</time></trkpt><trkpt lat="43.6357" lon="12.7627417"><ele>786.25</ele><time>2026-04-04T14:32:03.687Z</time></trkpt><trkpt lat="43.6355917" lon="12.76281"><ele>788.0</ele><time>2026-04-04T14:32:04.687Z</time></trkpt><trkpt lat="43.6354867" lon="12.7628683"><ele>788.0000000000001</ele><time>2026-04-04T14:32:05.689Z</time></trkpt><trkpt lat="43.6353883" lon="12.7629117"><ele>788.0</ele><time>2026-04-04T14:32:06.685Z</time></trkpt><trkpt lat="43.6353067" lon="12.7629383"><ele>788.0</ele><time>2026-04-04T14:32:07.689Z</time></trkpt><trkpt lat="43.6352117" lon="12.7629683"><ele>788.0</ele><time>2026-04-04T14:32:08.687Z</time></trkpt><trkpt lat="43.6351333" lon="12.7629683"><ele>788.0000000000001</ele><time>2026-04-04T14:32:09.687Z</time></trkpt><trkpt lat="43.63505" lon="12.7629717"><ele>788.0</ele><time>2026-04-04T14:32:10.687Z</time></trkpt><trkpt lat="43.6349733" lon="12.7629717"><ele>790.2</ele><time>2026-04-04T14:32:11.688Z</time></trkpt><trkpt lat="43.6348983" lon="12.76297"><ele>792.4</ele><time>2026-04-04T14:32:12.686Z</time></trkpt><trkpt lat="43.63482" lon="12.7629533"><ele>794.6</ele><time>2026-04-04T14:32:13.687Z</time></trkpt><trkpt lat="43.6347383" lon="12.7629233"><ele>796.8000000000001</ele><time>2026-04-04T14:32:14.687Z</time></trkpt><trkpt lat="43.6345633" lon="12.7628433"><ele>799.0</ele><time>2026-04-04T14:32:16.688Z</time></trkpt><trkpt lat="43.6344817" lon="12.7628083"><ele>800.1666666666666</ele><time>2026-04-04T14:32:17.688Z</time></trkpt><trkpt lat="43.634405" lon="12.7627767"><ele>801.3333333333333</ele><time>2026-04-04T14:32:18.686Z</time></trkpt><trkpt lat="43.6343283" lon="12.7627517"><ele>802.5</ele><time>2026-04-04T14:32:19.688Z</time></trkpt><trkpt lat="43.6342617" lon="12.7627467"><ele>803.6666666666667</ele><time>2026-04-04T14:32:20.687Z</time></trkpt><trkpt lat="43.634185" lon="12.76275"><ele>804.8333333333334</ele><time>2026-04-04T14:32:21.687Z</time></trkpt><trkpt lat="43.6341117" lon="12.7627817"><ele>806.0</ele><time>2026-04-04T14:32:22.686Z</time></trkpt><trkpt lat="43.6340383" lon="12.762815"><ele>806.0</ele><time>2026-04-04T14:32:23.689Z</time></trkpt><trkpt lat="43.6339633" lon="12.7628483"><ele>806.0</ele><time>2026-04-04T14:32:24.688Z</time></trkpt><trkpt lat="43.6338417" lon="12.762865"><ele>806.0</ele><time>2026-04-04T14:32:26.689Z</time></trkpt><trkpt lat="43.6337683" lon="12.7627617"><ele>806.0</ele><time>2026-04-04T14:32:28.689Z</time></trkpt><trkpt lat="43.6337483" lon="12.7626083"><ele>806.0</ele><time>2026-04-04T14:32:30.689Z</time></trkpt><trkpt lat="43.633815" lon="12.76248"><ele>811.0</ele><time>2026-04-04T14:32:32.688Z</time></trkpt><trkpt lat="43.6339" lon="12.7624033"><ele>816.0</ele><time>2026-04-04T14:32:33.688Z</time></trkpt><trkpt lat="43.6340533" lon="12.76229"><ele>821.0</ele><time>2026-04-04T14:32:34.688Z</time></trkpt><trkpt lat="43.6342983" lon="12.7622283"><ele>821.0</ele><time>2026-04-04T14:32:36.689Z</time></trkpt><trkpt lat="43.634395" lon="12.762195"><ele>821.0</ele><time>2026-04-04T14:32:37.688Z</time></trkpt><trkpt lat="43.6344667" lon="12.76215"><ele>821.0</ele><time>2026-04-04T14:32:38.688Z</time></trkpt><trkpt lat="43.6345367" lon="12.7620433"><ele>821.0</ele><time>2026-04-04T14:32:40.69Z</time></trkpt><trkpt lat="43.6345167" lon="12.7619217"><ele>821.0</ele><time>2026-04-04T14:32:42.688Z</time></trkpt><trkpt lat="43.6344383" lon="12.7618583"><ele>821.0</ele><time>2026-04-04T14:32:44.688Z</time></trkpt><trkpt lat="43.6343667" lon="12.7618183"><ele>821.0</ele><time>2026-04-04T14:32:46.688Z</time></trkpt><trkpt lat="43.6341983" lon="12.76188"><ele>821.0</ele><time>2026-04-04T14:32:48.689Z</time></trkpt><trkpt lat="43.6340483" lon="12.761965"><ele>821.0</ele><time>2026-04-04T14:32:49.69Z</time></trkpt><trkpt lat="43.63393" lon="12.7620067"><ele>821.0</ele><time>2026-04-04T14:32:50.687Z</time></trkpt><trkpt lat="43.6338" lon="12.7620733"><ele>821.0</ele><time>2026-04-04T14:32:51.69Z</time></trkpt><trkpt lat="43.6337017" lon="12.76213"><ele>821.0</ele><time>2026-04-04T14:32:52.689Z</time></trkpt><trkpt lat="43.6336117" lon="12.762195"><ele>821.0</ele><time>2026-04-04T14:32:53.689Z</time></trkpt><trkpt lat="43.6335017" lon="12.7623067"><ele>822.75</ele><time>2026-04-04T14:32:54.69Z</time></trkpt><trkpt lat="43.6334183" lon="12.7623933"><ele>824.5</ele><time>2026-04-04T14:32:55.689Z</time></trkpt><trkpt lat="43.633255" lon="12.7625867"><ele>826.25</ele><time>2026-04-04T14:32:57.688Z</time></trkpt><trkpt lat="43.6332083" lon="12.7626733"><ele>828.0</ele><time>2026-04-04T14:32:58.687Z</time></trkpt><trkpt lat="43.63317" lon="12.7627917"><ele>828.0</ele><time>2026-04-04T14:32:59.687Z</time></trkpt><trkpt lat="43.63315" lon="12.7628967"><ele>828.0</ele><time>2026-04-04T14:33:00.687Z</time></trkpt><trkpt lat="43.6331483" lon="12.76301"><ele>828.0</ele><time>2026-04-04T14:33:01.687Z</time></trkpt><trkpt lat="43.633155" lon="12.7631317"><ele>828.0</ele><time>2026-04-04T14:33:02.687Z</time></trkpt><trkpt lat="43.6331633" lon="12.7632433"><ele>828.0</ele><time>2026-04-04T14:33:03.686Z</time></trkpt><trkpt lat="43.6331667" lon="12.76336"><ele>828.0</ele><time>2026-04-04T14:33:04.687Z</time></trkpt><trkpt lat="43.6331583" lon="12.76347"><ele>826.6666666666666</ele><time>2026-04-04T14:33:05.688Z</time></trkpt><trkpt lat="43.6331467" lon="12.763585"><ele>825.3333333333333</ele><time>2026-04-04T14:33:06.687Z</time></trkpt><trkpt lat="43.63313" lon="12.7636883"><ele>824.0</ele><time>2026-04-04T14:33:07.687Z</time></trkpt><trkpt lat="43.6331017" lon="12.763785"><ele>822.6666666666666</ele><time>2026-04-04T14:33:08.687Z</time></trkpt><trkpt lat="43.6330767" lon="12.7638783"><ele>821.3333333333333</ele><time>2026-04-04T14:33:09.687Z</time></trkpt><trkpt lat="43.63304" lon="12.76397"><ele>820.0</ele><time>2026-04-04T14:33:10.687Z</time></trkpt><trkpt lat="43.6329783" lon="12.7640683"><ele>819.9999999999999</ele><time>2026-04-04T14:33:11.689Z</time></trkpt><trkpt lat="43.6329" lon="12.764165"><ele>820.0</ele><time>2026-04-04T14:33:12.688Z</time></trkpt><trkpt lat="43.6328283" lon="12.7642417"><ele>820.0</ele><time>2026-04-04T14:33:13.687Z</time></trkpt><trkpt lat="43.6327483" lon="12.7642983"><ele>820.0</ele><time>2026-04-04T14:33:14.687Z</time></trkpt><trkpt lat="43.6326833" lon="12.7643417"><ele>819.9999999999999</ele><time>2026-04-04T14:33:15.687Z</time></trkpt><trkpt lat="43.6326083" lon="12.764365"><ele>820.0</ele><time>2026-04-04T14:33:16.688Z</time></trkpt><trkpt lat="43.6324233" lon="12.76436"><ele>819.9999999999999</ele><time>2026-04-04T14:33:18.688Z</time></trkpt><trkpt lat="43.6323267" lon="12.7643433"><ele>820.0</ele><time>2026-04-04T14:33:19.689Z</time></trkpt><trkpt lat="43.632235" lon="12.764315"><ele>820.0</ele><time>2026-04-04T14:33:20.688Z</time></trkpt><trkpt lat="43.63215" lon="12.764285"><ele>820.0</ele><time>2026-04-04T14:33:21.688Z</time></trkpt><trkpt lat="43.6320783" lon="12.764265"><ele>819.9999999999999</ele><time>2026-04-04T14:33:22.688Z</time></trkpt><trkpt lat="43.6319867" lon="12.7642917"><ele>820.0</ele><time>2026-04-04T14:33:24.689Z</time></trkpt><trkpt lat="43.6319783" lon="12.7644517"><ele>820.0</ele><time>2026-04-04T14:33:26.687Z</time></trkpt><trkpt lat="43.6319867" lon="12.7645617"><ele>820.0</ele><time>2026-04-04T14:33:27.688Z</time></trkpt><trkpt lat="43.632005" lon="12.7647183"><ele>820.0</ele><time>2026-04-04T14:33:28.689Z</time></trkpt><trkpt lat="43.6320267" lon="12.7648967"><ele>820.0</ele><time>2026-04-04T14:33:29.69Z</time></trkpt><trkpt lat="43.6320483" lon="12.7650717"><ele>820.2</ele><time>2026-04-04T14:33:30.688Z</time></trkpt><trkpt lat="43.63207" lon="12.765235"><ele>820.4</ele><time>2026-04-04T14:33:31.688Z</time></trkpt><trkpt lat="43.6321" lon="12.7653817"><ele>820.5999999999999</ele><time>2026-04-04T14:33:32.688Z</time></trkpt><trkpt lat="43.6321283" lon="12.7655083"><ele>820.8</ele><time>2026-04-04T14:33:33.686Z</time></trkpt><trkpt lat="43.63215" lon="12.7656183"><ele>821.0</ele><time>2026-04-04T14:33:34.688Z</time></trkpt><trkpt lat="43.6321683" lon="12.7657183"><ele>821.0</ele><time>2026-04-04T14:33:35.687Z</time></trkpt><trkpt lat="43.6321817" lon="12.7658067"><ele>821.0</ele><time>2026-04-04T14:33:36.688Z</time></trkpt><trkpt lat="43.6321967" lon="12.7659333"><ele>821.0</ele><time>2026-04-04T14:33:38.69Z</time></trkpt><trkpt lat="43.6321833" lon="12.766135"><ele>821.0</ele><time>2026-04-04T14:33:55.69Z</time></trkpt><trkpt lat="43.6321617" lon="12.7662533"><ele>821.0</ele><time>2026-04-04T14:33:57.687Z</time></trkpt><trkpt lat="43.6321367" lon="12.7664267"><ele>821.4</ele><time>2026-04-04T14:33:59.69Z</time></trkpt><trkpt lat="43.63208" lon="12.7665983"><ele>821.8</ele><time>2026-04-04T14:34:01.688Z</time></trkpt><trkpt lat="43.6320383" lon="12.7666783"><ele>822.1999999999999</ele><time>2026-04-04T14:34:02.687Z</time></trkpt><trkpt lat="43.6319883" lon="12.7667583"><ele>822.5999999999999</ele><time>2026-04-04T14:34:03.687Z</time></trkpt><trkpt lat="43.6319267" lon="12.766835"><ele>823.0</ele><time>2026-04-04T14:34:04.69Z</time></trkpt><trkpt lat="43.6318583" lon="12.7669117"><ele>825.2</ele><time>2026-04-04T14:34:05.688Z</time></trkpt><trkpt lat="43.631795" lon="12.767"><ele>827.4</ele><time>2026-04-04T14:34:06.689Z</time></trkpt><trkpt lat="43.631725" lon="12.767085"><ele>829.6</ele><time>2026-04-04T14:34:07.687Z</time></trkpt><trkpt lat="43.6316533" lon="12.767165"><ele>831.8000000000001</ele><time>2026-04-04T14:34:08.69Z</time></trkpt><trkpt lat="43.6315783" lon="12.76724"><ele>834.0</ele><time>2026-04-04T14:34:09.686Z</time></trkpt><trkpt lat="43.631495" lon="12.7673133"><ele>834.0</ele><time>2026-04-04T14:34:10.69Z</time></trkpt><trkpt lat="43.63141" lon="12.76739"><ele>834.0</ele><time>2026-04-04T14:34:11.688Z</time></trkpt><trkpt lat="43.6313233" lon="12.76747"><ele>834.0</ele><time>2026-04-04T14:34:12.687Z</time></trkpt><trkpt lat="43.6312417" lon="12.7675633"><ele>834.0</ele><time>2026-04-04T14:34:13.691Z</time></trkpt><trkpt lat="43.6311717" lon="12.7676583"><ele>834.0</ele><time>2026-04-04T14:34:14.688Z</time></trkpt><trkpt lat="43.6310983" lon="12.76775"><ele>837.2</ele><time>2026-04-04T14:34:15.687Z</time></trkpt><trkpt lat="43.6310283" lon="12.767835"><ele>840.4000000000001</ele><time>2026-04-04T14:34:16.687Z</time></trkpt><trkpt lat="43.6309583" lon="12.7679333"><ele>843.6</ele><time>2026-04-04T14:34:17.688Z</time></trkpt><trkpt lat="43.6309033" lon="12.7680417"><ele>846.8</ele><time>2026-04-04T14:34:18.688Z</time></trkpt><trkpt lat="43.6308533" lon="12.768145"><ele>850.0</ele><time>2026-04-04T14:34:19.689Z</time></trkpt><trkpt lat="43.6308117" lon="12.7682383"><ele>850.0</ele><time>2026-04-04T14:34:20.688Z</time></trkpt><trkpt lat="43.630705" lon="12.7683917"><ele>850.0</ele><time>2026-04-04T14:34:22.689Z</time></trkpt><trkpt lat="43.63063" lon="12.76845"><ele>850.0</ele><time>2026-04-04T14:34:23.688Z</time></trkpt><trkpt lat="43.630545" lon="12.76849"><ele>850.0</ele><time>2026-04-04T14:34:24.687Z</time></trkpt><trkpt lat="43.6304567" lon="12.7685283"><ele>850.0</ele><time>2026-04-04T14:34:25.687Z</time></trkpt><trkpt lat="43.6303667" lon="12.7685733"><ele>850.9999999999999</ele><time>2026-04-04T14:34:26.688Z</time></trkpt><trkpt lat="43.6302833" lon="12.7686167"><ele>852.0</ele><time>2026-04-04T14:34:27.686Z</time></trkpt><trkpt lat="43.63021" lon="12.768665"><ele>853.0</ele><time>2026-04-04T14:34:28.69Z</time></trkpt><trkpt lat="43.63014" lon="12.7687233"><ele>854.0</ele><time>2026-04-04T14:34:29.688Z</time></trkpt><trkpt lat="43.6300683" lon="12.76879"><ele>854.9999999999999</ele><time>2026-04-04T14:34:30.688Z</time></trkpt><trkpt lat="43.629995" lon="12.7688533"><ele>856.0</ele><time>2026-04-04T14:34:31.688Z</time></trkpt><trkpt lat="43.6299183" lon="12.768915"><ele>855.9999999999999</ele><time>2026-04-04T14:34:32.689Z</time></trkpt><trkpt lat="43.629845" lon="12.7689667"><ele>856.0</ele><time>2026-04-04T14:34:33.687Z</time></trkpt><trkpt lat="43.629765" lon="12.7690167"><ele>856.0</ele><time>2026-04-04T14:34:34.689Z</time></trkpt><trkpt lat="43.629685" lon="12.7690683"><ele>856.0</ele><time>2026-04-04T14:34:35.688Z</time></trkpt><trkpt lat="43.62961" lon="12.7691267"><ele>855.9999999999999</ele><time>2026-04-04T14:34:36.69Z</time></trkpt><trkpt lat="43.629535" lon="12.7691867"><ele>856.0</ele><time>2026-04-04T14:34:37.691Z</time></trkpt><trkpt lat="43.6294533" lon="12.7692333"><ele>857.5999999999999</ele><time>2026-04-04T14:34:38.688Z</time></trkpt><trkpt lat="43.6293667" lon="12.769285"><ele>859.1999999999999</ele><time>2026-04-04T14:34:39.688Z</time></trkpt><trkpt lat="43.6292817" lon="12.76934"><ele>860.8000000000001</ele><time>2026-04-04T14:34:40.689Z</time></trkpt><trkpt lat="43.629205" lon="12.7693867"><ele>862.4000000000001</ele><time>2026-04-04T14:34:41.69Z</time></trkpt><trkpt lat="43.6290567" lon="12.7694567"><ele>864.0</ele><time>2026-04-04T14:34:43.688Z</time></trkpt><trkpt lat="43.628975" lon="12.7694783"><ele>864.0</ele><time>2026-04-04T14:34:44.69Z</time></trkpt><trkpt lat="43.6288917" lon="12.76949"><ele>864.0</ele><time>2026-04-04T14:34:45.689Z</time></trkpt><trkpt lat="43.628805" lon="12.76949"><ele>864.0</ele><time>2026-04-04T14:34:46.688Z</time></trkpt><trkpt lat="43.6287167" lon="12.7694783"><ele>864.0</ele><time>2026-04-04T14:34:47.689Z</time></trkpt><trkpt lat="43.6286267" lon="12.7694583"><ele>864.0</ele><time>2026-04-04T14:34:48.688Z</time></trkpt><trkpt lat="43.62854" lon="12.76943"><ele>864.0</ele><time>2026-04-04T14:34:49.688Z</time></trkpt><trkpt lat="43.62846" lon="12.7693917"><ele>864.5</ele><time>2026-04-04T14:34:50.688Z</time></trkpt><trkpt lat="43.628385" lon="12.7693467"><ele>865.0</ele><time>2026-04-04T14:34:51.688Z</time></trkpt><trkpt lat="43.6283133" lon="12.769295"><ele>865.5</ele><time>2026-04-04T14:34:52.691Z</time></trkpt><trkpt lat="43.6282483" lon="12.76923"><ele>866.0</ele><time>2026-04-04T14:34:53.688Z</time></trkpt><trkpt lat="43.6281833" lon="12.7691583"><ele>866.5</ele><time>2026-04-04T14:34:54.69Z</time></trkpt><trkpt lat="43.6281183" lon="12.76909"><ele>867.0</ele><time>2026-04-04T14:34:55.691Z</time></trkpt><trkpt lat="43.6280533" lon="12.76903"><ele>867.0</ele><time>2026-04-04T14:34:56.688Z</time></trkpt><trkpt lat="43.6280017" lon="12.76897"><ele>867.0</ele><time>2026-04-04T14:34:57.688Z</time></trkpt><trkpt lat="43.627965" lon="12.768895"><ele>867.0</ele><time>2026-04-04T14:34:58.688Z</time></trkpt><trkpt lat="43.6278967" lon="12.7687667"><ele>867.0</ele><time>2026-04-04T14:35:00.689Z</time></trkpt><trkpt lat="43.627835" lon="12.7686433"><ele>867.0</ele><time>2026-04-04T14:35:02.688Z</time></trkpt><trkpt lat="43.6277267" lon="12.768405"><ele>865.8333333333334</ele><time>2026-04-04T14:35:05.693Z</time></trkpt><trkpt lat="43.6276867" lon="12.768305"><ele>864.6666666666667</ele><time>2026-04-04T14:35:06.688Z</time></trkpt><trkpt lat="43.6276483" lon="12.7681967"><ele>863.5</ele><time>2026-04-04T14:35:07.69Z</time></trkpt><trkpt lat="43.6276083" lon="12.7680867"><ele>862.3333333333334</ele><time>2026-04-04T14:35:08.687Z</time></trkpt><trkpt lat="43.6275683" lon="12.7679867"><ele>861.1666666666667</ele><time>2026-04-04T14:35:09.687Z</time></trkpt><trkpt lat="43.627535" lon="12.76789"><ele>860.0</ele><time>2026-04-04T14:35:10.689Z</time></trkpt><trkpt lat="43.6274967" lon="12.767795"><ele>860.0000000000001</ele><time>2026-04-04T14:35:11.687Z</time></trkpt><trkpt lat="43.6274517" lon="12.7676967"><ele>860.0</ele><time>2026-04-04T14:35:12.69Z</time></trkpt><trkpt lat="43.6274083" lon="12.7676033"><ele>860.0</ele><time>2026-04-04T14:35:13.69Z</time></trkpt><trkpt lat="43.62737" lon="12.7675217"><ele>860.0</ele><time>2026-04-04T14:35:14.689Z</time></trkpt><trkpt lat="43.6273367" lon="12.767445"><ele>860.0000000000001</ele><time>2026-04-04T14:35:15.689Z</time></trkpt><trkpt lat="43.6272833" lon="12.7673083"><ele>860.0</ele><time>2026-04-04T14:35:17.687Z</time></trkpt><trkpt lat="43.6272367" lon="12.7672117"><ele>859.75</ele><time>2026-04-04T14:35:19.69Z</time></trkpt><trkpt lat="43.6271733" lon="12.7671483"><ele>859.5</ele><time>2026-04-04T14:35:21.688Z</time></trkpt><trkpt lat="43.6271" lon="12.7670717"><ele>859.25</ele><time>2026-04-04T14:35:23.692Z</time></trkpt><trkpt lat="43.6269433" lon="12.76686"><ele>859.0</ele><time>2026-04-04T14:35:27.688Z</time></trkpt><trkpt lat="43.6268683" lon="12.7667417"><ele>859.0</ele><time>2026-04-04T14:35:29.688Z</time></trkpt><trkpt lat="43.6268" lon="12.76662"><ele>859.0000000000001</ele><time>2026-04-04T14:35:31.689Z</time></trkpt><trkpt lat="43.626735" lon="12.7664883"><ele>859.0000000000001</ele><time>2026-04-04T14:35:33.688Z</time></trkpt><trkpt lat="43.62665" lon="12.7663583"><ele>859.0</ele><time>2026-04-04T14:35:35.69Z</time></trkpt><trkpt lat="43.6266083" lon="12.7662917"><ele>859.0</ele><time>2026-04-04T14:35:36.687Z</time></trkpt><trkpt lat="43.6265667" lon="12.766225"><ele>858.9999999999999</ele><time>2026-04-04T14:35:37.689Z</time></trkpt><trkpt lat="43.62652" lon="12.766155"><ele>859.0</ele><time>2026-04-04T14:35:38.686Z</time></trkpt><trkpt lat="43.626475" lon="12.7660883"><ele>859.0</ele><time>2026-04-04T14:35:39.689Z</time></trkpt><trkpt lat="43.6264283" lon="12.7660217"><ele>859.0</ele><time>2026-04-04T14:35:40.69Z</time></trkpt><trkpt lat="43.6263733" lon="12.7659567"><ele>859.0</ele><time>2026-04-04T14:35:41.688Z</time></trkpt><trkpt lat="43.6263133" lon="12.7659"><ele>858.9999999999999</ele><time>2026-04-04T14:35:42.688Z</time></trkpt><trkpt lat="43.6262567" lon="12.7658483"><ele>859.0</ele><time>2026-04-04T14:35:43.692Z</time></trkpt><trkpt lat="43.6261983" lon="12.7658"><ele>857.4000000000001</ele><time>2026-04-04T14:35:44.688Z</time></trkpt><trkpt lat="43.626045" lon="12.7656433"><ele>855.8000000000001</ele><time>2026-04-04T14:35:47.69Z</time></trkpt><trkpt lat="43.6259283" lon="12.7655817"><ele>854.2</ele><time>2026-04-04T14:35:49.692Z</time></trkpt><trkpt lat="43.625865" lon="12.765565"><ele>852.5999999999999</ele><time>2026-04-04T14:35:50.688Z</time></trkpt><trkpt lat="43.6258017" lon="12.765555"><ele>851.0</ele><time>2026-04-04T14:35:51.69Z</time></trkpt><trkpt lat="43.6257383" lon="12.76555"><ele>851.0000000000001</ele><time>2026-04-04T14:35:52.687Z</time></trkpt><trkpt lat="43.625675" lon="12.7655467"><ele>851.0</ele><time>2026-04-04T14:35:53.685Z</time></trkpt><trkpt lat="43.6256117" lon="12.7655383"><ele>851.0</ele><time>2026-04-04T14:35:54.688Z</time></trkpt><trkpt lat="43.625485" lon="12.76549"><ele>851.0</ele><time>2026-04-04T14:35:56.687Z</time></trkpt><trkpt lat="43.6254133" lon="12.7654667"><ele>851.0000000000001</ele><time>2026-04-04T14:35:57.687Z</time></trkpt><trkpt lat="43.62533" lon="12.765455"><ele>851.0</ele><time>2026-04-04T14:35:58.688Z</time></trkpt><trkpt lat="43.625245" lon="12.765445"><ele>850.3333333333334</ele><time>2026-04-04T14:35:59.69Z</time></trkpt><trkpt lat="43.625165" lon="12.76543"><ele>849.6666666666667</ele><time>2026-04-04T14:36:00.688Z</time></trkpt><trkpt lat="43.625095" lon="12.7654217"><ele>849.0</ele><time>2026-04-04T14:36:01.689Z</time></trkpt><trkpt lat="43.6250317" lon="12.76542"><ele>848.3333333333333</ele><time>2026-04-04T14:36:02.688Z</time></trkpt><trkpt lat="43.6249167" lon="12.765435"><ele>847.6666666666666</ele><time>2026-04-04T14:36:04.688Z</time></trkpt><trkpt lat="43.6248083" lon="12.7654517"><ele>847.0</ele><time>2026-04-04T14:36:06.687Z</time></trkpt><trkpt lat="43.6245967" lon="12.765485"><ele>847.0</ele><time>2026-04-04T14:36:10.689Z</time></trkpt><trkpt lat="43.62449" lon="12.76549"><ele>847.0</ele><time>2026-04-04T14:36:12.69Z</time></trkpt><trkpt lat="43.6243917" lon="12.765485"><ele>847.0</ele><time>2026-04-04T14:36:14.691Z</time></trkpt><trkpt lat="43.6242917" lon="12.7654867"><ele>847.0</ele><time>2026-04-04T14:36:16.689Z</time></trkpt><trkpt lat="43.6242083" lon="12.7655"><ele>847.0</ele><time>2026-04-04T14:36:18.691Z</time></trkpt><trkpt lat="43.6241367" lon="12.7655267"><ele>847.4000000000001</ele><time>2026-04-04T14:36:20.689Z</time></trkpt><trkpt lat="43.6240817" lon="12.7655717"><ele>847.8000000000001</ele><time>2026-04-04T14:36:22.689Z</time></trkpt><trkpt lat="43.62403" lon="12.7656467"><ele>848.2</ele><time>2026-04-04T14:36:25.69Z</time></trkpt><trkpt lat="43.6239617" lon="12.7657317"><ele>848.6</ele><time>2026-04-04T14:39:38.689Z</time></trkpt><trkpt lat="43.6238867" lon="12.7659483"><ele>849.0</ele><time>2026-04-04T14:39:42.689Z</time></trkpt><trkpt lat="43.6238517" lon="12.76607"><ele>849.0</ele><time>2026-04-04T14:39:44.689Z</time></trkpt><trkpt lat="43.623825" lon="12.7661917"><ele>849.0</ele><time>2026-04-04T14:39:46.689Z</time></trkpt><trkpt lat="43.6238067" lon="12.76631"><ele>849.0</ele><time>2026-04-04T14:39:48.687Z</time></trkpt><trkpt lat="43.623785" lon="12.76642"><ele>849.0</ele><time>2026-04-04T14:39:50.689Z</time></trkpt><trkpt lat="43.623755" lon="12.7665367"><ele>849.0</ele><time>2026-04-04T14:39:52.69Z</time></trkpt><trkpt lat="43.62373" lon="12.76666"><ele>849.0</ele><time>2026-04-04T14:39:54.692Z</time></trkpt><trkpt lat="43.623705" lon="12.7667867"><ele>848.5</ele><time>2026-04-04T14:39:56.689Z</time></trkpt><trkpt lat="43.6236533" lon="12.76689"><ele>848.0</ele><time>2026-04-04T14:39:58.69Z</time></trkpt><trkpt lat="43.6236067" lon="12.7669933"><ele>847.5</ele><time>2026-04-04T14:40:00.691Z</time></trkpt><trkpt lat="43.6235167" lon="12.7672033"><ele>847.0</ele><time>2026-04-04T14:40:04.689Z</time></trkpt><trkpt lat="43.6234733" lon="12.7673183"><ele>846.8333333333333</ele><time>2026-04-04T14:40:06.69Z</time></trkpt><trkpt lat="43.6234433" lon="12.7674167"><ele>846.6666666666666</ele><time>2026-04-04T14:40:08.689Z</time></trkpt><trkpt lat="43.6234183" lon="12.7675017"><ele>846.5</ele><time>2026-04-04T14:40:10.688Z</time></trkpt><trkpt lat="43.6233667" lon="12.7676067"><ele>846.3333333333333</ele><time>2026-04-04T14:40:13.689Z</time></trkpt><trkpt lat="43.6233167" lon="12.7676933"><ele>846.1666666666666</ele><time>2026-04-04T14:40:15.689Z</time></trkpt><trkpt lat="43.6232517" lon="12.7677883"><ele>846.0</ele><time>2026-04-04T14:40:17.69Z</time></trkpt><trkpt lat="43.623195" lon="12.7678667"><ele>846.0</ele><time>2026-04-04T14:40:19.689Z</time></trkpt><trkpt lat="43.6231467" lon="12.7679283"><ele>846.0</ele><time>2026-04-04T14:40:21.688Z</time></trkpt><trkpt lat="43.62302" lon="12.7680733"><ele>846.0</ele><time>2026-04-04T14:40:27.687Z</time></trkpt><trkpt lat="43.6229583" lon="12.7681317"><ele>846.0</ele><time>2026-04-04T14:41:40.689Z</time></trkpt><trkpt lat="43.6228333" lon="12.7682067"><ele>846.0</ele><time>2026-04-04T14:41:44.69Z</time></trkpt><trkpt lat="43.6227567" lon="12.7682017"><ele>845.8</ele><time>2026-04-04T14:41:47.687Z</time></trkpt><trkpt lat="43.6227367" lon="12.7680867"><ele>845.5999999999999</ele><time>2026-04-04T14:41:50.689Z</time></trkpt><trkpt lat="43.622745" lon="12.7679667"><ele>845.4</ele><time>2026-04-04T14:41:52.689Z</time></trkpt><trkpt lat="43.62273" lon="12.7678167"><ele>845.2</ele><time>2026-04-04T14:41:54.689Z</time></trkpt><trkpt lat="43.6227167" lon="12.76765"><ele>845.0</ele><time>2026-04-04T14:41:56.687Z</time></trkpt><trkpt lat="43.6227117" lon="12.7675617"><ele>846.25</ele><time>2026-04-04T14:41:57.686Z</time></trkpt><trkpt lat="43.6227033" lon="12.7674683"><ele>847.5</ele><time>2026-04-04T14:41:58.694Z</time></trkpt><trkpt lat="43.6226917" lon="12.7673067"><ele>848.75</ele><time>2026-04-04T14:42:00.69Z</time></trkpt><trkpt lat="43.6226933" lon="12.767175"><ele>850.0</ele><time>2026-04-04T14:42:02.689Z</time></trkpt><trkpt lat="43.62265" lon="12.7668733"><ele>850.6666666666666</ele><time>2026-04-04T14:42:06.69Z</time></trkpt><trkpt lat="43.6226017" lon="12.766715"><ele>851.3333333333333</ele><time>2026-04-04T14:42:08.69Z</time></trkpt><trkpt lat="43.6225733" lon="12.7666333"><ele>852.0</ele><time>2026-04-04T14:42:09.687Z</time></trkpt><trkpt lat="43.6225433" lon="12.766545"><ele>852.6666666666667</ele><time>2026-04-04T14:42:10.689Z</time></trkpt><trkpt lat="43.62251" lon="12.7664533"><ele>853.3333333333334</ele><time>2026-04-04T14:42:11.69Z</time></trkpt><trkpt lat="43.6224733" lon="12.7663633"><ele>854.0</ele><time>2026-04-04T14:42:12.688Z</time></trkpt><trkpt lat="43.6224417" lon="12.7662817"><ele>854.0</ele><time>2026-04-04T14:42:13.692Z</time></trkpt><trkpt lat="43.6223833" lon="12.76614"><ele>854.0</ele><time>2026-04-04T14:42:15.688Z</time></trkpt><trkpt lat="43.622325" lon="12.7659983"><ele>854.0</ele><time>2026-04-04T14:42:17.687Z</time></trkpt><trkpt lat="43.6222433" lon="12.7657867"><ele>854.0</ele><time>2026-04-04T14:42:20.688Z</time></trkpt><trkpt lat="43.6221983" lon="12.765655"><ele>854.2</ele><time>2026-04-04T14:42:22.689Z</time></trkpt><trkpt lat="43.6221533" lon="12.7655383"><ele>854.4000000000001</ele><time>2026-04-04T14:42:24.688Z</time></trkpt><trkpt lat="43.6220833" lon="12.7653483"><ele>854.6</ele><time>2026-04-04T14:42:29.688Z</time></trkpt><trkpt lat="43.62208" lon="12.7652517"><ele>854.8</ele><time>2026-04-04T14:42:31.691Z</time></trkpt><trkpt lat="43.622095" lon="12.7651617"><ele>855.0</ele><time>2026-04-04T14:42:33.689Z</time></trkpt><trkpt lat="43.6221433" lon="12.765095"><ele>855.0</ele><time>2026-04-04T14:42:36.689Z</time></trkpt><trkpt lat="43.6222033" lon="12.7651633"><ele>855.0</ele><time>2026-04-04T14:42:39.688Z</time></trkpt><trkpt lat="43.6222367" lon="12.7652733"><ele>855.0</ele><time>2026-04-04T14:42:41.688Z</time></trkpt><trkpt lat="43.6222833" lon="12.7654083"><ele>855.0</ele><time>2026-04-04T14:42:43.69Z</time></trkpt><trkpt lat="43.622335" lon="12.76555"><ele>855.0</ele><time>2026-04-04T14:42:45.689Z</time></trkpt><trkpt lat="43.6224367" lon="12.7658417"><ele>855.0</ele><time>2026-04-04T14:42:49.692Z</time></trkpt><trkpt lat="43.6224867" lon="12.765985"><ele>855.0</ele><time>2026-04-04T14:42:51.689Z</time></trkpt><trkpt lat="43.622535" lon="12.766135"><ele>855.0</ele><time>2026-04-04T14:42:53.692Z</time></trkpt><trkpt lat="43.6225933" lon="12.7662833"><ele>855.0</ele><time>2026-04-04T14:42:55.691Z</time></trkpt><trkpt lat="43.6226183" lon="12.7663717"><ele>855.0</ele><time>2026-04-04T14:42:56.689Z</time></trkpt><trkpt lat="43.6226417" lon="12.7664633"><ele>854.8333333333334</ele><time>2026-04-04T14:42:57.691Z</time></trkpt><trkpt lat="43.6226617" lon="12.7665533"><ele>854.6666666666667</ele><time>2026-04-04T14:42:58.69Z</time></trkpt><trkpt lat="43.6226967" lon="12.766715"><ele>854.5</ele><time>2026-04-04T14:43:00.691Z</time></trkpt><trkpt lat="43.622715" lon="12.7667983"><ele>854.3333333333334</ele><time>2026-04-04T14:43:01.691Z</time></trkpt><trkpt lat="43.622735" lon="12.7668833"><ele>854.1666666666667</ele><time>2026-04-04T14:43:02.688Z</time></trkpt><trkpt lat="43.6227617" lon="12.7669733"><ele>854.0</ele><time>2026-04-04T14:43:03.69Z</time></trkpt><trkpt lat="43.62279" lon="12.76706"><ele>853.25</ele><time>2026-04-04T14:43:04.689Z</time></trkpt><trkpt lat="43.6228367" lon="12.7671983"><ele>852.5</ele><time>2026-04-04T14:43:06.689Z</time></trkpt><trkpt lat="43.6229217" lon="12.7673983"><ele>851.75</ele><time>2026-04-04T14:43:10.689Z</time></trkpt><trkpt lat="43.6229583" lon="12.767505"><ele>851.0</ele><time>2026-04-04T14:43:12.689Z</time></trkpt><trkpt lat="43.623" lon="12.7676267"><ele>850.0</ele><time>2026-04-04T14:43:14.689Z</time></trkpt><trkpt lat="43.6230483" lon="12.76775"><ele>849.0</ele><time>2026-04-04T14:43:16.69Z</time></trkpt><trkpt lat="43.6230883" lon="12.7678483"><ele>848.0</ele><time>2026-04-04T14:43:18.688Z</time></trkpt><trkpt lat="43.6231" lon="12.7679633"><ele>847.0</ele><time>2026-04-04T14:43:21.69Z</time></trkpt><trkpt lat="43.623045" lon="12.76804"><ele>846.0</ele><time>2026-04-04T14:43:23.69Z</time></trkpt><trkpt lat="43.6229583" lon="12.76814"><ele>846.0</ele><time>2026-04-04T14:43:25.691Z</time></trkpt><trkpt lat="43.6229033" lon="12.7681983"><ele>846.0</ele><time>2026-04-04T14:43:26.689Z</time></trkpt><trkpt lat="43.622845" lon="12.7682633"><ele>846.0</ele><time>2026-04-04T14:43:27.689Z</time></trkpt><trkpt lat="43.6227233" lon="12.7683983"><ele>846.0</ele><time>2026-04-04T14:43:29.688Z</time></trkpt><trkpt lat="43.6226683" lon="12.7684683"><ele>846.0</ele><time>2026-04-04T14:43:30.689Z</time></trkpt><trkpt lat="43.6226133" lon="12.7685383"><ele>844.8333333333334</ele><time>2026-04-04T14:43:31.69Z</time></trkpt><trkpt lat="43.6225517" lon="12.7686117"><ele>843.6666666666667</ele><time>2026-04-04T14:43:32.69Z</time></trkpt><trkpt lat="43.622485" lon="12.7686917"><ele>842.5</ele><time>2026-04-04T14:43:33.689Z</time></trkpt><trkpt lat="43.622415" lon="12.7687733"><ele>841.3333333333334</ele><time>2026-04-04T14:43:34.689Z</time></trkpt><trkpt lat="43.622345" lon="12.768855"><ele>840.1666666666667</ele><time>2026-04-04T14:43:35.689Z</time></trkpt><trkpt lat="43.6222783" lon="12.7689367"><ele>839.0</ele><time>2026-04-04T14:43:36.689Z</time></trkpt><trkpt lat="43.6222117" lon="12.769015"><ele>839.0000000000001</ele><time>2026-04-04T14:43:37.69Z</time></trkpt><trkpt lat="43.62215" lon="12.769095"><ele>839.0</ele><time>2026-04-04T14:43:38.689Z</time></trkpt><trkpt lat="43.6220933" lon="12.7691833"><ele>839.0</ele><time>2026-04-04T14:43:39.689Z</time></trkpt><trkpt lat="43.6220367" lon="12.76928"><ele>839.0</ele><time>2026-04-04T14:43:40.689Z</time></trkpt><trkpt lat="43.6219783" lon="12.769375"><ele>839.0000000000001</ele><time>2026-04-04T14:43:41.688Z</time></trkpt><trkpt lat="43.6219133" lon="12.76946"><ele>839.0</ele><time>2026-04-04T14:43:42.689Z</time></trkpt><trkpt lat="43.62185" lon="12.7695433"><ele>837.4000000000001</ele><time>2026-04-04T14:43:43.691Z</time></trkpt><trkpt lat="43.6217917" lon="12.7696183"><ele>835.8</ele><time>2026-04-04T14:43:44.689Z</time></trkpt><trkpt lat="43.621745" lon="12.7696833"><ele>834.2</ele><time>2026-04-04T14:43:45.688Z</time></trkpt><trkpt lat="43.6216833" lon="12.7697917"><ele>832.5999999999999</ele><time>2026-04-04T14:43:47.689Z</time></trkpt><trkpt lat="43.6215733" lon="12.769985"><ele>831.0</ele><time>2026-04-04T14:43:50.688Z</time></trkpt><trkpt lat="43.6214967" lon="12.770125"><ele>829.6666666666666</ele><time>2026-04-04T14:43:52.689Z</time></trkpt><trkpt lat="43.621455" lon="12.7701917"><ele>828.3333333333333</ele><time>2026-04-04T14:43:53.689Z</time></trkpt><trkpt lat="43.621405" lon="12.7702533"><ele>827.0</ele><time>2026-04-04T14:43:54.689Z</time></trkpt><trkpt lat="43.621355" lon="12.77031"><ele>825.6666666666666</ele><time>2026-04-04T14:43:55.69Z</time></trkpt><trkpt lat="43.6213117" lon="12.7703733"><ele>824.3333333333333</ele><time>2026-04-04T14:43:56.688Z</time></trkpt><trkpt lat="43.6212517" lon="12.7705217"><ele>823.0</ele><time>2026-04-04T14:43:58.689Z</time></trkpt><trkpt lat="43.6211717" lon="12.770735"><ele>822.3333333333333</ele><time>2026-04-04T14:44:01.69Z</time></trkpt><trkpt lat="43.62108" lon="12.7708683"><ele>821.6666666666666</ele><time>2026-04-04T14:44:03.689Z</time></trkpt><trkpt lat="43.6210233" lon="12.7709317"><ele>821.0</ele><time>2026-04-04T14:44:04.689Z</time></trkpt><trkpt lat="43.6209667" lon="12.7709917"><ele>820.3333333333333</ele><time>2026-04-04T14:44:05.689Z</time></trkpt><trkpt lat="43.6209083" lon="12.7710467"><ele>819.6666666666666</ele><time>2026-04-04T14:44:06.688Z</time></trkpt><trkpt lat="43.6208433" lon="12.771095"><ele>819.0</ele><time>2026-04-04T14:44:07.692Z</time></trkpt><trkpt lat="43.6207817" lon="12.7711417"><ele>816.75</ele><time>2026-04-04T14:44:08.688Z</time></trkpt><trkpt lat="43.6206183" lon="12.77126"><ele>814.5</ele><time>2026-04-04T14:44:11.69Z</time></trkpt><trkpt lat="43.620515" lon="12.7712817"><ele>812.25</ele><time>2026-04-04T14:44:13.689Z</time></trkpt><trkpt lat="43.6204183" lon="12.7712233"><ele>810.0</ele><time>2026-04-04T14:44:15.688Z</time></trkpt><trkpt lat="43.6203117" lon="12.7711267"><ele>809.7142857142857</ele><time>2026-04-04T14:44:17.69Z</time></trkpt><trkpt lat="43.62025" lon="12.7710817"><ele>809.4285714285714</ele><time>2026-04-04T14:44:18.689Z</time></trkpt><trkpt lat="43.620185" lon="12.771035"><ele>809.1428571428571</ele><time>2026-04-04T14:44:19.691Z</time></trkpt><trkpt lat="43.6201217" lon="12.77099"><ele>808.8571428571429</ele><time>2026-04-04T14:44:20.688Z</time></trkpt><trkpt lat="43.6200567" lon="12.77094"><ele>808.5714285714286</ele><time>2026-04-04T14:44:21.689Z</time></trkpt><trkpt lat="43.6199933" lon="12.7708917"><ele>808.2857142857142</ele><time>2026-04-04T14:44:22.689Z</time></trkpt><trkpt lat="43.61994" lon="12.7708433"><ele>808.0</ele><time>2026-04-04T14:44:23.689Z</time></trkpt><trkpt lat="43.619815" lon="12.77078"><ele>808.0</ele><time>2026-04-04T14:44:25.691Z</time></trkpt><trkpt lat="43.6197417" lon="12.7707683"><ele>808.0</ele><time>2026-04-04T14:44:26.689Z</time></trkpt><trkpt lat="43.6196633" lon="12.7707783"><ele>808.0</ele><time>2026-04-04T14:44:27.688Z</time></trkpt><trkpt lat="43.61958" lon="12.7707983"><ele>808.0</ele><time>2026-04-04T14:44:28.689Z</time></trkpt><trkpt lat="43.6194967" lon="12.7708233"><ele>808.0</ele><time>2026-04-04T14:44:29.689Z</time></trkpt><trkpt lat="43.619335" lon="12.7708733"><ele>806.1666666666666</ele><time>2026-04-04T14:44:31.69Z</time></trkpt><trkpt lat="43.6192533" lon="12.770895"><ele>804.3333333333333</ele><time>2026-04-04T14:44:32.69Z</time></trkpt><trkpt lat="43.6191733" lon="12.770915"><ele>802.5</ele><time>2026-04-04T14:44:33.688Z</time></trkpt><trkpt lat="43.61909" lon="12.770935"><ele>800.6666666666667</ele><time>2026-04-04T14:44:34.689Z</time></trkpt><trkpt lat="43.6190083" lon="12.77096"><ele>798.8333333333334</ele><time>2026-04-04T14:44:35.689Z</time></trkpt><trkpt lat="43.6189317" lon="12.7710017"><ele>797.0</ele><time>2026-04-04T14:44:36.688Z</time></trkpt><trkpt lat="43.618865" lon="12.7710583"><ele>795.5000000000001</ele><time>2026-04-04T14:44:37.689Z</time></trkpt><trkpt lat="43.6188" lon="12.7711233"><ele>794.0</ele><time>2026-04-04T14:44:38.688Z</time></trkpt><trkpt lat="43.6187417" lon="12.7711917"><ele>792.5</ele><time>2026-04-04T14:44:39.686Z</time></trkpt><trkpt lat="43.61869" lon="12.7712683"><ele>791.0</ele><time>2026-04-04T14:44:40.69Z</time></trkpt><trkpt lat="43.6186433" lon="12.7713483"><ele>789.5000000000001</ele><time>2026-04-04T14:44:41.69Z</time></trkpt><trkpt lat="43.6186033" lon="12.7714283"><ele>788.0</ele><time>2026-04-04T14:44:42.688Z</time></trkpt><trkpt lat="43.618545" lon="12.7715583"><ele>787.5</ele><time>2026-04-04T14:44:44.69Z</time></trkpt><trkpt lat="43.6185083" lon="12.77166"><ele>787.0</ele><time>2026-04-04T14:44:47.688Z</time></trkpt><trkpt lat="43.6184833" lon="12.7717533"><ele>786.5</ele><time>2026-04-04T14:46:52.692Z</time></trkpt><trkpt lat="43.618385" lon="12.77203"><ele>786.0</ele><time>2026-04-04T14:46:56.688Z</time></trkpt><trkpt lat="43.6183333" lon="12.7721817"><ele>785.1666666666666</ele><time>2026-04-04T14:46:58.688Z</time></trkpt><trkpt lat="43.6183033" lon="12.7722717"><ele>784.3333333333333</ele><time>2026-04-04T14:46:59.687Z</time></trkpt><trkpt lat="43.6182717" lon="12.7723667"><ele>783.5</ele><time>2026-04-04T14:47:00.688Z</time></trkpt><trkpt lat="43.61824" lon="12.7724567"><ele>782.6666666666666</ele><time>2026-04-04T14:47:01.69Z</time></trkpt><trkpt lat="43.61821" lon="12.7725417"><ele>781.8333333333333</ele><time>2026-04-04T14:47:02.688Z</time></trkpt><trkpt lat="43.6181833" lon="12.7726217"><ele>781.0</ele><time>2026-04-04T14:47:03.688Z</time></trkpt><trkpt lat="43.6181317" lon="12.7727667"><ele>779.1999999999999</ele><time>2026-04-04T14:47:05.688Z</time></trkpt><trkpt lat="43.6180833" lon="12.7729"><ele>777.4</ele><time>2026-04-04T14:47:07.688Z</time></trkpt><trkpt lat="43.6180333" lon="12.7730333"><ele>775.6</ele><time>2026-04-04T14:47:09.688Z</time></trkpt><trkpt lat="43.617995" lon="12.7731633"><ele>773.8</ele><time>2026-04-04T14:47:11.688Z</time></trkpt><trkpt lat="43.6179733" lon="12.7732733"><ele>772.0</ele><time>2026-04-04T14:47:13.69Z</time></trkpt><trkpt lat="43.6178833" lon="12.7734"><ele>771.6666666666666</ele><time>2026-04-04T14:47:18.688Z</time></trkpt><trkpt lat="43.6178167" lon="12.7734083"><ele>771.3333333333333</ele><time>2026-04-04T14:47:20.689Z</time></trkpt><trkpt lat="43.617735" lon="12.773395"><ele>771.0</ele><time>2026-04-04T14:47:22.688Z</time></trkpt><trkpt lat="43.61765" lon="12.7733783"><ele>770.6666666666667</ele><time>2026-04-04T14:47:24.688Z</time></trkpt><trkpt lat="43.6175483" lon="12.7733533"><ele>770.3333333333334</ele><time>2026-04-04T14:47:26.688Z</time></trkpt><trkpt lat="43.6174833" lon="12.7733433"><ele>770.0</ele><time>2026-04-04T14:47:27.687Z</time></trkpt><trkpt lat="43.617415" lon="12.7733333"><ele>770.0</ele><time>2026-04-04T14:47:28.689Z</time></trkpt><trkpt lat="43.6173467" lon="12.7733267"><ele>770.0</ele><time>2026-04-04T14:47:29.688Z</time></trkpt><trkpt lat="43.6172833" lon="12.77332"><ele>770.0</ele><time>2026-04-04T14:47:30.687Z</time></trkpt><trkpt lat="43.61716" lon="12.7733167"><ele>770.0</ele><time>2026-04-04T14:47:32.688Z</time></trkpt><trkpt lat="43.6170417" lon="12.773315"><ele>770.0</ele><time>2026-04-04T14:47:34.687Z</time></trkpt><trkpt lat="43.616815" lon="12.7732867"><ele>768.8</ele><time>2026-04-04T14:47:38.688Z</time></trkpt><trkpt lat="43.616705" lon="12.7732783"><ele>767.6</ele><time>2026-04-04T14:47:40.688Z</time></trkpt><trkpt lat="43.6166017" lon="12.7732633"><ele>766.4000000000001</ele><time>2026-04-04T14:47:42.687Z</time></trkpt><trkpt lat="43.616505" lon="12.7732417"><ele>765.2</ele><time>2026-04-04T14:47:44.687Z</time></trkpt><trkpt lat="43.61641" lon="12.77322"><ele>764.0</ele><time>2026-04-04T14:47:46.688Z</time></trkpt><trkpt lat="43.6163067" lon="12.7732567"><ele>764.0</ele><time>2026-04-04T14:47:48.688Z</time></trkpt><trkpt lat="43.6162217" lon="12.773325"><ele>764.0</ele><time>2026-04-04T14:47:50.688Z</time></trkpt><trkpt lat="43.616145" lon="12.7734133"><ele>764.0</ele><time>2026-04-04T14:47:52.687Z</time></trkpt><trkpt lat="43.6160833" lon="12.7735183"><ele>764.0</ele><time>2026-04-04T14:47:54.691Z</time></trkpt><trkpt lat="43.61605" lon="12.7736417"><ele>764.0</ele><time>2026-04-04T14:47:56.687Z</time></trkpt><trkpt lat="43.61599" lon="12.7739417"><ele>761.5</ele><time>2026-04-04T14:48:00.69Z</time></trkpt><trkpt lat="43.615975" lon="12.7740417"><ele>759.0</ele><time>2026-04-04T14:48:01.69Z</time></trkpt><trkpt lat="43.6159567" lon="12.774145"><ele>756.5</ele><time>2026-04-04T14:48:02.687Z</time></trkpt><trkpt lat="43.6159383" lon="12.7742517"><ele>754.0</ele><time>2026-04-04T14:48:03.69Z</time></trkpt><trkpt lat="43.6159183" lon="12.77436"><ele>751.5</ele><time>2026-04-04T14:48:04.688Z</time></trkpt><trkpt lat="43.6159017" lon="12.77446"><ele>749.0</ele><time>2026-04-04T14:48:05.688Z</time></trkpt><trkpt lat="43.6158883" lon="12.774555"><ele>749.0</ele><time>2026-04-04T14:48:06.691Z</time></trkpt><trkpt lat="43.61588" lon="12.774645"><ele>749.0</ele><time>2026-04-04T14:48:07.69Z</time></trkpt><trkpt lat="43.615875" lon="12.7747333"><ele>749.0</ele><time>2026-04-04T14:48:08.688Z</time></trkpt><trkpt lat="43.6158683" lon="12.7748217"><ele>749.0</ele><time>2026-04-04T14:48:09.688Z</time></trkpt><trkpt lat="43.615855" lon="12.7749117"><ele>749.0</ele><time>2026-04-04T14:48:10.689Z</time></trkpt><trkpt lat="43.61584" lon="12.7749967"><ele>749.0</ele><time>2026-04-04T14:48:11.69Z</time></trkpt><trkpt lat="43.6158" lon="12.775135"><ele>749.0</ele><time>2026-04-04T14:48:13.69Z</time></trkpt><trkpt lat="43.6157467" lon="12.7752217"><ele>749.0</ele><time>2026-04-04T14:48:15.689Z</time></trkpt><trkpt lat="43.6156717" lon="12.7752833"><ele>749.0</ele><time>2026-04-04T14:48:17.688Z</time></trkpt><trkpt lat="43.6154767" lon="12.775235"><ele>749.0</ele><time>2026-04-04T14:48:21.688Z</time></trkpt><trkpt lat="43.6153817" lon="12.7751933"><ele>749.0</ele><time>2026-04-04T14:48:23.689Z</time></trkpt><trkpt lat="43.6152883" lon="12.7752183"><ele>746.8000000000001</ele><time>2026-04-04T14:48:25.69Z</time></trkpt><trkpt lat="43.6152017" lon="12.77531"><ele>744.6</ele><time>2026-04-04T14:48:27.688Z</time></trkpt><trkpt lat="43.61516" lon="12.7753767"><ele>742.4</ele><time>2026-04-04T14:48:28.688Z</time></trkpt><trkpt lat="43.6150967" lon="12.7755083"><ele>740.2</ele><time>2026-04-04T14:48:30.688Z</time></trkpt><trkpt lat="43.6150483" lon="12.7756533"><ele>738.0</ele><time>2026-04-04T14:48:32.688Z</time></trkpt><trkpt lat="43.6150117" lon="12.7758067"><ele>738.0</ele><time>2026-04-04T14:48:34.688Z</time></trkpt><trkpt lat="43.6149733" lon="12.7759633"><ele>738.0</ele><time>2026-04-04T14:48:36.688Z</time></trkpt><trkpt lat="43.6149517" lon="12.7761183"><ele>738.0</ele><time>2026-04-04T14:48:38.689Z</time></trkpt><trkpt lat="43.614955" lon="12.7763883"><ele>738.0</ele><time>2026-04-04T14:48:41.69Z</time></trkpt><trkpt lat="43.6149717" lon="12.7764867"><ele>736.6666666666666</ele><time>2026-04-04T14:48:42.687Z</time></trkpt><trkpt lat="43.614995" lon="12.77659"><ele>735.3333333333334</ele><time>2026-04-04T14:48:43.69Z</time></trkpt><trkpt lat="43.61502" lon="12.77669"><ele>734.0</ele><time>2026-04-04T14:48:44.688Z</time></trkpt><trkpt lat="43.61504" lon="12.7767867"><ele>732.6666666666667</ele><time>2026-04-04T14:48:45.688Z</time></trkpt><trkpt lat="43.615065" lon="12.7768817"><ele>731.3333333333334</ele><time>2026-04-04T14:48:46.688Z</time></trkpt><trkpt lat="43.6150933" lon="12.7769817"><ele>730.0</ele><time>2026-04-04T14:48:47.688Z</time></trkpt><trkpt lat="43.6151167" lon="12.77708"><ele>729.0000000000001</ele><time>2026-04-04T14:48:48.688Z</time></trkpt><trkpt lat="43.6151233" lon="12.7771733"><ele>728.0</ele><time>2026-04-04T14:48:49.69Z</time></trkpt><trkpt lat="43.6151233" lon="12.7772617"><ele>727.0</ele><time>2026-04-04T14:48:50.688Z</time></trkpt><trkpt lat="43.6151233" lon="12.77735"><ele>726.0</ele><time>2026-04-04T14:48:51.688Z</time></trkpt><trkpt lat="43.6151267" lon="12.7774433"><ele>725.0</ele><time>2026-04-04T14:48:52.69Z</time></trkpt><trkpt lat="43.6151317" lon="12.7775333"><ele>724.0000000000001</ele><time>2026-04-04T14:48:53.687Z</time></trkpt><trkpt lat="43.6151367" lon="12.7776917"><ele>723.0</ele><time>2026-04-04T14:48:55.69Z</time></trkpt><trkpt lat="43.61511" lon="12.77786"><ele>721.8</ele><time>2026-04-04T14:48:57.689Z</time></trkpt><trkpt lat="43.6150983" lon="12.77803"><ele>720.5999999999999</ele><time>2026-04-04T14:48:59.688Z</time></trkpt><trkpt lat="43.6151233" lon="12.77822"><ele>719.4000000000001</ele><time>2026-04-04T14:49:01.69Z</time></trkpt><trkpt lat="43.6151283" lon="12.7783183"><ele>718.2</ele><time>2026-04-04T14:49:02.688Z</time></trkpt><trkpt lat="43.615125" lon="12.7784133"><ele>717.0</ele><time>2026-04-04T14:49:03.688Z</time></trkpt><trkpt lat="43.6151133" lon="12.7785033"><ele>717.1428571428571</ele><time>2026-04-04T14:49:04.688Z</time></trkpt><trkpt lat="43.6150983" lon="12.77859"><ele>717.2857142857142</ele><time>2026-04-04T14:49:05.687Z</time></trkpt><trkpt lat="43.61508" lon="12.7786833"><ele>717.4285714285714</ele><time>2026-04-04T14:49:06.688Z</time></trkpt><trkpt lat="43.6150533" lon="12.77878"><ele>717.5714285714286</ele><time>2026-04-04T14:49:07.69Z</time></trkpt><trkpt lat="43.6150183" lon="12.7788767"><ele>717.7142857142858</ele><time>2026-04-04T14:49:08.687Z</time></trkpt><trkpt lat="43.6149867" lon="12.7789767"><ele>717.8571428571429</ele><time>2026-04-04T14:49:09.689Z</time></trkpt><trkpt lat="43.6149633" lon="12.7790833"><ele>718.0</ele><time>2026-04-04T14:49:10.687Z</time></trkpt><trkpt lat="43.6149483" lon="12.7791983"><ele>718.0</ele><time>2026-04-04T14:49:11.689Z</time></trkpt><trkpt lat="43.614935" lon="12.779315"><ele>718.0</ele><time>2026-04-04T14:49:12.688Z</time></trkpt><trkpt lat="43.6149167" lon="12.7794183"><ele>718.0</ele><time>2026-04-04T14:49:13.69Z</time></trkpt><trkpt lat="43.6148983" lon="12.779515"><ele>718.0</ele><time>2026-04-04T14:49:14.688Z</time></trkpt><trkpt lat="43.6148817" lon="12.779605"><ele>718.0</ele><time>2026-04-04T14:49:15.688Z</time></trkpt><trkpt lat="43.6148267" lon="12.7797467"><ele>718.0</ele><time>2026-04-04T14:49:17.687Z</time></trkpt><trkpt lat="43.6147117" lon="12.7797933"><ele>718.0</ele><time>2026-04-04T14:49:19.687Z</time></trkpt><trkpt lat="43.6146483" lon="12.77977"><ele>718.0</ele><time>2026-04-04T14:49:20.688Z</time></trkpt><trkpt lat="43.614495" lon="12.7796833"><ele>718.0</ele><time>2026-04-04T14:49:22.688Z</time></trkpt><trkpt lat="43.6144233" lon="12.7796317"><ele>718.0</ele><time>2026-04-04T14:49:23.69Z</time></trkpt><trkpt lat="43.614355" lon="12.7795833"><ele>718.0</ele><time>2026-04-04T14:49:24.687Z</time></trkpt><trkpt lat="43.6142867" lon="12.7795333"><ele>718.0</ele><time>2026-04-04T14:49:25.69Z</time></trkpt><trkpt lat="43.6142117" lon="12.779485"><ele>718.0</ele><time>2026-04-04T14:49:26.689Z</time></trkpt><trkpt lat="43.6141367" lon="12.7794383"><ele>718.0</ele><time>2026-04-04T14:49:27.688Z</time></trkpt><trkpt lat="43.6140683" lon="12.779395"><ele>718.0</ele><time>2026-04-04T14:49:28.69Z</time></trkpt><trkpt lat="43.6140067" lon="12.7793583"><ele>718.0</ele><time>2026-04-04T14:49:29.687Z</time></trkpt><trkpt lat="43.6139417" lon="12.77933"><ele>718.0</ele><time>2026-04-04T14:49:30.689Z</time></trkpt><trkpt lat="43.613875" lon="12.7793067"><ele>718.0</ele><time>2026-04-04T14:49:31.689Z</time></trkpt><trkpt lat="43.6138083" lon="12.7792783"><ele>717.4285714285714</ele><time>2026-04-04T14:49:32.69Z</time></trkpt><trkpt lat="43.6137517" lon="12.7792367"><ele>716.8571428571429</ele><time>2026-04-04T14:49:33.689Z</time></trkpt><trkpt lat="43.6136867" lon="12.7791933"><ele>716.2857142857142</ele><time>2026-04-04T14:49:34.689Z</time></trkpt><trkpt lat="43.6136117" lon="12.7791533"><ele>715.7142857142858</ele><time>2026-04-04T14:49:35.688Z</time></trkpt><trkpt lat="43.6135383" lon="12.7791233"><ele>715.1428571428571</ele><time>2026-04-04T14:49:36.687Z</time></trkpt><trkpt lat="43.61347" lon="12.7790933"><ele>714.5714285714286</ele><time>2026-04-04T14:49:37.69Z</time></trkpt><trkpt lat="43.61341" lon="12.7790583"><ele>714.0</ele><time>2026-04-04T14:49:38.689Z</time></trkpt><trkpt lat="43.6133483" lon="12.77902"><ele>713.6</ele><time>2026-04-04T14:49:39.688Z</time></trkpt><trkpt lat="43.61329" lon="12.7789817"><ele>713.2</ele><time>2026-04-04T14:49:40.69Z</time></trkpt><trkpt lat="43.6132283" lon="12.778945"><ele>712.8000000000001</ele><time>2026-04-04T14:49:41.688Z</time></trkpt><trkpt lat="43.61306" lon="12.77881"><ele>712.4000000000001</ele><time>2026-04-04T14:49:44.689Z</time></trkpt><trkpt lat="43.6130067" lon="12.7787617"><ele>712.0</ele><time>2026-04-04T14:49:45.688Z</time></trkpt><trkpt lat="43.6129467" lon="12.7787283"><ele>711.9999999999999</ele><time>2026-04-04T14:49:46.69Z</time></trkpt><trkpt lat="43.6128867" lon="12.7786983"><ele>712.0</ele><time>2026-04-04T14:49:47.689Z</time></trkpt><trkpt lat="43.6128217" lon="12.7786667"><ele>712.0</ele><time>2026-04-04T14:49:48.689Z</time></trkpt><trkpt lat="43.6127533" lon="12.7786333"><ele>712.0</ele><time>2026-04-04T14:49:49.69Z</time></trkpt><trkpt lat="43.6126867" lon="12.7786"><ele>712.0</ele><time>2026-04-04T14:49:50.689Z</time></trkpt><trkpt lat="43.6126267" lon="12.7785683"><ele>711.9999999999999</ele><time>2026-04-04T14:49:51.69Z</time></trkpt><trkpt lat="43.6125417" lon="12.7785317"><ele>712.0</ele><time>2026-04-04T14:49:53.688Z</time></trkpt><trkpt lat="43.612455" lon="12.7784717"><ele>710.2</ele><time>2026-04-04T15:00:12.688Z</time></trkpt><trkpt lat="43.61231" lon="12.778395"><ele>708.4000000000001</ele><time>2026-04-04T15:00:16.689Z</time></trkpt><trkpt lat="43.612235" lon="12.7783917"><ele>706.5999999999999</ele><time>2026-04-04T15:00:18.688Z</time></trkpt><trkpt lat="43.612165" lon="12.77844"><ele>704.8</ele><time>2026-04-04T15:00:20.689Z</time></trkpt><trkpt lat="43.6121267" lon="12.778535"><ele>703.0</ele><time>2026-04-04T15:00:22.687Z</time></trkpt><trkpt lat="43.6121167" lon="12.7786667"><ele>703.0</ele><time>2026-04-04T15:00:24.686Z</time></trkpt><trkpt lat="43.6121083" lon="12.7787633"><ele>703.0</ele><time>2026-04-04T15:00:25.689Z</time></trkpt><trkpt lat="43.612105" lon="12.77887"><ele>703.0</ele><time>2026-04-04T15:00:26.687Z</time></trkpt><trkpt lat="43.6121017" lon="12.778985"><ele>703.0</ele><time>2026-04-04T15:00:27.687Z</time></trkpt><trkpt lat="43.6120967" lon="12.7791067"><ele>703.0</ele><time>2026-04-04T15:00:28.687Z</time></trkpt><trkpt lat="43.6120883" lon="12.779235"><ele>703.0</ele><time>2026-04-04T15:00:29.688Z</time></trkpt><trkpt lat="43.61208" lon="12.77937"><ele>702.4</ele><time>2026-04-04T15:00:30.688Z</time></trkpt><trkpt lat="43.6120733" lon="12.7794983"><ele>701.8</ele><time>2026-04-04T15:00:31.688Z</time></trkpt><trkpt lat="43.6120683" lon="12.77962"><ele>701.2</ele><time>2026-04-04T15:00:32.688Z</time></trkpt><trkpt lat="43.61207" lon="12.7797367"><ele>700.6</ele><time>2026-04-04T15:00:33.686Z</time></trkpt><trkpt lat="43.612075" lon="12.77995"><ele>700.0</ele><time>2026-04-04T15:00:35.689Z</time></trkpt><trkpt lat="43.6120767" lon="12.7800533"><ele>700.0</ele><time>2026-04-04T15:00:36.688Z</time></trkpt><trkpt lat="43.6120867" lon="12.7801567"><ele>700.0</ele><time>2026-04-04T15:00:37.689Z</time></trkpt><trkpt lat="43.6121" lon="12.78026"><ele>700.0</ele><time>2026-04-04T15:00:38.689Z</time></trkpt><trkpt lat="43.612115" lon="12.7803567"><ele>700.0</ele><time>2026-04-04T15:00:39.687Z</time></trkpt><trkpt lat="43.6121367" lon="12.78045"><ele>700.0</ele><time>2026-04-04T15:00:40.687Z</time></trkpt><trkpt lat="43.61217" lon="12.7805417"><ele>700.0</ele><time>2026-04-04T15:00:41.689Z</time></trkpt><trkpt lat="43.61222" lon="12.7806367"><ele>698.5</ele><time>2026-04-04T15:00:42.688Z</time></trkpt><trkpt lat="43.6122817" lon="12.7807317"><ele>697.0</ele><time>2026-04-04T15:00:43.692Z</time></trkpt><trkpt lat="43.6123383" lon="12.7808267"><ele>695.5</ele><time>2026-04-04T15:00:44.689Z</time></trkpt><trkpt lat="43.6123933" lon="12.7809183"><ele>694.0</ele><time>2026-04-04T15:00:45.687Z</time></trkpt><trkpt lat="43.6124417" lon="12.7810067"><ele>692.5</ele><time>2026-04-04T15:00:46.69Z</time></trkpt><trkpt lat="43.6124883" lon="12.78109"><ele>691.0</ele><time>2026-04-04T15:00:47.689Z</time></trkpt><trkpt lat="43.6125383" lon="12.7811683"><ele>690.6666666666667</ele><time>2026-04-04T15:00:48.687Z</time></trkpt><trkpt lat="43.61258" lon="12.78124"><ele>690.3333333333334</ele><time>2026-04-04T15:00:49.69Z</time></trkpt><trkpt lat="43.612635" lon="12.7813017"><ele>690.0</ele><time>2026-04-04T15:00:50.687Z</time></trkpt><trkpt lat="43.6126983" lon="12.7813617"><ele>689.6666666666666</ele><time>2026-04-04T15:00:51.688Z</time></trkpt><trkpt lat="43.61277" lon="12.7814283"><ele>689.3333333333333</ele><time>2026-04-04T15:00:52.69Z</time></trkpt><trkpt lat="43.61284" lon="12.781505"><ele>689.0</ele><time>2026-04-04T15:00:53.686Z</time></trkpt><trkpt lat="43.612905" lon="12.7815883"><ele>689.0</ele><time>2026-04-04T15:00:54.689Z</time></trkpt><trkpt lat="43.613015" lon="12.7817483"><ele>689.0</ele><time>2026-04-04T15:00:56.689Z</time></trkpt><trkpt lat="43.6130667" lon="12.7818233"><ele>689.0</ele><time>2026-04-04T15:00:57.685Z</time></trkpt><trkpt lat="43.6131133" lon="12.78189"><ele>689.0</ele><time>2026-04-04T15:00:58.687Z</time></trkpt><trkpt lat="43.6131917" lon="12.7820033"><ele>689.0</ele><time>2026-04-04T15:01:00.687Z</time></trkpt><trkpt lat="43.6132" lon="12.7821183"><ele>686.1666666666666</ele><time>2026-04-04T15:01:02.687Z</time></trkpt><trkpt lat="43.6131233" lon="12.7821733"><ele>683.3333333333333</ele><time>2026-04-04T15:01:04.687Z</time></trkpt><trkpt lat="43.6130583" lon="12.7821483"><ele>680.5</ele><time>2026-04-04T15:01:05.689Z</time></trkpt><trkpt lat="43.612995" lon="12.782115"><ele>677.6666666666666</ele><time>2026-04-04T15:01:06.687Z</time></trkpt><trkpt lat="43.612905" lon="12.7820683"><ele>674.8333333333334</ele><time>2026-04-04T15:01:07.69Z</time></trkpt><trkpt lat="43.6128183" lon="12.782025"><ele>672.0</ele><time>2026-04-04T15:01:08.69Z</time></trkpt><trkpt lat="43.612725" lon="12.78198"><ele>672.6666666666666</ele><time>2026-04-04T15:01:09.687Z</time></trkpt><trkpt lat="43.6126333" lon="12.7819417"><ele>673.3333333333334</ele><time>2026-04-04T15:01:10.688Z</time></trkpt><trkpt lat="43.612545" lon="12.7819083"><ele>674.0</ele><time>2026-04-04T15:01:11.689Z</time></trkpt><trkpt lat="43.6124617" lon="12.7818717"><ele>674.6666666666667</ele><time>2026-04-04T15:01:12.69Z</time></trkpt><trkpt lat="43.6123833" lon="12.781835"><ele>675.3333333333334</ele><time>2026-04-04T15:01:13.69Z</time></trkpt><trkpt lat="43.6123067" lon="12.7817983"><ele>676.0</ele><time>2026-04-04T15:01:14.689Z</time></trkpt><trkpt lat="43.6122367" lon="12.7817517"><ele>676.0</ele><time>2026-04-04T15:01:15.689Z</time></trkpt><trkpt lat="43.6121083" lon="12.781635"><ele>676.0</ele><time>2026-04-04T15:01:17.688Z</time></trkpt><trkpt lat="43.6120467" lon="12.7815767"><ele>676.0</ele><time>2026-04-04T15:01:18.689Z</time></trkpt><trkpt lat="43.6119817" lon="12.7815183"><ele>676.0</ele><time>2026-04-04T15:01:19.689Z</time></trkpt><trkpt lat="43.6119133" lon="12.78146"><ele>676.0</ele><time>2026-04-04T15:01:20.689Z</time></trkpt><trkpt lat="43.611845" lon="12.7814"><ele>673.8333333333334</ele><time>2026-04-04T15:01:21.687Z</time></trkpt><trkpt lat="43.6117767" lon="12.7813367"><ele>671.6666666666667</ele><time>2026-04-04T15:01:22.688Z</time></trkpt><trkpt lat="43.6117067" lon="12.78127"><ele>669.5</ele><time>2026-04-04T15:01:23.69Z</time></trkpt><trkpt lat="43.61164" lon="12.781205"><ele>667.3333333333334</ele><time>2026-04-04T15:01:24.689Z</time></trkpt><trkpt lat="43.6115767" lon="12.78114"><ele>665.1666666666666</ele><time>2026-04-04T15:01:25.69Z</time></trkpt><trkpt lat="43.6115117" lon="12.7810817"><ele>663.0</ele><time>2026-04-04T15:01:26.689Z</time></trkpt><trkpt lat="43.61145" lon="12.78102"><ele>661.6666666666666</ele><time>2026-04-04T15:01:27.689Z</time></trkpt><trkpt lat="43.61139" lon="12.7809517"><ele>660.3333333333334</ele><time>2026-04-04T15:01:28.687Z</time></trkpt><trkpt lat="43.61133" lon="12.7808783"><ele>659.0</ele><time>2026-04-04T15:01:29.688Z</time></trkpt><trkpt lat="43.6112733" lon="12.7808017"><ele>657.6666666666667</ele><time>2026-04-04T15:01:30.689Z</time></trkpt><trkpt lat="43.6112183" lon="12.7807233"><ele>656.3333333333334</ele><time>2026-04-04T15:01:31.687Z</time></trkpt><trkpt lat="43.6111633" lon="12.7806467"><ele>655.0</ele><time>2026-04-04T15:01:32.688Z</time></trkpt><trkpt lat="43.6111067" lon="12.7805767"><ele>655.0</ele><time>2026-04-04T15:01:33.687Z</time></trkpt><trkpt lat="43.6110483" lon="12.780515"><ele>655.0</ele><time>2026-04-04T15:01:34.688Z</time></trkpt><trkpt lat="43.610985" lon="12.7804567"><ele>655.0</ele><time>2026-04-04T15:01:35.688Z</time></trkpt><trkpt lat="43.610925" lon="12.7803967"><ele>655.0</ele><time>2026-04-04T15:01:36.689Z</time></trkpt><trkpt lat="43.6108017" lon="12.7803017"><ele>655.0</ele><time>2026-04-04T15:01:38.69Z</time></trkpt><trkpt lat="43.6106867" lon="12.7802867"><ele>655.0</ele><time>2026-04-04T15:01:40.691Z</time></trkpt><trkpt lat="43.610585" lon="12.780355"><ele>655.0</ele><time>2026-04-04T15:01:42.688Z</time></trkpt><trkpt lat="43.6105267" lon="12.7803983"><ele>655.0</ele><time>2026-04-04T15:01:43.691Z</time></trkpt><trkpt lat="43.610455" lon="12.780445"><ele>655.0</ele><time>2026-04-04T15:01:44.688Z</time></trkpt><trkpt lat="43.6103733" lon="12.780495"><ele>655.0</ele><time>2026-04-04T15:01:45.69Z</time></trkpt><trkpt lat="43.6102933" lon="12.7805517"><ele>655.0</ele><time>2026-04-04T15:01:46.689Z</time></trkpt><trkpt lat="43.61021" lon="12.78061"><ele>653.8333333333334</ele><time>2026-04-04T15:01:47.687Z</time></trkpt><trkpt lat="43.61013" lon="12.7806683"><ele>652.6666666666667</ele><time>2026-04-04T15:01:48.689Z</time></trkpt><trkpt lat="43.6100533" lon="12.78072"><ele>651.5</ele><time>2026-04-04T15:01:49.69Z</time></trkpt><trkpt lat="43.6099817" lon="12.7807767"><ele>650.3333333333334</ele><time>2026-04-04T15:01:50.688Z</time></trkpt><trkpt lat="43.6099167" lon="12.7808367"><ele>649.1666666666666</ele><time>2026-04-04T15:01:51.689Z</time></trkpt><trkpt lat="43.6098617" lon="12.7809067"><ele>648.0</ele><time>2026-04-04T15:01:52.688Z</time></trkpt><trkpt lat="43.6098233" lon="12.7809917"><ele>647.5999999999999</ele><time>2026-04-04T15:01:53.689Z</time></trkpt><trkpt lat="43.6097933" lon="12.78109"><ele>647.1999999999999</ele><time>2026-04-04T15:01:54.687Z</time></trkpt><trkpt lat="43.609775" lon="12.7812017"><ele>646.8</ele><time>2026-04-04T15:01:55.69Z</time></trkpt><trkpt lat="43.6097717" lon="12.7813317"><ele>646.4</ele><time>2026-04-04T15:01:56.688Z</time></trkpt><trkpt lat="43.60978" lon="12.7814783"><ele>646.0</ele><time>2026-04-04T15:01:57.688Z</time></trkpt><trkpt lat="43.609795" lon="12.78178"><ele>645.0</ele><time>2026-04-04T15:01:59.689Z</time></trkpt><trkpt lat="43.6098" lon="12.7819267"><ele>644.0</ele><time>2026-04-04T15:02:00.691Z</time></trkpt><trkpt lat="43.6098017" lon="12.7820633"><ele>643.0</ele><time>2026-04-04T15:02:01.689Z</time></trkpt><trkpt lat="43.6098017" lon="12.7821933"><ele>642.0</ele><time>2026-04-04T15:02:02.689Z</time></trkpt><trkpt lat="43.6097917" lon="12.78232"><ele>641.0</ele><time>2026-04-04T15:02:03.69Z</time></trkpt><trkpt lat="43.60977" lon="12.7824483"><ele>641.0</ele><time>2026-04-04T15:02:04.69Z</time></trkpt><trkpt lat="43.6097317" lon="12.7825733"><ele>641.0</ele><time>2026-04-04T15:02:05.689Z</time></trkpt><trkpt lat="43.6096783" lon="12.7826883"><ele>641.0</ele><time>2026-04-04T15:02:06.687Z</time></trkpt><trkpt lat="43.6096217" lon="12.7827917"><ele>641.0</ele><time>2026-04-04T15:02:07.691Z</time></trkpt><trkpt lat="43.6095617" lon="12.7828883"><ele>641.0</ele><time>2026-04-04T15:02:08.687Z</time></trkpt><trkpt lat="43.6095" lon="12.7829783"><ele>641.0</ele><time>2026-04-04T15:02:09.689Z</time></trkpt><trkpt lat="43.6094417" lon="12.7830617"><ele>641.0</ele><time>2026-04-04T15:02:10.689Z</time></trkpt><trkpt lat="43.6093917" lon="12.7831417"><ele>641.0</ele><time>2026-04-04T15:02:11.689Z</time></trkpt><trkpt lat="43.6093433" lon="12.7832133"><ele>641.0</ele><time>2026-04-04T15:02:12.689Z</time></trkpt><trkpt lat="43.609295" lon="12.7832733"><ele>641.0</ele><time>2026-04-04T15:02:13.691Z</time></trkpt><trkpt lat="43.6091817" lon="12.7833267"><ele>641.0</ele><time>2026-04-04T15:02:15.689Z</time></trkpt><trkpt lat="43.6091183" lon="12.783315"><ele>641.0</ele><time>2026-04-04T15:02:16.686Z</time></trkpt><trkpt lat="43.6090567" lon="12.7832767"><ele>641.0</ele><time>2026-04-04T15:02:17.691Z</time></trkpt><trkpt lat="43.608995" lon="12.78322"><ele>641.0</ele><time>2026-04-04T15:02:18.689Z</time></trkpt><trkpt lat="43.60891" lon="12.7830133"><ele>641.0</ele><time>2026-04-04T15:02:20.687Z</time></trkpt><trkpt lat="43.608855" lon="12.7829033"><ele>641.0</ele><time>2026-04-04T15:02:21.689Z</time></trkpt><trkpt lat="43.6087983" lon="12.78279"><ele>641.5999999999999</ele><time>2026-04-04T15:02:22.688Z</time></trkpt><trkpt lat="43.6087467" lon="12.78268"><ele>642.2</ele><time>2026-04-04T15:02:23.689Z</time></trkpt><trkpt lat="43.6086967" lon="12.7825733"><ele>642.8</ele><time>2026-04-04T15:02:24.689Z</time></trkpt><trkpt lat="43.60864" lon="12.782475"><ele>643.4000000000001</ele><time>2026-04-04T15:02:25.689Z</time></trkpt><trkpt lat="43.6085733" lon="12.78238"><ele>644.0</ele><time>2026-04-04T15:02:26.689Z</time></trkpt><trkpt lat="43.6085033" lon="12.78229"><ele>642.6</ele><time>2026-04-04T15:02:27.686Z</time></trkpt><trkpt lat="43.6084333" lon="12.7822017"><ele>641.2</ele><time>2026-04-04T15:02:28.687Z</time></trkpt><trkpt lat="43.6083683" lon="12.78211"><ele>639.8000000000001</ele><time>2026-04-04T15:02:29.69Z</time></trkpt><trkpt lat="43.60831" lon="12.7820133"><ele>638.4000000000001</ele><time>2026-04-04T15:02:30.688Z</time></trkpt><trkpt lat="43.6082517" lon="12.7819167"><ele>637.0</ele><time>2026-04-04T15:02:31.688Z</time></trkpt><trkpt lat="43.608205" lon="12.7818167"><ele>637.0</ele><time>2026-04-04T15:02:32.689Z</time></trkpt><trkpt lat="43.6081667" lon="12.7817133"><ele>637.0</ele><time>2026-04-04T15:02:33.688Z</time></trkpt><trkpt lat="43.6081367" lon="12.7816017"><ele>637.0</ele><time>2026-04-04T15:02:34.689Z</time></trkpt><trkpt lat="43.6081067" lon="12.7814833"><ele>637.0</ele><time>2026-04-04T15:02:35.689Z</time></trkpt><trkpt lat="43.608075" lon="12.781375"><ele>637.0</ele><time>2026-04-04T15:02:36.689Z</time></trkpt><trkpt lat="43.608035" lon="12.7812767"><ele>637.0</ele><time>2026-04-04T15:02:37.691Z</time></trkpt><trkpt lat="43.6079883" lon="12.78117"><ele>637.0</ele><time>2026-04-04T15:02:38.688Z</time></trkpt><trkpt lat="43.6079267" lon="12.7810517"><ele>637.0</ele><time>2026-04-04T15:02:39.69Z</time></trkpt><trkpt lat="43.6077933" lon="12.7808117"><ele>637.0</ele><time>2026-04-04T15:02:41.688Z</time></trkpt><trkpt lat="43.60772" lon="12.7806917"><ele>637.0</ele><time>2026-04-04T15:02:42.688Z</time></trkpt><trkpt lat="43.6076383" lon="12.7805833"><ele>635.2</ele><time>2026-04-04T15:02:43.69Z</time></trkpt><trkpt lat="43.6075667" lon="12.7804817"><ele>633.4000000000001</ele><time>2026-04-04T15:02:44.69Z</time></trkpt><trkpt lat="43.6075" lon="12.780385"><ele>631.5999999999999</ele><time>2026-04-04T15:02:45.691Z</time></trkpt><trkpt lat="43.6074433" lon="12.78029"><ele>629.8</ele><time>2026-04-04T15:02:46.688Z</time></trkpt><trkpt lat="43.6074033" lon="12.7801983"><ele>628.0</ele><time>2026-04-04T15:02:47.691Z</time></trkpt><trkpt lat="43.6073567" lon="12.7801017"><ele>628.0</ele><time>2026-04-04T15:02:48.689Z</time></trkpt><trkpt lat="43.607315" lon="12.7799967"><ele>628.0</ele><time>2026-04-04T15:02:49.689Z</time></trkpt><trkpt lat="43.6072767" lon="12.7798767"><ele>628.0</ele><time>2026-04-04T15:02:50.691Z</time></trkpt><trkpt lat="43.60724" lon="12.7797467"><ele>628.0</ele><time>2026-04-04T15:02:51.689Z</time></trkpt><trkpt lat="43.60721" lon="12.7796133"><ele>628.0</ele><time>2026-04-04T15:02:52.688Z</time></trkpt><trkpt lat="43.6071767" lon="12.77948"><ele>628.0</ele><time>2026-04-04T15:02:53.689Z</time></trkpt><trkpt lat="43.6071467" lon="12.7793533"><ele>628.0</ele><time>2026-04-04T15:02:54.689Z</time></trkpt><trkpt lat="43.607125" lon="12.7792233"><ele>628.0</ele><time>2026-04-04T15:02:55.69Z</time></trkpt><trkpt lat="43.607105" lon="12.7790883"><ele>628.0</ele><time>2026-04-04T15:02:56.688Z</time></trkpt><trkpt lat="43.6070883" lon="12.7789483"><ele>628.0</ele><time>2026-04-04T15:02:57.687Z</time></trkpt><trkpt lat="43.607075" lon="12.7788083"><ele>628.6666666666667</ele><time>2026-04-04T15:02:58.689Z</time></trkpt><trkpt lat="43.6070517" lon="12.77866"><ele>629.3333333333334</ele><time>2026-04-04T15:02:59.689Z</time></trkpt><trkpt lat="43.6070217" lon="12.7785067"><ele>630.0</ele><time>2026-04-04T15:03:00.688Z</time></trkpt><trkpt lat="43.6069417" lon="12.7782033"><ele>626.6</ele><time>2026-04-04T15:03:02.688Z</time></trkpt><trkpt lat="43.606895" lon="12.7780633"><ele>623.2</ele><time>2026-04-04T15:03:03.688Z</time></trkpt><trkpt lat="43.6068417" lon="12.777925"><ele>619.8</ele><time>2026-04-04T15:03:04.689Z</time></trkpt><trkpt lat="43.6067917" lon="12.7777917"><ele>616.4</ele><time>2026-04-04T15:03:05.688Z</time></trkpt><trkpt lat="43.6067383" lon="12.77766"><ele>613.0</ele><time>2026-04-04T15:03:06.691Z</time></trkpt><trkpt lat="43.606685" lon="12.7775267"><ele>613.0</ele><time>2026-04-04T15:03:07.692Z</time></trkpt><trkpt lat="43.606625" lon="12.777395"><ele>613.0</ele><time>2026-04-04T15:03:08.69Z</time></trkpt><trkpt lat="43.6065683" lon="12.7772633"><ele>613.0</ele><time>2026-04-04T15:03:09.689Z</time></trkpt><trkpt lat="43.6065167" lon="12.7771383"><ele>613.0</ele><time>2026-04-04T15:03:10.687Z</time></trkpt><trkpt lat="43.6064717" lon="12.7770217"><ele>613.0</ele><time>2026-04-04T15:03:11.691Z</time></trkpt><trkpt lat="43.6064267" lon="12.7769117"><ele>612.6666666666667</ele><time>2026-04-04T15:03:12.689Z</time></trkpt><trkpt lat="43.606385" lon="12.77681"><ele>612.3333333333334</ele><time>2026-04-04T15:03:13.69Z</time></trkpt><trkpt lat="43.6063417" lon="12.7767117"><ele>612.0</ele><time>2026-04-04T15:03:14.689Z</time></trkpt><trkpt lat="43.6062883" lon="12.7766183"><ele>611.6666666666666</ele><time>2026-04-04T15:03:15.69Z</time></trkpt><trkpt lat="43.60623" lon="12.7765217"><ele>611.3333333333333</ele><time>2026-04-04T15:03:16.688Z</time></trkpt><trkpt lat="43.6061717" lon="12.7764183"><ele>611.0</ele><time>2026-04-04T15:03:17.687Z</time></trkpt><trkpt lat="43.6061083" lon="12.7763017"><ele>612.5</ele><time>2026-04-04T15:03:18.689Z</time></trkpt><trkpt lat="43.6060483" lon="12.776185"><ele>614.0</ele><time>2026-04-04T15:03:19.688Z</time></trkpt><trkpt lat="43.605985" lon="12.7760717"><ele>615.5</ele><time>2026-04-04T15:03:20.689Z</time></trkpt><trkpt lat="43.6059317" lon="12.7759467"><ele>617.0</ele><time>2026-04-04T15:03:21.687Z</time></trkpt><trkpt lat="43.6058233" lon="12.77569"><ele>617.2</ele><time>2026-04-04T15:03:23.688Z</time></trkpt><trkpt lat="43.6057717" lon="12.77556"><ele>617.4000000000001</ele><time>2026-04-04T15:03:24.69Z</time></trkpt><trkpt lat="43.6057217" lon="12.77543"><ele>617.5999999999999</ele><time>2026-04-04T15:03:25.687Z</time></trkpt><trkpt lat="43.6056717" lon="12.7753"><ele>617.8</ele><time>2026-04-04T15:03:26.688Z</time></trkpt><trkpt lat="43.605625" lon="12.775165"><ele>618.0</ele><time>2026-04-04T15:03:27.686Z</time></trkpt><trkpt lat="43.6055783" lon="12.77503"><ele>615.4</ele><time>2026-04-04T15:03:28.687Z</time></trkpt><trkpt lat="43.60554" lon="12.77489"><ele>612.8</ele><time>2026-04-04T15:03:29.688Z</time></trkpt><trkpt lat="43.605515" lon="12.774755"><ele>610.2</ele><time>2026-04-04T15:03:30.687Z</time></trkpt><trkpt lat="43.6055117" lon="12.7746233"><ele>607.6</ele><time>2026-04-04T15:03:31.689Z</time></trkpt><trkpt lat="43.60551" lon="12.7744833"><ele>605.0</ele><time>2026-04-04T15:03:32.687Z</time></trkpt><trkpt lat="43.6055083" lon="12.7743467"><ele>603.8</ele><time>2026-04-04T15:03:33.689Z</time></trkpt><trkpt lat="43.6055033" lon="12.774205"><ele>602.6</ele><time>2026-04-04T15:03:34.687Z</time></trkpt><trkpt lat="43.6054933" lon="12.7740567"><ele>601.4</ele><time>2026-04-04T15:03:35.689Z</time></trkpt><trkpt lat="43.60548" lon="12.7739"><ele>600.2</ele><time>2026-04-04T15:03:36.687Z</time></trkpt><trkpt lat="43.6054633" lon="12.7737483"><ele>599.0</ele><time>2026-04-04T15:03:37.688Z</time></trkpt><trkpt lat="43.6054367" lon="12.7736083"><ele>597.4</ele><time>2026-04-04T15:03:38.687Z</time></trkpt><trkpt lat="43.6054267" lon="12.7734633"><ele>595.8</ele><time>2026-04-04T15:03:39.689Z</time></trkpt><trkpt lat="43.605415" lon="12.7733167"><ele>594.2</ele><time>2026-04-04T15:03:40.688Z</time></trkpt><trkpt lat="43.6054017" lon="12.7731717"><ele>592.6</ele><time>2026-04-04T15:03:41.687Z</time></trkpt><trkpt lat="43.60539" lon="12.773025"><ele>591.0</ele><time>2026-04-04T15:03:42.688Z</time></trkpt><trkpt lat="43.6053667" lon="12.7727483"><ele>589.6666666666666</ele><time>2026-04-04T15:03:44.688Z</time></trkpt><trkpt lat="43.6053517" lon="12.7726233"><ele>588.3333333333334</ele><time>2026-04-04T15:03:45.687Z</time></trkpt><trkpt lat="43.60533" lon="12.7725133"><ele>587.0</ele><time>2026-04-04T15:03:46.687Z</time></trkpt><trkpt lat="43.6053033" lon="12.7724117"><ele>585.6666666666667</ele><time>2026-04-04T15:03:47.688Z</time></trkpt><trkpt lat="43.6052767" lon="12.7723117"><ele>584.3333333333334</ele><time>2026-04-04T15:03:48.688Z</time></trkpt><trkpt lat="43.6052433" lon="12.7721983"><ele>583.0</ele><time>2026-04-04T15:03:49.688Z</time></trkpt><trkpt lat="43.6051983" lon="12.772085"><ele>587.6</ele><time>2026-04-04T15:03:50.687Z</time></trkpt><trkpt lat="43.6051367" lon="12.7719717"><ele>592.1999999999999</ele><time>2026-04-04T15:03:51.687Z</time></trkpt><trkpt lat="43.605075" lon="12.7718667"><ele>596.8</ele><time>2026-04-04T15:03:52.688Z</time></trkpt><trkpt lat="43.6050133" lon="12.771765"><ele>601.4</ele><time>2026-04-04T15:03:53.688Z</time></trkpt><trkpt lat="43.6049517" lon="12.771675"><ele>606.0</ele><time>2026-04-04T15:03:54.687Z</time></trkpt><trkpt lat="43.6048867" lon="12.7715917"><ele>606.0</ele><time>2026-04-04T15:03:55.692Z</time></trkpt><trkpt lat="43.604825" lon="12.77151"><ele>606.0</ele><time>2026-04-04T15:03:56.687Z</time></trkpt><trkpt lat="43.6047567" lon="12.77143"><ele>606.0</ele><time>2026-04-04T15:03:57.687Z</time></trkpt><trkpt lat="43.604695" lon="12.77135"><ele>606.0</ele><time>2026-04-04T15:03:58.687Z</time></trkpt><trkpt lat="43.6046417" lon="12.7712717"><ele>606.0</ele><time>2026-04-04T15:03:59.689Z</time></trkpt><trkpt lat="43.6045817" lon="12.7711883"><ele>606.0</ele><time>2026-04-04T15:04:00.687Z</time></trkpt><trkpt lat="43.6045267" lon="12.771095"><ele>604.75</ele><time>2026-04-04T15:04:01.689Z</time></trkpt><trkpt lat="43.6044833" lon="12.77099"><ele>603.5</ele><time>2026-04-04T15:04:02.687Z</time></trkpt><trkpt lat="43.6044483" lon="12.7708817"><ele>602.25</ele><time>2026-04-04T15:04:03.687Z</time></trkpt><trkpt lat="43.6043833" lon="12.7706383"><ele>601.0</ele><time>2026-04-04T15:04:05.689Z</time></trkpt><trkpt lat="43.604355" lon="12.7705033"><ele>601.0</ele><time>2026-04-04T15:04:06.689Z</time></trkpt><trkpt lat="43.6043317" lon="12.770385"><ele>601.0</ele><time>2026-04-04T15:04:07.688Z</time></trkpt><trkpt lat="43.60431" lon="12.7702767"><ele>601.0</ele><time>2026-04-04T15:04:08.687Z</time></trkpt><trkpt lat="43.604275" lon="12.770175"><ele>601.0</ele><time>2026-04-04T15:04:09.687Z</time></trkpt><trkpt lat="43.60425" lon="12.770095"><ele>601.0</ele><time>2026-04-04T15:04:10.688Z</time></trkpt><trkpt lat="43.60417" lon="12.769995"><ele>601.0</ele><time>2026-04-04T15:04:12.69Z</time></trkpt><trkpt lat="43.60408" lon="12.7699833"><ele>601.0</ele><time>2026-04-04T15:04:14.69Z</time></trkpt><trkpt lat="43.60402" lon="12.7700567"><ele>601.0</ele><time>2026-04-04T15:04:15.687Z</time></trkpt><trkpt lat="43.6039417" lon="12.7701767"><ele>601.0</ele><time>2026-04-04T15:04:16.687Z</time></trkpt><trkpt lat="43.6038567" lon="12.77032"><ele>601.0</ele><time>2026-04-04T15:04:17.688Z</time></trkpt><trkpt lat="43.603755" lon="12.7704833"><ele>601.0</ele><time>2026-04-04T15:04:18.688Z</time></trkpt><trkpt lat="43.603665" lon="12.7706217"><ele>601.0</ele><time>2026-04-04T15:04:19.689Z</time></trkpt><trkpt lat="43.6035767" lon="12.7707633"><ele>601.0</ele><time>2026-04-04T15:04:20.687Z</time></trkpt><trkpt lat="43.6034917" lon="12.7708933"><ele>601.0</ele><time>2026-04-04T15:04:21.686Z</time></trkpt><trkpt lat="43.6034033" lon="12.7710183"><ele>603.6666666666667</ele><time>2026-04-04T15:04:22.687Z</time></trkpt><trkpt lat="43.6033083" lon="12.7711267"><ele>606.3333333333334</ele><time>2026-04-04T15:04:23.689Z</time></trkpt><trkpt lat="43.60321" lon="12.771225"><ele>609.0</ele><time>2026-04-04T15:04:24.686Z</time></trkpt><trkpt lat="43.6029967" lon="12.7713417"><ele>609.0</ele><time>2026-04-04T15:04:26.69Z</time></trkpt><trkpt lat="43.6028883" lon="12.771375"><ele>609.0</ele><time>2026-04-04T15:04:27.687Z</time></trkpt><trkpt lat="43.6027717" lon="12.7714033"><ele>609.0</ele><time>2026-04-04T15:04:28.687Z</time></trkpt><trkpt lat="43.6026533" lon="12.7714283"><ele>609.0</ele><time>2026-04-04T15:04:29.687Z</time></trkpt><trkpt lat="43.6025367" lon="12.77145"><ele>604.8</ele><time>2026-04-04T15:04:30.686Z</time></trkpt><trkpt lat="43.6024267" lon="12.7714483"><ele>600.5999999999999</ele><time>2026-04-04T15:04:31.693Z</time></trkpt><trkpt lat="43.6023233" lon="12.771415"><ele>596.4</ele><time>2026-04-04T15:04:32.689Z</time></trkpt><trkpt lat="43.602235" lon="12.771355"><ele>592.1999999999999</ele><time>2026-04-04T15:04:33.689Z</time></trkpt><trkpt lat="43.60215" lon="12.7712767"><ele>588.0</ele><time>2026-04-04T15:04:34.687Z</time></trkpt><trkpt lat="43.602065" lon="12.7712117"><ele>586.1999999999999</ele><time>2026-04-04T15:04:35.69Z</time></trkpt><trkpt lat="43.601975" lon="12.77117"><ele>584.4</ele><time>2026-04-04T15:04:36.686Z</time></trkpt><trkpt lat="43.6018867" lon="12.77114"><ele>582.5999999999999</ele><time>2026-04-04T15:04:37.69Z</time></trkpt><trkpt lat="43.6017983" lon="12.7711167"><ele>580.8</ele><time>2026-04-04T15:04:38.689Z</time></trkpt><trkpt lat="43.6017117" lon="12.771095"><ele>579.0</ele><time>2026-04-04T15:04:39.686Z</time></trkpt><trkpt lat="43.6016233" lon="12.7710717"><ele>579.0</ele><time>2026-04-04T15:04:40.687Z</time></trkpt><trkpt lat="43.6015317" lon="12.7710517"><ele>579.0</ele><time>2026-04-04T15:04:41.689Z</time></trkpt><trkpt lat="43.6014417" lon="12.7710317"><ele>579.0</ele><time>2026-04-04T15:04:42.687Z</time></trkpt><trkpt lat="43.6013533" lon="12.7710217"><ele>579.0</ele><time>2026-04-04T15:04:43.692Z</time></trkpt><trkpt lat="43.6012683" lon="12.771035"><ele>579.0</ele><time>2026-04-04T15:04:44.688Z</time></trkpt><trkpt lat="43.6011833" lon="12.77107"><ele>579.0</ele><time>2026-04-04T15:04:45.689Z</time></trkpt><trkpt lat="43.6010217" lon="12.771215"><ele>576.4</ele><time>2026-04-04T15:04:47.688Z</time></trkpt><trkpt lat="43.600945" lon="12.7713183"><ele>573.8</ele><time>2026-04-04T15:04:48.689Z</time></trkpt><trkpt lat="43.600875" lon="12.7714317"><ele>571.2</ele><time>2026-04-04T15:04:49.69Z</time></trkpt><trkpt lat="43.6008033" lon="12.7715433"><ele>568.6</ele><time>2026-04-04T15:04:50.686Z</time></trkpt><trkpt lat="43.6007317" lon="12.7716567"><ele>566.0</ele><time>2026-04-04T15:04:51.686Z</time></trkpt><trkpt lat="43.6006517" lon="12.7717683"><ele>565.4</ele><time>2026-04-04T15:04:52.688Z</time></trkpt><trkpt lat="43.60057" lon="12.7718733"><ele>564.8</ele><time>2026-04-04T15:04:53.69Z</time></trkpt><trkpt lat="43.6004917" lon="12.77197"><ele>564.1999999999999</ele><time>2026-04-04T15:04:54.687Z</time></trkpt><trkpt lat="43.60041" lon="12.7720567"><ele>563.6</ele><time>2026-04-04T15:04:55.69Z</time></trkpt><trkpt lat="43.6003333" lon="12.7721467"><ele>563.0</ele><time>2026-04-04T15:04:56.688Z</time></trkpt><trkpt lat="43.6002717" lon="12.7722317"><ele>562.5</ele><time>2026-04-04T15:04:57.689Z</time></trkpt><trkpt lat="43.6002167" lon="12.772305"><ele>562.0</ele><time>2026-04-04T15:04:58.688Z</time></trkpt><trkpt lat="43.60017" lon="12.77237"><ele>561.5</ele><time>2026-04-04T15:04:59.689Z</time></trkpt><trkpt lat="43.6001183" lon="12.772515"><ele>561.0</ele><time>2026-04-04T15:05:01.69Z</time></trkpt><trkpt lat="43.6001683" lon="12.77259"><ele>560.5</ele><time>2026-04-04T15:05:02.691Z</time></trkpt><trkpt lat="43.6002517" lon="12.7726667"><ele>560.0</ele><time>2026-04-04T15:05:03.69Z</time></trkpt><trkpt lat="43.600385" lon="12.7727333"><ele>560.0</ele><time>2026-04-04T15:05:04.689Z</time></trkpt><trkpt lat="43.6004783" lon="12.772805"><ele>560.0</ele><time>2026-04-04T15:05:05.693Z</time></trkpt><trkpt lat="43.6005633" lon="12.7728783"><ele>560.0</ele><time>2026-04-04T15:05:06.691Z</time></trkpt><trkpt lat="43.6007017" lon="12.7730733"><ele>560.0</ele><time>2026-04-04T15:05:08.69Z</time></trkpt><trkpt lat="43.60073" lon="12.773185"><ele>560.0</ele><time>2026-04-04T15:05:09.691Z</time></trkpt><trkpt lat="43.6007283" lon="12.7733"><ele>560.0</ele><time>2026-04-04T15:05:10.689Z</time></trkpt><trkpt lat="43.6006783" lon="12.773425"><ele>560.0</ele><time>2026-04-04T15:05:11.689Z</time></trkpt><trkpt lat="43.60058" lon="12.7735433"><ele>560.0</ele><time>2026-04-04T15:05:12.69Z</time></trkpt><trkpt lat="43.600475" lon="12.773675"><ele>560.75</ele><time>2026-04-04T15:05:13.69Z</time></trkpt><trkpt lat="43.6003633" lon="12.7738067"><ele>561.5</ele><time>2026-04-04T15:05:14.69Z</time></trkpt><trkpt lat="43.6002617" lon="12.7739417"><ele>562.25</ele><time>2026-04-04T15:05:15.69Z</time></trkpt><trkpt lat="43.6001583" lon="12.7740633"><ele>563.0</ele><time>2026-04-04T15:05:16.688Z</time></trkpt><trkpt lat="43.6000533" lon="12.7741583"><ele>558.25</ele><time>2026-04-04T15:05:17.688Z</time></trkpt><trkpt lat="43.5999383" lon="12.7742233"><ele>553.5</ele><time>2026-04-04T15:05:18.688Z</time></trkpt><trkpt lat="43.5998083" lon="12.774265"><ele>548.75</ele><time>2026-04-04T15:05:19.688Z</time></trkpt><trkpt lat="43.5996733" lon="12.7742967"><ele>544.0</ele><time>2026-04-04T15:05:20.689Z</time></trkpt><trkpt lat="43.5995367" lon="12.7743283"><ele>540.75</ele><time>2026-04-04T15:05:21.686Z</time></trkpt><trkpt lat="43.5994067" lon="12.7743667"><ele>537.5</ele><time>2026-04-04T15:05:22.687Z</time></trkpt><trkpt lat="43.5992767" lon="12.7744067"><ele>534.25</ele><time>2026-04-04T15:05:23.687Z</time></trkpt><trkpt lat="43.5991433" lon="12.774445"><ele>531.0</ele><time>2026-04-04T15:05:24.689Z</time></trkpt><trkpt lat="43.599015" lon="12.7744683"><ele>531.0</ele><time>2026-04-04T15:05:25.689Z</time></trkpt><trkpt lat="43.5989" lon="12.7744783"><ele>531.0</ele><time>2026-04-04T15:05:26.688Z</time></trkpt><trkpt lat="43.5988" lon="12.774485"><ele>531.0</ele><time>2026-04-04T15:05:27.688Z</time></trkpt><trkpt lat="43.5986333" lon="12.7744533"><ele>531.0</ele><time>2026-04-04T15:05:29.689Z</time></trkpt><trkpt lat="43.59857" lon="12.7743983"><ele>531.4</ele><time>2026-04-04T15:05:30.688Z</time></trkpt><trkpt lat="43.5985367" lon="12.7743217"><ele>531.8</ele><time>2026-04-04T15:05:31.689Z</time></trkpt><trkpt lat="43.5985367" lon="12.7742167"><ele>532.1999999999999</ele><time>2026-04-04T15:05:32.69Z</time></trkpt><trkpt lat="43.59857" lon="12.7741017"><ele>532.6</ele><time>2026-04-04T15:05:33.688Z</time></trkpt><trkpt lat="43.598635" lon="12.773985"><ele>533.0</ele><time>2026-04-04T15:05:34.688Z</time></trkpt><trkpt lat="43.598715" lon="12.7738433"><ele>533.0</ele><time>2026-04-04T15:05:35.689Z</time></trkpt><trkpt lat="43.5988167" lon="12.7736967"><ele>533.0</ele><time>2026-04-04T15:05:36.688Z</time></trkpt><trkpt lat="43.5989217" lon="12.77356"><ele>533.0</ele><time>2026-04-04T15:05:37.692Z</time></trkpt><trkpt lat="43.5990083" lon="12.7734483"><ele>533.0</ele><time>2026-04-04T15:05:38.689Z</time></trkpt><trkpt lat="43.5990733" lon="12.7733567"><ele>531.0</ele><time>2026-04-04T15:05:39.691Z</time></trkpt><trkpt lat="43.599125" lon="12.7732783"><ele>529.0</ele><time>2026-04-04T15:05:40.692Z</time></trkpt><trkpt lat="43.5991667" lon="12.7731983"><ele>527.0</ele><time>2026-04-04T15:05:41.693Z</time></trkpt><trkpt lat="43.5991833" lon="12.77304"><ele>525.0</ele><time>2026-04-04T15:05:43.692Z</time></trkpt><trkpt lat="43.5991183" lon="12.7728667"><ele>523.0</ele><time>2026-04-04T15:05:45.689Z</time></trkpt><trkpt lat="43.5990633" lon="12.7727533"><ele>523.0</ele><time>2026-04-04T15:05:46.687Z</time></trkpt><trkpt lat="43.5990117" lon="12.7726267"><ele>523.0</ele><time>2026-04-04T15:05:47.689Z</time></trkpt><trkpt lat="43.5989617" lon="12.7724967"><ele>523.0</ele><time>2026-04-04T15:05:48.689Z</time></trkpt><trkpt lat="43.5988917" lon="12.77227"><ele>523.0</ele><time>2026-04-04T15:05:50.687Z</time></trkpt><trkpt lat="43.5988833" lon="12.7721633"><ele>523.0</ele><time>2026-04-04T15:05:51.691Z</time></trkpt><trkpt lat="43.5988967" lon="12.7720517"><ele>523.0</ele><time>2026-04-04T15:05:52.687Z</time></trkpt><trkpt lat="43.5989233" lon="12.7719217"><ele>523.0</ele><time>2026-04-04T15:05:53.691Z</time></trkpt><trkpt lat="43.5989583" lon="12.771765"><ele>523.0</ele><time>2026-04-04T15:05:54.689Z</time></trkpt><trkpt lat="43.5989967" lon="12.7716033"><ele>523.0</ele><time>2026-04-04T15:05:55.686Z</time></trkpt><trkpt lat="43.5990333" lon="12.7714433"><ele>521.1999999999999</ele><time>2026-04-04T15:05:56.688Z</time></trkpt><trkpt lat="43.5990683" lon="12.77129"><ele>519.4</ele><time>2026-04-04T15:05:57.686Z</time></trkpt><trkpt lat="43.5991083" lon="12.771145"><ele>517.5999999999999</ele><time>2026-04-04T15:05:58.687Z</time></trkpt><trkpt lat="43.5991467" lon="12.7710033"><ele>515.8</ele><time>2026-04-04T15:05:59.689Z</time></trkpt><trkpt lat="43.5991883" lon="12.7708733"><ele>514.0</ele><time>2026-04-04T15:06:00.689Z</time></trkpt><trkpt lat="43.599235" lon="12.770765"><ele>511.2</ele><time>2026-04-04T15:06:01.69Z</time></trkpt><trkpt lat="43.5992867" lon="12.77068"><ele>508.4</ele><time>2026-04-04T15:06:02.687Z</time></trkpt><trkpt lat="43.599335" lon="12.770615"><ele>505.6</ele><time>2026-04-04T15:06:03.687Z</time></trkpt><trkpt lat="43.5994033" lon="12.7705167"><ele>502.8</ele><time>2026-04-04T15:06:05.69Z</time></trkpt><trkpt lat="43.59937" lon="12.770435"><ele>500.0</ele><time>2026-04-04T15:06:09.689Z</time></trkpt><trkpt lat="43.5992283" lon="12.7705"><ele>500.0</ele><time>2026-04-04T15:06:12.689Z</time></trkpt><trkpt lat="43.5991483" lon="12.7705733"><ele>500.0</ele><time>2026-04-04T15:06:13.687Z</time></trkpt><trkpt lat="43.599045" lon="12.7706733"><ele>500.0</ele><time>2026-04-04T15:06:14.69Z</time></trkpt><trkpt lat="43.598945" lon="12.7707533"><ele>500.0</ele><time>2026-04-04T15:06:15.688Z</time></trkpt><trkpt lat="43.5988467" lon="12.77084"><ele>500.0</ele><time>2026-04-04T15:06:16.688Z</time></trkpt><trkpt lat="43.5987483" lon="12.7709383"><ele>500.0</ele><time>2026-04-04T15:06:17.689Z</time></trkpt><trkpt lat="43.5986567" lon="12.7710367"><ele>500.0</ele><time>2026-04-04T15:06:18.687Z</time></trkpt><trkpt lat="43.5985833" lon="12.7711333"><ele>500.0</ele><time>2026-04-04T15:06:19.69Z</time></trkpt><trkpt lat="43.59853" lon="12.7712567"><ele>500.0</ele><time>2026-04-04T15:06:20.687Z</time></trkpt><trkpt lat="43.5984967" lon="12.771395"><ele>498.4</ele><time>2026-04-04T15:06:21.687Z</time></trkpt><trkpt lat="43.5984717" lon="12.771535"><ele>496.8</ele><time>2026-04-04T15:06:22.688Z</time></trkpt><trkpt lat="43.5984433" lon="12.7716733"><ele>495.20000000000005</ele><time>2026-04-04T15:06:23.688Z</time></trkpt><trkpt lat="43.5984233" lon="12.7718033"><ele>493.6</ele><time>2026-04-04T15:06:24.688Z</time></trkpt><trkpt lat="43.5984" lon="12.7719217"><ele>492.0</ele><time>2026-04-04T15:06:25.689Z</time></trkpt><trkpt lat="43.598375" lon="12.7720433"><ele>492.0</ele><time>2026-04-04T15:06:26.689Z</time></trkpt><trkpt lat="43.598355" lon="12.7721633"><ele>492.00000000000006</ele><time>2026-04-04T15:06:27.688Z</time></trkpt><trkpt lat="43.5983217" lon="12.772275"><ele>492.00000000000006</ele><time>2026-04-04T15:06:28.691Z</time></trkpt><trkpt lat="43.5982833" lon="12.77237"><ele>492.0</ele><time>2026-04-04T15:06:29.69Z</time></trkpt><trkpt lat="43.5982333" lon="12.772455"><ele>492.0</ele><time>2026-04-04T15:06:30.688Z</time></trkpt><trkpt lat="43.5980883" lon="12.77258"><ele>492.0</ele><time>2026-04-04T15:06:32.69Z</time></trkpt><trkpt lat="43.5979867" lon="12.772635"><ele>492.0</ele><time>2026-04-04T15:06:33.69Z</time></trkpt><trkpt lat="43.5978867" lon="12.7727167"><ele>492.0</ele><time>2026-04-04T15:06:34.688Z</time></trkpt><trkpt lat="43.597785" lon="12.772815"><ele>492.0</ele><time>2026-04-04T15:06:35.687Z</time></trkpt><trkpt lat="43.5976917" lon="12.772915"><ele>490.25</ele><time>2026-04-04T15:06:36.688Z</time></trkpt><trkpt lat="43.5976017" lon="12.7730217"><ele>488.5</ele><time>2026-04-04T15:06:37.689Z</time></trkpt><trkpt lat="43.59751" lon="12.77312"><ele>486.75</ele><time>2026-04-04T15:06:38.691Z</time></trkpt><trkpt lat="43.597425" lon="12.7732217"><ele>485.0</ele><time>2026-04-04T15:06:39.687Z</time></trkpt><trkpt lat="43.5973367" lon="12.7733167"><ele>485.0</ele><time>2026-04-04T15:06:40.689Z</time></trkpt><trkpt lat="43.597245" lon="12.7733983"><ele>485.0</ele><time>2026-04-04T15:06:41.688Z</time></trkpt><trkpt lat="43.59716" lon="12.7734733"><ele>485.0</ele><time>2026-04-04T15:06:42.689Z</time></trkpt><trkpt lat="43.5970733" lon="12.773535"><ele>485.0</ele><time>2026-04-04T15:06:43.69Z</time></trkpt><trkpt lat="43.5969883" lon="12.7735883"><ele>485.0</ele><time>2026-04-04T15:06:44.689Z</time></trkpt><trkpt lat="43.5969" lon="12.7736317"><ele>485.4</ele><time>2026-04-04T15:06:45.688Z</time></trkpt><trkpt lat="43.59681" lon="12.773665"><ele>485.8</ele><time>2026-04-04T15:06:46.688Z</time></trkpt><trkpt lat="43.5967183" lon="12.7736783"><ele>486.20000000000005</ele><time>2026-04-04T15:06:47.689Z</time></trkpt><trkpt lat="43.5966283" lon="12.7736817"><ele>486.6</ele><time>2026-04-04T15:06:48.691Z</time></trkpt><trkpt lat="43.596535" lon="12.773685"><ele>487.0</ele><time>2026-04-04T15:06:49.689Z</time></trkpt><trkpt lat="43.5964417" lon="12.7736883"><ele>487.0</ele><time>2026-04-04T15:06:50.688Z</time></trkpt><trkpt lat="43.5963467" lon="12.7736867"><ele>487.0</ele><time>2026-04-04T15:06:51.687Z</time></trkpt><trkpt lat="43.596155" lon="12.7736433"><ele>487.0</ele><time>2026-04-04T15:06:53.691Z</time></trkpt><trkpt lat="43.5960667" lon="12.7736633"><ele>487.0</ele><time>2026-04-04T15:06:54.691Z</time></trkpt><trkpt lat="43.5959883" lon="12.7737233"><ele>482.0</ele><time>2026-04-04T15:06:55.69Z</time></trkpt><trkpt lat="43.5959183" lon="12.7738067"><ele>477.00000000000006</ele><time>2026-04-04T15:06:56.687Z</time></trkpt><trkpt lat="43.59584" lon="12.7739033"><ele>472.00000000000006</ele><time>2026-04-04T15:06:57.687Z</time></trkpt><trkpt lat="43.5957617" lon="12.774"><ele>467.0</ele><time>2026-04-04T15:06:58.688Z</time></trkpt><trkpt lat="43.595675" lon="12.7740833"><ele>462.0</ele><time>2026-04-04T15:06:59.69Z</time></trkpt><trkpt lat="43.595585" lon="12.77416"><ele>462.0</ele><time>2026-04-04T15:07:00.689Z</time></trkpt><trkpt lat="43.595505" lon="12.77423"><ele>462.00000000000006</ele><time>2026-04-04T15:07:01.689Z</time></trkpt><trkpt lat="43.5954317" lon="12.7742883"><ele>462.00000000000006</ele><time>2026-04-04T15:07:02.689Z</time></trkpt><trkpt lat="43.5953633" lon="12.77433"><ele>462.0</ele><time>2026-04-04T15:07:03.689Z</time></trkpt><trkpt lat="43.595285" lon="12.77429"><ele>462.0</ele><time>2026-04-04T15:07:05.69Z</time></trkpt><trkpt lat="43.5952983" lon="12.7741283"><ele>462.0</ele><time>2026-04-04T15:07:07.69Z</time></trkpt><trkpt lat="43.595345" lon="12.7740333"><ele>462.0</ele><time>2026-04-04T15:07:08.688Z</time></trkpt><trkpt lat="43.595415" lon="12.77395"><ele>462.0</ele><time>2026-04-04T15:07:09.687Z</time></trkpt><trkpt lat="43.5954617" lon="12.7738633"><ele>462.0</ele><time>2026-04-04T15:07:10.688Z</time></trkpt><trkpt lat="43.5955117" lon="12.7737767"><ele>462.0</ele><time>2026-04-04T15:07:11.688Z</time></trkpt><trkpt lat="43.59556" lon="12.77369"><ele>462.0</ele><time>2026-04-04T15:07:12.689Z</time></trkpt><trkpt lat="43.595655" lon="12.7734983"><ele>459.6666666666667</ele><time>2026-04-04T15:07:14.69Z</time></trkpt><trkpt lat="43.5956967" lon="12.7733933"><ele>457.33333333333337</ele><time>2026-04-04T15:07:15.687Z</time></trkpt><trkpt lat="43.59574" lon="12.7732883"><ele>455.0</ele><time>2026-04-04T15:07:16.689Z</time></trkpt><trkpt lat="43.5957883" lon="12.7731833"><ele>452.6666666666667</ele><time>2026-04-04T15:07:17.691Z</time></trkpt><trkpt lat="43.5958383" lon="12.7730783"><ele>450.33333333333337</ele><time>2026-04-04T15:07:18.687Z</time></trkpt><trkpt lat="43.5958967" lon="12.7729867"><ele>448.0</ele><time>2026-04-04T15:07:19.688Z</time></trkpt><trkpt lat="43.59595" lon="12.77291"><ele>448.00000000000006</ele><time>2026-04-04T15:07:20.688Z</time></trkpt><trkpt lat="43.5959917" lon="12.7728433"><ele>448.0</ele><time>2026-04-04T15:07:21.688Z</time></trkpt><trkpt lat="43.59601" lon="12.7727283"><ele>448.0</ele><time>2026-04-04T15:07:23.689Z</time></trkpt><trkpt lat="43.59594" lon="12.7726733"><ele>448.0</ele><time>2026-04-04T15:07:25.688Z</time></trkpt><trkpt lat="43.5958767" lon="12.7727033"><ele>448.00000000000006</ele><time>2026-04-04T15:07:26.689Z</time></trkpt><trkpt lat="43.5958133" lon="12.772735"><ele>448.0</ele><time>2026-04-04T15:07:27.689Z</time></trkpt><trkpt lat="43.5957283" lon="12.77279"><ele>448.0</ele><time>2026-04-04T15:07:28.691Z</time></trkpt><trkpt lat="43.5956283" lon="12.77284"><ele>447.99999999999994</ele><time>2026-04-04T15:07:29.688Z</time></trkpt><trkpt lat="43.5955217" lon="12.7728783"><ele>447.99999999999994</ele><time>2026-04-04T15:07:30.689Z</time></trkpt><trkpt lat="43.5954133" lon="12.7729167"><ele>448.0</ele><time>2026-04-04T15:07:31.689Z</time></trkpt><trkpt lat="43.59531" lon="12.7729517"><ele>448.0</ele><time>2026-04-04T15:07:32.688Z</time></trkpt><trkpt lat="43.5952033" lon="12.7729917"><ele>444.5</ele><time>2026-04-04T15:07:33.69Z</time></trkpt><trkpt lat="43.5949867" lon="12.7730617"><ele>441.0</ele><time>2026-04-04T15:07:35.688Z</time></trkpt><trkpt lat="43.594885" lon="12.773085"><ele>437.5</ele><time>2026-04-04T15:07:36.69Z</time></trkpt><trkpt lat="43.594775" lon="12.7731033"><ele>434.0</ele><time>2026-04-04T15:07:37.689Z</time></trkpt><trkpt lat="43.594665" lon="12.7731067"><ele>434.0</ele><time>2026-04-04T15:07:38.689Z</time></trkpt><trkpt lat="43.5945567" lon="12.7730933"><ele>434.0</ele><time>2026-04-04T15:07:39.691Z</time></trkpt><trkpt lat="43.59445" lon="12.7730617"><ele>434.0</ele><time>2026-04-04T15:07:40.687Z</time></trkpt><trkpt lat="43.5943467" lon="12.7730233"><ele>434.0</ele><time>2026-04-04T15:07:41.689Z</time></trkpt><trkpt lat="43.59424" lon="12.772985"><ele>434.0</ele><time>2026-04-04T15:07:42.689Z</time></trkpt><trkpt lat="43.5941383" lon="12.77294"><ele>433.2</ele><time>2026-04-04T15:07:43.69Z</time></trkpt><trkpt lat="43.5940383" lon="12.772885"><ele>432.4</ele><time>2026-04-04T15:07:44.687Z</time></trkpt><trkpt lat="43.5939567" lon="12.7727983"><ele>431.6</ele><time>2026-04-04T15:07:45.689Z</time></trkpt><trkpt lat="43.5938933" lon="12.7726867"><ele>430.8</ele><time>2026-04-04T15:07:46.688Z</time></trkpt><trkpt lat="43.59385" lon="12.77256"><ele>430.0</ele><time>2026-04-04T15:07:47.689Z</time></trkpt><trkpt lat="43.59382" lon="12.7724233"><ele>427.4</ele><time>2026-04-04T15:07:48.689Z</time></trkpt><trkpt lat="43.5938133" lon="12.7722817"><ele>424.8</ele><time>2026-04-04T15:07:49.69Z</time></trkpt><trkpt lat="43.5938217" lon="12.7721417"><ele>422.20000000000005</ele><time>2026-04-04T15:07:50.689Z</time></trkpt><trkpt lat="43.59383" lon="12.7720167"><ele>419.6</ele><time>2026-04-04T15:07:51.687Z</time></trkpt><trkpt lat="43.5938233" lon="12.7718967"><ele>417.0</ele><time>2026-04-04T15:07:52.69Z</time></trkpt><trkpt lat="43.5937967" lon="12.7718017"><ele>414.5</ele><time>2026-04-04T15:07:53.689Z</time></trkpt><trkpt lat="43.5937433" lon="12.7717383"><ele>412.0</ele><time>2026-04-04T15:07:54.689Z</time></trkpt><trkpt lat="43.5935633" lon="12.7716967"><ele>409.5</ele><time>2026-04-04T15:07:56.688Z</time></trkpt><trkpt lat="43.5934583" lon="12.7717"><ele>407.0</ele><time>2026-04-04T15:07:57.689Z</time></trkpt><trkpt lat="43.5933417" lon="12.7717267"><ele>407.0</ele><time>2026-04-04T15:07:58.687Z</time></trkpt><trkpt lat="43.593235" lon="12.771765"><ele>407.0</ele><time>2026-04-04T15:07:59.687Z</time></trkpt><trkpt lat="43.5931267" lon="12.7718283"><ele>407.0</ele><time>2026-04-04T15:08:00.687Z</time></trkpt><trkpt lat="43.5930267" lon="12.7719017"><ele>407.0</ele><time>2026-04-04T15:08:01.688Z</time></trkpt><trkpt lat="43.592935" lon="12.7719933"><ele>409.25</ele><time>2026-04-04T15:08:02.687Z</time></trkpt><trkpt lat="43.5928617" lon="12.7721033"><ele>411.5</ele><time>2026-04-04T15:08:03.686Z</time></trkpt><trkpt lat="43.59279" lon="12.7722267"><ele>413.75</ele><time>2026-04-04T15:08:04.686Z</time></trkpt><trkpt lat="43.5927233" lon="12.7723767"><ele>416.0</ele><time>2026-04-04T15:08:05.69Z</time></trkpt><trkpt lat="43.5926533" lon="12.7725433"><ele>411.75</ele><time>2026-04-04T15:08:06.687Z</time></trkpt><trkpt lat="43.5925817" lon="12.772715"><ele>407.5</ele><time>2026-04-04T15:08:07.69Z</time></trkpt><trkpt lat="43.5925183" lon="12.7728767"><ele>403.25</ele><time>2026-04-04T15:08:08.689Z</time></trkpt><trkpt lat="43.592435" lon="12.773025"><ele>399.0</ele><time>2026-04-04T15:08:09.688Z</time></trkpt><trkpt lat="43.59234" lon="12.7731633"><ele>399.0</ele><time>2026-04-04T15:08:10.688Z</time></trkpt><trkpt lat="43.5922283" lon="12.77329"><ele>399.0</ele><time>2026-04-04T15:08:11.686Z</time></trkpt><trkpt lat="43.5921167" lon="12.7734133"><ele>399.0</ele><time>2026-04-04T15:08:12.687Z</time></trkpt><trkpt lat="43.5920167" lon="12.77354"><ele>399.0</ele><time>2026-04-04T15:08:13.691Z</time></trkpt><trkpt lat="43.5919233" lon="12.7736667"><ele>395.25</ele><time>2026-04-04T15:08:14.688Z</time></trkpt><trkpt lat="43.5918367" lon="12.7737933"><ele>391.5</ele><time>2026-04-04T15:08:15.689Z</time></trkpt><trkpt lat="43.5917283" lon="12.7740533"><ele>387.75</ele><time>2026-04-04T15:08:17.687Z</time></trkpt><trkpt lat="43.5917167" lon="12.7741783"><ele>384.0</ele><time>2026-04-04T15:08:18.687Z</time></trkpt><trkpt lat="43.5917267" lon="12.7742983"><ele>384.0</ele><time>2026-04-04T15:08:19.688Z</time></trkpt><trkpt lat="43.5917633" lon="12.7743917"><ele>384.0</ele><time>2026-04-04T15:08:20.686Z</time></trkpt><trkpt lat="43.5918217" lon="12.7744583"><ele>384.0</ele><time>2026-04-04T15:08:21.686Z</time></trkpt><trkpt lat="43.5918633" lon="12.7745383"><ele>384.0</ele><time>2026-04-04T15:08:22.689Z</time></trkpt><trkpt lat="43.5918883" lon="12.7746267"><ele>384.0</ele><time>2026-04-04T15:08:23.688Z</time></trkpt><trkpt lat="43.5918417" lon="12.7747883"><ele>384.0</ele><time>2026-04-04T15:08:25.69Z</time></trkpt><trkpt lat="43.5917817" lon="12.77486"><ele>384.0</ele><time>2026-04-04T15:08:26.688Z</time></trkpt><trkpt lat="43.59172" lon="12.7749317"><ele>384.0</ele><time>2026-04-04T15:08:27.688Z</time></trkpt><trkpt lat="43.5916533" lon="12.7749933"><ele>384.0</ele><time>2026-04-04T15:08:28.687Z</time></trkpt><trkpt lat="43.59158" lon="12.7750483"><ele>384.0</ele><time>2026-04-04T15:08:29.688Z</time></trkpt><trkpt lat="43.5914933" lon="12.775095"><ele>384.0</ele><time>2026-04-04T15:08:30.688Z</time></trkpt><trkpt lat="43.5913933" lon="12.7751233"><ele>384.0</ele><time>2026-04-04T15:08:31.689Z</time></trkpt><trkpt lat="43.591275" lon="12.7751317"><ele>381.0</ele><time>2026-04-04T15:08:32.686Z</time></trkpt><trkpt lat="43.59115" lon="12.775125"><ele>378.0</ele><time>2026-04-04T15:08:33.69Z</time></trkpt><trkpt lat="43.5910167" lon="12.7750883"><ele>375.0</ele><time>2026-04-04T15:08:34.69Z</time></trkpt><trkpt lat="43.59088" lon="12.7750383"><ele>372.0</ele><time>2026-04-04T15:08:35.687Z</time></trkpt><trkpt lat="43.59075" lon="12.774985"><ele>372.0</ele><time>2026-04-04T15:08:36.687Z</time></trkpt><trkpt lat="43.5905017" lon="12.7748783"><ele>372.0</ele><time>2026-04-04T15:08:38.686Z</time></trkpt><trkpt lat="43.590395" lon="12.774795"><ele>372.0</ele><time>2026-04-04T15:08:39.689Z</time></trkpt><trkpt lat="43.5903" lon="12.7747033"><ele>370.40000000000003</ele><time>2026-04-04T15:08:40.688Z</time></trkpt><trkpt lat="43.590205" lon="12.774625"><ele>368.8</ele><time>2026-04-04T15:08:41.69Z</time></trkpt><trkpt lat="43.590105" lon="12.7745767"><ele>367.2</ele><time>2026-04-04T15:08:42.687Z</time></trkpt><trkpt lat="43.590005" lon="12.774555"><ele>365.6</ele><time>2026-04-04T15:08:43.69Z</time></trkpt><trkpt lat="43.5899133" lon="12.7745633"><ele>364.0</ele><time>2026-04-04T15:08:44.688Z</time></trkpt><trkpt lat="43.589825" lon="12.7745967"><ele>364.0</ele><time>2026-04-04T15:08:45.688Z</time></trkpt><trkpt lat="43.58975" lon="12.7746533"><ele>364.0</ele><time>2026-04-04T15:08:46.689Z</time></trkpt><trkpt lat="43.5896867" lon="12.774725"><ele>364.0</ele><time>2026-04-04T15:08:47.688Z</time></trkpt><trkpt lat="43.5896333" lon="12.7748117"><ele>364.0</ele><time>2026-04-04T15:08:48.686Z</time></trkpt><trkpt lat="43.5896017" lon="12.7749133"><ele>364.0</ele><time>2026-04-04T15:08:49.688Z</time></trkpt><trkpt lat="43.589565" lon="12.775"><ele>364.0</ele><time>2026-04-04T15:08:50.687Z</time></trkpt><trkpt lat="43.5894533" lon="12.77505"><ele>361.0</ele><time>2026-04-04T15:08:52.688Z</time></trkpt><trkpt lat="43.58937" lon="12.7750167"><ele>358.0</ele><time>2026-04-04T15:08:53.688Z</time></trkpt><trkpt lat="43.589285" lon="12.7750133"><ele>355.0</ele><time>2026-04-04T15:08:54.685Z</time></trkpt><trkpt lat="43.5891733" lon="12.7750033"><ele>352.0</ele><time>2026-04-04T15:08:55.688Z</time></trkpt><trkpt lat="43.5890583" lon="12.7750183"><ele>349.0</ele><time>2026-04-04T15:08:56.688Z</time></trkpt><trkpt lat="43.5889517" lon="12.7750517"><ele>349.0</ele><time>2026-04-04T15:08:57.689Z</time></trkpt><trkpt lat="43.5887467" lon="12.7751433"><ele>349.0</ele><time>2026-04-04T15:08:59.69Z</time></trkpt><trkpt lat="43.588655" lon="12.7752133"><ele>349.0</ele><time>2026-04-04T15:09:00.688Z</time></trkpt><trkpt lat="43.5885633" lon="12.7752867"><ele>349.0</ele><time>2026-04-04T15:09:01.688Z</time></trkpt><trkpt lat="43.58847" lon="12.77533"><ele>347.2</ele><time>2026-04-04T15:09:02.688Z</time></trkpt><trkpt lat="43.5883667" lon="12.7753417"><ele>345.4</ele><time>2026-04-04T15:09:03.688Z</time></trkpt><trkpt lat="43.5882733" lon="12.775295"><ele>343.6</ele><time>2026-04-04T15:09:04.688Z</time></trkpt><trkpt lat="43.5881933" lon="12.7752083"><ele>341.8</ele><time>2026-04-04T15:09:05.687Z</time></trkpt><trkpt lat="43.58811" lon="12.7751083"><ele>340.0</ele><time>2026-04-04T15:09:06.687Z</time></trkpt><trkpt lat="43.588015" lon="12.7749983"><ele>338.75</ele><time>2026-04-04T15:09:07.69Z</time></trkpt><trkpt lat="43.5879217" lon="12.7748767"><ele>337.5</ele><time>2026-04-04T15:09:08.688Z</time></trkpt><trkpt lat="43.5878283" lon="12.7747467"><ele>336.25</ele><time>2026-04-04T15:09:09.687Z</time></trkpt><trkpt lat="43.5877433" lon="12.7746183"><ele>335.0</ele><time>2026-04-04T15:09:10.688Z</time></trkpt><trkpt lat="43.5876583" lon="12.7745033"><ele>334.2</ele><time>2026-04-04T15:09:11.688Z</time></trkpt><trkpt lat="43.5875783" lon="12.774405"><ele>333.4</ele><time>2026-04-04T15:09:12.687Z</time></trkpt><trkpt lat="43.5875017" lon="12.7743183"><ele>332.6</ele><time>2026-04-04T15:09:13.688Z</time></trkpt><trkpt lat="43.587425" lon="12.77426"><ele>331.8</ele><time>2026-04-04T15:09:14.688Z</time></trkpt><trkpt lat="43.5873467" lon="12.7742267"><ele>331.0</ele><time>2026-04-04T15:09:15.689Z</time></trkpt><trkpt lat="43.58726" lon="12.7742017"><ele>331.0</ele><time>2026-04-04T15:09:16.687Z</time></trkpt><trkpt lat="43.5871633" lon="12.7741733"><ele>331.0</ele><time>2026-04-04T15:09:17.69Z</time></trkpt><trkpt lat="43.587065" lon="12.7741383"><ele>331.0</ele><time>2026-04-04T15:09:18.687Z</time></trkpt><trkpt lat="43.5868833" lon="12.77408"><ele>331.0</ele><time>2026-04-04T15:09:20.687Z</time></trkpt><trkpt lat="43.5868183" lon="12.774065"><ele>331.0</ele><time>2026-04-04T15:09:21.688Z</time></trkpt><trkpt lat="43.58674" lon="12.7740783"><ele>331.0</ele><time>2026-04-04T15:09:23.687Z</time></trkpt><trkpt lat="43.5866967" lon="12.7741733"><ele>331.0</ele><time>2026-04-04T15:09:25.69Z</time></trkpt><trkpt lat="43.5866783" lon="12.7742783"><ele>331.0</ele><time>2026-04-04T15:09:26.688Z</time></trkpt><trkpt lat="43.586665" lon="12.7744067"><ele>331.0</ele><time>2026-04-04T15:09:27.686Z</time></trkpt><trkpt lat="43.5866467" lon="12.77453"><ele>331.0</ele><time>2026-04-04T15:09:28.688Z</time></trkpt><trkpt lat="43.5866283" lon="12.7746467"><ele>331.0</ele><time>2026-04-04T15:09:29.686Z</time></trkpt><trkpt lat="43.586615" lon="12.7747483"><ele>331.0</ele><time>2026-04-04T15:09:30.688Z</time></trkpt><trkpt lat="43.5866083" lon="12.774845"><ele>331.0</ele><time>2026-04-04T15:09:31.688Z</time></trkpt><trkpt lat="43.5866017" lon="12.774945"><ele>331.0</ele><time>2026-04-04T15:09:32.688Z</time></trkpt><trkpt lat="43.5865917" lon="12.7750533"><ele>331.0</ele><time>2026-04-04T15:09:33.686Z</time></trkpt><trkpt lat="43.586575" lon="12.7751783"><ele>331.0</ele><time>2026-04-04T15:09:34.687Z</time></trkpt><trkpt lat="43.586555" lon="12.7753167"><ele>331.0</ele><time>2026-04-04T15:09:35.688Z</time></trkpt><trkpt lat="43.5865417" lon="12.77546"><ele>331.0</ele><time>2026-04-04T15:09:36.687Z</time></trkpt><trkpt lat="43.5865433" lon="12.775605"><ele>331.0</ele><time>2026-04-04T15:09:37.688Z</time></trkpt><trkpt lat="43.58656" lon="12.775745"><ele>331.0</ele><time>2026-04-04T15:09:38.687Z</time></trkpt><trkpt lat="43.5866033" lon="12.775885"><ele>331.0</ele><time>2026-04-04T15:09:39.685Z</time></trkpt><trkpt lat="43.5867583" lon="12.7761533"><ele>331.0</ele><time>2026-04-04T15:09:41.688Z</time></trkpt><trkpt lat="43.586855" lon="12.7762867"><ele>331.0</ele><time>2026-04-04T15:09:42.688Z</time></trkpt><trkpt lat="43.5869533" lon="12.7764217"><ele>331.0</ele><time>2026-04-04T15:09:43.688Z</time></trkpt><trkpt lat="43.5870533" lon="12.7765633"><ele>331.0</ele><time>2026-04-04T15:09:44.69Z</time></trkpt><trkpt lat="43.5871533" lon="12.7767083"><ele>330.5</ele><time>2026-04-04T15:09:45.686Z</time></trkpt><trkpt lat="43.5872567" lon="12.7768583"><ele>330.0</ele><time>2026-04-04T15:09:46.687Z</time></trkpt><trkpt lat="43.587355" lon="12.7770117"><ele>329.5</ele><time>2026-04-04T15:09:47.687Z</time></trkpt><trkpt lat="43.5874417" lon="12.7771767"><ele>329.0</ele><time>2026-04-04T15:09:48.687Z</time></trkpt><trkpt lat="43.5875133" lon="12.777365"><ele>329.0</ele><time>2026-04-04T15:09:49.688Z</time></trkpt><trkpt lat="43.5875633" lon="12.77757"><ele>329.0</ele><time>2026-04-04T15:09:50.685Z</time></trkpt><trkpt lat="43.5876033" lon="12.7777783"><ele>329.0</ele><time>2026-04-04T15:09:51.686Z</time></trkpt><trkpt lat="43.5876383" lon="12.7779933"><ele>329.0</ele><time>2026-04-04T15:09:52.688Z</time></trkpt><trkpt lat="43.5876767" lon="12.778205"><ele>329.0</ele><time>2026-04-04T15:09:53.69Z</time></trkpt><trkpt lat="43.5877217" lon="12.778425"><ele>329.0</ele><time>2026-04-04T15:09:54.688Z</time></trkpt><trkpt lat="43.5877617" lon="12.778645"><ele>327.33333333333337</ele><time>2026-04-04T15:09:55.689Z</time></trkpt><trkpt lat="43.5878033" lon="12.7788667"><ele>325.6666666666667</ele><time>2026-04-04T15:09:56.686Z</time></trkpt><trkpt lat="43.5878467" lon="12.77909"><ele>324.0</ele><time>2026-04-04T15:09:57.687Z</time></trkpt><trkpt lat="43.587885" lon="12.7793117"><ele>327.0</ele><time>2026-04-04T15:09:58.688Z</time></trkpt><trkpt lat="43.58792" lon="12.7795233"><ele>330.0</ele><time>2026-04-04T15:09:59.686Z</time></trkpt><trkpt lat="43.587955" lon="12.77972"><ele>333.0</ele><time>2026-04-04T15:10:00.685Z</time></trkpt><trkpt lat="43.58804" lon="12.7800617"><ele>330.25</ele><time>2026-04-04T15:10:02.687Z</time></trkpt><trkpt lat="43.5881067" lon="12.7802067"><ele>327.5</ele><time>2026-04-04T15:10:03.688Z</time></trkpt><trkpt lat="43.5881967" lon="12.780345"><ele>324.75</ele><time>2026-04-04T15:10:04.686Z</time></trkpt><trkpt lat="43.5882983" lon="12.7804767"><ele>322.0</ele><time>2026-04-04T15:10:05.69Z</time></trkpt><trkpt lat="43.5884067" lon="12.7806117"><ele>322.0</ele><time>2026-04-04T15:10:06.688Z</time></trkpt><trkpt lat="43.58852" lon="12.7807517"><ele>322.0</ele><time>2026-04-04T15:10:07.689Z</time></trkpt><trkpt lat="43.5886383" lon="12.7808983"><ele>322.0</ele><time>2026-04-04T15:10:08.691Z</time></trkpt><trkpt lat="43.588755" lon="12.7810467"><ele>322.3333333333333</ele><time>2026-04-04T15:10:09.688Z</time></trkpt><trkpt lat="43.588875" lon="12.7811917"><ele>322.6666666666667</ele><time>2026-04-04T15:10:10.69Z</time></trkpt><trkpt lat="43.5889933" lon="12.7813367"><ele>323.0</ele><time>2026-04-04T15:10:11.689Z</time></trkpt><trkpt lat="43.589105" lon="12.781485"><ele>323.0</ele><time>2026-04-04T15:10:12.69Z</time></trkpt><trkpt lat="43.5892117" lon="12.781635"><ele>323.0</ele><time>2026-04-04T15:10:13.691Z</time></trkpt><trkpt lat="43.5893133" lon="12.781785"><ele>323.0</ele><time>2026-04-04T15:10:14.69Z</time></trkpt><trkpt lat="43.5894117" lon="12.781935"><ele>323.0</ele><time>2026-04-04T15:10:15.69Z</time></trkpt><trkpt lat="43.58951" lon="12.7820967"><ele>324.33333333333337</ele><time>2026-04-04T15:10:16.687Z</time></trkpt><trkpt lat="43.58961" lon="12.7822633"><ele>325.6666666666667</ele><time>2026-04-04T15:10:17.689Z</time></trkpt><trkpt lat="43.5897167" lon="12.7824333"><ele>327.0</ele><time>2026-04-04T15:10:18.686Z</time></trkpt><trkpt lat="43.5898183" lon="12.7826"><ele>325.6666666666667</ele><time>2026-04-04T15:10:19.688Z</time></trkpt><trkpt lat="43.58992" lon="12.782765"><ele>324.33333333333337</ele><time>2026-04-04T15:10:20.688Z</time></trkpt><trkpt lat="43.5900167" lon="12.782935"><ele>323.0</ele><time>2026-04-04T15:10:21.685Z</time></trkpt><trkpt lat="43.5902" lon="12.7832533"><ele>323.0</ele><time>2026-04-04T15:10:23.688Z</time></trkpt><trkpt lat="43.5902867" lon="12.78341"><ele>323.0</ele><time>2026-04-04T15:10:24.688Z</time></trkpt><trkpt lat="43.590375" lon="12.78357"><ele>323.0</ele><time>2026-04-04T15:10:25.688Z</time></trkpt><trkpt lat="43.5904567" lon="12.7837333"><ele>323.0</ele><time>2026-04-04T15:10:26.689Z</time></trkpt><trkpt lat="43.5905483" lon="12.7839"><ele>323.0</ele><time>2026-04-04T15:10:27.687Z</time></trkpt><trkpt lat="43.59064" lon="12.7840633"><ele>323.0</ele><time>2026-04-04T15:10:28.689Z</time></trkpt><trkpt lat="43.5907367" lon="12.7842317"><ele>323.0</ele><time>2026-04-04T15:10:29.688Z</time></trkpt><trkpt lat="43.590835" lon="12.7844033"><ele>323.0</ele><time>2026-04-04T15:10:30.687Z</time></trkpt><trkpt lat="43.5909317" lon="12.7845783"><ele>323.0</ele><time>2026-04-04T15:10:31.688Z</time></trkpt><trkpt lat="43.5910283" lon="12.78475"><ele>323.0</ele><time>2026-04-04T15:10:32.686Z</time></trkpt><trkpt lat="43.5911317" lon="12.78492"><ele>323.33333333333337</ele><time>2026-04-04T15:10:33.687Z</time></trkpt><trkpt lat="43.59124" lon="12.7850933"><ele>323.6666666666667</ele><time>2026-04-04T15:10:34.688Z</time></trkpt><trkpt lat="43.591345" lon="12.7852683"><ele>324.0</ele><time>2026-04-04T15:10:35.689Z</time></trkpt><trkpt lat="43.5914533" lon="12.7854433"><ele>324.0</ele><time>2026-04-04T15:10:36.69Z</time></trkpt><trkpt lat="43.5915617" lon="12.7856217"><ele>324.0</ele><time>2026-04-04T15:10:37.689Z</time></trkpt><trkpt lat="43.5916717" lon="12.7857933"><ele>324.0</ele><time>2026-04-04T15:10:38.688Z</time></trkpt><trkpt lat="43.5917767" lon="12.7859667"><ele>325.0</ele><time>2026-04-04T15:10:39.686Z</time></trkpt><trkpt lat="43.5918817" lon="12.7861333"><ele>326.0</ele><time>2026-04-04T15:10:40.688Z</time></trkpt><trkpt lat="43.5919917" lon="12.786305"><ele>327.0</ele><time>2026-04-04T15:10:41.689Z</time></trkpt><trkpt lat="43.592095" lon="12.7864767"><ele>327.0</ele><time>2026-04-04T15:10:42.69Z</time></trkpt><trkpt lat="43.5923067" lon="12.78682"><ele>327.0</ele><time>2026-04-04T15:10:44.69Z</time></trkpt><trkpt lat="43.5924167" lon="12.7869867"><ele>324.3333333333333</ele><time>2026-04-04T15:10:45.688Z</time></trkpt><trkpt lat="43.5925317" lon="12.7871467"><ele>321.66666666666663</ele><time>2026-04-04T15:10:46.687Z</time></trkpt><trkpt lat="43.592655" lon="12.7873033"><ele>319.0</ele><time>2026-04-04T15:10:47.689Z</time></trkpt><trkpt lat="43.592785" lon="12.787455"><ele>318.3333333333333</ele><time>2026-04-04T15:10:48.686Z</time></trkpt><trkpt lat="43.5929217" lon="12.787605"><ele>317.6666666666667</ele><time>2026-04-04T15:10:49.688Z</time></trkpt><trkpt lat="43.59306" lon="12.787755"><ele>317.0</ele><time>2026-04-04T15:10:50.688Z</time></trkpt><trkpt lat="43.5931983" lon="12.7879"><ele>317.0</ele><time>2026-04-04T15:10:51.687Z</time></trkpt><trkpt lat="43.593335" lon="12.7880433"><ele>317.0</ele><time>2026-04-04T15:10:52.687Z</time></trkpt><trkpt lat="43.5934683" lon="12.78819"><ele>317.0</ele><time>2026-04-04T15:10:53.688Z</time></trkpt><trkpt lat="43.5936033" lon="12.788335"><ele>318.0</ele><time>2026-04-04T15:10:54.688Z</time></trkpt><trkpt lat="43.5937417" lon="12.7884833"><ele>319.0</ele><time>2026-04-04T15:10:55.689Z</time></trkpt><trkpt lat="43.5938783" lon="12.7886267"><ele>320.0</ele><time>2026-04-04T15:10:56.687Z</time></trkpt><trkpt lat="43.59401" lon="12.7887617"><ele>320.0</ele><time>2026-04-04T15:10:57.687Z</time></trkpt><trkpt lat="43.5941333" lon="12.7888883"><ele>320.0</ele><time>2026-04-04T15:10:58.688Z</time></trkpt><trkpt lat="43.5942483" lon="12.789015"><ele>320.0</ele><time>2026-04-04T15:10:59.688Z</time></trkpt><trkpt lat="43.594355" lon="12.7891417"><ele>320.0</ele><time>2026-04-04T15:11:00.69Z</time></trkpt><trkpt lat="43.5944467" lon="12.7892767"><ele>319.0</ele><time>2026-04-04T15:11:01.69Z</time></trkpt><trkpt lat="43.594525" lon="12.7894233"><ele>318.0</ele><time>2026-04-04T15:11:02.689Z</time></trkpt><trkpt lat="43.594585" lon="12.7895833"><ele>317.0</ele><time>2026-04-04T15:11:03.688Z</time></trkpt><trkpt lat="43.5946567" lon="12.78996"><ele>317.0</ele><time>2026-04-04T15:11:05.687Z</time></trkpt><trkpt lat="43.5946717" lon="12.7901583"><ele>317.0</ele><time>2026-04-04T15:11:06.689Z</time></trkpt><trkpt lat="43.59469" lon="12.7903567"><ele>317.0</ele><time>2026-04-04T15:11:07.689Z</time></trkpt><trkpt lat="43.5947083" lon="12.7905533"><ele>317.0</ele><time>2026-04-04T15:11:08.685Z</time></trkpt><trkpt lat="43.5947217" lon="12.790755"><ele>316.25</ele><time>2026-04-04T15:11:09.69Z</time></trkpt><trkpt lat="43.5947383" lon="12.7909567"><ele>315.5</ele><time>2026-04-04T15:11:10.688Z</time></trkpt><trkpt lat="43.594755" lon="12.7911633"><ele>314.75</ele><time>2026-04-04T15:11:11.69Z</time></trkpt><trkpt lat="43.5947717" lon="12.7913683"><ele>314.0</ele><time>2026-04-04T15:11:12.69Z</time></trkpt><trkpt lat="43.59478" lon="12.7915617"><ele>313.25</ele><time>2026-04-04T15:11:13.692Z</time></trkpt><trkpt lat="43.5947983" lon="12.791745"><ele>312.5</ele><time>2026-04-04T15:11:14.689Z</time></trkpt><trkpt lat="43.59482" lon="12.791915"><ele>311.75</ele><time>2026-04-04T15:11:15.689Z</time></trkpt><trkpt lat="43.5948517" lon="12.792085"><ele>311.0</ele><time>2026-04-04T15:11:16.686Z</time></trkpt><trkpt lat="43.5949083" lon="12.7922467"><ele>313.75</ele><time>2026-04-04T15:11:17.69Z</time></trkpt><trkpt lat="43.594995" lon="12.7923983"><ele>316.5</ele><time>2026-04-04T15:11:18.685Z</time></trkpt><trkpt lat="43.595105" lon="12.7925333"><ele>319.25</ele><time>2026-04-04T15:11:19.688Z</time></trkpt><trkpt lat="43.59523" lon="12.79266"><ele>322.0</ele><time>2026-04-04T15:11:20.687Z</time></trkpt><trkpt lat="43.5953717" lon="12.7927917"><ele>324.0</ele><time>2026-04-04T15:11:21.686Z</time></trkpt><trkpt lat="43.5955183" lon="12.7929283"><ele>326.0</ele><time>2026-04-04T15:11:22.688Z</time></trkpt><trkpt lat="43.5956683" lon="12.79306"><ele>328.0</ele><time>2026-04-04T15:11:23.69Z</time></trkpt><trkpt lat="43.5958217" lon="12.7931883"><ele>328.0</ele><time>2026-04-04T15:11:24.689Z</time></trkpt><trkpt lat="43.5961217" lon="12.7934217"><ele>328.0</ele><time>2026-04-04T15:11:26.688Z</time></trkpt><trkpt lat="43.5962583" lon="12.7935267"><ele>326.5</ele><time>2026-04-04T15:11:27.689Z</time></trkpt><trkpt lat="43.5963833" lon="12.7936317"><ele>325.0</ele><time>2026-04-04T15:11:28.689Z</time></trkpt><trkpt lat="43.5965" lon="12.7937417"><ele>323.5</ele><time>2026-04-04T15:11:29.692Z</time></trkpt><trkpt lat="43.5966083" lon="12.7938767"><ele>322.0</ele><time>2026-04-04T15:11:30.69Z</time></trkpt><trkpt lat="43.596715" lon="12.7940333"><ele>322.0</ele><time>2026-04-04T15:11:31.689Z</time></trkpt><trkpt lat="43.5968033" lon="12.7942083"><ele>322.0</ele><time>2026-04-04T15:11:32.689Z</time></trkpt><trkpt lat="43.596875" lon="12.7944017"><ele>322.0</ele><time>2026-04-04T15:11:33.688Z</time></trkpt><trkpt lat="43.59693" lon="12.79461"><ele>318.66666666666663</ele><time>2026-04-04T15:11:34.689Z</time></trkpt><trkpt lat="43.5969817" lon="12.7948217"><ele>315.3333333333333</ele><time>2026-04-04T15:11:35.691Z</time></trkpt><trkpt lat="43.5970183" lon="12.7950433"><ele>312.0</ele><time>2026-04-04T15:11:36.691Z</time></trkpt><trkpt lat="43.5970517" lon="12.7952633"><ele>311.3333333333333</ele><time>2026-04-04T15:11:37.69Z</time></trkpt><trkpt lat="43.59709" lon="12.7954767"><ele>310.66666666666663</ele><time>2026-04-04T15:11:38.688Z</time></trkpt><trkpt lat="43.5971283" lon="12.79568"><ele>310.0</ele><time>2026-04-04T15:11:39.688Z</time></trkpt><trkpt lat="43.5971783" lon="12.7958767"><ele>313.66666666666663</ele><time>2026-04-04T15:11:40.688Z</time></trkpt><trkpt lat="43.5972467" lon="12.7960783"><ele>317.3333333333333</ele><time>2026-04-04T15:11:41.688Z</time></trkpt><trkpt lat="43.5973267" lon="12.7962733"><ele>321.0</ele><time>2026-04-04T15:11:42.688Z</time></trkpt><trkpt lat="43.5974083" lon="12.7964733"><ele>321.0</ele><time>2026-04-04T15:11:43.689Z</time></trkpt><trkpt lat="43.5974933" lon="12.7966683"><ele>321.0</ele><time>2026-04-04T15:11:44.689Z</time></trkpt><trkpt lat="43.597575" lon="12.7968667"><ele>321.0</ele><time>2026-04-04T15:11:45.687Z</time></trkpt><trkpt lat="43.5977267" lon="12.79726"><ele>319.0</ele><time>2026-04-04T15:11:47.69Z</time></trkpt><trkpt lat="43.5978017" lon="12.79745"><ele>317.0</ele><time>2026-04-04T15:11:48.691Z</time></trkpt><trkpt lat="43.59788" lon="12.79763"><ele>315.0</ele><time>2026-04-04T15:11:49.69Z</time></trkpt><trkpt lat="43.59795" lon="12.7978133"><ele>315.0</ele><time>2026-04-04T15:11:50.69Z</time></trkpt><trkpt lat="43.5980117" lon="12.797995"><ele>315.0</ele><time>2026-04-04T15:11:51.687Z</time></trkpt><trkpt lat="43.5980683" lon="12.79817"><ele>315.0</ele><time>2026-04-04T15:11:52.687Z</time></trkpt><trkpt lat="43.5981217" lon="12.7983367"><ele>315.0</ele><time>2026-04-04T15:11:53.687Z</time></trkpt><trkpt lat="43.5981783" lon="12.7985017"><ele>317.25</ele><time>2026-04-04T15:11:54.69Z</time></trkpt><trkpt lat="43.59825" lon="12.79866"><ele>319.5</ele><time>2026-04-04T15:11:55.691Z</time></trkpt><trkpt lat="43.5983283" lon="12.79881"><ele>321.75</ele><time>2026-04-04T15:11:56.688Z</time></trkpt><trkpt lat="43.59841" lon="12.7989583"><ele>324.0</ele><time>2026-04-04T15:11:57.688Z</time></trkpt><trkpt lat="43.5985017" lon="12.799115"><ele>324.0</ele><time>2026-04-04T15:11:58.69Z</time></trkpt><trkpt lat="43.5985917" lon="12.7992667"><ele>324.0</ele><time>2026-04-04T15:11:59.689Z</time></trkpt><trkpt lat="43.59868" lon="12.799415"><ele>324.0</ele><time>2026-04-04T15:12:00.688Z</time></trkpt><trkpt lat="43.5987617" lon="12.799575"><ele>324.0</ele><time>2026-04-04T15:12:01.688Z</time></trkpt><trkpt lat="43.598845" lon="12.7997467"><ele>323.3333333333333</ele><time>2026-04-04T15:12:02.69Z</time></trkpt><trkpt lat="43.598935" lon="12.7999233"><ele>322.66666666666663</ele><time>2026-04-04T15:12:03.69Z</time></trkpt><trkpt lat="43.5990267" lon="12.800095"><ele>322.0</ele><time>2026-04-04T15:12:04.689Z</time></trkpt><trkpt lat="43.59912" lon="12.8002567"><ele>322.0</ele><time>2026-04-04T15:12:05.692Z</time></trkpt><trkpt lat="43.5992033" lon="12.8004183"><ele>322.0</ele><time>2026-04-04T15:12:06.687Z</time></trkpt><trkpt lat="43.5993433" lon="12.8007717"><ele>322.0</ele><time>2026-04-04T15:12:08.689Z</time></trkpt><trkpt lat="43.5994083" lon="12.8009567"><ele>318.75</ele><time>2026-04-04T15:12:09.689Z</time></trkpt><trkpt lat="43.5994717" lon="12.8011317"><ele>315.5</ele><time>2026-04-04T15:12:10.688Z</time></trkpt><trkpt lat="43.599545" lon="12.8013"><ele>312.25</ele><time>2026-04-04T15:12:11.69Z</time></trkpt><trkpt lat="43.5996317" lon="12.8014583"><ele>309.0</ele><time>2026-04-04T15:12:12.69Z</time></trkpt><trkpt lat="43.5997283" lon="12.80161"><ele>309.0</ele><time>2026-04-04T15:12:13.69Z</time></trkpt><trkpt lat="43.5998433" lon="12.801745"><ele>309.0</ele><time>2026-04-04T15:12:14.687Z</time></trkpt><trkpt lat="43.5999633" lon="12.8018717"><ele>309.0</ele><time>2026-04-04T15:12:15.689Z</time></trkpt><trkpt lat="43.6000817" lon="12.8019917"><ele>309.0</ele><time>2026-04-04T15:12:16.689Z</time></trkpt><trkpt lat="43.6002017" lon="12.8021033"><ele>307.25</ele><time>2026-04-04T15:12:17.688Z</time></trkpt><trkpt lat="43.60032" lon="12.802205"><ele>305.5</ele><time>2026-04-04T15:12:18.689Z</time></trkpt><trkpt lat="43.6004367" lon="12.8023017"><ele>303.75</ele><time>2026-04-04T15:12:19.689Z</time></trkpt><trkpt lat="43.60055" lon="12.8023867"><ele>302.0</ele><time>2026-04-04T15:12:20.69Z</time></trkpt><trkpt lat="43.6006583" lon="12.80246"><ele>302.0</ele><time>2026-04-04T15:12:21.687Z</time></trkpt><trkpt lat="43.60076" lon="12.8025367"><ele>302.0</ele><time>2026-04-04T15:12:22.69Z</time></trkpt><trkpt lat="43.60086" lon="12.8026117"><ele>302.0</ele><time>2026-04-04T15:12:23.689Z</time></trkpt><trkpt lat="43.6009467" lon="12.8027167"><ele>302.0</ele><time>2026-04-04T15:12:24.69Z</time></trkpt><trkpt lat="43.6010167" lon="12.802865"><ele>299.33333333333337</ele><time>2026-04-04T15:12:25.689Z</time></trkpt><trkpt lat="43.601085" lon="12.80303"><ele>296.6666666666667</ele><time>2026-04-04T15:12:26.691Z</time></trkpt><trkpt lat="43.6011367" lon="12.8032267"><ele>294.0</ele><time>2026-04-04T15:12:27.689Z</time></trkpt><trkpt lat="43.601235" lon="12.803615"><ele>294.0</ele><time>2026-04-04T15:12:29.69Z</time></trkpt><trkpt lat="43.601275" lon="12.803805"><ele>294.0</ele><time>2026-04-04T15:12:30.689Z</time></trkpt><trkpt lat="43.6013283" lon="12.8039917"><ele>294.0</ele><time>2026-04-04T15:12:31.688Z</time></trkpt><trkpt lat="43.6013967" lon="12.8041767"><ele>294.0</ele><time>2026-04-04T15:12:32.69Z</time></trkpt><trkpt lat="43.60147" lon="12.8043667"><ele>302.0</ele><time>2026-04-04T15:12:33.687Z</time></trkpt><trkpt lat="43.6015617" lon="12.8045467"><ele>310.0</ele><time>2026-04-04T15:12:34.689Z</time></trkpt><trkpt lat="43.60166" lon="12.8047117"><ele>318.0</ele><time>2026-04-04T15:12:35.686Z</time></trkpt><trkpt lat="43.6017633" lon="12.8048667"><ele>318.0</ele><time>2026-04-04T15:12:36.689Z</time></trkpt><trkpt lat="43.60187" lon="12.805015"><ele>318.0</ele><time>2026-04-04T15:12:37.687Z</time></trkpt><trkpt lat="43.6019767" lon="12.80515"><ele>318.0</ele><time>2026-04-04T15:12:38.689Z</time></trkpt><trkpt lat="43.60208" lon="12.80527"><ele>318.0</ele><time>2026-04-04T15:12:39.687Z</time></trkpt><trkpt lat="43.6021867" lon="12.8053783"><ele>314.25</ele><time>2026-04-04T15:12:40.689Z</time></trkpt><trkpt lat="43.6023017" lon="12.8054783"><ele>310.5</ele><time>2026-04-04T15:12:41.689Z</time></trkpt><trkpt lat="43.602415" lon="12.8055633"><ele>306.75</ele><time>2026-04-04T15:12:42.687Z</time></trkpt><trkpt lat="43.6025283" lon="12.805635"><ele>303.0</ele><time>2026-04-04T15:12:43.687Z</time></trkpt><trkpt lat="43.6026367" lon="12.80569"><ele>303.0</ele><time>2026-04-04T15:12:44.688Z</time></trkpt><trkpt lat="43.60273" lon="12.805735"><ele>303.0</ele><time>2026-04-04T15:12:45.688Z</time></trkpt><trkpt lat="43.6028233" lon="12.805795"><ele>303.0</ele><time>2026-04-04T15:12:46.69Z</time></trkpt><trkpt lat="43.6028933" lon="12.8058667"><ele>303.0</ele><time>2026-04-04T15:12:47.689Z</time></trkpt><trkpt lat="43.6029367" lon="12.8059367"><ele>303.0</ele><time>2026-04-04T15:12:48.69Z</time></trkpt><trkpt lat="43.6029517" lon="12.8061517"><ele>298.25</ele><time>2026-04-04T15:12:50.69Z</time></trkpt><trkpt lat="43.6029433" lon="12.8062833"><ele>293.5</ele><time>2026-04-04T15:12:51.689Z</time></trkpt><trkpt lat="43.60291" lon="12.8064333"><ele>288.75</ele><time>2026-04-04T15:12:52.688Z</time></trkpt><trkpt lat="43.6028917" lon="12.8065983"><ele>284.0</ele><time>2026-04-04T15:12:53.689Z</time></trkpt><trkpt lat="43.6028917" lon="12.806775"><ele>284.25</ele><time>2026-04-04T15:12:54.688Z</time></trkpt><trkpt lat="43.6028983" lon="12.8069517"><ele>284.5</ele><time>2026-04-04T15:12:55.688Z</time></trkpt><trkpt lat="43.6029067" lon="12.8071267"><ele>284.75</ele><time>2026-04-04T15:12:56.689Z</time></trkpt><trkpt lat="43.6029283" lon="12.8072933"><ele>285.0</ele><time>2026-04-04T15:12:57.691Z</time></trkpt><trkpt lat="43.6029583" lon="12.8074417"><ele>285.0</ele><time>2026-04-04T15:12:58.688Z</time></trkpt><trkpt lat="43.6029983" lon="12.80758"><ele>285.0</ele><time>2026-04-04T15:12:59.69Z</time></trkpt><trkpt lat="43.6030667" lon="12.807705"><ele>285.0</ele><time>2026-04-04T15:13:00.692Z</time></trkpt><trkpt lat="43.6031483" lon="12.807815"><ele>285.0</ele><time>2026-04-04T15:13:01.689Z</time></trkpt><trkpt lat="43.603225" lon="12.8079217"><ele>285.0</ele><time>2026-04-04T15:13:02.69Z</time></trkpt><trkpt lat="43.6033083" lon="12.8080383"><ele>287.5</ele><time>2026-04-04T15:13:03.688Z</time></trkpt><trkpt lat="43.6033833" lon="12.808175"><ele>290.0</ele><time>2026-04-04T15:13:04.687Z</time></trkpt><trkpt lat="43.603455" lon="12.808325"><ele>292.5</ele><time>2026-04-04T15:13:05.688Z</time></trkpt><trkpt lat="43.60353" lon="12.8084817"><ele>295.0</ele><time>2026-04-04T15:13:06.691Z</time></trkpt><trkpt lat="43.603595" lon="12.8086383"><ele>292.8</ele><time>2026-04-04T15:13:07.688Z</time></trkpt><trkpt lat="43.6036483" lon="12.8087583"><ele>290.6</ele><time>2026-04-04T15:13:08.689Z</time></trkpt><trkpt lat="43.603695" lon="12.8088483"><ele>288.4</ele><time>2026-04-04T15:13:09.69Z</time></trkpt><trkpt lat="43.603815" lon="12.80895"><ele>286.2</ele><time>2026-04-04T15:13:11.688Z</time></trkpt><trkpt lat="43.6038867" lon="12.8089517"><ele>284.0</ele><time>2026-04-04T15:13:12.688Z</time></trkpt><trkpt lat="43.6039567" lon="12.8089167"><ele>284.0</ele><time>2026-04-04T15:13:13.692Z</time></trkpt><trkpt lat="43.604025" lon="12.8088567"><ele>284.0</ele><time>2026-04-04T15:13:14.688Z</time></trkpt><trkpt lat="43.6040983" lon="12.80881"><ele>284.0</ele><time>2026-04-04T15:13:15.69Z</time></trkpt><trkpt lat="43.6041733" lon="12.8087817"><ele>284.0</ele><time>2026-04-04T15:13:16.687Z</time></trkpt><trkpt lat="43.6042567" lon="12.8087833"><ele>284.0</ele><time>2026-04-04T15:13:17.689Z</time></trkpt><trkpt lat="43.6043383" lon="12.8088333"><ele>284.0</ele><time>2026-04-04T15:13:18.686Z</time></trkpt><trkpt lat="43.6044167" lon="12.8089367"><ele>285.0</ele><time>2026-04-04T15:13:19.687Z</time></trkpt><trkpt lat="43.6045117" lon="12.8090517"><ele>286.0</ele><time>2026-04-04T15:13:20.688Z</time></trkpt><trkpt lat="43.6046117" lon="12.8091717"><ele>287.0</ele><time>2026-04-04T15:13:21.686Z</time></trkpt><trkpt lat="43.6047183" lon="12.8092833"><ele>288.0</ele><time>2026-04-04T15:13:22.687Z</time></trkpt><trkpt lat="43.6048317" lon="12.8093817"><ele>285.5</ele><time>2026-04-04T15:13:23.688Z</time></trkpt><trkpt lat="43.60495" lon="12.8094733"><ele>283.0</ele><time>2026-04-04T15:13:24.686Z</time></trkpt><trkpt lat="43.60507" lon="12.80956"><ele>280.5</ele><time>2026-04-04T15:13:25.688Z</time></trkpt><trkpt lat="43.6051917" lon="12.809645"><ele>278.0</ele><time>2026-04-04T15:13:26.687Z</time></trkpt><trkpt lat="43.605315" lon="12.8097367"><ele>277.5</ele><time>2026-04-04T15:13:27.689Z</time></trkpt><trkpt lat="43.6054367" lon="12.8098433"><ele>277.0</ele><time>2026-04-04T15:13:28.686Z</time></trkpt><trkpt lat="43.6055533" lon="12.8099633"><ele>276.5</ele><time>2026-04-04T15:13:29.689Z</time></trkpt><trkpt lat="43.6056617" lon="12.8100933"><ele>276.0</ele><time>2026-04-04T15:13:30.687Z</time></trkpt><trkpt lat="43.6058633" lon="12.810375"><ele>276.0</ele><time>2026-04-04T15:13:32.69Z</time></trkpt><trkpt lat="43.6059433" lon="12.81054"><ele>276.0</ele><time>2026-04-04T15:13:33.687Z</time></trkpt><trkpt lat="43.6060017" lon="12.8107033"><ele>276.0</ele><time>2026-04-04T15:13:34.687Z</time></trkpt><trkpt lat="43.6060533" lon="12.81085"><ele>276.0</ele><time>2026-04-04T15:13:35.688Z</time></trkpt><trkpt lat="43.6061017" lon="12.8109733"><ele>275.75</ele><time>2026-04-04T15:13:36.687Z</time></trkpt><trkpt lat="43.6061617" lon="12.8110833"><ele>275.5</ele><time>2026-04-04T15:13:37.688Z</time></trkpt><trkpt lat="43.6062483" lon="12.81118"><ele>275.25</ele><time>2026-04-04T15:13:38.687Z</time></trkpt><trkpt lat="43.606345" lon="12.811265"><ele>275.0</ele><time>2026-04-04T15:13:39.687Z</time></trkpt><trkpt lat="43.6064633" lon="12.8113483"><ele>275.0</ele><time>2026-04-04T15:13:40.688Z</time></trkpt><trkpt lat="43.6065983" lon="12.8114283"><ele>275.0</ele><time>2026-04-04T15:13:41.687Z</time></trkpt><trkpt lat="43.6067417" lon="12.81151"><ele>275.0</ele><time>2026-04-04T15:13:42.687Z</time></trkpt><trkpt lat="43.6068917" lon="12.8115967"><ele>273.0</ele><time>2026-04-04T15:13:43.688Z</time></trkpt><trkpt lat="43.6070367" lon="12.8116917"><ele>271.0</ele><time>2026-04-04T15:13:44.686Z</time></trkpt><trkpt lat="43.607175" lon="12.811785"><ele>269.0</ele><time>2026-04-04T15:13:45.688Z</time></trkpt><trkpt lat="43.6073133" lon="12.8118717"><ele>269.0</ele><time>2026-04-04T15:13:46.688Z</time></trkpt><trkpt lat="43.6074483" lon="12.81196"><ele>269.0</ele><time>2026-04-04T15:13:47.688Z</time></trkpt><trkpt lat="43.6075817" lon="12.812055"><ele>269.0</ele><time>2026-04-04T15:13:48.688Z</time></trkpt><trkpt lat="43.6077117" lon="12.812155"><ele>269.0</ele><time>2026-04-04T15:13:49.688Z</time></trkpt><trkpt lat="43.607835" lon="12.81225"><ele>270.6666666666667</ele><time>2026-04-04T15:13:50.69Z</time></trkpt><trkpt lat="43.60796" lon="12.8123367"><ele>272.3333333333333</ele><time>2026-04-04T15:13:51.689Z</time></trkpt><trkpt lat="43.6082283" lon="12.812475"><ele>274.0</ele><time>2026-04-04T15:13:53.69Z</time></trkpt><trkpt lat="43.60837" lon="12.8125283"><ele>274.0</ele><time>2026-04-04T15:13:54.688Z</time></trkpt><trkpt lat="43.6085067" lon="12.8125617"><ele>274.0</ele><time>2026-04-04T15:13:55.69Z</time></trkpt><trkpt lat="43.60864" lon="12.81261"><ele>274.0</ele><time>2026-04-04T15:13:56.69Z</time></trkpt><trkpt lat="43.6087667" lon="12.8126733"><ele>274.0</ele><time>2026-04-04T15:13:57.688Z</time></trkpt><trkpt lat="43.6088783" lon="12.81277"><ele>273.0</ele><time>2026-04-04T15:13:58.689Z</time></trkpt><trkpt lat="43.6089867" lon="12.8128817"><ele>272.0</ele><time>2026-04-04T15:13:59.687Z</time></trkpt><trkpt lat="43.6090983" lon="12.81302"><ele>271.0</ele><time>2026-04-04T15:14:00.689Z</time></trkpt><trkpt lat="43.6092" lon="12.813155"><ele>270.0</ele><time>2026-04-04T15:14:01.689Z</time></trkpt><trkpt lat="43.60929" lon="12.813285"><ele>270.0</ele><time>2026-04-04T15:14:02.689Z</time></trkpt><trkpt lat="43.60937" lon="12.8134167"><ele>270.0</ele><time>2026-04-04T15:14:03.688Z</time></trkpt><trkpt lat="43.60945" lon="12.8135467"><ele>270.0</ele><time>2026-04-04T15:14:04.689Z</time></trkpt><trkpt lat="43.609535" lon="12.8136783"><ele>270.0</ele><time>2026-04-04T15:14:05.687Z</time></trkpt><trkpt lat="43.60963" lon="12.813795"><ele>270.5</ele><time>2026-04-04T15:14:06.686Z</time></trkpt><trkpt lat="43.6097333" lon="12.8139083"><ele>271.0</ele><time>2026-04-04T15:14:07.689Z</time></trkpt><trkpt lat="43.6098467" lon="12.814015"><ele>271.5</ele><time>2026-04-04T15:14:08.686Z</time></trkpt><trkpt lat="43.6099733" lon="12.8141233"><ele>272.0</ele><time>2026-04-04T15:14:09.687Z</time></trkpt><trkpt lat="43.6100967" lon="12.8142417"><ele>273.33333333333337</ele><time>2026-04-04T15:14:10.69Z</time></trkpt><trkpt lat="43.61022" lon="12.8143683"><ele>274.6666666666667</ele><time>2026-04-04T15:14:11.688Z</time></trkpt><trkpt lat="43.6103417" lon="12.8144967"><ele>276.0</ele><time>2026-04-04T15:14:12.688Z</time></trkpt><trkpt lat="43.6105833" lon="12.8147683"><ele>276.0</ele><time>2026-04-04T15:14:14.689Z</time></trkpt><trkpt lat="43.6107083" lon="12.814895"><ele>276.0</ele><time>2026-04-04T15:14:15.687Z</time></trkpt><trkpt lat="43.610835" lon="12.8150083"><ele>276.0</ele><time>2026-04-04T15:14:16.688Z</time></trkpt><trkpt lat="43.6109633" lon="12.8151117"><ele>273.5</ele><time>2026-04-04T15:14:17.689Z</time></trkpt><trkpt lat="43.6110867" lon="12.8152117"><ele>271.0</ele><time>2026-04-04T15:14:18.687Z</time></trkpt><trkpt lat="43.6112067" lon="12.8153033"><ele>268.5</ele><time>2026-04-04T15:14:19.688Z</time></trkpt><trkpt lat="43.6113267" lon="12.8153883"><ele>266.0</ele><time>2026-04-04T15:14:20.686Z</time></trkpt><trkpt lat="43.611445" lon="12.8154683"><ele>266.0</ele><time>2026-04-04T15:14:21.686Z</time></trkpt><trkpt lat="43.6115633" lon="12.8155467"><ele>266.0</ele><time>2026-04-04T15:14:22.687Z</time></trkpt><trkpt lat="43.6116783" lon="12.8156167"><ele>266.0</ele><time>2026-04-04T15:14:23.687Z</time></trkpt><trkpt lat="43.6117867" lon="12.8156767"><ele>266.0</ele><time>2026-04-04T15:14:24.687Z</time></trkpt><trkpt lat="43.61188" lon="12.8157233"><ele>266.0</ele><time>2026-04-04T15:14:25.688Z</time></trkpt><trkpt lat="43.6119617" lon="12.8157333"><ele>266.0</ele><time>2026-04-04T15:14:26.687Z</time></trkpt><trkpt lat="43.6120433" lon="12.8157183"><ele>266.0</ele><time>2026-04-04T15:14:27.687Z</time></trkpt><trkpt lat="43.61212" lon="12.8156633"><ele>266.0</ele><time>2026-04-04T15:14:28.688Z</time></trkpt><trkpt lat="43.61218" lon="12.8155983"><ele>266.0</ele><time>2026-04-04T15:14:29.688Z</time></trkpt><trkpt lat="43.6122383" lon="12.8155483"><ele>266.0</ele><time>2026-04-04T15:14:30.688Z</time></trkpt><trkpt lat="43.6123383" lon="12.81555"><ele>268.0</ele><time>2026-04-04T15:14:32.689Z</time></trkpt><trkpt lat="43.6124233" lon="12.815685"><ele>270.0</ele><time>2026-04-04T15:14:34.688Z</time></trkpt><trkpt lat="43.61252" lon="12.8158867"><ele>272.0</ele><time>2026-04-04T15:14:36.689Z</time></trkpt><trkpt lat="43.6125817" lon="12.81598"><ele>274.0</ele><time>2026-04-04T15:14:37.691Z</time></trkpt><trkpt lat="43.6126467" lon="12.816075"><ele>272.8</ele><time>2026-04-04T15:14:38.688Z</time></trkpt><trkpt lat="43.6127217" lon="12.816165"><ele>271.59999999999997</ele><time>2026-04-04T15:14:39.689Z</time></trkpt><trkpt lat="43.6128017" lon="12.816265"><ele>270.4</ele><time>2026-04-04T15:14:40.687Z</time></trkpt><trkpt lat="43.6128867" lon="12.8163583"><ele>269.2</ele><time>2026-04-04T15:14:41.686Z</time></trkpt><trkpt lat="43.6129733" lon="12.816455"><ele>268.0</ele><time>2026-04-04T15:14:42.688Z</time></trkpt><trkpt lat="43.6130667" lon="12.8165567"><ele>268.0</ele><time>2026-04-04T15:14:43.691Z</time></trkpt><trkpt lat="43.6131667" lon="12.8166567"><ele>268.0</ele><time>2026-04-04T15:14:44.687Z</time></trkpt><trkpt lat="43.61327" lon="12.8167567"><ele>268.0</ele><time>2026-04-04T15:14:45.687Z</time></trkpt><trkpt lat="43.6133767" lon="12.8168667"><ele>268.0</ele><time>2026-04-04T15:14:46.689Z</time></trkpt><trkpt lat="43.6134867" lon="12.8169767"><ele>266.5</ele><time>2026-04-04T15:14:47.689Z</time></trkpt><trkpt lat="43.6135983" lon="12.8170917"><ele>265.0</ele><time>2026-04-04T15:14:48.687Z</time></trkpt><trkpt lat="43.6137067" lon="12.8172067"><ele>263.5</ele><time>2026-04-04T15:14:49.689Z</time></trkpt><trkpt lat="43.6138117" lon="12.8173133"><ele>262.0</ele><time>2026-04-04T15:14:50.685Z</time></trkpt><trkpt lat="43.6139133" lon="12.8174183"><ele>262.0</ele><time>2026-04-04T15:14:51.686Z</time></trkpt><trkpt lat="43.61401" lon="12.81752"><ele>262.0</ele><time>2026-04-04T15:14:52.687Z</time></trkpt><trkpt lat="43.6141033" lon="12.8176283"><ele>262.0</ele><time>2026-04-04T15:14:53.688Z</time></trkpt><trkpt lat="43.6142017" lon="12.8177267"><ele>262.0</ele><time>2026-04-04T15:14:54.688Z</time></trkpt><trkpt lat="43.6143" lon="12.8178117"><ele>260.25</ele><time>2026-04-04T15:14:55.689Z</time></trkpt><trkpt lat="43.6144967" lon="12.817955"><ele>258.5</ele><time>2026-04-04T15:14:57.687Z</time></trkpt><trkpt lat="43.61459" lon="12.8180233"><ele>256.75</ele><time>2026-04-04T15:14:58.686Z</time></trkpt><trkpt lat="43.614675" lon="12.8180883"><ele>255.0</ele><time>2026-04-04T15:14:59.688Z</time></trkpt><trkpt lat="43.61476" lon="12.8181467"><ele>255.0</ele><time>2026-04-04T15:15:00.688Z</time></trkpt><trkpt lat="43.61484" lon="12.8182133"><ele>255.0</ele><time>2026-04-04T15:15:01.691Z</time></trkpt><trkpt lat="43.6149183" lon="12.8182917"><ele>255.0</ele><time>2026-04-04T15:15:02.689Z</time></trkpt><trkpt lat="43.6149967" lon="12.8183767"><ele>255.0</ele><time>2026-04-04T15:15:03.687Z</time></trkpt><trkpt lat="43.61507" lon="12.8184667"><ele>255.0</ele><time>2026-04-04T15:15:04.688Z</time></trkpt><trkpt lat="43.61514" lon="12.8185583"><ele>254.2</ele><time>2026-04-04T15:15:05.686Z</time></trkpt><trkpt lat="43.6152" lon="12.8186633"><ele>253.4</ele><time>2026-04-04T15:15:06.688Z</time></trkpt><trkpt lat="43.6152533" lon="12.8187767"><ele>252.60000000000002</ele><time>2026-04-04T15:15:07.69Z</time></trkpt><trkpt lat="43.6153067" lon="12.8189017"><ele>251.8</ele><time>2026-04-04T15:15:08.687Z</time></trkpt><trkpt lat="43.6153583" lon="12.8190283"><ele>251.0</ele><time>2026-04-04T15:15:09.688Z</time></trkpt><trkpt lat="43.615415" lon="12.8191467"><ele>251.0</ele><time>2026-04-04T15:15:10.689Z</time></trkpt><trkpt lat="43.6154783" lon="12.819255"><ele>251.00000000000003</ele><time>2026-04-04T15:15:11.686Z</time></trkpt><trkpt lat="43.6155467" lon="12.81936"><ele>251.00000000000003</ele><time>2026-04-04T15:15:12.688Z</time></trkpt><trkpt lat="43.6156183" lon="12.8194667"><ele>251.0</ele><time>2026-04-04T15:15:13.688Z</time></trkpt><trkpt lat="43.6156917" lon="12.8195783"><ele>251.0</ele><time>2026-04-04T15:15:14.689Z</time></trkpt><trkpt lat="43.6157633" lon="12.8196933"><ele>250.25</ele><time>2026-04-04T15:15:15.689Z</time></trkpt><trkpt lat="43.6158367" lon="12.81981"><ele>249.5</ele><time>2026-04-04T15:15:16.687Z</time></trkpt><trkpt lat="43.6159633" lon="12.8200217"><ele>248.75</ele><time>2026-04-04T15:15:18.686Z</time></trkpt><trkpt lat="43.6160167" lon="12.82012"><ele>248.0</ele><time>2026-04-04T15:15:19.688Z</time></trkpt><trkpt lat="43.61607" lon="12.8202117"><ele>247.66666666666669</ele><time>2026-04-04T15:15:20.688Z</time></trkpt><trkpt lat="43.6161233" lon="12.8202983"><ele>247.33333333333334</ele><time>2026-04-04T15:15:21.687Z</time></trkpt><trkpt lat="43.6161717" lon="12.8203833"><ele>247.0</ele><time>2026-04-04T15:15:22.689Z</time></trkpt><trkpt lat="43.61621" lon="12.8204533"><ele>246.66666666666669</ele><time>2026-04-04T15:15:23.687Z</time></trkpt><trkpt lat="43.6162483" lon="12.8205333"><ele>246.33333333333334</ele><time>2026-04-04T15:15:25.688Z</time></trkpt><trkpt lat="43.61631" lon="12.82057"><ele>246.0</ele><time>2026-04-04T15:16:33.687Z</time></trkpt><trkpt lat="43.6164933" lon="12.8206767"><ele>245.8</ele><time>2026-04-04T15:16:36.688Z</time></trkpt><trkpt lat="43.6166017" lon="12.8207267"><ele>245.60000000000002</ele><time>2026-04-04T15:16:38.689Z</time></trkpt><trkpt lat="43.616715" lon="12.8207767"><ele>245.4</ele><time>2026-04-04T15:16:40.688Z</time></trkpt><trkpt lat="43.6167783" lon="12.8208"><ele>245.2</ele><time>2026-04-04T15:16:41.688Z</time></trkpt><trkpt lat="43.6168567" lon="12.8208333"><ele>245.0</ele><time>2026-04-04T15:16:42.689Z</time></trkpt><trkpt lat="43.6169417" lon="12.8208533"><ele>243.33333333333334</ele><time>2026-04-04T15:16:43.689Z</time></trkpt><trkpt lat="43.6170383" lon="12.8208667"><ele>241.66666666666669</ele><time>2026-04-04T15:16:44.689Z</time></trkpt><trkpt lat="43.6171483" lon="12.8208717"><ele>240.0</ele><time>2026-04-04T15:16:45.688Z</time></trkpt><trkpt lat="43.6174033" lon="12.8208633"><ele>240.0</ele><time>2026-04-04T15:16:47.687Z</time></trkpt><trkpt lat="43.6175433" lon="12.820855"><ele>240.0</ele><time>2026-04-04T15:16:48.688Z</time></trkpt><trkpt lat="43.6176867" lon="12.820845"><ele>240.0</ele><time>2026-04-04T15:16:49.686Z</time></trkpt><trkpt lat="43.6178333" lon="12.82083"><ele>240.0</ele><time>2026-04-04T15:16:50.685Z</time></trkpt><trkpt lat="43.6179833" lon="12.8208133"><ele>239.0</ele><time>2026-04-04T15:16:51.687Z</time></trkpt><trkpt lat="43.6181333" lon="12.8208"><ele>238.0</ele><time>2026-04-04T15:16:52.688Z</time></trkpt><trkpt lat="43.6182867" lon="12.82078"><ele>237.0</ele><time>2026-04-04T15:16:53.686Z</time></trkpt><trkpt lat="43.6184367" lon="12.8207633"><ele>237.0</ele><time>2026-04-04T15:16:54.687Z</time></trkpt><trkpt lat="43.6187333" lon="12.820735"><ele>237.0</ele><time>2026-04-04T15:16:56.686Z</time></trkpt><trkpt lat="43.6188783" lon="12.82073"><ele>237.0</ele><time>2026-04-04T15:16:57.687Z</time></trkpt><trkpt lat="43.6190233" lon="12.82072"><ele>237.0</ele><time>2026-04-04T15:16:58.687Z</time></trkpt><trkpt lat="43.6191633" lon="12.82071"><ele>237.0</ele><time>2026-04-04T15:16:59.687Z</time></trkpt><trkpt lat="43.619305" lon="12.8207"><ele>237.0</ele><time>2026-04-04T15:17:00.687Z</time></trkpt><trkpt lat="43.619445" lon="12.8206883"><ele>237.0</ele><time>2026-04-04T15:17:01.689Z</time></trkpt><trkpt lat="43.6195817" lon="12.82066"><ele>236.25</ele><time>2026-04-04T15:17:02.688Z</time></trkpt><trkpt lat="43.6197167" lon="12.8206117"><ele>235.5</ele><time>2026-04-04T15:17:03.689Z</time></trkpt><trkpt lat="43.6198467" lon="12.8205483"><ele>234.75</ele><time>2026-04-04T15:17:04.689Z</time></trkpt><trkpt lat="43.6199767" lon="12.8204667"><ele>234.0</ele><time>2026-04-04T15:17:05.688Z</time></trkpt><trkpt lat="43.6201033" lon="12.8203817"><ele>234.0</ele><time>2026-04-04T15:17:06.689Z</time></trkpt><trkpt lat="43.6202233" lon="12.8203"><ele>234.0</ele><time>2026-04-04T15:17:07.689Z</time></trkpt><trkpt lat="43.6203333" lon="12.8202267"><ele>234.0</ele><time>2026-04-04T15:17:08.688Z</time></trkpt><trkpt lat="43.6204317" lon="12.8201617"><ele>234.0</ele><time>2026-04-04T15:17:09.687Z</time></trkpt><trkpt lat="43.6205183" lon="12.820105"><ele>235.79999999999998</ele><time>2026-04-04T15:17:10.689Z</time></trkpt><trkpt lat="43.6205917" lon="12.8200583"><ele>237.59999999999997</ele><time>2026-04-04T15:17:11.687Z</time></trkpt><trkpt lat="43.620655" lon="12.820015"><ele>239.4</ele><time>2026-04-04T15:17:12.687Z</time></trkpt><trkpt lat="43.6207383" lon="12.8199617"><ele>241.2</ele><time>2026-04-04T15:17:14.687Z</time></trkpt><trkpt lat="43.6207783" lon="12.8198633"><ele>243.0</ele><time>2026-04-04T15:17:17.687Z</time></trkpt><trkpt lat="43.6206367" lon="12.8197467"><ele>243.0</ele><time>2026-04-04T15:17:20.69Z</time></trkpt><trkpt lat="43.6205517" lon="12.8196983"><ele>243.0</ele><time>2026-04-04T15:17:21.688Z</time></trkpt><trkpt lat="43.6204533" lon="12.8196433"><ele>243.0</ele><time>2026-04-04T15:17:22.691Z</time></trkpt><trkpt lat="43.6203533" lon="12.8195883"><ele>243.0</ele><time>2026-04-04T15:17:23.69Z</time></trkpt><trkpt lat="43.62025" lon="12.81953"><ele>243.0</ele><time>2026-04-04T15:17:24.687Z</time></trkpt><trkpt lat="43.6201517" lon="12.8194717"><ele>243.33333333333334</ele><time>2026-04-04T15:17:25.69Z</time></trkpt><trkpt lat="43.6200617" lon="12.8194267"><ele>243.66666666666669</ele><time>2026-04-04T15:17:26.69Z</time></trkpt><trkpt lat="43.6199733" lon="12.8193867"><ele>244.0</ele><time>2026-04-04T15:17:27.686Z</time></trkpt><trkpt lat="43.6198967" lon="12.81935"><ele>244.33333333333334</ele><time>2026-04-04T15:17:28.687Z</time></trkpt><trkpt lat="43.61983" lon="12.8193067"><ele>244.66666666666669</ele><time>2026-04-04T15:17:29.689Z</time></trkpt><trkpt lat="43.6197733" lon="12.8192517"><ele>245.0</ele><time>2026-04-04T15:17:30.688Z</time></trkpt><trkpt lat="43.6197" lon="12.8191167"><ele>248.0</ele><time>2026-04-04T15:17:32.689Z</time></trkpt><trkpt lat="43.6197017" lon="12.8189967"><ele>251.0</ele><time>2026-04-04T15:17:33.689Z</time></trkpt><trkpt lat="43.6197217" lon="12.8188667"><ele>254.0</ele><time>2026-04-04T15:17:34.688Z</time></trkpt><trkpt lat="43.6197567" lon="12.8186933"><ele>257.0</ele><time>2026-04-04T15:17:35.69Z</time></trkpt><trkpt lat="43.619795" lon="12.8185117"><ele>259.0</ele><time>2026-04-04T15:17:36.688Z</time></trkpt><trkpt lat="43.619835" lon="12.8183233"><ele>261.0</ele><time>2026-04-04T15:17:37.69Z</time></trkpt><trkpt lat="43.61987" lon="12.8181317"><ele>263.0</ele><time>2026-04-04T15:17:38.689Z</time></trkpt><trkpt lat="43.6199267" lon="12.8177517"><ele>264.75</ele><time>2026-04-04T15:17:40.689Z</time></trkpt><trkpt lat="43.6199583" lon="12.8175683"><ele>266.5</ele><time>2026-04-04T15:17:41.689Z</time></trkpt><trkpt lat="43.6199883" lon="12.8173817"><ele>268.25</ele><time>2026-04-04T15:17:42.689Z</time></trkpt><trkpt lat="43.6200133" lon="12.8172033"><ele>270.0</ele><time>2026-04-04T15:17:43.689Z</time></trkpt><trkpt lat="43.6200383" lon="12.8170433"><ele>270.0</ele><time>2026-04-04T15:17:44.689Z</time></trkpt><trkpt lat="43.6200733" lon="12.8168833"><ele>270.0</ele><time>2026-04-04T15:17:45.689Z</time></trkpt><trkpt lat="43.6201233" lon="12.8167283"><ele>270.0</ele><time>2026-04-04T15:17:46.687Z</time></trkpt><trkpt lat="43.6201783" lon="12.8165617"><ele>270.0</ele><time>2026-04-04T15:17:47.685Z</time></trkpt><trkpt lat="43.6202317" lon="12.8163883"><ele>271.0</ele><time>2026-04-04T15:17:48.689Z</time></trkpt><trkpt lat="43.6202867" lon="12.8162167"><ele>272.0</ele><time>2026-04-04T15:17:49.688Z</time></trkpt><trkpt lat="43.6203333" lon="12.8160517"><ele>273.0</ele><time>2026-04-04T15:17:50.688Z</time></trkpt><trkpt lat="43.62038" lon="12.8159167"><ele>274.0</ele><time>2026-04-04T15:17:51.689Z</time></trkpt><trkpt lat="43.6204317" lon="12.815795"><ele>277.5</ele><time>2026-04-04T15:17:52.687Z</time></trkpt><trkpt lat="43.62049" lon="12.815665"><ele>281.0</ele><time>2026-04-04T15:17:53.691Z</time></trkpt><trkpt lat="43.6205533" lon="12.815525"><ele>284.5</ele><time>2026-04-04T15:17:54.689Z</time></trkpt><trkpt lat="43.6206033" lon="12.8153817"><ele>288.0</ele><time>2026-04-04T15:17:55.689Z</time></trkpt><trkpt lat="43.6206433" lon="12.8152283"><ele>290.5</ele><time>2026-04-04T15:17:56.688Z</time></trkpt><trkpt lat="43.6206717" lon="12.81506"><ele>293.0</ele><time>2026-04-04T15:17:57.687Z</time></trkpt><trkpt lat="43.62069" lon="12.814885"><ele>295.5</ele><time>2026-04-04T15:17:58.69Z</time></trkpt><trkpt lat="43.6207" lon="12.814715"><ele>298.0</ele><time>2026-04-04T15:17:59.69Z</time></trkpt><trkpt lat="43.6207067" lon="12.8143767"><ele>299.5</ele><time>2026-04-04T15:18:01.689Z</time></trkpt><trkpt lat="43.6207" lon="12.8142367"><ele>301.0</ele><time>2026-04-04T15:18:02.688Z</time></trkpt><trkpt lat="43.6206867" lon="12.8141033"><ele>302.5</ele><time>2026-04-04T15:18:03.688Z</time></trkpt><trkpt lat="43.6206817" lon="12.814"><ele>304.0</ele><time>2026-04-04T15:18:04.69Z</time></trkpt><trkpt lat="43.6206917" lon="12.8139083"><ele>305.5</ele><time>2026-04-04T15:18:05.688Z</time></trkpt><trkpt lat="43.62071" lon="12.8138083"><ele>307.0</ele><time>2026-04-04T15:18:06.687Z</time></trkpt><trkpt lat="43.6207483" lon="12.8137317"><ele>307.0</ele><time>2026-04-04T15:18:07.69Z</time></trkpt><trkpt lat="43.620805" lon="12.8136633"><ele>307.0</ele><time>2026-04-04T15:18:08.687Z</time></trkpt><trkpt lat="43.6208967" lon="12.8135983"><ele>307.0</ele><time>2026-04-04T15:18:09.688Z</time></trkpt><trkpt lat="43.6210133" lon="12.81355"><ele>307.0</ele><time>2026-04-04T15:18:10.689Z</time></trkpt><trkpt lat="43.6211467" lon="12.8135017"><ele>307.0</ele><time>2026-04-04T15:18:11.688Z</time></trkpt><trkpt lat="43.6212717" lon="12.81344"><ele>310.8</ele><time>2026-04-04T15:18:12.689Z</time></trkpt><trkpt lat="43.6214017" lon="12.813375"><ele>314.6</ele><time>2026-04-04T15:18:13.69Z</time></trkpt><trkpt lat="43.62152" lon="12.8133283"><ele>318.40000000000003</ele><time>2026-04-04T15:18:14.688Z</time></trkpt><trkpt lat="43.621605" lon="12.8132767"><ele>322.2</ele><time>2026-04-04T15:18:15.687Z</time></trkpt><trkpt lat="43.6216667" lon="12.8132383"><ele>326.0</ele><time>2026-04-04T15:18:16.69Z</time></trkpt><trkpt lat="43.6217383" lon="12.8132067"><ele>326.0</ele><time>2026-04-04T15:18:18.69Z</time></trkpt><trkpt lat="43.6218167" lon="12.81319"><ele>326.0</ele><time>2026-04-04T15:18:20.689Z</time></trkpt><trkpt lat="43.6220233" lon="12.8131767"><ele>326.0</ele><time>2026-04-04T15:18:23.687Z</time></trkpt><trkpt lat="43.6221167" lon="12.81316"><ele>326.0</ele><time>2026-04-04T15:18:24.69Z</time></trkpt><trkpt lat="43.62223" lon="12.8131233"><ele>326.0</ele><time>2026-04-04T15:18:25.689Z</time></trkpt><trkpt lat="43.6223383" lon="12.8130967"><ele>326.0</ele><time>2026-04-04T15:18:26.689Z</time></trkpt><trkpt lat="43.6224417" lon="12.81307"><ele>326.0</ele><time>2026-04-04T15:18:27.687Z</time></trkpt><trkpt lat="43.6225383" lon="12.8130533"><ele>326.0</ele><time>2026-04-04T15:18:28.686Z</time></trkpt><trkpt lat="43.6226283" lon="12.8130433"><ele>326.0</ele><time>2026-04-04T15:18:29.686Z</time></trkpt><trkpt lat="43.6227067" lon="12.8130417"><ele>326.0</ele><time>2026-04-04T15:18:30.688Z</time></trkpt><trkpt lat="43.6227883" lon="12.8130433"><ele>326.0</ele><time>2026-04-04T15:18:31.688Z</time></trkpt><trkpt lat="43.6228767" lon="12.8130467"><ele>326.0</ele><time>2026-04-04T15:18:32.689Z</time></trkpt><trkpt lat="43.6229667" lon="12.8130583"><ele>326.0</ele><time>2026-04-04T15:18:33.686Z</time></trkpt><trkpt lat="43.6230567" lon="12.8130783"><ele>326.0</ele><time>2026-04-04T15:18:34.688Z</time></trkpt><trkpt lat="43.623145" lon="12.813115"><ele>326.0</ele><time>2026-04-04T15:18:35.683Z</time></trkpt><trkpt lat="43.62322" lon="12.81315"><ele>326.6666666666667</ele><time>2026-04-04T15:18:36.688Z</time></trkpt><trkpt lat="43.623295" lon="12.8131867"><ele>327.33333333333337</ele><time>2026-04-04T15:18:37.688Z</time></trkpt><trkpt lat="43.6233667" lon="12.8132183"><ele>328.0</ele><time>2026-04-04T15:18:38.689Z</time></trkpt><trkpt lat="43.623445" lon="12.8132433"><ele>328.6666666666667</ele><time>2026-04-04T15:18:39.687Z</time></trkpt><trkpt lat="43.6235317" lon="12.8132517"><ele>329.3333333333333</ele><time>2026-04-04T15:18:40.69Z</time></trkpt><trkpt lat="43.6236217" lon="12.813235"><ele>330.0</ele><time>2026-04-04T15:18:41.685Z</time></trkpt><trkpt lat="43.6237883" lon="12.8131433"><ele>330.0</ele><time>2026-04-04T15:18:43.687Z</time></trkpt><trkpt lat="43.6238617" lon="12.8130583"><ele>330.0</ele><time>2026-04-04T15:18:44.688Z</time></trkpt><trkpt lat="43.6239383" lon="12.8129433"><ele>330.0</ele><time>2026-04-04T15:18:45.684Z</time></trkpt><trkpt lat="43.62401" lon="12.812825"><ele>330.0</ele><time>2026-04-04T15:18:46.687Z</time></trkpt><trkpt lat="43.6240833" lon="12.8127117"><ele>330.0</ele><time>2026-04-04T15:18:47.69Z</time></trkpt><trkpt lat="43.624175" lon="12.8126083"><ele>334.25</ele><time>2026-04-04T15:18:48.687Z</time></trkpt><trkpt lat="43.624285" lon="12.8125083"><ele>338.5</ele><time>2026-04-04T15:18:49.693Z</time></trkpt><trkpt lat="43.6244083" lon="12.8123983"><ele>342.75</ele><time>2026-04-04T15:18:50.685Z</time></trkpt><trkpt lat="43.6245367" lon="12.812275"><ele>347.0</ele><time>2026-04-04T15:18:51.687Z</time></trkpt><trkpt lat="43.6246517" lon="12.8121583"><ele>347.0</ele><time>2026-04-04T15:18:52.69Z</time></trkpt><trkpt lat="43.6247633" lon="12.812055"><ele>347.0</ele><time>2026-04-04T15:18:53.687Z</time></trkpt><trkpt lat="43.6248767" lon="12.8119767"><ele>347.0</ele><time>2026-04-04T15:18:54.69Z</time></trkpt><trkpt lat="43.624995" lon="12.8119083"><ele>347.0</ele><time>2026-04-04T15:18:55.689Z</time></trkpt><trkpt lat="43.62511" lon="12.81183"><ele>349.5</ele><time>2026-04-04T15:18:56.688Z</time></trkpt><trkpt lat="43.6252283" lon="12.8117317"><ele>352.0</ele><time>2026-04-04T15:18:57.686Z</time></trkpt><trkpt lat="43.6253417" lon="12.8116433"><ele>354.5</ele><time>2026-04-04T15:18:58.689Z</time></trkpt><trkpt lat="43.625445" lon="12.8115567"><ele>357.0</ele><time>2026-04-04T15:18:59.69Z</time></trkpt><trkpt lat="43.6255433" lon="12.8114567"><ele>357.3333333333333</ele><time>2026-04-04T15:19:00.688Z</time></trkpt><trkpt lat="43.6256333" lon="12.8113383"><ele>357.66666666666663</ele><time>2026-04-04T15:19:01.691Z</time></trkpt><trkpt lat="43.625725" lon="12.8111983"><ele>358.0</ele><time>2026-04-04T15:19:02.688Z</time></trkpt><trkpt lat="43.6259083" lon="12.8109067"><ele>358.75</ele><time>2026-04-04T15:19:04.689Z</time></trkpt><trkpt lat="43.6259983" lon="12.81076"><ele>359.5</ele><time>2026-04-04T15:19:05.689Z</time></trkpt><trkpt lat="43.62609" lon="12.810615"><ele>360.25</ele><time>2026-04-04T15:19:06.689Z</time></trkpt><trkpt lat="43.6261883" lon="12.81048"><ele>361.0</ele><time>2026-04-04T15:19:07.691Z</time></trkpt><trkpt lat="43.626295" lon="12.81035"><ele>361.0</ele><time>2026-04-04T15:19:08.688Z</time></trkpt><trkpt lat="43.626405" lon="12.810225"><ele>361.0</ele><time>2026-04-04T15:19:09.69Z</time></trkpt><trkpt lat="43.6265117" lon="12.8100933"><ele>361.0</ele><time>2026-04-04T15:19:10.688Z</time></trkpt><trkpt lat="43.6266117" lon="12.8099683"><ele>361.0</ele><time>2026-04-04T15:19:11.689Z</time></trkpt><trkpt lat="43.6267117" lon="12.8098483"><ele>360.0</ele><time>2026-04-04T15:19:12.689Z</time></trkpt><trkpt lat="43.6268167" lon="12.809735"><ele>359.0</ele><time>2026-04-04T15:19:13.686Z</time></trkpt><trkpt lat="43.6269283" lon="12.8096317"><ele>358.0</ele><time>2026-04-04T15:19:14.689Z</time></trkpt><trkpt lat="43.6270467" lon="12.8095383"><ele>357.0</ele><time>2026-04-04T15:19:15.688Z</time></trkpt><trkpt lat="43.62716" lon="12.809455"><ele>357.0</ele><time>2026-04-04T15:19:16.689Z</time></trkpt><trkpt lat="43.627265" lon="12.809385"><ele>357.0</ele><time>2026-04-04T15:19:17.689Z</time></trkpt><trkpt lat="43.6273667" lon="12.80932"><ele>357.0</ele><time>2026-04-04T15:19:18.687Z</time></trkpt><trkpt lat="43.6274667" lon="12.8092517"><ele>357.0</ele><time>2026-04-04T15:19:19.69Z</time></trkpt><trkpt lat="43.6275633" lon="12.8091833"><ele>357.0</ele><time>2026-04-04T15:19:20.688Z</time></trkpt><trkpt lat="43.62766" lon="12.80911"><ele>358.3333333333333</ele><time>2026-04-04T15:19:21.688Z</time></trkpt><trkpt lat="43.62776" lon="12.80903"><ele>359.66666666666663</ele><time>2026-04-04T15:19:22.689Z</time></trkpt><trkpt lat="43.627855" lon="12.80894"><ele>361.0</ele><time>2026-04-04T15:19:23.69Z</time></trkpt><trkpt lat="43.6280533" lon="12.80875"><ele>359.6</ele><time>2026-04-04T15:19:25.69Z</time></trkpt><trkpt lat="43.6281583" lon="12.8086567"><ele>358.20000000000005</ele><time>2026-04-04T15:19:26.689Z</time></trkpt><trkpt lat="43.6282633" lon="12.808575"><ele>356.79999999999995</ele><time>2026-04-04T15:19:27.691Z</time></trkpt><trkpt lat="43.6283483" lon="12.8085183"><ele>355.4</ele><time>2026-04-04T15:19:28.688Z</time></trkpt><trkpt lat="43.6284217" lon="12.8084833"><ele>354.0</ele><time>2026-04-04T15:19:29.689Z</time></trkpt><trkpt lat="43.6284867" lon="12.8084667"><ele>352.4</ele><time>2026-04-04T15:19:30.688Z</time></trkpt><trkpt lat="43.6285867" lon="12.80854"><ele>350.79999999999995</ele><time>2026-04-04T15:19:32.688Z</time></trkpt><trkpt lat="43.6286317" lon="12.8086367"><ele>349.20000000000005</ele><time>2026-04-04T15:19:33.69Z</time></trkpt><trkpt lat="43.6286783" lon="12.80875"><ele>347.6</ele><time>2026-04-04T15:19:34.689Z</time></trkpt><trkpt lat="43.6287317" lon="12.8088883"><ele>346.0</ele><time>2026-04-04T15:19:35.688Z</time></trkpt><trkpt lat="43.6287883" lon="12.80904"><ele>344.20000000000005</ele><time>2026-04-04T15:19:36.689Z</time></trkpt><trkpt lat="43.6288433" lon="12.809195"><ele>342.40000000000003</ele><time>2026-04-04T15:19:37.69Z</time></trkpt><trkpt lat="43.6289" lon="12.809325"><ele>340.6</ele><time>2026-04-04T15:19:38.69Z</time></trkpt><trkpt lat="43.6289617" lon="12.8094333"><ele>338.8</ele><time>2026-04-04T15:19:39.686Z</time></trkpt><trkpt lat="43.6290383" lon="12.8095183"><ele>337.0</ele><time>2026-04-04T15:19:40.688Z</time></trkpt><trkpt lat="43.6291417" lon="12.80959"><ele>336.25</ele><time>2026-04-04T15:19:41.685Z</time></trkpt><trkpt lat="43.629265" lon="12.8096617"><ele>335.5</ele><time>2026-04-04T15:19:42.688Z</time></trkpt><trkpt lat="43.629395" lon="12.8097433"><ele>334.75</ele><time>2026-04-04T15:19:43.69Z</time></trkpt><trkpt lat="43.629525" lon="12.8098433"><ele>334.0</ele><time>2026-04-04T15:19:44.689Z</time></trkpt><trkpt lat="43.6297967" lon="12.8100717"><ele>333.3333333333333</ele><time>2026-04-04T15:19:46.688Z</time></trkpt><trkpt lat="43.6299367" lon="12.8101833"><ele>332.6666666666667</ele><time>2026-04-04T15:19:47.689Z</time></trkpt><trkpt lat="43.6300783" lon="12.8102883"><ele>332.0</ele><time>2026-04-04T15:19:48.688Z</time></trkpt><trkpt lat="43.6302167" lon="12.8103867"><ele>333.0</ele><time>2026-04-04T15:19:49.69Z</time></trkpt><trkpt lat="43.6303567" lon="12.81048"><ele>334.0</ele><time>2026-04-04T15:19:50.688Z</time></trkpt><trkpt lat="43.6305033" lon="12.8105617"><ele>335.0</ele><time>2026-04-04T15:19:51.689Z</time></trkpt><trkpt lat="43.6306567" lon="12.8106367"><ele>335.0</ele><time>2026-04-04T15:19:52.688Z</time></trkpt><trkpt lat="43.6308067" lon="12.8106933"><ele>335.0</ele><time>2026-04-04T15:19:53.688Z</time></trkpt><trkpt lat="43.63095" lon="12.8107433"><ele>335.0</ele><time>2026-04-04T15:19:54.687Z</time></trkpt><trkpt lat="43.6310817" lon="12.8107817"><ele>335.0</ele><time>2026-04-04T15:19:55.689Z</time></trkpt><trkpt lat="43.6312033" lon="12.8108"><ele>335.0</ele><time>2026-04-04T15:19:56.689Z</time></trkpt><trkpt lat="43.6313133" lon="12.810795"><ele>335.0</ele><time>2026-04-04T15:19:57.689Z</time></trkpt><trkpt lat="43.6314167" lon="12.8107833"><ele>335.0</ele><time>2026-04-04T15:19:58.689Z</time></trkpt><trkpt lat="43.6315183" lon="12.8107767"><ele>335.0</ele><time>2026-04-04T15:19:59.689Z</time></trkpt><trkpt lat="43.6316183" lon="12.8107817"><ele>335.0</ele><time>2026-04-04T15:20:00.687Z</time></trkpt><trkpt lat="43.6317083" lon="12.810795"><ele>335.0</ele><time>2026-04-04T15:20:01.688Z</time></trkpt><trkpt lat="43.6317867" lon="12.8108317"><ele>335.0</ele><time>2026-04-04T15:20:02.685Z</time></trkpt><trkpt lat="43.6318483" lon="12.810875"><ele>335.0</ele><time>2026-04-04T15:20:03.689Z</time></trkpt><trkpt lat="43.631935" lon="12.810915"><ele>335.0</ele><time>2026-04-04T15:20:05.69Z</time></trkpt><trkpt lat="43.6320383" lon="12.81072"><ele>335.0</ele><time>2026-04-04T15:20:08.689Z</time></trkpt><trkpt lat="43.63209" lon="12.8105567"><ele>335.33333333333337</ele><time>2026-04-04T15:20:09.688Z</time></trkpt><trkpt lat="43.6321467" lon="12.8103683"><ele>335.6666666666667</ele><time>2026-04-04T15:20:10.69Z</time></trkpt><trkpt lat="43.6322067" lon="12.81018"><ele>336.0</ele><time>2026-04-04T15:20:11.687Z</time></trkpt><trkpt lat="43.6322683" lon="12.8099833"><ele>333.5</ele><time>2026-04-04T15:20:12.688Z</time></trkpt><trkpt lat="43.6323333" lon="12.809795"><ele>331.0</ele><time>2026-04-04T15:20:13.689Z</time></trkpt><trkpt lat="43.632395" lon="12.80962"><ele>328.5</ele><time>2026-04-04T15:20:14.688Z</time></trkpt><trkpt lat="43.6324567" lon="12.80944"><ele>326.0</ele><time>2026-04-04T15:20:15.687Z</time></trkpt><trkpt lat="43.6325217" lon="12.80927"><ele>324.5</ele><time>2026-04-04T15:20:16.689Z</time></trkpt><trkpt lat="43.6325883" lon="12.809105"><ele>323.0</ele><time>2026-04-04T15:20:17.686Z</time></trkpt><trkpt lat="43.632655" lon="12.808945"><ele>321.5</ele><time>2026-04-04T15:20:18.688Z</time></trkpt><trkpt lat="43.6327233" lon="12.8087833"><ele>320.0</ele><time>2026-04-04T15:20:19.687Z</time></trkpt><trkpt lat="43.632795" lon="12.8086217"><ele>317.25</ele><time>2026-04-04T15:20:20.691Z</time></trkpt><trkpt lat="43.6328667" lon="12.8084683"><ele>314.5</ele><time>2026-04-04T15:20:21.687Z</time></trkpt><trkpt lat="43.63294" lon="12.80833"><ele>311.75</ele><time>2026-04-04T15:20:22.689Z</time></trkpt><trkpt lat="43.6330233" lon="12.8082217"><ele>309.0</ele><time>2026-04-04T15:20:23.686Z</time></trkpt><trkpt lat="43.633125" lon="12.8081517"><ele>309.0</ele><time>2026-04-04T15:20:24.688Z</time></trkpt><trkpt lat="43.63323" lon="12.80812"><ele>309.0</ele><time>2026-04-04T15:20:25.69Z</time></trkpt><trkpt lat="43.6333367" lon="12.8081083"><ele>309.0</ele><time>2026-04-04T15:20:26.688Z</time></trkpt><trkpt lat="43.6335667" lon="12.8080317"><ele>307.59999999999997</ele><time>2026-04-04T15:20:28.688Z</time></trkpt><trkpt lat="43.63368" lon="12.80798"><ele>306.2</ele><time>2026-04-04T15:20:29.687Z</time></trkpt><trkpt lat="43.63379" lon="12.8079267"><ele>304.79999999999995</ele><time>2026-04-04T15:20:30.688Z</time></trkpt><trkpt lat="43.633895" lon="12.8078817"><ele>303.4</ele><time>2026-04-04T15:20:31.689Z</time></trkpt><trkpt lat="43.6339883" lon="12.8078383"><ele>302.0</ele><time>2026-04-04T15:20:32.689Z</time></trkpt><trkpt lat="43.6340633" lon="12.807795"><ele>302.0</ele><time>2026-04-04T15:20:33.689Z</time></trkpt><trkpt lat="43.6341233" lon="12.8077417"><ele>302.0</ele><time>2026-04-04T15:20:34.688Z</time></trkpt><trkpt lat="43.6341733" lon="12.80767"><ele>302.0</ele><time>2026-04-04T15:20:35.689Z</time></trkpt><trkpt lat="43.6342117" lon="12.807585"><ele>302.0</ele><time>2026-04-04T15:20:36.689Z</time></trkpt><trkpt lat="43.634235" lon="12.8074833"><ele>302.0</ele><time>2026-04-04T15:20:37.691Z</time></trkpt><trkpt lat="43.6342433" lon="12.8073567"><ele>302.0</ele><time>2026-04-04T15:20:38.689Z</time></trkpt><trkpt lat="43.634245" lon="12.807195"><ele>302.5</ele><time>2026-04-04T15:20:39.689Z</time></trkpt><trkpt lat="43.6342567" lon="12.8070267"><ele>303.0</ele><time>2026-04-04T15:20:40.688Z</time></trkpt><trkpt lat="43.6342783" lon="12.8068633"><ele>303.5</ele><time>2026-04-04T15:20:41.684Z</time></trkpt><trkpt lat="43.634305" lon="12.8066933"><ele>304.0</ele><time>2026-04-04T15:20:42.687Z</time></trkpt><trkpt lat="43.6343383" lon="12.8065183"><ele>304.0</ele><time>2026-04-04T15:20:43.687Z</time></trkpt><trkpt lat="43.6343767" lon="12.8063433"><ele>304.0</ele><time>2026-04-04T15:20:44.691Z</time></trkpt><trkpt lat="43.6344283" lon="12.806185"><ele>304.0</ele><time>2026-04-04T15:20:45.689Z</time></trkpt><trkpt lat="43.6345" lon="12.8060317"><ele>304.0</ele><time>2026-04-04T15:20:46.689Z</time></trkpt><trkpt lat="43.6345883" lon="12.805895"><ele>301.3333333333333</ele><time>2026-04-04T15:20:47.689Z</time></trkpt><trkpt lat="43.6347983" lon="12.8056317"><ele>298.6666666666667</ele><time>2026-04-04T15:20:49.69Z</time></trkpt><trkpt lat="43.6349167" lon="12.8054983"><ele>296.0</ele><time>2026-04-04T15:20:50.69Z</time></trkpt><trkpt lat="43.6350367" lon="12.8053617"><ele>296.0</ele><time>2026-04-04T15:20:51.688Z</time></trkpt><trkpt lat="43.635145" lon="12.8052267"><ele>296.0</ele><time>2026-04-04T15:20:52.688Z</time></trkpt><trkpt lat="43.63524" lon="12.8050967"><ele>296.0</ele><time>2026-04-04T15:20:53.689Z</time></trkpt><trkpt lat="43.6353267" lon="12.8049767"><ele>296.0</ele><time>2026-04-04T15:20:54.687Z</time></trkpt><trkpt lat="43.6354083" lon="12.8048517"><ele>294.40000000000003</ele><time>2026-04-04T15:20:55.687Z</time></trkpt><trkpt lat="43.635485" lon="12.8047317"><ele>292.8</ele><time>2026-04-04T15:20:56.689Z</time></trkpt><trkpt lat="43.63556" lon="12.80462"><ele>291.20000000000005</ele><time>2026-04-04T15:20:57.688Z</time></trkpt><trkpt lat="43.6356317" lon="12.8045233"><ele>289.6</ele><time>2026-04-04T15:20:58.689Z</time></trkpt><trkpt lat="43.635705" lon="12.8044483"><ele>288.0</ele><time>2026-04-04T15:20:59.688Z</time></trkpt><trkpt lat="43.6357833" lon="12.8044"><ele>288.0</ele><time>2026-04-04T15:21:00.688Z</time></trkpt><trkpt lat="43.63587" lon="12.8043867"><ele>288.0</ele><time>2026-04-04T15:21:01.689Z</time></trkpt><trkpt lat="43.6359633" lon="12.8043933"><ele>288.0</ele><time>2026-04-04T15:21:02.685Z</time></trkpt><trkpt lat="43.6360667" lon="12.8044233"><ele>288.0</ele><time>2026-04-04T15:21:03.687Z</time></trkpt><trkpt lat="43.6361683" lon="12.8044667"><ele>288.0</ele><time>2026-04-04T15:21:04.689Z</time></trkpt><trkpt lat="43.636255" lon="12.8045067"><ele>285.8</ele><time>2026-04-04T15:21:05.689Z</time></trkpt><trkpt lat="43.6363267" lon="12.8045333"><ele>283.6</ele><time>2026-04-04T15:21:06.687Z</time></trkpt><trkpt lat="43.6363917" lon="12.8045433"><ele>281.4</ele><time>2026-04-04T15:21:07.688Z</time></trkpt><trkpt lat="43.636455" lon="12.8045383"><ele>279.2</ele><time>2026-04-04T15:21:08.689Z</time></trkpt><trkpt lat="43.6366017" lon="12.8044467"><ele>277.0</ele><time>2026-04-04T15:21:10.689Z</time></trkpt><trkpt lat="43.63669" lon="12.8043317"><ele>277.5</ele><time>2026-04-04T15:21:11.688Z</time></trkpt><trkpt lat="43.636785" lon="12.8041817"><ele>278.0</ele><time>2026-04-04T15:21:12.689Z</time></trkpt><trkpt lat="43.6368767" lon="12.8040383"><ele>278.5</ele><time>2026-04-04T15:21:13.689Z</time></trkpt><trkpt lat="43.636965" lon="12.8039083"><ele>279.0</ele><time>2026-04-04T15:21:14.688Z</time></trkpt><trkpt lat="43.6370483" lon="12.8037783"><ele>277.59999999999997</ele><time>2026-04-04T15:21:15.689Z</time></trkpt><trkpt lat="43.6371233" lon="12.8036517"><ele>276.2</ele><time>2026-04-04T15:21:16.689Z</time></trkpt><trkpt lat="43.6371983" lon="12.8035283"><ele>274.79999999999995</ele><time>2026-04-04T15:21:17.689Z</time></trkpt><trkpt lat="43.6372667" lon="12.8034167"><ele>273.4</ele><time>2026-04-04T15:21:18.688Z</time></trkpt><trkpt lat="43.6373267" lon="12.8033233"><ele>272.0</ele><time>2026-04-04T15:21:19.691Z</time></trkpt><trkpt lat="43.6373783" lon="12.803245"><ele>271.6</ele><time>2026-04-04T15:21:20.691Z</time></trkpt><trkpt lat="43.6374633" lon="12.8031617"><ele>271.2</ele><time>2026-04-04T15:21:22.689Z</time></trkpt><trkpt lat="43.6375483" lon="12.8031667"><ele>270.8</ele><time>2026-04-04T15:21:24.689Z</time></trkpt><trkpt lat="43.6376317" lon="12.8032167"><ele>270.4</ele><time>2026-04-04T15:21:25.689Z</time></trkpt><trkpt lat="43.6377267" lon="12.8032683"><ele>270.0</ele><time>2026-04-04T15:21:26.688Z</time></trkpt><trkpt lat="43.6378367" lon="12.80334"><ele>273.0</ele><time>2026-04-04T15:21:27.689Z</time></trkpt><trkpt lat="43.6379333" lon="12.80342"><ele>276.0</ele><time>2026-04-04T15:21:28.69Z</time></trkpt><trkpt lat="43.6380283" lon="12.8035333"><ele>279.0</ele><time>2026-04-04T15:21:29.689Z</time></trkpt><trkpt lat="43.638205" lon="12.803765"><ele>280.4</ele><time>2026-04-04T15:21:31.689Z</time></trkpt><trkpt lat="43.6382917" lon="12.80383"><ele>281.79999999999995</ele><time>2026-04-04T15:21:32.688Z</time></trkpt><trkpt lat="43.638375" lon="12.803865"><ele>283.20000000000005</ele><time>2026-04-04T15:21:33.688Z</time></trkpt><trkpt lat="43.638465" lon="12.8038717"><ele>284.6</ele><time>2026-04-04T15:21:34.689Z</time></trkpt><trkpt lat="43.6385617" lon="12.8038417"><ele>286.0</ele><time>2026-04-04T15:21:35.688Z</time></trkpt><trkpt lat="43.6386617" lon="12.80378"><ele>289.66666666666663</ele><time>2026-04-04T15:21:36.688Z</time></trkpt><trkpt lat="43.638745" lon="12.80372"><ele>293.3333333333333</ele><time>2026-04-04T15:21:37.689Z</time></trkpt><trkpt lat="43.6388117" lon="12.8036767"><ele>297.0</ele><time>2026-04-04T15:21:38.688Z</time></trkpt><trkpt lat="43.638895" lon="12.8036683"><ele>300.6666666666667</ele><time>2026-04-04T15:21:40.687Z</time></trkpt><trkpt lat="43.63891" lon="12.8037833"><ele>304.33333333333337</ele><time>2026-04-04T15:21:42.688Z</time></trkpt><trkpt lat="43.638895" lon="12.803875"><ele>308.0</ele><time>2026-04-04T15:21:43.69Z</time></trkpt><trkpt lat="43.63888" lon="12.803965"><ele>308.0</ele><time>2026-04-04T15:21:44.688Z</time></trkpt><trkpt lat="43.6388583" lon="12.804105"><ele>308.0</ele><time>2026-04-04T15:21:45.688Z</time></trkpt><trkpt lat="43.6388433" lon="12.8042617"><ele>308.0</ele><time>2026-04-04T15:21:46.688Z</time></trkpt><trkpt lat="43.6388233" lon="12.80446"><ele>308.0</ele><time>2026-04-04T15:21:47.687Z</time></trkpt><trkpt lat="43.6388067" lon="12.8046583"><ele>311.33333333333337</ele><time>2026-04-04T15:21:48.686Z</time></trkpt><trkpt lat="43.63879" lon="12.80485"><ele>314.6666666666667</ele><time>2026-04-04T15:21:49.69Z</time></trkpt><trkpt lat="43.6387717" lon="12.8050233"><ele>318.0</ele><time>2026-04-04T15:21:50.687Z</time></trkpt><trkpt lat="43.6387233" lon="12.8053583"><ele>318.0</ele><time>2026-04-04T15:21:52.687Z</time></trkpt><trkpt lat="43.638685" lon="12.8055217"><ele>318.0</ele><time>2026-04-04T15:21:53.691Z</time></trkpt><trkpt lat="43.638655" lon="12.8056717"><ele>318.0</ele><time>2026-04-04T15:21:54.688Z</time></trkpt><trkpt lat="43.6386317" lon="12.8057983"><ele>318.0</ele><time>2026-04-04T15:21:55.691Z</time></trkpt><trkpt lat="43.6386117" lon="12.8059067"><ele>318.0</ele><time>2026-04-04T15:21:56.689Z</time></trkpt><trkpt lat="43.6386033" lon="12.806005"><ele>318.0</ele><time>2026-04-04T15:21:57.687Z</time></trkpt><trkpt lat="43.6385983" lon="12.8061017"><ele>318.0</ele><time>2026-04-04T15:21:58.686Z</time></trkpt><trkpt lat="43.63864" lon="12.8062283"><ele>318.0</ele><time>2026-04-04T15:22:00.686Z</time></trkpt><trkpt lat="43.6386983" lon="12.806265"><ele>318.0</ele><time>2026-04-04T15:22:01.687Z</time></trkpt><trkpt lat="43.63879" lon="12.8063033"><ele>318.0</ele><time>2026-04-04T15:22:02.687Z</time></trkpt><trkpt lat="43.6389067" lon="12.8063567"><ele>318.0</ele><time>2026-04-04T15:22:03.687Z</time></trkpt><trkpt lat="43.639035" lon="12.80642"><ele>318.0</ele><time>2026-04-04T15:22:04.689Z</time></trkpt><trkpt lat="43.6391683" lon="12.8064867"><ele>318.0</ele><time>2026-04-04T15:22:05.69Z</time></trkpt><trkpt lat="43.639305" lon="12.80656"><ele>318.0</ele><time>2026-04-04T15:22:06.688Z</time></trkpt><trkpt lat="43.6394383" lon="12.8066367"><ele>319.75</ele><time>2026-04-04T15:22:07.689Z</time></trkpt><trkpt lat="43.6395717" lon="12.8067167"><ele>321.5</ele><time>2026-04-04T15:22:08.689Z</time></trkpt><trkpt lat="43.6397067" lon="12.8068017"><ele>323.25</ele><time>2026-04-04T15:22:09.687Z</time></trkpt><trkpt lat="43.6398383" lon="12.8068967"><ele>325.0</ele><time>2026-04-04T15:22:10.689Z</time></trkpt><trkpt lat="43.6399667" lon="12.807005"><ele>325.0</ele><time>2026-04-04T15:22:11.689Z</time></trkpt><trkpt lat="43.6402133" lon="12.807235"><ele>325.0</ele><time>2026-04-04T15:22:13.688Z</time></trkpt><trkpt lat="43.64034" lon="12.8073367"><ele>325.0</ele><time>2026-04-04T15:22:14.691Z</time></trkpt><trkpt lat="43.6404733" lon="12.8074267"><ele>330.0</ele><time>2026-04-04T15:22:15.688Z</time></trkpt><trkpt lat="43.64061" lon="12.807505"><ele>335.0</ele><time>2026-04-04T15:22:16.689Z</time></trkpt><trkpt lat="43.6407517" lon="12.8075767"><ele>340.0</ele><time>2026-04-04T15:22:17.689Z</time></trkpt><trkpt lat="43.6408983" lon="12.8076417"><ele>339.0</ele><time>2026-04-04T15:22:18.687Z</time></trkpt><trkpt lat="43.6410517" lon="12.8077"><ele>338.0</ele><time>2026-04-04T15:22:19.688Z</time></trkpt><trkpt lat="43.641205" lon="12.8077567"><ele>337.0</ele><time>2026-04-04T15:22:20.688Z</time></trkpt><trkpt lat="43.641345" lon="12.8078067"><ele>341.25</ele><time>2026-04-04T15:22:21.687Z</time></trkpt><trkpt lat="43.6414733" lon="12.8078583"><ele>345.5</ele><time>2026-04-04T15:22:22.687Z</time></trkpt><trkpt lat="43.641595" lon="12.8079017"><ele>349.75</ele><time>2026-04-04T15:22:23.689Z</time></trkpt><trkpt lat="43.64172" lon="12.8079283"><ele>354.0</ele><time>2026-04-04T15:22:24.689Z</time></trkpt><trkpt lat="43.6418317" lon="12.807955"><ele>354.0</ele><time>2026-04-04T15:22:25.688Z</time></trkpt><trkpt lat="43.6419183" lon="12.808"><ele>354.0</ele><time>2026-04-04T15:22:26.689Z</time></trkpt><trkpt lat="43.6419917" lon="12.808065"><ele>354.0</ele><time>2026-04-04T15:22:27.687Z</time></trkpt><trkpt lat="43.6420533" lon="12.8081433"><ele>354.0</ele><time>2026-04-04T15:22:28.686Z</time></trkpt><trkpt lat="43.6421067" lon="12.8082367"><ele>354.0</ele><time>2026-04-04T15:22:29.688Z</time></trkpt><trkpt lat="43.6421517" lon="12.808355"><ele>354.0</ele><time>2026-04-04T15:22:30.687Z</time></trkpt><trkpt lat="43.642195" lon="12.8084883"><ele>360.3333333333333</ele><time>2026-04-04T15:22:31.687Z</time></trkpt><trkpt lat="43.64223" lon="12.8086417"><ele>366.66666666666663</ele><time>2026-04-04T15:22:32.687Z</time></trkpt><trkpt lat="43.6422583" lon="12.80899"><ele>373.0</ele><time>2026-04-04T15:22:34.688Z</time></trkpt><trkpt lat="43.6422633" lon="12.809165"><ele>373.0</ele><time>2026-04-04T15:22:35.694Z</time></trkpt><trkpt lat="43.642255" lon="12.809325"><ele>373.0</ele><time>2026-04-04T15:22:36.687Z</time></trkpt><trkpt lat="43.64224" lon="12.80946"><ele>373.0</ele><time>2026-04-04T15:22:37.688Z</time></trkpt><trkpt lat="43.6422317" lon="12.8095733"><ele>373.0</ele><time>2026-04-04T15:22:38.69Z</time></trkpt><trkpt lat="43.64224" lon="12.8096683"><ele>373.0</ele><time>2026-04-04T15:22:39.691Z</time></trkpt><trkpt lat="43.6423133" lon="12.8098133"><ele>374.4</ele><time>2026-04-04T15:22:41.688Z</time></trkpt><trkpt lat="43.6423717" lon="12.8098767"><ele>375.79999999999995</ele><time>2026-04-04T15:22:42.69Z</time></trkpt><trkpt lat="43.6424433" lon="12.80995"><ele>377.2</ele><time>2026-04-04T15:22:43.689Z</time></trkpt><trkpt lat="43.6425333" lon="12.8100533"><ele>378.6</ele><time>2026-04-04T15:22:44.69Z</time></trkpt><trkpt lat="43.6426317" lon="12.8101767"><ele>380.0</ele><time>2026-04-04T15:22:45.69Z</time></trkpt><trkpt lat="43.6427267" lon="12.810305"><ele>384.25</ele><time>2026-04-04T15:22:46.689Z</time></trkpt><trkpt lat="43.6428133" lon="12.8104233"><ele>388.5</ele><time>2026-04-04T15:22:47.69Z</time></trkpt><trkpt lat="43.64291" lon="12.8105317"><ele>392.75</ele><time>2026-04-04T15:22:48.69Z</time></trkpt><trkpt lat="43.6430217" lon="12.8106283"><ele>397.0</ele><time>2026-04-04T15:22:49.69Z</time></trkpt><trkpt lat="43.6431367" lon="12.8107083"><ele>397.0</ele><time>2026-04-04T15:22:50.69Z</time></trkpt><trkpt lat="43.6432517" lon="12.8107867"><ele>397.0</ele><time>2026-04-04T15:22:51.691Z</time></trkpt><trkpt lat="43.64336" lon="12.810865"><ele>397.0</ele><time>2026-04-04T15:22:52.689Z</time></trkpt><trkpt lat="43.6434767" lon="12.8109417"><ele>397.0</ele><time>2026-04-04T15:22:53.691Z</time></trkpt><trkpt lat="43.643725" lon="12.8110833"><ele>397.5</ele><time>2026-04-04T15:22:55.69Z</time></trkpt><trkpt lat="43.6438433" lon="12.8111433"><ele>398.0</ele><time>2026-04-04T15:22:56.69Z</time></trkpt><trkpt lat="43.6439483" lon="12.8112"><ele>398.5</ele><time>2026-04-04T15:22:57.691Z</time></trkpt><trkpt lat="43.6440483" lon="12.8112467"><ele>399.0</ele><time>2026-04-04T15:22:58.689Z</time></trkpt><trkpt lat="43.6441583" lon="12.8112833"><ele>399.0</ele><time>2026-04-04T15:22:59.692Z</time></trkpt><trkpt lat="43.64428" lon="12.8112967"><ele>399.0</ele><time>2026-04-04T15:23:00.686Z</time></trkpt><trkpt lat="43.6444017" lon="12.8113033"><ele>399.0</ele><time>2026-04-04T15:23:01.692Z</time></trkpt><trkpt lat="43.644525" lon="12.8112967"><ele>399.0</ele><time>2026-04-04T15:23:02.689Z</time></trkpt><trkpt lat="43.64464" lon="12.811285"><ele>401.6666666666667</ele><time>2026-04-04T15:23:03.688Z</time></trkpt><trkpt lat="43.6447417" lon="12.8112717"><ele>404.33333333333337</ele><time>2026-04-04T15:23:04.687Z</time></trkpt><trkpt lat="43.6448233" lon="12.8112717"><ele>407.0</ele><time>2026-04-04T15:23:05.688Z</time></trkpt><trkpt lat="43.6448917" lon="12.811285"><ele>409.6666666666667</ele><time>2026-04-04T15:23:06.689Z</time></trkpt><trkpt lat="43.644955" lon="12.8113017"><ele>412.33333333333337</ele><time>2026-04-04T15:23:07.689Z</time></trkpt><trkpt lat="43.6450083" lon="12.8113683"><ele>415.0</ele><time>2026-04-04T15:23:08.685Z</time></trkpt><trkpt lat="43.6450633" lon="12.8114617"><ele>415.00000000000006</ele><time>2026-04-04T15:23:09.686Z</time></trkpt><trkpt lat="43.6451233" lon="12.8115483"><ele>415.0</ele><time>2026-04-04T15:23:10.687Z</time></trkpt><trkpt lat="43.645185" lon="12.8116217"><ele>415.0</ele><time>2026-04-04T15:23:11.687Z</time></trkpt><trkpt lat="43.6452433" lon="12.8116733"><ele>415.0</ele><time>2026-04-04T15:23:12.686Z</time></trkpt><trkpt lat="43.645305" lon="12.8117"><ele>415.00000000000006</ele><time>2026-04-04T15:23:13.688Z</time></trkpt><trkpt lat="43.6453733" lon="12.8117067"><ele>415.0</ele><time>2026-04-04T15:23:14.689Z</time></trkpt><trkpt lat="43.64552" lon="12.8116117"><ele>415.8</ele><time>2026-04-04T15:23:16.687Z</time></trkpt><trkpt lat="43.6455983" lon="12.81152"><ele>416.6</ele><time>2026-04-04T15:23:17.686Z</time></trkpt><trkpt lat="43.645665" lon="12.8114583"><ele>417.4</ele><time>2026-04-04T15:23:18.689Z</time></trkpt><trkpt lat="43.6457383" lon="12.8114217"><ele>418.2</ele><time>2026-04-04T15:23:19.689Z</time></trkpt><trkpt lat="43.64583" lon="12.8114017"><ele>419.0</ele><time>2026-04-04T15:23:20.686Z</time></trkpt><trkpt lat="43.6459333" lon="12.8114017"><ele>419.0</ele><time>2026-04-04T15:23:21.687Z</time></trkpt><trkpt lat="43.646045" lon="12.81141"><ele>419.0</ele><time>2026-04-04T15:23:22.687Z</time></trkpt><trkpt lat="43.6461583" lon="12.8114133"><ele>419.0</ele><time>2026-04-04T15:23:23.687Z</time></trkpt><trkpt lat="43.6462667" lon="12.8114183"><ele>419.0</ele><time>2026-04-04T15:23:24.688Z</time></trkpt><trkpt lat="43.6463767" lon="12.8114167"><ele>419.0</ele><time>2026-04-04T15:23:25.69Z</time></trkpt><trkpt lat="43.6464783" lon="12.8114333"><ele>417.6</ele><time>2026-04-04T15:23:26.685Z</time></trkpt><trkpt lat="43.6465783" lon="12.81144"><ele>416.2</ele><time>2026-04-04T15:23:27.688Z</time></trkpt><trkpt lat="43.646675" lon="12.8114433"><ele>414.8</ele><time>2026-04-04T15:23:28.686Z</time></trkpt><trkpt lat="43.6467583" lon="12.8114417"><ele>413.40000000000003</ele><time>2026-04-04T15:23:29.686Z</time></trkpt><trkpt lat="43.646845" lon="12.81143"><ele>412.0</ele><time>2026-04-04T15:23:30.688Z</time></trkpt><trkpt lat="43.6469367" lon="12.8114067"><ele>408.5</ele><time>2026-04-04T15:23:31.688Z</time></trkpt><trkpt lat="43.6470367" lon="12.8113433"><ele>405.0</ele><time>2026-04-04T15:23:32.689Z</time></trkpt><trkpt lat="43.6471417" lon="12.8112617"><ele>401.5</ele><time>2026-04-04T15:23:33.688Z</time></trkpt><trkpt lat="43.6472533" lon="12.8111817"><ele>398.0</ele><time>2026-04-04T15:23:34.69Z</time></trkpt><trkpt lat="43.6473683" lon="12.81109"><ele>401.3333333333333</ele><time>2026-04-04T15:23:35.686Z</time></trkpt><trkpt lat="43.647605" lon="12.81092"><ele>404.66666666666663</ele><time>2026-04-04T15:23:37.692Z</time></trkpt><trkpt lat="43.64772" lon="12.8108333"><ele>408.0</ele><time>2026-04-04T15:23:38.687Z</time></trkpt><trkpt lat="43.647835" lon="12.8107567"><ele>408.0</ele><time>2026-04-04T15:23:39.691Z</time></trkpt><trkpt lat="43.64795" lon="12.8106817"><ele>408.0</ele><time>2026-04-04T15:23:40.689Z</time></trkpt><trkpt lat="43.64807" lon="12.8106117"><ele>408.0</ele><time>2026-04-04T15:23:41.691Z</time></trkpt><trkpt lat="43.6481917" lon="12.8105483"><ele>408.0</ele><time>2026-04-04T15:23:42.69Z</time></trkpt><trkpt lat="43.64832" lon="12.8105017"><ele>408.0</ele><time>2026-04-04T15:23:43.688Z</time></trkpt><trkpt lat="43.6484483" lon="12.8104717"><ele>408.0</ele><time>2026-04-04T15:23:44.687Z</time></trkpt><trkpt lat="43.6485717" lon="12.8104617"><ele>408.0</ele><time>2026-04-04T15:23:45.686Z</time></trkpt><trkpt lat="43.6486833" lon="12.81047"><ele>408.0</ele><time>2026-04-04T15:23:46.689Z</time></trkpt><trkpt lat="43.6487933" lon="12.8104567"><ele>407.75</ele><time>2026-04-04T15:23:47.687Z</time></trkpt><trkpt lat="43.6489017" lon="12.8104183"><ele>407.5</ele><time>2026-04-04T15:23:48.688Z</time></trkpt><trkpt lat="43.6490117" lon="12.8103583"><ele>407.25</ele><time>2026-04-04T15:23:49.689Z</time></trkpt><trkpt lat="43.6491217" lon="12.8102717"><ele>407.0</ele><time>2026-04-04T15:23:50.689Z</time></trkpt><trkpt lat="43.6492317" lon="12.81016"><ele>408.0</ele><time>2026-04-04T15:23:51.69Z</time></trkpt><trkpt lat="43.6493367" lon="12.8100333"><ele>409.0</ele><time>2026-04-04T15:23:52.689Z</time></trkpt><trkpt lat="43.6494333" lon="12.80989"><ele>410.0</ele><time>2026-04-04T15:23:53.691Z</time></trkpt><trkpt lat="43.6495333" lon="12.80973"><ele>411.0</ele><time>2026-04-04T15:23:54.689Z</time></trkpt><trkpt lat="43.64965" lon="12.8095583"><ele>411.0</ele><time>2026-04-04T15:23:55.69Z</time></trkpt><trkpt lat="43.64978" lon="12.8093917"><ele>411.0</ele><time>2026-04-04T15:23:56.689Z</time></trkpt><trkpt lat="43.6500267" lon="12.8090833"><ele>413.33333333333337</ele><time>2026-04-04T15:23:58.689Z</time></trkpt><trkpt lat="43.6501517" lon="12.808925"><ele>415.6666666666667</ele><time>2026-04-04T15:23:59.688Z</time></trkpt><trkpt lat="43.6502783" lon="12.8087683"><ele>418.0</ele><time>2026-04-04T15:24:00.688Z</time></trkpt><trkpt lat="43.6504017" lon="12.8086183"><ele>422.33333333333337</ele><time>2026-04-04T15:24:01.691Z</time></trkpt><trkpt lat="43.650525" lon="12.8084717"><ele>426.66666666666663</ele><time>2026-04-04T15:24:02.689Z</time></trkpt><trkpt lat="43.6506533" lon="12.8083267"><ele>431.0</ele><time>2026-04-04T15:24:03.69Z</time></trkpt><trkpt lat="43.65078" lon="12.8081867"><ele>431.0</ele><time>2026-04-04T15:24:04.689Z</time></trkpt><trkpt lat="43.6509" lon="12.8080467"><ele>431.0</ele><time>2026-04-04T15:24:05.69Z</time></trkpt><trkpt lat="43.6510183" lon="12.8079117"><ele>431.0</ele><time>2026-04-04T15:24:06.689Z</time></trkpt><trkpt lat="43.6511267" lon="12.8077817"><ele>435.0</ele><time>2026-04-04T15:24:07.692Z</time></trkpt><trkpt lat="43.6512283" lon="12.80765"><ele>439.0</ele><time>2026-04-04T15:24:08.685Z</time></trkpt><trkpt lat="43.6513217" lon="12.8075217"><ele>443.0</ele><time>2026-04-04T15:24:09.69Z</time></trkpt><trkpt lat="43.6514183" lon="12.8073983"><ele>447.0</ele><time>2026-04-04T15:24:10.689Z</time></trkpt><trkpt lat="43.6515217" lon="12.8072833"><ele>447.0</ele><time>2026-04-04T15:24:11.69Z</time></trkpt><trkpt lat="43.6516317" lon="12.8071817"><ele>447.00000000000006</ele><time>2026-04-04T15:24:12.689Z</time></trkpt><trkpt lat="43.6517317" lon="12.8070933"><ele>447.00000000000006</ele><time>2026-04-04T15:24:13.69Z</time></trkpt><trkpt lat="43.651815" lon="12.8070217"><ele>447.0</ele><time>2026-04-04T15:24:14.687Z</time></trkpt><trkpt lat="43.6518883" lon="12.8069567"><ele>447.0</ele><time>2026-04-04T15:24:15.689Z</time></trkpt><trkpt lat="43.6519467" lon="12.8069033"><ele>446.6</ele><time>2026-04-04T15:24:16.69Z</time></trkpt><trkpt lat="43.6520133" lon="12.8068617"><ele>446.20000000000005</ele><time>2026-04-04T15:24:18.686Z</time></trkpt><trkpt lat="43.65217" lon="12.8067217"><ele>445.8</ele><time>2026-04-04T15:24:22.688Z</time></trkpt><trkpt lat="43.6522217" lon="12.8066267"><ele>445.4</ele><time>2026-04-04T15:24:23.689Z</time></trkpt><trkpt lat="43.65227" lon="12.8065133"><ele>445.0</ele><time>2026-04-04T15:24:24.689Z</time></trkpt><trkpt lat="43.6523083" lon="12.8063917"><ele>445.0</ele><time>2026-04-04T15:24:25.689Z</time></trkpt><trkpt lat="43.6523383" lon="12.806265"><ele>445.0</ele><time>2026-04-04T15:24:26.685Z</time></trkpt><trkpt lat="43.6523717" lon="12.80613"><ele>445.0</ele><time>2026-04-04T15:24:27.689Z</time></trkpt><trkpt lat="43.65241" lon="12.8059983"><ele>445.0</ele><time>2026-04-04T15:24:28.689Z</time></trkpt><trkpt lat="43.6524567" lon="12.8058583"><ele>445.0</ele><time>2026-04-04T15:24:29.687Z</time></trkpt><trkpt lat="43.652505" lon="12.8057167"><ele>445.25</ele><time>2026-04-04T15:24:30.687Z</time></trkpt><trkpt lat="43.652555" lon="12.8055667"><ele>445.5</ele><time>2026-04-04T15:24:31.69Z</time></trkpt><trkpt lat="43.652605" lon="12.80541"><ele>445.75</ele><time>2026-04-04T15:24:32.685Z</time></trkpt><trkpt lat="43.6526583" lon="12.8052517"><ele>446.0</ele><time>2026-04-04T15:24:33.691Z</time></trkpt><trkpt lat="43.6527283" lon="12.80511"><ele>441.5</ele><time>2026-04-04T15:24:34.688Z</time></trkpt><trkpt lat="43.6528167" lon="12.8049767"><ele>437.0</ele><time>2026-04-04T15:24:35.688Z</time></trkpt><trkpt lat="43.6529133" lon="12.8048667"><ele>432.5</ele><time>2026-04-04T15:24:36.689Z</time></trkpt><trkpt lat="43.6530183" lon="12.8047617"><ele>428.0</ele><time>2026-04-04T15:24:37.689Z</time></trkpt><trkpt lat="43.6531217" lon="12.8046617"><ele>428.0</ele><time>2026-04-04T15:24:38.689Z</time></trkpt><trkpt lat="43.6532167" lon="12.80457"><ele>428.0</ele><time>2026-04-04T15:24:39.688Z</time></trkpt><trkpt lat="43.653385" lon="12.804385"><ele>428.0</ele><time>2026-04-04T15:24:41.688Z</time></trkpt><trkpt lat="43.6534617" lon="12.8042867"><ele>428.0</ele><time>2026-04-04T15:24:42.69Z</time></trkpt><trkpt lat="43.6535333" lon="12.8041733"><ele>429.25</ele><time>2026-04-04T15:24:43.691Z</time></trkpt><trkpt lat="43.6535983" lon="12.80404"><ele>430.5</ele><time>2026-04-04T15:24:44.686Z</time></trkpt><trkpt lat="43.6536583" lon="12.803895"><ele>431.75</ele><time>2026-04-04T15:24:45.687Z</time></trkpt><trkpt lat="43.6537167" lon="12.8037383"><ele>433.0</ele><time>2026-04-04T15:24:46.692Z</time></trkpt><trkpt lat="43.6537733" lon="12.8035783"><ele>430.79999999999995</ele><time>2026-04-04T15:24:47.688Z</time></trkpt><trkpt lat="43.6538283" lon="12.8034267"><ele>428.59999999999997</ele><time>2026-04-04T15:24:48.689Z</time></trkpt><trkpt lat="43.6538767" lon="12.8032833"><ele>426.4</ele><time>2026-04-04T15:24:49.689Z</time></trkpt><trkpt lat="43.6539117" lon="12.80315"><ele>424.20000000000005</ele><time>2026-04-04T15:24:50.688Z</time></trkpt><trkpt lat="43.6539183" lon="12.8030217"><ele>422.0</ele><time>2026-04-04T15:24:51.687Z</time></trkpt><trkpt lat="43.6539017" lon="12.8029017"><ele>421.99999999999994</ele><time>2026-04-04T15:24:52.688Z</time></trkpt><trkpt lat="43.653875" lon="12.8027933"><ele>422.0</ele><time>2026-04-04T15:24:53.688Z</time></trkpt><trkpt lat="43.6538467" lon="12.802695"><ele>422.0</ele><time>2026-04-04T15:24:54.689Z</time></trkpt><trkpt lat="43.6538383" lon="12.8026083"><ele>422.0</ele><time>2026-04-04T15:24:55.69Z</time></trkpt><trkpt lat="43.6539" lon="12.8025167"><ele>421.99999999999994</ele><time>2026-04-04T15:24:57.688Z</time></trkpt><trkpt lat="43.653975" lon="12.8025083"><ele>422.0</ele><time>2026-04-04T15:24:58.688Z</time></trkpt><trkpt lat="43.6540483" lon="12.80249"><ele>419.66666666666663</ele><time>2026-04-04T15:24:59.689Z</time></trkpt><trkpt lat="43.654155" lon="12.8025117"><ele>417.33333333333337</ele><time>2026-04-04T15:25:00.687Z</time></trkpt><trkpt lat="43.654455" lon="12.8026433"><ele>415.0</ele><time>2026-04-04T15:25:02.687Z</time></trkpt><trkpt lat="43.6545867" lon="12.8026883"><ele>414.0</ele><time>2026-04-04T15:25:03.691Z</time></trkpt><trkpt lat="43.6547017" lon="12.8027317"><ele>413.0</ele><time>2026-04-04T15:25:04.688Z</time></trkpt><trkpt lat="43.654815" lon="12.80275"><ele>412.0</ele><time>2026-04-04T15:25:05.686Z</time></trkpt><trkpt lat="43.6549317" lon="12.8027533"><ele>411.0</ele><time>2026-04-04T15:25:06.687Z</time></trkpt><trkpt lat="43.6550517" lon="12.8027533"><ele>411.0</ele><time>2026-04-04T15:25:07.69Z</time></trkpt><trkpt lat="43.6551617" lon="12.8027533"><ele>411.0</ele><time>2026-04-04T15:25:08.687Z</time></trkpt><trkpt lat="43.65525" lon="12.80275"><ele>411.0</ele><time>2026-04-04T15:25:09.687Z</time></trkpt><trkpt lat="43.6553283" lon="12.8027167"><ele>411.0</ele><time>2026-04-04T15:25:10.688Z</time></trkpt><trkpt lat="43.6553983" lon="12.802655"><ele>411.0</ele><time>2026-04-04T15:25:11.688Z</time></trkpt><trkpt lat="43.6554717" lon="12.8025467"><ele>404.33333333333337</ele><time>2026-04-04T15:25:12.689Z</time></trkpt><trkpt lat="43.6555433" lon="12.802385"><ele>397.6666666666667</ele><time>2026-04-04T15:25:13.689Z</time></trkpt><trkpt lat="43.65562" lon="12.8021967"><ele>391.0</ele><time>2026-04-04T15:25:14.689Z</time></trkpt><trkpt lat="43.6557067" lon="12.80199"><ele>392.0</ele><time>2026-04-04T15:25:15.688Z</time></trkpt><trkpt lat="43.6558" lon="12.8017783"><ele>393.0</ele><time>2026-04-04T15:25:16.687Z</time></trkpt><trkpt lat="43.6559" lon="12.8015617"><ele>394.0</ele><time>2026-04-04T15:25:17.687Z</time></trkpt><trkpt lat="43.6560017" lon="12.8013517"><ele>394.0</ele><time>2026-04-04T15:25:18.685Z</time></trkpt><trkpt lat="43.6561117" lon="12.80115"><ele>394.0</ele><time>2026-04-04T15:25:19.69Z</time></trkpt><trkpt lat="43.6562317" lon="12.8009583"><ele>394.0</ele><time>2026-04-04T15:25:20.688Z</time></trkpt><trkpt lat="43.656355" lon="12.800785"><ele>396.6666666666667</ele><time>2026-04-04T15:25:21.686Z</time></trkpt><trkpt lat="43.6565683" lon="12.80047"><ele>399.33333333333337</ele><time>2026-04-04T15:25:23.69Z</time></trkpt><trkpt lat="43.6566567" lon="12.8003467"><ele>402.0</ele><time>2026-04-04T15:25:24.69Z</time></trkpt><trkpt lat="43.656735" lon="12.80023"><ele>404.0</ele><time>2026-04-04T15:25:25.689Z</time></trkpt><trkpt lat="43.6568033" lon="12.8000967"><ele>406.0</ele><time>2026-04-04T15:25:26.687Z</time></trkpt><trkpt lat="43.6568617" lon="12.7999583"><ele>408.0</ele><time>2026-04-04T15:25:27.687Z</time></trkpt><trkpt lat="43.6569217" lon="12.7998217"><ele>410.0</ele><time>2026-04-04T15:25:28.69Z</time></trkpt><trkpt lat="43.6569917" lon="12.7997183"><ele>410.5</ele><time>2026-04-04T15:25:29.688Z</time></trkpt><trkpt lat="43.65708" lon="12.7996367"><ele>411.0</ele><time>2026-04-04T15:25:30.688Z</time></trkpt><trkpt lat="43.6571833" lon="12.7995733"><ele>411.5</ele><time>2026-04-04T15:25:31.689Z</time></trkpt><trkpt lat="43.6573067" lon="12.7995233"><ele>412.0</ele><time>2026-04-04T15:25:32.687Z</time></trkpt><trkpt lat="43.6574383" lon="12.799495"><ele>412.0</ele><time>2026-04-04T15:25:33.686Z</time></trkpt><trkpt lat="43.6575633" lon="12.7994817"><ele>412.0</ele><time>2026-04-04T15:25:34.686Z</time></trkpt><trkpt lat="43.65767" lon="12.799465"><ele>412.0</ele><time>2026-04-04T15:25:35.686Z</time></trkpt><trkpt lat="43.657755" lon="12.7994283"><ele>412.0</ele><time>2026-04-04T15:25:36.688Z</time></trkpt><trkpt lat="43.6578267" lon="12.7993667"><ele>412.0</ele><time>2026-04-04T15:25:37.688Z</time></trkpt><trkpt lat="43.6578817" lon="12.7992767"><ele>414.25</ele><time>2026-04-04T15:25:38.685Z</time></trkpt><trkpt lat="43.6579367" lon="12.799175"><ele>416.5</ele><time>2026-04-04T15:25:39.686Z</time></trkpt><trkpt lat="43.658005" lon="12.799055"><ele>418.75</ele><time>2026-04-04T15:25:40.691Z</time></trkpt><trkpt lat="43.6580983" lon="12.7989383"><ele>421.0</ele><time>2026-04-04T15:25:41.685Z</time></trkpt><trkpt lat="43.65821" lon="12.7988367"><ele>421.0</ele><time>2026-04-04T15:25:42.688Z</time></trkpt><trkpt lat="43.6584917" lon="12.7987317"><ele>421.0</ele><time>2026-04-04T15:25:44.688Z</time></trkpt><trkpt lat="43.658635" lon="12.7987"><ele>421.0</ele><time>2026-04-04T15:25:45.686Z</time></trkpt><trkpt lat="43.6587717" lon="12.79866"><ele>420.75</ele><time>2026-04-04T15:25:46.687Z</time></trkpt><trkpt lat="43.6588933" lon="12.7986083"><ele>420.5</ele><time>2026-04-04T15:25:47.688Z</time></trkpt><trkpt lat="43.659005" lon="12.7985483"><ele>420.25</ele><time>2026-04-04T15:25:48.688Z</time></trkpt><trkpt lat="43.65911" lon="12.7984833"><ele>420.0</ele><time>2026-04-04T15:25:49.69Z</time></trkpt><trkpt lat="43.6592183" lon="12.7984067"><ele>420.25</ele><time>2026-04-04T15:25:50.688Z</time></trkpt><trkpt lat="43.65933" lon="12.7983217"><ele>420.5</ele><time>2026-04-04T15:25:51.688Z</time></trkpt><trkpt lat="43.65943" lon="12.7982267"><ele>420.75</ele><time>2026-04-04T15:25:52.688Z</time></trkpt><trkpt lat="43.65952" lon="12.7981167"><ele>421.0</ele><time>2026-04-04T15:25:53.687Z</time></trkpt><trkpt lat="43.65961" lon="12.79802"><ele>421.0</ele><time>2026-04-04T15:25:54.688Z</time></trkpt><trkpt lat="43.6597133" lon="12.79794"><ele>421.0</ele><time>2026-04-04T15:25:55.689Z</time></trkpt><trkpt lat="43.65983" lon="12.7978883"><ele>421.0</ele><time>2026-04-04T15:25:56.688Z</time></trkpt><trkpt lat="43.6599567" lon="12.797875"><ele>421.0</ele><time>2026-04-04T15:25:57.69Z</time></trkpt><trkpt lat="43.660085" lon="12.797905"><ele>421.0</ele><time>2026-04-04T15:25:58.688Z</time></trkpt><trkpt lat="43.660215" lon="12.7979767"><ele>421.0</ele><time>2026-04-04T15:25:59.688Z</time></trkpt><trkpt lat="43.6603433" lon="12.7980767"><ele>421.0</ele><time>2026-04-04T15:26:00.688Z</time></trkpt><trkpt lat="43.6604733" lon="12.7981967"><ele>421.0</ele><time>2026-04-04T15:26:01.688Z</time></trkpt><trkpt lat="43.660605" lon="12.7983233"><ele>421.0</ele><time>2026-04-04T15:26:02.688Z</time></trkpt><trkpt lat="43.6607367" lon="12.7984517"><ele>421.0</ele><time>2026-04-04T15:26:03.69Z</time></trkpt><trkpt lat="43.6609767" lon="12.79875"><ele>421.0</ele><time>2026-04-04T15:26:05.684Z</time></trkpt><trkpt lat="43.661085" lon="12.7989117"><ele>421.0</ele><time>2026-04-04T15:26:06.689Z</time></trkpt><trkpt lat="43.6612" lon="12.7990767"><ele>421.0</ele><time>2026-04-04T15:26:07.688Z</time></trkpt><trkpt lat="43.661315" lon="12.799245"><ele>425.6666666666667</ele><time>2026-04-04T15:26:08.687Z</time></trkpt><trkpt lat="43.66143" lon="12.7994083"><ele>430.33333333333337</ele><time>2026-04-04T15:26:09.688Z</time></trkpt><trkpt lat="43.6615417" lon="12.7995533"><ele>435.0</ele><time>2026-04-04T15:26:10.687Z</time></trkpt><trkpt lat="43.6616533" lon="12.7996817"><ele>435.0</ele><time>2026-04-04T15:26:11.688Z</time></trkpt><trkpt lat="43.6617633" lon="12.79979"><ele>435.0</ele><time>2026-04-04T15:26:12.686Z</time></trkpt><trkpt lat="43.6618817" lon="12.7998817"><ele>435.0</ele><time>2026-04-04T15:26:13.688Z</time></trkpt><trkpt lat="43.6620033" lon="12.7999667"><ele>435.0</ele><time>2026-04-04T15:26:14.686Z</time></trkpt><trkpt lat="43.6621233" lon="12.8000567"><ele>436.75</ele><time>2026-04-04T15:26:15.687Z</time></trkpt><trkpt lat="43.6622333" lon="12.8001383"><ele>438.5</ele><time>2026-04-04T15:26:16.688Z</time></trkpt><trkpt lat="43.66234" lon="12.8002083"><ele>440.25</ele><time>2026-04-04T15:26:17.688Z</time></trkpt><trkpt lat="43.66245" lon="12.8002667"><ele>442.0</ele><time>2026-04-04T15:26:18.689Z</time></trkpt><trkpt lat="43.66257" lon="12.80032"><ele>442.0</ele><time>2026-04-04T15:26:19.69Z</time></trkpt><trkpt lat="43.662705" lon="12.8003683"><ele>442.0</ele><time>2026-04-04T15:26:20.688Z</time></trkpt><trkpt lat="43.6628517" lon="12.8004117"><ele>442.0</ele><time>2026-04-04T15:26:21.689Z</time></trkpt><trkpt lat="43.6630017" lon="12.8004517"><ele>442.0</ele><time>2026-04-04T15:26:22.688Z</time></trkpt><trkpt lat="43.66316" lon="12.8004917"><ele>442.5</ele><time>2026-04-04T15:26:23.689Z</time></trkpt><trkpt lat="43.66332" lon="12.8005417"><ele>443.0</ele><time>2026-04-04T15:26:24.686Z</time></trkpt><trkpt lat="43.6636567" lon="12.8006467"><ele>442.3333333333333</ele><time>2026-04-04T15:26:26.689Z</time></trkpt><trkpt lat="43.6638283" lon="12.8007033"><ele>441.66666666666663</ele><time>2026-04-04T15:26:27.689Z</time></trkpt><trkpt lat="43.664" lon="12.80076"><ele>441.0</ele><time>2026-04-04T15:26:28.688Z</time></trkpt><trkpt lat="43.6641733" lon="12.8008117"><ele>441.0</ele><time>2026-04-04T15:26:29.685Z</time></trkpt><trkpt lat="43.6643383" lon="12.8008617"><ele>441.0</ele><time>2026-04-04T15:26:30.687Z</time></trkpt><trkpt lat="43.664495" lon="12.80091"><ele>441.0</ele><time>2026-04-04T15:26:31.69Z</time></trkpt><trkpt lat="43.6646417" lon="12.8009567"><ele>441.5</ele><time>2026-04-04T15:26:32.689Z</time></trkpt><trkpt lat="43.6647783" lon="12.8009967"><ele>442.0</ele><time>2026-04-04T15:26:33.69Z</time></trkpt><trkpt lat="43.6649083" lon="12.801035"><ele>442.5</ele><time>2026-04-04T15:26:34.688Z</time></trkpt><trkpt lat="43.6650333" lon="12.8010767"><ele>443.0</ele><time>2026-04-04T15:26:35.688Z</time></trkpt><trkpt lat="43.665155" lon="12.8011217"><ele>443.0</ele><time>2026-04-04T15:26:36.689Z</time></trkpt><trkpt lat="43.6652667" lon="12.8011733"><ele>442.99999999999994</ele><time>2026-04-04T15:26:37.691Z</time></trkpt><trkpt lat="43.6653633" lon="12.8012317"><ele>442.99999999999994</ele><time>2026-04-04T15:26:38.688Z</time></trkpt><trkpt lat="43.6654533" lon="12.8013067"><ele>443.0</ele><time>2026-04-04T15:26:39.689Z</time></trkpt><trkpt lat="43.6655267" lon="12.80141"><ele>443.0</ele><time>2026-04-04T15:26:40.688Z</time></trkpt><trkpt lat="43.6655833" lon="12.8015433"><ele>443.0</ele><time>2026-04-04T15:26:41.691Z</time></trkpt><trkpt lat="43.665635" lon="12.801705"><ele>443.0</ele><time>2026-04-04T15:26:42.687Z</time></trkpt><trkpt lat="43.665695" lon="12.8018733"><ele>443.0</ele><time>2026-04-04T15:26:43.688Z</time></trkpt><trkpt lat="43.6657667" lon="12.8020517"><ele>443.0</ele><time>2026-04-04T15:26:44.689Z</time></trkpt><trkpt lat="43.6658433" lon="12.80223"><ele>440.0</ele><time>2026-04-04T15:26:45.686Z</time></trkpt><trkpt lat="43.6659933" lon="12.80258"><ele>437.0</ele><time>2026-04-04T15:26:47.689Z</time></trkpt><trkpt lat="43.66608" lon="12.8027233"><ele>434.0</ele><time>2026-04-04T15:26:48.687Z</time></trkpt><trkpt lat="43.66617" lon="12.80285"><ele>433.75</ele><time>2026-04-04T15:26:49.691Z</time></trkpt><trkpt lat="43.6662667" lon="12.8029683"><ele>433.5</ele><time>2026-04-04T15:26:50.688Z</time></trkpt><trkpt lat="43.666375" lon="12.8030767"><ele>433.25</ele><time>2026-04-04T15:26:51.687Z</time></trkpt><trkpt lat="43.6664967" lon="12.8031667"><ele>433.0</ele><time>2026-04-04T15:26:52.688Z</time></trkpt><trkpt lat="43.66663" lon="12.8032333"><ele>433.0</ele><time>2026-04-04T15:26:53.689Z</time></trkpt><trkpt lat="43.666775" lon="12.8032883"><ele>433.0</ele><time>2026-04-04T15:26:54.688Z</time></trkpt><trkpt lat="43.6669217" lon="12.8033433"><ele>433.0</ele><time>2026-04-04T15:26:55.69Z</time></trkpt><trkpt lat="43.6670617" lon="12.8033917"><ele>433.0</ele><time>2026-04-04T15:26:56.688Z</time></trkpt><trkpt lat="43.6672067" lon="12.8034417"><ele>433.33333333333337</ele><time>2026-04-04T15:26:57.687Z</time></trkpt><trkpt lat="43.6673583" lon="12.803495"><ele>433.66666666666663</ele><time>2026-04-04T15:26:58.688Z</time></trkpt><trkpt lat="43.66751" lon="12.8035583"><ele>434.0</ele><time>2026-04-04T15:26:59.688Z</time></trkpt><trkpt lat="43.6676567" lon="12.80363"><ele>431.3333333333333</ele><time>2026-04-04T15:27:00.689Z</time></trkpt><trkpt lat="43.6678067" lon="12.8037067"><ele>428.66666666666663</ele><time>2026-04-04T15:27:01.692Z</time></trkpt><trkpt lat="43.6679583" lon="12.803765"><ele>426.0</ele><time>2026-04-04T15:27:02.685Z</time></trkpt><trkpt lat="43.6681083" lon="12.8038033"><ele>426.0</ele><time>2026-04-04T15:27:03.686Z</time></trkpt><trkpt lat="43.6682533" lon="12.80382"><ele>426.0</ele><time>2026-04-04T15:27:04.689Z</time></trkpt><trkpt lat="43.6683933" lon="12.8038233"><ele>426.0</ele><time>2026-04-04T15:27:05.687Z</time></trkpt><trkpt lat="43.66853" lon="12.80383"><ele>426.0</ele><time>2026-04-04T15:27:06.687Z</time></trkpt><trkpt lat="43.6687833" lon="12.8039083"><ele>423.0</ele><time>2026-04-04T15:27:08.688Z</time></trkpt><trkpt lat="43.6689067" lon="12.80398"><ele>420.0</ele><time>2026-04-04T15:27:09.688Z</time></trkpt><trkpt lat="43.6690333" lon="12.8040683"><ele>417.0</ele><time>2026-04-04T15:27:10.688Z</time></trkpt><trkpt lat="43.6691583" lon="12.804165"><ele>414.0</ele><time>2026-04-04T15:27:11.688Z</time></trkpt><trkpt lat="43.6692833" lon="12.8042633"><ele>412.25</ele><time>2026-04-04T15:27:12.687Z</time></trkpt><trkpt lat="43.6694117" lon="12.8043617"><ele>410.5</ele><time>2026-04-04T15:27:13.689Z</time></trkpt><trkpt lat="43.6695383" lon="12.8044633"><ele>408.75</ele><time>2026-04-04T15:27:14.689Z</time></trkpt><trkpt lat="43.6696683" lon="12.80456"><ele>407.0</ele><time>2026-04-04T15:27:15.686Z</time></trkpt><trkpt lat="43.6698117" lon="12.8046417"><ele>407.0</ele><time>2026-04-04T15:27:16.689Z</time></trkpt><trkpt lat="43.6699617" lon="12.8047183"><ele>407.0</ele><time>2026-04-04T15:27:17.685Z</time></trkpt><trkpt lat="43.6701233" lon="12.8047867"><ele>407.0</ele><time>2026-04-04T15:27:18.687Z</time></trkpt><trkpt lat="43.6702883" lon="12.8048517"><ele>403.66666666666663</ele><time>2026-04-04T15:27:19.687Z</time></trkpt><trkpt lat="43.6704533" lon="12.8049167"><ele>400.33333333333337</ele><time>2026-04-04T15:27:20.687Z</time></trkpt><trkpt lat="43.670615" lon="12.8049833"><ele>397.0</ele><time>2026-04-04T15:27:21.687Z</time></trkpt><trkpt lat="43.67078" lon="12.8050583"><ele>397.0</ele><time>2026-04-04T15:27:22.687Z</time></trkpt><trkpt lat="43.6709433" lon="12.8051267"><ele>397.0</ele><time>2026-04-04T15:27:23.687Z</time></trkpt><trkpt lat="43.6711067" lon="12.8051733"><ele>397.0</ele><time>2026-04-04T15:27:24.686Z</time></trkpt><trkpt lat="43.6712783" lon="12.8051917"><ele>397.33333333333337</ele><time>2026-04-04T15:27:25.688Z</time></trkpt><trkpt lat="43.6714517" lon="12.8052"><ele>397.66666666666663</ele><time>2026-04-04T15:27:26.688Z</time></trkpt><trkpt lat="43.6716183" lon="12.8052033"><ele>398.0</ele><time>2026-04-04T15:27:27.686Z</time></trkpt><trkpt lat="43.671945" lon="12.80523"><ele>388.3333333333333</ele><time>2026-04-04T15:27:29.688Z</time></trkpt><trkpt lat="43.6721017" lon="12.8052667"><ele>378.66666666666663</ele><time>2026-04-04T15:27:30.686Z</time></trkpt><trkpt lat="43.6722567" lon="12.80531"><ele>369.0</ele><time>2026-04-04T15:27:31.689Z</time></trkpt><trkpt lat="43.6724017" lon="12.8053567"><ele>369.0</ele><time>2026-04-04T15:27:32.687Z</time></trkpt><trkpt lat="43.672525" lon="12.80539"><ele>369.0</ele><time>2026-04-04T15:27:33.688Z</time></trkpt><trkpt lat="43.6726233" lon="12.8054333"><ele>369.0</ele><time>2026-04-04T15:27:34.688Z</time></trkpt><trkpt lat="43.67272" lon="12.8055"><ele>369.0</ele><time>2026-04-04T15:27:35.687Z</time></trkpt><trkpt lat="43.6728133" lon="12.805595"><ele>361.5</ele><time>2026-04-04T15:27:36.688Z</time></trkpt><trkpt lat="43.672905" lon="12.80572"><ele>354.0</ele><time>2026-04-04T15:27:37.688Z</time></trkpt><trkpt lat="43.672995" lon="12.8058567"><ele>346.5</ele><time>2026-04-04T15:27:38.69Z</time></trkpt><trkpt lat="43.6730917" lon="12.8059983"><ele>339.0</ele><time>2026-04-04T15:27:39.687Z</time></trkpt><trkpt lat="43.6732" lon="12.80614"><ele>339.0</ele><time>2026-04-04T15:27:40.687Z</time></trkpt><trkpt lat="43.6733083" lon="12.8062817"><ele>339.0</ele><time>2026-04-04T15:27:41.69Z</time></trkpt><trkpt lat="43.6734217" lon="12.8064133"><ele>339.0</ele><time>2026-04-04T15:27:42.687Z</time></trkpt><trkpt lat="43.6735333" lon="12.8065233"><ele>339.0</ele><time>2026-04-04T15:27:43.688Z</time></trkpt><trkpt lat="43.6736367" lon="12.8066117"><ele>333.4</ele><time>2026-04-04T15:27:44.69Z</time></trkpt><trkpt lat="43.673735" lon="12.8066717"><ele>327.79999999999995</ele><time>2026-04-04T15:27:45.688Z</time></trkpt><trkpt lat="43.6738367" lon="12.8067083"><ele>322.20000000000005</ele><time>2026-04-04T15:27:46.688Z</time></trkpt><trkpt lat="43.673935" lon="12.8067283"><ele>316.6</ele><time>2026-04-04T15:27:47.689Z</time></trkpt><trkpt lat="43.6740517" lon="12.806725"><ele>311.0</ele><time>2026-04-04T15:27:48.688Z</time></trkpt><trkpt lat="43.67428" lon="12.8067617"><ele>313.0</ele><time>2026-04-04T15:27:50.687Z</time></trkpt><trkpt lat="43.6743967" lon="12.80683"><ele>315.0</ele><time>2026-04-04T15:27:51.686Z</time></trkpt><trkpt lat="43.6745117" lon="12.8068883"><ele>317.0</ele><time>2026-04-04T15:27:52.689Z</time></trkpt><trkpt lat="43.674615" lon="12.8069117"><ele>319.0</ele><time>2026-04-04T15:27:53.688Z</time></trkpt><trkpt lat="43.674705" lon="12.8069017"><ele>321.0</ele><time>2026-04-04T15:27:54.688Z</time></trkpt><trkpt lat="43.674785" lon="12.8068417"><ele>316.75</ele><time>2026-04-04T15:27:55.688Z</time></trkpt><trkpt lat="43.674855" lon="12.80673"><ele>312.5</ele><time>2026-04-04T15:27:56.685Z</time></trkpt><trkpt lat="43.6749333" lon="12.8066"><ele>308.25</ele><time>2026-04-04T15:27:57.686Z</time></trkpt><trkpt lat="43.6750167" lon="12.8064683"><ele>304.0</ele><time>2026-04-04T15:27:58.687Z</time></trkpt><trkpt lat="43.6751133" lon="12.80636"><ele>304.0</ele><time>2026-04-04T15:27:59.686Z</time></trkpt><trkpt lat="43.6752167" lon="12.806275"><ele>304.0</ele><time>2026-04-04T15:28:00.688Z</time></trkpt><trkpt lat="43.6753267" lon="12.8062283"><ele>304.0</ele><time>2026-04-04T15:28:01.69Z</time></trkpt><trkpt lat="43.6754417" lon="12.8062067"><ele>304.0</ele><time>2026-04-04T15:28:02.688Z</time></trkpt><trkpt lat="43.6755617" lon="12.80621"><ele>303.75</ele><time>2026-04-04T15:28:03.689Z</time></trkpt><trkpt lat="43.6756817" lon="12.806195"><ele>303.5</ele><time>2026-04-04T15:28:04.688Z</time></trkpt><trkpt lat="43.6758" lon="12.80617"><ele>303.25</ele><time>2026-04-04T15:28:05.688Z</time></trkpt><trkpt lat="43.67592" lon="12.8061283"><ele>303.0</ele><time>2026-04-04T15:28:06.687Z</time></trkpt><trkpt lat="43.6760267" lon="12.8060767"><ele>301.4</ele><time>2026-04-04T15:28:07.69Z</time></trkpt><trkpt lat="43.676125" lon="12.8060133"><ele>299.8</ele><time>2026-04-04T15:28:08.691Z</time></trkpt><trkpt lat="43.6761983" lon="12.80593"><ele>298.2</ele><time>2026-04-04T15:28:09.688Z</time></trkpt><trkpt lat="43.6762917" lon="12.8057667"><ele>296.6</ele><time>2026-04-04T15:28:11.688Z</time></trkpt><trkpt lat="43.6763533" lon="12.8056717"><ele>295.0</ele><time>2026-04-04T15:28:13.693Z</time></trkpt><trkpt lat="43.6763933" lon="12.8057833"><ele>295.00000000000006</ele><time>2026-04-04T15:28:16.688Z</time></trkpt><trkpt lat="43.676415" lon="12.8058667"><ele>295.0</ele><time>2026-04-04T15:28:17.685Z</time></trkpt><trkpt lat="43.676445" lon="12.8059567"><ele>295.0</ele><time>2026-04-04T15:28:18.69Z</time></trkpt><trkpt lat="43.67649" lon="12.8060233"><ele>295.0</ele><time>2026-04-04T15:28:19.689Z</time></trkpt><trkpt lat="43.676545" lon="12.80607"><ele>295.0</ele><time>2026-04-04T15:28:20.685Z</time></trkpt><trkpt lat="43.67661" lon="12.806095"><ele>295.00000000000006</ele><time>2026-04-04T15:28:21.685Z</time></trkpt><trkpt lat="43.67668" lon="12.8061033"><ele>295.0</ele><time>2026-04-04T15:28:22.687Z</time></trkpt><trkpt lat="43.6767583" lon="12.8061117"><ele>295.0</ele><time>2026-04-04T15:28:23.688Z</time></trkpt><trkpt lat="43.6768383" lon="12.8061133"><ele>295.0</ele><time>2026-04-04T15:28:24.688Z</time></trkpt><trkpt lat="43.676915" lon="12.8061217"><ele>295.0</ele><time>2026-04-04T15:28:25.688Z</time></trkpt><trkpt lat="43.6769933" lon="12.8061217"><ele>295.0</ele><time>2026-04-04T15:28:26.691Z</time></trkpt><trkpt lat="43.6770783" lon="12.8061217"><ele>295.0</ele><time>2026-04-04T15:28:27.686Z</time></trkpt><trkpt lat="43.6771733" lon="12.80611"><ele>295.0</ele><time>2026-04-04T15:28:28.688Z</time></trkpt><trkpt lat="43.6772783" lon="12.806095"><ele>295.66666666666663</ele><time>2026-04-04T15:28:29.688Z</time></trkpt><trkpt lat="43.6773933" lon="12.8060767"><ele>296.3333333333333</ele><time>2026-04-04T15:28:30.69Z</time></trkpt><trkpt lat="43.67763" lon="12.8060583"><ele>297.0</ele><time>2026-04-04T15:28:32.688Z</time></trkpt><trkpt lat="43.677745" lon="12.80604"><ele>296.2</ele><time>2026-04-04T15:28:33.688Z</time></trkpt><trkpt lat="43.6778517" lon="12.8060217"><ele>295.4</ele><time>2026-04-04T15:28:34.688Z</time></trkpt><trkpt lat="43.677955" lon="12.8059883"><ele>294.6</ele><time>2026-04-04T15:28:35.689Z</time></trkpt><trkpt lat="43.678055" lon="12.8059567"><ele>293.8</ele><time>2026-04-04T15:28:36.688Z</time></trkpt><trkpt lat="43.6781483" lon="12.8059417"><ele>293.0</ele><time>2026-04-04T15:28:37.689Z</time></trkpt><trkpt lat="43.6782217" lon="12.80595"><ele>293.0</ele><time>2026-04-04T15:28:38.688Z</time></trkpt><trkpt lat="43.6782817" lon="12.80598"><ele>293.0</ele><time>2026-04-04T15:28:39.686Z</time></trkpt><trkpt lat="43.67836" lon="12.8060933"><ele>293.0</ele><time>2026-04-04T15:28:41.687Z</time></trkpt><trkpt lat="43.6784583" lon="12.806175"><ele>293.0</ele><time>2026-04-04T15:28:43.687Z</time></trkpt><trkpt lat="43.678525" lon="12.8061983"><ele>293.0</ele><time>2026-04-04T15:28:44.689Z</time></trkpt><trkpt lat="43.678605" lon="12.8061933"><ele>293.0</ele><time>2026-04-04T15:28:45.688Z</time></trkpt><trkpt lat="43.6786867" lon="12.8061817"><ele>293.25</ele><time>2026-04-04T15:28:46.685Z</time></trkpt><trkpt lat="43.6787867" lon="12.8060933"><ele>293.5</ele><time>2026-04-04T15:28:47.687Z</time></trkpt><trkpt lat="43.678905" lon="12.8059967"><ele>293.75</ele><time>2026-04-04T15:28:48.686Z</time></trkpt><trkpt lat="43.6790133" lon="12.8059533"><ele>294.0</ele><time>2026-04-04T15:28:49.688Z</time></trkpt><trkpt lat="43.6791217" lon="12.8059233"><ele>288.5</ele><time>2026-04-04T15:28:50.686Z</time></trkpt><trkpt lat="43.679225" lon="12.80589"><ele>283.0</ele><time>2026-04-04T15:28:51.687Z</time></trkpt><trkpt lat="43.6793983" lon="12.8058033"><ele>277.5</ele><time>2026-04-04T15:28:53.689Z</time></trkpt><trkpt lat="43.6794767" lon="12.8057183"><ele>272.0</ele><time>2026-04-04T15:28:54.687Z</time></trkpt><trkpt lat="43.679555" lon="12.80562"><ele>272.0</ele><time>2026-04-04T15:28:55.688Z</time></trkpt><trkpt lat="43.6796333" lon="12.8055167"><ele>272.0</ele><time>2026-04-04T15:28:56.688Z</time></trkpt><trkpt lat="43.6797033" lon="12.8054233"><ele>272.0</ele><time>2026-04-04T15:28:57.687Z</time></trkpt><trkpt lat="43.67977" lon="12.8053417"><ele>272.0</ele><time>2026-04-04T15:28:58.687Z</time></trkpt><trkpt lat="43.67983" lon="12.8052717"><ele>272.0</ele><time>2026-04-04T15:28:59.688Z</time></trkpt><trkpt lat="43.67989" lon="12.8052133"><ele>272.0</ele><time>2026-04-04T15:29:00.688Z</time></trkpt><trkpt lat="43.67995" lon="12.8051633"><ele>267.33333333333337</ele><time>2026-04-04T15:29:01.69Z</time></trkpt><trkpt lat="43.6800183" lon="12.8051233"><ele>262.6666666666667</ele><time>2026-04-04T15:29:02.688Z</time></trkpt><trkpt lat="43.680085" lon="12.8050917"><ele>258.0</ele><time>2026-04-04T15:29:03.687Z</time></trkpt><trkpt lat="43.6801917" lon="12.80506"><ele>253.33333333333331</ele><time>2026-04-04T15:29:05.691Z</time></trkpt><trkpt lat="43.680255" lon="12.805"><ele>248.66666666666666</ele><time>2026-04-04T15:29:07.688Z</time></trkpt><trkpt lat="43.6802883" lon="12.804895"><ele>244.0</ele><time>2026-04-04T15:29:09.687Z</time></trkpt><trkpt lat="43.6803017" lon="12.8047917"><ele>244.0</ele><time>2026-04-04T15:29:12.689Z</time></trkpt><trkpt lat="43.6802017" lon="12.80502"><ele>244.0</ele><time>2026-04-04T15:29:20.686Z</time></trkpt><trkpt lat="43.6801267" lon="12.8050733"><ele>244.0</ele><time>2026-04-04T15:29:21.686Z</time></trkpt><trkpt lat="43.6800433" lon="12.8051183"><ele>244.0</ele><time>2026-04-04T15:29:22.687Z</time></trkpt><trkpt lat="43.6799667" lon="12.8051667"><ele>247.99999999999997</ele><time>2026-04-04T15:29:23.689Z</time></trkpt><trkpt lat="43.6799033" lon="12.805215"><ele>252.0</ele><time>2026-04-04T15:29:24.687Z</time></trkpt><trkpt lat="43.6798433" lon="12.805275"><ele>255.99999999999997</ele><time>2026-04-04T15:29:25.689Z</time></trkpt><trkpt lat="43.6797883" lon="12.8053467"><ele>260.0</ele><time>2026-04-04T15:29:26.688Z</time></trkpt><trkpt lat="43.679735" lon="12.8054167"><ele>264.0</ele><time>2026-04-04T15:29:27.685Z</time></trkpt><trkpt lat="43.6796833" lon="12.8054783"><ele>267.99999999999994</ele><time>2026-04-04T15:29:28.689Z</time></trkpt><trkpt lat="43.6796317" lon="12.8055417"><ele>272.0</ele><time>2026-04-04T15:29:29.685Z</time></trkpt><trkpt lat="43.67958" lon="12.8056083"><ele>272.0</ele><time>2026-04-04T15:29:30.688Z</time></trkpt><trkpt lat="43.6795283" lon="12.805685"><ele>272.0</ele><time>2026-04-04T15:29:31.688Z</time></trkpt><trkpt lat="43.6794683" lon="12.8057683"><ele>272.0</ele><time>2026-04-04T15:29:32.687Z</time></trkpt><trkpt lat="43.679405" lon="12.80585"><ele>272.0</ele><time>2026-04-04T15:29:33.686Z</time></trkpt><trkpt lat="43.6792583" lon="12.805945"><ele>272.0</ele><time>2026-04-04T15:29:35.687Z</time></trkpt><trkpt lat="43.6791717" lon="12.8059483"><ele>271.1666666666667</ele><time>2026-04-04T15:29:36.686Z</time></trkpt><trkpt lat="43.6790867" lon="12.8059533"><ele>270.33333333333337</ele><time>2026-04-04T15:29:37.688Z</time></trkpt><trkpt lat="43.6790067" lon="12.805965"><ele>269.5</ele><time>2026-04-04T15:29:38.688Z</time></trkpt><trkpt lat="43.6789317" lon="12.8059833"><ele>268.6666666666667</ele><time>2026-04-04T15:29:39.687Z</time></trkpt><trkpt lat="43.678865" lon="12.80601"><ele>267.8333333333333</ele><time>2026-04-04T15:29:40.688Z</time></trkpt><trkpt lat="43.6787983" lon="12.8060533"><ele>267.0</ele><time>2026-04-04T15:29:41.687Z</time></trkpt><trkpt lat="43.678725" lon="12.8061"><ele>271.3333333333333</ele><time>2026-04-04T15:29:42.688Z</time></trkpt><trkpt lat="43.6786533" lon="12.8061567"><ele>275.6666666666667</ele><time>2026-04-04T15:29:43.688Z</time></trkpt><trkpt lat="43.6785917" lon="12.8062067"><ele>280.0</ele><time>2026-04-04T15:29:44.688Z</time></trkpt><trkpt lat="43.6785283" lon="12.80623"><ele>284.33333333333337</ele><time>2026-04-04T15:29:45.685Z</time></trkpt><trkpt lat="43.67846" lon="12.8062167"><ele>288.6666666666667</ele><time>2026-04-04T15:29:46.687Z</time></trkpt><trkpt lat="43.6783533" lon="12.8061917"><ele>293.0</ele><time>2026-04-04T15:29:48.687Z</time></trkpt><trkpt lat="43.6782667" lon="12.80626"><ele>293.0</ele><time>2026-04-04T15:29:50.688Z</time></trkpt><trkpt lat="43.678265" lon="12.80641"><ele>293.0</ele><time>2026-04-04T15:29:52.688Z</time></trkpt><trkpt lat="43.6783167" lon="12.80648"><ele>293.0</ele><time>2026-04-04T15:29:53.69Z</time></trkpt><trkpt lat="43.6783817" lon="12.8065017"><ele>293.0</ele><time>2026-04-04T15:29:54.688Z</time></trkpt><trkpt lat="43.678635" lon="12.806535"><ele>293.2</ele><time>2026-04-04T15:29:57.686Z</time></trkpt><trkpt lat="43.6787433" lon="12.806555"><ele>293.4</ele><time>2026-04-04T15:29:58.686Z</time></trkpt><trkpt lat="43.6788517" lon="12.8065633"><ele>293.59999999999997</ele><time>2026-04-04T15:29:59.687Z</time></trkpt><trkpt lat="43.6789417" lon="12.8065917"><ele>293.8</ele><time>2026-04-04T15:30:00.687Z</time></trkpt><trkpt lat="43.6790267" lon="12.8066167"><ele>294.0</ele><time>2026-04-04T15:30:01.687Z</time></trkpt><trkpt lat="43.6791083" lon="12.806645"><ele>294.0</ele><time>2026-04-04T15:30:02.69Z</time></trkpt><trkpt lat="43.67918" lon="12.8066883"><ele>294.0</ele><time>2026-04-04T15:30:03.688Z</time></trkpt><trkpt lat="43.6792583" lon="12.8067533"><ele>294.0</ele><time>2026-04-04T15:30:04.688Z</time></trkpt><trkpt lat="43.679335" lon="12.80683"><ele>294.0</ele><time>2026-04-04T15:30:05.688Z</time></trkpt><trkpt lat="43.6794133" lon="12.806895"><ele>294.0</ele><time>2026-04-04T15:30:06.688Z</time></trkpt><trkpt lat="43.679495" lon="12.8069633"><ele>297.8</ele><time>2026-04-04T15:30:07.688Z</time></trkpt><trkpt lat="43.6795833" lon="12.807015"><ele>301.59999999999997</ele><time>2026-04-04T15:30:08.686Z</time></trkpt><trkpt lat="43.6796717" lon="12.8070633"><ele>305.4</ele><time>2026-04-04T15:30:09.687Z</time></trkpt><trkpt lat="43.67976" lon="12.8071117"><ele>309.2</ele><time>2026-04-04T15:30:10.685Z</time></trkpt><trkpt lat="43.6798483" lon="12.8071517"><ele>313.0</ele><time>2026-04-04T15:30:11.687Z</time></trkpt><trkpt lat="43.6799217" lon="12.8071817"><ele>313.0</ele><time>2026-04-04T15:30:12.692Z</time></trkpt><trkpt lat="43.6799867" lon="12.8072083"><ele>313.0</ele><time>2026-04-04T15:30:13.691Z</time></trkpt><trkpt lat="43.6800683" lon="12.8072883"><ele>313.0</ele><time>2026-04-04T15:30:15.687Z</time></trkpt><trkpt lat="43.6799683" lon="12.80747"><ele>313.0</ele><time>2026-04-04T15:30:19.688Z</time></trkpt><trkpt lat="43.6798033" lon="12.8074417"><ele>313.0</ele><time>2026-04-04T15:30:20.688Z</time></trkpt><trkpt lat="43.6797133" lon="12.8074817"><ele>313.0</ele><time>2026-04-04T15:30:21.687Z</time></trkpt><trkpt lat="43.6796033" lon="12.8075"><ele>313.0</ele><time>2026-04-04T15:30:22.687Z</time></trkpt><trkpt lat="43.6794917" lon="12.8075117"><ele>313.0</ele><time>2026-04-04T15:30:23.688Z</time></trkpt><trkpt lat="43.6793383" lon="12.8074817"><ele>314.2</ele><time>2026-04-04T15:30:24.689Z</time></trkpt><trkpt lat="43.67921" lon="12.8074683"><ele>315.4</ele><time>2026-04-04T15:30:25.688Z</time></trkpt><trkpt lat="43.67913" lon="12.80747"><ele>316.59999999999997</ele><time>2026-04-04T15:30:26.688Z</time></trkpt><trkpt lat="43.679035" lon="12.8074683"><ele>317.8</ele><time>2026-04-04T15:30:27.689Z</time></trkpt><trkpt lat="43.6789433" lon="12.8074833"><ele>319.0</ele><time>2026-04-04T15:30:28.686Z</time></trkpt><trkpt lat="43.6788633" lon="12.80752"><ele>319.0</ele><time>2026-04-04T15:30:29.688Z</time></trkpt><trkpt lat="43.6788283" lon="12.8076017"><ele>319.0</ele><time>2026-04-04T15:30:30.687Z</time></trkpt><trkpt lat="43.6788317" lon="12.8077167"><ele>319.0</ele><time>2026-04-04T15:30:31.688Z</time></trkpt><trkpt lat="43.6788517" lon="12.8078383"><ele>319.0</ele><time>2026-04-04T15:30:32.689Z</time></trkpt><trkpt lat="43.6788583" lon="12.8079533"><ele>319.0</ele><time>2026-04-04T15:30:33.688Z</time></trkpt><trkpt lat="43.6788467" lon="12.8080817"><ele>319.0</ele><time>2026-04-04T15:30:34.688Z</time></trkpt><trkpt lat="43.6788367" lon="12.80822"><ele>321.25</ele><time>2026-04-04T15:30:35.687Z</time></trkpt><trkpt lat="43.6788317" lon="12.80837"><ele>323.5</ele><time>2026-04-04T15:30:36.688Z</time></trkpt><trkpt lat="43.6788317" lon="12.808675"><ele>325.75</ele><time>2026-04-04T15:30:38.688Z</time></trkpt><trkpt lat="43.67886" lon="12.80883"><ele>328.0</ele><time>2026-04-04T15:30:39.686Z</time></trkpt><trkpt lat="43.678915" lon="12.8090017"><ele>328.0</ele><time>2026-04-04T15:30:40.689Z</time></trkpt><trkpt lat="43.67897" lon="12.8091517"><ele>328.0</ele><time>2026-04-04T15:30:41.69Z</time></trkpt><trkpt lat="43.679025" lon="12.80929"><ele>328.0</ele><time>2026-04-04T15:30:42.688Z</time></trkpt><trkpt lat="43.67907" lon="12.8094217"><ele>328.0</ele><time>2026-04-04T15:30:43.691Z</time></trkpt><trkpt lat="43.679095" lon="12.8095617"><ele>328.0</ele><time>2026-04-04T15:30:44.686Z</time></trkpt><trkpt lat="43.6790917" lon="12.8097083"><ele>328.0</ele><time>2026-04-04T15:30:45.689Z</time></trkpt><trkpt lat="43.6790583" lon="12.8098367"><ele>328.0</ele><time>2026-04-04T15:30:46.687Z</time></trkpt><trkpt lat="43.6790033" lon="12.809945"><ele>328.0</ele><time>2026-04-04T15:30:47.688Z</time></trkpt><trkpt lat="43.6789283" lon="12.81005"><ele>328.0</ele><time>2026-04-04T15:30:48.686Z</time></trkpt><trkpt lat="43.6788383" lon="12.8101417"><ele>328.0</ele><time>2026-04-04T15:30:49.687Z</time></trkpt><trkpt lat="43.6787317" lon="12.8102283"><ele>326.75</ele><time>2026-04-04T15:30:50.688Z</time></trkpt><trkpt lat="43.678615" lon="12.8103133"><ele>325.5</ele><time>2026-04-04T15:30:51.688Z</time></trkpt><trkpt lat="43.6784983" lon="12.8103967"><ele>324.25</ele><time>2026-04-04T15:30:52.687Z</time></trkpt><trkpt lat="43.678385" lon="12.8104717"><ele>323.0</ele><time>2026-04-04T15:30:53.687Z</time></trkpt><trkpt lat="43.6782733" lon="12.810545"><ele>323.25</ele><time>2026-04-04T15:30:54.688Z</time></trkpt><trkpt lat="43.678165" lon="12.8106167"><ele>323.5</ele><time>2026-04-04T15:30:55.689Z</time></trkpt><trkpt lat="43.678055" lon="12.8106933"><ele>323.75</ele><time>2026-04-04T15:30:56.688Z</time></trkpt><trkpt lat="43.6779417" lon="12.8107717"><ele>324.0</ele><time>2026-04-04T15:30:57.686Z</time></trkpt><trkpt lat="43.6777267" lon="12.8109217"><ele>322.25</ele><time>2026-04-04T15:30:59.688Z</time></trkpt><trkpt lat="43.6776267" lon="12.810995"><ele>320.5</ele><time>2026-04-04T15:31:00.687Z</time></trkpt><trkpt lat="43.6775283" lon="12.811075"><ele>318.75</ele><time>2026-04-04T15:31:01.688Z</time></trkpt><trkpt lat="43.677435" lon="12.8111617"><ele>317.0</ele><time>2026-04-04T15:31:02.687Z</time></trkpt><trkpt lat="43.67735" lon="12.81126"><ele>317.0</ele><time>2026-04-04T15:31:03.687Z</time></trkpt><trkpt lat="43.677275" lon="12.8113733"><ele>317.0</ele><time>2026-04-04T15:31:04.688Z</time></trkpt><trkpt lat="43.677215" lon="12.8115067"><ele>317.0</ele><time>2026-04-04T15:31:05.688Z</time></trkpt><trkpt lat="43.6771733" lon="12.81165"><ele>317.0</ele><time>2026-04-04T15:31:06.688Z</time></trkpt><trkpt lat="43.677145" lon="12.8118"><ele>317.0</ele><time>2026-04-04T15:31:07.69Z</time></trkpt><trkpt lat="43.67714" lon="12.8119683"><ele>317.5</ele><time>2026-04-04T15:31:08.688Z</time></trkpt><trkpt lat="43.6771533" lon="12.81214"><ele>318.0</ele><time>2026-04-04T15:31:09.688Z</time></trkpt><trkpt lat="43.6771833" lon="12.8123083"><ele>318.5</ele><time>2026-04-04T15:31:10.688Z</time></trkpt><trkpt lat="43.67722" lon="12.8124867"><ele>319.0</ele><time>2026-04-04T15:31:11.688Z</time></trkpt><trkpt lat="43.67727" lon="12.8126667"><ele>320.3333333333333</ele><time>2026-04-04T15:31:12.687Z</time></trkpt><trkpt lat="43.67733" lon="12.8128483"><ele>321.6666666666667</ele><time>2026-04-04T15:31:13.688Z</time></trkpt><trkpt lat="43.6774017" lon="12.8130283"><ele>323.0</ele><time>2026-04-04T15:31:14.69Z</time></trkpt><trkpt lat="43.6774867" lon="12.8132117"><ele>323.0</ele><time>2026-04-04T15:31:15.684Z</time></trkpt><trkpt lat="43.6775817" lon="12.8134"><ele>323.0</ele><time>2026-04-04T15:31:16.688Z</time></trkpt><trkpt lat="43.677685" lon="12.81358"><ele>323.0</ele><time>2026-04-04T15:31:17.688Z</time></trkpt><trkpt lat="43.67779" lon="12.8137483"><ele>313.5</ele><time>2026-04-04T15:31:18.686Z</time></trkpt><trkpt lat="43.6779867" lon="12.8141033"><ele>304.0</ele><time>2026-04-04T15:31:20.688Z</time></trkpt><trkpt lat="43.6780717" lon="12.8143017"><ele>305.66666666666663</ele><time>2026-04-04T15:31:21.688Z</time></trkpt><trkpt lat="43.67815" lon="12.814505"><ele>307.3333333333333</ele><time>2026-04-04T15:31:22.687Z</time></trkpt><trkpt lat="43.67822" lon="12.814705"><ele>309.0</ele><time>2026-04-04T15:31:23.688Z</time></trkpt><trkpt lat="43.6782883" lon="12.814905"><ele>309.0</ele><time>2026-04-04T15:31:24.689Z</time></trkpt><trkpt lat="43.67836" lon="12.8151067"><ele>309.0</ele><time>2026-04-04T15:31:25.689Z</time></trkpt><trkpt lat="43.678435" lon="12.8153133"><ele>309.0</ele><time>2026-04-04T15:31:26.687Z</time></trkpt><trkpt lat="43.6785067" lon="12.815525"><ele>307.0</ele><time>2026-04-04T15:31:27.687Z</time></trkpt><trkpt lat="43.6785867" lon="12.8157383"><ele>305.0</ele><time>2026-04-04T15:31:28.687Z</time></trkpt><trkpt lat="43.6786733" lon="12.8159483"><ele>303.0</ele><time>2026-04-04T15:31:29.69Z</time></trkpt><trkpt lat="43.678765" lon="12.8161467"><ele>303.0</ele><time>2026-04-04T15:31:30.688Z</time></trkpt><trkpt lat="43.678865" lon="12.8163333"><ele>303.0</ele><time>2026-04-04T15:31:31.687Z</time></trkpt><trkpt lat="43.6789767" lon="12.8165083"><ele>303.0</ele><time>2026-04-04T15:31:32.687Z</time></trkpt><trkpt lat="43.6791" lon="12.8166783"><ele>299.0</ele><time>2026-04-04T15:31:33.686Z</time></trkpt><trkpt lat="43.6792317" lon="12.8168367"><ele>295.0</ele><time>2026-04-04T15:31:34.687Z</time></trkpt><trkpt lat="43.6793667" lon="12.8169933"><ele>291.0</ele><time>2026-04-04T15:31:35.688Z</time></trkpt><trkpt lat="43.679505" lon="12.817145"><ele>291.0</ele><time>2026-04-04T15:31:36.688Z</time></trkpt><trkpt lat="43.67965" lon="12.8172967"><ele>291.0</ele><time>2026-04-04T15:31:37.688Z</time></trkpt><trkpt lat="43.6797933" lon="12.8174617"><ele>291.0</ele><time>2026-04-04T15:31:38.687Z</time></trkpt><trkpt lat="43.6799383" lon="12.81763"><ele>286.0</ele><time>2026-04-04T15:31:39.687Z</time></trkpt><trkpt lat="43.6802367" lon="12.8179683"><ele>281.0</ele><time>2026-04-04T15:31:41.686Z</time></trkpt><trkpt lat="43.68039" lon="12.8181383"><ele>281.0</ele><time>2026-04-04T15:31:42.687Z</time></trkpt><trkpt lat="43.6805483" lon="12.8183067"><ele>281.0</ele><time>2026-04-04T15:31:43.688Z</time></trkpt><trkpt lat="43.6807017" lon="12.8184733"><ele>281.0</ele><time>2026-04-04T15:31:44.689Z</time></trkpt><trkpt lat="43.6808483" lon="12.8186317"><ele>276.6666666666667</ele><time>2026-04-04T15:31:45.688Z</time></trkpt><trkpt lat="43.6809967" lon="12.8187967"><ele>272.3333333333333</ele><time>2026-04-04T15:31:46.688Z</time></trkpt><trkpt lat="43.681145" lon="12.8189633"><ele>268.0</ele><time>2026-04-04T15:31:47.687Z</time></trkpt><trkpt lat="43.681295" lon="12.81913"><ele>268.0</ele><time>2026-04-04T15:31:48.686Z</time></trkpt><trkpt lat="43.681445" lon="12.819295"><ele>268.0</ele><time>2026-04-04T15:31:49.687Z</time></trkpt><trkpt lat="43.6815933" lon="12.8194533"><ele>268.0</ele><time>2026-04-04T15:31:50.686Z</time></trkpt><trkpt lat="43.681735" lon="12.8196117"><ele>263.66666666666663</ele><time>2026-04-04T15:31:51.689Z</time></trkpt><trkpt lat="43.6818717" lon="12.81976"><ele>259.3333333333333</ele><time>2026-04-04T15:31:52.688Z</time></trkpt><trkpt lat="43.682" lon="12.819905"><ele>255.0</ele><time>2026-04-04T15:31:53.687Z</time></trkpt><trkpt lat="43.6821267" lon="12.8200467"><ele>261.0</ele><time>2026-04-04T15:31:54.687Z</time></trkpt><trkpt lat="43.68225" lon="12.8201983"><ele>267.0</ele><time>2026-04-04T15:31:55.687Z</time></trkpt><trkpt lat="43.6823683" lon="12.8203717"><ele>273.0</ele><time>2026-04-04T15:31:56.687Z</time></trkpt><trkpt lat="43.6824783" lon="12.8205617"><ele>273.0</ele><time>2026-04-04T15:31:57.686Z</time></trkpt><trkpt lat="43.682585" lon="12.82076"><ele>273.0</ele><time>2026-04-04T15:31:58.687Z</time></trkpt><trkpt lat="43.6826917" lon="12.82095"><ele>273.0</ele><time>2026-04-04T15:31:59.688Z</time></trkpt><trkpt lat="43.6827967" lon="12.8211283"><ele>264.5</ele><time>2026-04-04T15:32:00.688Z</time></trkpt><trkpt lat="43.682995" lon="12.8214533"><ele>256.0</ele><time>2026-04-04T15:32:02.687Z</time></trkpt><trkpt lat="43.6830933" lon="12.8216067"><ele>256.0</ele><time>2026-04-04T15:32:03.686Z</time></trkpt><trkpt lat="43.6831933" lon="12.8217483"><ele>256.0</ele><time>2026-04-04T15:32:04.687Z</time></trkpt><trkpt lat="43.6832933" lon="12.8218867"><ele>256.0</ele><time>2026-04-04T15:32:05.688Z</time></trkpt><trkpt lat="43.683395" lon="12.8220167"><ele>256.0</ele><time>2026-04-04T15:32:06.689Z</time></trkpt><trkpt lat="43.6834967" lon="12.82214"><ele>257.0</ele><time>2026-04-04T15:32:07.687Z</time></trkpt><trkpt lat="43.6835867" lon="12.8222583"><ele>258.0</ele><time>2026-04-04T15:32:08.688Z</time></trkpt><trkpt lat="43.6836633" lon="12.8223667"><ele>259.0</ele><time>2026-04-04T15:32:09.686Z</time></trkpt><trkpt lat="43.68371" lon="12.8224683"><ele>260.0</ele><time>2026-04-04T15:32:10.688Z</time></trkpt><trkpt lat="43.68374" lon="12.8225733"><ele>261.0</ele><time>2026-04-04T15:32:11.688Z</time></trkpt><trkpt lat="43.6837417" lon="12.82268"><ele>257.0</ele><time>2026-04-04T15:32:12.688Z</time></trkpt><trkpt lat="43.6837033" lon="12.8227783"><ele>253.00000000000003</ele><time>2026-04-04T15:32:13.689Z</time></trkpt><trkpt lat="43.6836333" lon="12.8228633"><ele>249.00000000000003</ele><time>2026-04-04T15:32:14.689Z</time></trkpt><trkpt lat="43.6835183" lon="12.8229233"><ele>245.0</ele><time>2026-04-04T15:32:15.688Z</time></trkpt><trkpt lat="43.6833783" lon="12.8229767"><ele>241.0</ele><time>2026-04-04T15:32:16.689Z</time></trkpt><trkpt lat="43.683195" lon="12.8230283"><ele>241.0</ele><time>2026-04-04T15:32:17.688Z</time></trkpt><trkpt lat="43.6830283" lon="12.82309"><ele>241.0</ele><time>2026-04-04T15:32:18.687Z</time></trkpt><trkpt lat="43.6828583" lon="12.8231617"><ele>241.0</ele><time>2026-04-04T15:32:19.692Z</time></trkpt><trkpt lat="43.6826967" lon="12.8232367"><ele>244.0</ele><time>2026-04-04T15:32:20.689Z</time></trkpt><trkpt lat="43.682535" lon="12.8233117"><ele>247.0</ele><time>2026-04-04T15:32:21.687Z</time></trkpt><trkpt lat="43.6822267" lon="12.823455"><ele>241.66666666666666</ele><time>2026-04-04T15:32:23.687Z</time></trkpt><trkpt lat="43.682085" lon="12.8235267"><ele>236.33333333333331</ele><time>2026-04-04T15:32:24.691Z</time></trkpt><trkpt lat="43.6819433" lon="12.8236"><ele>231.0</ele><time>2026-04-04T15:32:25.691Z</time></trkpt><trkpt lat="43.6818033" lon="12.8236717"><ele>231.0</ele><time>2026-04-04T15:32:26.687Z</time></trkpt><trkpt lat="43.6816533" lon="12.823745"><ele>231.0</ele><time>2026-04-04T15:32:27.687Z</time></trkpt><trkpt lat="43.6814967" lon="12.8238183"><ele>231.0</ele><time>2026-04-04T15:32:28.687Z</time></trkpt><trkpt lat="43.681345" lon="12.8239017"><ele>231.0</ele><time>2026-04-04T15:32:29.69Z</time></trkpt><trkpt lat="43.6811983" lon="12.8239783"><ele>231.0</ele><time>2026-04-04T15:32:30.688Z</time></trkpt><trkpt lat="43.681055" lon="12.8240467"><ele>231.0</ele><time>2026-04-04T15:32:31.691Z</time></trkpt><trkpt lat="43.6809167" lon="12.8241117"><ele>233.0</ele><time>2026-04-04T15:32:32.689Z</time></trkpt><trkpt lat="43.6807817" lon="12.8241717"><ele>235.0</ele><time>2026-04-04T15:32:33.687Z</time></trkpt><trkpt lat="43.6806567" lon="12.8242067"><ele>237.0</ele><time>2026-04-04T15:32:34.686Z</time></trkpt><trkpt lat="43.6805433" lon="12.8242217"><ele>239.0</ele><time>2026-04-04T15:32:35.687Z</time></trkpt><trkpt lat="43.68045" lon="12.8242283"><ele>239.00000000000003</ele><time>2026-04-04T15:32:36.686Z</time></trkpt><trkpt lat="43.68037" lon="12.8242583"><ele>239.0</ele><time>2026-04-04T15:32:37.688Z</time></trkpt><trkpt lat="43.68031" lon="12.82431"><ele>239.0</ele><time>2026-04-04T15:32:38.686Z</time></trkpt><trkpt lat="43.680285" lon="12.8244617"><ele>239.0</ele><time>2026-04-04T15:32:40.688Z</time></trkpt><trkpt lat="43.680335" lon="12.8245333"><ele>239.00000000000003</ele><time>2026-04-04T15:32:41.688Z</time></trkpt><trkpt lat="43.6804033" lon="12.82455"><ele>239.0</ele><time>2026-04-04T15:32:42.689Z</time></trkpt><trkpt lat="43.680635" lon="12.8245133"><ele>232.0</ele><time>2026-04-04T15:32:44.688Z</time></trkpt><trkpt lat="43.6807583" lon="12.824475"><ele>225.0</ele><time>2026-04-04T15:32:45.689Z</time></trkpt><trkpt lat="43.6809217" lon="12.8244533"><ele>218.0</ele><time>2026-04-04T15:32:46.687Z</time></trkpt><trkpt lat="43.6810767" lon="12.8244433"><ele>211.0</ele><time>2026-04-04T15:32:47.684Z</time></trkpt><trkpt lat="43.6812417" lon="12.824425"><ele>208.0</ele><time>2026-04-04T15:32:48.688Z</time></trkpt><trkpt lat="43.68139" lon="12.8244067"><ele>205.0</ele><time>2026-04-04T15:32:49.688Z</time></trkpt><trkpt lat="43.68153" lon="12.8243883"><ele>202.0</ele><time>2026-04-04T15:32:50.685Z</time></trkpt><trkpt lat="43.6816683" lon="12.8243617"><ele>199.0</ele><time>2026-04-04T15:32:51.686Z</time></trkpt><trkpt lat="43.68181" lon="12.8243217"><ele>203.33333333333331</ele><time>2026-04-04T15:32:52.689Z</time></trkpt><trkpt lat="43.6819533" lon="12.8242717"><ele>207.66666666666669</ele><time>2026-04-04T15:32:53.687Z</time></trkpt><trkpt lat="43.6821" lon="12.824215"><ele>212.0</ele><time>2026-04-04T15:32:54.687Z</time></trkpt><trkpt lat="43.6822467" lon="12.8241483"><ele>212.0</ele><time>2026-04-04T15:32:55.689Z</time></trkpt><trkpt lat="43.6823867" lon="12.8240833"><ele>212.0</ele><time>2026-04-04T15:32:56.685Z</time></trkpt><trkpt lat="43.6825283" lon="12.82402"><ele>212.0</ele><time>2026-04-04T15:32:57.686Z</time></trkpt><trkpt lat="43.6826733" lon="12.823965"><ele>212.0</ele><time>2026-04-04T15:32:58.687Z</time></trkpt><trkpt lat="43.6828233" lon="12.8239183"><ele>210.0</ele><time>2026-04-04T15:32:59.687Z</time></trkpt><trkpt lat="43.6829717" lon="12.8238883"><ele>208.0</ele><time>2026-04-04T15:33:00.687Z</time></trkpt><trkpt lat="43.68312" lon="12.823875"><ele>206.0</ele><time>2026-04-04T15:33:01.687Z</time></trkpt><trkpt lat="43.683265" lon="12.8238833"><ele>204.0</ele><time>2026-04-04T15:33:02.687Z</time></trkpt><trkpt lat="43.6834117" lon="12.823915"><ele>205.5</ele><time>2026-04-04T15:33:03.69Z</time></trkpt><trkpt lat="43.6837217" lon="12.8239967"><ele>207.0</ele><time>2026-04-04T15:33:05.686Z</time></trkpt><trkpt lat="43.683875" lon="12.82404"><ele>207.0</ele><time>2026-04-04T15:33:06.686Z</time></trkpt><trkpt lat="43.6840217" lon="12.8240983"><ele>207.0</ele><time>2026-04-04T15:33:07.69Z</time></trkpt><trkpt lat="43.6841567" lon="12.8241683"><ele>207.0</ele><time>2026-04-04T15:33:08.686Z</time></trkpt><trkpt lat="43.6842783" lon="12.8242467"><ele>207.0</ele><time>2026-04-04T15:33:09.687Z</time></trkpt><trkpt lat="43.6843917" lon="12.8243333"><ele>201.2</ele><time>2026-04-04T15:33:10.688Z</time></trkpt><trkpt lat="43.6844967" lon="12.8244183"><ele>195.39999999999998</ele><time>2026-04-04T15:33:11.687Z</time></trkpt><trkpt lat="43.6846" lon="12.8244933"><ele>189.60000000000002</ele><time>2026-04-04T15:33:12.687Z</time></trkpt><trkpt lat="43.6847017" lon="12.8245367"><ele>183.8</ele><time>2026-04-04T15:33:13.689Z</time></trkpt><trkpt lat="43.6847983" lon="12.8245383"><ele>178.0</ele><time>2026-04-04T15:33:14.69Z</time></trkpt><trkpt lat="43.6848917" lon="12.8244917"><ele>178.0</ele><time>2026-04-04T15:33:15.69Z</time></trkpt><trkpt lat="43.6849767" lon="12.8244017"><ele>178.0</ele><time>2026-04-04T15:33:16.688Z</time></trkpt><trkpt lat="43.6850567" lon="12.82427"><ele>178.0</ele><time>2026-04-04T15:33:17.69Z</time></trkpt><trkpt lat="43.6851333" lon="12.8241283"><ele>178.0</ele><time>2026-04-04T15:33:18.689Z</time></trkpt><trkpt lat="43.6852017" lon="12.8239917"><ele>177.16666666666669</ele><time>2026-04-04T15:33:19.69Z</time></trkpt><trkpt lat="43.68526" lon="12.82387"><ele>176.33333333333334</ele><time>2026-04-04T15:33:20.685Z</time></trkpt><trkpt lat="43.6853117" lon="12.823775"><ele>175.5</ele><time>2026-04-04T15:33:21.687Z</time></trkpt><trkpt lat="43.6853683" lon="12.8237017"><ele>174.66666666666666</ele><time>2026-04-04T15:33:22.687Z</time></trkpt><trkpt lat="43.6854333" lon="12.8236683"><ele>173.83333333333331</ele><time>2026-04-04T15:33:23.684Z</time></trkpt><trkpt lat="43.68553" lon="12.8237083"><ele>173.0</ele><time>2026-04-04T15:33:25.69Z</time></trkpt><trkpt lat="43.6853883" lon="12.8240367"><ele>173.0</ele><time>2026-04-04T15:33:28.687Z</time></trkpt><trkpt lat="43.6852867" lon="12.8242083"><ele>173.0</ele><time>2026-04-04T15:33:29.687Z</time></trkpt><trkpt lat="43.6851917" lon="12.8243617"><ele>173.0</ele><time>2026-04-04T15:33:30.686Z</time></trkpt><trkpt lat="43.6851217" lon="12.8245117"><ele>173.0</ele><time>2026-04-04T15:33:31.688Z</time></trkpt><trkpt lat="43.6850783" lon="12.8246467"><ele>174.0</ele><time>2026-04-04T15:33:32.684Z</time></trkpt><trkpt lat="43.68507" lon="12.824755"><ele>175.0</ele><time>2026-04-04T15:33:33.689Z</time></trkpt><trkpt lat="43.6850933" lon="12.8248533"><ele>176.0</ele><time>2026-04-04T15:33:34.687Z</time></trkpt><trkpt lat="43.685215" lon="12.8248783"><ele>177.0</ele><time>2026-04-04T15:33:36.687Z</time></trkpt><trkpt lat="43.6852967" lon="12.8248017"><ele>178.0</ele><time>2026-04-04T15:33:37.689Z</time></trkpt><trkpt lat="43.6853817" lon="12.8246883"><ele>176.33333333333334</ele><time>2026-04-04T15:33:38.689Z</time></trkpt><trkpt lat="43.6854767" lon="12.8245317"><ele>174.66666666666666</ele><time>2026-04-04T15:33:39.687Z</time></trkpt><trkpt lat="43.6855933" lon="12.8243233"><ele>173.0</ele><time>2026-04-04T15:33:40.686Z</time></trkpt><trkpt lat="43.6856833" lon="12.82417"><ele>173.0</ele><time>2026-04-04T15:33:41.689Z</time></trkpt><trkpt lat="43.6857617" lon="12.8240117"><ele>173.0</ele><time>2026-04-04T15:33:42.689Z</time></trkpt><trkpt lat="43.6858283" lon="12.823895"><ele>173.0</ele><time>2026-04-04T15:33:43.69Z</time></trkpt><trkpt lat="43.6859033" lon="12.8238017"><ele>173.0</ele><time>2026-04-04T15:33:44.689Z</time></trkpt><trkpt lat="43.6859717" lon="12.8237517"><ele>173.0</ele><time>2026-04-04T15:33:45.688Z</time></trkpt><trkpt lat="43.6860417" lon="12.8237283"><ele>173.0</ele><time>2026-04-04T15:33:46.687Z</time></trkpt><trkpt lat="43.6861817" lon="12.8238417"><ele>173.0</ele><time>2026-04-04T15:33:49.687Z</time></trkpt><trkpt lat="43.6861317" lon="12.823975"><ele>173.0</ele><time>2026-04-04T15:33:50.687Z</time></trkpt><trkpt lat="43.68607" lon="12.824105"><ele>173.0</ele><time>2026-04-04T15:33:51.687Z</time></trkpt><trkpt lat="43.6859417" lon="12.8243067"><ele>167.0</ele><time>2026-04-04T15:33:52.687Z</time></trkpt><trkpt lat="43.6858367" lon="12.8244883"><ele>161.0</ele><time>2026-04-04T15:33:53.689Z</time></trkpt><trkpt lat="43.6857467" lon="12.8246617"><ele>155.0</ele><time>2026-04-04T15:33:54.687Z</time></trkpt><trkpt lat="43.6856583" lon="12.824835"><ele>155.0</ele><time>2026-04-04T15:33:55.69Z</time></trkpt><trkpt lat="43.6855767" lon="12.8249967"><ele>155.0</ele><time>2026-04-04T15:33:56.688Z</time></trkpt><trkpt lat="43.6854967" lon="12.8251283"><ele>155.0</ele><time>2026-04-04T15:33:57.687Z</time></trkpt><trkpt lat="43.68541" lon="12.82523"><ele>155.0</ele><time>2026-04-04T15:33:58.686Z</time></trkpt><trkpt lat="43.6853117" lon="12.8253133"><ele>154.0</ele><time>2026-04-04T15:33:59.688Z</time></trkpt><trkpt lat="43.6851917" lon="12.8253667"><ele>153.0</ele><time>2026-04-04T15:34:00.686Z</time></trkpt><trkpt lat="43.6850617" lon="12.82541"><ele>152.0</ele><time>2026-04-04T15:34:01.687Z</time></trkpt><trkpt lat="43.68492" lon="12.8254417"><ele>151.0</ele><time>2026-04-04T15:34:02.686Z</time></trkpt><trkpt lat="43.68477" lon="12.8254717"><ele>151.0</ele><time>2026-04-04T15:34:03.686Z</time></trkpt><trkpt lat="43.6846167" lon="12.8254967"><ele>151.0</ele><time>2026-04-04T15:34:04.688Z</time></trkpt><trkpt lat="43.68446" lon="12.8254983"><ele>151.0</ele><time>2026-04-04T15:34:05.687Z</time></trkpt><trkpt lat="43.6842933" lon="12.8254883"><ele>150.33333333333334</ele><time>2026-04-04T15:34:06.687Z</time></trkpt><trkpt lat="43.6841417" lon="12.82545"><ele>149.66666666666666</ele><time>2026-04-04T15:34:07.688Z</time></trkpt><trkpt lat="43.6838817" lon="12.8253883"><ele>149.0</ele><time>2026-04-04T15:34:09.688Z</time></trkpt><trkpt lat="43.6837767" lon="12.8253667"><ele>149.0</ele><time>2026-04-04T15:34:10.691Z</time></trkpt><trkpt lat="43.6836967" lon="12.8253683"><ele>149.0</ele><time>2026-04-04T15:34:11.686Z</time></trkpt><trkpt lat="43.6836283" lon="12.82539"><ele>149.0</ele><time>2026-04-04T15:34:12.687Z</time></trkpt><trkpt lat="43.6835783" lon="12.8254433"><ele>149.0</ele><time>2026-04-04T15:34:13.689Z</time></trkpt><trkpt lat="43.6835583" lon="12.825595"><ele>149.0</ele><time>2026-04-04T15:34:15.688Z</time></trkpt><trkpt lat="43.6835917" lon="12.8256767"><ele>149.0</ele><time>2026-04-04T15:34:16.688Z</time></trkpt><trkpt lat="43.683665" lon="12.825755"><ele>149.0</ele><time>2026-04-04T15:34:17.689Z</time></trkpt><trkpt lat="43.683785" lon="12.8258233"><ele>149.0</ele><time>2026-04-04T15:34:18.686Z</time></trkpt><trkpt lat="43.68396" lon="12.8258567"><ele>149.0</ele><time>2026-04-04T15:34:19.689Z</time></trkpt><trkpt lat="43.6841183" lon="12.8258967"><ele>149.0</ele><time>2026-04-04T15:34:20.685Z</time></trkpt><trkpt lat="43.6842833" lon="12.82593"><ele>149.0</ele><time>2026-04-04T15:34:21.688Z</time></trkpt><trkpt lat="43.6844567" lon="12.8259533"><ele>149.0</ele><time>2026-04-04T15:34:22.689Z</time></trkpt><trkpt lat="43.6846383" lon="12.8259717"><ele>144.66666666666666</ele><time>2026-04-04T15:34:23.69Z</time></trkpt><trkpt lat="43.6848083" lon="12.8259833"><ele>140.33333333333334</ele><time>2026-04-04T15:34:24.689Z</time></trkpt><trkpt lat="43.6849733" lon="12.825995"><ele>136.0</ele><time>2026-04-04T15:34:25.69Z</time></trkpt><trkpt lat="43.68513" lon="12.826005"><ele>132.66666666666669</ele><time>2026-04-04T15:34:26.688Z</time></trkpt><trkpt lat="43.68528" lon="12.8260167"><ele>129.33333333333334</ele><time>2026-04-04T15:34:27.689Z</time></trkpt><trkpt lat="43.6854233" lon="12.8260267"><ele>126.0</ele><time>2026-04-04T15:34:28.686Z</time></trkpt><trkpt lat="43.6856867" lon="12.8259917"><ele>124.5</ele><time>2026-04-04T15:34:30.687Z</time></trkpt><trkpt lat="43.6858083" lon="12.8259333"><ele>123.0</ele><time>2026-04-04T15:34:31.686Z</time></trkpt><trkpt lat="43.6859217" lon="12.8258517"><ele>121.5</ele><time>2026-04-04T15:34:32.687Z</time></trkpt><trkpt lat="43.6860317" lon="12.8257383"><ele>120.0</ele><time>2026-04-04T15:34:33.687Z</time></trkpt><trkpt lat="43.68614" lon="12.8255983"><ele>120.0</ele><time>2026-04-04T15:34:34.688Z</time></trkpt><trkpt lat="43.686245" lon="12.8254417"><ele>120.0</ele><time>2026-04-04T15:34:35.687Z</time></trkpt><trkpt lat="43.6863567" lon="12.82527"><ele>120.0</ele><time>2026-04-04T15:34:36.689Z</time></trkpt><trkpt lat="43.6864633" lon="12.8251033"><ele>122.0</ele><time>2026-04-04T15:34:37.688Z</time></trkpt><trkpt lat="43.6865683" lon="12.8249417"><ele>124.0</ele><time>2026-04-04T15:34:38.686Z</time></trkpt><trkpt lat="43.6866717" lon="12.8247883"><ele>126.0</ele><time>2026-04-04T15:34:39.687Z</time></trkpt><trkpt lat="43.6867683" lon="12.824645"><ele>126.0</ele><time>2026-04-04T15:34:40.688Z</time></trkpt><trkpt lat="43.68687" lon="12.82451"><ele>126.0</ele><time>2026-04-04T15:34:41.687Z</time></trkpt><trkpt lat="43.686975" lon="12.8243983"><ele>126.0</ele><time>2026-04-04T15:34:42.687Z</time></trkpt><trkpt lat="43.6870817" lon="12.8243267"><ele>126.0</ele><time>2026-04-04T15:34:43.688Z</time></trkpt><trkpt lat="43.687195" lon="12.8242767"><ele>123.8</ele><time>2026-04-04T15:34:44.689Z</time></trkpt><trkpt lat="43.68731" lon="12.8242417"><ele>121.6</ele><time>2026-04-04T15:34:45.689Z</time></trkpt><trkpt lat="43.6874183" lon="12.8242017"><ele>119.4</ele><time>2026-04-04T15:34:46.688Z</time></trkpt><trkpt lat="43.68752" lon="12.8241533"><ele>117.2</ele><time>2026-04-04T15:34:47.688Z</time></trkpt><trkpt lat="43.6876067" lon="12.824085"><ele>115.0</ele><time>2026-04-04T15:34:48.687Z</time></trkpt><trkpt lat="43.6876717" lon="12.8239867"><ele>115.0</ele><time>2026-04-04T15:34:49.688Z</time></trkpt><trkpt lat="43.6877267" lon="12.823715"><ele>115.0</ele><time>2026-04-04T15:34:51.687Z</time></trkpt><trkpt lat="43.68775" lon="12.8235717"><ele>115.0</ele><time>2026-04-04T15:34:52.688Z</time></trkpt><trkpt lat="43.6877983" lon="12.8234367"><ele>115.0</ele><time>2026-04-04T15:34:53.689Z</time></trkpt><trkpt lat="43.6878667" lon="12.8233233"><ele>113.0</ele><time>2026-04-04T15:34:54.688Z</time></trkpt><trkpt lat="43.687955" lon="12.8232283"><ele>111.0</ele><time>2026-04-04T15:34:55.689Z</time></trkpt><trkpt lat="43.68806" lon="12.8231583"><ele>109.0</ele><time>2026-04-04T15:34:56.688Z</time></trkpt><trkpt lat="43.68817" lon="12.82311"><ele>107.0</ele><time>2026-04-04T15:34:57.686Z</time></trkpt><trkpt lat="43.68828" lon="12.8230867"><ele>107.0</ele><time>2026-04-04T15:34:58.689Z</time></trkpt><trkpt lat="43.688385" lon="12.823075"><ele>106.99999999999999</ele><time>2026-04-04T15:34:59.684Z</time></trkpt><trkpt lat="43.6884783" lon="12.8230667"><ele>106.99999999999999</ele><time>2026-04-04T15:35:00.686Z</time></trkpt><trkpt lat="43.68855" lon="12.8230633"><ele>107.0</ele><time>2026-04-04T15:35:01.688Z</time></trkpt><trkpt lat="43.6886283" lon="12.8230517"><ele>107.0</ele><time>2026-04-04T15:35:03.687Z</time></trkpt><trkpt lat="43.6886683" lon="12.8229217"><ele>106.25</ele><time>2026-04-04T15:35:07.689Z</time></trkpt><trkpt lat="43.6886517" lon="12.8228233"><ele>105.5</ele><time>2026-04-04T15:35:08.686Z</time></trkpt><trkpt lat="43.6886217" lon="12.8227033"><ele>104.75</ele><time>2026-04-04T15:35:09.687Z</time></trkpt><trkpt lat="43.68857" lon="12.8225567"><ele>104.0</ele><time>2026-04-04T15:35:10.69Z</time></trkpt><trkpt lat="43.6884383" lon="12.8221983"><ele>104.0</ele><time>2026-04-04T15:35:12.689Z</time></trkpt><trkpt lat="43.6883667" lon="12.822"><ele>104.0</ele><time>2026-04-04T15:35:13.689Z</time></trkpt><trkpt lat="43.6882883" lon="12.8217933"><ele>104.0</ele><time>2026-04-04T15:35:14.687Z</time></trkpt><trkpt lat="43.688215" lon="12.82158"><ele>104.0</ele><time>2026-04-04T15:35:15.688Z</time></trkpt><trkpt lat="43.6881433" lon="12.8213667"><ele>104.0</ele><time>2026-04-04T15:35:16.686Z</time></trkpt><trkpt lat="43.68808" lon="12.821155"><ele>104.0</ele><time>2026-04-04T15:35:17.687Z</time></trkpt><trkpt lat="43.6880333" lon="12.8209417"><ele>103.33333333333333</ele><time>2026-04-04T15:35:18.688Z</time></trkpt><trkpt lat="43.6880033" lon="12.8207217"><ele>102.66666666666666</ele><time>2026-04-04T15:35:19.69Z</time></trkpt><trkpt lat="43.68799" lon="12.8204983"><ele>102.0</ele><time>2026-04-04T15:35:20.687Z</time></trkpt><trkpt lat="43.687985" lon="12.8202783"><ele>101.0</ele><time>2026-04-04T15:35:21.689Z</time></trkpt><trkpt lat="43.6879817" lon="12.8200667"><ele>100.0</ele><time>2026-04-04T15:35:22.688Z</time></trkpt><trkpt lat="43.6879717" lon="12.8198683"><ele>99.0</ele><time>2026-04-04T15:35:23.687Z</time></trkpt><trkpt lat="43.6879467" lon="12.8196767"><ele>98.0</ele><time>2026-04-04T15:35:24.69Z</time></trkpt><trkpt lat="43.6879017" lon="12.8194917"><ele>97.75</ele><time>2026-04-04T15:35:25.69Z</time></trkpt><trkpt lat="43.6878483" lon="12.8193067"><ele>97.5</ele><time>2026-04-04T15:35:26.689Z</time></trkpt><trkpt lat="43.6877883" lon="12.8191233"><ele>97.25</ele><time>2026-04-04T15:35:27.686Z</time></trkpt><trkpt lat="43.68772" lon="12.8189367"><ele>97.0</ele><time>2026-04-04T15:35:28.687Z</time></trkpt><trkpt lat="43.6876417" lon="12.818755"><ele>99.33333333333334</ele><time>2026-04-04T15:35:29.688Z</time></trkpt><trkpt lat="43.687545" lon="12.81859"><ele>101.66666666666666</ele><time>2026-04-04T15:35:30.687Z</time></trkpt><trkpt lat="43.6874333" lon="12.8184317"><ele>104.0</ele><time>2026-04-04T15:35:31.688Z</time></trkpt><trkpt lat="43.6872017" lon="12.8181317"><ele>104.0</ele><time>2026-04-04T15:35:33.686Z</time></trkpt><trkpt lat="43.6870867" lon="12.8179883"><ele>104.0</ele><time>2026-04-04T15:35:34.688Z</time></trkpt><trkpt lat="43.68697" lon="12.8178517"><ele>104.0</ele><time>2026-04-04T15:35:35.686Z</time></trkpt><trkpt lat="43.6868467" lon="12.817725"><ele>105.66666666666666</ele><time>2026-04-04T15:35:36.687Z</time></trkpt><trkpt lat="43.6867133" lon="12.8176067"><ele>107.33333333333334</ele><time>2026-04-04T15:35:37.689Z</time></trkpt><trkpt lat="43.6865767" lon="12.8174883"><ele>109.0</ele><time>2026-04-04T15:35:38.689Z</time></trkpt><trkpt lat="43.6864383" lon="12.8173717"><ele>109.0</ele><time>2026-04-04T15:35:39.689Z</time></trkpt><trkpt lat="43.6862983" lon="12.81726"><ele>109.0</ele><time>2026-04-04T15:35:40.689Z</time></trkpt><trkpt lat="43.6861633" lon="12.81714"><ele>109.0</ele><time>2026-04-04T15:35:41.69Z</time></trkpt><trkpt lat="43.686035" lon="12.817005"><ele>109.66666666666667</ele><time>2026-04-04T15:35:42.687Z</time></trkpt><trkpt lat="43.6859267" lon="12.816845"><ele>110.33333333333334</ele><time>2026-04-04T15:35:43.689Z</time></trkpt><trkpt lat="43.6858333" lon="12.8166633"><ele>111.0</ele><time>2026-04-04T15:35:44.686Z</time></trkpt><trkpt lat="43.6857583" lon="12.8164617"><ele>111.0</ele><time>2026-04-04T15:35:45.69Z</time></trkpt><trkpt lat="43.685695" lon="12.816255"><ele>111.0</ele><time>2026-04-04T15:35:46.688Z</time></trkpt><trkpt lat="43.6856333" lon="12.8160467"><ele>111.0</ele><time>2026-04-04T15:35:47.689Z</time></trkpt><trkpt lat="43.6855617" lon="12.8158433"><ele>111.0</ele><time>2026-04-04T15:35:48.687Z</time></trkpt><trkpt lat="43.68548" lon="12.8156483"><ele>111.0</ele><time>2026-04-04T15:35:49.69Z</time></trkpt><trkpt lat="43.685385" lon="12.8154717"><ele>111.0</ele><time>2026-04-04T15:35:50.686Z</time></trkpt><trkpt lat="43.68528" lon="12.8153033"><ele>112.5</ele><time>2026-04-04T15:35:51.688Z</time></trkpt><trkpt lat="43.6851667" lon="12.81515"><ele>114.0</ele><time>2026-04-04T15:35:52.688Z</time></trkpt><trkpt lat="43.6849217" lon="12.81489"><ele>114.0</ele><time>2026-04-04T15:35:54.687Z</time></trkpt><trkpt lat="43.6847833" lon="12.81479"><ele>114.0</ele><time>2026-04-04T15:35:55.691Z</time></trkpt><trkpt lat="43.6846383" lon="12.8147017"><ele>114.0</ele><time>2026-04-04T15:35:56.689Z</time></trkpt><trkpt lat="43.6844967" lon="12.8146133"><ele>114.66666666666666</ele><time>2026-04-04T15:35:57.689Z</time></trkpt><trkpt lat="43.68436" lon="12.8145067"><ele>115.33333333333333</ele><time>2026-04-04T15:35:58.688Z</time></trkpt><trkpt lat="43.6842267" lon="12.814385"><ele>116.0</ele><time>2026-04-04T15:35:59.686Z</time></trkpt><trkpt lat="43.684105" lon="12.81426"><ele>116.0</ele><time>2026-04-04T15:36:00.688Z</time></trkpt><trkpt lat="43.6839867" lon="12.8141317"><ele>116.0</ele><time>2026-04-04T15:36:01.688Z</time></trkpt><trkpt lat="43.6838733" lon="12.813995"><ele>116.0</ele><time>2026-04-04T15:36:02.689Z</time></trkpt><trkpt lat="43.68376" lon="12.81385"><ele>116.0</ele><time>2026-04-04T15:36:03.688Z</time></trkpt><trkpt lat="43.6836517" lon="12.8136933"><ele>116.0</ele><time>2026-04-04T15:36:04.686Z</time></trkpt><trkpt lat="43.6835517" lon="12.8135217"><ele>116.0</ele><time>2026-04-04T15:36:05.687Z</time></trkpt><trkpt lat="43.6834583" lon="12.8133367"><ele>117.66666666666666</ele><time>2026-04-04T15:36:06.687Z</time></trkpt><trkpt lat="43.6833683" lon="12.8131367"><ele>119.33333333333334</ele><time>2026-04-04T15:36:07.691Z</time></trkpt><trkpt lat="43.6832767" lon="12.812935"><ele>121.0</ele><time>2026-04-04T15:36:08.689Z</time></trkpt><trkpt lat="43.6831767" lon="12.8127317"><ele>117.0</ele><time>2026-04-04T15:36:09.689Z</time></trkpt><trkpt lat="43.683075" lon="12.812525"><ele>113.0</ele><time>2026-04-04T15:36:10.69Z</time></trkpt><trkpt lat="43.68297" lon="12.81232"><ele>109.0</ele><time>2026-04-04T15:36:11.688Z</time></trkpt><trkpt lat="43.6828683" lon="12.8121167"><ele>109.0</ele><time>2026-04-04T15:36:12.689Z</time></trkpt><trkpt lat="43.6827833" lon="12.8119"><ele>109.0</ele><time>2026-04-04T15:36:13.69Z</time></trkpt><trkpt lat="43.6826383" lon="12.8114483"><ele>110.66666666666667</ele><time>2026-04-04T15:36:15.691Z</time></trkpt><trkpt lat="43.6825783" lon="12.8112033"><ele>112.33333333333334</ele><time>2026-04-04T15:36:16.688Z</time></trkpt><trkpt lat="43.682525" lon="12.8109517"><ele>114.0</ele><time>2026-04-04T15:36:17.69Z</time></trkpt><trkpt lat="43.6824817" lon="12.8106933"><ele>114.0</ele><time>2026-04-04T15:36:18.687Z</time></trkpt><trkpt lat="43.6824433" lon="12.81043"><ele>114.0</ele><time>2026-04-04T15:36:19.69Z</time></trkpt><trkpt lat="43.68242" lon="12.8101633"><ele>114.0</ele><time>2026-04-04T15:36:20.687Z</time></trkpt><trkpt lat="43.682405" lon="12.8098933"><ele>113.33333333333334</ele><time>2026-04-04T15:36:21.685Z</time></trkpt><trkpt lat="43.682405" lon="12.8096267"><ele>112.66666666666667</ele><time>2026-04-04T15:36:22.689Z</time></trkpt><trkpt lat="43.6824217" lon="12.8093617"><ele>112.0</ele><time>2026-04-04T15:36:23.687Z</time></trkpt><trkpt lat="43.68245" lon="12.8090983"><ele>112.0</ele><time>2026-04-04T15:36:24.688Z</time></trkpt><trkpt lat="43.6824883" lon="12.8088383"><ele>112.0</ele><time>2026-04-04T15:36:25.689Z</time></trkpt><trkpt lat="43.6825267" lon="12.8085883"><ele>112.0</ele><time>2026-04-04T15:36:26.689Z</time></trkpt><trkpt lat="43.68257" lon="12.8083367"><ele>113.33333333333334</ele><time>2026-04-04T15:36:27.687Z</time></trkpt><trkpt lat="43.6826133" lon="12.8080767"><ele>114.66666666666666</ele><time>2026-04-04T15:36:28.687Z</time></trkpt><trkpt lat="43.68266" lon="12.80782"><ele>116.0</ele><time>2026-04-04T15:36:29.689Z</time></trkpt><trkpt lat="43.68271" lon="12.80756"><ele>117.0</ele><time>2026-04-04T15:36:30.687Z</time></trkpt><trkpt lat="43.6827567" lon="12.8073033"><ele>118.0</ele><time>2026-04-04T15:36:31.69Z</time></trkpt><trkpt lat="43.6828067" lon="12.8070417"><ele>119.0</ele><time>2026-04-04T15:36:32.687Z</time></trkpt><trkpt lat="43.682865" lon="12.80678"><ele>114.0</ele><time>2026-04-04T15:36:33.69Z</time></trkpt><trkpt lat="43.6829317" lon="12.80652"><ele>109.0</ele><time>2026-04-04T15:36:34.689Z</time></trkpt><trkpt lat="43.6830783" lon="12.8060133"><ele>111.66666666666667</ele><time>2026-04-04T15:36:36.689Z</time></trkpt><trkpt lat="43.68315" lon="12.8057667"><ele>114.33333333333334</ele><time>2026-04-04T15:36:37.69Z</time></trkpt><trkpt lat="43.6832167" lon="12.80552"><ele>117.0</ele><time>2026-04-04T15:36:38.687Z</time></trkpt><trkpt lat="43.6832833" lon="12.805285"><ele>117.66666666666666</ele><time>2026-04-04T15:36:39.687Z</time></trkpt><trkpt lat="43.6833533" lon="12.8050633"><ele>118.33333333333333</ele><time>2026-04-04T15:36:40.686Z</time></trkpt><trkpt lat="43.6834183" lon="12.80486"><ele>119.0</ele><time>2026-04-04T15:36:41.688Z</time></trkpt><trkpt lat="43.68348" lon="12.8046683"><ele>119.0</ele><time>2026-04-04T15:36:42.688Z</time></trkpt><trkpt lat="43.6835433" lon="12.804495"><ele>119.0</ele><time>2026-04-04T15:36:43.687Z</time></trkpt><trkpt lat="43.6836183" lon="12.8043433"><ele>119.0</ele><time>2026-04-04T15:36:44.687Z</time></trkpt><trkpt lat="43.68371" lon="12.8042233"><ele>119.0</ele><time>2026-04-04T15:36:45.689Z</time></trkpt><trkpt lat="43.6838083" lon="12.804135"><ele>118.0</ele><time>2026-04-04T15:36:46.689Z</time></trkpt><trkpt lat="43.683915" lon="12.8040667"><ele>117.0</ele><time>2026-04-04T15:36:47.687Z</time></trkpt><trkpt lat="43.6840333" lon="12.80401"><ele>116.0</ele><time>2026-04-04T15:36:48.69Z</time></trkpt><trkpt lat="43.6841617" lon="12.8039567"><ele>115.0</ele><time>2026-04-04T15:36:49.689Z</time></trkpt><trkpt lat="43.684295" lon="12.8038983"><ele>114.75</ele><time>2026-04-04T15:36:50.689Z</time></trkpt><trkpt lat="43.6844333" lon="12.8038417"><ele>114.5</ele><time>2026-04-04T15:36:51.688Z</time></trkpt><trkpt lat="43.684575" lon="12.8037833"><ele>114.25</ele><time>2026-04-04T15:36:52.688Z</time></trkpt><trkpt lat="43.6847183" lon="12.80372"><ele>114.0</ele><time>2026-04-04T15:36:53.689Z</time></trkpt><trkpt lat="43.6848617" lon="12.8036533"><ele>114.0</ele><time>2026-04-04T15:36:54.687Z</time></trkpt><trkpt lat="43.685005" lon="12.80359"><ele>114.0</ele><time>2026-04-04T15:36:55.688Z</time></trkpt><trkpt lat="43.6852817" lon="12.8034667"><ele>114.0</ele><time>2026-04-04T15:36:57.687Z</time></trkpt><trkpt lat="43.6854133" lon="12.8034217"><ele>114.75</ele><time>2026-04-04T15:36:58.687Z</time></trkpt><trkpt lat="43.6855433" lon="12.8033783"><ele>115.5</ele><time>2026-04-04T15:36:59.687Z</time></trkpt><trkpt lat="43.6856733" lon="12.8033383"><ele>116.25</ele><time>2026-04-04T15:37:00.688Z</time></trkpt><trkpt lat="43.6858033" lon="12.8033"><ele>117.0</ele><time>2026-04-04T15:37:01.688Z</time></trkpt><trkpt lat="43.6859317" lon="12.803265"><ele>117.0</ele><time>2026-04-04T15:37:02.688Z</time></trkpt><trkpt lat="43.6860533" lon="12.8032333"><ele>117.0</ele><time>2026-04-04T15:37:03.686Z</time></trkpt><trkpt lat="43.6861733" lon="12.8032133"><ele>117.0</ele><time>2026-04-04T15:37:04.686Z</time></trkpt><trkpt lat="43.68629" lon="12.803185"><ele>117.0</ele><time>2026-04-04T15:37:05.689Z</time></trkpt><trkpt lat="43.6863983" lon="12.8031533"><ele>115.8</ele><time>2026-04-04T15:37:06.689Z</time></trkpt><trkpt lat="43.6864983" lon="12.8031183"><ele>114.6</ele><time>2026-04-04T15:37:07.69Z</time></trkpt><trkpt lat="43.6865933" lon="12.8030833"><ele>113.39999999999999</ele><time>2026-04-04T15:37:08.688Z</time></trkpt><trkpt lat="43.6866883" lon="12.8030683"><ele>112.19999999999999</ele><time>2026-04-04T15:37:09.687Z</time></trkpt><trkpt lat="43.6867867" lon="12.8030633"><ele>111.0</ele><time>2026-04-04T15:37:10.688Z</time></trkpt><trkpt lat="43.6868917" lon="12.803065"><ele>109.25</ele><time>2026-04-04T15:37:11.689Z</time></trkpt><trkpt lat="43.6870067" lon="12.8030783"><ele>107.5</ele><time>2026-04-04T15:37:12.688Z</time></trkpt><trkpt lat="43.6871267" lon="12.8030917"><ele>105.75</ele><time>2026-04-04T15:37:13.688Z</time></trkpt><trkpt lat="43.6872467" lon="12.80311"><ele>104.0</ele><time>2026-04-04T15:37:14.687Z</time></trkpt><trkpt lat="43.6873633" lon="12.8031267"><ele>104.0</ele><time>2026-04-04T15:37:15.687Z</time></trkpt><trkpt lat="43.68748" lon="12.803145"><ele>104.0</ele><time>2026-04-04T15:37:16.687Z</time></trkpt><trkpt lat="43.6877133" lon="12.80319"><ele>104.0</ele><time>2026-04-04T15:37:18.691Z</time></trkpt><trkpt lat="43.68783" lon="12.8032083"><ele>102.0</ele><time>2026-04-04T15:37:19.689Z</time></trkpt><trkpt lat="43.687945" lon="12.8032267"><ele>100.0</ele><time>2026-04-04T15:37:20.688Z</time></trkpt><trkpt lat="43.68806" lon="12.80324"><ele>98.0</ele><time>2026-04-04T15:37:21.689Z</time></trkpt><trkpt lat="43.68817" lon="12.8032567"><ele>96.0</ele><time>2026-04-04T15:37:22.691Z</time></trkpt><trkpt lat="43.6882733" lon="12.8032733"><ele>94.0</ele><time>2026-04-04T15:37:23.691Z</time></trkpt><trkpt lat="43.6883633" lon="12.803285"><ele>94.0</ele><time>2026-04-04T15:37:24.689Z</time></trkpt><trkpt lat="43.68844" lon="12.803295"><ele>94.0</ele><time>2026-04-04T15:37:25.689Z</time></trkpt><trkpt lat="43.6885083" lon="12.8033017"><ele>94.0</ele><time>2026-04-04T15:37:26.688Z</time></trkpt><trkpt lat="43.688595" lon="12.80332"><ele>94.0</ele><time>2026-04-04T15:37:28.686Z</time></trkpt><trkpt lat="43.688665" lon="12.80334"><ele>94.0</ele><time>2026-04-04T15:37:32.691Z</time></trkpt><trkpt lat="43.68875" lon="12.8033867"><ele>94.0</ele><time>2026-04-04T15:39:10.686Z</time></trkpt><trkpt lat="43.6887717" lon="12.8036417"><ele>95.0</ele><time>2026-04-04T15:39:13.692Z</time></trkpt><trkpt lat="43.688735" lon="12.8037683"><ele>96.0</ele><time>2026-04-04T15:39:14.688Z</time></trkpt><trkpt lat="43.6886883" lon="12.8039133"><ele>97.0</ele><time>2026-04-04T15:39:15.689Z</time></trkpt><trkpt lat="43.6886433" lon="12.8040667"><ele>98.0</ele><time>2026-04-04T15:39:16.69Z</time></trkpt><trkpt lat="43.6885833" lon="12.8042167"><ele>99.5</ele><time>2026-04-04T15:39:17.69Z</time></trkpt><trkpt lat="43.6885167" lon="12.8043783"><ele>101.0</ele><time>2026-04-04T15:39:18.69Z</time></trkpt><trkpt lat="43.6884533" lon="12.804545"><ele>102.5</ele><time>2026-04-04T15:39:19.689Z</time></trkpt><trkpt lat="43.688385" lon="12.80471"><ele>104.0</ele><time>2026-04-04T15:39:20.689Z</time></trkpt><trkpt lat="43.6883183" lon="12.80488"><ele>104.0</ele><time>2026-04-04T15:39:21.69Z</time></trkpt><trkpt lat="43.6882483" lon="12.8050533"><ele>104.0</ele><time>2026-04-04T15:39:22.691Z</time></trkpt><trkpt lat="43.6881783" lon="12.8052367"><ele>104.0</ele><time>2026-04-04T15:39:23.689Z</time></trkpt><trkpt lat="43.6881117" lon="12.8054233"><ele>104.0</ele><time>2026-04-04T15:39:24.691Z</time></trkpt><trkpt lat="43.6880467" lon="12.80561"><ele>105.5</ele><time>2026-04-04T15:39:25.69Z</time></trkpt><trkpt lat="43.6879817" lon="12.8057917"><ele>107.0</ele><time>2026-04-04T15:39:26.69Z</time></trkpt><trkpt lat="43.687915" lon="12.805975"><ele>108.5</ele><time>2026-04-04T15:39:27.688Z</time></trkpt><trkpt lat="43.6878517" lon="12.806155"><ele>110.0</ele><time>2026-04-04T15:39:28.691Z</time></trkpt><trkpt lat="43.6877917" lon="12.8063367"><ele>109.66666666666666</ele><time>2026-04-04T15:39:29.689Z</time></trkpt><trkpt lat="43.6877283" lon="12.8065167"><ele>109.33333333333334</ele><time>2026-04-04T15:39:30.689Z</time></trkpt><trkpt lat="43.687675" lon="12.80669"><ele>109.0</ele><time>2026-04-04T15:39:31.69Z</time></trkpt><trkpt lat="43.6876017" lon="12.8070267"><ele>109.0</ele><time>2026-04-04T15:39:33.686Z</time></trkpt><trkpt lat="43.6875917" lon="12.8071867"><ele>109.0</ele><time>2026-04-04T15:39:34.688Z</time></trkpt><trkpt lat="43.6876117" lon="12.8073467"><ele>109.0</ele><time>2026-04-04T15:39:35.688Z</time></trkpt><trkpt lat="43.6876483" lon="12.80749"><ele>109.0</ele><time>2026-04-04T15:39:36.689Z</time></trkpt><trkpt lat="43.6876933" lon="12.8076167"><ele>109.0</ele><time>2026-04-04T15:39:37.688Z</time></trkpt><trkpt lat="43.687745" lon="12.8077333"><ele>110.80000000000001</ele><time>2026-04-04T15:39:38.689Z</time></trkpt><trkpt lat="43.6878" lon="12.807845"><ele>112.60000000000001</ele><time>2026-04-04T15:39:39.688Z</time></trkpt><trkpt lat="43.68786" lon="12.807955"><ele>114.4</ele><time>2026-04-04T15:39:40.689Z</time></trkpt><trkpt lat="43.6879233" lon="12.8080617"><ele>116.2</ele><time>2026-04-04T15:39:41.69Z</time></trkpt><trkpt lat="43.6879867" lon="12.8081583"><ele>118.0</ele><time>2026-04-04T15:39:42.686Z</time></trkpt><trkpt lat="43.6880467" lon="12.80824"><ele>118.00000000000001</ele><time>2026-04-04T15:39:43.689Z</time></trkpt><trkpt lat="43.6880983" lon="12.8083217"><ele>118.0</ele><time>2026-04-04T15:39:44.688Z</time></trkpt><trkpt lat="43.6881483" lon="12.8084067"><ele>118.0</ele><time>2026-04-04T15:39:45.688Z</time></trkpt><trkpt lat="43.688195" lon="12.8084967"><ele>118.0</ele><time>2026-04-04T15:39:46.696Z</time></trkpt><trkpt lat="43.6882433" lon="12.8085867"><ele>118.00000000000001</ele><time>2026-04-04T15:39:47.687Z</time></trkpt><trkpt lat="43.68829" lon="12.8086783"><ele>118.0</ele><time>2026-04-04T15:39:48.689Z</time></trkpt><trkpt lat="43.6883367" lon="12.80877"><ele>118.00000000000001</ele><time>2026-04-04T15:39:49.689Z</time></trkpt><trkpt lat="43.6883867" lon="12.8088517"><ele>118.0</ele><time>2026-04-04T15:39:50.688Z</time></trkpt><trkpt lat="43.68843" lon="12.8089317"><ele>118.0</ele><time>2026-04-04T15:39:51.686Z</time></trkpt><trkpt lat="43.688475" lon="12.80901"><ele>118.0</ele><time>2026-04-04T15:39:52.688Z</time></trkpt><trkpt lat="43.6885767" lon="12.8091583"><ele>118.00000000000001</ele><time>2026-04-04T15:39:54.687Z</time></trkpt><trkpt lat="43.6886283" lon="12.8092367"><ele>118.0</ele><time>2026-04-04T15:39:55.686Z</time></trkpt><trkpt lat="43.6886767" lon="12.8093183"><ele>118.16666666666667</ele><time>2026-04-04T15:39:56.686Z</time></trkpt><trkpt lat="43.68873" lon="12.8094017"><ele>118.33333333333334</ele><time>2026-04-04T15:39:57.687Z</time></trkpt><trkpt lat="43.6887883" lon="12.809485"><ele>118.5</ele><time>2026-04-04T15:39:58.689Z</time></trkpt><trkpt lat="43.68885" lon="12.8095767"><ele>118.66666666666666</ele><time>2026-04-04T15:39:59.689Z</time></trkpt><trkpt lat="43.6889033" lon="12.8096733"><ele>118.83333333333333</ele><time>2026-04-04T15:40:00.688Z</time></trkpt><trkpt lat="43.6889583" lon="12.8097667"><ele>119.0</ele><time>2026-04-04T15:40:01.688Z</time></trkpt><trkpt lat="43.6890117" lon="12.8098733"><ele>118.99999999999999</ele><time>2026-04-04T15:40:02.687Z</time></trkpt><trkpt lat="43.6890667" lon="12.80997"><ele>119.0</ele><time>2026-04-04T15:40:03.689Z</time></trkpt><trkpt lat="43.68912" lon="12.8100533"><ele>119.0</ele><time>2026-04-04T15:40:04.688Z</time></trkpt><trkpt lat="43.6891717" lon="12.8101383"><ele>119.0</ele><time>2026-04-04T15:40:05.689Z</time></trkpt><trkpt lat="43.68923" lon="12.810215"><ele>118.99999999999999</ele><time>2026-04-04T15:40:06.686Z</time></trkpt><trkpt lat="43.68929" lon="12.8102883"><ele>119.0</ele><time>2026-04-04T15:40:07.687Z</time></trkpt><trkpt lat="43.6893467" lon="12.8103567"><ele>118.99999999999999</ele><time>2026-04-04T15:40:08.687Z</time></trkpt><trkpt lat="43.6894" lon="12.8104267"><ele>119.0</ele><time>2026-04-04T15:40:09.687Z</time></trkpt><trkpt lat="43.68945" lon="12.8104867"><ele>119.0</ele><time>2026-04-04T15:40:10.689Z</time></trkpt><trkpt lat="43.6894933" lon="12.810555"><ele>119.0</ele><time>2026-04-04T15:40:11.687Z</time></trkpt><trkpt lat="43.689535" lon="12.8106217"><ele>118.99999999999999</ele><time>2026-04-04T15:40:12.687Z</time></trkpt><trkpt lat="43.6895717" lon="12.8106933"><ele>119.0</ele><time>2026-04-04T15:40:13.69Z</time></trkpt><trkpt lat="43.6896633" lon="12.810915"><ele>118.66666666666666</ele><time>2026-04-04T15:40:17.688Z</time></trkpt><trkpt lat="43.6897417" lon="12.8109067"><ele>118.33333333333333</ele><time>2026-04-04T15:40:20.689Z</time></trkpt><trkpt lat="43.689785" lon="12.8108167"><ele>118.0</ele><time>2026-04-04T15:40:24.688Z</time></trkpt><trkpt lat="43.6898583" lon="12.810785"><ele>117.66666666666666</ele><time>2026-04-04T15:40:26.686Z</time></trkpt><trkpt lat="43.6899883" lon="12.8107667"><ele>117.33333333333333</ele><time>2026-04-04T15:40:28.687Z</time></trkpt><trkpt lat="43.6900733" lon="12.810765"><ele>117.0</ele><time>2026-04-04T15:40:29.689Z</time></trkpt><trkpt lat="43.6901617" lon="12.810765"><ele>117.0</ele><time>2026-04-04T15:40:30.689Z</time></trkpt><trkpt lat="43.6902517" lon="12.8107633"><ele>116.99999999999999</ele><time>2026-04-04T15:40:31.691Z</time></trkpt><trkpt lat="43.6903483" lon="12.8107683"><ele>116.99999999999999</ele><time>2026-04-04T15:40:32.688Z</time></trkpt><trkpt lat="43.69044" lon="12.8107767"><ele>117.0</ele><time>2026-04-04T15:40:33.69Z</time></trkpt><trkpt lat="43.6905317" lon="12.81077"><ele>117.0</ele><time>2026-04-04T15:40:34.688Z</time></trkpt><trkpt lat="43.6907133" lon="12.81077"><ele>119.25</ele><time>2026-04-04T15:40:36.686Z</time></trkpt><trkpt lat="43.6908183" lon="12.8107833"><ele>121.5</ele><time>2026-04-04T15:40:37.688Z</time></trkpt><trkpt lat="43.6909317" lon="12.810805"><ele>123.75</ele><time>2026-04-04T15:40:38.689Z</time></trkpt><trkpt lat="43.6910533" lon="12.8108367"><ele>126.0</ele><time>2026-04-04T15:40:39.687Z</time></trkpt><trkpt lat="43.6911783" lon="12.81087"><ele>127.25</ele><time>2026-04-04T15:40:40.688Z</time></trkpt><trkpt lat="43.691305" lon="12.8109083"><ele>128.5</ele><time>2026-04-04T15:40:41.689Z</time></trkpt><trkpt lat="43.6914283" lon="12.8109517"><ele>129.75</ele><time>2026-04-04T15:40:42.687Z</time></trkpt><trkpt lat="43.6915517" lon="12.8110017"><ele>131.0</ele><time>2026-04-04T15:40:43.688Z</time></trkpt><trkpt lat="43.69166" lon="12.8110783"><ele>131.0</ele><time>2026-04-04T15:40:44.687Z</time></trkpt><trkpt lat="43.6917583" lon="12.8111733"><ele>131.0</ele><time>2026-04-04T15:40:45.688Z</time></trkpt><trkpt lat="43.6918517" lon="12.8112833"><ele>131.0</ele><time>2026-04-04T15:40:46.687Z</time></trkpt><trkpt lat="43.6919533" lon="12.8113867"><ele>131.0</ele><time>2026-04-04T15:40:47.688Z</time></trkpt><trkpt lat="43.692055" lon="12.811475"><ele>136.5</ele><time>2026-04-04T15:40:48.686Z</time></trkpt><trkpt lat="43.6921517" lon="12.8115567"><ele>142.0</ele><time>2026-04-04T15:40:49.687Z</time></trkpt><trkpt lat="43.6922583" lon="12.8116367"><ele>147.5</ele><time>2026-04-04T15:40:50.69Z</time></trkpt><trkpt lat="43.692365" lon="12.8117133"><ele>153.0</ele><time>2026-04-04T15:40:51.688Z</time></trkpt><trkpt lat="43.6924733" lon="12.8117817"><ele>153.0</ele><time>2026-04-04T15:40:52.689Z</time></trkpt><trkpt lat="43.6925867" lon="12.8118383"><ele>153.0</ele><time>2026-04-04T15:40:53.691Z</time></trkpt><trkpt lat="43.6927117" lon="12.81188"><ele>153.0</ele><time>2026-04-04T15:40:54.688Z</time></trkpt><trkpt lat="43.6928417" lon="12.8118967"><ele>153.0</ele><time>2026-04-04T15:40:55.69Z</time></trkpt><trkpt lat="43.693075" lon="12.8118267"><ele>155.4</ele><time>2026-04-04T15:40:57.689Z</time></trkpt><trkpt lat="43.69318" lon="12.81176"><ele>157.8</ele><time>2026-04-04T15:40:58.691Z</time></trkpt><trkpt lat="43.6932667" lon="12.8116883"><ele>160.2</ele><time>2026-04-04T15:40:59.688Z</time></trkpt><trkpt lat="43.6933367" lon="12.8116"><ele>162.6</ele><time>2026-04-04T15:41:00.687Z</time></trkpt><trkpt lat="43.6933983" lon="12.8114933"><ele>165.0</ele><time>2026-04-04T15:41:01.691Z</time></trkpt><trkpt lat="43.6934583" lon="12.81136"><ele>165.0</ele><time>2026-04-04T15:41:02.691Z</time></trkpt><trkpt lat="43.69352" lon="12.811205"><ele>165.0</ele><time>2026-04-04T15:41:03.686Z</time></trkpt><trkpt lat="43.6935883" lon="12.8110467"><ele>165.0</ele><time>2026-04-04T15:41:04.69Z</time></trkpt><trkpt lat="43.6936633" lon="12.810875"><ele>165.0</ele><time>2026-04-04T15:41:05.689Z</time></trkpt><trkpt lat="43.693735" lon="12.8107067"><ele>169.5</ele><time>2026-04-04T15:41:06.688Z</time></trkpt><trkpt lat="43.693785" lon="12.8105517"><ele>174.0</ele><time>2026-04-04T15:41:07.689Z</time></trkpt><trkpt lat="43.6937983" lon="12.810395"><ele>178.5</ele><time>2026-04-04T15:41:08.689Z</time></trkpt><trkpt lat="43.69378" lon="12.8102383"><ele>183.0</ele><time>2026-04-04T15:41:09.686Z</time></trkpt><trkpt lat="43.693735" lon="12.8100833"><ele>184.0</ele><time>2026-04-04T15:41:10.687Z</time></trkpt><trkpt lat="43.693675" lon="12.80992"><ele>185.0</ele><time>2026-04-04T15:41:11.689Z</time></trkpt><trkpt lat="43.6935967" lon="12.8097467"><ele>186.0</ele><time>2026-04-04T15:41:12.69Z</time></trkpt><trkpt lat="43.6935183" lon="12.80955"><ele>187.0</ele><time>2026-04-04T15:41:13.686Z</time></trkpt><trkpt lat="43.693445" lon="12.8093467"><ele>187.33333333333334</ele><time>2026-04-04T15:41:14.69Z</time></trkpt><trkpt lat="43.6933783" lon="12.80915"><ele>187.66666666666666</ele><time>2026-04-04T15:41:15.689Z</time></trkpt><trkpt lat="43.6933233" lon="12.8089883"><ele>188.0</ele><time>2026-04-04T15:41:16.688Z</time></trkpt><trkpt lat="43.6932117" lon="12.8087117"><ele>188.0</ele><time>2026-04-04T15:41:18.687Z</time></trkpt><trkpt lat="43.6931517" lon="12.8085733"><ele>188.0</ele><time>2026-04-04T15:41:19.688Z</time></trkpt><trkpt lat="43.69309" lon="12.8084383"><ele>188.0</ele><time>2026-04-04T15:41:20.689Z</time></trkpt><trkpt lat="43.69302" lon="12.80831"><ele>188.0</ele><time>2026-04-04T15:41:21.687Z</time></trkpt><trkpt lat="43.6929433" lon="12.8081867"><ele>190.5</ele><time>2026-04-04T15:41:22.691Z</time></trkpt><trkpt lat="43.6928567" lon="12.808075"><ele>193.0</ele><time>2026-04-04T15:41:23.685Z</time></trkpt><trkpt lat="43.6927533" lon="12.8079767"><ele>195.5</ele><time>2026-04-04T15:41:24.691Z</time></trkpt><trkpt lat="43.692645" lon="12.8078983"><ele>198.0</ele><time>2026-04-04T15:41:25.689Z</time></trkpt><trkpt lat="43.6925367" lon="12.8078267"><ele>198.0</ele><time>2026-04-04T15:41:26.689Z</time></trkpt><trkpt lat="43.6924433" lon="12.8077517"><ele>198.0</ele><time>2026-04-04T15:41:27.688Z</time></trkpt><trkpt lat="43.692365" lon="12.8076833"><ele>198.0</ele><time>2026-04-04T15:41:28.689Z</time></trkpt><trkpt lat="43.6923067" lon="12.807625"><ele>198.0</ele><time>2026-04-04T15:41:29.688Z</time></trkpt><trkpt lat="43.6922517" lon="12.8074967"><ele>198.0</ele><time>2026-04-04T15:41:31.69Z</time></trkpt><trkpt lat="43.6922967" lon="12.8073667"><ele>200.2</ele><time>2026-04-04T15:41:33.688Z</time></trkpt><trkpt lat="43.6923467" lon="12.8073083"><ele>202.4</ele><time>2026-04-04T15:41:34.689Z</time></trkpt><trkpt lat="43.6924333" lon="12.8072417"><ele>204.6</ele><time>2026-04-04T15:41:35.685Z</time></trkpt><trkpt lat="43.6925533" lon="12.8071683"><ele>206.79999999999998</ele><time>2026-04-04T15:41:36.689Z</time></trkpt><trkpt lat="43.6926817" lon="12.8070767"><ele>209.0</ele><time>2026-04-04T15:41:37.689Z</time></trkpt><trkpt lat="43.6928833" lon="12.8069417"><ele>209.00000000000003</ele><time>2026-04-04T15:41:39.69Z</time></trkpt><trkpt lat="43.6929583" lon="12.8068933"><ele>209.0</ele><time>2026-04-04T15:41:40.689Z</time></trkpt><trkpt lat="43.6930317" lon="12.8068483"><ele>209.0</ele><time>2026-04-04T15:41:41.689Z</time></trkpt><trkpt lat="43.6930833" lon="12.806795"><ele>209.0</ele><time>2026-04-04T15:41:42.689Z</time></trkpt><trkpt lat="43.6931017" lon="12.806685"><ele>209.00000000000003</ele><time>2026-04-04T15:41:44.689Z</time></trkpt><trkpt lat="43.6929983" lon="12.806635"><ele>209.0</ele><time>2026-04-04T15:41:46.687Z</time></trkpt><trkpt lat="43.6929033" lon="12.80666"><ele>212.33333333333334</ele><time>2026-04-04T15:41:47.687Z</time></trkpt><trkpt lat="43.692815" lon="12.8066967"><ele>215.66666666666669</ele><time>2026-04-04T15:41:48.687Z</time></trkpt><trkpt lat="43.692745" lon="12.80671"><ele>219.0</ele><time>2026-04-04T15:41:49.688Z</time></trkpt><trkpt lat="43.692655" lon="12.8066883"><ele>222.33333333333331</ele><time>2026-04-04T15:41:51.687Z</time></trkpt><trkpt lat="43.6926933" lon="12.80658"><ele>225.66666666666666</ele><time>2026-04-04T15:41:53.69Z</time></trkpt><trkpt lat="43.69275" lon="12.8065183"><ele>229.0</ele><time>2026-04-04T15:41:54.688Z</time></trkpt><trkpt lat="43.6928117" lon="12.8064433"><ele>229.0</ele><time>2026-04-04T15:41:55.689Z</time></trkpt><trkpt lat="43.692875" lon="12.8063383"><ele>229.0</ele><time>2026-04-04T15:41:56.689Z</time></trkpt><trkpt lat="43.6929267" lon="12.8062083"><ele>229.0</ele><time>2026-04-04T15:41:57.689Z</time></trkpt><trkpt lat="43.692975" lon="12.8060683"><ele>229.0</ele><time>2026-04-04T15:41:58.689Z</time></trkpt><trkpt lat="43.69306" lon="12.805815"><ele>232.39999999999998</ele><time>2026-04-04T15:42:00.688Z</time></trkpt><trkpt lat="43.6931033" lon="12.805735"><ele>235.79999999999998</ele><time>2026-04-04T15:42:01.689Z</time></trkpt><trkpt lat="43.6931717" lon="12.805625"><ele>239.20000000000002</ele><time>2026-04-04T15:42:03.688Z</time></trkpt><trkpt lat="43.6932533" lon="12.8055283"><ele>242.60000000000002</ele><time>2026-04-04T15:42:05.689Z</time></trkpt><trkpt lat="43.6933517" lon="12.80547"><ele>246.0</ele><time>2026-04-04T15:42:07.69Z</time></trkpt><trkpt lat="43.6934233" lon="12.8054283"><ele>246.0</ele><time>2026-04-04T15:42:09.688Z</time></trkpt><trkpt lat="43.6933433" lon="12.8054317"><ele>246.00000000000003</ele><time>2026-04-04T15:42:20.689Z</time></trkpt><trkpt lat="43.693185" lon="12.8055533"><ele>246.00000000000003</ele><time>2026-04-04T15:42:24.689Z</time></trkpt><trkpt lat="43.69318" lon="12.8056417"><ele>246.0</ele><time>2026-04-04T15:42:27.689Z</time></trkpt><trkpt lat="43.6932267" lon="12.8057117"><ele>246.0</ele><time>2026-04-04T15:42:29.687Z</time></trkpt><trkpt lat="43.6932833" lon="12.8057533"><ele>246.0</ele><time>2026-04-04T15:42:30.689Z</time></trkpt><trkpt lat="43.6933583" lon="12.8057967"><ele>246.00000000000003</ele><time>2026-04-04T15:42:31.69Z</time></trkpt><trkpt lat="43.693445" lon="12.8058483"><ele>246.00000000000003</ele><time>2026-04-04T15:42:32.689Z</time></trkpt><trkpt lat="43.69355" lon="12.8059133"><ele>246.0</ele><time>2026-04-04T15:42:33.687Z</time></trkpt><trkpt lat="43.6936567" lon="12.80599"><ele>246.0</ele><time>2026-04-04T15:42:34.688Z</time></trkpt><trkpt lat="43.6937667" lon="12.8060767"><ele>246.0</ele><time>2026-04-04T15:42:35.69Z</time></trkpt><trkpt lat="43.69387" lon="12.8061733"><ele>246.0</ele><time>2026-04-04T15:42:36.686Z</time></trkpt><trkpt lat="43.69397" lon="12.8062733"><ele>246.0</ele><time>2026-04-04T15:42:37.689Z</time></trkpt><trkpt lat="43.6940717" lon="12.806375"><ele>246.0</ele><time>2026-04-04T15:42:38.686Z</time></trkpt><trkpt lat="43.69418" lon="12.80646"><ele>246.0</ele><time>2026-04-04T15:42:39.689Z</time></trkpt><trkpt lat="43.694295" lon="12.8065283"><ele>246.0</ele><time>2026-04-04T15:42:40.688Z</time></trkpt><trkpt lat="43.6944167" lon="12.8065883"><ele>246.0</ele><time>2026-04-04T15:42:41.691Z</time></trkpt><trkpt lat="43.6946433" lon="12.80673"><ele>250.0</ele><time>2026-04-04T15:42:43.692Z</time></trkpt><trkpt lat="43.694755" lon="12.8068283"><ele>254.0</ele><time>2026-04-04T15:42:44.688Z</time></trkpt><trkpt lat="43.6948583" lon="12.806935"><ele>258.0</ele><time>2026-04-04T15:42:45.689Z</time></trkpt><trkpt lat="43.6949617" lon="12.8070483"><ele>262.0</ele><time>2026-04-04T15:42:46.69Z</time></trkpt><trkpt lat="43.6950617" lon="12.8071717"><ele>262.0</ele><time>2026-04-04T15:42:47.691Z</time></trkpt><trkpt lat="43.69516" lon="12.8072983"><ele>262.0</ele><time>2026-04-04T15:42:48.69Z</time></trkpt><trkpt lat="43.69526" lon="12.8074267"><ele>262.0</ele><time>2026-04-04T15:42:49.69Z</time></trkpt><trkpt lat="43.6953617" lon="12.80756"><ele>262.0</ele><time>2026-04-04T15:42:50.69Z</time></trkpt><trkpt lat="43.6954667" lon="12.8076933"><ele>267.0</ele><time>2026-04-04T15:42:51.689Z</time></trkpt><trkpt lat="43.6955617" lon="12.807815"><ele>272.0</ele><time>2026-04-04T15:42:52.689Z</time></trkpt><trkpt lat="43.6956483" lon="12.8079267"><ele>277.0</ele><time>2026-04-04T15:42:53.69Z</time></trkpt><trkpt lat="43.6957233" lon="12.8080333"><ele>282.0</ele><time>2026-04-04T15:42:54.69Z</time></trkpt><trkpt lat="43.6957933" lon="12.80813"><ele>282.0</ele><time>2026-04-04T15:42:55.689Z</time></trkpt><trkpt lat="43.6958533" lon="12.808205"><ele>282.0</ele><time>2026-04-04T15:42:56.69Z</time></trkpt><trkpt lat="43.6959167" lon="12.8082467"><ele>282.0</ele><time>2026-04-04T15:42:57.691Z</time></trkpt><trkpt lat="43.6960067" lon="12.8082183"><ele>282.0</ele><time>2026-04-04T15:42:59.691Z</time></trkpt><trkpt lat="43.6960417" lon="12.8081"><ele>282.0</ele><time>2026-04-04T15:43:01.687Z</time></trkpt><trkpt lat="43.69593" lon="12.80786"><ele>284.75</ele><time>2026-04-04T15:43:02.685Z</time></trkpt><trkpt lat="43.6958217" lon="12.8075617"><ele>287.5</ele><time>2026-04-04T15:43:04.689Z</time></trkpt><trkpt lat="43.6957833" lon="12.8074367"><ele>290.25</ele><time>2026-04-04T15:43:05.689Z</time></trkpt><trkpt lat="43.6957617" lon="12.8073233"><ele>293.0</ele><time>2026-04-04T15:43:06.689Z</time></trkpt><trkpt lat="43.69578" lon="12.8072217"><ele>293.0</ele><time>2026-04-04T15:43:07.691Z</time></trkpt><trkpt lat="43.6958867" lon="12.807125"><ele>293.0</ele><time>2026-04-04T15:43:09.689Z</time></trkpt><trkpt lat="43.695975" lon="12.8071567"><ele>293.0</ele><time>2026-04-04T15:43:10.689Z</time></trkpt><trkpt lat="43.6960733" lon="12.8071883"><ele>293.0</ele><time>2026-04-04T15:43:11.689Z</time></trkpt><trkpt lat="43.6961833" lon="12.80721"><ele>293.0</ele><time>2026-04-04T15:43:12.689Z</time></trkpt><trkpt lat="43.696295" lon="12.8072067"><ele>297.0</ele><time>2026-04-04T15:43:13.689Z</time></trkpt><trkpt lat="43.6964017" lon="12.80718"><ele>301.0</ele><time>2026-04-04T15:43:14.688Z</time></trkpt><trkpt lat="43.6964967" lon="12.8071183"><ele>305.0</ele><time>2026-04-04T15:43:15.689Z</time></trkpt><trkpt lat="43.69658" lon="12.80702"><ele>309.0</ele><time>2026-04-04T15:43:16.689Z</time></trkpt><trkpt lat="43.69664" lon="12.8068933"><ele>313.0</ele><time>2026-04-04T15:43:17.689Z</time></trkpt><trkpt lat="43.696685" lon="12.8067467"><ele>313.8</ele><time>2026-04-04T15:43:18.689Z</time></trkpt><trkpt lat="43.6967067" lon="12.80659"><ele>314.6</ele><time>2026-04-04T15:43:19.69Z</time></trkpt><trkpt lat="43.6967017" lon="12.8064317"><ele>315.4</ele><time>2026-04-04T15:43:20.689Z</time></trkpt><trkpt lat="43.696675" lon="12.80629"><ele>316.2</ele><time>2026-04-04T15:43:21.689Z</time></trkpt><trkpt lat="43.6966217" lon="12.8061567"><ele>317.0</ele><time>2026-04-04T15:43:22.689Z</time></trkpt><trkpt lat="43.6965467" lon="12.8060333"><ele>319.0</ele><time>2026-04-04T15:43:23.689Z</time></trkpt><trkpt lat="43.696375" lon="12.8057867"><ele>321.0</ele><time>2026-04-04T15:43:25.688Z</time></trkpt><trkpt lat="43.6962917" lon="12.8056733"><ele>323.0</ele><time>2026-04-04T15:43:26.689Z</time></trkpt><trkpt lat="43.6962183" lon="12.8055717"><ele>323.0</ele><time>2026-04-04T15:43:27.689Z</time></trkpt><trkpt lat="43.696165" lon="12.8054667"><ele>323.0</ele><time>2026-04-04T15:43:28.687Z</time></trkpt><trkpt lat="43.6961233" lon="12.805355"><ele>323.0</ele><time>2026-04-04T15:43:29.686Z</time></trkpt><trkpt lat="43.6961017" lon="12.8052433"><ele>323.0</ele><time>2026-04-04T15:43:30.688Z</time></trkpt><trkpt lat="43.6960933" lon="12.8051333"><ele>323.0</ele><time>2026-04-04T15:43:31.689Z</time></trkpt><trkpt lat="43.6961017" lon="12.8050033"><ele>323.0</ele><time>2026-04-04T15:43:32.69Z</time></trkpt><trkpt lat="43.69612" lon="12.8048517"><ele>324.0</ele><time>2026-04-04T15:43:33.69Z</time></trkpt><trkpt lat="43.6961267" lon="12.8047117"><ele>325.0</ele><time>2026-04-04T15:43:34.689Z</time></trkpt><trkpt lat="43.6961133" lon="12.8045467"><ele>326.0</ele><time>2026-04-04T15:43:35.689Z</time></trkpt><trkpt lat="43.6960767" lon="12.8043883"><ele>327.0</ele><time>2026-04-04T15:43:36.688Z</time></trkpt><trkpt lat="43.696025" lon="12.8042267"><ele>330.75</ele><time>2026-04-04T15:43:37.69Z</time></trkpt><trkpt lat="43.6959683" lon="12.80407"><ele>334.5</ele><time>2026-04-04T15:43:38.69Z</time></trkpt><trkpt lat="43.6959183" lon="12.80391"><ele>338.25</ele><time>2026-04-04T15:43:39.688Z</time></trkpt><trkpt lat="43.695885" lon="12.803745"><ele>342.0</ele><time>2026-04-04T15:43:40.689Z</time></trkpt><trkpt lat="43.6958583" lon="12.803585"><ele>344.75</ele><time>2026-04-04T15:43:41.686Z</time></trkpt><trkpt lat="43.6958417" lon="12.8034317"><ele>347.5</ele><time>2026-04-04T15:43:42.689Z</time></trkpt><trkpt lat="43.695845" lon="12.8032733"><ele>350.25</ele><time>2026-04-04T15:43:43.687Z</time></trkpt><trkpt lat="43.6958683" lon="12.803115"><ele>353.0</ele><time>2026-04-04T15:43:44.689Z</time></trkpt><trkpt lat="43.69594" lon="12.802775"><ele>353.0</ele><time>2026-04-04T15:43:46.686Z</time></trkpt><trkpt lat="43.6959667" lon="12.80259"><ele>353.0</ele><time>2026-04-04T15:43:47.691Z</time></trkpt><trkpt lat="43.6959833" lon="12.8023967"><ele>353.0</ele><time>2026-04-04T15:43:48.687Z</time></trkpt><trkpt lat="43.6959967" lon="12.8022033"><ele>353.0</ele><time>2026-04-04T15:43:49.687Z</time></trkpt><trkpt lat="43.6960083" lon="12.8020133"><ele>353.25</ele><time>2026-04-04T15:43:50.688Z</time></trkpt><trkpt lat="43.6960133" lon="12.8018167"><ele>353.5</ele><time>2026-04-04T15:43:51.688Z</time></trkpt><trkpt lat="43.6960183" lon="12.8016217"><ele>353.75</ele><time>2026-04-04T15:43:52.687Z</time></trkpt><trkpt lat="43.6960217" lon="12.8014317"><ele>354.0</ele><time>2026-04-04T15:43:53.69Z</time></trkpt><trkpt lat="43.6960333" lon="12.8012467"><ele>354.0</ele><time>2026-04-04T15:43:54.688Z</time></trkpt><trkpt lat="43.6960467" lon="12.8010633"><ele>354.0</ele><time>2026-04-04T15:43:55.688Z</time></trkpt><trkpt lat="43.6960683" lon="12.8008833"><ele>354.0</ele><time>2026-04-04T15:43:56.688Z</time></trkpt><trkpt lat="43.6961033" lon="12.8006983"><ele>354.0</ele><time>2026-04-04T15:43:57.687Z</time></trkpt><trkpt lat="43.6961467" lon="12.800515"><ele>361.25</ele><time>2026-04-04T15:43:58.689Z</time></trkpt><trkpt lat="43.6961917" lon="12.800325"><ele>368.5</ele><time>2026-04-04T15:43:59.683Z</time></trkpt><trkpt lat="43.69624" lon="12.8001417"><ele>375.75</ele><time>2026-04-04T15:44:00.689Z</time></trkpt><trkpt lat="43.6962833" lon="12.799955"><ele>383.0</ele><time>2026-04-04T15:44:01.689Z</time></trkpt><trkpt lat="43.696325" lon="12.7997633"><ele>383.75</ele><time>2026-04-04T15:44:02.687Z</time></trkpt><trkpt lat="43.69637" lon="12.7995867"><ele>384.5</ele><time>2026-04-04T15:44:03.689Z</time></trkpt><trkpt lat="43.69643" lon="12.7994167"><ele>385.25</ele><time>2026-04-04T15:44:04.688Z</time></trkpt><trkpt lat="43.6965" lon="12.7992483"><ele>386.0</ele><time>2026-04-04T15:44:05.687Z</time></trkpt><trkpt lat="43.6966717" lon="12.7989317"><ele>383.5</ele><time>2026-04-04T15:44:07.687Z</time></trkpt><trkpt lat="43.69677" lon="12.7987983"><ele>381.0</ele><time>2026-04-04T15:44:08.685Z</time></trkpt><trkpt lat="43.6968717" lon="12.7986783"><ele>378.5</ele><time>2026-04-04T15:44:09.687Z</time></trkpt><trkpt lat="43.6969783" lon="12.798565"><ele>376.0</ele><time>2026-04-04T15:44:10.686Z</time></trkpt><trkpt lat="43.6970967" lon="12.7984483"><ele>373.25</ele><time>2026-04-04T15:44:11.686Z</time></trkpt><trkpt lat="43.6972183" lon="12.7983333"><ele>370.5</ele><time>2026-04-04T15:44:12.69Z</time></trkpt><trkpt lat="43.6973417" lon="12.7982117"><ele>367.75</ele><time>2026-04-04T15:44:13.692Z</time></trkpt><trkpt lat="43.6974633" lon="12.79809"><ele>365.0</ele><time>2026-04-04T15:44:14.685Z</time></trkpt><trkpt lat="43.6975867" lon="12.7979617"><ele>365.0</ele><time>2026-04-04T15:44:15.687Z</time></trkpt><trkpt lat="43.6977083" lon="12.797845"><ele>365.0</ele><time>2026-04-04T15:44:16.688Z</time></trkpt><trkpt lat="43.697825" lon="12.797725"><ele>365.0</ele><time>2026-04-04T15:44:17.687Z</time></trkpt><trkpt lat="43.6979283" lon="12.7976033"><ele>365.0</ele><time>2026-04-04T15:44:18.688Z</time></trkpt><trkpt lat="43.6980233" lon="12.79746"><ele>364.0</ele><time>2026-04-04T15:44:19.689Z</time></trkpt><trkpt lat="43.6981067" lon="12.7973017"><ele>363.0</ele><time>2026-04-04T15:44:20.688Z</time></trkpt><trkpt lat="43.69818" lon="12.7971333"><ele>362.0</ele><time>2026-04-04T15:44:21.687Z</time></trkpt><trkpt lat="43.69825" lon="12.79696"><ele>361.0</ele><time>2026-04-04T15:44:22.69Z</time></trkpt><trkpt lat="43.69831" lon="12.7967983"><ele>363.5</ele><time>2026-04-04T15:44:23.689Z</time></trkpt><trkpt lat="43.6983667" lon="12.79665"><ele>366.0</ele><time>2026-04-04T15:44:24.686Z</time></trkpt><trkpt lat="43.6984067" lon="12.7965"><ele>368.5</ele><time>2026-04-04T15:44:25.687Z</time></trkpt><trkpt lat="43.6984333" lon="12.7963333"><ele>371.0</ele><time>2026-04-04T15:44:26.689Z</time></trkpt><trkpt lat="43.6984417" lon="12.7959867"><ele>373.0</ele><time>2026-04-04T15:44:28.688Z</time></trkpt><trkpt lat="43.698445" lon="12.7958067"><ele>375.0</ele><time>2026-04-04T15:44:29.689Z</time></trkpt><trkpt lat="43.698465" lon="12.7956267"><ele>377.0</ele><time>2026-04-04T15:44:30.687Z</time></trkpt><trkpt lat="43.6985033" lon="12.795455"><ele>379.0</ele><time>2026-04-04T15:44:31.688Z</time></trkpt><trkpt lat="43.698555" lon="12.7952883"><ele>376.2</ele><time>2026-04-04T15:44:32.686Z</time></trkpt><trkpt lat="43.69861" lon="12.7951267"><ele>373.4</ele><time>2026-04-04T15:44:33.686Z</time></trkpt><trkpt lat="43.6986667" lon="12.7949833"><ele>370.6</ele><time>2026-04-04T15:44:34.687Z</time></trkpt><trkpt lat="43.6987033" lon="12.7948517"><ele>367.8</ele><time>2026-04-04T15:44:35.691Z</time></trkpt><trkpt lat="43.6987167" lon="12.794715"><ele>365.0</ele><time>2026-04-04T15:44:36.688Z</time></trkpt><trkpt lat="43.6987267" lon="12.7945783"><ele>365.0</ele><time>2026-04-04T15:44:37.687Z</time></trkpt><trkpt lat="43.6987433" lon="12.794465"><ele>365.0</ele><time>2026-04-04T15:44:38.687Z</time></trkpt><trkpt lat="43.6987717" lon="12.7943633"><ele>365.0</ele><time>2026-04-04T15:44:39.685Z</time></trkpt><trkpt lat="43.69882" lon="12.79428"><ele>365.0</ele><time>2026-04-04T15:44:40.685Z</time></trkpt><trkpt lat="43.698885" lon="12.7942183"><ele>365.0</ele><time>2026-04-04T15:44:41.686Z</time></trkpt><trkpt lat="43.69897" lon="12.7941617"><ele>365.0</ele><time>2026-04-04T15:44:42.686Z</time></trkpt><trkpt lat="43.6990583" lon="12.794075"><ele>369.25</ele><time>2026-04-04T15:44:43.688Z</time></trkpt><trkpt lat="43.69913" lon="12.7939467"><ele>373.5</ele><time>2026-04-04T15:44:44.688Z</time></trkpt><trkpt lat="43.699195" lon="12.79381"><ele>377.75</ele><time>2026-04-04T15:44:45.687Z</time></trkpt><trkpt lat="43.6992517" lon="12.79367"><ele>382.0</ele><time>2026-04-04T15:44:46.686Z</time></trkpt><trkpt lat="43.6993083" lon="12.7935433"><ele>382.0</ele><time>2026-04-04T15:44:47.686Z</time></trkpt><trkpt lat="43.6993767" lon="12.793365"><ele>382.0</ele><time>2026-04-04T15:44:49.69Z</time></trkpt><trkpt lat="43.699395" lon="12.7932767"><ele>382.0</ele><time>2026-04-04T15:44:51.688Z</time></trkpt><trkpt lat="43.69933" lon="12.7933233"><ele>382.0</ele><time>2026-04-04T15:44:54.686Z</time></trkpt><trkpt lat="43.6992567" lon="12.7934333"><ele>382.0</ele><time>2026-04-04T15:44:56.686Z</time></trkpt><trkpt lat="43.699205" lon="12.7935183"><ele>382.0</ele><time>2026-04-04T15:44:57.687Z</time></trkpt><trkpt lat="43.6991217" lon="12.793635"><ele>382.0</ele><time>2026-04-04T15:44:58.686Z</time></trkpt><trkpt lat="43.6990483" lon="12.7937"><ele>382.0</ele><time>2026-04-04T15:44:59.686Z</time></trkpt><trkpt lat="43.69897" lon="12.793745"><ele>382.0</ele><time>2026-04-04T15:45:00.688Z</time></trkpt><trkpt lat="43.6988767" lon="12.79379"><ele>382.0</ele><time>2026-04-04T15:45:01.686Z</time></trkpt><trkpt lat="43.6987733" lon="12.793825"><ele>382.0</ele><time>2026-04-04T15:45:02.686Z</time></trkpt><trkpt lat="43.6986667" lon="12.7938467"><ele>382.0</ele><time>2026-04-04T15:45:03.686Z</time></trkpt><trkpt lat="43.6985617" lon="12.7938833"><ele>382.0</ele><time>2026-04-04T15:45:04.687Z</time></trkpt><trkpt lat="43.69846" lon="12.793935"><ele>382.0</ele><time>2026-04-04T15:45:05.69Z</time></trkpt><trkpt lat="43.6983683" lon="12.794005"><ele>382.0</ele><time>2026-04-04T15:45:06.687Z</time></trkpt><trkpt lat="43.6982783" lon="12.7941"><ele>383.0</ele><time>2026-04-04T15:45:07.688Z</time></trkpt><trkpt lat="43.698205" lon="12.7942067"><ele>384.0</ele><time>2026-04-04T15:45:08.688Z</time></trkpt><trkpt lat="43.698085" lon="12.7943717"><ele>385.0</ele><time>2026-04-04T15:45:10.688Z</time></trkpt><trkpt lat="43.6980017" lon="12.7944133"><ele>386.0</ele><time>2026-04-04T15:45:12.686Z</time></trkpt><trkpt lat="43.697945" lon="12.7943217"><ele>392.0</ele><time>2026-04-04T15:45:14.688Z</time></trkpt><trkpt lat="43.6979117" lon="12.7941967"><ele>398.0</ele><time>2026-04-04T15:45:16.688Z</time></trkpt><trkpt lat="43.69792" lon="12.794015"><ele>404.0</ele><time>2026-04-04T15:45:18.686Z</time></trkpt><trkpt lat="43.6980567" lon="12.79369"><ele>403.99999999999994</ele><time>2026-04-04T15:45:19.689Z</time></trkpt><trkpt lat="43.6980967" lon="12.7936117"><ele>404.0</ele><time>2026-04-04T15:45:20.686Z</time></trkpt><trkpt lat="43.69814" lon="12.7935017"><ele>404.0</ele><time>2026-04-04T15:45:21.685Z</time></trkpt><trkpt lat="43.69816" lon="12.7934133"><ele>404.0</ele><time>2026-04-04T15:45:22.689Z</time></trkpt><trkpt lat="43.6981983" lon="12.7932867"><ele>403.99999999999994</ele><time>2026-04-04T15:45:23.689Z</time></trkpt><trkpt lat="43.6982" lon="12.79317"><ele>404.0</ele><time>2026-04-04T15:45:25.687Z</time></trkpt><trkpt lat="43.69809" lon="12.7931267"><ele>407.6</ele><time>2026-04-04T15:45:27.686Z</time></trkpt><trkpt lat="43.6980183" lon="12.79314"><ele>411.2</ele><time>2026-04-04T15:45:28.688Z</time></trkpt><trkpt lat="43.6979383" lon="12.793195"><ele>414.8</ele><time>2026-04-04T15:45:29.688Z</time></trkpt><trkpt lat="43.6978067" lon="12.7933183"><ele>418.40000000000003</ele><time>2026-04-04T15:45:31.688Z</time></trkpt><trkpt lat="43.6977417" lon="12.7933783"><ele>422.0</ele><time>2026-04-04T15:45:32.686Z</time></trkpt><trkpt lat="43.69766" lon="12.793415"><ele>424.20000000000005</ele><time>2026-04-04T15:45:33.687Z</time></trkpt><trkpt lat="43.6975533" lon="12.793445"><ele>426.4</ele><time>2026-04-04T15:45:34.687Z</time></trkpt><trkpt lat="43.69746" lon="12.7934267"><ele>428.59999999999997</ele><time>2026-04-04T15:45:35.687Z</time></trkpt><trkpt lat="43.6973683" lon="12.7934117"><ele>430.79999999999995</ele><time>2026-04-04T15:45:36.686Z</time></trkpt><trkpt lat="43.697275" lon="12.79341"><ele>433.0</ele><time>2026-04-04T15:45:37.689Z</time></trkpt><trkpt lat="43.6971817" lon="12.793435"><ele>433.0</ele><time>2026-04-04T15:45:38.687Z</time></trkpt><trkpt lat="43.697085" lon="12.7934783"><ele>432.99999999999994</ele><time>2026-04-04T15:45:39.687Z</time></trkpt><trkpt lat="43.69699" lon="12.7935083"><ele>432.99999999999994</ele><time>2026-04-04T15:45:40.687Z</time></trkpt><trkpt lat="43.6968867" lon="12.7935167"><ele>433.0</ele><time>2026-04-04T15:45:41.689Z</time></trkpt><trkpt lat="43.6967817" lon="12.7935117"><ele>433.0</ele><time>2026-04-04T15:45:42.687Z</time></trkpt><trkpt lat="43.6966617" lon="12.7935"><ele>437.0</ele><time>2026-04-04T15:45:43.687Z</time></trkpt><trkpt lat="43.6965383" lon="12.79348"><ele>441.0</ele><time>2026-04-04T15:45:44.687Z</time></trkpt><trkpt lat="43.6963967" lon="12.7934717"><ele>445.0</ele><time>2026-04-04T15:45:45.686Z</time></trkpt><trkpt lat="43.6962633" lon="12.7934667"><ele>449.0</ele><time>2026-04-04T15:45:46.687Z</time></trkpt><trkpt lat="43.69614" lon="12.7934417"><ele>449.75</ele><time>2026-04-04T15:45:47.688Z</time></trkpt><trkpt lat="43.6960183" lon="12.79341"><ele>450.5</ele><time>2026-04-04T15:45:48.687Z</time></trkpt><trkpt lat="43.695895" lon="12.7933767"><ele>451.25</ele><time>2026-04-04T15:45:49.689Z</time></trkpt><trkpt lat="43.6957617" lon="12.7933317"><ele>452.0</ele><time>2026-04-04T15:45:50.687Z</time></trkpt><trkpt lat="43.6954783" lon="12.7932583"><ele>452.0</ele><time>2026-04-04T15:45:52.687Z</time></trkpt><trkpt lat="43.6953367" lon="12.7932367"><ele>452.0</ele><time>2026-04-04T15:45:53.688Z</time></trkpt><trkpt lat="43.6952167" lon="12.793215"><ele>452.0</ele><time>2026-04-04T15:45:54.686Z</time></trkpt><trkpt lat="43.6951067" lon="12.793185"><ele>452.0</ele><time>2026-04-04T15:45:55.688Z</time></trkpt><trkpt lat="43.6950133" lon="12.7931433"><ele>450.99999999999994</ele><time>2026-04-04T15:45:56.686Z</time></trkpt><trkpt lat="43.6949333" lon="12.79308"><ele>450.0</ele><time>2026-04-04T15:45:57.687Z</time></trkpt><trkpt lat="43.6948733" lon="12.7930017"><ele>449.0</ele><time>2026-04-04T15:45:58.69Z</time></trkpt><trkpt lat="43.69481" lon="12.7929383"><ele>448.0</ele><time>2026-04-04T15:45:59.686Z</time></trkpt><trkpt lat="43.6947467" lon="12.7928967"><ele>446.99999999999994</ele><time>2026-04-04T15:46:00.687Z</time></trkpt><trkpt lat="43.6946717" lon="12.7928683"><ele>446.0</ele><time>2026-04-04T15:46:01.689Z</time></trkpt><trkpt lat="43.6945883" lon="12.7928517"><ele>446.0</ele><time>2026-04-04T15:46:02.691Z</time></trkpt><trkpt lat="43.6944917" lon="12.7928483"><ele>446.0</ele><time>2026-04-04T15:46:03.691Z</time></trkpt><trkpt lat="43.6943717" lon="12.79289"><ele>446.0</ele><time>2026-04-04T15:46:04.689Z</time></trkpt><trkpt lat="43.694245" lon="12.7929367"><ele>446.0</ele><time>2026-04-04T15:46:05.687Z</time></trkpt><trkpt lat="43.6941217" lon="12.7929717"><ele>445.0</ele><time>2026-04-04T15:46:06.688Z</time></trkpt><trkpt lat="43.6939967" lon="12.7930117"><ele>444.0</ele><time>2026-04-04T15:46:07.688Z</time></trkpt><trkpt lat="43.69388" lon="12.793055"><ele>443.0</ele><time>2026-04-04T15:46:08.688Z</time></trkpt><trkpt lat="43.693735" lon="12.7931083"><ele>442.0</ele><time>2026-04-04T15:46:09.689Z</time></trkpt><trkpt lat="43.693615" lon="12.793145"><ele>442.75</ele><time>2026-04-04T15:46:10.689Z</time></trkpt><trkpt lat="43.6934967" lon="12.79318"><ele>443.5</ele><time>2026-04-04T15:46:11.687Z</time></trkpt><trkpt lat="43.6933067" lon="12.7931917"><ele>444.25</ele><time>2026-04-04T15:46:13.688Z</time></trkpt><trkpt lat="43.6932183" lon="12.7931567"><ele>445.0</ele><time>2026-04-04T15:46:14.69Z</time></trkpt><trkpt lat="43.6931283" lon="12.7930967"><ele>445.0</ele><time>2026-04-04T15:46:15.687Z</time></trkpt><trkpt lat="43.69305" lon="12.7930183"><ele>445.0</ele><time>2026-04-04T15:46:16.688Z</time></trkpt><trkpt lat="43.6929767" lon="12.7929167"><ele>445.0</ele><time>2026-04-04T15:46:17.688Z</time></trkpt><trkpt lat="43.6929083" lon="12.7928033"><ele>445.0</ele><time>2026-04-04T15:46:18.687Z</time></trkpt><trkpt lat="43.6928433" lon="12.79269"><ele>445.0</ele><time>2026-04-04T15:46:19.69Z</time></trkpt><trkpt lat="43.6927633" lon="12.7926033"><ele>443.83333333333337</ele><time>2026-04-04T15:46:20.687Z</time></trkpt><trkpt lat="43.6926883" lon="12.7925333"><ele>442.6666666666667</ele><time>2026-04-04T15:46:21.686Z</time></trkpt><trkpt lat="43.692615" lon="12.7924717"><ele>441.5</ele><time>2026-04-04T15:46:22.689Z</time></trkpt><trkpt lat="43.6925467" lon="12.7924033"><ele>440.33333333333337</ele><time>2026-04-04T15:46:23.689Z</time></trkpt><trkpt lat="43.69248" lon="12.792335"><ele>439.1666666666667</ele><time>2026-04-04T15:46:24.689Z</time></trkpt><trkpt lat="43.6924133" lon="12.7922583"><ele>438.0</ele><time>2026-04-04T15:46:25.691Z</time></trkpt><trkpt lat="43.6923533" lon="12.7921733"><ele>438.0</ele><time>2026-04-04T15:46:26.689Z</time></trkpt><trkpt lat="43.6922983" lon="12.79209"><ele>438.0</ele><time>2026-04-04T15:46:27.687Z</time></trkpt><trkpt lat="43.69226" lon="12.7920017"><ele>438.0</ele><time>2026-04-04T15:46:28.688Z</time></trkpt><trkpt lat="43.6922267" lon="12.7919167"><ele>438.0</ele><time>2026-04-04T15:46:29.689Z</time></trkpt><trkpt lat="43.69221" lon="12.7918083"><ele>438.0</ele><time>2026-04-04T15:46:30.687Z</time></trkpt><trkpt lat="43.6922183" lon="12.79167"><ele>438.0</ele><time>2026-04-04T15:46:31.688Z</time></trkpt><trkpt lat="43.6922067" lon="12.7915367"><ele>440.0</ele><time>2026-04-04T15:46:32.687Z</time></trkpt><trkpt lat="43.6921083" lon="12.7912633"><ele>442.0</ele><time>2026-04-04T15:46:34.687Z</time></trkpt><trkpt lat="43.6920383" lon="12.7911367"><ele>444.0</ele><time>2026-04-04T15:46:35.689Z</time></trkpt><trkpt lat="43.69198" lon="12.7910317"><ele>446.0</ele><time>2026-04-04T15:46:36.687Z</time></trkpt><trkpt lat="43.691935" lon="12.79092"><ele>443.6</ele><time>2026-04-04T15:46:37.69Z</time></trkpt><trkpt lat="43.6919017" lon="12.7908067"><ele>441.20000000000005</ele><time>2026-04-04T15:46:38.687Z</time></trkpt><trkpt lat="43.6918717" lon="12.7906767"><ele>438.79999999999995</ele><time>2026-04-04T15:46:39.686Z</time></trkpt><trkpt lat="43.6918483" lon="12.790545"><ele>436.4</ele><time>2026-04-04T15:46:40.689Z</time></trkpt><trkpt lat="43.6918383" lon="12.7904117"><ele>434.0</ele><time>2026-04-04T15:46:41.689Z</time></trkpt><trkpt lat="43.6918317" lon="12.790275"><ele>435.0</ele><time>2026-04-04T15:46:42.688Z</time></trkpt><trkpt lat="43.691825" lon="12.7901267"><ele>436.0</ele><time>2026-04-04T15:46:43.688Z</time></trkpt><trkpt lat="43.69183" lon="12.7899583"><ele>437.0</ele><time>2026-04-04T15:46:44.686Z</time></trkpt><trkpt lat="43.6918283" lon="12.7898"><ele>438.0</ele><time>2026-04-04T15:46:45.686Z</time></trkpt><trkpt lat="43.691825" lon="12.7896583"><ele>439.0</ele><time>2026-04-04T15:46:46.687Z</time></trkpt><trkpt lat="43.6918367" lon="12.78953"><ele>439.0</ele><time>2026-04-04T15:46:47.687Z</time></trkpt><trkpt lat="43.691855" lon="12.7894017"><ele>439.0</ele><time>2026-04-04T15:46:48.687Z</time></trkpt><trkpt lat="43.6918833" lon="12.7892717"><ele>439.0</ele><time>2026-04-04T15:46:49.688Z</time></trkpt><trkpt lat="43.6919183" lon="12.7891317"><ele>439.0</ele><time>2026-04-04T15:46:50.689Z</time></trkpt><trkpt lat="43.6919317" lon="12.7890067"><ele>439.0</ele><time>2026-04-04T15:46:51.687Z</time></trkpt><trkpt lat="43.6919267" lon="12.788885"><ele>440.25</ele><time>2026-04-04T15:46:52.687Z</time></trkpt><trkpt lat="43.69191" lon="12.7887667"><ele>441.5</ele><time>2026-04-04T15:46:53.688Z</time></trkpt><trkpt lat="43.6918517" lon="12.7885467"><ele>442.75</ele><time>2026-04-04T15:46:55.687Z</time></trkpt><trkpt lat="43.6917733" lon="12.7884617"><ele>444.0</ele><time>2026-04-04T15:46:56.685Z</time></trkpt><trkpt lat="43.6917017" lon="12.78836"><ele>445.4</ele><time>2026-04-04T15:46:57.687Z</time></trkpt><trkpt lat="43.6916467" lon="12.7882333"><ele>446.79999999999995</ele><time>2026-04-04T15:46:58.687Z</time></trkpt><trkpt lat="43.6915967" lon="12.7880983"><ele>448.20000000000005</ele><time>2026-04-04T15:46:59.688Z</time></trkpt><trkpt lat="43.69155" lon="12.7879583"><ele>449.6</ele><time>2026-04-04T15:47:00.688Z</time></trkpt><trkpt lat="43.6915067" lon="12.7878233"><ele>451.0</ele><time>2026-04-04T15:47:01.687Z</time></trkpt><trkpt lat="43.6914867" lon="12.7876983"><ele>453.20000000000005</ele><time>2026-04-04T15:47:02.686Z</time></trkpt><trkpt lat="43.6914883" lon="12.7875733"><ele>455.40000000000003</ele><time>2026-04-04T15:47:03.686Z</time></trkpt><trkpt lat="43.691505" lon="12.7874417"><ele>457.6</ele><time>2026-04-04T15:47:04.687Z</time></trkpt><trkpt lat="43.6915317" lon="12.787305"><ele>459.8</ele><time>2026-04-04T15:47:05.687Z</time></trkpt><trkpt lat="43.6915467" lon="12.7871617"><ele>462.0</ele><time>2026-04-04T15:47:06.688Z</time></trkpt><trkpt lat="43.691545" lon="12.787005"><ele>462.0</ele><time>2026-04-04T15:47:07.688Z</time></trkpt><trkpt lat="43.6915383" lon="12.7868533"><ele>462.00000000000006</ele><time>2026-04-04T15:47:08.688Z</time></trkpt><trkpt lat="43.6915367" lon="12.7867017"><ele>462.00000000000006</ele><time>2026-04-04T15:47:09.688Z</time></trkpt><trkpt lat="43.6915417" lon="12.7865467"><ele>462.0</ele><time>2026-04-04T15:47:10.69Z</time></trkpt><trkpt lat="43.6915617" lon="12.78639"><ele>462.0</ele><time>2026-04-04T15:47:11.688Z</time></trkpt><trkpt lat="43.69157" lon="12.7862317"><ele>461.66666666666663</ele><time>2026-04-04T15:47:12.691Z</time></trkpt><trkpt lat="43.6915633" lon="12.7860833"><ele>461.3333333333333</ele><time>2026-04-04T15:47:13.691Z</time></trkpt><trkpt lat="43.6915533" lon="12.7859317"><ele>461.0</ele><time>2026-04-04T15:47:14.688Z</time></trkpt><trkpt lat="43.6915517" lon="12.7855967"><ele>459.5</ele><time>2026-04-04T15:47:16.689Z</time></trkpt><trkpt lat="43.6915667" lon="12.7854217"><ele>458.0</ele><time>2026-04-04T15:47:17.687Z</time></trkpt><trkpt lat="43.69159" lon="12.7852433"><ele>456.5</ele><time>2026-04-04T15:47:18.687Z</time></trkpt><trkpt lat="43.691605" lon="12.7850683"><ele>455.0</ele><time>2026-04-04T15:47:19.687Z</time></trkpt><trkpt lat="43.6916133" lon="12.7848983"><ele>455.0</ele><time>2026-04-04T15:47:20.688Z</time></trkpt><trkpt lat="43.6916217" lon="12.7847317"><ele>455.0</ele><time>2026-04-04T15:47:21.689Z</time></trkpt><trkpt lat="43.6916383" lon="12.7845583"><ele>455.0</ele><time>2026-04-04T15:47:22.688Z</time></trkpt><trkpt lat="43.6916417" lon="12.7843817"><ele>455.0</ele><time>2026-04-04T15:47:23.689Z</time></trkpt><trkpt lat="43.6916383" lon="12.7842017"><ele>456.75</ele><time>2026-04-04T15:47:24.688Z</time></trkpt><trkpt lat="43.6916383" lon="12.7840217"><ele>458.5</ele><time>2026-04-04T15:47:25.688Z</time></trkpt><trkpt lat="43.69163" lon="12.78384"><ele>460.25</ele><time>2026-04-04T15:47:26.688Z</time></trkpt><trkpt lat="43.691625" lon="12.7836567"><ele>462.0</ele><time>2026-04-04T15:47:27.689Z</time></trkpt><trkpt lat="43.69162" lon="12.7834767"><ele>462.0</ele><time>2026-04-04T15:47:28.688Z</time></trkpt><trkpt lat="43.6916133" lon="12.7833017"><ele>462.0</ele><time>2026-04-04T15:47:29.69Z</time></trkpt><trkpt lat="43.6916117" lon="12.7831333"><ele>462.0</ele><time>2026-04-04T15:47:30.69Z</time></trkpt><trkpt lat="43.69161" lon="12.78297"><ele>462.0</ele><time>2026-04-04T15:47:31.689Z</time></trkpt><trkpt lat="43.6916233" lon="12.7828117"><ele>458.0</ele><time>2026-04-04T15:47:32.689Z</time></trkpt><trkpt lat="43.69164" lon="12.78266"><ele>454.0</ele><time>2026-04-04T15:47:33.688Z</time></trkpt><trkpt lat="43.6916667" lon="12.7825233"><ele>450.0</ele><time>2026-04-04T15:47:34.689Z</time></trkpt><trkpt lat="43.6917117" lon="12.7824233"><ele>446.0</ele><time>2026-04-04T15:47:35.689Z</time></trkpt><trkpt lat="43.6918533" lon="12.782275"><ele>455.6</ele><time>2026-04-04T15:47:37.69Z</time></trkpt><trkpt lat="43.6919417" lon="12.7822017"><ele>465.20000000000005</ele><time>2026-04-04T15:47:38.691Z</time></trkpt><trkpt lat="43.6920333" lon="12.7821167"><ele>474.79999999999995</ele><time>2026-04-04T15:47:39.686Z</time></trkpt><trkpt lat="43.6921233" lon="12.78202"><ele>484.4</ele><time>2026-04-04T15:47:40.688Z</time></trkpt><trkpt lat="43.69221" lon="12.781935"><ele>494.0</ele><time>2026-04-04T15:47:41.688Z</time></trkpt><trkpt lat="43.69228" lon="12.7818583"><ele>490.6</ele><time>2026-04-04T15:47:42.687Z</time></trkpt><trkpt lat="43.692345" lon="12.781785"><ele>487.2</ele><time>2026-04-04T15:47:43.688Z</time></trkpt><trkpt lat="43.692395" lon="12.7817"><ele>483.80000000000007</ele><time>2026-04-04T15:47:44.69Z</time></trkpt><trkpt lat="43.6924317" lon="12.7816"><ele>480.40000000000003</ele><time>2026-04-04T15:47:45.687Z</time></trkpt><trkpt lat="43.6924517" lon="12.781455"><ele>477.0</ele><time>2026-04-04T15:47:46.689Z</time></trkpt><trkpt lat="43.6924617" lon="12.7812933"><ele>477.0</ele><time>2026-04-04T15:47:47.688Z</time></trkpt><trkpt lat="43.6924633" lon="12.7811083"><ele>477.0</ele><time>2026-04-04T15:47:48.688Z</time></trkpt><trkpt lat="43.6924733" lon="12.78091"><ele>477.0</ele><time>2026-04-04T15:47:49.689Z</time></trkpt><trkpt lat="43.692495" lon="12.780725"><ele>477.0</ele><time>2026-04-04T15:47:50.686Z</time></trkpt><trkpt lat="43.692505" lon="12.7805417"><ele>477.0</ele><time>2026-04-04T15:47:51.688Z</time></trkpt><trkpt lat="43.6925033" lon="12.7803517"><ele>477.0</ele><time>2026-04-04T15:47:52.688Z</time></trkpt><trkpt lat="43.6925033" lon="12.780185"><ele>477.0</ele><time>2026-04-04T15:47:53.686Z</time></trkpt><trkpt lat="43.6924933" lon="12.780035"><ele>477.0</ele><time>2026-04-04T15:47:54.687Z</time></trkpt><trkpt lat="43.692495" lon="12.7799067"><ele>477.8</ele><time>2026-04-04T15:47:55.689Z</time></trkpt><trkpt lat="43.6925" lon="12.779795"><ele>478.6</ele><time>2026-04-04T15:47:56.69Z</time></trkpt><trkpt lat="43.6925867" lon="12.7795833"><ele>479.40000000000003</ele><time>2026-04-04T15:48:00.689Z</time></trkpt><trkpt lat="43.6926283" lon="12.7794967"><ele>480.20000000000005</ele><time>2026-04-04T15:48:02.687Z</time></trkpt><trkpt lat="43.6926583" lon="12.779345"><ele>481.0</ele><time>2026-04-04T15:48:04.688Z</time></trkpt><trkpt lat="43.69266" lon="12.7792417"><ele>481.6666666666667</ele><time>2026-04-04T15:48:05.687Z</time></trkpt><trkpt lat="43.6926767" lon="12.7791283"><ele>482.33333333333337</ele><time>2026-04-04T15:48:06.69Z</time></trkpt><trkpt lat="43.69271" lon="12.7790183"><ele>483.0</ele><time>2026-04-04T15:48:07.688Z</time></trkpt><trkpt lat="43.6927483" lon="12.778915"><ele>483.66666666666663</ele><time>2026-04-04T15:48:08.687Z</time></trkpt><trkpt lat="43.6927967" lon="12.7788083"><ele>484.3333333333333</ele><time>2026-04-04T15:48:09.686Z</time></trkpt><trkpt lat="43.69286" lon="12.7787033"><ele>485.0</ele><time>2026-04-04T15:48:10.689Z</time></trkpt><trkpt lat="43.6929317" lon="12.7786067"><ele>486.8333333333333</ele><time>2026-04-04T15:48:11.688Z</time></trkpt><trkpt lat="43.692995" lon="12.7785217"><ele>488.66666666666663</ele><time>2026-04-04T15:48:12.689Z</time></trkpt><trkpt lat="43.6930667" lon="12.778455"><ele>490.5</ele><time>2026-04-04T15:48:13.69Z</time></trkpt><trkpt lat="43.6931467" lon="12.7783967"><ele>492.33333333333337</ele><time>2026-04-04T15:48:14.687Z</time></trkpt><trkpt lat="43.6932183" lon="12.77835"><ele>494.1666666666667</ele><time>2026-04-04T15:48:15.689Z</time></trkpt><trkpt lat="43.6932933" lon="12.7783133"><ele>496.0</ele><time>2026-04-04T15:48:16.688Z</time></trkpt><trkpt lat="43.69337" lon="12.77832"><ele>496.0</ele><time>2026-04-04T15:48:17.688Z</time></trkpt><trkpt lat="43.69351" lon="12.7784017"><ele>496.0</ele><time>2026-04-04T15:48:19.688Z</time></trkpt><trkpt lat="43.6935767" lon="12.7784117"><ele>496.0</ele><time>2026-04-04T15:48:20.686Z</time></trkpt><trkpt lat="43.6937" lon="12.7783717"><ele>496.0</ele><time>2026-04-04T15:48:22.687Z</time></trkpt><trkpt lat="43.69377" lon="12.7783233"><ele>496.0</ele><time>2026-04-04T15:48:23.688Z</time></trkpt><trkpt lat="43.6938433" lon="12.7782633"><ele>498.0</ele><time>2026-04-04T15:48:24.687Z</time></trkpt><trkpt lat="43.69393" lon="12.7781733"><ele>500.0</ele><time>2026-04-04T15:48:25.688Z</time></trkpt><trkpt lat="43.6940133" lon="12.7780967"><ele>502.0</ele><time>2026-04-04T15:48:26.687Z</time></trkpt><trkpt lat="43.6940967" lon="12.7780317"><ele>504.0</ele><time>2026-04-04T15:48:27.689Z</time></trkpt><trkpt lat="43.6941817" lon="12.7779833"><ele>506.0</ele><time>2026-04-04T15:48:28.687Z</time></trkpt><trkpt lat="43.6942667" lon="12.7779517"><ele>505.99999999999994</ele><time>2026-04-04T15:48:29.691Z</time></trkpt><trkpt lat="43.69435" lon="12.7779333"><ele>506.0</ele><time>2026-04-04T15:48:30.687Z</time></trkpt><trkpt lat="43.694435" lon="12.7779367"><ele>506.0</ele><time>2026-04-04T15:48:31.69Z</time></trkpt><trkpt lat="43.69452" lon="12.7779583"><ele>506.0</ele><time>2026-04-04T15:48:32.687Z</time></trkpt><trkpt lat="43.6946033" lon="12.7780067"><ele>505.99999999999994</ele><time>2026-04-04T15:48:33.688Z</time></trkpt><trkpt lat="43.6946867" lon="12.7780567"><ele>506.0</ele><time>2026-04-04T15:48:34.688Z</time></trkpt><trkpt lat="43.6947717" lon="12.7781"><ele>509.0</ele><time>2026-04-04T15:48:35.688Z</time></trkpt><trkpt lat="43.6948533" lon="12.7781217"><ele>512.0</ele><time>2026-04-04T15:48:36.688Z</time></trkpt><trkpt lat="43.694935" lon="12.77813"><ele>515.0</ele><time>2026-04-04T15:48:37.688Z</time></trkpt><trkpt lat="43.6950217" lon="12.7781067"><ele>518.0</ele><time>2026-04-04T15:48:38.688Z</time></trkpt><trkpt lat="43.6951667" lon="12.7780833"><ele>521.0</ele><time>2026-04-04T15:48:40.688Z</time></trkpt><trkpt lat="43.6952317" lon="12.778085"><ele>525.5</ele><time>2026-04-04T15:48:41.689Z</time></trkpt><trkpt lat="43.695295" lon="12.77811"><ele>530.0</ele><time>2026-04-04T15:48:42.688Z</time></trkpt><trkpt lat="43.6953867" lon="12.7781867"><ele>534.5</ele><time>2026-04-04T15:48:44.688Z</time></trkpt><trkpt lat="43.6954683" lon="12.77819"><ele>539.0</ele><time>2026-04-04T15:48:46.688Z</time></trkpt><trkpt lat="43.69552" lon="12.7781"><ele>543.5</ele><time>2026-04-04T15:48:48.688Z</time></trkpt><trkpt lat="43.6955333" lon="12.7779933"><ele>548.0</ele><time>2026-04-04T15:48:49.688Z</time></trkpt><trkpt lat="43.695545" lon="12.777875"><ele>548.0</ele><time>2026-04-04T15:48:50.688Z</time></trkpt><trkpt lat="43.69555" lon="12.77772"><ele>548.0</ele><time>2026-04-04T15:48:51.688Z</time></trkpt><trkpt lat="43.6955467" lon="12.7775483"><ele>548.0</ele><time>2026-04-04T15:48:52.689Z</time></trkpt><trkpt lat="43.6955333" lon="12.777345"><ele>548.0</ele><time>2026-04-04T15:48:53.688Z</time></trkpt><trkpt lat="43.6955267" lon="12.77719"><ele>547.0</ele><time>2026-04-04T15:48:54.688Z</time></trkpt><trkpt lat="43.6955367" lon="12.7769983"><ele>546.0</ele><time>2026-04-04T15:48:55.687Z</time></trkpt><trkpt lat="43.695545" lon="12.7768383"><ele>545.0</ele><time>2026-04-04T15:48:56.688Z</time></trkpt><trkpt lat="43.6955583" lon="12.7767333"><ele>544.0</ele><time>2026-04-04T15:48:57.688Z</time></trkpt><trkpt lat="43.6955917" lon="12.77664"><ele>543.0</ele><time>2026-04-04T15:48:58.687Z</time></trkpt><trkpt lat="43.69564" lon="12.77655"><ele>542.25</ele><time>2026-04-04T15:48:59.688Z</time></trkpt><trkpt lat="43.6957733" lon="12.77641"><ele>541.5</ele><time>2026-04-04T15:49:01.688Z</time></trkpt><trkpt lat="43.6958583" lon="12.7763517"><ele>540.75</ele><time>2026-04-04T15:49:02.688Z</time></trkpt><trkpt lat="43.695965" lon="12.7763167"><ele>540.0</ele><time>2026-04-04T15:49:03.688Z</time></trkpt><trkpt lat="43.6960733" lon="12.7762767"><ele>543.5</ele><time>2026-04-04T15:49:04.688Z</time></trkpt><trkpt lat="43.696195" lon="12.7762483"><ele>547.0</ele><time>2026-04-04T15:49:05.689Z</time></trkpt><trkpt lat="43.696315" lon="12.776225"><ele>550.5</ele><time>2026-04-04T15:49:06.689Z</time></trkpt><trkpt lat="43.6964483" lon="12.7761967"><ele>554.0</ele><time>2026-04-04T15:49:07.689Z</time></trkpt><trkpt lat="43.696585" lon="12.776175"><ele>554.0</ele><time>2026-04-04T15:49:08.688Z</time></trkpt><trkpt lat="43.69672" lon="12.77616"><ele>554.0</ele><time>2026-04-04T15:49:09.687Z</time></trkpt><trkpt lat="43.6968567" lon="12.77614"><ele>554.0</ele><time>2026-04-04T15:49:10.688Z</time></trkpt><trkpt lat="43.6969983" lon="12.77611"><ele>554.0</ele><time>2026-04-04T15:49:11.69Z</time></trkpt><trkpt lat="43.69715" lon="12.7760817"><ele>556.0</ele><time>2026-04-04T15:49:12.688Z</time></trkpt><trkpt lat="43.6972883" lon="12.776055"><ele>558.0</ele><time>2026-04-04T15:49:13.689Z</time></trkpt><trkpt lat="43.6974233" lon="12.7760283"><ele>560.0</ele><time>2026-04-04T15:49:14.69Z</time></trkpt><trkpt lat="43.6975617" lon="12.7759983"><ele>562.0</ele><time>2026-04-04T15:49:15.689Z</time></trkpt><trkpt lat="43.697705" lon="12.7759667"><ele>558.25</ele><time>2026-04-04T15:49:16.687Z</time></trkpt><trkpt lat="43.6978383" lon="12.77594"><ele>554.5</ele><time>2026-04-04T15:49:17.689Z</time></trkpt><trkpt lat="43.6979717" lon="12.7759017"><ele>550.75</ele><time>2026-04-04T15:49:18.689Z</time></trkpt><trkpt lat="43.6981067" lon="12.775875"><ele>547.0</ele><time>2026-04-04T15:49:19.687Z</time></trkpt><trkpt lat="43.698245" lon="12.7758567"><ele>547.0</ele><time>2026-04-04T15:49:20.688Z</time></trkpt><trkpt lat="43.6985233" lon="12.77582"><ele>547.0</ele><time>2026-04-04T15:49:22.687Z</time></trkpt><trkpt lat="43.6986667" lon="12.7758217"><ele>547.0</ele><time>2026-04-04T15:49:23.688Z</time></trkpt><trkpt lat="43.6988083" lon="12.775825"><ele>546.75</ele><time>2026-04-04T15:49:24.688Z</time></trkpt><trkpt lat="43.69895" lon="12.7758383"><ele>546.5</ele><time>2026-04-04T15:49:25.688Z</time></trkpt><trkpt lat="43.6990933" lon="12.7758583"><ele>546.25</ele><time>2026-04-04T15:49:26.687Z</time></trkpt><trkpt lat="43.6992283" lon="12.77589"><ele>546.0</ele><time>2026-04-04T15:49:27.689Z</time></trkpt><trkpt lat="43.6993517" lon="12.7759167"><ele>546.8</ele><time>2026-04-04T15:49:28.688Z</time></trkpt><trkpt lat="43.69947" lon="12.77594"><ele>547.6</ele><time>2026-04-04T15:49:29.688Z</time></trkpt><trkpt lat="43.69958" lon="12.7759683"><ele>548.4</ele><time>2026-04-04T15:49:30.687Z</time></trkpt><trkpt lat="43.6996817" lon="12.776"><ele>549.2</ele><time>2026-04-04T15:49:31.69Z</time></trkpt><trkpt lat="43.699775" lon="12.7760267"><ele>550.0</ele><time>2026-04-04T15:49:32.688Z</time></trkpt><trkpt lat="43.69986" lon="12.7760467"><ele>550.0</ele><time>2026-04-04T15:49:33.688Z</time></trkpt><trkpt lat="43.699935" lon="12.7760517"><ele>550.0</ele><time>2026-04-04T15:49:34.688Z</time></trkpt><trkpt lat="43.7000067" lon="12.77604"><ele>550.0</ele><time>2026-04-04T15:49:35.69Z</time></trkpt><trkpt lat="43.7000733" lon="12.7760033"><ele>550.0</ele><time>2026-04-04T15:49:36.689Z</time></trkpt><trkpt lat="43.7001417" lon="12.7759483"><ele>550.0</ele><time>2026-04-04T15:49:37.688Z</time></trkpt><trkpt lat="43.7002167" lon="12.7758817"><ele>550.0</ele><time>2026-04-04T15:49:38.687Z</time></trkpt><trkpt lat="43.7002967" lon="12.775795"><ele>550.6666666666667</ele><time>2026-04-04T15:49:39.687Z</time></trkpt><trkpt lat="43.7003833" lon="12.7756967"><ele>551.3333333333334</ele><time>2026-04-04T15:49:40.687Z</time></trkpt><trkpt lat="43.700475" lon="12.77559"><ele>552.0</ele><time>2026-04-04T15:49:41.688Z</time></trkpt><trkpt lat="43.70066" lon="12.775395"><ele>552.0</ele><time>2026-04-04T15:49:43.688Z</time></trkpt><trkpt lat="43.7007517" lon="12.7753167"><ele>552.0</ele><time>2026-04-04T15:49:44.689Z</time></trkpt><trkpt lat="43.70084" lon="12.775235"><ele>552.0</ele><time>2026-04-04T15:49:45.687Z</time></trkpt><trkpt lat="43.7009233" lon="12.7751483"><ele>552.0</ele><time>2026-04-04T15:49:46.689Z</time></trkpt><trkpt lat="43.701" lon="12.7750633"><ele>552.0</ele><time>2026-04-04T15:49:47.687Z</time></trkpt><trkpt lat="43.70107" lon="12.7749967"><ele>553.6</ele><time>2026-04-04T15:49:48.686Z</time></trkpt><trkpt lat="43.7011333" lon="12.774935"><ele>555.2</ele><time>2026-04-04T15:49:49.689Z</time></trkpt><trkpt lat="43.7011783" lon="12.774865"><ele>556.8</ele><time>2026-04-04T15:49:50.687Z</time></trkpt><trkpt lat="43.7012233" lon="12.77471"><ele>558.4</ele><time>2026-04-04T15:49:52.688Z</time></trkpt><trkpt lat="43.7012" lon="12.7746033"><ele>560.0</ele><time>2026-04-04T15:49:53.687Z</time></trkpt><trkpt lat="43.701105" lon="12.7744617"><ele>560.8</ele><time>2026-04-04T15:49:54.689Z</time></trkpt><trkpt lat="43.7010217" lon="12.774335"><ele>561.6</ele><time>2026-04-04T15:49:55.688Z</time></trkpt><trkpt lat="43.7009417" lon="12.7742083"><ele>562.4</ele><time>2026-04-04T15:49:56.69Z</time></trkpt><trkpt lat="43.7008733" lon="12.7740883"><ele>563.2</ele><time>2026-04-04T15:49:57.692Z</time></trkpt><trkpt lat="43.7008283" lon="12.773975"><ele>564.0</ele><time>2026-04-04T15:49:58.689Z</time></trkpt><trkpt lat="43.700805" lon="12.773875"><ele>564.0</ele><time>2026-04-04T15:49:59.688Z</time></trkpt><trkpt lat="43.70084" lon="12.7737667"><ele>564.0</ele><time>2026-04-04T15:50:01.691Z</time></trkpt><trkpt lat="43.70093" lon="12.7737967"><ele>564.0</ele><time>2026-04-04T15:50:03.689Z</time></trkpt><trkpt lat="43.7012117" lon="12.7739367"><ele>567.75</ele><time>2026-04-04T15:50:06.689Z</time></trkpt><trkpt lat="43.70133" lon="12.7739883"><ele>571.5</ele><time>2026-04-04T15:50:07.687Z</time></trkpt><trkpt lat="43.70145" lon="12.7740267"><ele>575.25</ele><time>2026-04-04T15:50:08.689Z</time></trkpt><trkpt lat="43.7015633" lon="12.774055"><ele>579.0</ele><time>2026-04-04T15:50:09.688Z</time></trkpt><trkpt lat="43.7016733" lon="12.7740883"><ele>579.0</ele><time>2026-04-04T15:50:10.688Z</time></trkpt><trkpt lat="43.7017767" lon="12.7741167"><ele>579.0</ele><time>2026-04-04T15:50:11.69Z</time></trkpt><trkpt lat="43.701885" lon="12.7741467"><ele>579.0</ele><time>2026-04-04T15:50:12.688Z</time></trkpt><trkpt lat="43.7019917" lon="12.7741617"><ele>579.0</ele><time>2026-04-04T15:50:13.69Z</time></trkpt><trkpt lat="43.7020917" lon="12.7741633"><ele>579.0</ele><time>2026-04-04T15:50:14.688Z</time></trkpt><trkpt lat="43.7021983" lon="12.7741433"><ele>580.2</ele><time>2026-04-04T15:50:15.687Z</time></trkpt><trkpt lat="43.7023033" lon="12.7741083"><ele>581.4</ele><time>2026-04-04T15:50:16.689Z</time></trkpt><trkpt lat="43.702405" lon="12.7740667"><ele>582.6</ele><time>2026-04-04T15:50:17.689Z</time></trkpt><trkpt lat="43.7025" lon="12.7740117"><ele>583.8</ele><time>2026-04-04T15:50:18.689Z</time></trkpt><trkpt lat="43.7025817" lon="12.773955"><ele>585.0</ele><time>2026-04-04T15:50:19.687Z</time></trkpt><trkpt lat="43.7026517" lon="12.7738967"><ele>585.0</ele><time>2026-04-04T15:50:20.686Z</time></trkpt><trkpt lat="43.702705" lon="12.77383"><ele>585.0</ele><time>2026-04-04T15:50:21.687Z</time></trkpt><trkpt lat="43.702745" lon="12.77376"><ele>585.0</ele><time>2026-04-04T15:50:22.687Z</time></trkpt><trkpt lat="43.702775" lon="12.7736633"><ele>585.0</ele><time>2026-04-04T15:50:23.688Z</time></trkpt><trkpt lat="43.7027933" lon="12.7735617"><ele>585.0</ele><time>2026-04-04T15:50:24.688Z</time></trkpt><trkpt lat="43.7028367" lon="12.7733317"><ele>584.5</ele><time>2026-04-04T15:50:26.69Z</time></trkpt><trkpt lat="43.702855" lon="12.7732267"><ele>584.0</ele><time>2026-04-04T15:50:27.688Z</time></trkpt><trkpt lat="43.7028567" lon="12.7731333"><ele>583.5</ele><time>2026-04-04T15:50:28.69Z</time></trkpt><trkpt lat="43.70282" lon="12.7730567"><ele>583.0</ele><time>2026-04-04T15:50:29.69Z</time></trkpt><trkpt lat="43.7027183" lon="12.7729183"><ele>582.5</ele><time>2026-04-04T15:50:31.688Z</time></trkpt><trkpt lat="43.702645" lon="12.7728717"><ele>582.0</ele><time>2026-04-04T15:50:32.687Z</time></trkpt><trkpt lat="43.702535" lon="12.7728767"><ele>585.5</ele><time>2026-04-04T15:50:33.687Z</time></trkpt><trkpt lat="43.7024117" lon="12.772895"><ele>589.0</ele><time>2026-04-04T15:50:34.687Z</time></trkpt><trkpt lat="43.7022917" lon="12.7729033"><ele>592.5</ele><time>2026-04-04T15:50:35.688Z</time></trkpt><trkpt lat="43.70218" lon="12.7728933"><ele>596.0</ele><time>2026-04-04T15:50:36.686Z</time></trkpt><trkpt lat="43.7020683" lon="12.77288"><ele>596.0</ele><time>2026-04-04T15:50:37.689Z</time></trkpt><trkpt lat="43.7019667" lon="12.7728467"><ele>596.0</ele><time>2026-04-04T15:50:38.687Z</time></trkpt><trkpt lat="43.70186" lon="12.7728067"><ele>596.0</ele><time>2026-04-04T15:50:39.687Z</time></trkpt><trkpt lat="43.7017617" lon="12.772755"><ele>596.0</ele><time>2026-04-04T15:50:40.689Z</time></trkpt><trkpt lat="43.7016833" lon="12.7726883"><ele>596.0</ele><time>2026-04-04T15:50:41.687Z</time></trkpt><trkpt lat="43.70162" lon="12.7726117"><ele>598.2</ele><time>2026-04-04T15:50:42.689Z</time></trkpt><trkpt lat="43.7015717" lon="12.7725433"><ele>600.4000000000001</ele><time>2026-04-04T15:50:43.686Z</time></trkpt><trkpt lat="43.7015467" lon="12.7723867"><ele>602.6</ele><time>2026-04-04T15:50:45.686Z</time></trkpt><trkpt lat="43.7016167" lon="12.7721817"><ele>604.8000000000001</ele><time>2026-04-04T15:50:47.687Z</time></trkpt><trkpt lat="43.7016217" lon="12.7720767"><ele>607.0</ele><time>2026-04-04T15:50:48.689Z</time></trkpt><trkpt lat="43.7016133" lon="12.7719583"><ele>609.0</ele><time>2026-04-04T15:50:49.694Z</time></trkpt><trkpt lat="43.7015933" lon="12.77183"><ele>611.0</ele><time>2026-04-04T15:50:50.689Z</time></trkpt><trkpt lat="43.701575" lon="12.771685"><ele>613.0</ele><time>2026-04-04T15:50:51.687Z</time></trkpt><trkpt lat="43.7015617" lon="12.7715367"><ele>615.0</ele><time>2026-04-04T15:50:52.689Z</time></trkpt><trkpt lat="43.70155" lon="12.7713717"><ele>617.0</ele><time>2026-04-04T15:50:53.69Z</time></trkpt><trkpt lat="43.701535" lon="12.7712133"><ele>617.0</ele><time>2026-04-04T15:50:54.687Z</time></trkpt><trkpt lat="43.701525" lon="12.771055"><ele>617.0</ele><time>2026-04-04T15:50:55.687Z</time></trkpt><trkpt lat="43.7015133" lon="12.7708983"><ele>617.0</ele><time>2026-04-04T15:50:56.688Z</time></trkpt><trkpt lat="43.7015133" lon="12.7707267"><ele>617.0</ele><time>2026-04-04T15:50:57.688Z</time></trkpt><trkpt lat="43.7015117" lon="12.7705533"><ele>618.0</ele><time>2026-04-04T15:50:58.688Z</time></trkpt><trkpt lat="43.7015217" lon="12.77038"><ele>619.0</ele><time>2026-04-04T15:50:59.688Z</time></trkpt><trkpt lat="43.7015317" lon="12.7702183"><ele>620.0</ele><time>2026-04-04T15:51:00.688Z</time></trkpt><trkpt lat="43.7015533" lon="12.7700283"><ele>621.0</ele><time>2026-04-04T15:51:01.69Z</time></trkpt><trkpt lat="43.7015667" lon="12.7698617"><ele>622.25</ele><time>2026-04-04T15:51:02.687Z</time></trkpt><trkpt lat="43.7015767" lon="12.7696917"><ele>623.5</ele><time>2026-04-04T15:51:03.689Z</time></trkpt><trkpt lat="43.701585" lon="12.769505"><ele>624.75</ele><time>2026-04-04T15:51:04.687Z</time></trkpt><trkpt lat="43.7015733" lon="12.7693467"><ele>626.0</ele><time>2026-04-04T15:51:05.69Z</time></trkpt><trkpt lat="43.701555" lon="12.7691967"><ele>627.25</ele><time>2026-04-04T15:51:06.688Z</time></trkpt><trkpt lat="43.7014883" lon="12.7689067"><ele>628.5</ele><time>2026-04-04T15:51:08.688Z</time></trkpt><trkpt lat="43.7014467" lon="12.7687667"><ele>629.75</ele><time>2026-04-04T15:51:09.686Z</time></trkpt><trkpt lat="43.7014017" lon="12.7686417"><ele>631.0</ele><time>2026-04-04T15:51:10.687Z</time></trkpt><trkpt lat="43.7013633" lon="12.7685333"><ele>631.6666666666667</ele><time>2026-04-04T15:51:11.687Z</time></trkpt><trkpt lat="43.7013267" lon="12.7684417"><ele>632.3333333333334</ele><time>2026-04-04T15:51:12.689Z</time></trkpt><trkpt lat="43.7012883" lon="12.7683567"><ele>633.0</ele><time>2026-04-04T15:51:13.687Z</time></trkpt><trkpt lat="43.7012433" lon="12.768285"><ele>633.6666666666666</ele><time>2026-04-04T15:51:14.686Z</time></trkpt><trkpt lat="43.70119" lon="12.768215"><ele>634.3333333333333</ele><time>2026-04-04T15:51:15.686Z</time></trkpt><trkpt lat="43.70112" lon="12.7681533"><ele>635.0</ele><time>2026-04-04T15:51:16.686Z</time></trkpt><trkpt lat="43.7010417" lon="12.7680917"><ele>635.0</ele><time>2026-04-04T15:51:17.687Z</time></trkpt><trkpt lat="43.7009533" lon="12.76802"><ele>635.0</ele><time>2026-04-04T15:51:18.686Z</time></trkpt><trkpt lat="43.7008617" lon="12.76795"><ele>635.0</ele><time>2026-04-04T15:51:19.688Z</time></trkpt><trkpt lat="43.7007683" lon="12.7678767"><ele>635.0</ele><time>2026-04-04T15:51:20.688Z</time></trkpt><trkpt lat="43.7006767" lon="12.7678083"><ele>635.0</ele><time>2026-04-04T15:51:21.689Z</time></trkpt><trkpt lat="43.7005933" lon="12.7677417"><ele>634.6666666666666</ele><time>2026-04-04T15:51:22.687Z</time></trkpt><trkpt lat="43.7005133" lon="12.7676783"><ele>634.3333333333333</ele><time>2026-04-04T15:51:23.687Z</time></trkpt><trkpt lat="43.70044" lon="12.7676"><ele>634.0</ele><time>2026-04-04T15:51:24.687Z</time></trkpt><trkpt lat="43.700375" lon="12.76752"><ele>633.6666666666666</ele><time>2026-04-04T15:51:25.69Z</time></trkpt><trkpt lat="43.70032" lon="12.767425"><ele>633.3333333333334</ele><time>2026-04-04T15:51:26.686Z</time></trkpt><trkpt lat="43.7002783" lon="12.767325"><ele>633.0</ele><time>2026-04-04T15:51:27.687Z</time></trkpt><trkpt lat="43.7002433" lon="12.7670817"><ele>632.5</ele><time>2026-04-04T15:51:29.687Z</time></trkpt><trkpt lat="43.7002583" lon="12.7669333"><ele>632.0</ele><time>2026-04-04T15:51:30.687Z</time></trkpt><trkpt lat="43.7002983" lon="12.7667817"><ele>631.5</ele><time>2026-04-04T15:51:31.687Z</time></trkpt><trkpt lat="43.700365" lon="12.7666383"><ele>631.0</ele><time>2026-04-04T15:51:32.687Z</time></trkpt><trkpt lat="43.7004533" lon="12.766545"><ele>631.0</ele><time>2026-04-04T15:51:33.686Z</time></trkpt><trkpt lat="43.7005533" lon="12.7664517"><ele>631.0</ele><time>2026-04-04T15:51:34.686Z</time></trkpt><trkpt lat="43.7006333" lon="12.7663533"><ele>631.0</ele><time>2026-04-04T15:51:35.688Z</time></trkpt><trkpt lat="43.7006933" lon="12.7662467"><ele>631.0</ele><time>2026-04-04T15:51:36.687Z</time></trkpt><trkpt lat="43.7007417" lon="12.7661283"><ele>631.0</ele><time>2026-04-04T15:51:37.687Z</time></trkpt><trkpt lat="43.700775" lon="12.7659917"><ele>631.75</ele><time>2026-04-04T15:51:38.688Z</time></trkpt><trkpt lat="43.7008" lon="12.7658433"><ele>632.5</ele><time>2026-04-04T15:51:39.688Z</time></trkpt><trkpt lat="43.70081" lon="12.765685"><ele>633.25</ele><time>2026-04-04T15:51:40.689Z</time></trkpt><trkpt lat="43.7008067" lon="12.7655183"><ele>634.0</ele><time>2026-04-04T15:51:41.688Z</time></trkpt><trkpt lat="43.7007867" lon="12.76534"><ele>633.25</ele><time>2026-04-04T15:51:42.689Z</time></trkpt><trkpt lat="43.7007517" lon="12.765165"><ele>632.5</ele><time>2026-04-04T15:51:43.688Z</time></trkpt><trkpt lat="43.7007117" lon="12.7649883"><ele>631.75</ele><time>2026-04-04T15:51:44.688Z</time></trkpt><trkpt lat="43.7006667" lon="12.7648083"><ele>631.0</ele><time>2026-04-04T15:51:45.686Z</time></trkpt><trkpt lat="43.7006133" lon="12.7646367"><ele>631.0</ele><time>2026-04-04T15:51:46.686Z</time></trkpt><trkpt lat="43.700555" lon="12.7644683"><ele>631.0</ele><time>2026-04-04T15:51:47.688Z</time></trkpt><trkpt lat="43.7004917" lon="12.7643117"><ele>631.0</ele><time>2026-04-04T15:51:48.687Z</time></trkpt><trkpt lat="43.700365" lon="12.7640617"><ele>631.8333333333334</ele><time>2026-04-04T15:51:50.686Z</time></trkpt><trkpt lat="43.700305" lon="12.7639633"><ele>632.6666666666667</ele><time>2026-04-04T15:51:51.687Z</time></trkpt><trkpt lat="43.7002517" lon="12.763865"><ele>633.5</ele><time>2026-04-04T15:51:52.687Z</time></trkpt><trkpt lat="43.70021" lon="12.7637733"><ele>634.3333333333334</ele><time>2026-04-04T15:51:53.687Z</time></trkpt><trkpt lat="43.700205" lon="12.7636717"><ele>635.1666666666666</ele><time>2026-04-04T15:51:54.687Z</time></trkpt><trkpt lat="43.7002217" lon="12.7635683"><ele>636.0</ele><time>2026-04-04T15:51:55.688Z</time></trkpt><trkpt lat="43.7002633" lon="12.76348"><ele>632.75</ele><time>2026-04-04T15:51:56.689Z</time></trkpt><trkpt lat="43.7003317" lon="12.7633917"><ele>629.5</ele><time>2026-04-04T15:51:57.687Z</time></trkpt><trkpt lat="43.7004283" lon="12.7633133"><ele>626.25</ele><time>2026-04-04T15:51:58.688Z</time></trkpt><trkpt lat="43.700545" lon="12.7632433"><ele>623.0</ele><time>2026-04-04T15:51:59.689Z</time></trkpt><trkpt lat="43.70067" lon="12.76316"><ele>623.0</ele><time>2026-04-04T15:52:00.692Z</time></trkpt><trkpt lat="43.7008067" lon="12.7630817"><ele>623.0</ele><time>2026-04-04T15:52:01.69Z</time></trkpt><trkpt lat="43.70093" lon="12.7630067"><ele>623.0</ele><time>2026-04-04T15:52:02.688Z</time></trkpt><trkpt lat="43.7010517" lon="12.7629317"><ele>623.0</ele><time>2026-04-04T15:52:03.689Z</time></trkpt><trkpt lat="43.701175" lon="12.7628717"><ele>619.5</ele><time>2026-04-04T15:52:04.687Z</time></trkpt><trkpt lat="43.7013" lon="12.7628367"><ele>616.0</ele><time>2026-04-04T15:52:05.69Z</time></trkpt><trkpt lat="43.701425" lon="12.76281"><ele>612.5</ele><time>2026-04-04T15:52:06.689Z</time></trkpt><trkpt lat="43.7015483" lon="12.7627767"><ele>609.0</ele><time>2026-04-04T15:52:07.688Z</time></trkpt><trkpt lat="43.7016733" lon="12.7627317"><ele>612.3333333333334</ele><time>2026-04-04T15:52:08.69Z</time></trkpt><trkpt lat="43.7017933" lon="12.7626683"><ele>615.6666666666667</ele><time>2026-04-04T15:52:09.688Z</time></trkpt><trkpt lat="43.70203" lon="12.7624917"><ele>619.0</ele><time>2026-04-04T15:52:11.689Z</time></trkpt><trkpt lat="43.70215" lon="12.7623867"><ele>619.0</ele><time>2026-04-04T15:52:12.686Z</time></trkpt><trkpt lat="43.7022667" lon="12.7622733"><ele>619.0</ele><time>2026-04-04T15:52:13.687Z</time></trkpt><trkpt lat="43.7023767" lon="12.76215"><ele>619.0</ele><time>2026-04-04T15:52:14.686Z</time></trkpt><trkpt lat="43.7024817" lon="12.76203"><ele>619.0</ele><time>2026-04-04T15:52:15.689Z</time></trkpt><trkpt lat="43.702585" lon="12.7619033"><ele>619.5</ele><time>2026-04-04T15:52:16.688Z</time></trkpt><trkpt lat="43.702685" lon="12.7618"><ele>620.0</ele><time>2026-04-04T15:52:17.689Z</time></trkpt><trkpt lat="43.7028017" lon="12.7617183"><ele>620.5</ele><time>2026-04-04T15:52:18.689Z</time></trkpt><trkpt lat="43.70293" lon="12.7616517"><ele>621.0</ele><time>2026-04-04T15:52:19.69Z</time></trkpt><trkpt lat="43.7030633" lon="12.7615917"><ele>621.0</ele><time>2026-04-04T15:52:20.688Z</time></trkpt><trkpt lat="43.7031967" lon="12.76154"><ele>621.0</ele><time>2026-04-04T15:52:21.69Z</time></trkpt><trkpt lat="43.7033367" lon="12.7614917"><ele>621.0</ele><time>2026-04-04T15:52:22.687Z</time></trkpt><trkpt lat="43.7034833" lon="12.7614317"><ele>621.0</ele><time>2026-04-04T15:52:23.69Z</time></trkpt><trkpt lat="43.7036283" lon="12.7613667"><ele>620.0</ele><time>2026-04-04T15:52:24.688Z</time></trkpt><trkpt lat="43.7037583" lon="12.7613017"><ele>619.0</ele><time>2026-04-04T15:52:25.689Z</time></trkpt><trkpt lat="43.7038767" lon="12.7612567"><ele>618.0</ele><time>2026-04-04T15:52:26.687Z</time></trkpt><trkpt lat="43.7039967" lon="12.7612117"><ele>617.0</ele><time>2026-04-04T15:52:27.688Z</time></trkpt><trkpt lat="43.7040933" lon="12.76116"><ele>617.0</ele><time>2026-04-04T15:52:28.686Z</time></trkpt><trkpt lat="43.7041883" lon="12.76109"><ele>617.0</ele><time>2026-04-04T15:52:29.687Z</time></trkpt><trkpt lat="43.7042783" lon="12.7610117"><ele>617.0</ele><time>2026-04-04T15:52:30.687Z</time></trkpt><trkpt lat="43.7044233" lon="12.7608067"><ele>617.0</ele><time>2026-04-04T15:52:32.688Z</time></trkpt><trkpt lat="43.70448" lon="12.76069"><ele>616.8000000000001</ele><time>2026-04-04T15:52:33.686Z</time></trkpt><trkpt lat="43.7045333" lon="12.7605583"><ele>616.6</ele><time>2026-04-04T15:52:34.687Z</time></trkpt><trkpt lat="43.7045733" lon="12.76042"><ele>616.4000000000001</ele><time>2026-04-04T15:52:35.687Z</time></trkpt><trkpt lat="43.7046067" lon="12.7602717"><ele>616.2</ele><time>2026-04-04T15:52:36.687Z</time></trkpt><trkpt lat="43.70464" lon="12.76012"><ele>616.0</ele><time>2026-04-04T15:52:37.69Z</time></trkpt><trkpt lat="43.70467" lon="12.7599467"><ele>616.0</ele><time>2026-04-04T15:52:38.687Z</time></trkpt><trkpt lat="43.7046983" lon="12.759765"><ele>616.0</ele><time>2026-04-04T15:52:39.686Z</time></trkpt><trkpt lat="43.7047283" lon="12.7595933"><ele>616.0</ele><time>2026-04-04T15:52:40.687Z</time></trkpt><trkpt lat="43.7047517" lon="12.75945"><ele>616.0</ele><time>2026-04-04T15:52:41.688Z</time></trkpt><trkpt lat="43.704785" lon="12.7592883"><ele>616.5</ele><time>2026-04-04T15:52:42.688Z</time></trkpt><trkpt lat="43.7048367" lon="12.7591333"><ele>617.0</ele><time>2026-04-04T15:52:43.689Z</time></trkpt><trkpt lat="43.7049083" lon="12.7589717"><ele>617.5</ele><time>2026-04-04T15:52:44.687Z</time></trkpt><trkpt lat="43.7049917" lon="12.75883"><ele>618.0</ele><time>2026-04-04T15:52:45.687Z</time></trkpt><trkpt lat="43.705085" lon="12.758695"><ele>618.0</ele><time>2026-04-04T15:52:46.687Z</time></trkpt><trkpt lat="43.7051867" lon="12.75856"><ele>618.0</ele><time>2026-04-04T15:52:47.688Z</time></trkpt><trkpt lat="43.7053" lon="12.7584167"><ele>618.0</ele><time>2026-04-04T15:52:48.688Z</time></trkpt><trkpt lat="43.7054167" lon="12.7582633"><ele>618.3333333333334</ele><time>2026-04-04T15:52:49.687Z</time></trkpt><trkpt lat="43.7055217" lon="12.75812"><ele>618.6666666666667</ele><time>2026-04-04T15:52:50.688Z</time></trkpt><trkpt lat="43.7056267" lon="12.7579767"><ele>619.0</ele><time>2026-04-04T15:52:51.687Z</time></trkpt><trkpt lat="43.7058567" lon="12.757705"><ele>620.0</ele><time>2026-04-04T15:52:53.689Z</time></trkpt><trkpt lat="43.7059717" lon="12.7575833"><ele>621.0</ele><time>2026-04-04T15:52:54.687Z</time></trkpt><trkpt lat="43.70608" lon="12.7574667"><ele>622.0</ele><time>2026-04-04T15:52:55.688Z</time></trkpt><trkpt lat="43.706185" lon="12.7573533"><ele>623.0</ele><time>2026-04-04T15:52:56.687Z</time></trkpt><trkpt lat="43.706285" lon="12.7572333"><ele>623.25</ele><time>2026-04-04T15:52:57.686Z</time></trkpt><trkpt lat="43.706385" lon="12.757095"><ele>623.5</ele><time>2026-04-04T15:52:58.687Z</time></trkpt><trkpt lat="43.7064733" lon="12.75695"><ele>623.75</ele><time>2026-04-04T15:52:59.688Z</time></trkpt><trkpt lat="43.7065433" lon="12.7568067"><ele>624.0</ele><time>2026-04-04T15:53:00.688Z</time></trkpt><trkpt lat="43.70659" lon="12.7566467"><ele>624.0</ele><time>2026-04-04T15:53:01.688Z</time></trkpt><trkpt lat="43.7066183" lon="12.7564733"><ele>624.0</ele><time>2026-04-04T15:53:02.688Z</time></trkpt><trkpt lat="43.7066233" lon="12.7562933"><ele>624.0</ele><time>2026-04-04T15:53:03.687Z</time></trkpt><trkpt lat="43.7066383" lon="12.7561067"><ele>624.0</ele><time>2026-04-04T15:53:04.692Z</time></trkpt><trkpt lat="43.70665" lon="12.755915"><ele>624.0</ele><time>2026-04-04T15:53:05.687Z</time></trkpt><trkpt lat="43.7066683" lon="12.7557217"><ele>624.0</ele><time>2026-04-04T15:53:06.686Z</time></trkpt><trkpt lat="43.7066917" lon="12.7555317"><ele>624.0</ele><time>2026-04-04T15:53:07.688Z</time></trkpt><trkpt lat="43.706715" lon="12.755355"><ele>624.0</ele><time>2026-04-04T15:53:08.687Z</time></trkpt><trkpt lat="43.7067317" lon="12.7551983"><ele>624.0</ele><time>2026-04-04T15:53:09.687Z</time></trkpt><trkpt lat="43.7067317" lon="12.7550483"><ele>624.0</ele><time>2026-04-04T15:53:10.69Z</time></trkpt><trkpt lat="43.7067133" lon="12.75489"><ele>624.0</ele><time>2026-04-04T15:53:11.688Z</time></trkpt><trkpt lat="43.706675" lon="12.754725"><ele>624.0</ele><time>2026-04-04T15:53:12.69Z</time></trkpt><trkpt lat="43.7066017" lon="12.7543833"><ele>624.0</ele><time>2026-04-04T15:53:14.688Z</time></trkpt><trkpt lat="43.706555" lon="12.7541983"><ele>624.0</ele><time>2026-04-04T15:53:15.687Z</time></trkpt><trkpt lat="43.70651" lon="12.7540183"><ele>624.0</ele><time>2026-04-04T15:53:16.687Z</time></trkpt><trkpt lat="43.7064567" lon="12.7538383"><ele>624.0</ele><time>2026-04-04T15:53:17.689Z</time></trkpt><trkpt lat="43.7064017" lon="12.753675"><ele>623.0</ele><time>2026-04-04T15:53:18.688Z</time></trkpt><trkpt lat="43.7063333" lon="12.7535067"><ele>622.0</ele><time>2026-04-04T15:53:19.689Z</time></trkpt><trkpt lat="43.706255" lon="12.7533383"><ele>621.0</ele><time>2026-04-04T15:53:20.688Z</time></trkpt><trkpt lat="43.7061667" lon="12.753175"><ele>620.0</ele><time>2026-04-04T15:53:21.688Z</time></trkpt><trkpt lat="43.7060767" lon="12.7530183"><ele>621.0</ele><time>2026-04-04T15:53:22.688Z</time></trkpt><trkpt lat="43.7059883" lon="12.752865"><ele>622.0</ele><time>2026-04-04T15:53:23.69Z</time></trkpt><trkpt lat="43.7059033" lon="12.7527167"><ele>623.0</ele><time>2026-04-04T15:53:24.688Z</time></trkpt><trkpt lat="43.70582" lon="12.75257"><ele>624.0</ele><time>2026-04-04T15:53:25.689Z</time></trkpt><trkpt lat="43.7057467" lon="12.75241"><ele>624.0</ele><time>2026-04-04T15:53:26.688Z</time></trkpt><trkpt lat="43.7056767" lon="12.7522417"><ele>624.0</ele><time>2026-04-04T15:53:27.688Z</time></trkpt><trkpt lat="43.7056167" lon="12.7520683"><ele>624.0</ele><time>2026-04-04T15:53:28.689Z</time></trkpt><trkpt lat="43.7055633" lon="12.7518917"><ele>624.0</ele><time>2026-04-04T15:53:29.688Z</time></trkpt><trkpt lat="43.70551" lon="12.7517233"><ele>623.25</ele><time>2026-04-04T15:53:30.688Z</time></trkpt><trkpt lat="43.7054467" lon="12.7515617"><ele>622.5</ele><time>2026-04-04T15:53:31.688Z</time></trkpt><trkpt lat="43.705375" lon="12.7514183"><ele>621.75</ele><time>2026-04-04T15:53:32.687Z</time></trkpt><trkpt lat="43.7053" lon="12.7512867"><ele>621.0</ele><time>2026-04-04T15:53:33.688Z</time></trkpt><trkpt lat="43.7051183" lon="12.7510317"><ele>621.0</ele><time>2026-04-04T15:53:35.689Z</time></trkpt><trkpt lat="43.705035" lon="12.750905"><ele>621.0</ele><time>2026-04-04T15:53:36.688Z</time></trkpt><trkpt lat="43.7049533" lon="12.7507933"><ele>621.0</ele><time>2026-04-04T15:53:37.688Z</time></trkpt><trkpt lat="43.7048917" lon="12.75066"><ele>621.0</ele><time>2026-04-04T15:53:38.688Z</time></trkpt><trkpt lat="43.70484" lon="12.7505183"><ele>621.0</ele><time>2026-04-04T15:53:39.687Z</time></trkpt><trkpt lat="43.704795" lon="12.7503717"><ele>621.0</ele><time>2026-04-04T15:53:40.688Z</time></trkpt><trkpt lat="43.7047483" lon="12.7502333"><ele>621.0</ele><time>2026-04-04T15:53:41.687Z</time></trkpt><trkpt lat="43.7047233" lon="12.7500933"><ele>621.0</ele><time>2026-04-04T15:53:42.688Z</time></trkpt><trkpt lat="43.7047217" lon="12.7499617"><ele>621.0</ele><time>2026-04-04T15:53:43.689Z</time></trkpt><trkpt lat="43.7047467" lon="12.7498317"><ele>619.8</ele><time>2026-04-04T15:53:44.688Z</time></trkpt><trkpt lat="43.704785" lon="12.7497317"><ele>618.6</ele><time>2026-04-04T15:53:45.688Z</time></trkpt><trkpt lat="43.7048483" lon="12.7496433"><ele>617.4</ele><time>2026-04-04T15:53:46.688Z</time></trkpt><trkpt lat="43.7049183" lon="12.7495667"><ele>616.2</ele><time>2026-04-04T15:53:47.688Z</time></trkpt><trkpt lat="43.705" lon="12.7495133"><ele>615.0</ele><time>2026-04-04T15:53:48.687Z</time></trkpt><trkpt lat="43.7051033" lon="12.74948"><ele>615.0</ele><time>2026-04-04T15:53:49.69Z</time></trkpt><trkpt lat="43.705215" lon="12.7494433"><ele>615.0</ele><time>2026-04-04T15:53:50.687Z</time></trkpt><trkpt lat="43.7053233" lon="12.7493783"><ele>615.0</ele><time>2026-04-04T15:53:51.688Z</time></trkpt><trkpt lat="43.70543" lon="12.7492883"><ele>615.0</ele><time>2026-04-04T15:53:52.688Z</time></trkpt><trkpt lat="43.7055383" lon="12.749185"><ele>614.6666666666666</ele><time>2026-04-04T15:53:53.691Z</time></trkpt><trkpt lat="43.70565" lon="12.74909"><ele>614.3333333333333</ele><time>2026-04-04T15:53:54.687Z</time></trkpt><trkpt lat="43.70588" lon="12.7489233"><ele>614.0</ele><time>2026-04-04T15:53:56.687Z</time></trkpt><trkpt lat="43.705965" lon="12.748835"><ele>614.0</ele><time>2026-04-04T15:53:57.689Z</time></trkpt><trkpt lat="43.70604" lon="12.7487417"><ele>614.0</ele><time>2026-04-04T15:53:58.687Z</time></trkpt><trkpt lat="43.7061067" lon="12.7486383"><ele>614.0</ele><time>2026-04-04T15:53:59.687Z</time></trkpt><trkpt lat="43.706165" lon="12.7485417"><ele>614.0</ele><time>2026-04-04T15:54:00.689Z</time></trkpt><trkpt lat="43.70622" lon="12.748435"><ele>614.0</ele><time>2026-04-04T15:54:01.688Z</time></trkpt><trkpt lat="43.7062717" lon="12.7483283"><ele>614.2</ele><time>2026-04-04T15:54:02.687Z</time></trkpt><trkpt lat="43.706315" lon="12.748225"><ele>614.4</ele><time>2026-04-04T15:54:03.687Z</time></trkpt><trkpt lat="43.7063567" lon="12.7481183"><ele>614.6</ele><time>2026-04-04T15:54:04.687Z</time></trkpt><trkpt lat="43.7064" lon="12.7480083"><ele>614.8</ele><time>2026-04-04T15:54:05.689Z</time></trkpt><trkpt lat="43.706445" lon="12.747895"><ele>615.0</ele><time>2026-04-04T15:54:06.687Z</time></trkpt><trkpt lat="43.7064867" lon="12.7477783"><ele>614.8</ele><time>2026-04-04T15:54:07.689Z</time></trkpt><trkpt lat="43.70653" lon="12.7476517"><ele>614.6</ele><time>2026-04-04T15:54:08.686Z</time></trkpt><trkpt lat="43.7065783" lon="12.7475117"><ele>614.4</ele><time>2026-04-04T15:54:09.689Z</time></trkpt><trkpt lat="43.7066317" lon="12.7473617"><ele>614.2</ele><time>2026-04-04T15:54:10.689Z</time></trkpt><trkpt lat="43.7066817" lon="12.7472217"><ele>614.0</ele><time>2026-04-04T15:54:11.687Z</time></trkpt><trkpt lat="43.7067383" lon="12.747075"><ele>614.0</ele><time>2026-04-04T15:54:12.687Z</time></trkpt><trkpt lat="43.706795" lon="12.7469217"><ele>614.0</ele><time>2026-04-04T15:54:13.689Z</time></trkpt><trkpt lat="43.7068567" lon="12.746755"><ele>614.0</ele><time>2026-04-04T15:54:14.688Z</time></trkpt><trkpt lat="43.7069217" lon="12.74659"><ele>614.0</ele><time>2026-04-04T15:54:15.687Z</time></trkpt><trkpt lat="43.70705" lon="12.7462967"><ele>614.25</ele><time>2026-04-04T15:54:17.69Z</time></trkpt><trkpt lat="43.7071333" lon="12.7461467"><ele>614.5</ele><time>2026-04-04T15:54:18.688Z</time></trkpt><trkpt lat="43.7072133" lon="12.7460283"><ele>614.75</ele><time>2026-04-04T15:54:19.688Z</time></trkpt><trkpt lat="43.7073" lon="12.74593"><ele>615.0</ele><time>2026-04-04T15:54:20.689Z</time></trkpt><trkpt lat="43.7073933" lon="12.7458333"><ele>614.4</ele><time>2026-04-04T15:54:21.691Z</time></trkpt><trkpt lat="43.7074867" lon="12.7457383"><ele>613.8</ele><time>2026-04-04T15:54:22.687Z</time></trkpt><trkpt lat="43.707575" lon="12.7456367"><ele>613.2</ele><time>2026-04-04T15:54:23.692Z</time></trkpt><trkpt lat="43.7076517" lon="12.7455317"><ele>612.6</ele><time>2026-04-04T15:54:24.687Z</time></trkpt><trkpt lat="43.7077233" lon="12.7454233"><ele>612.0</ele><time>2026-04-04T15:54:25.689Z</time></trkpt><trkpt lat="43.7077983" lon="12.7453067"><ele>610.25</ele><time>2026-04-04T15:54:26.69Z</time></trkpt><trkpt lat="43.70786" lon="12.7451617"><ele>608.5</ele><time>2026-04-04T15:54:27.686Z</time></trkpt><trkpt lat="43.707915" lon="12.74502"><ele>606.75</ele><time>2026-04-04T15:54:28.687Z</time></trkpt><trkpt lat="43.7079667" lon="12.7448733"><ele>605.0</ele><time>2026-04-04T15:54:29.688Z</time></trkpt><trkpt lat="43.7080167" lon="12.7447233"><ele>605.0</ele><time>2026-04-04T15:54:30.688Z</time></trkpt><trkpt lat="43.7080683" lon="12.7445717"><ele>605.0</ele><time>2026-04-04T15:54:31.69Z</time></trkpt><trkpt lat="43.7081217" lon="12.7444167"><ele>605.0</ele><time>2026-04-04T15:54:32.687Z</time></trkpt><trkpt lat="43.70818" lon="12.7442633"><ele>605.0</ele><time>2026-04-04T15:54:33.686Z</time></trkpt><trkpt lat="43.7082467" lon="12.7440983"><ele>606.3333333333333</ele><time>2026-04-04T15:54:34.687Z</time></trkpt><trkpt lat="43.708325" lon="12.743945"><ele>607.6666666666666</ele><time>2026-04-04T15:54:35.686Z</time></trkpt><trkpt lat="43.7084133" lon="12.7438083"><ele>609.0</ele><time>2026-04-04T15:54:36.689Z</time></trkpt><trkpt lat="43.7085917" lon="12.7435617"><ele>607.2</ele><time>2026-04-04T15:54:38.687Z</time></trkpt><trkpt lat="43.708655" lon="12.74344"><ele>605.4</ele><time>2026-04-04T15:54:39.686Z</time></trkpt><trkpt lat="43.708695" lon="12.7433067"><ele>603.6</ele><time>2026-04-04T15:54:40.688Z</time></trkpt><trkpt lat="43.7087133" lon="12.74315"><ele>601.8</ele><time>2026-04-04T15:54:41.688Z</time></trkpt><trkpt lat="43.708725" lon="12.74299"><ele>600.0</ele><time>2026-04-04T15:54:42.687Z</time></trkpt><trkpt lat="43.708725" lon="12.7428483"><ele>601.2</ele><time>2026-04-04T15:54:43.688Z</time></trkpt><trkpt lat="43.70873" lon="12.7427067"><ele>602.4</ele><time>2026-04-04T15:54:44.687Z</time></trkpt><trkpt lat="43.70875" lon="12.7425617"><ele>603.6</ele><time>2026-04-04T15:54:45.686Z</time></trkpt><trkpt lat="43.7087733" lon="12.7424183"><ele>604.8</ele><time>2026-04-04T15:54:46.687Z</time></trkpt><trkpt lat="43.708805" lon="12.74228"><ele>606.0</ele><time>2026-04-04T15:54:47.688Z</time></trkpt><trkpt lat="43.70885" lon="12.7421433"><ele>606.0</ele><time>2026-04-04T15:54:48.687Z</time></trkpt><trkpt lat="43.7089083" lon="12.7420083"><ele>606.0</ele><time>2026-04-04T15:54:49.688Z</time></trkpt><trkpt lat="43.7089983" lon="12.74191"><ele>606.0</ele><time>2026-04-04T15:54:50.689Z</time></trkpt><trkpt lat="43.7091033" lon="12.741855"><ele>606.0</ele><time>2026-04-04T15:54:51.687Z</time></trkpt><trkpt lat="43.709225" lon="12.7418083"><ele>605.0</ele><time>2026-04-04T15:54:52.688Z</time></trkpt><trkpt lat="43.70935" lon="12.7418067"><ele>604.0</ele><time>2026-04-04T15:54:53.687Z</time></trkpt><trkpt lat="43.7094817" lon="12.7418117"><ele>603.0</ele><time>2026-04-04T15:54:54.688Z</time></trkpt><trkpt lat="43.709615" lon="12.7418433"><ele>602.0</ele><time>2026-04-04T15:54:55.689Z</time></trkpt><trkpt lat="43.7097333" lon="12.7418883"><ele>602.0</ele><time>2026-04-04T15:54:56.688Z</time></trkpt><trkpt lat="43.7098483" lon="12.7419683"><ele>602.0</ele><time>2026-04-04T15:54:57.688Z</time></trkpt><trkpt lat="43.7100767" lon="12.7421367"><ele>602.0</ele><time>2026-04-04T15:54:59.688Z</time></trkpt><trkpt lat="43.7102067" lon="12.7421983"><ele>602.75</ele><time>2026-04-04T15:55:00.687Z</time></trkpt><trkpt lat="43.71034" lon="12.7422433"><ele>603.5</ele><time>2026-04-04T15:55:01.687Z</time></trkpt><trkpt lat="43.7104867" lon="12.7422717"><ele>604.25</ele><time>2026-04-04T15:55:02.688Z</time></trkpt><trkpt lat="43.710645" lon="12.7423"><ele>605.0</ele><time>2026-04-04T15:55:03.686Z</time></trkpt><trkpt lat="43.7107967" lon="12.742335"><ele>605.0</ele><time>2026-04-04T15:55:04.687Z</time></trkpt><trkpt lat="43.71094" lon="12.7423733"><ele>605.0</ele><time>2026-04-04T15:55:05.688Z</time></trkpt><trkpt lat="43.71108" lon="12.7424167"><ele>605.0</ele><time>2026-04-04T15:55:06.688Z</time></trkpt><trkpt lat="43.7112117" lon="12.7424583"><ele>605.0</ele><time>2026-04-04T15:55:07.69Z</time></trkpt><trkpt lat="43.71133" lon="12.7425"><ele>604.6666666666666</ele><time>2026-04-04T15:55:08.687Z</time></trkpt><trkpt lat="43.711435" lon="12.7425433"><ele>604.3333333333333</ele><time>2026-04-04T15:55:09.689Z</time></trkpt><trkpt lat="43.7115217" lon="12.7425667"><ele>604.0</ele><time>2026-04-04T15:55:10.687Z</time></trkpt><trkpt lat="43.711605" lon="12.742575"><ele>603.6666666666666</ele><time>2026-04-04T15:55:11.688Z</time></trkpt><trkpt lat="43.7116783" lon="12.7425583"><ele>603.3333333333334</ele><time>2026-04-04T15:55:12.687Z</time></trkpt><trkpt lat="43.71174" lon="12.7425167"><ele>603.0</ele><time>2026-04-04T15:55:13.687Z</time></trkpt><trkpt lat="43.711805" lon="12.74245"><ele>603.0</ele><time>2026-04-04T15:55:14.686Z</time></trkpt><trkpt lat="43.7118717" lon="12.7423667"><ele>603.0</ele><time>2026-04-04T15:55:15.688Z</time></trkpt><trkpt lat="43.7119417" lon="12.7422567"><ele>603.0</ele><time>2026-04-04T15:55:16.687Z</time></trkpt><trkpt lat="43.7119983" lon="12.7421317"><ele>603.0</ele><time>2026-04-04T15:55:17.69Z</time></trkpt><trkpt lat="43.7120383" lon="12.7419817"><ele>603.0</ele><time>2026-04-04T15:55:18.688Z</time></trkpt><trkpt lat="43.7120833" lon="12.7416417"><ele>600.25</ele><time>2026-04-04T15:55:20.689Z</time></trkpt><trkpt lat="43.71209" lon="12.741475"><ele>597.5</ele><time>2026-04-04T15:55:21.687Z</time></trkpt><trkpt lat="43.7120867" lon="12.7413167"><ele>594.75</ele><time>2026-04-04T15:55:22.687Z</time></trkpt><trkpt lat="43.71208" lon="12.741165"><ele>592.0</ele><time>2026-04-04T15:55:23.688Z</time></trkpt><trkpt lat="43.7120783" lon="12.7410183"><ele>591.4</ele><time>2026-04-04T15:55:24.687Z</time></trkpt><trkpt lat="43.7120767" lon="12.74087"><ele>590.8000000000001</ele><time>2026-04-04T15:55:25.689Z</time></trkpt><trkpt lat="43.712075" lon="12.74072"><ele>590.2</ele><time>2026-04-04T15:55:26.688Z</time></trkpt><trkpt lat="43.712075" lon="12.7405667"><ele>589.6</ele><time>2026-04-04T15:55:27.688Z</time></trkpt><trkpt lat="43.71207" lon="12.7404067"><ele>589.0</ele><time>2026-04-04T15:55:28.686Z</time></trkpt><trkpt lat="43.7120617" lon="12.7402517"><ele>588.6</ele><time>2026-04-04T15:55:29.687Z</time></trkpt><trkpt lat="43.712055" lon="12.7401"><ele>588.2</ele><time>2026-04-04T15:55:30.687Z</time></trkpt><trkpt lat="43.7120433" lon="12.7399517"><ele>587.8000000000001</ele><time>2026-04-04T15:55:31.688Z</time></trkpt><trkpt lat="43.712025" lon="12.7398"><ele>587.4</ele><time>2026-04-04T15:55:32.69Z</time></trkpt><trkpt lat="43.7119967" lon="12.7396533"><ele>587.0</ele><time>2026-04-04T15:55:33.686Z</time></trkpt><trkpt lat="43.7119617" lon="12.73951"><ele>588.25</ele><time>2026-04-04T15:55:34.688Z</time></trkpt><trkpt lat="43.711915" lon="12.7393683"><ele>589.5</ele><time>2026-04-04T15:55:35.688Z</time></trkpt><trkpt lat="43.7118567" lon="12.739225"><ele>590.75</ele><time>2026-04-04T15:55:36.688Z</time></trkpt><trkpt lat="43.7117883" lon="12.7390833"><ele>592.0</ele><time>2026-04-04T15:55:37.688Z</time></trkpt><trkpt lat="43.7117083" lon="12.7389383"><ele>592.0</ele><time>2026-04-04T15:55:38.686Z</time></trkpt><trkpt lat="43.7116283" lon="12.7387933"><ele>592.0</ele><time>2026-04-04T15:55:39.689Z</time></trkpt><trkpt lat="43.7114617" lon="12.73853"><ele>592.0</ele><time>2026-04-04T15:55:41.687Z</time></trkpt><trkpt lat="43.71138" lon="12.7384083"><ele>588.25</ele><time>2026-04-04T15:55:42.686Z</time></trkpt><trkpt lat="43.7113067" lon="12.7382733"><ele>584.5</ele><time>2026-04-04T15:55:43.688Z</time></trkpt><trkpt lat="43.71124" lon="12.7381383"><ele>580.75</ele><time>2026-04-04T15:55:44.688Z</time></trkpt><trkpt lat="43.7111983" lon="12.7379783"><ele>577.0</ele><time>2026-04-04T15:55:45.687Z</time></trkpt><trkpt lat="43.7111767" lon="12.7378"><ele>573.75</ele><time>2026-04-04T15:55:46.686Z</time></trkpt><trkpt lat="43.7111683" lon="12.7376067"><ele>570.5</ele><time>2026-04-04T15:55:47.688Z</time></trkpt><trkpt lat="43.711155" lon="12.7374133"><ele>567.25</ele><time>2026-04-04T15:55:48.689Z</time></trkpt><trkpt lat="43.7111483" lon="12.7372283"><ele>564.0</ele><time>2026-04-04T15:55:49.689Z</time></trkpt><trkpt lat="43.7111517" lon="12.73705"><ele>564.75</ele><time>2026-04-04T15:55:50.689Z</time></trkpt><trkpt lat="43.7111733" lon="12.7368733"><ele>565.5</ele><time>2026-04-04T15:55:51.689Z</time></trkpt><trkpt lat="43.7112117" lon="12.7367017"><ele>566.25</ele><time>2026-04-04T15:55:52.687Z</time></trkpt><trkpt lat="43.71126" lon="12.7365267"><ele>567.0</ele><time>2026-04-04T15:55:53.688Z</time></trkpt><trkpt lat="43.7113233" lon="12.73635"><ele>567.0</ele><time>2026-04-04T15:55:54.687Z</time></trkpt><trkpt lat="43.7113967" lon="12.7362"><ele>567.0</ele><time>2026-04-04T15:55:55.687Z</time></trkpt><trkpt lat="43.7114817" lon="12.7360933"><ele>567.0</ele><time>2026-04-04T15:55:56.688Z</time></trkpt><trkpt lat="43.7115833" lon="12.7360367"><ele>567.0</ele><time>2026-04-04T15:55:57.688Z</time></trkpt><trkpt lat="43.711695" lon="12.7360067"><ele>566.3333333333334</ele><time>2026-04-04T15:55:58.688Z</time></trkpt><trkpt lat="43.7118117" lon="12.7360117"><ele>565.6666666666667</ele><time>2026-04-04T15:55:59.689Z</time></trkpt><trkpt lat="43.711935" lon="12.7360367"><ele>565.0</ele><time>2026-04-04T15:56:00.688Z</time></trkpt><trkpt lat="43.712195" lon="12.7361083"><ele>565.0</ele><time>2026-04-04T15:56:02.687Z</time></trkpt><trkpt lat="43.712335" lon="12.7361483"><ele>565.0</ele><time>2026-04-04T15:56:03.688Z</time></trkpt><trkpt lat="43.7124783" lon="12.736185"><ele>565.0</ele><time>2026-04-04T15:56:04.689Z</time></trkpt><trkpt lat="43.7126233" lon="12.736205"><ele>565.0</ele><time>2026-04-04T15:56:05.686Z</time></trkpt><trkpt lat="43.7127733" lon="12.7362167"><ele>565.3333333333334</ele><time>2026-04-04T15:56:06.685Z</time></trkpt><trkpt lat="43.7129267" lon="12.7362233"><ele>565.6666666666666</ele><time>2026-04-04T15:56:07.69Z</time></trkpt><trkpt lat="43.7130833" lon="12.736235"><ele>566.0</ele><time>2026-04-04T15:56:08.688Z</time></trkpt><trkpt lat="43.71324" lon="12.7362483"><ele>566.0</ele><time>2026-04-04T15:56:09.689Z</time></trkpt><trkpt lat="43.7133917" lon="12.7362683"><ele>566.0</ele><time>2026-04-04T15:56:10.689Z</time></trkpt><trkpt lat="43.7135433" lon="12.7363017"><ele>566.0</ele><time>2026-04-04T15:56:11.69Z</time></trkpt><trkpt lat="43.7136917" lon="12.7363483"><ele>567.0</ele><time>2026-04-04T15:56:12.688Z</time></trkpt><trkpt lat="43.7138317" lon="12.7364"><ele>568.0</ele><time>2026-04-04T15:56:13.688Z</time></trkpt><trkpt lat="43.7139683" lon="12.7364467"><ele>569.0</ele><time>2026-04-04T15:56:14.687Z</time></trkpt><trkpt lat="43.7141033" lon="12.7364817"><ele>570.0</ele><time>2026-04-04T15:56:15.687Z</time></trkpt><trkpt lat="43.7142383" lon="12.7365083"><ele>570.0</ele><time>2026-04-04T15:56:16.687Z</time></trkpt><trkpt lat="43.71437" lon="12.736525"><ele>570.0</ele><time>2026-04-04T15:56:17.687Z</time></trkpt><trkpt lat="43.7144967" lon="12.7365317"><ele>570.0</ele><time>2026-04-04T15:56:18.687Z</time></trkpt><trkpt lat="43.7146117" lon="12.7365217"><ele>570.0</ele><time>2026-04-04T15:56:19.687Z</time></trkpt><trkpt lat="43.714715" lon="12.736495"><ele>569.4</ele><time>2026-04-04T15:56:20.688Z</time></trkpt><trkpt lat="43.7148017" lon="12.7364517"><ele>568.8</ele><time>2026-04-04T15:56:21.687Z</time></trkpt><trkpt lat="43.7149267" lon="12.7363267"><ele>568.2</ele><time>2026-04-04T15:56:23.689Z</time></trkpt><trkpt lat="43.7149583" lon="12.7362367"><ele>567.6</ele><time>2026-04-04T15:56:24.688Z</time></trkpt><trkpt lat="43.7149767" lon="12.7361417"><ele>567.0</ele><time>2026-04-04T15:56:25.686Z</time></trkpt><trkpt lat="43.71498" lon="12.7360467"><ele>568.8000000000001</ele><time>2026-04-04T15:56:26.689Z</time></trkpt><trkpt lat="43.71497" lon="12.7359383"><ele>570.6</ele><time>2026-04-04T15:56:27.688Z</time></trkpt><trkpt lat="43.7149417" lon="12.7358233"><ele>572.4000000000001</ele><time>2026-04-04T15:56:28.687Z</time></trkpt><trkpt lat="43.7149083" lon="12.7356967"><ele>574.2</ele><time>2026-04-04T15:56:29.687Z</time></trkpt><trkpt lat="43.714865" lon="12.7355783"><ele>576.0</ele><time>2026-04-04T15:56:30.689Z</time></trkpt><trkpt lat="43.7147867" lon="12.7354083"><ele>576.0</ele><time>2026-04-04T15:56:31.688Z</time></trkpt><trkpt lat="43.714705" lon="12.7352283"><ele>576.0</ele><time>2026-04-04T15:56:32.687Z</time></trkpt><trkpt lat="43.7146167" lon="12.7350417"><ele>576.0</ele><time>2026-04-04T15:56:33.687Z</time></trkpt><trkpt lat="43.7145483" lon="12.7348467"><ele>576.75</ele><time>2026-04-04T15:56:34.687Z</time></trkpt><trkpt lat="43.71447" lon="12.7346817"><ele>577.5</ele><time>2026-04-04T15:56:35.689Z</time></trkpt><trkpt lat="43.7143967" lon="12.7345067"><ele>578.25</ele><time>2026-04-04T15:56:36.687Z</time></trkpt><trkpt lat="43.7143183" lon="12.7343167"><ele>579.0</ele><time>2026-04-04T15:56:37.689Z</time></trkpt><trkpt lat="43.714245" lon="12.734145"><ele>579.0</ele><time>2026-04-04T15:56:38.687Z</time></trkpt><trkpt lat="43.7141683" lon="12.7339733"><ele>579.0</ele><time>2026-04-04T15:56:39.687Z</time></trkpt><trkpt lat="43.7141017" lon="12.7337833"><ele>579.0</ele><time>2026-04-04T15:56:40.687Z</time></trkpt><trkpt lat="43.7140367" lon="12.7335967"><ele>579.0</ele><time>2026-04-04T15:56:41.688Z</time></trkpt><trkpt lat="43.7139817" lon="12.7334017"><ele>574.0</ele><time>2026-04-04T15:56:42.688Z</time></trkpt><trkpt lat="43.7138833" lon="12.732965"><ele>569.0</ele><time>2026-04-04T15:56:44.69Z</time></trkpt><trkpt lat="43.7138383" lon="12.732765"><ele>568.3333333333333</ele><time>2026-04-04T15:56:45.69Z</time></trkpt><trkpt lat="43.71379" lon="12.7325683"><ele>567.6666666666666</ele><time>2026-04-04T15:56:46.69Z</time></trkpt><trkpt lat="43.7137417" lon="12.7323667"><ele>567.0</ele><time>2026-04-04T15:56:47.687Z</time></trkpt><trkpt lat="43.7137067" lon="12.732165"><ele>567.0</ele><time>2026-04-04T15:56:48.686Z</time></trkpt><trkpt lat="43.7136867" lon="12.731955"><ele>567.0</ele><time>2026-04-04T15:56:49.689Z</time></trkpt><trkpt lat="43.7136883" lon="12.7317467"><ele>567.0</ele><time>2026-04-04T15:56:50.686Z</time></trkpt><trkpt lat="43.7136967" lon="12.73153"><ele>567.0</ele><time>2026-04-04T15:56:51.686Z</time></trkpt><trkpt lat="43.7137083" lon="12.73132"><ele>567.0</ele><time>2026-04-04T15:56:52.689Z</time></trkpt><trkpt lat="43.7137233" lon="12.731125"><ele>567.0</ele><time>2026-04-04T15:56:53.689Z</time></trkpt><trkpt lat="43.7137383" lon="12.73095"><ele>567.0</ele><time>2026-04-04T15:56:54.69Z</time></trkpt><trkpt lat="43.7137583" lon="12.730795"><ele>567.0</ele><time>2026-04-04T15:56:55.69Z</time></trkpt><trkpt lat="43.7137833" lon="12.7306467"><ele>567.0</ele><time>2026-04-04T15:56:56.686Z</time></trkpt><trkpt lat="43.7138233" lon="12.7305167"><ele>567.0</ele><time>2026-04-04T15:56:57.687Z</time></trkpt><trkpt lat="43.7138767" lon="12.730395"><ele>567.0</ele><time>2026-04-04T15:56:58.69Z</time></trkpt><trkpt lat="43.7139383" lon="12.7302733"><ele>567.0</ele><time>2026-04-04T15:56:59.69Z</time></trkpt><trkpt lat="43.7140183" lon="12.7301517"><ele>567.0</ele><time>2026-04-04T15:57:00.688Z</time></trkpt><trkpt lat="43.7140933" lon="12.73003"><ele>567.0</ele><time>2026-04-04T15:57:01.691Z</time></trkpt><trkpt lat="43.7141683" lon="12.729905"><ele>567.0</ele><time>2026-04-04T15:57:02.689Z</time></trkpt><trkpt lat="43.7142367" lon="12.7297833"><ele>567.0</ele><time>2026-04-04T15:57:03.689Z</time></trkpt><trkpt lat="43.7143867" lon="12.7296117"><ele>565.0</ele><time>2026-04-04T15:57:05.69Z</time></trkpt><trkpt lat="43.7144833" lon="12.72958"><ele>563.0</ele><time>2026-04-04T15:57:06.689Z</time></trkpt><trkpt lat="43.714595" lon="12.7295667"><ele>561.0</ele><time>2026-04-04T15:57:07.689Z</time></trkpt><trkpt lat="43.7147117" lon="12.7295617"><ele>559.0</ele><time>2026-04-04T15:57:08.69Z</time></trkpt><trkpt lat="43.7148333" lon="12.7295583"><ele>559.0</ele><time>2026-04-04T15:57:09.689Z</time></trkpt><trkpt lat="43.7149583" lon="12.7295517"><ele>559.0</ele><time>2026-04-04T15:57:10.689Z</time></trkpt><trkpt lat="43.7150783" lon="12.7295467"><ele>559.0</ele><time>2026-04-04T15:57:11.689Z</time></trkpt><trkpt lat="43.7151817" lon="12.7295317"><ele>559.0</ele><time>2026-04-04T15:57:12.688Z</time></trkpt><trkpt lat="43.7152717" lon="12.72949"><ele>559.0</ele><time>2026-04-04T15:57:13.69Z</time></trkpt><trkpt lat="43.715355" lon="12.72942"><ele>561.0</ele><time>2026-04-04T15:57:14.689Z</time></trkpt><trkpt lat="43.7154233" lon="12.7293167"><ele>563.0</ele><time>2026-04-04T15:57:15.689Z</time></trkpt><trkpt lat="43.7154817" lon="12.7291983"><ele>565.0</ele><time>2026-04-04T15:57:16.689Z</time></trkpt><trkpt lat="43.7155267" lon="12.72908"><ele>567.0</ele><time>2026-04-04T15:57:17.689Z</time></trkpt><trkpt lat="43.7155583" lon="12.7289533"><ele>569.0</ele><time>2026-04-04T15:57:18.689Z</time></trkpt><trkpt lat="43.7155817" lon="12.7288267"><ele>569.0</ele><time>2026-04-04T15:57:19.69Z</time></trkpt><trkpt lat="43.715605" lon="12.72871"><ele>569.0</ele><time>2026-04-04T15:57:20.689Z</time></trkpt><trkpt lat="43.7156383" lon="12.7286033"><ele>569.0</ele><time>2026-04-04T15:57:21.687Z</time></trkpt><trkpt lat="43.7156883" lon="12.728505"><ele>569.0</ele><time>2026-04-04T15:57:22.689Z</time></trkpt><trkpt lat="43.7157583" lon="12.7284283"><ele>569.0</ele><time>2026-04-04T15:57:23.687Z</time></trkpt><trkpt lat="43.7158417" lon="12.7283567"><ele>569.0</ele><time>2026-04-04T15:57:24.689Z</time></trkpt><trkpt lat="43.7159917" lon="12.7281567"><ele>570.0</ele><time>2026-04-04T15:57:26.691Z</time></trkpt><trkpt lat="43.7160433" lon="12.7280283"><ele>571.0</ele><time>2026-04-04T15:57:27.689Z</time></trkpt><trkpt lat="43.7160733" lon="12.727885"><ele>572.0</ele><time>2026-04-04T15:57:28.691Z</time></trkpt><trkpt lat="43.7160767" lon="12.72773"><ele>573.0</ele><time>2026-04-04T15:57:29.688Z</time></trkpt><trkpt lat="43.716055" lon="12.7275683"><ele>574.0</ele><time>2026-04-04T15:57:30.689Z</time></trkpt><trkpt lat="43.7160067" lon="12.72741"><ele>574.25</ele><time>2026-04-04T15:57:31.691Z</time></trkpt><trkpt lat="43.7159383" lon="12.727265"><ele>574.5</ele><time>2026-04-04T15:57:32.689Z</time></trkpt><trkpt lat="43.7158567" lon="12.7271283"><ele>574.75</ele><time>2026-04-04T15:57:33.689Z</time></trkpt><trkpt lat="43.7157567" lon="12.72699"><ele>575.0</ele><time>2026-04-04T15:57:34.687Z</time></trkpt><trkpt lat="43.71565" lon="12.72686"><ele>575.5</ele><time>2026-04-04T15:57:35.69Z</time></trkpt><trkpt lat="43.715535" lon="12.7267333"><ele>576.0</ele><time>2026-04-04T15:57:36.687Z</time></trkpt><trkpt lat="43.715415" lon="12.7266033"><ele>576.5</ele><time>2026-04-04T15:57:37.692Z</time></trkpt><trkpt lat="43.7153033" lon="12.7264683"><ele>577.0</ele><time>2026-04-04T15:57:38.689Z</time></trkpt><trkpt lat="43.715205" lon="12.7263367"><ele>577.0</ele><time>2026-04-04T15:57:39.689Z</time></trkpt><trkpt lat="43.7151217" lon="12.7261883"><ele>577.0</ele><time>2026-04-04T15:57:40.689Z</time></trkpt><trkpt lat="43.7150517" lon="12.72602"><ele>577.0</ele><time>2026-04-04T15:57:41.689Z</time></trkpt><trkpt lat="43.715" lon="12.725835"><ele>577.0</ele><time>2026-04-04T15:57:42.688Z</time></trkpt><trkpt lat="43.71496" lon="12.7256433"><ele>575.6666666666667</ele><time>2026-04-04T15:57:43.689Z</time></trkpt><trkpt lat="43.7149267" lon="12.7254483"><ele>574.3333333333334</ele><time>2026-04-04T15:57:44.689Z</time></trkpt><trkpt lat="43.7148917" lon="12.7252517"><ele>573.0</ele><time>2026-04-04T15:57:45.686Z</time></trkpt><trkpt lat="43.7148233" lon="12.7248533"><ele>573.0</ele><time>2026-04-04T15:57:47.689Z</time></trkpt><trkpt lat="43.714785" lon="12.724655"><ele>573.0</ele><time>2026-04-04T15:57:48.687Z</time></trkpt><trkpt lat="43.7147383" lon="12.7244583"><ele>573.0</ele><time>2026-04-04T15:57:49.687Z</time></trkpt><trkpt lat="43.714685" lon="12.7242683"><ele>573.0</ele><time>2026-04-04T15:57:50.689Z</time></trkpt><trkpt lat="43.71463" lon="12.7240867"><ele>574.25</ele><time>2026-04-04T15:57:51.687Z</time></trkpt><trkpt lat="43.71458" lon="12.7239183"><ele>575.5</ele><time>2026-04-04T15:57:52.686Z</time></trkpt><trkpt lat="43.7145367" lon="12.7237683"><ele>576.75</ele><time>2026-04-04T15:57:53.69Z</time></trkpt><trkpt lat="43.7145017" lon="12.723625"><ele>578.0</ele><time>2026-04-04T15:57:54.688Z</time></trkpt><trkpt lat="43.7144883" lon="12.72348"><ele>578.0</ele><time>2026-04-04T15:57:55.689Z</time></trkpt><trkpt lat="43.7144967" lon="12.7233267"><ele>578.0</ele><time>2026-04-04T15:57:56.69Z</time></trkpt><trkpt lat="43.714525" lon="12.72317"><ele>578.0</ele><time>2026-04-04T15:57:57.689Z</time></trkpt><trkpt lat="43.7145583" lon="12.7230033"><ele>578.0</ele><time>2026-04-04T15:57:58.688Z</time></trkpt><trkpt lat="43.7145917" lon="12.72283"><ele>577.5</ele><time>2026-04-04T15:57:59.689Z</time></trkpt><trkpt lat="43.714625" lon="12.7226567"><ele>577.0</ele><time>2026-04-04T15:58:00.688Z</time></trkpt><trkpt lat="43.71466" lon="12.7224783"><ele>576.5</ele><time>2026-04-04T15:58:01.69Z</time></trkpt><trkpt lat="43.71469" lon="12.7223083"><ele>576.0</ele><time>2026-04-04T15:58:02.691Z</time></trkpt><trkpt lat="43.714725" lon="12.722155"><ele>576.0</ele><time>2026-04-04T15:58:03.687Z</time></trkpt><trkpt lat="43.7147733" lon="12.7220267"><ele>576.0</ele><time>2026-04-04T15:58:04.688Z</time></trkpt><trkpt lat="43.7148533" lon="12.7219467"><ele>576.0</ele><time>2026-04-04T15:58:05.689Z</time></trkpt><trkpt lat="43.7149633" lon="12.7218933"><ele>576.0</ele><time>2026-04-04T15:58:06.689Z</time></trkpt><trkpt lat="43.7151967" lon="12.7217817"><ele>575.0</ele><time>2026-04-04T15:58:08.689Z</time></trkpt><trkpt lat="43.7153" lon="12.7216833"><ele>574.0</ele><time>2026-04-04T15:58:09.689Z</time></trkpt><trkpt lat="43.715385" lon="12.72155"><ele>573.0</ele><time>2026-04-04T15:58:10.688Z</time></trkpt><trkpt lat="43.7154433" lon="12.721385"><ele>572.0</ele><time>2026-04-04T15:58:11.689Z</time></trkpt><trkpt lat="43.71548" lon="12.7212033"><ele>571.0</ele><time>2026-04-04T15:58:12.688Z</time></trkpt><trkpt lat="43.7155083" lon="12.72102"><ele>570.0</ele><time>2026-04-04T15:58:13.689Z</time></trkpt><trkpt lat="43.7155367" lon="12.7208317"><ele>569.0</ele><time>2026-04-04T15:58:14.689Z</time></trkpt><trkpt lat="43.7155683" lon="12.7206383"><ele>568.0</ele><time>2026-04-04T15:58:15.689Z</time></trkpt><trkpt lat="43.7155983" lon="12.7204383"><ele>568.0</ele><time>2026-04-04T15:58:16.688Z</time></trkpt><trkpt lat="43.7156317" lon="12.720235"><ele>568.0</ele><time>2026-04-04T15:58:17.689Z</time></trkpt><trkpt lat="43.7156633" lon="12.720035"><ele>568.0</ele><time>2026-04-04T15:58:18.689Z</time></trkpt><trkpt lat="43.7156933" lon="12.7198283"><ele>566.0</ele><time>2026-04-04T15:58:19.689Z</time></trkpt><trkpt lat="43.7157217" lon="12.71962"><ele>564.0</ele><time>2026-04-04T15:58:20.69Z</time></trkpt><trkpt lat="43.71575" lon="12.71941"><ele>562.0</ele><time>2026-04-04T15:58:21.687Z</time></trkpt><trkpt lat="43.7157817" lon="12.7191983"><ele>562.0</ele><time>2026-04-04T15:58:22.689Z</time></trkpt><trkpt lat="43.7158117" lon="12.7189833"><ele>562.0</ele><time>2026-04-04T15:58:23.692Z</time></trkpt><trkpt lat="43.71584" lon="12.7187717"><ele>562.0</ele><time>2026-04-04T15:58:24.688Z</time></trkpt><trkpt lat="43.7158717" lon="12.7185617"><ele>562.0</ele><time>2026-04-04T15:58:25.69Z</time></trkpt><trkpt lat="43.7159033" lon="12.7183517"><ele>562.0</ele><time>2026-04-04T15:58:26.689Z</time></trkpt><trkpt lat="43.7159367" lon="12.7181383"><ele>562.0</ele><time>2026-04-04T15:58:27.688Z</time></trkpt><trkpt lat="43.7159983" lon="12.7177183"><ele>561.25</ele><time>2026-04-04T15:58:29.69Z</time></trkpt><trkpt lat="43.7160267" lon="12.7175217"><ele>560.5</ele><time>2026-04-04T15:58:30.688Z</time></trkpt><trkpt lat="43.7160517" lon="12.71733"><ele>559.75</ele><time>2026-04-04T15:58:31.69Z</time></trkpt><trkpt lat="43.7160783" lon="12.7171417"><ele>559.0</ele><time>2026-04-04T15:58:32.691Z</time></trkpt><trkpt lat="43.716105" lon="12.7169667"><ele>558.5</ele><time>2026-04-04T15:58:33.687Z</time></trkpt><trkpt lat="43.7161433" lon="12.716805"><ele>558.0</ele><time>2026-04-04T15:58:34.689Z</time></trkpt><trkpt lat="43.7161967" lon="12.71666"><ele>557.5</ele><time>2026-04-04T15:58:35.689Z</time></trkpt><trkpt lat="43.7162667" lon="12.7165433"><ele>557.0</ele><time>2026-04-04T15:58:36.686Z</time></trkpt><trkpt lat="43.7163633" lon="12.7164633"><ele>557.0</ele><time>2026-04-04T15:58:37.69Z</time></trkpt><trkpt lat="43.7164833" lon="12.716425"><ele>557.0</ele><time>2026-04-04T15:58:38.688Z</time></trkpt><trkpt lat="43.716615" lon="12.7164167"><ele>557.0</ele><time>2026-04-04T15:58:39.689Z</time></trkpt><trkpt lat="43.7167583" lon="12.7164333"><ele>557.0</ele><time>2026-04-04T15:58:40.689Z</time></trkpt><trkpt lat="43.7169033" lon="12.7164633"><ele>555.25</ele><time>2026-04-04T15:58:41.689Z</time></trkpt><trkpt lat="43.7170467" lon="12.7164933"><ele>553.5</ele><time>2026-04-04T15:58:42.689Z</time></trkpt><trkpt lat="43.7171883" lon="12.7165233"><ele>551.75</ele><time>2026-04-04T15:58:43.69Z</time></trkpt><trkpt lat="43.71732" lon="12.7165533"><ele>550.0</ele><time>2026-04-04T15:58:44.689Z</time></trkpt><trkpt lat="43.7174417" lon="12.7165783"><ele>550.0</ele><time>2026-04-04T15:58:45.689Z</time></trkpt><trkpt lat="43.7175533" lon="12.7165917"><ele>550.0</ele><time>2026-04-04T15:58:46.688Z</time></trkpt><trkpt lat="43.7176567" lon="12.71658"><ele>550.0</ele><time>2026-04-04T15:58:47.688Z</time></trkpt><trkpt lat="43.7177483" lon="12.7165367"><ele>550.0</ele><time>2026-04-04T15:58:48.69Z</time></trkpt><trkpt lat="43.7178667" lon="12.71636"><ele>548.2</ele><time>2026-04-04T15:58:50.688Z</time></trkpt><trkpt lat="43.717885" lon="12.716225"><ele>546.4</ele><time>2026-04-04T15:58:51.687Z</time></trkpt><trkpt lat="43.71788" lon="12.71607"><ele>544.6</ele><time>2026-04-04T15:58:52.688Z</time></trkpt><trkpt lat="43.7178783" lon="12.715915"><ele>542.8</ele><time>2026-04-04T15:58:53.69Z</time></trkpt><trkpt lat="43.7178933" lon="12.715765"><ele>541.0</ele><time>2026-04-04T15:58:54.69Z</time></trkpt><trkpt lat="43.7179283" lon="12.7156217"><ele>541.0</ele><time>2026-04-04T15:58:55.69Z</time></trkpt><trkpt lat="43.7179933" lon="12.7155033"><ele>541.0</ele><time>2026-04-04T15:58:56.689Z</time></trkpt><trkpt lat="43.7180817" lon="12.7154067"><ele>541.0</ele><time>2026-04-04T15:58:57.689Z</time></trkpt><trkpt lat="43.7181767" lon="12.71532"><ele>541.0</ele><time>2026-04-04T15:58:58.687Z</time></trkpt><trkpt lat="43.7182717" lon="12.715245"><ele>541.0</ele><time>2026-04-04T15:58:59.689Z</time></trkpt><trkpt lat="43.7183717" lon="12.715195"><ele>542.2</ele><time>2026-04-04T15:59:00.687Z</time></trkpt><trkpt lat="43.71848" lon="12.7151867"><ele>543.4000000000001</ele><time>2026-04-04T15:59:01.689Z</time></trkpt><trkpt lat="43.7185867" lon="12.715195"><ele>544.6</ele><time>2026-04-04T15:59:02.688Z</time></trkpt><trkpt lat="43.7186917" lon="12.7151933"><ele>545.8000000000001</ele><time>2026-04-04T15:59:03.687Z</time></trkpt><trkpt lat="43.7187967" lon="12.7151567"><ele>547.0</ele><time>2026-04-04T15:59:04.688Z</time></trkpt><trkpt lat="43.718885" lon="12.7150833"><ele>543.5</ele><time>2026-04-04T15:59:05.693Z</time></trkpt><trkpt lat="43.7189417" lon="12.7149683"><ele>540.0</ele><time>2026-04-04T15:59:06.689Z</time></trkpt><trkpt lat="43.7189833" lon="12.7148217"><ele>536.5</ele><time>2026-04-04T15:59:07.691Z</time></trkpt><trkpt lat="43.7190133" lon="12.714655"><ele>533.0</ele><time>2026-04-04T15:59:08.688Z</time></trkpt><trkpt lat="43.7190317" lon="12.71447"><ele>532.3333333333333</ele><time>2026-04-04T15:59:09.688Z</time></trkpt><trkpt lat="43.719025" lon="12.7140667"><ele>531.6666666666666</ele><time>2026-04-04T15:59:11.688Z</time></trkpt><trkpt lat="43.7190083" lon="12.7138533"><ele>531.0</ele><time>2026-04-04T15:59:12.688Z</time></trkpt><trkpt lat="43.718985" lon="12.71363"><ele>529.0</ele><time>2026-04-04T15:59:13.69Z</time></trkpt><trkpt lat="43.71896" lon="12.7134067"><ele>527.0</ele><time>2026-04-04T15:59:14.689Z</time></trkpt><trkpt lat="43.718935" lon="12.71318"><ele>525.0</ele><time>2026-04-04T15:59:15.688Z</time></trkpt><trkpt lat="43.7189117" lon="12.71295"><ele>524.3333333333334</ele><time>2026-04-04T15:59:16.688Z</time></trkpt><trkpt lat="43.7188917" lon="12.71272"><ele>523.6666666666667</ele><time>2026-04-04T15:59:17.688Z</time></trkpt><trkpt lat="43.7188683" lon="12.7124883"><ele>523.0</ele><time>2026-04-04T15:59:18.689Z</time></trkpt><trkpt lat="43.718845" lon="12.712255"><ele>523.0</ele><time>2026-04-04T15:59:19.688Z</time></trkpt><trkpt lat="43.7188233" lon="12.71202"><ele>523.0</ele><time>2026-04-04T15:59:20.69Z</time></trkpt><trkpt lat="43.7188" lon="12.7117917"><ele>523.0</ele><time>2026-04-04T15:59:21.687Z</time></trkpt><trkpt lat="43.7187783" lon="12.7115683"><ele>521.5</ele><time>2026-04-04T15:59:22.687Z</time></trkpt><trkpt lat="43.7187567" lon="12.7113567"><ele>520.0</ele><time>2026-04-04T15:59:23.688Z</time></trkpt><trkpt lat="43.7187417" lon="12.7111567"><ele>518.5</ele><time>2026-04-04T15:59:24.69Z</time></trkpt><trkpt lat="43.7187433" lon="12.7109683"><ele>517.0</ele><time>2026-04-04T15:59:25.689Z</time></trkpt><trkpt lat="43.7187683" lon="12.7107767"><ele>516.25</ele><time>2026-04-04T15:59:26.687Z</time></trkpt><trkpt lat="43.71881" lon="12.710615"><ele>515.5</ele><time>2026-04-04T15:59:27.687Z</time></trkpt><trkpt lat="43.7188817" lon="12.710475"><ele>514.75</ele><time>2026-04-04T15:59:28.687Z</time></trkpt><trkpt lat="43.7189783" lon="12.7103683"><ele>514.0</ele><time>2026-04-04T15:59:29.689Z</time></trkpt><trkpt lat="43.7191" lon="12.710275"><ele>513.5</ele><time>2026-04-04T15:59:30.688Z</time></trkpt><trkpt lat="43.719365" lon="12.71008"><ele>513.0</ele><time>2026-04-04T15:59:32.688Z</time></trkpt><trkpt lat="43.7195067" lon="12.709975"><ele>512.0</ele><time>2026-04-04T15:59:33.689Z</time></trkpt><trkpt lat="43.7196533" lon="12.7098667"><ele>511.0</ele><time>2026-04-04T15:59:34.687Z</time></trkpt><trkpt lat="43.7198017" lon="12.709765"><ele>510.0</ele><time>2026-04-04T15:59:35.689Z</time></trkpt><trkpt lat="43.71995" lon="12.70966"><ele>510.0</ele><time>2026-04-04T15:59:36.688Z</time></trkpt><trkpt lat="43.720095" lon="12.7095583"><ele>510.0</ele><time>2026-04-04T15:59:37.689Z</time></trkpt><trkpt lat="43.72024" lon="12.7094517"><ele>510.0</ele><time>2026-04-04T15:59:38.689Z</time></trkpt><trkpt lat="43.7203883" lon="12.70934"><ele>512.0</ele><time>2026-04-04T15:59:39.687Z</time></trkpt><trkpt lat="43.7205283" lon="12.7092283"><ele>514.0</ele><time>2026-04-04T15:59:40.691Z</time></trkpt><trkpt lat="43.720665" lon="12.70912"><ele>516.0</ele><time>2026-04-04T15:59:41.689Z</time></trkpt><trkpt lat="43.7208" lon="12.7090133"><ele>516.0</ele><time>2026-04-04T15:59:42.689Z</time></trkpt><trkpt lat="43.72093" lon="12.7089133"><ele>516.0</ele><time>2026-04-04T15:59:43.688Z</time></trkpt><trkpt lat="43.7210617" lon="12.708815"><ele>516.0</ele><time>2026-04-04T15:59:44.689Z</time></trkpt><trkpt lat="43.7211917" lon="12.708725"><ele>516.0</ele><time>2026-04-04T15:59:45.688Z</time></trkpt><trkpt lat="43.72133" lon="12.7086583"><ele>515.75</ele><time>2026-04-04T15:59:46.69Z</time></trkpt><trkpt lat="43.7214683" lon="12.70862"><ele>515.5</ele><time>2026-04-04T15:59:47.689Z</time></trkpt><trkpt lat="43.7216133" lon="12.7086033"><ele>515.25</ele><time>2026-04-04T15:59:48.688Z</time></trkpt><trkpt lat="43.721765" lon="12.708605"><ele>515.0</ele><time>2026-04-04T15:59:49.692Z</time></trkpt><trkpt lat="43.7219183" lon="12.70862"><ele>515.0</ele><time>2026-04-04T15:59:50.689Z</time></trkpt><trkpt lat="43.722075" lon="12.7086433"><ele>515.0</ele><time>2026-04-04T15:59:51.689Z</time></trkpt><trkpt lat="43.722375" lon="12.70871"><ele>515.0</ele><time>2026-04-04T15:59:53.688Z</time></trkpt><trkpt lat="43.72251" lon="12.7087433"><ele>515.0</ele><time>2026-04-04T15:59:54.689Z</time></trkpt><trkpt lat="43.72263" lon="12.7087683"><ele>515.0</ele><time>2026-04-04T15:59:55.69Z</time></trkpt><trkpt lat="43.7227317" lon="12.7087867"><ele>515.0</ele><time>2026-04-04T15:59:56.689Z</time></trkpt><trkpt lat="43.7228117" lon="12.7088"><ele>515.0</ele><time>2026-04-04T15:59:57.686Z</time></trkpt><trkpt lat="43.722905" lon="12.7088"><ele>516.5</ele><time>2026-04-04T15:59:59.689Z</time></trkpt><trkpt lat="43.7229233" lon="12.7087133"><ele>518.0</ele><time>2026-04-04T16:00:01.688Z</time></trkpt><trkpt lat="43.7229017" lon="12.7085883"><ele>519.5</ele><time>2026-04-04T16:00:03.687Z</time></trkpt><trkpt lat="43.7228767" lon="12.7085083"><ele>521.0</ele><time>2026-04-04T16:00:04.688Z</time></trkpt><trkpt lat="43.7228367" lon="12.70841"><ele>522.5</ele><time>2026-04-04T16:00:05.686Z</time></trkpt><trkpt lat="43.7227867" lon="12.708295"><ele>524.0</ele><time>2026-04-04T16:00:06.688Z</time></trkpt><trkpt lat="43.72273" lon="12.7081633"><ele>524.5</ele><time>2026-04-04T16:00:07.689Z</time></trkpt><trkpt lat="43.7226733" lon="12.7080217"><ele>525.0</ele><time>2026-04-04T16:00:08.687Z</time></trkpt><trkpt lat="43.7226133" lon="12.70788"><ele>525.5</ele><time>2026-04-04T16:00:09.687Z</time></trkpt><trkpt lat="43.72256" lon="12.7077083"><ele>526.0</ele><time>2026-04-04T16:00:10.688Z</time></trkpt><trkpt lat="43.722505" lon="12.7075383"><ele>526.3333333333334</ele><time>2026-04-04T16:00:11.688Z</time></trkpt><trkpt lat="43.7224483" lon="12.707365"><ele>526.6666666666666</ele><time>2026-04-04T16:00:12.688Z</time></trkpt><trkpt lat="43.7223117" lon="12.707015"><ele>527.0</ele><time>2026-04-04T16:00:14.688Z</time></trkpt><trkpt lat="43.7222417" lon="12.706845"><ele>525.6666666666666</ele><time>2026-04-04T16:00:15.689Z</time></trkpt><trkpt lat="43.7221767" lon="12.7066617"><ele>524.3333333333334</ele><time>2026-04-04T16:00:16.689Z</time></trkpt><trkpt lat="43.722105" lon="12.7064733"><ele>523.0</ele><time>2026-04-04T16:00:17.688Z</time></trkpt><trkpt lat="43.722035" lon="12.70628"><ele>523.0</ele><time>2026-04-04T16:00:18.686Z</time></trkpt><trkpt lat="43.7219717" lon="12.7060883"><ele>523.0</ele><time>2026-04-04T16:00:19.69Z</time></trkpt><trkpt lat="43.7219217" lon="12.705895"><ele>523.0</ele><time>2026-04-04T16:00:20.689Z</time></trkpt><trkpt lat="43.7219017" lon="12.7056983"><ele>523.0</ele><time>2026-04-04T16:00:21.688Z</time></trkpt><trkpt lat="43.7219033" lon="12.7054867"><ele>522.75</ele><time>2026-04-04T16:00:22.688Z</time></trkpt><trkpt lat="43.72191" lon="12.70528"><ele>522.5</ele><time>2026-04-04T16:00:23.688Z</time></trkpt><trkpt lat="43.7219233" lon="12.7050783"><ele>522.25</ele><time>2026-04-04T16:00:24.688Z</time></trkpt><trkpt lat="43.7219433" lon="12.7048767"><ele>522.0</ele><time>2026-04-04T16:00:25.69Z</time></trkpt><trkpt lat="43.721965" lon="12.7046917"><ele>522.0</ele><time>2026-04-04T16:00:26.687Z</time></trkpt><trkpt lat="43.72198" lon="12.7045367"><ele>522.0</ele><time>2026-04-04T16:00:27.688Z</time></trkpt><trkpt lat="43.721975" lon="12.704405"><ele>522.0</ele><time>2026-04-04T16:00:28.688Z</time></trkpt><trkpt lat="43.7219517" lon="12.7042767"><ele>522.0</ele><time>2026-04-04T16:00:29.69Z</time></trkpt><trkpt lat="43.7219117" lon="12.7041417"><ele>522.0</ele><time>2026-04-04T16:00:30.688Z</time></trkpt><trkpt lat="43.72186" lon="12.7040083"><ele>521.8000000000001</ele><time>2026-04-04T16:00:31.689Z</time></trkpt><trkpt lat="43.7218117" lon="12.7038883"><ele>521.6</ele><time>2026-04-04T16:00:32.688Z</time></trkpt><trkpt lat="43.7217717" lon="12.703775"><ele>521.4000000000001</ele><time>2026-04-04T16:00:33.687Z</time></trkpt><trkpt lat="43.721735" lon="12.70358"><ele>521.2</ele><time>2026-04-04T16:00:35.687Z</time></trkpt><trkpt lat="43.721745" lon="12.7034833"><ele>521.0</ele><time>2026-04-04T16:00:36.689Z</time></trkpt><trkpt lat="43.72178" lon="12.7033783"><ele>521.0</ele><time>2026-04-04T16:00:37.688Z</time></trkpt><trkpt lat="43.7218467" lon="12.7032533"><ele>521.0</ele><time>2026-04-04T16:00:38.689Z</time></trkpt><trkpt lat="43.72191" lon="12.7030917"><ele>521.0</ele><time>2026-04-04T16:00:39.688Z</time></trkpt><trkpt lat="43.7219583" lon="12.7029417"><ele>521.0</ele><time>2026-04-04T16:00:40.689Z</time></trkpt><trkpt lat="43.7219983" lon="12.7027933"><ele>524.0</ele><time>2026-04-04T16:00:41.689Z</time></trkpt><trkpt lat="43.722035" lon="12.702645"><ele>527.0</ele><time>2026-04-04T16:00:42.689Z</time></trkpt><trkpt lat="43.7220633" lon="12.7025067"><ele>530.0</ele><time>2026-04-04T16:00:43.688Z</time></trkpt><trkpt lat="43.7220917" lon="12.7023633"><ele>533.0</ele><time>2026-04-04T16:00:44.687Z</time></trkpt><trkpt lat="43.72212" lon="12.7022117"><ele>536.0</ele><time>2026-04-04T16:00:45.686Z</time></trkpt><trkpt lat="43.722155" lon="12.7020533"><ele>536.0</ele><time>2026-04-04T16:00:46.688Z</time></trkpt><trkpt lat="43.7222017" lon="12.701895"><ele>536.0</ele><time>2026-04-04T16:00:47.69Z</time></trkpt><trkpt lat="43.72226" lon="12.701735"><ele>536.0</ele><time>2026-04-04T16:00:48.688Z</time></trkpt><trkpt lat="43.7223233" lon="12.70157"><ele>536.0</ele><time>2026-04-04T16:00:49.689Z</time></trkpt><trkpt lat="43.722385" lon="12.7014017"><ele>536.0</ele><time>2026-04-04T16:00:50.689Z</time></trkpt><trkpt lat="43.7224433" lon="12.7012333"><ele>536.0</ele><time>2026-04-04T16:00:51.688Z</time></trkpt><trkpt lat="43.7224933" lon="12.7010683"><ele>536.0</ele><time>2026-04-04T16:00:52.689Z</time></trkpt><trkpt lat="43.722535" lon="12.7009083"><ele>536.0</ele><time>2026-04-04T16:00:53.689Z</time></trkpt><trkpt lat="43.722565" lon="12.7007517"><ele>536.5</ele><time>2026-04-04T16:00:54.689Z</time></trkpt><trkpt lat="43.7225867" lon="12.7004367"><ele>537.0</ele><time>2026-04-04T16:00:56.69Z</time></trkpt><trkpt lat="43.7225717" lon="12.7002933"><ele>537.5</ele><time>2026-04-04T16:00:57.689Z</time></trkpt><trkpt lat="43.7225417" lon="12.7001583"><ele>538.0</ele><time>2026-04-04T16:00:58.688Z</time></trkpt><trkpt lat="43.7224967" lon="12.7000433"><ele>540.5</ele><time>2026-04-04T16:00:59.691Z</time></trkpt><trkpt lat="43.722425" lon="12.6999483"><ele>543.0</ele><time>2026-04-04T16:01:00.689Z</time></trkpt><trkpt lat="43.722325" lon="12.69986"><ele>545.5</ele><time>2026-04-04T16:01:01.691Z</time></trkpt><trkpt lat="43.7222183" lon="12.6997617"><ele>548.0</ele><time>2026-04-04T16:01:02.688Z</time></trkpt><trkpt lat="43.7221133" lon="12.6996533"><ele>548.0</ele><time>2026-04-04T16:01:03.689Z</time></trkpt><trkpt lat="43.7220267" lon="12.6995317"><ele>548.0</ele><time>2026-04-04T16:01:04.689Z</time></trkpt><trkpt lat="43.7219533" lon="12.6994183"><ele>548.0</ele><time>2026-04-04T16:01:05.691Z</time></trkpt><trkpt lat="43.72191" lon="12.6993033"><ele>548.0</ele><time>2026-04-04T16:01:06.689Z</time></trkpt><trkpt lat="43.7218983" lon="12.6991667"><ele>548.0</ele><time>2026-04-04T16:01:07.689Z</time></trkpt><trkpt lat="43.7219117" lon="12.6990267"><ele>548.4</ele><time>2026-04-04T16:01:08.691Z</time></trkpt><trkpt lat="43.7219467" lon="12.698895"><ele>548.8</ele><time>2026-04-04T16:01:09.688Z</time></trkpt><trkpt lat="43.7219933" lon="12.698765"><ele>549.2</ele><time>2026-04-04T16:01:10.69Z</time></trkpt><trkpt lat="43.7220617" lon="12.6986433"><ele>549.6</ele><time>2026-04-04T16:01:11.689Z</time></trkpt><trkpt lat="43.72214" lon="12.6985367"><ele>550.0</ele><time>2026-04-04T16:01:12.687Z</time></trkpt><trkpt lat="43.7222267" lon="12.6984483"><ele>550.0</ele><time>2026-04-04T16:01:13.689Z</time></trkpt><trkpt lat="43.7223183" lon="12.6983783"><ele>550.0</ele><time>2026-04-04T16:01:14.689Z</time></trkpt><trkpt lat="43.7224183" lon="12.6983333"><ele>550.0</ele><time>2026-04-04T16:01:15.687Z</time></trkpt><trkpt lat="43.7226533" lon="12.6982933"><ele>550.0</ele><time>2026-04-04T16:01:17.688Z</time></trkpt><trkpt lat="43.72276" lon="12.6982833"><ele>551.3333333333334</ele><time>2026-04-04T16:01:18.687Z</time></trkpt><trkpt lat="43.7228583" lon="12.6982717"><ele>552.6666666666667</ele><time>2026-04-04T16:01:19.69Z</time></trkpt><trkpt lat="43.7229483" lon="12.6982517"><ele>554.0</ele><time>2026-04-04T16:01:20.687Z</time></trkpt><trkpt lat="43.72303" lon="12.69821"><ele>555.3333333333334</ele><time>2026-04-04T16:01:21.687Z</time></trkpt><trkpt lat="43.723105" lon="12.69817"><ele>556.6666666666666</ele><time>2026-04-04T16:01:22.692Z</time></trkpt><trkpt lat="43.723175" lon="12.6981133"><ele>558.0</ele><time>2026-04-04T16:01:23.688Z</time></trkpt><trkpt lat="43.7232083" lon="12.69803"><ele>558.0</ele><time>2026-04-04T16:01:24.689Z</time></trkpt><trkpt lat="43.7232017" lon="12.697915"><ele>558.0</ele><time>2026-04-04T16:01:25.687Z</time></trkpt><trkpt lat="43.7231833" lon="12.697785"><ele>558.0</ele><time>2026-04-04T16:01:26.689Z</time></trkpt><trkpt lat="43.7231333" lon="12.697665"><ele>558.0</ele><time>2026-04-04T16:01:27.689Z</time></trkpt><trkpt lat="43.7231133" lon="12.6975733"><ele>558.0</ele><time>2026-04-04T16:01:28.687Z</time></trkpt><trkpt lat="43.7231117" lon="12.6974833"><ele>558.0</ele><time>2026-04-04T16:01:29.689Z</time></trkpt><trkpt lat="43.723125" lon="12.6973717"><ele>557.8</ele><time>2026-04-04T16:01:30.687Z</time></trkpt><trkpt lat="43.7231583" lon="12.6972833"><ele>557.5999999999999</ele><time>2026-04-04T16:01:31.687Z</time></trkpt><trkpt lat="43.7232867" lon="12.6972317"><ele>557.4000000000001</ele><time>2026-04-04T16:01:33.686Z</time></trkpt><trkpt lat="43.7233783" lon="12.69725"><ele>557.2</ele><time>2026-04-04T16:01:34.69Z</time></trkpt><trkpt lat="43.72349" lon="12.6973"><ele>557.0</ele><time>2026-04-04T16:01:35.688Z</time></trkpt><trkpt lat="43.7236117" lon="12.697365"><ele>560.3333333333333</ele><time>2026-04-04T16:01:36.69Z</time></trkpt><trkpt lat="43.723825" lon="12.6974767"><ele>563.6666666666666</ele><time>2026-04-04T16:01:38.687Z</time></trkpt><trkpt lat="43.7239367" lon="12.6975183"><ele>567.0</ele><time>2026-04-04T16:01:39.686Z</time></trkpt><trkpt lat="43.7240467" lon="12.6975533"><ele>567.0</ele><time>2026-04-04T16:01:40.689Z</time></trkpt><trkpt lat="43.724145" lon="12.6975817"><ele>567.0</ele><time>2026-04-04T16:01:41.688Z</time></trkpt><trkpt lat="43.7242317" lon="12.6976083"><ele>567.0</ele><time>2026-04-04T16:01:42.687Z</time></trkpt><trkpt lat="43.7243067" lon="12.6976367"><ele>567.0</ele><time>2026-04-04T16:01:43.688Z</time></trkpt><trkpt lat="43.7243683" lon="12.6976683"><ele>567.0</ele><time>2026-04-04T16:01:44.689Z</time></trkpt><trkpt lat="43.7244267" lon="12.697715"><ele>567.0</ele><time>2026-04-04T16:01:45.687Z</time></trkpt><trkpt lat="43.7244817" lon="12.6977767"><ele>565.4</ele><time>2026-04-04T16:01:46.689Z</time></trkpt><trkpt lat="43.7245183" lon="12.69786"><ele>563.8000000000001</ele><time>2026-04-04T16:01:47.691Z</time></trkpt><trkpt lat="43.724545" lon="12.6979767"><ele>562.2</ele><time>2026-04-04T16:01:48.688Z</time></trkpt><trkpt lat="43.7245517" lon="12.6981167"><ele>560.6</ele><time>2026-04-04T16:01:49.688Z</time></trkpt><trkpt lat="43.72455" lon="12.69826"><ele>559.0</ele><time>2026-04-04T16:01:50.688Z</time></trkpt><trkpt lat="43.7245433" lon="12.6984083"><ele>559.0</ele><time>2026-04-04T16:01:51.688Z</time></trkpt><trkpt lat="43.7245467" lon="12.6985283"><ele>559.0</ele><time>2026-04-04T16:01:52.689Z</time></trkpt><trkpt lat="43.7245583" lon="12.69865"><ele>559.0</ele><time>2026-04-04T16:01:53.688Z</time></trkpt><trkpt lat="43.7245867" lon="12.69877"><ele>559.0</ele><time>2026-04-04T16:01:54.688Z</time></trkpt><trkpt lat="43.724635" lon="12.6988783"><ele>559.0</ele><time>2026-04-04T16:01:55.688Z</time></trkpt><trkpt lat="43.7247" lon="12.6989833"><ele>565.25</ele><time>2026-04-04T16:01:56.69Z</time></trkpt><trkpt lat="43.7247817" lon="12.69907"><ele>571.5</ele><time>2026-04-04T16:01:57.686Z</time></trkpt><trkpt lat="43.7249767" lon="12.6992033"><ele>577.75</ele><time>2026-04-04T16:01:59.687Z</time></trkpt><trkpt lat="43.725085" lon="12.69925"><ele>584.0</ele><time>2026-04-04T16:02:00.688Z</time></trkpt><trkpt lat="43.7251917" lon="12.6992933"><ele>582.4</ele><time>2026-04-04T16:02:01.69Z</time></trkpt><trkpt lat="43.72529" lon="12.6993317"><ele>580.8</ele><time>2026-04-04T16:02:02.687Z</time></trkpt><trkpt lat="43.7253817" lon="12.69936"><ele>579.2</ele><time>2026-04-04T16:02:03.687Z</time></trkpt><trkpt lat="43.7254783" lon="12.6993783"><ele>577.6</ele><time>2026-04-04T16:02:04.688Z</time></trkpt><trkpt lat="43.7255783" lon="12.699395"><ele>576.0</ele><time>2026-04-04T16:02:05.69Z</time></trkpt><trkpt lat="43.7256933" lon="12.6993833"><ele>576.0</ele><time>2026-04-04T16:02:06.686Z</time></trkpt><trkpt lat="43.725805" lon="12.6993717"><ele>576.0</ele><time>2026-04-04T16:02:07.689Z</time></trkpt><trkpt lat="43.7259183" lon="12.6993517"><ele>576.0</ele><time>2026-04-04T16:02:08.689Z</time></trkpt><trkpt lat="43.7260317" lon="12.699325"><ele>576.0</ele><time>2026-04-04T16:02:09.688Z</time></trkpt><trkpt lat="43.7261417" lon="12.6993"><ele>577.6</ele><time>2026-04-04T16:02:10.689Z</time></trkpt><trkpt lat="43.72625" lon="12.6992617"><ele>579.2</ele><time>2026-04-04T16:02:11.688Z</time></trkpt><trkpt lat="43.726355" lon="12.6992133"><ele>580.8</ele><time>2026-04-04T16:02:12.687Z</time></trkpt><trkpt lat="43.726455" lon="12.699135"><ele>582.4</ele><time>2026-04-04T16:02:13.688Z</time></trkpt><trkpt lat="43.72654" lon="12.6990583"><ele>584.0</ele><time>2026-04-04T16:02:14.688Z</time></trkpt><trkpt lat="43.7266283" lon="12.6989633"><ele>584.0</ele><time>2026-04-04T16:02:15.688Z</time></trkpt><trkpt lat="43.7267233" lon="12.69892"><ele>584.0</ele><time>2026-04-04T16:02:16.687Z</time></trkpt><trkpt lat="43.72683" lon="12.6989"><ele>584.0</ele><time>2026-04-04T16:02:17.688Z</time></trkpt><trkpt lat="43.7269383" lon="12.698905"><ele>584.0</ele><time>2026-04-04T16:02:18.689Z</time></trkpt><trkpt lat="43.7271383" lon="12.69896"><ele>584.8</ele><time>2026-04-04T16:02:20.691Z</time></trkpt><trkpt lat="43.72723" lon="12.698965"><ele>585.5999999999999</ele><time>2026-04-04T16:02:21.689Z</time></trkpt><trkpt lat="43.7273067" lon="12.6989583"><ele>586.4</ele><time>2026-04-04T16:02:22.686Z</time></trkpt><trkpt lat="43.7273933" lon="12.6989283"><ele>587.1999999999999</ele><time>2026-04-04T16:02:23.689Z</time></trkpt><trkpt lat="43.7274917" lon="12.69889"><ele>588.0</ele><time>2026-04-04T16:02:24.687Z</time></trkpt><trkpt lat="43.727615" lon="12.6988483"><ele>588.0</ele><time>2026-04-04T16:02:25.688Z</time></trkpt><trkpt lat="43.7277367" lon="12.698835"><ele>588.0</ele><time>2026-04-04T16:02:26.688Z</time></trkpt><trkpt lat="43.72786" lon="12.6988067"><ele>588.0</ele><time>2026-04-04T16:02:27.687Z</time></trkpt><trkpt lat="43.7279717" lon="12.698765"><ele>588.0</ele><time>2026-04-04T16:02:28.687Z</time></trkpt><trkpt lat="43.728075" lon="12.698695"><ele>588.0</ele><time>2026-04-04T16:02:29.688Z</time></trkpt><trkpt lat="43.7281717" lon="12.6986167"><ele>588.0</ele><time>2026-04-04T16:02:30.688Z</time></trkpt><trkpt lat="43.7282667" lon="12.6985583"><ele>588.0</ele><time>2026-04-04T16:02:31.688Z</time></trkpt><trkpt lat="43.728365" lon="12.6985133"><ele>588.0</ele><time>2026-04-04T16:02:32.688Z</time></trkpt><trkpt lat="43.72847" lon="12.6984933"><ele>588.0</ele><time>2026-04-04T16:02:33.688Z</time></trkpt><trkpt lat="43.7285717" lon="12.6985"><ele>586.1999999999999</ele><time>2026-04-04T16:02:34.687Z</time></trkpt><trkpt lat="43.72866" lon="12.6985317"><ele>584.4</ele><time>2026-04-04T16:02:35.689Z</time></trkpt><trkpt lat="43.7287433" lon="12.69859"><ele>582.5999999999999</ele><time>2026-04-04T16:02:36.69Z</time></trkpt><trkpt lat="43.7288217" lon="12.6986717"><ele>580.8</ele><time>2026-04-04T16:02:37.688Z</time></trkpt><trkpt lat="43.7289033" lon="12.6987767"><ele>579.0</ele><time>2026-04-04T16:02:38.689Z</time></trkpt><trkpt lat="43.7289783" lon="12.6988817"><ele>579.0</ele><time>2026-04-04T16:02:39.686Z</time></trkpt><trkpt lat="43.7291317" lon="12.6991217"><ele>579.0</ele><time>2026-04-04T16:02:41.688Z</time></trkpt><trkpt lat="43.72921" lon="12.6992533"><ele>579.0</ele><time>2026-04-04T16:02:42.688Z</time></trkpt><trkpt lat="43.729295" lon="12.6993517"><ele>578.4</ele><time>2026-04-04T16:02:43.691Z</time></trkpt><trkpt lat="43.7293967" lon="12.6994117"><ele>577.8</ele><time>2026-04-04T16:02:44.688Z</time></trkpt><trkpt lat="43.7295083" lon="12.69945"><ele>577.2</ele><time>2026-04-04T16:02:45.689Z</time></trkpt><trkpt lat="43.729615" lon="12.6994733"><ele>576.6</ele><time>2026-04-04T16:02:46.687Z</time></trkpt><trkpt lat="43.7297183" lon="12.699485"><ele>576.0</ele><time>2026-04-04T16:02:47.689Z</time></trkpt><trkpt lat="43.72982" lon="12.6994783"><ele>576.0</ele><time>2026-04-04T16:02:48.689Z</time></trkpt><trkpt lat="43.72992" lon="12.6994367"><ele>576.0</ele><time>2026-04-04T16:02:49.689Z</time></trkpt><trkpt lat="43.73002" lon="12.69937"><ele>576.0</ele><time>2026-04-04T16:02:50.688Z</time></trkpt><trkpt lat="43.7301183" lon="12.699285"><ele>576.0</ele><time>2026-04-04T16:02:51.689Z</time></trkpt><trkpt lat="43.7302217" lon="12.6992067"><ele>576.0</ele><time>2026-04-04T16:02:52.689Z</time></trkpt><trkpt lat="43.7303317" lon="12.69914"><ele>573.0</ele><time>2026-04-04T16:02:53.689Z</time></trkpt><trkpt lat="43.730445" lon="12.699075"><ele>570.0</ele><time>2026-04-04T16:02:54.686Z</time></trkpt><trkpt lat="43.7305583" lon="12.6990233"><ele>567.0</ele><time>2026-04-04T16:02:55.688Z</time></trkpt><trkpt lat="43.7306717" lon="12.698985"><ele>564.0</ele><time>2026-04-04T16:02:56.688Z</time></trkpt><trkpt lat="43.7307767" lon="12.6989217"><ele>564.0</ele><time>2026-04-04T16:02:57.687Z</time></trkpt><trkpt lat="43.730875" lon="12.6988417"><ele>564.0</ele><time>2026-04-04T16:02:58.688Z</time></trkpt><trkpt lat="43.73096" lon="12.698745"><ele>564.0</ele><time>2026-04-04T16:02:59.688Z</time></trkpt><trkpt lat="43.7310483" lon="12.698645"><ele>564.0</ele><time>2026-04-04T16:03:00.687Z</time></trkpt><trkpt lat="43.7312467" lon="12.6985033"><ele>561.0</ele><time>2026-04-04T16:03:02.69Z</time></trkpt><trkpt lat="43.7313433" lon="12.69847"><ele>558.0</ele><time>2026-04-04T16:03:03.687Z</time></trkpt><trkpt lat="43.7314183" lon="12.6984633"><ele>555.0</ele><time>2026-04-04T16:03:04.689Z</time></trkpt><trkpt lat="43.7314967" lon="12.69845"><ele>552.0</ele><time>2026-04-04T16:03:06.688Z</time></trkpt><trkpt lat="43.7315817" lon="12.6983483"><ele>549.0</ele><time>2026-04-04T16:03:09.687Z</time></trkpt><trkpt lat="43.7316183" lon="12.69824"><ele>549.0</ele><time>2026-04-04T16:03:10.689Z</time></trkpt><trkpt lat="43.7316433" lon="12.6981017"><ele>549.0</ele><time>2026-04-04T16:03:11.688Z</time></trkpt><trkpt lat="43.731655" lon="12.697935"><ele>549.0</ele><time>2026-04-04T16:03:12.689Z</time></trkpt><trkpt lat="43.73166" lon="12.6977983"><ele>549.0</ele><time>2026-04-04T16:03:13.69Z</time></trkpt><trkpt lat="43.73166" lon="12.6976717"><ele>549.0</ele><time>2026-04-04T16:03:14.689Z</time></trkpt><trkpt lat="43.731665" lon="12.6975617"><ele>549.0</ele><time>2026-04-04T16:03:15.69Z</time></trkpt><trkpt lat="43.731685" lon="12.697425"><ele>549.0</ele><time>2026-04-04T16:03:17.687Z</time></trkpt><trkpt lat="43.7317483" lon="12.6974067"><ele>549.0</ele><time>2026-04-04T16:03:20.688Z</time></trkpt><trkpt lat="43.7318183" lon="12.6974983"><ele>549.0</ele><time>2026-04-04T16:03:22.688Z</time></trkpt><trkpt lat="43.73191" lon="12.6976567"><ele>549.0</ele><time>2026-04-04T16:03:24.688Z</time></trkpt><trkpt lat="43.7319567" lon="12.6977467"><ele>546.4</ele><time>2026-04-04T16:03:25.69Z</time></trkpt><trkpt lat="43.731995" lon="12.69785"><ele>543.8</ele><time>2026-04-04T16:03:26.687Z</time></trkpt><trkpt lat="43.732025" lon="12.6979683"><ele>541.2</ele><time>2026-04-04T16:03:27.689Z</time></trkpt><trkpt lat="43.7320417" lon="12.6980967"><ele>538.6</ele><time>2026-04-04T16:03:28.689Z</time></trkpt><trkpt lat="43.7320533" lon="12.69823"><ele>536.0</ele><time>2026-04-04T16:03:29.688Z</time></trkpt><trkpt lat="43.7320583" lon="12.698355"><ele>536.0</ele><time>2026-04-04T16:03:30.689Z</time></trkpt><trkpt lat="43.7320683" lon="12.698465"><ele>536.0</ele><time>2026-04-04T16:03:31.69Z</time></trkpt><trkpt lat="43.73215" lon="12.6986517"><ele>536.0</ele><time>2026-04-04T16:03:33.688Z</time></trkpt><trkpt lat="43.73222" lon="12.6987083"><ele>536.0</ele><time>2026-04-04T16:03:34.687Z</time></trkpt><trkpt lat="43.7323133" lon="12.69874"><ele>536.0</ele><time>2026-04-04T16:03:35.688Z</time></trkpt><trkpt lat="43.7324133" lon="12.6987633"><ele>537.0</ele><time>2026-04-04T16:03:36.688Z</time></trkpt><trkpt lat="43.732515" lon="12.698785"><ele>538.0</ele><time>2026-04-04T16:03:37.69Z</time></trkpt><trkpt lat="43.7326017" lon="12.698815"><ele>539.0</ele><time>2026-04-04T16:03:38.688Z</time></trkpt><trkpt lat="43.732675" lon="12.6988633"><ele>540.0</ele><time>2026-04-04T16:03:39.688Z</time></trkpt><trkpt lat="43.732745" lon="12.6989217"><ele>541.0</ele><time>2026-04-04T16:03:40.689Z</time></trkpt><trkpt lat="43.732785" lon="12.6990017"><ele>542.0</ele><time>2026-04-04T16:03:41.689Z</time></trkpt><trkpt lat="43.7327867" lon="12.6991"><ele>541.0</ele><time>2026-04-04T16:03:42.687Z</time></trkpt><trkpt lat="43.7327383" lon="12.6992317"><ele>540.0</ele><time>2026-04-04T16:03:43.689Z</time></trkpt><trkpt lat="43.7326833" lon="12.69952"><ele>539.0</ele><time>2026-04-04T16:03:45.688Z</time></trkpt><trkpt lat="43.7326683" lon="12.699675"><ele>538.0</ele><time>2026-04-04T16:03:46.689Z</time></trkpt><trkpt lat="43.7326617" lon="12.69983"><ele>538.0</ele><time>2026-04-04T16:03:47.689Z</time></trkpt><trkpt lat="43.7326683" lon="12.6999733"><ele>538.0</ele><time>2026-04-04T16:03:48.687Z</time></trkpt><trkpt lat="43.7326967" lon="12.7001167"><ele>538.0</ele><time>2026-04-04T16:03:49.688Z</time></trkpt><trkpt lat="43.732745" lon="12.7002483"><ele>538.0</ele><time>2026-04-04T16:03:50.689Z</time></trkpt><trkpt lat="43.7328133" lon="12.7003517"><ele>538.0</ele><time>2026-04-04T16:03:51.687Z</time></trkpt><trkpt lat="43.7328983" lon="12.7004133"><ele>535.5</ele><time>2026-04-04T16:03:52.688Z</time></trkpt><trkpt lat="43.73299" lon="12.700445"><ele>533.0</ele><time>2026-04-04T16:03:53.691Z</time></trkpt><trkpt lat="43.7330783" lon="12.7004617"><ele>530.5</ele><time>2026-04-04T16:03:54.688Z</time></trkpt><trkpt lat="43.733155" lon="12.7004883"><ele>528.0</ele><time>2026-04-04T16:03:55.688Z</time></trkpt><trkpt lat="43.7332217" lon="12.7005367"><ele>525.5</ele><time>2026-04-04T16:03:56.689Z</time></trkpt><trkpt lat="43.7332767" lon="12.7006033"><ele>523.0</ele><time>2026-04-04T16:03:57.688Z</time></trkpt><trkpt lat="43.7333083" lon="12.7007"><ele>523.0</ele><time>2026-04-04T16:03:58.689Z</time></trkpt><trkpt lat="43.7333333" lon="12.70082"><ele>523.0</ele><time>2026-04-04T16:03:59.688Z</time></trkpt><trkpt lat="43.733365" lon="12.7009467"><ele>523.0</ele><time>2026-04-04T16:04:00.688Z</time></trkpt><trkpt lat="43.73339" lon="12.7010933"><ele>523.0</ele><time>2026-04-04T16:04:01.689Z</time></trkpt><trkpt lat="43.7334133" lon="12.7012433"><ele>523.0</ele><time>2026-04-04T16:04:02.686Z</time></trkpt><trkpt lat="43.7334433" lon="12.7013917"><ele>520.3333333333334</ele><time>2026-04-04T16:04:03.691Z</time></trkpt><trkpt lat="43.73348" lon="12.7015433"><ele>517.6666666666666</ele><time>2026-04-04T16:04:04.687Z</time></trkpt><trkpt lat="43.733555" lon="12.701845"><ele>515.0</ele><time>2026-04-04T16:04:06.688Z</time></trkpt><trkpt lat="43.733585" lon="12.7019933"><ele>513.8</ele><time>2026-04-04T16:04:07.688Z</time></trkpt><trkpt lat="43.7336033" lon="12.702135"><ele>512.6</ele><time>2026-04-04T16:04:08.69Z</time></trkpt><trkpt lat="43.7335867" lon="12.7022833"><ele>511.4</ele><time>2026-04-04T16:04:09.688Z</time></trkpt><trkpt lat="43.73356" lon="12.7024183"><ele>510.2</ele><time>2026-04-04T16:04:10.688Z</time></trkpt><trkpt lat="43.733525" lon="12.7025317"><ele>509.0</ele><time>2026-04-04T16:04:11.689Z</time></trkpt><trkpt lat="43.7335" lon="12.7026467"><ele>508.4</ele><time>2026-04-04T16:04:12.689Z</time></trkpt><trkpt lat="43.7334833" lon="12.70277"><ele>507.79999999999995</ele><time>2026-04-04T16:04:13.69Z</time></trkpt><trkpt lat="43.7334883" lon="12.7028817"><ele>507.20000000000005</ele><time>2026-04-04T16:04:14.689Z</time></trkpt><trkpt lat="43.733515" lon="12.702995"><ele>506.6</ele><time>2026-04-04T16:04:15.688Z</time></trkpt><trkpt lat="43.7335717" lon="12.7031067"><ele>506.0</ele><time>2026-04-04T16:04:16.689Z</time></trkpt><trkpt lat="43.733635" lon="12.7032167"><ele>502.20000000000005</ele><time>2026-04-04T16:04:17.687Z</time></trkpt><trkpt lat="43.7336767" lon="12.7033333"><ele>498.40000000000003</ele><time>2026-04-04T16:04:18.689Z</time></trkpt><trkpt lat="43.7336917" lon="12.7034567"><ele>494.6</ele><time>2026-04-04T16:04:19.688Z</time></trkpt><trkpt lat="43.7336833" lon="12.7036"><ele>490.8</ele><time>2026-04-04T16:04:20.687Z</time></trkpt><trkpt lat="43.7336667" lon="12.7037517"><ele>487.0</ele><time>2026-04-04T16:04:21.688Z</time></trkpt><trkpt lat="43.7336483" lon="12.7039117"><ele>485.75</ele><time>2026-04-04T16:04:22.691Z</time></trkpt><trkpt lat="43.7336317" lon="12.704065"><ele>484.5</ele><time>2026-04-04T16:04:23.688Z</time></trkpt><trkpt lat="43.7336133" lon="12.704215"><ele>483.25</ele><time>2026-04-04T16:04:24.69Z</time></trkpt><trkpt lat="43.7335883" lon="12.7045167"><ele>482.0</ele><time>2026-04-04T16:04:26.688Z</time></trkpt><trkpt lat="43.7335867" lon="12.7046667"><ele>481.16666666666663</ele><time>2026-04-04T16:04:27.688Z</time></trkpt><trkpt lat="43.7335883" lon="12.7048033"><ele>480.3333333333333</ele><time>2026-04-04T16:04:28.688Z</time></trkpt><trkpt lat="43.7335983" lon="12.7049317"><ele>479.5</ele><time>2026-04-04T16:04:29.69Z</time></trkpt><trkpt lat="43.733615" lon="12.7050267"><ele>478.66666666666663</ele><time>2026-04-04T16:04:30.69Z</time></trkpt><trkpt lat="43.7336333" lon="12.7051283"><ele>477.8333333333333</ele><time>2026-04-04T16:04:32.689Z</time></trkpt><trkpt lat="43.7336933" lon="12.705155"><ele>477.0</ele><time>2026-04-04T16:04:35.69Z</time></trkpt><trkpt lat="43.73378" lon="12.705055"><ele>477.0</ele><time>2026-04-04T16:04:37.688Z</time></trkpt><trkpt lat="43.733835" lon="12.7049533"><ele>477.00000000000006</ele><time>2026-04-04T16:04:38.691Z</time></trkpt><trkpt lat="43.733895" lon="12.7048467"><ele>477.00000000000006</ele><time>2026-04-04T16:04:39.689Z</time></trkpt><trkpt lat="43.7339667" lon="12.70474"><ele>477.0</ele><time>2026-04-04T16:04:40.688Z</time></trkpt><trkpt lat="43.7340467" lon="12.7046317"><ele>477.0</ele><time>2026-04-04T16:04:41.689Z</time></trkpt><trkpt lat="43.7341283" lon="12.7045183"><ele>478.25</ele><time>2026-04-04T16:04:42.689Z</time></trkpt><trkpt lat="43.7342183" lon="12.7044033"><ele>479.5</ele><time>2026-04-04T16:04:43.688Z</time></trkpt><trkpt lat="43.7343183" lon="12.7042817"><ele>480.75</ele><time>2026-04-04T16:04:44.691Z</time></trkpt><trkpt lat="43.7344167" lon="12.704165"><ele>482.0</ele><time>2026-04-04T16:04:45.689Z</time></trkpt><trkpt lat="43.7345967" lon="12.7039467"><ele>479.0</ele><time>2026-04-04T16:04:47.691Z</time></trkpt><trkpt lat="43.734685" lon="12.7038417"><ele>476.0</ele><time>2026-04-04T16:04:48.688Z</time></trkpt><trkpt lat="43.734775" lon="12.70373"><ele>473.0</ele><time>2026-04-04T16:04:49.687Z</time></trkpt><trkpt lat="43.734865" lon="12.7036317"><ele>470.0</ele><time>2026-04-04T16:04:50.688Z</time></trkpt><trkpt lat="43.7349517" lon="12.70353"><ele>470.0</ele><time>2026-04-04T16:04:51.688Z</time></trkpt><trkpt lat="43.7350383" lon="12.7034617"><ele>470.0</ele><time>2026-04-04T16:04:52.689Z</time></trkpt><trkpt lat="43.735135" lon="12.7034267"><ele>470.0</ele><time>2026-04-04T16:04:53.689Z</time></trkpt><trkpt lat="43.7352433" lon="12.70342"><ele>470.0</ele><time>2026-04-04T16:04:54.688Z</time></trkpt><trkpt lat="43.7353617" lon="12.7034283"><ele>470.0</ele><time>2026-04-04T16:04:55.689Z</time></trkpt><trkpt lat="43.7354917" lon="12.7034233"><ele>468.0</ele><time>2026-04-04T16:04:56.689Z</time></trkpt><trkpt lat="43.7356233" lon="12.70341"><ele>466.0</ele><time>2026-04-04T16:04:57.687Z</time></trkpt><trkpt lat="43.735745" lon="12.7034067"><ele>464.0</ele><time>2026-04-04T16:04:58.688Z</time></trkpt><trkpt lat="43.7358733" lon="12.703415"><ele>462.0</ele><time>2026-04-04T16:04:59.689Z</time></trkpt><trkpt lat="43.7360067" lon="12.703445"><ele>461.5</ele><time>2026-04-04T16:05:00.689Z</time></trkpt><trkpt lat="43.7361433" lon="12.7034917"><ele>461.0</ele><time>2026-04-04T16:05:01.688Z</time></trkpt><trkpt lat="43.73628" lon="12.7035533"><ele>460.5</ele><time>2026-04-04T16:05:02.689Z</time></trkpt><trkpt lat="43.7364117" lon="12.7036367"><ele>460.0</ele><time>2026-04-04T16:05:03.686Z</time></trkpt><trkpt lat="43.73653" lon="12.7037233"><ele>455.6666666666667</ele><time>2026-04-04T16:05:04.69Z</time></trkpt><trkpt lat="43.7366317" lon="12.7038167"><ele>451.33333333333337</ele><time>2026-04-04T16:05:05.687Z</time></trkpt><trkpt lat="43.736735" lon="12.7038917"><ele>447.0</ele><time>2026-04-04T16:05:06.688Z</time></trkpt><trkpt lat="43.73693" lon="12.70405"><ele>447.0</ele><time>2026-04-04T16:05:08.692Z</time></trkpt><trkpt lat="43.73701" lon="12.70416"><ele>447.00000000000006</ele><time>2026-04-04T16:05:09.687Z</time></trkpt><trkpt lat="43.737075" lon="12.7042883"><ele>447.00000000000006</ele><time>2026-04-04T16:05:10.689Z</time></trkpt><trkpt lat="43.73713" lon="12.70442"><ele>447.0</ele><time>2026-04-04T16:05:11.687Z</time></trkpt><trkpt lat="43.7371783" lon="12.704545"><ele>447.0</ele><time>2026-04-04T16:05:12.69Z</time></trkpt><trkpt lat="43.737225" lon="12.7046417"><ele>447.0</ele><time>2026-04-04T16:05:13.689Z</time></trkpt><trkpt lat="43.7372783" lon="12.704705"><ele>447.00000000000006</ele><time>2026-04-04T16:05:14.689Z</time></trkpt><trkpt lat="43.7374017" lon="12.7047167"><ele>447.00000000000006</ele><time>2026-04-04T16:05:16.688Z</time></trkpt><trkpt lat="43.7374817" lon="12.7046533"><ele>447.0</ele><time>2026-04-04T16:05:17.689Z</time></trkpt><trkpt lat="43.7375767" lon="12.7046083"><ele>447.0</ele><time>2026-04-04T16:05:18.688Z</time></trkpt><trkpt lat="43.7376883" lon="12.7045667"><ele>444.5</ele><time>2026-04-04T16:05:19.689Z</time></trkpt><trkpt lat="43.73781" lon="12.7045483"><ele>442.0</ele><time>2026-04-04T16:05:20.688Z</time></trkpt><trkpt lat="43.7379383" lon="12.7045217"><ele>439.5</ele><time>2026-04-04T16:05:21.687Z</time></trkpt><trkpt lat="43.738065" lon="12.7044917"><ele>437.0</ele><time>2026-04-04T16:05:22.688Z</time></trkpt><trkpt lat="43.73819" lon="12.704445"><ele>436.75</ele><time>2026-04-04T16:05:23.688Z</time></trkpt><trkpt lat="43.7383183" lon="12.7043917"><ele>436.5</ele><time>2026-04-04T16:05:24.688Z</time></trkpt><trkpt lat="43.738455" lon="12.7043283"><ele>436.25</ele><time>2026-04-04T16:05:25.689Z</time></trkpt><trkpt lat="43.738605" lon="12.70426"><ele>436.0</ele><time>2026-04-04T16:05:26.688Z</time></trkpt><trkpt lat="43.7387617" lon="12.7042267"><ele>431.0</ele><time>2026-04-04T16:05:27.689Z</time></trkpt><trkpt lat="43.7390867" lon="12.7042217"><ele>426.0</ele><time>2026-04-04T16:05:29.69Z</time></trkpt><trkpt lat="43.7392417" lon="12.7042267"><ele>424.25</ele><time>2026-04-04T16:05:30.689Z</time></trkpt><trkpt lat="43.7393917" lon="12.7042317"><ele>422.5</ele><time>2026-04-04T16:05:31.69Z</time></trkpt><trkpt lat="43.7395383" lon="12.70424"><ele>420.75</ele><time>2026-04-04T16:05:32.689Z</time></trkpt><trkpt lat="43.7396733" lon="12.704245"><ele>419.0</ele><time>2026-04-04T16:05:33.688Z</time></trkpt><trkpt lat="43.7398" lon="12.7042433"><ele>419.0</ele><time>2026-04-04T16:05:34.689Z</time></trkpt><trkpt lat="43.7399167" lon="12.70423"><ele>419.0</ele><time>2026-04-04T16:05:35.69Z</time></trkpt><trkpt lat="43.74003" lon="12.704205"><ele>419.0</ele><time>2026-04-04T16:05:36.69Z</time></trkpt><trkpt lat="43.7401383" lon="12.7041767"><ele>419.0</ele><time>2026-04-04T16:05:37.689Z</time></trkpt><trkpt lat="43.740245" lon="12.7041683"><ele>419.0</ele><time>2026-04-04T16:05:38.691Z</time></trkpt><trkpt lat="43.7403467" lon="12.7041817"><ele>417.2</ele><time>2026-04-04T16:05:39.687Z</time></trkpt><trkpt lat="43.7404483" lon="12.7042117"><ele>415.4</ele><time>2026-04-04T16:05:40.689Z</time></trkpt><trkpt lat="43.7405483" lon="12.7042583"><ele>413.6</ele><time>2026-04-04T16:05:41.688Z</time></trkpt><trkpt lat="43.7406467" lon="12.704295"><ele>411.8</ele><time>2026-04-04T16:05:42.688Z</time></trkpt><trkpt lat="43.74075" lon="12.7043233"><ele>410.0</ele><time>2026-04-04T16:05:43.69Z</time></trkpt><trkpt lat="43.7408517" lon="12.7043233"><ele>410.0</ele><time>2026-04-04T16:05:44.691Z</time></trkpt><trkpt lat="43.740955" lon="12.7042983"><ele>410.0</ele><time>2026-04-04T16:05:45.69Z</time></trkpt><trkpt lat="43.7410433" lon="12.7042733"><ele>410.0</ele><time>2026-04-04T16:05:46.687Z</time></trkpt><trkpt lat="43.7411133" lon="12.7042567"><ele>410.0</ele><time>2026-04-04T16:05:47.689Z</time></trkpt><trkpt lat="43.7412267" lon="12.7042633"><ele>410.0</ele><time>2026-04-04T16:05:49.691Z</time></trkpt><trkpt lat="43.7413567" lon="12.70433"><ele>409.99999999999994</ele><time>2026-04-04T16:05:51.692Z</time></trkpt><trkpt lat="43.74143" lon="12.7043783"><ele>410.0</ele><time>2026-04-04T16:05:52.691Z</time></trkpt><trkpt lat="43.7415083" lon="12.7044317"><ele>410.0</ele><time>2026-04-04T16:05:53.69Z</time></trkpt><trkpt lat="43.7415883" lon="12.7044867"><ele>410.0</ele><time>2026-04-04T16:05:54.689Z</time></trkpt><trkpt lat="43.7416683" lon="12.7045367"><ele>409.99999999999994</ele><time>2026-04-04T16:05:55.689Z</time></trkpt><trkpt lat="43.7417483" lon="12.7045883"><ele>410.0</ele><time>2026-04-04T16:05:56.691Z</time></trkpt><trkpt lat="43.7419167" lon="12.7046817"><ele>410.0</ele><time>2026-04-04T16:05:58.689Z</time></trkpt><trkpt lat="43.7420133" lon="12.70473"><ele>410.0</ele><time>2026-04-04T16:05:59.688Z</time></trkpt><trkpt lat="43.7421117" lon="12.70481"><ele>410.0</ele><time>2026-04-04T16:06:00.689Z</time></trkpt><trkpt lat="43.7422133" lon="12.7049083"><ele>410.0</ele><time>2026-04-04T16:06:01.689Z</time></trkpt><trkpt lat="43.74232" lon="12.7050233"><ele>410.0</ele><time>2026-04-04T16:06:02.69Z</time></trkpt><trkpt lat="43.742425" lon="12.70516"><ele>410.0</ele><time>2026-04-04T16:06:03.689Z</time></trkpt><trkpt lat="43.7425183" lon="12.7053133"><ele>410.0</ele><time>2026-04-04T16:06:04.69Z</time></trkpt><trkpt lat="43.7426" lon="12.7054667"><ele>410.0</ele><time>2026-04-04T16:06:05.689Z</time></trkpt><trkpt lat="43.7426917" lon="12.7055967"><ele>407.66666666666663</ele><time>2026-04-04T16:06:06.689Z</time></trkpt><trkpt lat="43.7427933" lon="12.7057033"><ele>405.33333333333337</ele><time>2026-04-04T16:06:07.691Z</time></trkpt><trkpt lat="43.7430383" lon="12.7058617"><ele>403.0</ele><time>2026-04-04T16:06:09.689Z</time></trkpt><trkpt lat="43.7431783" lon="12.70592"><ele>403.0</ele><time>2026-04-04T16:06:10.687Z</time></trkpt><trkpt lat="43.7434867" lon="12.7060117"><ele>403.0</ele><time>2026-04-04T16:06:12.69Z</time></trkpt><trkpt lat="43.7436567" lon="12.7060383"><ele>400.33333333333337</ele><time>2026-04-04T16:06:13.691Z</time></trkpt><trkpt lat="43.74382" lon="12.7060617"><ele>397.66666666666663</ele><time>2026-04-04T16:06:14.689Z</time></trkpt><trkpt lat="43.74398" lon="12.70608"><ele>395.0</ele><time>2026-04-04T16:06:15.69Z</time></trkpt><trkpt lat="43.7441383" lon="12.7061083"><ele>388.66666666666663</ele><time>2026-04-04T16:06:16.689Z</time></trkpt><trkpt lat="43.744305" lon="12.7061367"><ele>382.3333333333333</ele><time>2026-04-04T16:06:17.691Z</time></trkpt><trkpt lat="43.7444733" lon="12.7061633"><ele>376.0</ele><time>2026-04-04T16:06:18.689Z</time></trkpt><trkpt lat="43.7446433" lon="12.706205"><ele>376.0</ele><time>2026-04-04T16:06:19.69Z</time></trkpt><trkpt lat="43.7448133" lon="12.706265"><ele>376.0</ele><time>2026-04-04T16:06:20.688Z</time></trkpt><trkpt lat="43.7449817" lon="12.70635"><ele>376.0</ele><time>2026-04-04T16:06:21.692Z</time></trkpt><trkpt lat="43.7451433" lon="12.7064483"><ele>376.66666666666663</ele><time>2026-04-04T16:06:22.689Z</time></trkpt><trkpt lat="43.7452967" lon="12.70654"><ele>377.3333333333333</ele><time>2026-04-04T16:06:23.688Z</time></trkpt><trkpt lat="43.7454467" lon="12.70663"><ele>378.0</ele><time>2026-04-04T16:06:24.689Z</time></trkpt><trkpt lat="43.745595" lon="12.7067167"><ele>378.0</ele><time>2026-04-04T16:06:25.69Z</time></trkpt><trkpt lat="43.74574" lon="12.7068033"><ele>378.0</ele><time>2026-04-04T16:06:26.691Z</time></trkpt><trkpt lat="43.7458783" lon="12.7068983"><ele>378.0</ele><time>2026-04-04T16:06:27.688Z</time></trkpt><trkpt lat="43.74601" lon="12.7070033"><ele>374.0</ele><time>2026-04-04T16:06:28.688Z</time></trkpt><trkpt lat="43.7461317" lon="12.7071167"><ele>370.0</ele><time>2026-04-04T16:06:29.688Z</time></trkpt><trkpt lat="43.746245" lon="12.7072367"><ele>366.0</ele><time>2026-04-04T16:06:30.687Z</time></trkpt><trkpt lat="43.7463483" lon="12.7073433"><ele>362.0</ele><time>2026-04-04T16:06:31.691Z</time></trkpt><trkpt lat="43.7465633" lon="12.7075"><ele>362.0</ele><time>2026-04-04T16:06:33.689Z</time></trkpt><trkpt lat="43.7466833" lon="12.7075317"><ele>362.0</ele><time>2026-04-04T16:06:34.688Z</time></trkpt><trkpt lat="43.7468183" lon="12.7075467"><ele>362.0</ele><time>2026-04-04T16:06:35.688Z</time></trkpt><trkpt lat="43.746955" lon="12.7075767"><ele>362.0</ele><time>2026-04-04T16:06:36.69Z</time></trkpt><trkpt lat="43.7470883" lon="12.7076383"><ele>358.0</ele><time>2026-04-04T16:06:37.692Z</time></trkpt><trkpt lat="43.7472083" lon="12.7077233"><ele>354.0</ele><time>2026-04-04T16:06:38.688Z</time></trkpt><trkpt lat="43.74732" lon="12.707815"><ele>350.0</ele><time>2026-04-04T16:06:39.691Z</time></trkpt><trkpt lat="43.747415" lon="12.7079167"><ele>346.0</ele><time>2026-04-04T16:06:40.691Z</time></trkpt><trkpt lat="43.74749" lon="12.7080183"><ele>346.0</ele><time>2026-04-04T16:06:41.686Z</time></trkpt><trkpt lat="43.7475333" lon="12.7081217"><ele>346.0</ele><time>2026-04-04T16:06:42.689Z</time></trkpt><trkpt lat="43.7475533" lon="12.7082217"><ele>346.0</ele><time>2026-04-04T16:06:43.689Z</time></trkpt><trkpt lat="43.7475433" lon="12.70832"><ele>346.0</ele><time>2026-04-04T16:06:44.69Z</time></trkpt><trkpt lat="43.7474883" lon="12.7083817"><ele>346.0</ele><time>2026-04-04T16:06:45.69Z</time></trkpt><trkpt lat="43.7474317" lon="12.7084483"><ele>346.0</ele><time>2026-04-04T16:06:46.688Z</time></trkpt><trkpt lat="43.7473133" lon="12.708385"><ele>346.0</ele><time>2026-04-04T16:06:47.685Z</time></trkpt><trkpt lat="43.7471733" lon="12.7082617"><ele>346.0</ele><time>2026-04-04T16:06:48.69Z</time></trkpt><trkpt lat="43.7470667" lon="12.7081317"><ele>346.0</ele><time>2026-04-04T16:06:49.689Z</time></trkpt><trkpt lat="43.7469617" lon="12.7080367"><ele>346.0</ele><time>2026-04-04T16:06:50.69Z</time></trkpt><trkpt lat="43.7468633" lon="12.7079667"><ele>345.5</ele><time>2026-04-04T16:06:51.69Z</time></trkpt><trkpt lat="43.7467733" lon="12.7079333"><ele>345.0</ele><time>2026-04-04T16:06:52.689Z</time></trkpt><trkpt lat="43.74662" lon="12.7079783"><ele>344.5</ele><time>2026-04-04T16:06:54.688Z</time></trkpt><trkpt lat="43.7465967" lon="12.7081517"><ele>344.0</ele><time>2026-04-04T16:06:56.687Z</time></trkpt><trkpt lat="43.7466467" lon="12.70827"><ele>344.0</ele><time>2026-04-04T16:06:57.689Z</time></trkpt><trkpt lat="43.7467367" lon="12.7083933"><ele>344.0</ele><time>2026-04-04T16:06:58.689Z</time></trkpt><trkpt lat="43.7468767" lon="12.7084867"><ele>344.0</ele><time>2026-04-04T16:06:59.688Z</time></trkpt><trkpt lat="43.7470117" lon="12.70858"><ele>344.0</ele><time>2026-04-04T16:07:00.691Z</time></trkpt><trkpt lat="43.74715" lon="12.7086683"><ele>339.5</ele><time>2026-04-04T16:07:01.689Z</time></trkpt><trkpt lat="43.7472817" lon="12.7087467"><ele>335.0</ele><time>2026-04-04T16:07:02.69Z</time></trkpt><trkpt lat="43.7474117" lon="12.7088"><ele>330.5</ele><time>2026-04-04T16:07:03.689Z</time></trkpt><trkpt lat="43.7475467" lon="12.7088267"><ele>326.0</ele><time>2026-04-04T16:07:04.691Z</time></trkpt><trkpt lat="43.7476883" lon="12.7088183"><ele>325.75</ele><time>2026-04-04T16:07:05.689Z</time></trkpt><trkpt lat="43.7478367" lon="12.7087817"><ele>325.5</ele><time>2026-04-04T16:07:06.689Z</time></trkpt><trkpt lat="43.7479833" lon="12.7087367"><ele>325.25</ele><time>2026-04-04T16:07:07.689Z</time></trkpt><trkpt lat="43.7481267" lon="12.7086917"><ele>325.0</ele><time>2026-04-04T16:07:08.686Z</time></trkpt><trkpt lat="43.7482667" lon="12.7086533"><ele>325.0</ele><time>2026-04-04T16:07:09.69Z</time></trkpt><trkpt lat="43.748405" lon="12.7086383"><ele>325.0</ele><time>2026-04-04T16:07:10.691Z</time></trkpt><trkpt lat="43.7485367" lon="12.7086633"><ele>325.0</ele><time>2026-04-04T16:07:11.689Z</time></trkpt><trkpt lat="43.7486533" lon="12.7087333"><ele>325.0</ele><time>2026-04-04T16:07:12.69Z</time></trkpt><trkpt lat="43.7487617" lon="12.70882"><ele>324.3333333333333</ele><time>2026-04-04T16:07:13.688Z</time></trkpt><trkpt lat="43.749" lon="12.7090117"><ele>323.6666666666667</ele><time>2026-04-04T16:07:15.69Z</time></trkpt><trkpt lat="43.7491283" lon="12.709075"><ele>323.0</ele><time>2026-04-04T16:07:16.689Z</time></trkpt><trkpt lat="43.749265" lon="12.7091183"><ele>320.5</ele><time>2026-04-04T16:07:17.69Z</time></trkpt><trkpt lat="43.7494033" lon="12.7091367"><ele>318.0</ele><time>2026-04-04T16:07:18.689Z</time></trkpt><trkpt lat="43.7495433" lon="12.7091367"><ele>315.5</ele><time>2026-04-04T16:07:19.692Z</time></trkpt><trkpt lat="43.7496833" lon="12.70912"><ele>313.0</ele><time>2026-04-04T16:07:20.688Z</time></trkpt><trkpt lat="43.7498217" lon="12.709105"><ele>313.0</ele><time>2026-04-04T16:07:21.689Z</time></trkpt><trkpt lat="43.7499567" lon="12.7091117"><ele>313.0</ele><time>2026-04-04T16:07:22.689Z</time></trkpt><trkpt lat="43.7500833" lon="12.7091533"><ele>313.0</ele><time>2026-04-04T16:07:23.689Z</time></trkpt><trkpt lat="43.7502117" lon="12.7092283"><ele>313.0</ele><time>2026-04-04T16:07:24.689Z</time></trkpt><trkpt lat="43.7503417" lon="12.709325"><ele>313.0</ele><time>2026-04-04T16:07:25.69Z</time></trkpt><trkpt lat="43.7504717" lon="12.7094367"><ele>313.0</ele><time>2026-04-04T16:07:26.688Z</time></trkpt><trkpt lat="43.7506067" lon="12.7095567"><ele>313.0</ele><time>2026-04-04T16:07:27.69Z</time></trkpt><trkpt lat="43.7507433" lon="12.7096833"><ele>313.0</ele><time>2026-04-04T16:07:28.688Z</time></trkpt><trkpt lat="43.75088" lon="12.7098083"><ele>313.0</ele><time>2026-04-04T16:07:29.686Z</time></trkpt><trkpt lat="43.7510183" lon="12.7099333"><ele>313.0</ele><time>2026-04-04T16:07:30.69Z</time></trkpt><trkpt lat="43.751155" lon="12.710055"><ele>312.0</ele><time>2026-04-04T16:07:31.689Z</time></trkpt><trkpt lat="43.7512883" lon="12.7101733"><ele>311.0</ele><time>2026-04-04T16:07:32.686Z</time></trkpt><trkpt lat="43.75142" lon="12.7102817"><ele>310.0</ele><time>2026-04-04T16:07:33.688Z</time></trkpt><trkpt lat="43.7515567" lon="12.7103717"><ele>310.0</ele><time>2026-04-04T16:07:34.692Z</time></trkpt><trkpt lat="43.75185" lon="12.710465"><ele>310.0</ele><time>2026-04-04T16:07:36.689Z</time></trkpt><trkpt lat="43.752" lon="12.7104683"><ele>307.0</ele><time>2026-04-04T16:07:37.692Z</time></trkpt><trkpt lat="43.7523167" lon="12.7104033"><ele>304.0</ele><time>2026-04-04T16:07:39.691Z</time></trkpt><trkpt lat="43.75248" lon="12.710365"><ele>304.0</ele><time>2026-04-04T16:07:40.688Z</time></trkpt><trkpt lat="43.75265" lon="12.710325"><ele>304.0</ele><time>2026-04-04T16:07:41.69Z</time></trkpt><trkpt lat="43.7528217" lon="12.7102783"><ele>304.0</ele><time>2026-04-04T16:07:42.689Z</time></trkpt><trkpt lat="43.753" lon="12.71023"><ele>305.3333333333333</ele><time>2026-04-04T16:07:43.691Z</time></trkpt><trkpt lat="43.7531767" lon="12.710195"><ele>306.6666666666667</ele><time>2026-04-04T16:07:44.689Z</time></trkpt><trkpt lat="43.7533567" lon="12.7101517"><ele>308.0</ele><time>2026-04-04T16:07:45.691Z</time></trkpt><trkpt lat="43.75354" lon="12.7101"><ele>303.33333333333337</ele><time>2026-04-04T16:07:46.69Z</time></trkpt><trkpt lat="43.75372" lon="12.710055"><ele>298.6666666666667</ele><time>2026-04-04T16:07:47.688Z</time></trkpt><trkpt lat="43.7539" lon="12.7100133"><ele>294.0</ele><time>2026-04-04T16:07:48.688Z</time></trkpt><trkpt lat="43.7540817" lon="12.709965"><ele>294.0</ele><time>2026-04-04T16:07:49.69Z</time></trkpt><trkpt lat="43.7542683" lon="12.7099117"><ele>294.0</ele><time>2026-04-04T16:07:50.689Z</time></trkpt><trkpt lat="43.7544533" lon="12.7098633"><ele>294.0</ele><time>2026-04-04T16:07:51.69Z</time></trkpt><trkpt lat="43.75464" lon="12.70982"><ele>291.6666666666667</ele><time>2026-04-04T16:07:52.688Z</time></trkpt><trkpt lat="43.7548267" lon="12.7097733"><ele>289.33333333333337</ele><time>2026-04-04T16:07:53.685Z</time></trkpt><trkpt lat="43.7550117" lon="12.7097283"><ele>287.0</ele><time>2026-04-04T16:07:54.691Z</time></trkpt><trkpt lat="43.7551867" lon="12.7096883"><ele>288.0</ele><time>2026-04-04T16:07:55.691Z</time></trkpt><trkpt lat="43.755535" lon="12.7096217"><ele>289.0</ele><time>2026-04-04T16:07:57.689Z</time></trkpt><trkpt lat="43.7556983" lon="12.70961"><ele>289.0</ele><time>2026-04-04T16:07:58.689Z</time></trkpt><trkpt lat="43.7558567" lon="12.7096183"><ele>289.0</ele><time>2026-04-04T16:07:59.691Z</time></trkpt><trkpt lat="43.756015" lon="12.70965"><ele>289.0</ele><time>2026-04-04T16:08:00.69Z</time></trkpt><trkpt lat="43.7561717" lon="12.7097083"><ele>288.0</ele><time>2026-04-04T16:08:01.691Z</time></trkpt><trkpt lat="43.7563317" lon="12.7097917"><ele>287.0</ele><time>2026-04-04T16:08:02.685Z</time></trkpt><trkpt lat="43.7564933" lon="12.709885"><ele>286.0</ele><time>2026-04-04T16:08:03.691Z</time></trkpt><trkpt lat="43.7566583" lon="12.7099767"><ele>286.0</ele><time>2026-04-04T16:08:04.686Z</time></trkpt><trkpt lat="43.7568317" lon="12.71007"><ele>286.0</ele><time>2026-04-04T16:08:05.687Z</time></trkpt><trkpt lat="43.7570033" lon="12.7101617"><ele>286.0</ele><time>2026-04-04T16:08:06.689Z</time></trkpt><trkpt lat="43.75717" lon="12.710255"><ele>284.0</ele><time>2026-04-04T16:08:07.691Z</time></trkpt><trkpt lat="43.75733" lon="12.7103417"><ele>282.0</ele><time>2026-04-04T16:08:08.69Z</time></trkpt><trkpt lat="43.757485" lon="12.710425"><ele>280.0</ele><time>2026-04-04T16:08:09.689Z</time></trkpt><trkpt lat="43.7576433" lon="12.710505"><ele>277.0</ele><time>2026-04-04T16:08:10.688Z</time></trkpt><trkpt lat="43.7577967" lon="12.7105883"><ele>274.0</ele><time>2026-04-04T16:08:11.684Z</time></trkpt><trkpt lat="43.757945" lon="12.71067"><ele>271.0</ele><time>2026-04-04T16:08:12.692Z</time></trkpt><trkpt lat="43.7580917" lon="12.71075"><ele>271.0</ele><time>2026-04-04T16:08:13.688Z</time></trkpt><trkpt lat="43.7582417" lon="12.71083"><ele>271.0</ele><time>2026-04-04T16:08:14.69Z</time></trkpt><trkpt lat="43.758395" lon="12.7109117"><ele>271.0</ele><time>2026-04-04T16:08:15.688Z</time></trkpt><trkpt lat="43.7585433" lon="12.7109917"><ele>268.66666666666663</ele><time>2026-04-04T16:08:16.69Z</time></trkpt><trkpt lat="43.7588067" lon="12.7111817"><ele>266.3333333333333</ele><time>2026-04-04T16:08:18.689Z</time></trkpt><trkpt lat="43.7589117" lon="12.7113117"><ele>264.0</ele><time>2026-04-04T16:08:19.689Z</time></trkpt><trkpt lat="43.7589967" lon="12.7114633"><ele>264.0</ele><time>2026-04-04T16:08:20.685Z</time></trkpt><trkpt lat="43.759065" lon="12.7116417"><ele>264.0</ele><time>2026-04-04T16:08:21.688Z</time></trkpt><trkpt lat="43.7591233" lon="12.711835"><ele>264.0</ele><time>2026-04-04T16:08:22.69Z</time></trkpt><trkpt lat="43.75918" lon="12.7120267"><ele>264.0</ele><time>2026-04-04T16:08:23.688Z</time></trkpt><trkpt lat="43.7592383" lon="12.7122033"><ele>264.0</ele><time>2026-04-04T16:08:24.691Z</time></trkpt><trkpt lat="43.759315" lon="12.7123583"><ele>264.0</ele><time>2026-04-04T16:08:25.69Z</time></trkpt><trkpt lat="43.7594083" lon="12.712485"><ele>264.0</ele><time>2026-04-04T16:08:26.687Z</time></trkpt><trkpt lat="43.7595183" lon="12.712585"><ele>264.0</ele><time>2026-04-04T16:08:27.691Z</time></trkpt><trkpt lat="43.759645" lon="12.7126567"><ele>258.6666666666667</ele><time>2026-04-04T16:08:28.688Z</time></trkpt><trkpt lat="43.7597867" lon="12.7127067"><ele>253.33333333333334</ele><time>2026-04-04T16:08:29.692Z</time></trkpt><trkpt lat="43.7599383" lon="12.7127467"><ele>248.0</ele><time>2026-04-04T16:08:30.689Z</time></trkpt><trkpt lat="43.7600983" lon="12.7127917"><ele>246.66666666666669</ele><time>2026-04-04T16:08:31.69Z</time></trkpt><trkpt lat="43.7602583" lon="12.7128367"><ele>245.33333333333331</ele><time>2026-04-04T16:08:32.687Z</time></trkpt><trkpt lat="43.7604217" lon="12.7128833"><ele>244.0</ele><time>2026-04-04T16:08:33.688Z</time></trkpt><trkpt lat="43.76059" lon="12.712935"><ele>244.0</ele><time>2026-04-04T16:08:34.69Z</time></trkpt><trkpt lat="43.7607583" lon="12.712985"><ele>244.0</ele><time>2026-04-04T16:08:35.689Z</time></trkpt><trkpt lat="43.760925" lon="12.71304"><ele>244.0</ele><time>2026-04-04T16:08:36.691Z</time></trkpt><trkpt lat="43.761255" lon="12.7131267"><ele>243.0</ele><time>2026-04-04T16:08:38.688Z</time></trkpt><trkpt lat="43.7614283" lon="12.7131483"><ele>242.0</ele><time>2026-04-04T16:08:39.688Z</time></trkpt><trkpt lat="43.7616083" lon="12.7131583"><ele>241.0</ele><time>2026-04-04T16:08:40.692Z</time></trkpt><trkpt lat="43.7617933" lon="12.7131617"><ele>238.66666666666666</ele><time>2026-04-04T16:08:41.685Z</time></trkpt><trkpt lat="43.7619817" lon="12.7131617"><ele>236.33333333333331</ele><time>2026-04-04T16:08:42.69Z</time></trkpt><trkpt lat="43.7621733" lon="12.71316"><ele>234.0</ele><time>2026-04-04T16:08:43.691Z</time></trkpt><trkpt lat="43.7623683" lon="12.71316"><ele>234.0</ele><time>2026-04-04T16:08:44.686Z</time></trkpt><trkpt lat="43.7625567" lon="12.7131567"><ele>234.0</ele><time>2026-04-04T16:08:45.689Z</time></trkpt><trkpt lat="43.7627417" lon="12.7131517"><ele>234.0</ele><time>2026-04-04T16:08:46.691Z</time></trkpt><trkpt lat="43.7629267" lon="12.7131517"><ele>231.0</ele><time>2026-04-04T16:08:47.688Z</time></trkpt><trkpt lat="43.7631133" lon="12.7131583"><ele>228.0</ele><time>2026-04-04T16:08:48.69Z</time></trkpt><trkpt lat="43.7633" lon="12.7131767"><ele>225.0</ele><time>2026-04-04T16:08:49.69Z</time></trkpt><trkpt lat="43.76349" lon="12.7132117"><ele>222.66666666666669</ele><time>2026-04-04T16:08:50.691Z</time></trkpt><trkpt lat="43.76368" lon="12.7132667"><ele>220.33333333333334</ele><time>2026-04-04T16:08:51.689Z</time></trkpt><trkpt lat="43.7638733" lon="12.7133417"><ele>218.0</ele><time>2026-04-04T16:08:52.691Z</time></trkpt><trkpt lat="43.7640633" lon="12.7134217"><ele>218.0</ele><time>2026-04-04T16:08:53.688Z</time></trkpt><trkpt lat="43.764245" lon="12.7135017"><ele>218.0</ele><time>2026-04-04T16:08:54.69Z</time></trkpt><trkpt lat="43.7644233" lon="12.713575"><ele>218.0</ele><time>2026-04-04T16:08:55.69Z</time></trkpt><trkpt lat="43.7645967" lon="12.7136383"><ele>214.5</ele><time>2026-04-04T16:08:56.687Z</time></trkpt><trkpt lat="43.764765" lon="12.7136883"><ele>211.0</ele><time>2026-04-04T16:08:57.688Z</time></trkpt><trkpt lat="43.7651133" lon="12.7137233"><ele>212.33333333333331</ele><time>2026-04-04T16:08:59.689Z</time></trkpt><trkpt lat="43.7652933" lon="12.7136967"><ele>213.66666666666669</ele><time>2026-04-04T16:09:00.691Z</time></trkpt><trkpt lat="43.7654767" lon="12.7136383"><ele>215.0</ele><time>2026-04-04T16:09:01.69Z</time></trkpt><trkpt lat="43.7656633" lon="12.7135617"><ele>215.0</ele><time>2026-04-04T16:09:02.688Z</time></trkpt><trkpt lat="43.7658533" lon="12.7134767"><ele>215.0</ele><time>2026-04-04T16:09:03.689Z</time></trkpt><trkpt lat="43.766045" lon="12.7133883"><ele>215.0</ele><time>2026-04-04T16:09:04.69Z</time></trkpt><trkpt lat="43.7662383" lon="12.7132983"><ele>213.66666666666669</ele><time>2026-04-04T16:09:05.688Z</time></trkpt><trkpt lat="43.7664367" lon="12.71321"><ele>212.33333333333331</ele><time>2026-04-04T16:09:06.689Z</time></trkpt><trkpt lat="43.7666383" lon="12.7131217"><ele>211.0</ele><time>2026-04-04T16:09:07.691Z</time></trkpt><trkpt lat="43.76684" lon="12.713035"><ele>211.0</ele><time>2026-04-04T16:09:08.687Z</time></trkpt><trkpt lat="43.7670417" lon="12.7129467"><ele>211.0</ele><time>2026-04-04T16:09:09.688Z</time></trkpt><trkpt lat="43.76724" lon="12.71286"><ele>211.0</ele><time>2026-04-04T16:09:10.691Z</time></trkpt><trkpt lat="43.76744" lon="12.7127733"><ele>211.33333333333331</ele><time>2026-04-04T16:09:11.689Z</time></trkpt><trkpt lat="43.7676417" lon="12.7126883"><ele>211.66666666666669</ele><time>2026-04-04T16:09:12.689Z</time></trkpt><trkpt lat="43.7678417" lon="12.7126017"><ele>212.0</ele><time>2026-04-04T16:09:13.691Z</time></trkpt><trkpt lat="43.768045" lon="12.712515"><ele>212.33333333333334</ele><time>2026-04-04T16:09:14.689Z</time></trkpt><trkpt lat="43.7682483" lon="12.7124283"><ele>212.66666666666669</ele><time>2026-04-04T16:09:15.689Z</time></trkpt><trkpt lat="43.7684533" lon="12.71234"><ele>213.0</ele><time>2026-04-04T16:09:16.689Z</time></trkpt><trkpt lat="43.7686567" lon="12.71225"><ele>212.0</ele><time>2026-04-04T16:09:17.689Z</time></trkpt><trkpt lat="43.7688633" lon="12.7121583"><ele>211.0</ele><time>2026-04-04T16:09:18.69Z</time></trkpt><trkpt lat="43.7692717" lon="12.711985"><ele>212.0</ele><time>2026-04-04T16:09:20.686Z</time></trkpt><trkpt lat="43.7694717" lon="12.7118983"><ele>213.0</ele><time>2026-04-04T16:09:21.688Z</time></trkpt><trkpt lat="43.7696583" lon="12.7118133"><ele>214.0</ele><time>2026-04-04T16:09:22.691Z</time></trkpt><trkpt lat="43.7698267" lon="12.71173"><ele>214.0</ele><time>2026-04-04T16:09:23.69Z</time></trkpt><trkpt lat="43.769975" lon="12.71163"><ele>214.0</ele><time>2026-04-04T16:09:24.69Z</time></trkpt><trkpt lat="43.770105" lon="12.7115017"><ele>214.0</ele><time>2026-04-04T16:09:25.69Z</time></trkpt><trkpt lat="43.77022" lon="12.711345"><ele>212.66666666666666</ele><time>2026-04-04T16:09:26.687Z</time></trkpt><trkpt lat="43.770325" lon="12.7111583"><ele>211.33333333333331</ele><time>2026-04-04T16:09:27.687Z</time></trkpt><trkpt lat="43.7704183" lon="12.7109567"><ele>210.0</ele><time>2026-04-04T16:09:28.689Z</time></trkpt><trkpt lat="43.7705133" lon="12.710745"><ele>210.0</ele><time>2026-04-04T16:09:29.69Z</time></trkpt><trkpt lat="43.77061" lon="12.7105267"><ele>210.0</ele><time>2026-04-04T16:09:30.689Z</time></trkpt><trkpt lat="43.7707083" lon="12.7103017"><ele>210.0</ele><time>2026-04-04T16:09:31.691Z</time></trkpt><trkpt lat="43.7708067" lon="12.7100717"><ele>209.33333333333331</ele><time>2026-04-04T16:09:32.689Z</time></trkpt><trkpt lat="43.7709067" lon="12.70984"><ele>208.66666666666666</ele><time>2026-04-04T16:09:33.688Z</time></trkpt><trkpt lat="43.771005" lon="12.7096067"><ele>208.0</ele><time>2026-04-04T16:09:34.69Z</time></trkpt><trkpt lat="43.771105" lon="12.7093767"><ele>206.0</ele><time>2026-04-04T16:09:35.691Z</time></trkpt><trkpt lat="43.771205" lon="12.70915"><ele>204.0</ele><time>2026-04-04T16:09:36.69Z</time></trkpt><trkpt lat="43.7713017" lon="12.7089317"><ele>202.0</ele><time>2026-04-04T16:09:37.691Z</time></trkpt><trkpt lat="43.771395" lon="12.7087267"><ele>205.33333333333331</ele><time>2026-04-04T16:09:38.691Z</time></trkpt><trkpt lat="43.7714817" lon="12.70854"><ele>208.66666666666669</ele><time>2026-04-04T16:09:39.688Z</time></trkpt><trkpt lat="43.7716717" lon="12.7082567"><ele>212.0</ele><time>2026-04-04T16:09:41.692Z</time></trkpt><trkpt lat="43.77179" lon="12.70817"><ele>210.25</ele><time>2026-04-04T16:09:42.693Z</time></trkpt><trkpt lat="43.7719233" lon="12.7081267"><ele>208.5</ele><time>2026-04-04T16:09:43.69Z</time></trkpt><trkpt lat="43.77207" lon="12.7081083"><ele>206.75</ele><time>2026-04-04T16:09:44.707Z</time></trkpt><trkpt lat="43.7722283" lon="12.7080967"><ele>205.0</ele><time>2026-04-04T16:09:45.689Z</time></trkpt><trkpt lat="43.772395" lon="12.7080867"><ele>205.0</ele><time>2026-04-04T16:09:46.69Z</time></trkpt><trkpt lat="43.7725683" lon="12.7080767"><ele>205.0</ele><time>2026-04-04T16:09:47.707Z</time></trkpt><trkpt lat="43.772745" lon="12.7080617"><ele>205.0</ele><time>2026-04-04T16:09:48.69Z</time></trkpt><trkpt lat="43.7729233" lon="12.7080467"><ele>203.66666666666666</ele><time>2026-04-04T16:09:49.69Z</time></trkpt><trkpt lat="43.7731017" lon="12.7080333"><ele>202.33333333333331</ele><time>2026-04-04T16:09:50.707Z</time></trkpt><trkpt lat="43.7732817" lon="12.7080217"><ele>201.0</ele><time>2026-04-04T16:09:51.689Z</time></trkpt><trkpt lat="43.7734633" lon="12.7080067"><ele>200.66666666666669</ele><time>2026-04-04T16:09:52.69Z</time></trkpt><trkpt lat="43.7736467" lon="12.70799"><ele>200.33333333333334</ele><time>2026-04-04T16:09:53.707Z</time></trkpt><trkpt lat="43.7738317" lon="12.7079733"><ele>200.0</ele><time>2026-04-04T16:09:54.691Z</time></trkpt><trkpt lat="43.7740183" lon="12.7079567"><ele>200.0</ele><time>2026-04-04T16:09:55.689Z</time></trkpt><trkpt lat="43.774205" lon="12.7079417"><ele>200.0</ele><time>2026-04-04T16:09:56.707Z</time></trkpt><trkpt lat="43.774395" lon="12.707925"><ele>200.0</ele><time>2026-04-04T16:09:57.688Z</time></trkpt><trkpt lat="43.774585" lon="12.7079133"><ele>199.66666666666669</ele><time>2026-04-04T16:09:58.69Z</time></trkpt><trkpt lat="43.7747767" lon="12.7078983"><ele>199.33333333333331</ele><time>2026-04-04T16:09:59.707Z</time></trkpt><trkpt lat="43.7749683" lon="12.70788"><ele>199.0</ele><time>2026-04-04T16:10:00.691Z</time></trkpt><trkpt lat="43.775355" lon="12.7078417"><ele>199.0</ele><time>2026-04-04T16:10:02.706Z</time></trkpt><trkpt lat="43.7755417" lon="12.707825"><ele>199.0</ele><time>2026-04-04T16:10:03.689Z</time></trkpt><trkpt lat="43.7757183" lon="12.7078083"><ele>199.0</ele><time>2026-04-04T16:10:04.69Z</time></trkpt><trkpt lat="43.7758833" lon="12.707795"><ele>196.5</ele><time>2026-04-04T16:10:05.693Z</time></trkpt><trkpt lat="43.776035" lon="12.7077933"><ele>194.0</ele><time>2026-04-04T16:10:06.691Z</time></trkpt><trkpt lat="43.77617" lon="12.707825"><ele>191.5</ele><time>2026-04-04T16:10:07.691Z</time></trkpt><trkpt lat="43.7762883" lon="12.707885"><ele>189.0</ele><time>2026-04-04T16:10:08.705Z</time></trkpt><trkpt lat="43.7763817" lon="12.7079833"><ele>189.0</ele><time>2026-04-04T16:10:09.688Z</time></trkpt><trkpt lat="43.7764433" lon="12.708135"><ele>189.0</ele><time>2026-04-04T16:10:10.689Z</time></trkpt><trkpt lat="43.7765" lon="12.7083217"><ele>189.0</ele><time>2026-04-04T16:10:11.688Z</time></trkpt><trkpt lat="43.7765517" lon="12.7085317"><ele>189.0</ele><time>2026-04-04T16:10:12.69Z</time></trkpt><trkpt lat="43.7765983" lon="12.70875"><ele>188.33333333333334</ele><time>2026-04-04T16:10:13.691Z</time></trkpt><trkpt lat="43.77664" lon="12.70898"><ele>187.66666666666669</ele><time>2026-04-04T16:10:14.689Z</time></trkpt><trkpt lat="43.7766767" lon="12.7092133"><ele>187.0</ele><time>2026-04-04T16:10:15.69Z</time></trkpt><trkpt lat="43.7767083" lon="12.70944"><ele>186.33333333333334</ele><time>2026-04-04T16:10:16.689Z</time></trkpt><trkpt lat="43.7767383" lon="12.7096567"><ele>185.66666666666666</ele><time>2026-04-04T16:10:17.688Z</time></trkpt><trkpt lat="43.7767667" lon="12.709865"><ele>185.0</ele><time>2026-04-04T16:10:18.69Z</time></trkpt><trkpt lat="43.7767967" lon="12.7100667"><ele>183.66666666666666</ele><time>2026-04-04T16:10:19.69Z</time></trkpt><trkpt lat="43.7768267" lon="12.71026"><ele>182.33333333333334</ele><time>2026-04-04T16:10:20.687Z</time></trkpt><trkpt lat="43.776855" lon="12.7104417"><ele>181.0</ele><time>2026-04-04T16:10:21.688Z</time></trkpt><trkpt lat="43.7769417" lon="12.7107633"><ele>180.5</ele><time>2026-04-04T16:10:23.691Z</time></trkpt><trkpt lat="43.7770167" lon="12.7109"><ele>180.0</ele><time>2026-04-04T16:10:24.69Z</time></trkpt><trkpt lat="43.77711" lon="12.7110217"><ele>179.5</ele><time>2026-04-04T16:10:25.69Z</time></trkpt><trkpt lat="43.7772217" lon="12.7111283"><ele>179.0</ele><time>2026-04-04T16:10:26.689Z</time></trkpt><trkpt lat="43.77734" lon="12.7112233"><ele>176.25</ele><time>2026-04-04T16:10:27.691Z</time></trkpt><trkpt lat="43.77746" lon="12.7113"><ele>173.5</ele><time>2026-04-04T16:10:28.689Z</time></trkpt><trkpt lat="43.7775817" lon="12.7113567"><ele>170.75</ele><time>2026-04-04T16:10:29.689Z</time></trkpt><trkpt lat="43.7777017" lon="12.7113833"><ele>168.0</ele><time>2026-04-04T16:10:30.691Z</time></trkpt><trkpt lat="43.7778217" lon="12.7113733"><ele>168.0</ele><time>2026-04-04T16:10:31.691Z</time></trkpt><trkpt lat="43.7779383" lon="12.7113233"><ele>168.0</ele><time>2026-04-04T16:10:32.685Z</time></trkpt><trkpt lat="43.7780417" lon="12.71124"><ele>168.0</ele><time>2026-04-04T16:10:33.686Z</time></trkpt><trkpt lat="43.7781283" lon="12.71113"><ele>168.0</ele><time>2026-04-04T16:10:34.689Z</time></trkpt><trkpt lat="43.77819" lon="12.7110017"><ele>168.5</ele><time>2026-04-04T16:10:35.688Z</time></trkpt><trkpt lat="43.778225" lon="12.71085"><ele>169.0</ele><time>2026-04-04T16:10:36.686Z</time></trkpt><trkpt lat="43.778235" lon="12.7106767"><ele>169.5</ele><time>2026-04-04T16:10:37.689Z</time></trkpt><trkpt lat="43.7782233" lon="12.7104967"><ele>170.0</ele><time>2026-04-04T16:10:38.686Z</time></trkpt><trkpt lat="43.7782117" lon="12.710325"><ele>169.25</ele><time>2026-04-04T16:10:39.686Z</time></trkpt><trkpt lat="43.778225" lon="12.7101617"><ele>168.5</ele><time>2026-04-04T16:10:40.688Z</time></trkpt><trkpt lat="43.77827" lon="12.7100217"><ele>167.75</ele><time>2026-04-04T16:10:41.691Z</time></trkpt><trkpt lat="43.7783417" lon="12.70991"><ele>167.0</ele><time>2026-04-04T16:10:42.687Z</time></trkpt><trkpt lat="43.7785467" lon="12.70977"><ele>165.25</ele><time>2026-04-04T16:10:44.689Z</time></trkpt><trkpt lat="43.7786817" lon="12.7097183"><ele>163.5</ele><time>2026-04-04T16:10:45.687Z</time></trkpt><trkpt lat="43.7788267" lon="12.7096733"><ele>161.75</ele><time>2026-04-04T16:10:46.689Z</time></trkpt><trkpt lat="43.7789783" lon="12.7096383"><ele>160.0</ele><time>2026-04-04T16:10:47.685Z</time></trkpt><trkpt lat="43.779135" lon="12.7096067"><ele>160.0</ele><time>2026-04-04T16:10:48.687Z</time></trkpt><trkpt lat="43.7792833" lon="12.7095783"><ele>160.0</ele><time>2026-04-04T16:10:49.689Z</time></trkpt><trkpt lat="43.7794183" lon="12.7095533"><ele>160.0</ele><time>2026-04-04T16:10:50.687Z</time></trkpt><trkpt lat="43.779535" lon="12.7095583"><ele>160.0</ele><time>2026-04-04T16:10:51.687Z</time></trkpt><trkpt lat="43.7796367" lon="12.7096033"><ele>155.75</ele><time>2026-04-04T16:10:52.689Z</time></trkpt><trkpt lat="43.7797167" lon="12.7096917"><ele>151.5</ele><time>2026-04-04T16:10:53.688Z</time></trkpt><trkpt lat="43.779785" lon="12.7098367"><ele>147.25</ele><time>2026-04-04T16:10:54.688Z</time></trkpt><trkpt lat="43.7798417" lon="12.7100183"><ele>143.0</ele><time>2026-04-04T16:10:55.689Z</time></trkpt><trkpt lat="43.7798867" lon="12.710215"><ele>143.0</ele><time>2026-04-04T16:10:56.69Z</time></trkpt><trkpt lat="43.7799217" lon="12.71041"><ele>143.0</ele><time>2026-04-04T16:10:57.689Z</time></trkpt><trkpt lat="43.7799567" lon="12.7106017"><ele>143.0</ele><time>2026-04-04T16:10:58.686Z</time></trkpt><trkpt lat="43.7800017" lon="12.71079"><ele>143.0</ele><time>2026-04-04T16:10:59.691Z</time></trkpt><trkpt lat="43.780055" lon="12.710965"><ele>144.25</ele><time>2026-04-04T16:11:00.688Z</time></trkpt><trkpt lat="43.78011" lon="12.7111183"><ele>145.5</ele><time>2026-04-04T16:11:01.688Z</time></trkpt><trkpt lat="43.7801733" lon="12.7112483"><ele>146.75</ele><time>2026-04-04T16:11:02.69Z</time></trkpt><trkpt lat="43.7802517" lon="12.7113467"><ele>148.0</ele><time>2026-04-04T16:11:03.688Z</time></trkpt><trkpt lat="43.7804383" lon="12.711415"><ele>145.20000000000002</ele><time>2026-04-04T16:11:05.693Z</time></trkpt><trkpt lat="43.78053" lon="12.711385"><ele>142.4</ele><time>2026-04-04T16:11:06.689Z</time></trkpt><trkpt lat="43.7806117" lon="12.7113283"><ele>139.60000000000002</ele><time>2026-04-04T16:11:07.688Z</time></trkpt><trkpt lat="43.7806767" lon="12.7112383"><ele>136.8</ele><time>2026-04-04T16:11:08.689Z</time></trkpt><trkpt lat="43.7807283" lon="12.7111333"><ele>134.0</ele><time>2026-04-04T16:11:09.687Z</time></trkpt><trkpt lat="43.780765" lon="12.7110133"><ele>132.75</ele><time>2026-04-04T16:11:10.689Z</time></trkpt><trkpt lat="43.7807817" lon="12.7108767"><ele>131.5</ele><time>2026-04-04T16:11:11.689Z</time></trkpt><trkpt lat="43.780775" lon="12.7107083"><ele>130.25</ele><time>2026-04-04T16:11:12.687Z</time></trkpt><trkpt lat="43.7807633" lon="12.7105283"><ele>129.0</ele><time>2026-04-04T16:11:13.689Z</time></trkpt><trkpt lat="43.7807517" lon="12.7103383"><ele>128.0</ele><time>2026-04-04T16:11:14.69Z</time></trkpt><trkpt lat="43.7807383" lon="12.7101417"><ele>127.0</ele><time>2026-04-04T16:11:15.686Z</time></trkpt><trkpt lat="43.7807217" lon="12.7099383"><ele>126.0</ele><time>2026-04-04T16:11:16.688Z</time></trkpt><trkpt lat="43.780705" lon="12.70973"><ele>125.0</ele><time>2026-04-04T16:11:17.689Z</time></trkpt><trkpt lat="43.78069" lon="12.7095233"><ele>123.33333333333333</ele><time>2026-04-04T16:11:18.688Z</time></trkpt><trkpt lat="43.780675" lon="12.7093133"><ele>121.66666666666666</ele><time>2026-04-04T16:11:19.688Z</time></trkpt><trkpt lat="43.78066" lon="12.7091033"><ele>120.0</ele><time>2026-04-04T16:11:20.689Z</time></trkpt><trkpt lat="43.780645" lon="12.708895"><ele>120.0</ele><time>2026-04-04T16:11:21.688Z</time></trkpt><trkpt lat="43.7806283" lon="12.7086917"><ele>120.0</ele><time>2026-04-04T16:11:22.689Z</time></trkpt><trkpt lat="43.7806017" lon="12.7085"><ele>120.0</ele><time>2026-04-04T16:11:23.691Z</time></trkpt><trkpt lat="43.7805667" lon="12.7083167"><ele>120.0</ele><time>2026-04-04T16:11:24.689Z</time></trkpt><trkpt lat="43.7805" lon="12.70799"><ele>119.0</ele><time>2026-04-04T16:11:26.688Z</time></trkpt><trkpt lat="43.780485" lon="12.7078467"><ele>118.0</ele><time>2026-04-04T16:11:27.687Z</time></trkpt><trkpt lat="43.78049" lon="12.7077283"><ele>117.0</ele><time>2026-04-04T16:11:28.692Z</time></trkpt><trkpt lat="43.78051" lon="12.70763"><ele>116.0</ele><time>2026-04-04T16:11:29.693Z</time></trkpt><trkpt lat="43.78058" lon="12.7074933"><ele>115.0</ele><time>2026-04-04T16:11:31.69Z</time></trkpt><trkpt lat="43.780665" lon="12.70748"><ele>114.6</ele><time>2026-04-04T16:11:32.689Z</time></trkpt><trkpt lat="43.7807817" lon="12.7075167"><ele>114.2</ele><time>2026-04-04T16:11:33.69Z</time></trkpt><trkpt lat="43.780875" lon="12.7075583"><ele>113.80000000000001</ele><time>2026-04-04T16:11:34.688Z</time></trkpt><trkpt lat="43.7809517" lon="12.7075833"><ele>113.4</ele><time>2026-04-04T16:11:35.688Z</time></trkpt><trkpt lat="43.7810283" lon="12.7076667"><ele>113.0</ele><time>2026-04-04T16:11:37.69Z</time></trkpt><trkpt lat="43.7810583" lon="12.707755"><ele>112.5</ele><time>2026-04-04T16:11:40.688Z</time></trkpt><trkpt lat="43.7811483" lon="12.7076367"><ele>112.0</ele><time>2026-04-04T16:11:43.69Z</time></trkpt><trkpt lat="43.7812083" lon="12.7075483"><ele>111.5</ele><time>2026-04-04T16:11:44.692Z</time></trkpt><trkpt lat="43.78129" lon="12.7074517"><ele>111.0</ele><time>2026-04-04T16:11:45.69Z</time></trkpt><trkpt lat="43.7814667" lon="12.7072583"><ele>111.0</ele><time>2026-04-04T16:11:47.688Z</time></trkpt><trkpt lat="43.7815517" lon="12.7071633"><ele>111.0</ele><time>2026-04-04T16:11:48.688Z</time></trkpt><trkpt lat="43.7816283" lon="12.7070717"><ele>111.0</ele><time>2026-04-04T16:11:49.69Z</time></trkpt><trkpt lat="43.7816967" lon="12.7069933"><ele>111.0</ele><time>2026-04-04T16:11:50.691Z</time></trkpt><trkpt lat="43.781765" lon="12.7069217"><ele>111.0</ele><time>2026-04-04T16:11:51.69Z</time></trkpt><trkpt lat="43.7818383" lon="12.70686"><ele>111.5</ele><time>2026-04-04T16:11:52.69Z</time></trkpt><trkpt lat="43.7819233" lon="12.7068133"><ele>112.0</ele><time>2026-04-04T16:11:53.691Z</time></trkpt><trkpt lat="43.7820117" lon="12.7067833"><ele>112.5</ele><time>2026-04-04T16:11:54.688Z</time></trkpt><trkpt lat="43.782095" lon="12.7067717"><ele>113.0</ele><time>2026-04-04T16:11:55.691Z</time></trkpt><trkpt lat="43.7821667" lon="12.7067783"><ele>113.5</ele><time>2026-04-04T16:11:56.687Z</time></trkpt><trkpt lat="43.7822333" lon="12.7068067"><ele>114.0</ele><time>2026-04-04T16:11:57.688Z</time></trkpt><trkpt lat="43.7823" lon="12.7068633"><ele>113.5</ele><time>2026-04-04T16:11:58.69Z</time></trkpt><trkpt lat="43.7823717" lon="12.706955"><ele>113.0</ele><time>2026-04-04T16:11:59.689Z</time></trkpt><trkpt lat="43.7824433" lon="12.70708"><ele>112.5</ele><time>2026-04-04T16:12:00.69Z</time></trkpt><trkpt lat="43.7825367" lon="12.7072483"><ele>112.0</ele><time>2026-04-04T16:12:01.691Z</time></trkpt><trkpt lat="43.782625" lon="12.7074067"><ele>112.25</ele><time>2026-04-04T16:12:02.687Z</time></trkpt><trkpt lat="43.7827117" lon="12.70756"><ele>112.5</ele><time>2026-04-04T16:12:03.688Z</time></trkpt><trkpt lat="43.782795" lon="12.70771"><ele>112.75</ele><time>2026-04-04T16:12:04.687Z</time></trkpt><trkpt lat="43.78288" lon="12.70785"><ele>113.0</ele><time>2026-04-04T16:12:05.692Z</time></trkpt><trkpt lat="43.78297" lon="12.7079867"><ele>113.0</ele><time>2026-04-04T16:12:06.691Z</time></trkpt><trkpt lat="43.783155" lon="12.7082533"><ele>113.0</ele><time>2026-04-04T16:12:08.688Z</time></trkpt><trkpt lat="43.7832517" lon="12.70838"><ele>113.0</ele><time>2026-04-04T16:12:09.689Z</time></trkpt><trkpt lat="43.783345" lon="12.7085"><ele>112.60000000000001</ele><time>2026-04-04T16:12:10.689Z</time></trkpt><trkpt lat="43.7834283" lon="12.7086133"><ele>112.20000000000002</ele><time>2026-04-04T16:12:11.689Z</time></trkpt><trkpt lat="43.7835033" lon="12.708715"><ele>111.8</ele><time>2026-04-04T16:12:12.691Z</time></trkpt><trkpt lat="43.7835683" lon="12.7088117"><ele>111.4</ele><time>2026-04-04T16:12:13.689Z</time></trkpt><trkpt lat="43.7836233" lon="12.7088933"><ele>111.0</ele><time>2026-04-04T16:12:14.691Z</time></trkpt><trkpt lat="43.78367" lon="12.708955"><ele>111.8</ele><time>2026-04-04T16:12:15.687Z</time></trkpt><trkpt lat="43.7837467" lon="12.7089167"><ele>112.6</ele><time>2026-04-04T16:12:18.69Z</time></trkpt><trkpt lat="43.7837533" lon="12.7087167"><ele>113.4</ele><time>2026-04-04T16:12:20.691Z</time></trkpt><trkpt lat="43.78375" lon="12.708575"><ele>114.2</ele><time>2026-04-04T16:12:21.688Z</time></trkpt><trkpt lat="43.7837583" lon="12.7084267"><ele>115.0</ele><time>2026-04-04T16:12:22.689Z</time></trkpt><trkpt lat="43.7837633" lon="12.70826"><ele>115.0</ele><time>2026-04-04T16:12:23.689Z</time></trkpt><trkpt lat="43.78377" lon="12.708085"><ele>115.0</ele><time>2026-04-04T16:12:24.689Z</time></trkpt><trkpt lat="43.7837783" lon="12.7079167"><ele>115.0</ele><time>2026-04-04T16:12:25.691Z</time></trkpt><trkpt lat="43.7837767" lon="12.7077433"><ele>115.0</ele><time>2026-04-04T16:12:26.686Z</time></trkpt><trkpt lat="43.783775" lon="12.70758"><ele>117.25</ele><time>2026-04-04T16:12:27.688Z</time></trkpt><trkpt lat="43.7837567" lon="12.7072867"><ele>119.5</ele><time>2026-04-04T16:12:29.689Z</time></trkpt><trkpt lat="43.7837283" lon="12.7071683"><ele>121.75</ele><time>2026-04-04T16:12:30.689Z</time></trkpt><trkpt lat="43.7837017" lon="12.7070717"><ele>124.0</ele><time>2026-04-04T16:12:31.692Z</time></trkpt><trkpt lat="43.7837283" lon="12.706915"><ele>127.33333333333334</ele><time>2026-04-04T16:12:33.688Z</time></trkpt><trkpt lat="43.7837883" lon="12.7068683"><ele>130.66666666666669</ele><time>2026-04-04T16:12:34.688Z</time></trkpt><trkpt lat="43.7838617" lon="12.7068483"><ele>134.0</ele><time>2026-04-04T16:12:35.689Z</time></trkpt><trkpt lat="43.78394" lon="12.7068467"><ele>137.33333333333334</ele><time>2026-04-04T16:12:36.689Z</time></trkpt><trkpt lat="43.784035" lon="12.7068733"><ele>140.66666666666666</ele><time>2026-04-04T16:12:37.691Z</time></trkpt><trkpt lat="43.7841267" lon="12.7068833"><ele>144.0</ele><time>2026-04-04T16:12:38.691Z</time></trkpt><trkpt lat="43.7842067" lon="12.7068617"><ele>144.0</ele><time>2026-04-04T16:12:39.688Z</time></trkpt><trkpt lat="43.7842733" lon="12.706815"><ele>144.0</ele><time>2026-04-04T16:12:40.688Z</time></trkpt><trkpt lat="43.7843167" lon="12.7067417"><ele>144.0</ele><time>2026-04-04T16:12:41.692Z</time></trkpt><trkpt lat="43.78432" lon="12.7065767"><ele>144.0</ele><time>2026-04-04T16:12:43.688Z</time></trkpt><trkpt lat="43.7842817" lon="12.706495"><ele>144.0</ele><time>2026-04-04T16:12:44.69Z</time></trkpt><trkpt lat="43.7842483" lon="12.7064083"><ele>144.0</ele><time>2026-04-04T16:12:45.687Z</time></trkpt><trkpt lat="43.78422" lon="12.706305"><ele>144.0</ele><time>2026-04-04T16:12:46.69Z</time></trkpt><trkpt lat="43.7841983" lon="12.706185"><ele>144.0</ele><time>2026-04-04T16:12:47.686Z</time></trkpt><trkpt lat="43.78418" lon="12.70605"><ele>144.0</ele><time>2026-04-04T16:12:48.689Z</time></trkpt><trkpt lat="43.7841617" lon="12.70574"><ele>144.0</ele><time>2026-04-04T16:12:50.687Z</time></trkpt><trkpt lat="43.784155" lon="12.70557"><ele>147.0</ele><time>2026-04-04T16:12:51.689Z</time></trkpt><trkpt lat="43.7841533" lon="12.705395"><ele>150.0</ele><time>2026-04-04T16:12:52.689Z</time></trkpt><trkpt lat="43.7841583" lon="12.7052183"><ele>153.0</ele><time>2026-04-04T16:12:53.688Z</time></trkpt><trkpt lat="43.7841717" lon="12.7050367"><ele>156.0</ele><time>2026-04-04T16:12:54.689Z</time></trkpt><trkpt lat="43.78419" lon="12.70485"><ele>158.25</ele><time>2026-04-04T16:12:55.689Z</time></trkpt><trkpt lat="43.78421" lon="12.704675"><ele>160.5</ele><time>2026-04-04T16:12:56.688Z</time></trkpt><trkpt lat="43.7842333" lon="12.70451"><ele>162.75</ele><time>2026-04-04T16:12:57.692Z</time></trkpt><trkpt lat="43.7842633" lon="12.704345"><ele>165.0</ele><time>2026-04-04T16:12:58.69Z</time></trkpt><trkpt lat="43.7843117" lon="12.704175"><ele>166.0</ele><time>2026-04-04T16:12:59.685Z</time></trkpt><trkpt lat="43.784375" lon="12.704"><ele>167.0</ele><time>2026-04-04T16:13:00.689Z</time></trkpt><trkpt lat="43.78452" lon="12.7036733"><ele>168.0</ele><time>2026-04-04T16:13:02.691Z</time></trkpt><trkpt lat="43.78459" lon="12.703505"><ele>170.25</ele><time>2026-04-04T16:13:03.69Z</time></trkpt><trkpt lat="43.7846583" lon="12.7033317"><ele>172.5</ele><time>2026-04-04T16:13:04.69Z</time></trkpt><trkpt lat="43.78472" lon="12.7031533"><ele>174.75</ele><time>2026-04-04T16:13:05.69Z</time></trkpt><trkpt lat="43.7847783" lon="12.702975"><ele>177.0</ele><time>2026-04-04T16:13:06.69Z</time></trkpt><trkpt lat="43.78483" lon="12.7027967"><ele>179.0</ele><time>2026-04-04T16:13:07.691Z</time></trkpt><trkpt lat="43.784875" lon="12.7026267"><ele>181.0</ele><time>2026-04-04T16:13:08.69Z</time></trkpt><trkpt lat="43.784915" lon="12.7024517"><ele>183.0</ele><time>2026-04-04T16:13:09.689Z</time></trkpt><trkpt lat="43.78499" lon="12.7020817"><ele>184.5</ele><time>2026-04-04T16:13:11.69Z</time></trkpt><trkpt lat="43.7850267" lon="12.7019"><ele>186.0</ele><time>2026-04-04T16:13:12.69Z</time></trkpt><trkpt lat="43.7850567" lon="12.7017317"><ele>187.5</ele><time>2026-04-04T16:13:13.69Z</time></trkpt><trkpt lat="43.7850867" lon="12.7015833"><ele>189.0</ele><time>2026-04-04T16:13:14.69Z</time></trkpt><trkpt lat="43.78513" lon="12.7014517"><ele>188.79999999999998</ele><time>2026-04-04T16:13:15.69Z</time></trkpt><trkpt lat="43.785195" lon="12.7013317"><ele>188.6</ele><time>2026-04-04T16:13:16.688Z</time></trkpt><trkpt lat="43.78528" lon="12.701225"><ele>188.4</ele><time>2026-04-04T16:13:17.689Z</time></trkpt><trkpt lat="43.7853817" lon="12.7011417"><ele>188.2</ele><time>2026-04-04T16:13:18.691Z</time></trkpt><trkpt lat="43.78548" lon="12.7010867"><ele>188.0</ele><time>2026-04-04T16:13:19.69Z</time></trkpt><trkpt lat="43.7855717" lon="12.7010267"><ele>190.75</ele><time>2026-04-04T16:13:20.694Z</time></trkpt><trkpt lat="43.78566" lon="12.7009517"><ele>193.5</ele><time>2026-04-04T16:13:21.689Z</time></trkpt><trkpt lat="43.78575" lon="12.7008633"><ele>196.25</ele><time>2026-04-04T16:13:22.691Z</time></trkpt><trkpt lat="43.7858467" lon="12.700765"><ele>199.0</ele><time>2026-04-04T16:13:23.688Z</time></trkpt><trkpt lat="43.7859467" lon="12.700665"><ele>200.0</ele><time>2026-04-04T16:13:24.69Z</time></trkpt><trkpt lat="43.786055" lon="12.7005683"><ele>201.0</ele><time>2026-04-04T16:13:25.691Z</time></trkpt><trkpt lat="43.7861733" lon="12.7004933"><ele>202.0</ele><time>2026-04-04T16:13:26.687Z</time></trkpt><trkpt lat="43.7863017" lon="12.700435"><ele>203.0</ele><time>2026-04-04T16:13:27.689Z</time></trkpt><trkpt lat="43.7864367" lon="12.7004"><ele>203.0</ele><time>2026-04-04T16:13:28.691Z</time></trkpt><trkpt lat="43.7865783" lon="12.7003783"><ele>203.0</ele><time>2026-04-04T16:13:29.69Z</time></trkpt><trkpt lat="43.786725" lon="12.7003583"><ele>203.0</ele><time>2026-04-04T16:13:30.69Z</time></trkpt><trkpt lat="43.78703" lon="12.7002967"><ele>204.0</ele><time>2026-04-04T16:13:32.687Z</time></trkpt><trkpt lat="43.787185" lon="12.7002383"><ele>205.0</ele><time>2026-04-04T16:13:33.689Z</time></trkpt><trkpt lat="43.7874933" lon="12.7000667"><ele>205.0</ele><time>2026-04-04T16:13:35.691Z</time></trkpt><trkpt lat="43.7876483" lon="12.69996"><ele>205.0</ele><time>2026-04-04T16:13:36.687Z</time></trkpt><trkpt lat="43.7878017" lon="12.6998483"><ele>205.0</ele><time>2026-04-04T16:13:37.692Z</time></trkpt><trkpt lat="43.787955" lon="12.69973"><ele>207.33333333333331</ele><time>2026-04-04T16:13:38.69Z</time></trkpt><trkpt lat="43.7881083" lon="12.69961"><ele>209.66666666666669</ele><time>2026-04-04T16:13:39.687Z</time></trkpt><trkpt lat="43.78826" lon="12.6994833"><ele>212.0</ele><time>2026-04-04T16:13:40.688Z</time></trkpt><trkpt lat="43.7884133" lon="12.6993583"><ele>213.66666666666669</ele><time>2026-04-04T16:13:41.692Z</time></trkpt><trkpt lat="43.7885617" lon="12.6992367"><ele>215.33333333333331</ele><time>2026-04-04T16:13:42.689Z</time></trkpt><trkpt lat="43.7887083" lon="12.69911"><ele>217.0</ele><time>2026-04-04T16:13:43.691Z</time></trkpt><trkpt lat="43.7888517" lon="12.698985"><ele>217.0</ele><time>2026-04-04T16:13:44.69Z</time></trkpt><trkpt lat="43.7889917" lon="12.69886"><ele>217.0</ele><time>2026-04-04T16:13:45.687Z</time></trkpt><trkpt lat="43.7891283" lon="12.69874"><ele>217.0</ele><time>2026-04-04T16:13:46.689Z</time></trkpt><trkpt lat="43.78926" lon="12.6986183"><ele>218.33333333333331</ele><time>2026-04-04T16:13:47.685Z</time></trkpt><trkpt lat="43.7893933" lon="12.6984883"><ele>219.66666666666669</ele><time>2026-04-04T16:13:48.688Z</time></trkpt><trkpt lat="43.789525" lon="12.6983483"><ele>221.0</ele><time>2026-04-04T16:13:49.689Z</time></trkpt><trkpt lat="43.7896517" lon="12.69821"><ele>221.0</ele><time>2026-04-04T16:13:50.689Z</time></trkpt><trkpt lat="43.7897783" lon="12.6980617"><ele>221.0</ele><time>2026-04-04T16:13:51.688Z</time></trkpt><trkpt lat="43.7900383" lon="12.6977483"><ele>223.33333333333334</ele><time>2026-04-04T16:13:53.688Z</time></trkpt><trkpt lat="43.7901733" lon="12.6975917"><ele>225.66666666666669</ele><time>2026-04-04T16:13:54.689Z</time></trkpt><trkpt lat="43.79031" lon="12.6974433"><ele>228.0</ele><time>2026-04-04T16:13:55.689Z</time></trkpt><trkpt lat="43.790445" lon="12.697305"><ele>228.0</ele><time>2026-04-04T16:13:56.689Z</time></trkpt><trkpt lat="43.7905633" lon="12.6971783"><ele>228.0</ele><time>2026-04-04T16:13:57.689Z</time></trkpt><trkpt lat="43.79067" lon="12.697065"><ele>228.0</ele><time>2026-04-04T16:13:58.692Z</time></trkpt><trkpt lat="43.7907617" lon="12.6969667"><ele>228.0</ele><time>2026-04-04T16:13:59.688Z</time></trkpt><trkpt lat="43.7908383" lon="12.6968883"><ele>229.2</ele><time>2026-04-04T16:14:00.69Z</time></trkpt><trkpt lat="43.7909" lon="12.6968233"><ele>230.4</ele><time>2026-04-04T16:14:01.689Z</time></trkpt><trkpt lat="43.7909833" lon="12.6967333"><ele>231.59999999999997</ele><time>2026-04-04T16:14:03.689Z</time></trkpt><trkpt lat="43.7910783" lon="12.6966733"><ele>232.79999999999998</ele><time>2026-04-04T16:14:05.689Z</time></trkpt><trkpt lat="43.7912033" lon="12.696615"><ele>234.0</ele><time>2026-04-04T16:14:07.69Z</time></trkpt><trkpt lat="43.7912817" lon="12.6965867"><ele>235.39999999999998</ele><time>2026-04-04T16:14:08.69Z</time></trkpt><trkpt lat="43.7913683" lon="12.696555"><ele>236.79999999999998</ele><time>2026-04-04T16:14:09.688Z</time></trkpt><trkpt lat="43.7914683" lon="12.6965183"><ele>238.20000000000002</ele><time>2026-04-04T16:14:10.692Z</time></trkpt><trkpt lat="43.7915783" lon="12.6964867"><ele>239.60000000000002</ele><time>2026-04-04T16:14:11.689Z</time></trkpt><trkpt lat="43.7916983" lon="12.6964733"><ele>241.0</ele><time>2026-04-04T16:14:12.689Z</time></trkpt><trkpt lat="43.7919717" lon="12.6965417"><ele>245.5</ele><time>2026-04-04T16:14:14.688Z</time></trkpt><trkpt lat="43.7921133" lon="12.696625"><ele>250.0</ele><time>2026-04-04T16:14:15.689Z</time></trkpt><trkpt lat="43.7923883" lon="12.69682"><ele>251.66666666666666</ele><time>2026-04-04T16:14:17.689Z</time></trkpt><trkpt lat="43.7925217" lon="12.6969283"><ele>253.33333333333331</ele><time>2026-04-04T16:14:18.689Z</time></trkpt><trkpt lat="43.7926483" lon="12.697045"><ele>255.0</ele><time>2026-04-04T16:14:19.689Z</time></trkpt><trkpt lat="43.7927783" lon="12.6971683"><ele>255.0</ele><time>2026-04-04T16:14:20.687Z</time></trkpt><trkpt lat="43.7929067" lon="12.6972883"><ele>255.0</ele><time>2026-04-04T16:14:21.687Z</time></trkpt><trkpt lat="43.79303" lon="12.697405"><ele>255.0</ele><time>2026-04-04T16:14:22.69Z</time></trkpt><trkpt lat="43.793145" lon="12.6975117"><ele>255.0</ele><time>2026-04-04T16:14:23.687Z</time></trkpt><trkpt lat="43.7932517" lon="12.6976117"><ele>255.0</ele><time>2026-04-04T16:14:24.69Z</time></trkpt><trkpt lat="43.7933467" lon="12.6977067"><ele>255.0</ele><time>2026-04-04T16:14:25.689Z</time></trkpt><trkpt lat="43.7934333" lon="12.6977983"><ele>255.0</ele><time>2026-04-04T16:14:26.689Z</time></trkpt><trkpt lat="43.7935117" lon="12.6978867"><ele>255.0</ele><time>2026-04-04T16:14:27.688Z</time></trkpt><trkpt lat="43.79358" lon="12.69796"><ele>255.0</ele><time>2026-04-04T16:14:28.691Z</time></trkpt><trkpt lat="43.7936317" lon="12.6980117"><ele>254.8</ele><time>2026-04-04T16:14:29.688Z</time></trkpt><trkpt lat="43.793695" lon="12.6980283"><ele>254.6</ele><time>2026-04-04T16:14:31.689Z</time></trkpt><trkpt lat="43.7937" lon="12.697895"><ele>254.39999999999998</ele><time>2026-04-04T16:14:34.689Z</time></trkpt><trkpt lat="43.79368" lon="12.6976983"><ele>254.2</ele><time>2026-04-04T16:14:36.689Z</time></trkpt><trkpt lat="43.7936967" lon="12.6975917"><ele>254.0</ele><time>2026-04-04T16:14:37.689Z</time></trkpt><trkpt lat="43.793725" lon="12.6974817"><ele>254.6</ele><time>2026-04-04T16:14:38.688Z</time></trkpt><trkpt lat="43.7937617" lon="12.697355"><ele>255.2</ele><time>2026-04-04T16:14:39.688Z</time></trkpt><trkpt lat="43.793815" lon="12.6972267"><ele>255.79999999999998</ele><time>2026-04-04T16:14:40.69Z</time></trkpt><trkpt lat="43.7938667" lon="12.6971017"><ele>256.4</ele><time>2026-04-04T16:14:41.688Z</time></trkpt><trkpt lat="43.7939133" lon="12.696965"><ele>257.0</ele><time>2026-04-04T16:14:42.691Z</time></trkpt><trkpt lat="43.79395" lon="12.69683"><ele>255.6</ele><time>2026-04-04T16:14:43.69Z</time></trkpt><trkpt lat="43.7939817" lon="12.6967"><ele>254.2</ele><time>2026-04-04T16:14:44.691Z</time></trkpt><trkpt lat="43.7939967" lon="12.6965717"><ele>252.8</ele><time>2026-04-04T16:14:45.691Z</time></trkpt><trkpt lat="43.7939967" lon="12.6964283"><ele>251.4</ele><time>2026-04-04T16:14:46.689Z</time></trkpt><trkpt lat="43.793975" lon="12.6962717"><ele>250.0</ele><time>2026-04-04T16:14:47.687Z</time></trkpt><trkpt lat="43.7939283" lon="12.696105"><ele>246.66666666666666</ele><time>2026-04-04T16:14:48.69Z</time></trkpt><trkpt lat="43.79386" lon="12.695945"><ele>243.33333333333331</ele><time>2026-04-04T16:14:49.69Z</time></trkpt><trkpt lat="43.7937917" lon="12.6957983"><ele>240.0</ele><time>2026-04-04T16:14:50.688Z</time></trkpt><trkpt lat="43.7936783" lon="12.6955183"><ele>240.0</ele><time>2026-04-04T16:14:52.688Z</time></trkpt><trkpt lat="43.79363" lon="12.6953667"><ele>240.0</ele><time>2026-04-04T16:14:53.69Z</time></trkpt><trkpt lat="43.7935883" lon="12.6951983"><ele>240.0</ele><time>2026-04-04T16:14:54.69Z</time></trkpt><trkpt lat="43.7935617" lon="12.6950133"><ele>240.0</ele><time>2026-04-04T16:14:55.688Z</time></trkpt><trkpt lat="43.7935683" lon="12.6946167"><ele>239.0</ele><time>2026-04-04T16:14:57.689Z</time></trkpt><trkpt lat="43.7935983" lon="12.69441"><ele>238.0</ele><time>2026-04-04T16:14:58.69Z</time></trkpt><trkpt lat="43.79364" lon="12.694195"><ele>237.0</ele><time>2026-04-04T16:14:59.69Z</time></trkpt><trkpt lat="43.7936867" lon="12.693975"><ele>237.0</ele><time>2026-04-04T16:15:00.691Z</time></trkpt><trkpt lat="43.7937317" lon="12.693745"><ele>237.0</ele><time>2026-04-04T16:15:01.688Z</time></trkpt><trkpt lat="43.7937633" lon="12.6935183"><ele>237.0</ele><time>2026-04-04T16:15:02.69Z</time></trkpt><trkpt lat="43.7937667" lon="12.6932867"><ele>237.0</ele><time>2026-04-04T16:15:03.687Z</time></trkpt><trkpt lat="43.7937483" lon="12.6930433"><ele>237.0</ele><time>2026-04-04T16:15:04.689Z</time></trkpt><trkpt lat="43.7937133" lon="12.6927933"><ele>237.0</ele><time>2026-04-04T16:15:05.69Z</time></trkpt><trkpt lat="43.79368" lon="12.69255"><ele>238.5</ele><time>2026-04-04T16:15:06.689Z</time></trkpt><trkpt lat="43.7936483" lon="12.692325"><ele>240.0</ele><time>2026-04-04T16:15:07.689Z</time></trkpt><trkpt lat="43.793625" lon="12.6921233"><ele>241.5</ele><time>2026-04-04T16:15:08.689Z</time></trkpt><trkpt lat="43.7936167" lon="12.6919367"><ele>243.0</ele><time>2026-04-04T16:15:09.689Z</time></trkpt><trkpt lat="43.7936317" lon="12.69176"><ele>244.5</ele><time>2026-04-04T16:15:10.694Z</time></trkpt><trkpt lat="43.7936683" lon="12.6915967"><ele>246.0</ele><time>2026-04-04T16:15:11.69Z</time></trkpt><trkpt lat="43.7937233" lon="12.6914417"><ele>247.5</ele><time>2026-04-04T16:15:12.691Z</time></trkpt><trkpt lat="43.79379" lon="12.6912783"><ele>249.0</ele><time>2026-04-04T16:15:13.69Z</time></trkpt><trkpt lat="43.7938583" lon="12.6910867"><ele>250.0</ele><time>2026-04-04T16:15:14.691Z</time></trkpt><trkpt lat="43.7939167" lon="12.6908683"><ele>251.0</ele><time>2026-04-04T16:15:15.69Z</time></trkpt><trkpt lat="43.7939583" lon="12.6906267"><ele>252.0</ele><time>2026-04-04T16:15:16.692Z</time></trkpt><trkpt lat="43.7940033" lon="12.6900917"><ele>253.66666666666669</ele><time>2026-04-04T16:15:18.689Z</time></trkpt><trkpt lat="43.79402" lon="12.689835"><ele>255.33333333333334</ele><time>2026-04-04T16:15:19.692Z</time></trkpt><trkpt lat="43.7940317" lon="12.689605"><ele>257.0</ele><time>2026-04-04T16:15:20.689Z</time></trkpt><trkpt lat="43.794045" lon="12.6893967"><ele>259.75</ele><time>2026-04-04T16:15:21.688Z</time></trkpt><trkpt lat="43.7940733" lon="12.6892083"><ele>262.5</ele><time>2026-04-04T16:15:22.69Z</time></trkpt><trkpt lat="43.7941233" lon="12.6890333"><ele>265.25</ele><time>2026-04-04T16:15:23.692Z</time></trkpt><trkpt lat="43.7941967" lon="12.6888583"><ele>268.0</ele><time>2026-04-04T16:15:24.691Z</time></trkpt><trkpt lat="43.7942867" lon="12.6886733"><ele>267.3333333333333</ele><time>2026-04-04T16:15:25.69Z</time></trkpt><trkpt lat="43.7943767" lon="12.6884717"><ele>266.6666666666667</ele><time>2026-04-04T16:15:26.689Z</time></trkpt><trkpt lat="43.794455" lon="12.68826"><ele>266.0</ele><time>2026-04-04T16:15:27.689Z</time></trkpt><trkpt lat="43.7945217" lon="12.6880517"><ele>266.0</ele><time>2026-04-04T16:15:28.691Z</time></trkpt><trkpt lat="43.79458" lon="12.687845"><ele>266.0</ele><time>2026-04-04T16:15:29.69Z</time></trkpt><trkpt lat="43.7946267" lon="12.6876667"><ele>266.0</ele><time>2026-04-04T16:15:30.691Z</time></trkpt><trkpt lat="43.7946717" lon="12.6875083"><ele>266.0</ele><time>2026-04-04T16:15:31.69Z</time></trkpt><trkpt lat="43.7947267" lon="12.6873667"><ele>269.0</ele><time>2026-04-04T16:15:32.688Z</time></trkpt><trkpt lat="43.7948" lon="12.68724"><ele>272.0</ele><time>2026-04-04T16:15:33.689Z</time></trkpt><trkpt lat="43.7948917" lon="12.687125"><ele>275.0</ele><time>2026-04-04T16:15:34.691Z</time></trkpt><trkpt lat="43.7949933" lon="12.6870317"><ele>278.0</ele><time>2026-04-04T16:15:35.69Z</time></trkpt><trkpt lat="43.79511" lon="12.68696"><ele>280.33333333333337</ele><time>2026-04-04T16:15:36.69Z</time></trkpt><trkpt lat="43.7952417" lon="12.6869133"><ele>282.6666666666667</ele><time>2026-04-04T16:15:37.689Z</time></trkpt><trkpt lat="43.7955183" lon="12.686865"><ele>285.0</ele><time>2026-04-04T16:15:39.688Z</time></trkpt><trkpt lat="43.795655" lon="12.686845"><ele>285.0</ele><time>2026-04-04T16:15:40.69Z</time></trkpt><trkpt lat="43.7957867" lon="12.6868233"><ele>285.0</ele><time>2026-04-04T16:15:41.689Z</time></trkpt><trkpt lat="43.7959183" lon="12.6868117"><ele>285.0</ele><time>2026-04-04T16:15:42.691Z</time></trkpt><trkpt lat="43.7960533" lon="12.686795"><ele>285.0</ele><time>2026-04-04T16:15:43.691Z</time></trkpt><trkpt lat="43.7961967" lon="12.6867767"><ele>284.0</ele><time>2026-04-04T16:15:44.689Z</time></trkpt><trkpt lat="43.7963467" lon="12.6867567"><ele>283.0</ele><time>2026-04-04T16:15:45.69Z</time></trkpt><trkpt lat="43.7965" lon="12.686735"><ele>282.0</ele><time>2026-04-04T16:15:46.69Z</time></trkpt><trkpt lat="43.7966533" lon="12.686715"><ele>282.0</ele><time>2026-04-04T16:15:47.689Z</time></trkpt><trkpt lat="43.7967983" lon="12.6866967"><ele>282.0</ele><time>2026-04-04T16:15:48.691Z</time></trkpt><trkpt lat="43.796935" lon="12.6866783"><ele>282.0</ele><time>2026-04-04T16:15:49.69Z</time></trkpt><trkpt lat="43.7970667" lon="12.6866667"><ele>282.0</ele><time>2026-04-04T16:15:50.692Z</time></trkpt><trkpt lat="43.7971933" lon="12.68666"><ele>281.5</ele><time>2026-04-04T16:15:51.69Z</time></trkpt><trkpt lat="43.797315" lon="12.6866717"><ele>281.0</ele><time>2026-04-04T16:15:52.69Z</time></trkpt><trkpt lat="43.7974333" lon="12.6867017"><ele>280.5</ele><time>2026-04-04T16:15:53.689Z</time></trkpt><trkpt lat="43.7975483" lon="12.6867633"><ele>280.0</ele><time>2026-04-04T16:15:54.69Z</time></trkpt><trkpt lat="43.797665" lon="12.6868417"><ele>276.0</ele><time>2026-04-04T16:15:55.691Z</time></trkpt><trkpt lat="43.7977833" lon="12.6869383"><ele>272.0</ele><time>2026-04-04T16:15:56.688Z</time></trkpt><trkpt lat="43.7978983" lon="12.6870417"><ele>268.0</ele><time>2026-04-04T16:15:57.69Z</time></trkpt><trkpt lat="43.7981367" lon="12.6872483"><ele>268.0</ele><time>2026-04-04T16:15:59.691Z</time></trkpt><trkpt lat="43.7982583" lon="12.687355"><ele>268.0</ele><time>2026-04-04T16:16:00.689Z</time></trkpt><trkpt lat="43.7983767" lon="12.68746"><ele>268.0</ele><time>2026-04-04T16:16:01.69Z</time></trkpt><trkpt lat="43.7984967" lon="12.6875583"><ele>268.0</ele><time>2026-04-04T16:16:02.687Z</time></trkpt><trkpt lat="43.7986117" lon="12.6876583"><ele>269.25</ele><time>2026-04-04T16:16:03.691Z</time></trkpt><trkpt lat="43.7987233" lon="12.68775"><ele>270.5</ele><time>2026-04-04T16:16:04.692Z</time></trkpt><trkpt lat="43.7988267" lon="12.68784"><ele>271.75</ele><time>2026-04-04T16:16:05.686Z</time></trkpt><trkpt lat="43.7989267" lon="12.6879267"><ele>273.0</ele><time>2026-04-04T16:16:06.69Z</time></trkpt><trkpt lat="43.799025" lon="12.6880117"><ele>271.0</ele><time>2026-04-04T16:16:07.689Z</time></trkpt><trkpt lat="43.79912" lon="12.6880933"><ele>269.0</ele><time>2026-04-04T16:16:08.691Z</time></trkpt><trkpt lat="43.7992133" lon="12.6881733"><ele>267.0</ele><time>2026-04-04T16:16:09.689Z</time></trkpt><trkpt lat="43.799305" lon="12.6882533"><ele>265.0</ele><time>2026-04-04T16:16:10.689Z</time></trkpt><trkpt lat="43.799395" lon="12.6883333"><ele>263.0</ele><time>2026-04-04T16:16:11.688Z</time></trkpt><trkpt lat="43.7994767" lon="12.6884017"><ele>262.83333333333337</ele><time>2026-04-04T16:16:12.69Z</time></trkpt><trkpt lat="43.799555" lon="12.68845"><ele>262.6666666666667</ele><time>2026-04-04T16:16:13.688Z</time></trkpt><trkpt lat="43.79963" lon="12.6884733"><ele>262.5</ele><time>2026-04-04T16:16:14.69Z</time></trkpt><trkpt lat="43.7997017" lon="12.6884767"><ele>262.3333333333333</ele><time>2026-04-04T16:16:15.69Z</time></trkpt><trkpt lat="43.7997933" lon="12.68838"><ele>262.16666666666663</ele><time>2026-04-04T16:16:17.687Z</time></trkpt><trkpt lat="43.7998083" lon="12.6882833"><ele>262.0</ele><time>2026-04-04T16:16:18.689Z</time></trkpt><trkpt lat="43.7998233" lon="12.6878367"><ele>262.25</ele><time>2026-04-04T16:16:21.689Z</time></trkpt><trkpt lat="43.7998233" lon="12.6876583"><ele>262.5</ele><time>2026-04-04T16:16:22.689Z</time></trkpt><trkpt lat="43.79982" lon="12.6874667"><ele>262.75</ele><time>2026-04-04T16:16:23.688Z</time></trkpt><trkpt lat="43.79981" lon="12.6872733"><ele>263.0</ele><time>2026-04-04T16:16:24.691Z</time></trkpt><trkpt lat="43.7997983" lon="12.6870767"><ele>263.25</ele><time>2026-04-04T16:16:25.69Z</time></trkpt><trkpt lat="43.7997867" lon="12.686875"><ele>263.5</ele><time>2026-04-04T16:16:26.688Z</time></trkpt><trkpt lat="43.7997767" lon="12.68667"><ele>263.75</ele><time>2026-04-04T16:16:27.689Z</time></trkpt><trkpt lat="43.7997667" lon="12.6864683"><ele>264.0</ele><time>2026-04-04T16:16:28.69Z</time></trkpt><trkpt lat="43.7997533" lon="12.6862617"><ele>263.6666666666667</ele><time>2026-04-04T16:16:29.688Z</time></trkpt><trkpt lat="43.7997367" lon="12.6860483"><ele>263.33333333333337</ele><time>2026-04-04T16:16:30.69Z</time></trkpt><trkpt lat="43.79972" lon="12.6858317"><ele>263.0</ele><time>2026-04-04T16:16:31.69Z</time></trkpt><trkpt lat="43.7997017" lon="12.6856067"><ele>263.0</ele><time>2026-04-04T16:16:32.688Z</time></trkpt><trkpt lat="43.7996817" lon="12.68538"><ele>263.0</ele><time>2026-04-04T16:16:33.688Z</time></trkpt><trkpt lat="43.7996583" lon="12.6851567"><ele>263.0</ele><time>2026-04-04T16:16:34.69Z</time></trkpt><trkpt lat="43.79964" lon="12.68494"><ele>261.6666666666667</ele><time>2026-04-04T16:16:35.693Z</time></trkpt><trkpt lat="43.79962" lon="12.68473"><ele>260.3333333333333</ele><time>2026-04-04T16:16:36.69Z</time></trkpt><trkpt lat="43.7995967" lon="12.6845167"><ele>259.0</ele><time>2026-04-04T16:16:37.691Z</time></trkpt><trkpt lat="43.7995767" lon="12.6843033"><ele>258.0</ele><time>2026-04-04T16:16:38.686Z</time></trkpt><trkpt lat="43.7995583" lon="12.68409"><ele>257.0</ele><time>2026-04-04T16:16:39.69Z</time></trkpt><trkpt lat="43.7995283" lon="12.6836583"><ele>257.25</ele><time>2026-04-04T16:16:41.69Z</time></trkpt><trkpt lat="43.799515" lon="12.6834567"><ele>257.5</ele><time>2026-04-04T16:16:42.688Z</time></trkpt><trkpt lat="43.7995" lon="12.6832633"><ele>257.75</ele><time>2026-04-04T16:16:43.689Z</time></trkpt><trkpt lat="43.7994983" lon="12.6830767"><ele>258.0</ele><time>2026-04-04T16:16:44.69Z</time></trkpt><trkpt lat="43.7995083" lon="12.68291"><ele>256.5</ele><time>2026-04-04T16:16:45.69Z</time></trkpt><trkpt lat="43.7995167" lon="12.682755"><ele>255.0</ele><time>2026-04-04T16:16:46.689Z</time></trkpt><trkpt lat="43.799515" lon="12.6825983"><ele>253.5</ele><time>2026-04-04T16:16:47.689Z</time></trkpt><trkpt lat="43.7995133" lon="12.6824333"><ele>252.0</ele><time>2026-04-04T16:16:48.688Z</time></trkpt><trkpt lat="43.79951" lon="12.682265"><ele>252.0</ele><time>2026-04-04T16:16:49.689Z</time></trkpt><trkpt lat="43.7995083" lon="12.6820933"><ele>252.0</ele><time>2026-04-04T16:16:50.689Z</time></trkpt><trkpt lat="43.799505" lon="12.6819267"><ele>252.0</ele><time>2026-04-04T16:16:51.689Z</time></trkpt><trkpt lat="43.7995" lon="12.6817583"><ele>252.0</ele><time>2026-04-04T16:16:52.688Z</time></trkpt><trkpt lat="43.7994967" lon="12.681595"><ele>251.0</ele><time>2026-04-04T16:16:53.691Z</time></trkpt><trkpt lat="43.7994917" lon="12.68145"><ele>250.0</ele><time>2026-04-04T16:16:54.69Z</time></trkpt><trkpt lat="43.7994867" lon="12.6813167"><ele>249.0</ele><time>2026-04-04T16:16:55.69Z</time></trkpt><trkpt lat="43.79948" lon="12.6811967"><ele>248.0</ele><time>2026-04-04T16:16:56.69Z</time></trkpt><trkpt lat="43.7994733" lon="12.6810983"><ele>247.0</ele><time>2026-04-04T16:16:57.688Z</time></trkpt><trkpt lat="43.7994567" lon="12.6809717"><ele>246.75</ele><time>2026-04-04T16:16:59.69Z</time></trkpt><trkpt lat="43.799535" lon="12.680865"><ele>246.5</ele><time>2026-04-04T16:17:03.689Z</time></trkpt><trkpt lat="43.7996783" lon="12.6807567"><ele>246.25</ele><time>2026-04-04T16:17:05.691Z</time></trkpt><trkpt lat="43.799785" lon="12.6806867"><ele>246.0</ele><time>2026-04-04T16:17:06.688Z</time></trkpt><trkpt lat="43.7999133" lon="12.680615"><ele>246.0</ele><time>2026-04-04T16:17:07.689Z</time></trkpt><trkpt lat="43.800035" lon="12.6805367"><ele>246.0</ele><time>2026-04-04T16:17:08.69Z</time></trkpt><trkpt lat="43.8001533" lon="12.6804633"><ele>246.0</ele><time>2026-04-04T16:17:09.691Z</time></trkpt><trkpt lat="43.800265" lon="12.680395"><ele>246.0</ele><time>2026-04-04T16:17:10.687Z</time></trkpt><trkpt lat="43.8003817" lon="12.6803533"><ele>242.75</ele><time>2026-04-04T16:17:11.691Z</time></trkpt><trkpt lat="43.800505" lon="12.6803383"><ele>239.5</ele><time>2026-04-04T16:17:12.69Z</time></trkpt><trkpt lat="43.8006383" lon="12.680345"><ele>236.25</ele><time>2026-04-04T16:17:13.69Z</time></trkpt><trkpt lat="43.8007767" lon="12.6803667"><ele>233.0</ele><time>2026-04-04T16:17:14.69Z</time></trkpt><trkpt lat="43.800915" lon="12.6803867"><ele>231.25</ele><time>2026-04-04T16:17:15.691Z</time></trkpt><trkpt lat="43.80105" lon="12.6804033"><ele>229.5</ele><time>2026-04-04T16:17:16.689Z</time></trkpt><trkpt lat="43.8011833" lon="12.6804167"><ele>227.75</ele><time>2026-04-04T16:17:17.688Z</time></trkpt><trkpt lat="43.8013167" lon="12.680445"><ele>226.0</ele><time>2026-04-04T16:17:18.689Z</time></trkpt><trkpt lat="43.8014467" lon="12.6804867"><ele>226.0</ele><time>2026-04-04T16:17:19.688Z</time></trkpt><trkpt lat="43.8015783" lon="12.68054"><ele>226.0</ele><time>2026-04-04T16:17:20.689Z</time></trkpt><trkpt lat="43.8017117" lon="12.68061"><ele>226.0</ele><time>2026-04-04T16:17:21.689Z</time></trkpt><trkpt lat="43.801845" lon="12.6806967"><ele>226.0</ele><time>2026-04-04T16:17:22.69Z</time></trkpt><trkpt lat="43.8019817" lon="12.6807967"><ele>221.5</ele><time>2026-04-04T16:17:23.692Z</time></trkpt><trkpt lat="43.8021233" lon="12.6808967"><ele>217.0</ele><time>2026-04-04T16:17:24.691Z</time></trkpt><trkpt lat="43.80243" lon="12.6810733"><ele>216.33333333333331</ele><time>2026-04-04T16:17:26.688Z</time></trkpt><trkpt lat="43.802595" lon="12.6811467"><ele>215.66666666666669</ele><time>2026-04-04T16:17:27.689Z</time></trkpt><trkpt lat="43.8027617" lon="12.68122"><ele>215.0</ele><time>2026-04-04T16:17:28.69Z</time></trkpt><trkpt lat="43.8029233" lon="12.6812883"><ele>214.66666666666669</ele><time>2026-04-04T16:17:29.689Z</time></trkpt><trkpt lat="43.8030817" lon="12.681355"><ele>214.33333333333331</ele><time>2026-04-04T16:17:30.692Z</time></trkpt><trkpt lat="43.803235" lon="12.681425"><ele>214.0</ele><time>2026-04-04T16:17:31.691Z</time></trkpt><trkpt lat="43.8033767" lon="12.6814967"><ele>214.25</ele><time>2026-04-04T16:17:32.688Z</time></trkpt><trkpt lat="43.8035083" lon="12.6815733"><ele>214.5</ele><time>2026-04-04T16:17:33.688Z</time></trkpt><trkpt lat="43.8036317" lon="12.6816583"><ele>214.75</ele><time>2026-04-04T16:17:34.691Z</time></trkpt><trkpt lat="43.803755" lon="12.681755"><ele>215.0</ele><time>2026-04-04T16:17:35.689Z</time></trkpt><trkpt lat="43.8038767" lon="12.6818633"><ele>213.33333333333334</ele><time>2026-04-04T16:17:36.691Z</time></trkpt><trkpt lat="43.804" lon="12.6819783"><ele>211.66666666666669</ele><time>2026-04-04T16:17:37.689Z</time></trkpt><trkpt lat="43.80413" lon="12.6821"><ele>210.0</ele><time>2026-04-04T16:17:38.688Z</time></trkpt><trkpt lat="43.8042633" lon="12.68223"><ele>210.66666666666669</ele><time>2026-04-04T16:17:39.692Z</time></trkpt><trkpt lat="43.8044" lon="12.6823683"><ele>211.33333333333334</ele><time>2026-04-04T16:17:40.691Z</time></trkpt><trkpt lat="43.80453" lon="12.6825167"><ele>212.0</ele><time>2026-04-04T16:17:41.687Z</time></trkpt><trkpt lat="43.8046617" lon="12.6826683"><ele>211.33333333333334</ele><time>2026-04-04T16:17:42.691Z</time></trkpt><trkpt lat="43.8047933" lon="12.682825"><ele>210.66666666666669</ele><time>2026-04-04T16:17:43.689Z</time></trkpt><trkpt lat="43.8049233" lon="12.6829833"><ele>210.0</ele><time>2026-04-04T16:17:44.691Z</time></trkpt><trkpt lat="43.80518" lon="12.68331"><ele>210.0</ele><time>2026-04-04T16:17:46.69Z</time></trkpt><trkpt lat="43.8053067" lon="12.6834783"><ele>210.0</ele><time>2026-04-04T16:17:47.688Z</time></trkpt><trkpt lat="43.8054317" lon="12.6836467"><ele>210.0</ele><time>2026-04-04T16:17:48.69Z</time></trkpt><trkpt lat="43.805555" lon="12.68382"><ele>210.0</ele><time>2026-04-04T16:17:49.692Z</time></trkpt><trkpt lat="43.8056767" lon="12.6839933"><ele>210.0</ele><time>2026-04-04T16:17:50.688Z</time></trkpt><trkpt lat="43.8057983" lon="12.68416"><ele>210.0</ele><time>2026-04-04T16:17:51.689Z</time></trkpt><trkpt lat="43.8059217" lon="12.6843117"><ele>213.33333333333331</ele><time>2026-04-04T16:17:52.691Z</time></trkpt><trkpt lat="43.80605" lon="12.684455"><ele>216.66666666666666</ele><time>2026-04-04T16:17:53.69Z</time></trkpt><trkpt lat="43.8061833" lon="12.68459"><ele>220.0</ele><time>2026-04-04T16:17:54.69Z</time></trkpt><trkpt lat="43.8064467" lon="12.68486"><ele>220.0</ele><time>2026-04-04T16:17:56.689Z</time></trkpt><trkpt lat="43.8065733" lon="12.6849983"><ele>220.0</ele><time>2026-04-04T16:17:57.69Z</time></trkpt><trkpt lat="43.8066983" lon="12.6851417"><ele>220.0</ele><time>2026-04-04T16:17:58.691Z</time></trkpt><trkpt lat="43.8068167" lon="12.6852833"><ele>224.0</ele><time>2026-04-04T16:17:59.685Z</time></trkpt><trkpt lat="43.8069333" lon="12.6854233"><ele>228.0</ele><time>2026-04-04T16:18:00.689Z</time></trkpt><trkpt lat="43.8070483" lon="12.6855567"><ele>232.0</ele><time>2026-04-04T16:18:01.69Z</time></trkpt><trkpt lat="43.8071633" lon="12.6856883"><ele>232.0</ele><time>2026-04-04T16:18:02.688Z</time></trkpt><trkpt lat="43.8072767" lon="12.685815"><ele>232.0</ele><time>2026-04-04T16:18:03.69Z</time></trkpt><trkpt lat="43.8073833" lon="12.6859367"><ele>232.0</ele><time>2026-04-04T16:18:04.69Z</time></trkpt><trkpt lat="43.807475" lon="12.6860633"><ele>232.0</ele><time>2026-04-04T16:18:05.688Z</time></trkpt><trkpt lat="43.8076317" lon="12.68634"><ele>231.0</ele><time>2026-04-04T16:18:07.69Z</time></trkpt><trkpt lat="43.8076967" lon="12.6865033"><ele>230.0</ele><time>2026-04-04T16:18:08.689Z</time></trkpt><trkpt lat="43.8077517" lon="12.6866833"><ele>229.0</ele><time>2026-04-04T16:18:09.689Z</time></trkpt><trkpt lat="43.8077967" lon="12.6868767"><ele>228.0</ele><time>2026-04-04T16:18:10.691Z</time></trkpt><trkpt lat="43.80784" lon="12.6870817"><ele>228.0</ele><time>2026-04-04T16:18:11.689Z</time></trkpt><trkpt lat="43.8078833" lon="12.6872867"><ele>228.0</ele><time>2026-04-04T16:18:12.691Z</time></trkpt><trkpt lat="43.8079283" lon="12.6874867"><ele>228.0</ele><time>2026-04-04T16:18:13.689Z</time></trkpt><trkpt lat="43.8079717" lon="12.6876683"><ele>228.0</ele><time>2026-04-04T16:18:14.688Z</time></trkpt><trkpt lat="43.8080167" lon="12.6878383"><ele>229.0</ele><time>2026-04-04T16:18:15.69Z</time></trkpt><trkpt lat="43.8080667" lon="12.6879933"><ele>230.0</ele><time>2026-04-04T16:18:16.69Z</time></trkpt><trkpt lat="43.8081717" lon="12.6883"><ele>231.0</ele><time>2026-04-04T16:18:18.69Z</time></trkpt><trkpt lat="43.8082233" lon="12.6884567"><ele>231.0</ele><time>2026-04-04T16:18:19.692Z</time></trkpt><trkpt lat="43.8082767" lon="12.688615"><ele>231.0</ele><time>2026-04-04T16:18:20.688Z</time></trkpt><trkpt lat="43.8083267" lon="12.6887717"><ele>231.0</ele><time>2026-04-04T16:18:21.691Z</time></trkpt><trkpt lat="43.80838" lon="12.68893"><ele>231.0</ele><time>2026-04-04T16:18:22.69Z</time></trkpt><trkpt lat="43.80843" lon="12.6890867"><ele>231.0</ele><time>2026-04-04T16:18:23.688Z</time></trkpt><trkpt lat="43.8084733" lon="12.6892383"><ele>231.0</ele><time>2026-04-04T16:18:24.689Z</time></trkpt><trkpt lat="43.808515" lon="12.6893917"><ele>231.0</ele><time>2026-04-04T16:18:25.689Z</time></trkpt><trkpt lat="43.808555" lon="12.6895483"><ele>231.0</ele><time>2026-04-04T16:18:26.69Z</time></trkpt><trkpt lat="43.8086567" lon="12.6900283"><ele>231.0</ele><time>2026-04-04T16:18:29.688Z</time></trkpt><trkpt lat="43.8086867" lon="12.690185"><ele>231.00000000000003</ele><time>2026-04-04T16:18:30.689Z</time></trkpt><trkpt lat="43.8087167" lon="12.690335"><ele>231.00000000000003</ele><time>2026-04-04T16:18:31.689Z</time></trkpt><trkpt lat="43.8087433" lon="12.6904767"><ele>231.0</ele><time>2026-04-04T16:18:32.688Z</time></trkpt><trkpt lat="43.8087667" lon="12.6905967"><ele>231.0</ele><time>2026-04-04T16:18:33.69Z</time></trkpt><trkpt lat="43.8087867" lon="12.6906967"><ele>231.0</ele><time>2026-04-04T16:18:34.69Z</time></trkpt><trkpt lat="43.8088167" lon="12.6908217"><ele>231.0</ele><time>2026-04-04T16:18:36.69Z</time></trkpt><trkpt lat="43.8088483" lon="12.6909117"><ele>231.0</ele><time>2026-04-04T16:18:39.689Z</time></trkpt><trkpt lat="43.80889" lon="12.6910333"><ele>231.0</ele><time>2026-04-04T16:18:41.688Z</time></trkpt><trkpt lat="43.808915" lon="12.6911183"><ele>231.0</ele><time>2026-04-04T16:18:42.688Z</time></trkpt><trkpt lat="43.80895" lon="12.6912183"><ele>231.0</ele><time>2026-04-04T16:18:43.689Z</time></trkpt><trkpt lat="43.809" lon="12.691325"><ele>230.8</ele><time>2026-04-04T16:18:44.689Z</time></trkpt><trkpt lat="43.809055" lon="12.6914317"><ele>230.60000000000002</ele><time>2026-04-04T16:18:45.689Z</time></trkpt><trkpt lat="43.8091167" lon="12.6915533"><ele>230.4</ele><time>2026-04-04T16:18:46.689Z</time></trkpt><trkpt lat="43.8091783" lon="12.6916767"><ele>230.2</ele><time>2026-04-04T16:18:47.69Z</time></trkpt><trkpt lat="43.8092417" lon="12.6917933"><ele>230.0</ele><time>2026-04-04T16:18:48.692Z</time></trkpt><trkpt lat="43.809455" lon="12.692085"><ele>230.0</ele><time>2026-04-04T16:18:51.689Z</time></trkpt><trkpt lat="43.8095283" lon="12.6921733"><ele>230.0</ele><time>2026-04-04T16:18:52.69Z</time></trkpt><trkpt lat="43.8096067" lon="12.6922717"><ele>230.0</ele><time>2026-04-04T16:18:53.692Z</time></trkpt><trkpt lat="43.8096867" lon="12.6923783"><ele>230.0</ele><time>2026-04-04T16:18:54.69Z</time></trkpt><trkpt lat="43.8097683" lon="12.6925"><ele>230.0</ele><time>2026-04-04T16:18:55.689Z</time></trkpt><trkpt lat="43.8098417" lon="12.69264"><ele>231.5</ele><time>2026-04-04T16:18:56.69Z</time></trkpt><trkpt lat="43.80991" lon="12.692795"><ele>233.0</ele><time>2026-04-04T16:18:57.689Z</time></trkpt><trkpt lat="43.80997" lon="12.6929617"><ele>234.5</ele><time>2026-04-04T16:18:58.689Z</time></trkpt><trkpt lat="43.8100217" lon="12.6931333"><ele>236.0</ele><time>2026-04-04T16:18:59.689Z</time></trkpt><trkpt lat="43.810075" lon="12.6933033"><ele>236.0</ele><time>2026-04-04T16:19:00.69Z</time></trkpt><trkpt lat="43.8101283" lon="12.69347"><ele>236.0</ele><time>2026-04-04T16:19:01.691Z</time></trkpt><trkpt lat="43.810185" lon="12.6936433"><ele>236.0</ele><time>2026-04-04T16:19:02.69Z</time></trkpt><trkpt lat="43.810245" lon="12.6938183"><ele>236.0</ele><time>2026-04-04T16:19:03.69Z</time></trkpt><trkpt lat="43.8102967" lon="12.6939833"><ele>239.25</ele><time>2026-04-04T16:19:04.689Z</time></trkpt><trkpt lat="43.81035" lon="12.6941517"><ele>242.5</ele><time>2026-04-04T16:19:05.689Z</time></trkpt><trkpt lat="43.8104067" lon="12.6943233"><ele>245.75</ele><time>2026-04-04T16:19:06.687Z</time></trkpt><trkpt lat="43.8104583" lon="12.6944867"><ele>249.0</ele><time>2026-04-04T16:19:07.691Z</time></trkpt><trkpt lat="43.8105117" lon="12.6946517"><ele>250.0</ele><time>2026-04-04T16:19:08.688Z</time></trkpt><trkpt lat="43.8105617" lon="12.6948133"><ele>251.0</ele><time>2026-04-04T16:19:09.687Z</time></trkpt><trkpt lat="43.8106083" lon="12.6949667"><ele>252.0</ele><time>2026-04-04T16:19:10.687Z</time></trkpt><trkpt lat="43.8107167" lon="12.6952"><ele>253.0</ele><time>2026-04-04T16:19:12.69Z</time></trkpt><trkpt lat="43.8107917" lon="12.6952767"><ele>253.0</ele><time>2026-04-04T16:19:13.69Z</time></trkpt><trkpt lat="43.8108867" lon="12.6953183"><ele>253.0</ele><time>2026-04-04T16:19:14.69Z</time></trkpt><trkpt lat="43.8109883" lon="12.69532"><ele>253.0</ele><time>2026-04-04T16:19:15.689Z</time></trkpt><trkpt lat="43.8110983" lon="12.69529"><ele>253.0</ele><time>2026-04-04T16:19:16.689Z</time></trkpt><trkpt lat="43.811215" lon="12.6952483"><ele>253.0</ele><time>2026-04-04T16:19:17.689Z</time></trkpt><trkpt lat="43.8113333" lon="12.69521"><ele>256.25</ele><time>2026-04-04T16:19:18.689Z</time></trkpt><trkpt lat="43.8114533" lon="12.6951717"><ele>259.5</ele><time>2026-04-04T16:19:19.691Z</time></trkpt><trkpt lat="43.811565" lon="12.6951367"><ele>262.75</ele><time>2026-04-04T16:19:20.689Z</time></trkpt><trkpt lat="43.8116633" lon="12.6951083"><ele>266.0</ele><time>2026-04-04T16:19:21.688Z</time></trkpt><trkpt lat="43.8118433" lon="12.6951283"><ele>266.8</ele><time>2026-04-04T16:19:23.69Z</time></trkpt><trkpt lat="43.8119233" lon="12.6951933"><ele>267.6</ele><time>2026-04-04T16:19:24.688Z</time></trkpt><trkpt lat="43.8119917" lon="12.6953033"><ele>268.4</ele><time>2026-04-04T16:19:25.69Z</time></trkpt><trkpt lat="43.8120417" lon="12.6954467"><ele>269.2</ele><time>2026-04-04T16:19:26.69Z</time></trkpt><trkpt lat="43.8120767" lon="12.6955967"><ele>270.0</ele><time>2026-04-04T16:19:27.689Z</time></trkpt><trkpt lat="43.8121033" lon="12.695745"><ele>270.4</ele><time>2026-04-04T16:19:28.688Z</time></trkpt><trkpt lat="43.812125" lon="12.6958767"><ele>270.8</ele><time>2026-04-04T16:19:29.691Z</time></trkpt><trkpt lat="43.812145" lon="12.696"><ele>271.2</ele><time>2026-04-04T16:19:30.689Z</time></trkpt><trkpt lat="43.8121617" lon="12.6961017"><ele>271.6</ele><time>2026-04-04T16:19:31.69Z</time></trkpt><trkpt lat="43.81227" lon="12.696305"><ele>272.0</ele><time>2026-04-04T16:19:35.69Z</time></trkpt><trkpt lat="43.812335" lon="12.6963233"><ele>272.0</ele><time>2026-04-04T16:19:36.69Z</time></trkpt><trkpt lat="43.81241" lon="12.696325"><ele>272.0</ele><time>2026-04-04T16:19:37.69Z</time></trkpt><trkpt lat="43.812485" lon="12.6963133"><ele>272.0</ele><time>2026-04-04T16:19:38.689Z</time></trkpt><trkpt lat="43.8125533" lon="12.6962733"><ele>272.0</ele><time>2026-04-04T16:19:39.686Z</time></trkpt><trkpt lat="43.8126067" lon="12.6962067"><ele>272.0</ele><time>2026-04-04T16:19:40.689Z</time></trkpt><trkpt lat="43.8126367" lon="12.6960833"><ele>272.0</ele><time>2026-04-04T16:19:41.689Z</time></trkpt><trkpt lat="43.81267" lon="12.6959433"><ele>269.25</ele><time>2026-04-04T16:19:42.688Z</time></trkpt><trkpt lat="43.81271" lon="12.6957983"><ele>266.5</ele><time>2026-04-04T16:19:43.69Z</time></trkpt><trkpt lat="43.8127583" lon="12.6956567"><ele>263.75</ele><time>2026-04-04T16:19:44.688Z</time></trkpt><trkpt lat="43.8128233" lon="12.6955217"><ele>261.0</ele><time>2026-04-04T16:19:45.69Z</time></trkpt><trkpt lat="43.8129017" lon="12.6953917"><ele>261.0</ele><time>2026-04-04T16:19:46.691Z</time></trkpt><trkpt lat="43.8129883" lon="12.6952783"><ele>261.0</ele><time>2026-04-04T16:19:47.691Z</time></trkpt><trkpt lat="43.8130883" lon="12.695175"><ele>261.0</ele><time>2026-04-04T16:19:48.69Z</time></trkpt><trkpt lat="43.81319" lon="12.6950733"><ele>261.0</ele><time>2026-04-04T16:19:49.689Z</time></trkpt><trkpt lat="43.8132933" lon="12.6949767"><ele>259.0</ele><time>2026-04-04T16:19:50.69Z</time></trkpt><trkpt lat="43.81339" lon="12.69488"><ele>257.0</ele><time>2026-04-04T16:19:51.688Z</time></trkpt><trkpt lat="43.813485" lon="12.69479"><ele>255.0</ele><time>2026-04-04T16:19:52.69Z</time></trkpt><trkpt lat="43.81368" lon="12.6946317"><ele>253.25</ele><time>2026-04-04T16:19:54.692Z</time></trkpt><trkpt lat="43.8137867" lon="12.6945583"><ele>251.5</ele><time>2026-04-04T16:19:55.688Z</time></trkpt><trkpt lat="43.8138917" lon="12.694485"><ele>249.75</ele><time>2026-04-04T16:19:56.69Z</time></trkpt><trkpt lat="43.8140017" lon="12.6944117"><ele>248.0</ele><time>2026-04-04T16:19:57.687Z</time></trkpt><trkpt lat="43.8141133" lon="12.6943417"><ele>248.0</ele><time>2026-04-04T16:19:58.688Z</time></trkpt><trkpt lat="43.81422" lon="12.6942717"><ele>248.0</ele><time>2026-04-04T16:19:59.691Z</time></trkpt><trkpt lat="43.81432" lon="12.6942067"><ele>248.0</ele><time>2026-04-04T16:20:00.688Z</time></trkpt><trkpt lat="43.8144183" lon="12.6941433"><ele>248.0</ele><time>2026-04-04T16:20:01.689Z</time></trkpt><trkpt lat="43.81452" lon="12.69408"><ele>248.0</ele><time>2026-04-04T16:20:02.689Z</time></trkpt><trkpt lat="43.8146267" lon="12.6940167"><ele>246.0</ele><time>2026-04-04T16:20:03.689Z</time></trkpt><trkpt lat="43.8147333" lon="12.6939583"><ele>244.0</ele><time>2026-04-04T16:20:04.691Z</time></trkpt><trkpt lat="43.81485" lon="12.693905"><ele>242.0</ele><time>2026-04-04T16:20:05.689Z</time></trkpt><trkpt lat="43.8149667" lon="12.6938533"><ele>240.0</ele><time>2026-04-04T16:20:06.689Z</time></trkpt><trkpt lat="43.81507" lon="12.6938033"><ele>239.33333333333334</ele><time>2026-04-04T16:20:07.688Z</time></trkpt><trkpt lat="43.8151583" lon="12.6937367"><ele>238.66666666666669</ele><time>2026-04-04T16:20:08.688Z</time></trkpt><trkpt lat="43.815205" lon="12.693665"><ele>238.0</ele><time>2026-04-04T16:20:09.688Z</time></trkpt><trkpt lat="43.815235" lon="12.6935817"><ele>237.33333333333334</ele><time>2026-04-04T16:20:10.689Z</time></trkpt><trkpt lat="43.815235" lon="12.6934883"><ele>236.66666666666669</ele><time>2026-04-04T16:20:11.69Z</time></trkpt><trkpt lat="43.8152067" lon="12.6933733"><ele>236.0</ele><time>2026-04-04T16:20:12.69Z</time></trkpt><trkpt lat="43.8151783" lon="12.6932417"><ele>241.66666666666669</ele><time>2026-04-04T16:20:13.692Z</time></trkpt><trkpt lat="43.8151017" lon="12.692945"><ele>247.33333333333331</ele><time>2026-04-04T16:20:15.689Z</time></trkpt><trkpt lat="43.8150567" lon="12.6927817"><ele>253.0</ele><time>2026-04-04T16:20:16.689Z</time></trkpt><trkpt lat="43.81501" lon="12.6926233"><ele>254.25</ele><time>2026-04-04T16:20:17.689Z</time></trkpt><trkpt lat="43.8149667" lon="12.692475"><ele>255.5</ele><time>2026-04-04T16:20:18.689Z</time></trkpt><trkpt lat="43.8149217" lon="12.6923283"><ele>256.75</ele><time>2026-04-04T16:20:19.692Z</time></trkpt><trkpt lat="43.814875" lon="12.6921817"><ele>258.0</ele><time>2026-04-04T16:20:20.69Z</time></trkpt><trkpt lat="43.8148283" lon="12.6920433"><ele>257.0</ele><time>2026-04-04T16:20:21.689Z</time></trkpt><trkpt lat="43.8147783" lon="12.6919133"><ele>256.0</ele><time>2026-04-04T16:20:22.69Z</time></trkpt><trkpt lat="43.814725" lon="12.6918"><ele>255.0</ele><time>2026-04-04T16:20:23.688Z</time></trkpt><trkpt lat="43.8145767" lon="12.6916017"><ele>254.0</ele><time>2026-04-04T16:20:25.69Z</time></trkpt><trkpt lat="43.8144933" lon="12.6915117"><ele>254.00000000000003</ele><time>2026-04-04T16:20:26.688Z</time></trkpt><trkpt lat="43.81441" lon="12.6914217"><ele>254.0</ele><time>2026-04-04T16:20:27.69Z</time></trkpt><trkpt lat="43.8143517" lon="12.69132"><ele>254.0</ele><time>2026-04-04T16:20:28.688Z</time></trkpt><trkpt lat="43.8143083" lon="12.6912183"><ele>254.0</ele><time>2026-04-04T16:20:29.688Z</time></trkpt><trkpt lat="43.81429" lon="12.6911117"><ele>254.00000000000003</ele><time>2026-04-04T16:20:30.69Z</time></trkpt><trkpt lat="43.8142933" lon="12.6910017"><ele>254.0</ele><time>2026-04-04T16:20:31.69Z</time></trkpt><trkpt lat="43.8143267" lon="12.6909083"><ele>250.0</ele><time>2026-04-04T16:20:32.69Z</time></trkpt><trkpt lat="43.8143867" lon="12.6908367"><ele>246.0</ele><time>2026-04-04T16:20:33.687Z</time></trkpt><trkpt lat="43.8144433" lon="12.6907533"><ele>242.0</ele><time>2026-04-04T16:20:34.691Z</time></trkpt><trkpt lat="43.8147583" lon="12.6906983"><ele>242.0</ele><time>2026-04-04T16:20:37.688Z</time></trkpt><trkpt lat="43.8148717" lon="12.69066"><ele>242.0</ele><time>2026-04-04T16:20:38.687Z</time></trkpt><trkpt lat="43.8149783" lon="12.690615"><ele>242.0</ele><time>2026-04-04T16:20:39.688Z</time></trkpt><trkpt lat="43.815075" lon="12.6905533"><ele>242.0</ele><time>2026-04-04T16:20:40.688Z</time></trkpt><trkpt lat="43.81514" lon="12.6904517"><ele>242.0</ele><time>2026-04-04T16:20:41.69Z</time></trkpt><trkpt lat="43.8151833" lon="12.6903333"><ele>236.0</ele><time>2026-04-04T16:20:42.689Z</time></trkpt><trkpt lat="43.8152133" lon="12.6901967"><ele>230.0</ele><time>2026-04-04T16:20:43.689Z</time></trkpt><trkpt lat="43.8152267" lon="12.6900367"><ele>224.0</ele><time>2026-04-04T16:20:44.687Z</time></trkpt><trkpt lat="43.8152383" lon="12.6898867"><ele>218.0</ele><time>2026-04-04T16:20:45.689Z</time></trkpt><trkpt lat="43.8152433" lon="12.6897483"><ele>212.0</ele><time>2026-04-04T16:20:46.686Z</time></trkpt><trkpt lat="43.8152483" lon="12.68963"><ele>212.00000000000003</ele><time>2026-04-04T16:20:47.689Z</time></trkpt><trkpt lat="43.815245" lon="12.6895167"><ele>212.0</ele><time>2026-04-04T16:20:48.691Z</time></trkpt><trkpt lat="43.8152267" lon="12.68941"><ele>212.0</ele><time>2026-04-04T16:20:49.69Z</time></trkpt><trkpt lat="43.815195" lon="12.6893033"><ele>212.0</ele><time>2026-04-04T16:20:50.689Z</time></trkpt><trkpt lat="43.8151517" lon="12.6891917"><ele>212.00000000000003</ele><time>2026-04-04T16:20:51.687Z</time></trkpt><trkpt lat="43.8151" lon="12.6890883"><ele>212.0</ele><time>2026-04-04T16:20:52.687Z</time></trkpt><trkpt lat="43.8150533" lon="12.6889767"><ele>212.0</ele><time>2026-04-04T16:20:53.689Z</time></trkpt><trkpt lat="43.81501" lon="12.68887"><ele>212.0</ele><time>2026-04-04T16:20:54.687Z</time></trkpt><trkpt lat="43.81498" lon="12.6887617"><ele>212.0</ele><time>2026-04-04T16:20:55.689Z</time></trkpt><trkpt lat="43.8150367" lon="12.688435"><ele>212.0</ele><time>2026-04-04T16:20:58.688Z</time></trkpt><trkpt lat="43.81512" lon="12.6883233"><ele>210.0</ele><time>2026-04-04T16:20:59.687Z</time></trkpt><trkpt lat="43.815205" lon="12.6882467"><ele>208.0</ele><time>2026-04-04T16:21:00.689Z</time></trkpt><trkpt lat="43.8152633" lon="12.6881883"><ele>206.0</ele><time>2026-04-04T16:21:01.688Z</time></trkpt><trkpt lat="43.8153233" lon="12.6881383"><ele>204.0</ele><time>2026-04-04T16:21:02.689Z</time></trkpt><trkpt lat="43.8153933" lon="12.6881167"><ele>202.0</ele><time>2026-04-04T16:21:03.688Z</time></trkpt><trkpt lat="43.8154533" lon="12.6881433"><ele>200.0</ele><time>2026-04-04T16:21:04.691Z</time></trkpt><trkpt lat="43.8155167" lon="12.6881733"><ele>198.0</ele><time>2026-04-04T16:21:05.688Z</time></trkpt><trkpt lat="43.815595" lon="12.6882417"><ele>198.0</ele><time>2026-04-04T16:21:06.69Z</time></trkpt><trkpt lat="43.8156933" lon="12.6883667"><ele>198.0</ele><time>2026-04-04T16:21:07.69Z</time></trkpt><trkpt lat="43.8157983" lon="12.688495"><ele>198.0</ele><time>2026-04-04T16:21:08.689Z</time></trkpt><trkpt lat="43.815905" lon="12.688625"><ele>198.0</ele><time>2026-04-04T16:21:09.687Z</time></trkpt><trkpt lat="43.816005" lon="12.6887467"><ele>196.5</ele><time>2026-04-04T16:21:10.691Z</time></trkpt><trkpt lat="43.8161017" lon="12.6888667"><ele>195.0</ele><time>2026-04-04T16:21:11.688Z</time></trkpt><trkpt lat="43.8162083" lon="12.6889983"><ele>193.5</ele><time>2026-04-04T16:21:12.691Z</time></trkpt><trkpt lat="43.81631" lon="12.6891167"><ele>192.0</ele><time>2026-04-04T16:21:13.691Z</time></trkpt><trkpt lat="43.81641" lon="12.6892367"><ele>192.0</ele><time>2026-04-04T16:21:14.69Z</time></trkpt><trkpt lat="43.8165017" lon="12.689345"><ele>192.0</ele><time>2026-04-04T16:21:15.689Z</time></trkpt><trkpt lat="43.8165833" lon="12.6894483"><ele>192.0</ele><time>2026-04-04T16:21:16.69Z</time></trkpt><trkpt lat="43.8167167" lon="12.6896717"><ele>192.0</ele><time>2026-04-04T16:21:18.691Z</time></trkpt><trkpt lat="43.8167667" lon="12.6898083"><ele>190.8</ele><time>2026-04-04T16:21:19.689Z</time></trkpt><trkpt lat="43.816815" lon="12.6899517"><ele>189.6</ele><time>2026-04-04T16:21:20.689Z</time></trkpt><trkpt lat="43.816865" lon="12.6900917"><ele>188.4</ele><time>2026-04-04T16:21:21.689Z</time></trkpt><trkpt lat="43.816915" lon="12.6902183"><ele>187.20000000000002</ele><time>2026-04-04T16:21:22.691Z</time></trkpt><trkpt lat="43.81697" lon="12.6903367"><ele>186.0</ele><time>2026-04-04T16:21:23.691Z</time></trkpt><trkpt lat="43.8170317" lon="12.690435"><ele>190.20000000000002</ele><time>2026-04-04T16:21:24.69Z</time></trkpt><trkpt lat="43.8171067" lon="12.6904967"><ele>194.4</ele><time>2026-04-04T16:21:25.69Z</time></trkpt><trkpt lat="43.81719" lon="12.6905367"><ele>198.6</ele><time>2026-04-04T16:21:26.69Z</time></trkpt><trkpt lat="43.8172883" lon="12.6905567"><ele>202.8</ele><time>2026-04-04T16:21:27.689Z</time></trkpt><trkpt lat="43.8173967" lon="12.6905517"><ele>207.0</ele><time>2026-04-04T16:21:28.689Z</time></trkpt><trkpt lat="43.8175" lon="12.6905517"><ele>207.0</ele><time>2026-04-04T16:21:29.691Z</time></trkpt><trkpt lat="43.817615" lon="12.6905233"><ele>207.0</ele><time>2026-04-04T16:21:30.69Z</time></trkpt><trkpt lat="43.81772" lon="12.6904783"><ele>207.0</ele><time>2026-04-04T16:21:31.689Z</time></trkpt><trkpt lat="43.8178283" lon="12.6904167"><ele>207.0</ele><time>2026-04-04T16:21:32.69Z</time></trkpt><trkpt lat="43.8179383" lon="12.6903417"><ele>202.75</ele><time>2026-04-04T16:21:33.69Z</time></trkpt><trkpt lat="43.818035" lon="12.6902567"><ele>198.5</ele><time>2026-04-04T16:21:34.69Z</time></trkpt><trkpt lat="43.8181233" lon="12.6901583"><ele>194.25</ele><time>2026-04-04T16:21:35.687Z</time></trkpt><trkpt lat="43.8182083" lon="12.690045"><ele>190.0</ele><time>2026-04-04T16:21:36.687Z</time></trkpt><trkpt lat="43.8182817" lon="12.6899167"><ele>190.0</ele><time>2026-04-04T16:21:37.687Z</time></trkpt><trkpt lat="43.8184367" lon="12.6896217"><ele>190.0</ele><time>2026-04-04T16:21:39.69Z</time></trkpt><trkpt lat="43.818515" lon="12.6894767"><ele>190.0</ele><time>2026-04-04T16:21:40.691Z</time></trkpt><trkpt lat="43.8185967" lon="12.6893267"><ele>185.5</ele><time>2026-04-04T16:21:41.69Z</time></trkpt><trkpt lat="43.8186783" lon="12.6891767"><ele>181.0</ele><time>2026-04-04T16:21:42.689Z</time></trkpt><trkpt lat="43.8187617" lon="12.6890267"><ele>176.5</ele><time>2026-04-04T16:21:43.689Z</time></trkpt><trkpt lat="43.8188467" lon="12.688875"><ele>172.0</ele><time>2026-04-04T16:21:44.689Z</time></trkpt><trkpt lat="43.8189333" lon="12.68872"><ele>169.75</ele><time>2026-04-04T16:21:45.69Z</time></trkpt><trkpt lat="43.819015" lon="12.6885667"><ele>167.5</ele><time>2026-04-04T16:21:46.689Z</time></trkpt><trkpt lat="43.8190967" lon="12.6884183"><ele>165.25</ele><time>2026-04-04T16:21:47.691Z</time></trkpt><trkpt lat="43.819175" lon="12.68828"><ele>163.0</ele><time>2026-04-04T16:21:48.69Z</time></trkpt><trkpt lat="43.8192533" lon="12.688135"><ele>162.8</ele><time>2026-04-04T16:21:49.69Z</time></trkpt><trkpt lat="43.819325" lon="12.687995"><ele>162.60000000000002</ele><time>2026-04-04T16:21:50.69Z</time></trkpt><trkpt lat="43.8193983" lon="12.687875"><ele>162.39999999999998</ele><time>2026-04-04T16:21:51.689Z</time></trkpt><trkpt lat="43.819475" lon="12.6877867"><ele>162.2</ele><time>2026-04-04T16:21:52.689Z</time></trkpt><trkpt lat="43.819545" lon="12.6877333"><ele>162.0</ele><time>2026-04-04T16:21:53.689Z</time></trkpt><trkpt lat="43.8196617" lon="12.6877367"><ele>162.0</ele><time>2026-04-04T16:21:55.692Z</time></trkpt><trkpt lat="43.8197183" lon="12.68782"><ele>162.0</ele><time>2026-04-04T16:21:56.688Z</time></trkpt><trkpt lat="43.8197883" lon="12.6879483"><ele>162.0</ele><time>2026-04-04T16:21:57.691Z</time></trkpt><trkpt lat="43.8200417" lon="12.6883767"><ele>162.0</ele><time>2026-04-04T16:22:00.688Z</time></trkpt><trkpt lat="43.8201367" lon="12.6885267"><ele>162.0</ele><time>2026-04-04T16:22:01.69Z</time></trkpt><trkpt lat="43.8202367" lon="12.6886767"><ele>162.0</ele><time>2026-04-04T16:22:02.688Z</time></trkpt><trkpt lat="43.82034" lon="12.6888283"><ele>162.0</ele><time>2026-04-04T16:22:03.689Z</time></trkpt><trkpt lat="43.8204383" lon="12.6889733"><ele>159.75</ele><time>2026-04-04T16:22:04.691Z</time></trkpt><trkpt lat="43.8205283" lon="12.689105"><ele>157.5</ele><time>2026-04-04T16:22:05.692Z</time></trkpt><trkpt lat="43.8206117" lon="12.6892283"><ele>155.25</ele><time>2026-04-04T16:22:06.69Z</time></trkpt><trkpt lat="43.8206883" lon="12.68934"><ele>153.0</ele><time>2026-04-04T16:22:07.69Z</time></trkpt><trkpt lat="43.8207617" lon="12.6894383"><ele>153.0</ele><time>2026-04-04T16:22:08.689Z</time></trkpt><trkpt lat="43.8208317" lon="12.6895283"><ele>153.0</ele><time>2026-04-04T16:22:09.687Z</time></trkpt><trkpt lat="43.8209067" lon="12.689585"><ele>153.0</ele><time>2026-04-04T16:22:10.69Z</time></trkpt><trkpt lat="43.8209783" lon="12.689605"><ele>153.0</ele><time>2026-04-04T16:22:11.688Z</time></trkpt><trkpt lat="43.82105" lon="12.6895983"><ele>153.0</ele><time>2026-04-04T16:22:12.688Z</time></trkpt><trkpt lat="43.8211167" lon="12.689545"><ele>153.0</ele><time>2026-04-04T16:22:13.691Z</time></trkpt><trkpt lat="43.8211717" lon="12.6894383"><ele>151.6</ele><time>2026-04-04T16:22:14.691Z</time></trkpt><trkpt lat="43.8212283" lon="12.6893283"><ele>150.20000000000002</ele><time>2026-04-04T16:22:15.686Z</time></trkpt><trkpt lat="43.8212867" lon="12.689195"><ele>148.8</ele><time>2026-04-04T16:22:16.688Z</time></trkpt><trkpt lat="43.8213483" lon="12.6890567"><ele>147.4</ele><time>2026-04-04T16:22:17.691Z</time></trkpt><trkpt lat="43.8214067" lon="12.6889117"><ele>146.0</ele><time>2026-04-04T16:22:18.688Z</time></trkpt><trkpt lat="43.82158" lon="12.688425"><ele>145.25</ele><time>2026-04-04T16:22:21.69Z</time></trkpt><trkpt lat="43.8216333" lon="12.6882633"><ele>144.5</ele><time>2026-04-04T16:22:22.69Z</time></trkpt><trkpt lat="43.8216833" lon="12.6880933"><ele>143.75</ele><time>2026-04-04T16:22:23.69Z</time></trkpt><trkpt lat="43.8217283" lon="12.68793"><ele>143.0</ele><time>2026-04-04T16:22:24.691Z</time></trkpt><trkpt lat="43.8217717" lon="12.6877583"><ele>143.0</ele><time>2026-04-04T16:22:25.691Z</time></trkpt><trkpt lat="43.8218083" lon="12.6875883"><ele>143.0</ele><time>2026-04-04T16:22:26.689Z</time></trkpt><trkpt lat="43.8218433" lon="12.6874117"><ele>143.0</ele><time>2026-04-04T16:22:27.687Z</time></trkpt><trkpt lat="43.8218733" lon="12.6872367"><ele>143.0</ele><time>2026-04-04T16:22:28.69Z</time></trkpt><trkpt lat="43.8219033" lon="12.687065"><ele>138.5</ele><time>2026-04-04T16:22:29.69Z</time></trkpt><trkpt lat="43.8219367" lon="12.6869017"><ele>134.0</ele><time>2026-04-04T16:22:30.687Z</time></trkpt><trkpt lat="43.8219583" lon="12.68674"><ele>129.5</ele><time>2026-04-04T16:22:31.688Z</time></trkpt><trkpt lat="43.821965" lon="12.6865833"><ele>125.0</ele><time>2026-04-04T16:22:32.689Z</time></trkpt><trkpt lat="43.8219567" lon="12.6864183"><ele>125.0</ele><time>2026-04-04T16:22:33.685Z</time></trkpt><trkpt lat="43.8219383" lon="12.6862483"><ele>125.0</ele><time>2026-04-04T16:22:34.689Z</time></trkpt><trkpt lat="43.821915" lon="12.6860717"><ele>125.0</ele><time>2026-04-04T16:22:35.688Z</time></trkpt><trkpt lat="43.8218983" lon="12.6858883"><ele>125.0</ele><time>2026-04-04T16:22:36.688Z</time></trkpt><trkpt lat="43.8218917" lon="12.685705"><ele>119.0</ele><time>2026-04-04T16:22:37.69Z</time></trkpt><trkpt lat="43.8218917" lon="12.6855183"><ele>113.0</ele><time>2026-04-04T16:22:38.685Z</time></trkpt><trkpt lat="43.8218983" lon="12.6853317"><ele>107.0</ele><time>2026-04-04T16:22:39.688Z</time></trkpt><trkpt lat="43.82194" lon="12.6849783"><ele>105.25</ele><time>2026-04-04T16:22:41.688Z</time></trkpt><trkpt lat="43.8219683" lon="12.6848067"><ele>103.5</ele><time>2026-04-04T16:22:42.688Z</time></trkpt><trkpt lat="43.822" lon="12.6846367"><ele>101.75</ele><time>2026-04-04T16:22:43.688Z</time></trkpt><trkpt lat="43.8220367" lon="12.6844733"><ele>100.0</ele><time>2026-04-04T16:22:44.685Z</time></trkpt><trkpt lat="43.8220717" lon="12.6843033"><ele>97.5</ele><time>2026-04-04T16:22:45.687Z</time></trkpt><trkpt lat="43.8221117" lon="12.6841233"><ele>95.0</ele><time>2026-04-04T16:22:46.688Z</time></trkpt><trkpt lat="43.82215" lon="12.683945"><ele>92.5</ele><time>2026-04-04T16:22:47.686Z</time></trkpt><trkpt lat="43.8221933" lon="12.6837767"><ele>90.0</ele><time>2026-04-04T16:22:48.689Z</time></trkpt><trkpt lat="43.8222383" lon="12.6836117"><ele>88.0</ele><time>2026-04-04T16:22:49.688Z</time></trkpt><trkpt lat="43.822285" lon="12.683455"><ele>86.0</ele><time>2026-04-04T16:22:50.686Z</time></trkpt><trkpt lat="43.8223317" lon="12.6833017"><ele>84.0</ele><time>2026-04-04T16:22:51.686Z</time></trkpt><trkpt lat="43.8223733" lon="12.6831583"><ele>82.0</ele><time>2026-04-04T16:22:52.688Z</time></trkpt><trkpt lat="43.8224117" lon="12.6830233"><ele>82.0</ele><time>2026-04-04T16:22:53.686Z</time></trkpt><trkpt lat="43.82245" lon="12.6828967"><ele>82.0</ele><time>2026-04-04T16:22:54.689Z</time></trkpt><trkpt lat="43.82249" lon="12.682785"><ele>82.0</ele><time>2026-04-04T16:22:55.689Z</time></trkpt><trkpt lat="43.8225267" lon="12.682695"><ele>82.0</ele><time>2026-04-04T16:22:56.686Z</time></trkpt><trkpt lat="43.8225783" lon="12.6825967"><ele>82.0</ele><time>2026-04-04T16:22:58.689Z</time></trkpt><trkpt lat="43.82274" lon="12.6826567"><ele>79.5</ele><time>2026-04-04T16:23:05.691Z</time></trkpt><trkpt lat="43.8228567" lon="12.6827883"><ele>77.0</ele><time>2026-04-04T16:23:07.689Z</time></trkpt><trkpt lat="43.8229217" lon="12.6828967"><ele>74.5</ele><time>2026-04-04T16:23:08.686Z</time></trkpt><trkpt lat="43.8229833" lon="12.68303"><ele>72.0</ele><time>2026-04-04T16:23:09.687Z</time></trkpt><trkpt lat="43.82304" lon="12.6831767"><ele>72.0</ele><time>2026-04-04T16:23:10.69Z</time></trkpt><trkpt lat="43.823095" lon="12.6833283"><ele>72.0</ele><time>2026-04-04T16:23:11.688Z</time></trkpt><trkpt lat="43.8231517" lon="12.683475"><ele>72.0</ele><time>2026-04-04T16:23:12.69Z</time></trkpt><trkpt lat="43.82321" lon="12.6836183"><ele>72.0</ele><time>2026-04-04T16:23:13.689Z</time></trkpt><trkpt lat="43.8232717" lon="12.6837533"><ele>71.8</ele><time>2026-04-04T16:23:14.687Z</time></trkpt><trkpt lat="43.82334" lon="12.6838817"><ele>71.6</ele><time>2026-04-04T16:23:15.685Z</time></trkpt><trkpt lat="43.8234067" lon="12.684"><ele>71.39999999999999</ele><time>2026-04-04T16:23:16.688Z</time></trkpt><trkpt lat="43.82347" lon="12.684105"><ele>71.2</ele><time>2026-04-04T16:23:17.688Z</time></trkpt><trkpt lat="43.823525" lon="12.6841833"><ele>71.0</ele><time>2026-04-04T16:23:18.688Z</time></trkpt><trkpt lat="43.8236167" lon="12.6842483"><ele>71.0</ele><time>2026-04-04T16:23:20.688Z</time></trkpt><trkpt lat="43.8237383" lon="12.6841717"><ele>71.0</ele><time>2026-04-04T16:23:22.687Z</time></trkpt><trkpt lat="43.8238267" lon="12.6840817"><ele>71.0</ele><time>2026-04-04T16:23:23.689Z</time></trkpt><trkpt lat="43.8239217" lon="12.6839833"><ele>71.0</ele><time>2026-04-04T16:23:24.687Z</time></trkpt><trkpt lat="43.82409" lon="12.6838133"><ele>71.0</ele><time>2026-04-04T16:23:26.689Z</time></trkpt><trkpt lat="43.824245" lon="12.6836767"><ele>71.0</ele><time>2026-04-04T16:23:28.689Z</time></trkpt><trkpt lat="43.8243067" lon="12.6835967"><ele>71.0</ele><time>2026-04-04T16:23:29.689Z</time></trkpt><trkpt lat="43.8243467" lon="12.6835067"><ele>71.0</ele><time>2026-04-04T16:23:30.687Z</time></trkpt><trkpt lat="43.8243667" lon="12.6834017"><ele>71.0</ele><time>2026-04-04T16:23:31.688Z</time></trkpt><trkpt lat="43.8243483" lon="12.6832683"><ele>71.75</ele><time>2026-04-04T16:23:32.69Z</time></trkpt><trkpt lat="43.8243067" lon="12.6831283"><ele>72.5</ele><time>2026-04-04T16:23:33.685Z</time></trkpt><trkpt lat="43.8242433" lon="12.68298"><ele>73.25</ele><time>2026-04-04T16:23:34.688Z</time></trkpt><trkpt lat="43.8241783" lon="12.682825"><ele>74.0</ele><time>2026-04-04T16:23:35.688Z</time></trkpt><trkpt lat="43.8241283" lon="12.6826817"><ele>75.0</ele><time>2026-04-04T16:23:36.687Z</time></trkpt><trkpt lat="43.8240733" lon="12.6825467"><ele>76.0</ele><time>2026-04-04T16:23:37.689Z</time></trkpt><trkpt lat="43.8240217" lon="12.68242"><ele>77.0</ele><time>2026-04-04T16:23:38.687Z</time></trkpt><trkpt lat="43.8239767" lon="12.6823"><ele>78.0</ele><time>2026-04-04T16:23:39.687Z</time></trkpt><trkpt lat="43.8239417" lon="12.6821867"><ele>79.0</ele><time>2026-04-04T16:23:40.687Z</time></trkpt><trkpt lat="43.8239133" lon="12.682075"><ele>79.0</ele><time>2026-04-04T16:23:41.687Z</time></trkpt><trkpt lat="43.823885" lon="12.6819717"><ele>79.0</ele><time>2026-04-04T16:23:42.689Z</time></trkpt><trkpt lat="43.823865" lon="12.681865"><ele>79.0</ele><time>2026-04-04T16:23:43.689Z</time></trkpt><trkpt lat="43.8238633" lon="12.6817567"><ele>79.0</ele><time>2026-04-04T16:23:44.688Z</time></trkpt><trkpt lat="43.82389" lon="12.681645"><ele>79.0</ele><time>2026-04-04T16:23:45.69Z</time></trkpt><trkpt lat="43.824005" lon="12.6814583"><ele>80.0</ele><time>2026-04-04T16:23:47.688Z</time></trkpt><trkpt lat="43.82417" lon="12.6813583"><ele>81.0</ele><time>2026-04-04T16:23:49.687Z</time></trkpt><trkpt lat="43.824255" lon="12.6813183"><ele>82.0</ele><time>2026-04-04T16:23:50.686Z</time></trkpt><trkpt lat="43.824335" lon="12.6812867"><ele>83.0</ele><time>2026-04-04T16:23:51.687Z</time></trkpt><trkpt lat="43.8244117" lon="12.6812517"><ele>84.0</ele><time>2026-04-04T16:23:52.688Z</time></trkpt><trkpt lat="43.82449" lon="12.6812183"><ele>84.5</ele><time>2026-04-04T16:23:53.688Z</time></trkpt><trkpt lat="43.8245717" lon="12.6811867"><ele>85.0</ele><time>2026-04-04T16:23:54.689Z</time></trkpt><trkpt lat="43.8246483" lon="12.6811533"><ele>85.5</ele><time>2026-04-04T16:23:55.691Z</time></trkpt><trkpt lat="43.8247183" lon="12.681125"><ele>86.0</ele><time>2026-04-04T16:23:56.688Z</time></trkpt><trkpt lat="43.8247817" lon="12.6811033"><ele>86.5</ele><time>2026-04-04T16:23:57.69Z</time></trkpt><trkpt lat="43.8248433" lon="12.68108"><ele>87.0</ele><time>2026-04-04T16:23:58.688Z</time></trkpt><trkpt lat="43.8249383" lon="12.68104"><ele>87.16666666666667</ele><time>2026-04-04T16:24:00.688Z</time></trkpt><trkpt lat="43.8249917" lon="12.6809783"><ele>87.33333333333333</ele><time>2026-04-04T16:24:02.688Z</time></trkpt><trkpt lat="43.8249217" lon="12.6808883"><ele>87.5</ele><time>2026-04-04T16:24:05.692Z</time></trkpt><trkpt lat="43.8248567" lon="12.6808867"><ele>87.66666666666666</ele><time>2026-04-04T16:24:06.69Z</time></trkpt><trkpt lat="43.8247833" lon="12.6808933"><ele>87.83333333333333</ele><time>2026-04-04T16:24:07.69Z</time></trkpt><trkpt lat="43.8247067" lon="12.6808933"><ele>88.0</ele><time>2026-04-04T16:24:08.689Z</time></trkpt><trkpt lat="43.8245417" lon="12.6808783"><ele>88.0</ele><time>2026-04-04T16:24:10.689Z</time></trkpt><trkpt lat="43.8244533" lon="12.6808683"><ele>88.0</ele><time>2026-04-04T16:24:11.692Z</time></trkpt><trkpt lat="43.8243583" lon="12.680855"><ele>88.0</ele><time>2026-04-04T16:24:12.69Z</time></trkpt><trkpt lat="43.824265" lon="12.6808283"><ele>88.0</ele><time>2026-04-04T16:24:13.69Z</time></trkpt><trkpt lat="43.8241717" lon="12.68079"><ele>88.0</ele><time>2026-04-04T16:24:14.687Z</time></trkpt><trkpt lat="43.8240767" lon="12.6807417"><ele>87.60000000000001</ele><time>2026-04-04T16:24:15.688Z</time></trkpt><trkpt lat="43.823985" lon="12.6806867"><ele>87.2</ele><time>2026-04-04T16:24:16.688Z</time></trkpt><trkpt lat="43.8238883" lon="12.680625"><ele>86.8</ele><time>2026-04-04T16:24:17.688Z</time></trkpt><trkpt lat="43.8237883" lon="12.680555"><ele>86.4</ele><time>2026-04-04T16:24:18.69Z</time></trkpt><trkpt lat="43.8236883" lon="12.68047"><ele>86.0</ele><time>2026-04-04T16:24:19.689Z</time></trkpt><trkpt lat="43.8235867" lon="12.6803767"><ele>86.0</ele><time>2026-04-04T16:24:20.688Z</time></trkpt><trkpt lat="43.8234883" lon="12.680275"><ele>86.0</ele><time>2026-04-04T16:24:21.689Z</time></trkpt><trkpt lat="43.823395" lon="12.6801633"><ele>86.0</ele><time>2026-04-04T16:24:22.688Z</time></trkpt><trkpt lat="43.82331" lon="12.6800467"><ele>86.0</ele><time>2026-04-04T16:24:23.691Z</time></trkpt><trkpt lat="43.823235" lon="12.679925"><ele>86.19999999999999</ele><time>2026-04-04T16:24:24.69Z</time></trkpt><trkpt lat="43.8231683" lon="12.6798"><ele>86.39999999999999</ele><time>2026-04-04T16:24:25.69Z</time></trkpt><trkpt lat="43.82311" lon="12.6796683"><ele>86.6</ele><time>2026-04-04T16:24:26.69Z</time></trkpt><trkpt lat="43.8230533" lon="12.679535"><ele>86.8</ele><time>2026-04-04T16:24:27.688Z</time></trkpt><trkpt lat="43.8229967" lon="12.6794033"><ele>87.0</ele><time>2026-04-04T16:24:28.691Z</time></trkpt><trkpt lat="43.822945" lon="12.6792667"><ele>87.66666666666667</ele><time>2026-04-04T16:24:29.688Z</time></trkpt><trkpt lat="43.8228483" lon="12.678975"><ele>88.33333333333334</ele><time>2026-04-04T16:24:31.689Z</time></trkpt><trkpt lat="43.822805" lon="12.6788233"><ele>89.0</ele><time>2026-04-04T16:24:32.688Z</time></trkpt><trkpt lat="43.82276" lon="12.6786683"><ele>89.25</ele><time>2026-04-04T16:24:33.688Z</time></trkpt><trkpt lat="43.822715" lon="12.6785067"><ele>89.5</ele><time>2026-04-04T16:24:34.689Z</time></trkpt><trkpt lat="43.8226683" lon="12.6783433"><ele>89.75</ele><time>2026-04-04T16:24:35.69Z</time></trkpt><trkpt lat="43.8226233" lon="12.6781783"><ele>90.0</ele><time>2026-04-04T16:24:36.688Z</time></trkpt><trkpt lat="43.8225767" lon="12.6780117"><ele>90.0</ele><time>2026-04-04T16:24:37.688Z</time></trkpt><trkpt lat="43.8225283" lon="12.6778417"><ele>90.0</ele><time>2026-04-04T16:24:38.691Z</time></trkpt><trkpt lat="43.8224833" lon="12.6776667"><ele>90.0</ele><time>2026-04-04T16:24:39.688Z</time></trkpt><trkpt lat="43.8224383" lon="12.67749"><ele>90.0</ele><time>2026-04-04T16:24:40.689Z</time></trkpt><trkpt lat="43.8223917" lon="12.6773117"><ele>90.0</ele><time>2026-04-04T16:24:41.688Z</time></trkpt><trkpt lat="43.8223433" lon="12.6771317"><ele>90.0</ele><time>2026-04-04T16:24:42.689Z</time></trkpt><trkpt lat="43.8222917" lon="12.6769517"><ele>90.0</ele><time>2026-04-04T16:24:43.69Z</time></trkpt><trkpt lat="43.82224" lon="12.6767717"><ele>90.0</ele><time>2026-04-04T16:24:44.69Z</time></trkpt><trkpt lat="43.8221917" lon="12.676595"><ele>90.33333333333333</ele><time>2026-04-04T16:24:45.688Z</time></trkpt><trkpt lat="43.822145" lon="12.6764183"><ele>90.66666666666666</ele><time>2026-04-04T16:24:46.692Z</time></trkpt><trkpt lat="43.8220533" lon="12.6760667"><ele>91.0</ele><time>2026-04-04T16:24:48.689Z</time></trkpt><trkpt lat="43.822005" lon="12.6758883"><ele>91.66666666666666</ele><time>2026-04-04T16:24:49.691Z</time></trkpt><trkpt lat="43.8219583" lon="12.6757117"><ele>92.33333333333333</ele><time>2026-04-04T16:24:50.69Z</time></trkpt><trkpt lat="43.8218667" lon="12.6753717"><ele>93.0</ele><time>2026-04-04T16:24:52.69Z</time></trkpt><trkpt lat="43.8218233" lon="12.6752033"><ele>92.0</ele><time>2026-04-04T16:24:53.689Z</time></trkpt><trkpt lat="43.8217883" lon="12.6750367"><ele>91.0</ele><time>2026-04-04T16:24:54.69Z</time></trkpt><trkpt lat="43.821765" lon="12.6748683"><ele>90.0</ele><time>2026-04-04T16:24:55.692Z</time></trkpt><trkpt lat="43.821755" lon="12.6747033"><ele>89.0</ele><time>2026-04-04T16:24:56.686Z</time></trkpt><trkpt lat="43.8217483" lon="12.6745383"><ele>89.25</ele><time>2026-04-04T16:24:57.687Z</time></trkpt><trkpt lat="43.8217433" lon="12.6743683"><ele>89.5</ele><time>2026-04-04T16:24:58.69Z</time></trkpt><trkpt lat="43.8217383" lon="12.674195"><ele>89.75</ele><time>2026-04-04T16:24:59.688Z</time></trkpt><trkpt lat="43.82174" lon="12.67402"><ele>90.0</ele><time>2026-04-04T16:25:00.69Z</time></trkpt><trkpt lat="43.8217417" lon="12.67384"><ele>90.0</ele><time>2026-04-04T16:25:01.69Z</time></trkpt><trkpt lat="43.82174" lon="12.6736583"><ele>90.0</ele><time>2026-04-04T16:25:02.686Z</time></trkpt><trkpt lat="43.8217417" lon="12.673475"><ele>90.0</ele><time>2026-04-04T16:25:03.688Z</time></trkpt><trkpt lat="43.8217417" lon="12.67329"><ele>90.0</ele><time>2026-04-04T16:25:04.69Z</time></trkpt><trkpt lat="43.8217467" lon="12.673105"><ele>90.0</ele><time>2026-04-04T16:25:05.688Z</time></trkpt><trkpt lat="43.8217517" lon="12.6729167"><ele>90.0</ele><time>2026-04-04T16:25:06.689Z</time></trkpt><trkpt lat="43.8217517" lon="12.6727283"><ele>90.0</ele><time>2026-04-04T16:25:07.691Z</time></trkpt><trkpt lat="43.8217517" lon="12.67254"><ele>90.0</ele><time>2026-04-04T16:25:08.688Z</time></trkpt><trkpt lat="43.8217567" lon="12.6723533"><ele>89.66666666666667</ele><time>2026-04-04T16:25:09.688Z</time></trkpt><trkpt lat="43.8217617" lon="12.6721667"><ele>89.33333333333334</ele><time>2026-04-04T16:25:10.691Z</time></trkpt><trkpt lat="43.8217717" lon="12.671975"><ele>89.0</ele><time>2026-04-04T16:25:11.691Z</time></trkpt><trkpt lat="43.8218067" lon="12.6715867"><ele>89.5</ele><time>2026-04-04T16:25:13.69Z</time></trkpt><trkpt lat="43.82183" lon="12.671395"><ele>90.0</ele><time>2026-04-04T16:25:14.689Z</time></trkpt><trkpt lat="43.82186" lon="12.67121"><ele>90.5</ele><time>2026-04-04T16:25:15.688Z</time></trkpt><trkpt lat="43.8218883" lon="12.6710267"><ele>91.0</ele><time>2026-04-04T16:25:16.69Z</time></trkpt><trkpt lat="43.821915" lon="12.67084"><ele>92.0</ele><time>2026-04-04T16:25:17.688Z</time></trkpt><trkpt lat="43.8219433" lon="12.6706533"><ele>93.0</ele><time>2026-04-04T16:25:18.688Z</time></trkpt><trkpt lat="43.82197" lon="12.67048"><ele>94.0</ele><time>2026-04-04T16:25:19.69Z</time></trkpt><trkpt lat="43.8219967" lon="12.6703183"><ele>95.0</ele><time>2026-04-04T16:25:20.688Z</time></trkpt><trkpt lat="43.82202" lon="12.6701717"><ele>95.6</ele><time>2026-04-04T16:25:21.688Z</time></trkpt><trkpt lat="43.8220417" lon="12.6700367"><ele>96.2</ele><time>2026-04-04T16:25:22.69Z</time></trkpt><trkpt lat="43.822065" lon="12.6699067"><ele>96.80000000000001</ele><time>2026-04-04T16:25:23.691Z</time></trkpt><trkpt lat="43.822085" lon="12.669775"><ele>97.4</ele><time>2026-04-04T16:25:24.69Z</time></trkpt><trkpt lat="43.8221017" lon="12.6696367"><ele>98.0</ele><time>2026-04-04T16:25:25.691Z</time></trkpt><trkpt lat="43.8221133" lon="12.6694967"><ele>97.80000000000001</ele><time>2026-04-04T16:25:26.687Z</time></trkpt><trkpt lat="43.8221167" lon="12.6693533"><ele>97.6</ele><time>2026-04-04T16:25:27.69Z</time></trkpt><trkpt lat="43.82211" lon="12.66922"><ele>97.4</ele><time>2026-04-04T16:25:28.69Z</time></trkpt><trkpt lat="43.8221017" lon="12.6691017"><ele>97.19999999999999</ele><time>2026-04-04T16:25:29.691Z</time></trkpt><trkpt lat="43.8221033" lon="12.669"><ele>97.0</ele><time>2026-04-04T16:25:30.689Z</time></trkpt><trkpt lat="43.8221633" lon="12.6688683"><ele>97.0</ele><time>2026-04-04T16:25:32.69Z</time></trkpt><trkpt lat="43.8223" lon="12.6688167"><ele>97.0</ele><time>2026-04-04T16:25:34.69Z</time></trkpt><trkpt lat="43.8223867" lon="12.668825"><ele>97.0</ele><time>2026-04-04T16:25:35.691Z</time></trkpt><trkpt lat="43.8224733" lon="12.6688333"><ele>97.0</ele><time>2026-04-04T16:25:36.689Z</time></trkpt><trkpt lat="43.82256" lon="12.66883"><ele>97.0</ele><time>2026-04-04T16:25:37.69Z</time></trkpt><trkpt lat="43.8226533" lon="12.6688317"><ele>95.8</ele><time>2026-04-04T16:25:38.689Z</time></trkpt><trkpt lat="43.8227567" lon="12.6688383"><ele>94.6</ele><time>2026-04-04T16:25:39.688Z</time></trkpt><trkpt lat="43.8228683" lon="12.6688567"><ele>93.39999999999999</ele><time>2026-04-04T16:25:40.69Z</time></trkpt><trkpt lat="43.8229783" lon="12.6688767"><ele>92.19999999999999</ele><time>2026-04-04T16:25:41.69Z</time></trkpt><trkpt lat="43.8230867" lon="12.6688933"><ele>91.0</ele><time>2026-04-04T16:25:42.688Z</time></trkpt><trkpt lat="43.823195" lon="12.66891"><ele>91.0</ele><time>2026-04-04T16:25:43.691Z</time></trkpt><trkpt lat="43.8233083" lon="12.6689267"><ele>91.0</ele><time>2026-04-04T16:25:44.691Z</time></trkpt><trkpt lat="43.8234167" lon="12.6689433"><ele>91.0</ele><time>2026-04-04T16:25:45.689Z</time></trkpt><trkpt lat="43.8235217" lon="12.6689667"><ele>91.0</ele><time>2026-04-04T16:25:46.689Z</time></trkpt><trkpt lat="43.8236167" lon="12.66901"><ele>91.0</ele><time>2026-04-04T16:25:47.689Z</time></trkpt><trkpt lat="43.8237" lon="12.669075"><ele>91.19999999999999</ele><time>2026-04-04T16:25:48.688Z</time></trkpt><trkpt lat="43.8237733" lon="12.6691733"><ele>91.39999999999999</ele><time>2026-04-04T16:25:49.689Z</time></trkpt><trkpt lat="43.8238317" lon="12.66929"><ele>91.6</ele><time>2026-04-04T16:25:50.687Z</time></trkpt><trkpt lat="43.8238767" lon="12.669435"><ele>91.8</ele><time>2026-04-04T16:25:51.689Z</time></trkpt><trkpt lat="43.8239217" lon="12.6695867"><ele>92.0</ele><time>2026-04-04T16:25:52.687Z</time></trkpt><trkpt lat="43.8239667" lon="12.669725"><ele>91.5</ele><time>2026-04-04T16:25:53.69Z</time></trkpt><trkpt lat="43.8241017" lon="12.6699317"><ele>91.0</ele><time>2026-04-04T16:25:55.689Z</time></trkpt><trkpt lat="43.82419" lon="12.6699883"><ele>90.5</ele><time>2026-04-04T16:25:56.687Z</time></trkpt><trkpt lat="43.8242833" lon="12.6700067"><ele>90.0</ele><time>2026-04-04T16:25:57.688Z</time></trkpt><trkpt lat="43.8243767" lon="12.669995"><ele>93.2</ele><time>2026-04-04T16:25:58.69Z</time></trkpt><trkpt lat="43.8244683" lon="12.6699517"><ele>96.4</ele><time>2026-04-04T16:25:59.69Z</time></trkpt><trkpt lat="43.82454" lon="12.669895"><ele>99.6</ele><time>2026-04-04T16:26:00.689Z</time></trkpt><trkpt lat="43.8245917" lon="12.6698183"><ele>102.8</ele><time>2026-04-04T16:26:01.691Z</time></trkpt><trkpt lat="43.8246283" lon="12.6696817"><ele>106.0</ele><time>2026-04-04T16:26:03.688Z</time></trkpt><trkpt lat="43.8246583" lon="12.6695567"><ele>106.4</ele><time>2026-04-04T16:26:06.689Z</time></trkpt><trkpt lat="43.8246817" lon="12.669425"><ele>106.8</ele><time>2026-04-04T16:26:08.687Z</time></trkpt><trkpt lat="43.824705" lon="12.6692617"><ele>107.20000000000002</ele><time>2026-04-04T16:26:10.688Z</time></trkpt><trkpt lat="43.8247317" lon="12.6690783"><ele>107.60000000000001</ele><time>2026-04-04T16:26:12.688Z</time></trkpt><trkpt lat="43.8247483" lon="12.668975"><ele>108.0</ele><time>2026-04-04T16:26:13.689Z</time></trkpt><trkpt lat="43.8247683" lon="12.6688633"><ele>108.0</ele><time>2026-04-04T16:26:14.688Z</time></trkpt><trkpt lat="43.8248333" lon="12.6686233"><ele>108.0</ele><time>2026-04-04T16:26:16.69Z</time></trkpt><trkpt lat="43.82489" lon="12.668495"><ele>108.0</ele><time>2026-04-04T16:26:17.689Z</time></trkpt><trkpt lat="43.8249583" lon="12.66837"><ele>108.0</ele><time>2026-04-04T16:26:18.686Z</time></trkpt><trkpt lat="43.82503" lon="12.6682467"><ele>107.25</ele><time>2026-04-04T16:26:19.688Z</time></trkpt><trkpt lat="43.8251117" lon="12.6681267"><ele>106.5</ele><time>2026-04-04T16:26:20.688Z</time></trkpt><trkpt lat="43.8252" lon="12.66802"><ele>105.75</ele><time>2026-04-04T16:26:21.688Z</time></trkpt><trkpt lat="43.8253" lon="12.6679167"><ele>105.0</ele><time>2026-04-04T16:26:22.688Z</time></trkpt><trkpt lat="43.8254067" lon="12.6678167"><ele>107.75</ele><time>2026-04-04T16:26:23.689Z</time></trkpt><trkpt lat="43.8255117" lon="12.6677183"><ele>110.5</ele><time>2026-04-04T16:26:24.689Z</time></trkpt><trkpt lat="43.8256083" lon="12.66762"><ele>113.25</ele><time>2026-04-04T16:26:25.689Z</time></trkpt><trkpt lat="43.8256983" lon="12.6674983"><ele>116.0</ele><time>2026-04-04T16:26:26.69Z</time></trkpt><trkpt lat="43.825785" lon="12.667355"><ele>116.0</ele><time>2026-04-04T16:26:27.689Z</time></trkpt><trkpt lat="43.8258617" lon="12.6672067"><ele>116.0</ele><time>2026-04-04T16:26:28.687Z</time></trkpt><trkpt lat="43.825925" lon="12.6670633"><ele>116.0</ele><time>2026-04-04T16:26:29.691Z</time></trkpt><trkpt lat="43.8259817" lon="12.6669433"><ele>116.0</ele><time>2026-04-04T16:26:30.688Z</time></trkpt><trkpt lat="43.82604" lon="12.666845"><ele>116.0</ele><time>2026-04-04T16:26:31.69Z</time></trkpt><trkpt lat="43.8260967" lon="12.6667617"><ele>117.4</ele><time>2026-04-04T16:26:32.69Z</time></trkpt><trkpt lat="43.8261567" lon="12.6666867"><ele>118.8</ele><time>2026-04-04T16:26:33.691Z</time></trkpt><trkpt lat="43.826225" lon="12.6666333"><ele>120.20000000000002</ele><time>2026-04-04T16:26:34.689Z</time></trkpt><trkpt lat="43.8263017" lon="12.6665933"><ele>121.60000000000001</ele><time>2026-04-04T16:26:35.687Z</time></trkpt><trkpt lat="43.8264633" lon="12.6665683"><ele>123.0</ele><time>2026-04-04T16:26:37.691Z</time></trkpt><trkpt lat="43.8265517" lon="12.6666"><ele>123.0</ele><time>2026-04-04T16:26:38.687Z</time></trkpt><trkpt lat="43.8266367" lon="12.66667"><ele>123.0</ele><time>2026-04-04T16:26:39.689Z</time></trkpt><trkpt lat="43.8267517" lon="12.66676"><ele>123.0</ele><time>2026-04-04T16:26:40.69Z</time></trkpt><trkpt lat="43.8268717" lon="12.6668417"><ele>123.0</ele><time>2026-04-04T16:26:41.689Z</time></trkpt><trkpt lat="43.8269967" lon="12.6669"><ele>125.4</ele><time>2026-04-04T16:26:42.688Z</time></trkpt><trkpt lat="43.82712" lon="12.6669433"><ele>127.80000000000001</ele><time>2026-04-04T16:26:43.688Z</time></trkpt><trkpt lat="43.8272367" lon="12.66698"><ele>130.2</ele><time>2026-04-04T16:26:44.689Z</time></trkpt><trkpt lat="43.82734" lon="12.666995"><ele>132.6</ele><time>2026-04-04T16:26:45.689Z</time></trkpt><trkpt lat="43.827425" lon="12.6669733"><ele>135.0</ele><time>2026-04-04T16:26:46.688Z</time></trkpt><trkpt lat="43.82749" lon="12.6669217"><ele>135.0</ele><time>2026-04-04T16:26:47.689Z</time></trkpt><trkpt lat="43.8275433" lon="12.6668417"><ele>135.0</ele><time>2026-04-04T16:26:48.691Z</time></trkpt><trkpt lat="43.827575" lon="12.6667383"><ele>135.0</ele><time>2026-04-04T16:26:49.687Z</time></trkpt><trkpt lat="43.8275883" lon="12.6666133"><ele>135.0</ele><time>2026-04-04T16:26:50.69Z</time></trkpt><trkpt lat="43.8275783" lon="12.66647"><ele>135.0</ele><time>2026-04-04T16:26:51.687Z</time></trkpt><trkpt lat="43.82754" lon="12.6663233"><ele>135.0</ele><time>2026-04-04T16:26:52.689Z</time></trkpt><trkpt lat="43.8274533" lon="12.6661883"><ele>135.0</ele><time>2026-04-04T16:26:53.69Z</time></trkpt><trkpt lat="43.8273767" lon="12.66604"><ele>135.0</ele><time>2026-04-04T16:26:54.688Z</time></trkpt><trkpt lat="43.8273433" lon="12.665905"><ele>135.0</ele><time>2026-04-04T16:26:55.69Z</time></trkpt><trkpt lat="43.827335" lon="12.6657767"><ele>135.25</ele><time>2026-04-04T16:26:56.69Z</time></trkpt><trkpt lat="43.8274333" lon="12.6655317"><ele>135.5</ele><time>2026-04-04T16:26:58.69Z</time></trkpt><trkpt lat="43.82753" lon="12.6654533"><ele>135.75</ele><time>2026-04-04T16:26:59.687Z</time></trkpt><trkpt lat="43.8276417" lon="12.6653867"><ele>136.0</ele><time>2026-04-04T16:27:00.688Z</time></trkpt><trkpt lat="43.8277683" lon="12.6653467"><ele>137.0</ele><time>2026-04-04T16:27:01.69Z</time></trkpt><trkpt lat="43.8279" lon="12.665295"><ele>138.0</ele><time>2026-04-04T16:27:02.689Z</time></trkpt><trkpt lat="43.8280333" lon="12.6652333"><ele>139.0</ele><time>2026-04-04T16:27:03.688Z</time></trkpt><trkpt lat="43.828165" lon="12.665145"><ele>140.0</ele><time>2026-04-04T16:27:04.688Z</time></trkpt><trkpt lat="43.8282967" lon="12.6650517"><ele>140.0</ele><time>2026-04-04T16:27:05.692Z</time></trkpt><trkpt lat="43.8284283" lon="12.6649617"><ele>140.0</ele><time>2026-04-04T16:27:06.689Z</time></trkpt><trkpt lat="43.8285517" lon="12.66487"><ele>140.0</ele><time>2026-04-04T16:27:07.689Z</time></trkpt><trkpt lat="43.8286667" lon="12.6647617"><ele>140.0</ele><time>2026-04-04T16:27:08.689Z</time></trkpt><trkpt lat="43.8287667" lon="12.6646233"><ele>142.75</ele><time>2026-04-04T16:27:09.689Z</time></trkpt><trkpt lat="43.8288517" lon="12.664465"><ele>145.5</ele><time>2026-04-04T16:27:10.691Z</time></trkpt><trkpt lat="43.8289333" lon="12.66431"><ele>148.25</ele><time>2026-04-04T16:27:11.687Z</time></trkpt><trkpt lat="43.829025" lon="12.6641817"><ele>151.0</ele><time>2026-04-04T16:27:12.688Z</time></trkpt><trkpt lat="43.829125" lon="12.6640667"><ele>151.0</ele><time>2026-04-04T16:27:13.688Z</time></trkpt><trkpt lat="43.8292167" lon="12.6639517"><ele>151.0</ele><time>2026-04-04T16:27:14.688Z</time></trkpt><trkpt lat="43.8292783" lon="12.6638267"><ele>151.0</ele><time>2026-04-04T16:27:15.691Z</time></trkpt><trkpt lat="43.8292967" lon="12.66369"><ele>151.0</ele><time>2026-04-04T16:27:16.687Z</time></trkpt><trkpt lat="43.829285" lon="12.6635417"><ele>151.0</ele><time>2026-04-04T16:27:17.69Z</time></trkpt><trkpt lat="43.8292133" lon="12.6632417"><ele>150.66666666666669</ele><time>2026-04-04T16:27:19.688Z</time></trkpt><trkpt lat="43.8291883" lon="12.6630983"><ele>150.33333333333334</ele><time>2026-04-04T16:27:20.688Z</time></trkpt><trkpt lat="43.82918" lon="12.6629717"><ele>150.0</ele><time>2026-04-04T16:27:21.688Z</time></trkpt><trkpt lat="43.8292067" lon="12.6628717"><ele>149.66666666666666</ele><time>2026-04-04T16:27:22.69Z</time></trkpt><trkpt lat="43.8292617" lon="12.662785"><ele>149.33333333333331</ele><time>2026-04-04T16:27:23.687Z</time></trkpt><trkpt lat="43.82933" lon="12.66274"><ele>149.0</ele><time>2026-04-04T16:27:24.688Z</time></trkpt><trkpt lat="43.8294" lon="12.662755"><ele>150.0</ele><time>2026-04-04T16:27:25.689Z</time></trkpt><trkpt lat="43.8295183" lon="12.6628217"><ele>151.0</ele><time>2026-04-04T16:27:27.688Z</time></trkpt><trkpt lat="43.82958" lon="12.662985"><ele>152.0</ele><time>2026-04-04T16:27:28.69Z</time></trkpt><trkpt lat="43.8296583" lon="12.6631467"><ele>153.0</ele><time>2026-04-04T16:27:29.689Z</time></trkpt><trkpt lat="43.8297417" lon="12.6633017"><ele>153.0</ele><time>2026-04-04T16:27:30.689Z</time></trkpt><trkpt lat="43.8298267" lon="12.663465"><ele>153.0</ele><time>2026-04-04T16:27:31.69Z</time></trkpt><trkpt lat="43.8299083" lon="12.663595"><ele>153.0</ele><time>2026-04-04T16:27:32.689Z</time></trkpt><trkpt lat="43.8299767" lon="12.6637333"><ele>153.0</ele><time>2026-04-04T16:27:33.69Z</time></trkpt><trkpt lat="43.8300267" lon="12.66388"><ele>156.25</ele><time>2026-04-04T16:27:34.691Z</time></trkpt><trkpt lat="43.8300683" lon="12.6640533"><ele>159.5</ele><time>2026-04-04T16:27:35.689Z</time></trkpt><trkpt lat="43.8300983" lon="12.6642117"><ele>162.75</ele><time>2026-04-04T16:27:36.689Z</time></trkpt><trkpt lat="43.8301117" lon="12.664355"><ele>166.0</ele><time>2026-04-04T16:27:37.689Z</time></trkpt><trkpt lat="43.8301033" lon="12.664505"><ele>169.0</ele><time>2026-04-04T16:27:38.688Z</time></trkpt><trkpt lat="43.830025" lon="12.6647883"><ele>172.0</ele><time>2026-04-04T16:27:40.688Z</time></trkpt><trkpt lat="43.829955" lon="12.664915"><ele>175.0</ele><time>2026-04-04T16:27:41.689Z</time></trkpt><trkpt lat="43.829865" lon="12.66504"><ele>175.0</ele><time>2026-04-04T16:27:42.688Z</time></trkpt><trkpt lat="43.8297633" lon="12.665185"><ele>175.0</ele><time>2026-04-04T16:27:43.689Z</time></trkpt><trkpt lat="43.8296717" lon="12.6653383"><ele>175.0</ele><time>2026-04-04T16:27:44.689Z</time></trkpt><trkpt lat="43.8295833" lon="12.6655"><ele>175.0</ele><time>2026-04-04T16:27:45.689Z</time></trkpt><trkpt lat="43.8295" lon="12.6656717"><ele>174.75</ele><time>2026-04-04T16:27:46.687Z</time></trkpt><trkpt lat="43.8294117" lon="12.665845"><ele>174.5</ele><time>2026-04-04T16:27:47.689Z</time></trkpt><trkpt lat="43.829305" lon="12.6659867"><ele>174.25</ele><time>2026-04-04T16:27:48.688Z</time></trkpt><trkpt lat="43.829205" lon="12.66611"><ele>174.0</ele><time>2026-04-04T16:27:49.689Z</time></trkpt><trkpt lat="43.8291067" lon="12.6661983"><ele>174.39999999999998</ele><time>2026-04-04T16:27:50.689Z</time></trkpt><trkpt lat="43.8290283" lon="12.6662733"><ele>174.8</ele><time>2026-04-04T16:27:51.687Z</time></trkpt><trkpt lat="43.828975" lon="12.6663517"><ele>175.2</ele><time>2026-04-04T16:27:52.687Z</time></trkpt><trkpt lat="43.828955" lon="12.66647"><ele>175.60000000000002</ele><time>2026-04-04T16:27:54.689Z</time></trkpt><trkpt lat="43.8290783" lon="12.6664783"><ele>176.0</ele><time>2026-04-04T16:27:56.688Z</time></trkpt><trkpt lat="43.8291467" lon="12.6664717"><ele>176.0</ele><time>2026-04-04T16:27:57.687Z</time></trkpt><trkpt lat="43.829295" lon="12.6663467"><ele>176.0</ele><time>2026-04-04T16:27:58.688Z</time></trkpt><trkpt lat="43.8294217" lon="12.66623"><ele>176.0</ele><time>2026-04-04T16:27:59.69Z</time></trkpt><trkpt lat="43.8296783" lon="12.6659933"><ele>180.0</ele><time>2026-04-04T16:28:01.69Z</time></trkpt><trkpt lat="43.8297967" lon="12.6659"><ele>184.0</ele><time>2026-04-04T16:28:02.689Z</time></trkpt><trkpt lat="43.8299067" lon="12.6658183"><ele>188.0</ele><time>2026-04-04T16:28:03.687Z</time></trkpt><trkpt lat="43.8300217" lon="12.6657567"><ele>192.0</ele><time>2026-04-04T16:28:04.689Z</time></trkpt><trkpt lat="43.830135" lon="12.665735"><ele>191.0</ele><time>2026-04-04T16:28:05.69Z</time></trkpt><trkpt lat="43.8302367" lon="12.6657633"><ele>190.0</ele><time>2026-04-04T16:28:06.69Z</time></trkpt><trkpt lat="43.8303333" lon="12.6658367"><ele>189.0</ele><time>2026-04-04T16:28:07.688Z</time></trkpt><trkpt lat="43.8304217" lon="12.6659483"><ele>188.0</ele><time>2026-04-04T16:28:08.69Z</time></trkpt><trkpt lat="43.8305167" lon="12.6660733"><ele>189.60000000000002</ele><time>2026-04-04T16:28:09.69Z</time></trkpt><trkpt lat="43.830615" lon="12.6661667"><ele>191.20000000000002</ele><time>2026-04-04T16:28:10.689Z</time></trkpt><trkpt lat="43.830715" lon="12.6662317"><ele>192.8</ele><time>2026-04-04T16:28:11.689Z</time></trkpt><trkpt lat="43.8308067" lon="12.666265"><ele>194.4</ele><time>2026-04-04T16:28:12.687Z</time></trkpt><trkpt lat="43.83091" lon="12.6662767"><ele>196.0</ele><time>2026-04-04T16:28:13.689Z</time></trkpt><trkpt lat="43.83102" lon="12.6662583"><ele>196.0</ele><time>2026-04-04T16:28:14.687Z</time></trkpt><trkpt lat="43.8311317" lon="12.6662483"><ele>196.0</ele><time>2026-04-04T16:28:15.689Z</time></trkpt><trkpt lat="43.83124" lon="12.666255"><ele>196.0</ele><time>2026-04-04T16:28:16.69Z</time></trkpt><trkpt lat="43.8313317" lon="12.6663083"><ele>196.0</ele><time>2026-04-04T16:28:17.687Z</time></trkpt><trkpt lat="43.8314" lon="12.6664083"><ele>196.0</ele><time>2026-04-04T16:28:18.687Z</time></trkpt><trkpt lat="43.831445" lon="12.6665533"><ele>196.0</ele><time>2026-04-04T16:28:19.688Z</time></trkpt><trkpt lat="43.8314733" lon="12.666725"><ele>196.0</ele><time>2026-04-04T16:28:20.689Z</time></trkpt><trkpt lat="43.8316117" lon="12.6671517"><ele>195.16666666666666</ele><time>2026-04-04T16:28:23.689Z</time></trkpt><trkpt lat="43.8316567" lon="12.6672233"><ele>194.33333333333331</ele><time>2026-04-04T16:28:24.689Z</time></trkpt><trkpt lat="43.8317167" lon="12.66729"><ele>193.5</ele><time>2026-04-04T16:29:45.688Z</time></trkpt><trkpt lat="43.8318283" lon="12.667405"><ele>192.66666666666666</ele><time>2026-04-04T16:29:47.689Z</time></trkpt><trkpt lat="43.831875" lon="12.667495"><ele>191.83333333333331</ele><time>2026-04-04T16:29:48.688Z</time></trkpt><trkpt lat="43.8319033" lon="12.6676033"><ele>191.0</ele><time>2026-04-04T16:29:49.69Z</time></trkpt><trkpt lat="43.831905" lon="12.66774"><ele>193.4</ele><time>2026-04-04T16:29:50.69Z</time></trkpt><trkpt lat="43.8318883" lon="12.667885"><ele>195.8</ele><time>2026-04-04T16:29:51.688Z</time></trkpt><trkpt lat="43.8318633" lon="12.6680183"><ele>198.20000000000002</ele><time>2026-04-04T16:29:52.689Z</time></trkpt><trkpt lat="43.831835" lon="12.6681533"><ele>200.60000000000002</ele><time>2026-04-04T16:29:53.69Z</time></trkpt><trkpt lat="43.8318117" lon="12.6682917"><ele>203.0</ele><time>2026-04-04T16:29:54.689Z</time></trkpt><trkpt lat="43.8318033" lon="12.6684333"><ele>203.0</ele><time>2026-04-04T16:29:55.691Z</time></trkpt><trkpt lat="43.8318117" lon="12.6685783"><ele>203.0</ele><time>2026-04-04T16:29:56.69Z</time></trkpt><trkpt lat="43.83184" lon="12.6687217"><ele>203.0</ele><time>2026-04-04T16:29:57.688Z</time></trkpt><trkpt lat="43.8318883" lon="12.66885"><ele>203.0</ele><time>2026-04-04T16:29:58.688Z</time></trkpt><trkpt lat="43.8319567" lon="12.6689717"><ele>203.0</ele><time>2026-04-04T16:29:59.69Z</time></trkpt><trkpt lat="43.832045" lon="12.6690833"><ele>206.75</ele><time>2026-04-04T16:30:00.689Z</time></trkpt><trkpt lat="43.83214" lon="12.6691967"><ele>210.5</ele><time>2026-04-04T16:30:01.689Z</time></trkpt><trkpt lat="43.8322333" lon="12.6693133"><ele>214.25</ele><time>2026-04-04T16:30:02.688Z</time></trkpt><trkpt lat="43.8323183" lon="12.66943"><ele>218.0</ele><time>2026-04-04T16:30:03.689Z</time></trkpt><trkpt lat="43.8324017" lon="12.66955"><ele>220.75</ele><time>2026-04-04T16:30:04.687Z</time></trkpt><trkpt lat="43.832475" lon="12.66965"><ele>223.5</ele><time>2026-04-04T16:30:05.69Z</time></trkpt><trkpt lat="43.83255" lon="12.669735"><ele>226.25</ele><time>2026-04-04T16:30:06.687Z</time></trkpt><trkpt lat="43.832735" lon="12.6698317"><ele>229.0</ele><time>2026-04-04T16:30:08.688Z</time></trkpt><trkpt lat="43.83284" lon="12.6698367"><ele>229.2</ele><time>2026-04-04T16:30:09.688Z</time></trkpt><trkpt lat="43.832945" lon="12.6698233"><ele>229.39999999999998</ele><time>2026-04-04T16:30:10.691Z</time></trkpt><trkpt lat="43.8330483" lon="12.6698083"><ele>229.6</ele><time>2026-04-04T16:30:11.689Z</time></trkpt><trkpt lat="43.8331533" lon="12.6697917"><ele>229.8</ele><time>2026-04-04T16:30:12.689Z</time></trkpt><trkpt lat="43.8332583" lon="12.6697833"><ele>230.0</ele><time>2026-04-04T16:30:13.689Z</time></trkpt><trkpt lat="43.8333617" lon="12.66978"><ele>230.00000000000003</ele><time>2026-04-04T16:30:14.689Z</time></trkpt><trkpt lat="43.8334667" lon="12.6697833"><ele>230.0</ele><time>2026-04-04T16:30:15.69Z</time></trkpt><trkpt lat="43.8335683" lon="12.6697967"><ele>230.0</ele><time>2026-04-04T16:30:16.69Z</time></trkpt><trkpt lat="43.8336567" lon="12.6698083"><ele>230.0</ele><time>2026-04-04T16:30:17.69Z</time></trkpt><trkpt lat="43.8337317" lon="12.6698283"><ele>230.00000000000003</ele><time>2026-04-04T16:30:18.689Z</time></trkpt><trkpt lat="43.8337983" lon="12.6698517"><ele>230.0</ele><time>2026-04-04T16:30:19.69Z</time></trkpt><trkpt lat="43.8338683" lon="12.6698717"><ele>230.66666666666669</ele><time>2026-04-04T16:30:20.689Z</time></trkpt><trkpt lat="43.8339433" lon="12.6698917"><ele>231.33333333333334</ele><time>2026-04-04T16:30:21.69Z</time></trkpt><trkpt lat="43.8340217" lon="12.6699167"><ele>232.0</ele><time>2026-04-04T16:30:22.69Z</time></trkpt><trkpt lat="43.8341" lon="12.66994"><ele>232.66666666666669</ele><time>2026-04-04T16:30:23.685Z</time></trkpt><trkpt lat="43.83418" lon="12.669965"><ele>233.33333333333334</ele><time>2026-04-04T16:30:24.69Z</time></trkpt><trkpt lat="43.8342633" lon="12.6699867"><ele>234.0</ele><time>2026-04-04T16:30:25.69Z</time></trkpt><trkpt lat="43.834345" lon="12.6700083"><ele>236.0</ele><time>2026-04-04T16:30:26.687Z</time></trkpt><trkpt lat="43.8344283" lon="12.6700133"><ele>238.0</ele><time>2026-04-04T16:30:27.689Z</time></trkpt><trkpt lat="43.8345967" lon="12.6699567"><ele>240.0</ele><time>2026-04-04T16:30:29.688Z</time></trkpt><trkpt lat="43.8346817" lon="12.66989"><ele>242.0</ele><time>2026-04-04T16:30:30.691Z</time></trkpt><trkpt lat="43.834765" lon="12.6698183"><ele>242.0</ele><time>2026-04-04T16:30:31.69Z</time></trkpt><trkpt lat="43.834855" lon="12.6697583"><ele>242.0</ele><time>2026-04-04T16:30:32.688Z</time></trkpt><trkpt lat="43.8349533" lon="12.6697267"><ele>242.0</ele><time>2026-04-04T16:30:33.689Z</time></trkpt><trkpt lat="43.835055" lon="12.669725"><ele>242.0</ele><time>2026-04-04T16:30:34.69Z</time></trkpt><trkpt lat="43.8351583" lon="12.669765"><ele>242.0</ele><time>2026-04-04T16:30:35.688Z</time></trkpt><trkpt lat="43.83526" lon="12.66983"><ele>242.39999999999998</ele><time>2026-04-04T16:30:36.689Z</time></trkpt><trkpt lat="43.835355" lon="12.6699117"><ele>242.79999999999998</ele><time>2026-04-04T16:30:37.691Z</time></trkpt><trkpt lat="43.8354467" lon="12.6700033"><ele>243.2</ele><time>2026-04-04T16:30:38.688Z</time></trkpt><trkpt lat="43.835535" lon="12.6700983"><ele>243.6</ele><time>2026-04-04T16:30:39.688Z</time></trkpt><trkpt lat="43.8356217" lon="12.6701983"><ele>244.0</ele><time>2026-04-04T16:30:40.693Z</time></trkpt><trkpt lat="43.8357117" lon="12.67029"><ele>245.0</ele><time>2026-04-04T16:30:41.689Z</time></trkpt><trkpt lat="43.8358017" lon="12.6703717"><ele>245.99999999999997</ele><time>2026-04-04T16:30:42.69Z</time></trkpt><trkpt lat="43.835895" lon="12.6704333"><ele>246.99999999999997</ele><time>2026-04-04T16:30:43.691Z</time></trkpt><trkpt lat="43.8359883" lon="12.6704617"><ele>248.0</ele><time>2026-04-04T16:30:44.687Z</time></trkpt><trkpt lat="43.83609" lon="12.6704633"><ele>249.0</ele><time>2026-04-04T16:30:45.689Z</time></trkpt><trkpt lat="43.836195" lon="12.6704417"><ele>252.66666666666669</ele><time>2026-04-04T16:30:46.691Z</time></trkpt><trkpt lat="43.836305" lon="12.6704033"><ele>256.33333333333337</ele><time>2026-04-04T16:30:47.689Z</time></trkpt><trkpt lat="43.8364133" lon="12.6703667"><ele>260.0</ele><time>2026-04-04T16:30:48.69Z</time></trkpt><trkpt lat="43.83664" lon="12.6703533"><ele>260.0</ele><time>2026-04-04T16:30:50.689Z</time></trkpt><trkpt lat="43.8367533" lon="12.67038"><ele>260.0</ele><time>2026-04-04T16:30:51.689Z</time></trkpt><trkpt lat="43.8368633" lon="12.670405"><ele>260.0</ele><time>2026-04-04T16:30:52.69Z</time></trkpt><trkpt lat="43.836965" lon="12.6704133"><ele>260.0</ele><time>2026-04-04T16:30:53.69Z</time></trkpt><trkpt lat="43.8370683" lon="12.6703933"><ele>260.0</ele><time>2026-04-04T16:30:54.69Z</time></trkpt><trkpt lat="43.8371667" lon="12.67034"><ele>260.6666666666667</ele><time>2026-04-04T16:30:55.69Z</time></trkpt><trkpt lat="43.8372583" lon="12.6702483"><ele>261.3333333333333</ele><time>2026-04-04T16:30:56.689Z</time></trkpt><trkpt lat="43.83734" lon="12.670135"><ele>262.0</ele><time>2026-04-04T16:30:57.689Z</time></trkpt><trkpt lat="43.8374983" lon="12.6698733"><ele>262.0</ele><time>2026-04-04T16:30:59.688Z</time></trkpt><trkpt lat="43.83758" lon="12.6697383"><ele>262.0</ele><time>2026-04-04T16:31:00.69Z</time></trkpt><trkpt lat="43.837665" lon="12.6696033"><ele>262.0</ele><time>2026-04-04T16:31:01.69Z</time></trkpt><trkpt lat="43.8377583" lon="12.6694633"><ele>262.0</ele><time>2026-04-04T16:31:02.688Z</time></trkpt><trkpt lat="43.8378583" lon="12.6693233"><ele>265.5</ele><time>2026-04-04T16:31:03.689Z</time></trkpt><trkpt lat="43.8379633" lon="12.66918"><ele>269.0</ele><time>2026-04-04T16:31:04.689Z</time></trkpt><trkpt lat="43.838065" lon="12.66903"><ele>272.5</ele><time>2026-04-04T16:31:05.688Z</time></trkpt><trkpt lat="43.8381617" lon="12.6688767"><ele>276.0</ele><time>2026-04-04T16:31:06.689Z</time></trkpt><trkpt lat="43.8382533" lon="12.6687183"><ele>276.6666666666667</ele><time>2026-04-04T16:31:07.689Z</time></trkpt><trkpt lat="43.838335" lon="12.6685683"><ele>277.33333333333337</ele><time>2026-04-04T16:31:08.687Z</time></trkpt><trkpt lat="43.83847" lon="12.6683033"><ele>278.0</ele><time>2026-04-04T16:31:10.689Z</time></trkpt><trkpt lat="43.8385333" lon="12.668185"><ele>278.0</ele><time>2026-04-04T16:31:11.689Z</time></trkpt><trkpt lat="43.8386083" lon="12.6681033"><ele>278.0</ele><time>2026-04-04T16:31:12.69Z</time></trkpt><trkpt lat="43.8386933" lon="12.6680633"><ele>278.0</ele><time>2026-04-04T16:31:13.691Z</time></trkpt><trkpt lat="43.838795" lon="12.6680583"><ele>278.0</ele><time>2026-04-04T16:31:14.688Z</time></trkpt><trkpt lat="43.8389033" lon="12.6680867"><ele>278.0</ele><time>2026-04-04T16:31:15.69Z</time></trkpt><trkpt lat="43.8390233" lon="12.6681283"><ele>278.0</ele><time>2026-04-04T16:31:16.689Z</time></trkpt><trkpt lat="43.8391517" lon="12.6681783"><ele>278.0</ele><time>2026-04-04T16:31:17.689Z</time></trkpt><trkpt lat="43.83929" lon="12.6682217"><ele>278.0</ele><time>2026-04-04T16:31:18.69Z</time></trkpt><trkpt lat="43.83943" lon="12.6682683"><ele>278.0</ele><time>2026-04-04T16:31:19.689Z</time></trkpt><trkpt lat="43.8395733" lon="12.66831"><ele>278.5</ele><time>2026-04-04T16:31:20.689Z</time></trkpt><trkpt lat="43.839715" lon="12.66836"><ele>279.0</ele><time>2026-04-04T16:31:21.689Z</time></trkpt><trkpt lat="43.8398567" lon="12.6684083"><ele>279.5</ele><time>2026-04-04T16:31:22.688Z</time></trkpt><trkpt lat="43.839995" lon="12.6684567"><ele>280.0</ele><time>2026-04-04T16:31:23.694Z</time></trkpt><trkpt lat="43.8401383" lon="12.668475"><ele>281.25</ele><time>2026-04-04T16:31:24.688Z</time></trkpt><trkpt lat="43.8402817" lon="12.6684483"><ele>282.5</ele><time>2026-04-04T16:31:25.69Z</time></trkpt><trkpt lat="43.8404217" lon="12.6683983"><ele>283.75</ele><time>2026-04-04T16:31:26.689Z</time></trkpt><trkpt lat="43.8405617" lon="12.6683467"><ele>285.0</ele><time>2026-04-04T16:31:27.687Z</time></trkpt><trkpt lat="43.8407117" lon="12.6683183"><ele>285.0</ele><time>2026-04-04T16:31:28.688Z</time></trkpt><trkpt lat="43.8408567" lon="12.6682967"><ele>285.0</ele><time>2026-04-04T16:31:29.689Z</time></trkpt><trkpt lat="43.8411383" lon="12.6681933"><ele>285.0</ele><time>2026-04-04T16:31:31.688Z</time></trkpt><trkpt lat="43.84127" lon="12.66811"><ele>286.0</ele><time>2026-04-04T16:31:32.692Z</time></trkpt><trkpt lat="43.8413933" lon="12.6680067"><ele>287.0</ele><time>2026-04-04T16:31:33.687Z</time></trkpt><trkpt lat="43.8415083" lon="12.667885"><ele>288.0</ele><time>2026-04-04T16:31:34.689Z</time></trkpt><trkpt lat="43.84161" lon="12.6677517"><ele>289.0</ele><time>2026-04-04T16:31:35.689Z</time></trkpt><trkpt lat="43.8416983" lon="12.6676017"><ele>289.0</ele><time>2026-04-04T16:31:36.69Z</time></trkpt><trkpt lat="43.84177" lon="12.667455"><ele>289.0</ele><time>2026-04-04T16:31:37.69Z</time></trkpt><trkpt lat="43.8418467" lon="12.66733"><ele>289.0</ele><time>2026-04-04T16:31:38.687Z</time></trkpt><trkpt lat="43.84194" lon="12.6672383"><ele>289.0</ele><time>2026-04-04T16:31:39.688Z</time></trkpt><trkpt lat="43.84205" lon="12.6671733"><ele>293.25</ele><time>2026-04-04T16:31:40.689Z</time></trkpt><trkpt lat="43.8421717" lon="12.6671367"><ele>297.5</ele><time>2026-04-04T16:31:41.689Z</time></trkpt><trkpt lat="43.8423017" lon="12.6671317"><ele>301.75</ele><time>2026-04-04T16:31:42.688Z</time></trkpt><trkpt lat="43.84244" lon="12.6671533"><ele>306.0</ele><time>2026-04-04T16:31:43.69Z</time></trkpt><trkpt lat="43.842575" lon="12.6671883"><ele>308.5</ele><time>2026-04-04T16:31:44.688Z</time></trkpt><trkpt lat="43.8427033" lon="12.66723"><ele>311.0</ele><time>2026-04-04T16:31:45.69Z</time></trkpt><trkpt lat="43.842825" lon="12.667245"><ele>313.5</ele><time>2026-04-04T16:31:46.686Z</time></trkpt><trkpt lat="43.84294" lon="12.6672217"><ele>316.0</ele><time>2026-04-04T16:31:47.69Z</time></trkpt><trkpt lat="43.84305" lon="12.66717"><ele>316.0</ele><time>2026-04-04T16:31:48.687Z</time></trkpt><trkpt lat="43.84315" lon="12.66708"><ele>316.0</ele><time>2026-04-04T16:31:49.69Z</time></trkpt><trkpt lat="43.8432317" lon="12.6669483"><ele>316.0</ele><time>2026-04-04T16:31:50.687Z</time></trkpt><trkpt lat="43.8433583" lon="12.6666333"><ele>318.5</ele><time>2026-04-04T16:31:52.688Z</time></trkpt><trkpt lat="43.8434217" lon="12.6664933"><ele>321.0</ele><time>2026-04-04T16:31:53.689Z</time></trkpt><trkpt lat="43.843505" lon="12.66638"><ele>323.5</ele><time>2026-04-04T16:31:54.687Z</time></trkpt><trkpt lat="43.8436083" lon="12.6662983"><ele>326.0</ele><time>2026-04-04T16:31:55.689Z</time></trkpt><trkpt lat="43.8437217" lon="12.6662183"><ele>326.0</ele><time>2026-04-04T16:31:56.688Z</time></trkpt><trkpt lat="43.843835" lon="12.6661117"><ele>326.0</ele><time>2026-04-04T16:31:57.687Z</time></trkpt><trkpt lat="43.8439333" lon="12.6659833"><ele>326.0</ele><time>2026-04-04T16:31:58.688Z</time></trkpt><trkpt lat="43.84402" lon="12.6658367"><ele>326.0</ele><time>2026-04-04T16:31:59.69Z</time></trkpt><trkpt lat="43.8441133" lon="12.66568"><ele>324.75</ele><time>2026-04-04T16:32:00.687Z</time></trkpt><trkpt lat="43.8441967" lon="12.66552"><ele>323.5</ele><time>2026-04-04T16:32:01.69Z</time></trkpt><trkpt lat="43.8442633" lon="12.6653517"><ele>322.25</ele><time>2026-04-04T16:32:02.691Z</time></trkpt><trkpt lat="43.8443183" lon="12.6651817"><ele>321.0</ele><time>2026-04-04T16:32:03.686Z</time></trkpt><trkpt lat="43.8443717" lon="12.6650283"><ele>321.0</ele><time>2026-04-04T16:32:04.688Z</time></trkpt><trkpt lat="43.84443" lon="12.66491"><ele>321.0</ele><time>2026-04-04T16:32:05.689Z</time></trkpt><trkpt lat="43.8444967" lon="12.6648317"><ele>321.0</ele><time>2026-04-04T16:32:06.688Z</time></trkpt><trkpt lat="43.8445667" lon="12.66477"><ele>321.0</ele><time>2026-04-04T16:32:07.691Z</time></trkpt><trkpt lat="43.844635" lon="12.664745"><ele>321.0</ele><time>2026-04-04T16:32:08.688Z</time></trkpt><trkpt lat="43.844705" lon="12.664735"><ele>321.0</ele><time>2026-04-04T16:32:09.688Z</time></trkpt><trkpt lat="43.8447883" lon="12.6647617"><ele>321.0</ele><time>2026-04-04T16:32:10.69Z</time></trkpt><trkpt lat="43.8448783" lon="12.664775"><ele>321.0</ele><time>2026-04-04T16:32:11.687Z</time></trkpt><trkpt lat="43.8450967" lon="12.6648033"><ele>321.0</ele><time>2026-04-04T16:32:13.688Z</time></trkpt><trkpt lat="43.8451983" lon="12.6647267"><ele>321.0</ele><time>2026-04-04T16:32:14.689Z</time></trkpt><trkpt lat="43.845295" lon="12.6646417"><ele>320.6</ele><time>2026-04-04T16:32:15.689Z</time></trkpt><trkpt lat="43.84539" lon="12.6645733"><ele>320.20000000000005</ele><time>2026-04-04T16:32:16.688Z</time></trkpt><trkpt lat="43.8454767" lon="12.6645317"><ele>319.79999999999995</ele><time>2026-04-04T16:32:17.69Z</time></trkpt><trkpt lat="43.845565" lon="12.66452"><ele>319.4</ele><time>2026-04-04T16:32:18.689Z</time></trkpt><trkpt lat="43.8456433" lon="12.6645517"><ele>319.0</ele><time>2026-04-04T16:32:19.691Z</time></trkpt><trkpt lat="43.8457117" lon="12.664615"><ele>319.0</ele><time>2026-04-04T16:32:20.688Z</time></trkpt><trkpt lat="43.8457733" lon="12.66472"><ele>319.0</ele><time>2026-04-04T16:32:21.688Z</time></trkpt><trkpt lat="43.8457967" lon="12.66487"><ele>319.0</ele><time>2026-04-04T16:32:22.689Z</time></trkpt><trkpt lat="43.84582" lon="12.6649767"><ele>319.0</ele><time>2026-04-04T16:32:23.691Z</time></trkpt><trkpt lat="43.84585" lon="12.6650767"><ele>319.0</ele><time>2026-04-04T16:32:24.688Z</time></trkpt><trkpt lat="43.8458833" lon="12.6651783"><ele>319.0</ele><time>2026-04-04T16:32:25.692Z</time></trkpt><trkpt lat="43.8459183" lon="12.6652883"><ele>317.8</ele><time>2026-04-04T16:32:26.689Z</time></trkpt><trkpt lat="43.8459717" lon="12.6654"><ele>316.59999999999997</ele><time>2026-04-04T16:32:27.688Z</time></trkpt><trkpt lat="43.84604" lon="12.665505"><ele>315.4</ele><time>2026-04-04T16:32:28.688Z</time></trkpt><trkpt lat="43.8461217" lon="12.6656067"><ele>314.2</ele><time>2026-04-04T16:32:29.688Z</time></trkpt><trkpt lat="43.8462083" lon="12.6657017"><ele>313.0</ele><time>2026-04-04T16:32:30.689Z</time></trkpt><trkpt lat="43.8463083" lon="12.6658067"><ele>313.0</ele><time>2026-04-04T16:32:31.689Z</time></trkpt><trkpt lat="43.8464133" lon="12.6659267"><ele>313.0</ele><time>2026-04-04T16:32:32.69Z</time></trkpt><trkpt lat="43.8465617" lon="12.6661917"><ele>313.0</ele><time>2026-04-04T16:32:34.688Z</time></trkpt><trkpt lat="43.8466033" lon="12.6663417"><ele>312.25</ele><time>2026-04-04T16:32:35.694Z</time></trkpt><trkpt lat="43.8466333" lon="12.6665067"><ele>311.5</ele><time>2026-04-04T16:32:36.688Z</time></trkpt><trkpt lat="43.846675" lon="12.6666633"><ele>310.75</ele><time>2026-04-04T16:32:37.692Z</time></trkpt><trkpt lat="43.8467467" lon="12.6668133"><ele>310.0</ele><time>2026-04-04T16:32:38.686Z</time></trkpt><trkpt lat="43.8468483" lon="12.6669417"><ele>314.25</ele><time>2026-04-04T16:32:39.688Z</time></trkpt><trkpt lat="43.846965" lon="12.6670517"><ele>318.5</ele><time>2026-04-04T16:32:40.689Z</time></trkpt><trkpt lat="43.8470917" lon="12.6671367"><ele>322.75</ele><time>2026-04-04T16:32:41.69Z</time></trkpt><trkpt lat="43.8472317" lon="12.6672067"><ele>327.0</ele><time>2026-04-04T16:32:42.687Z</time></trkpt><trkpt lat="43.8473467" lon="12.6672433"><ele>327.0</ele><time>2026-04-04T16:32:43.692Z</time></trkpt><trkpt lat="43.847495" lon="12.66729"><ele>327.0</ele><time>2026-04-04T16:32:44.689Z</time></trkpt><trkpt lat="43.8476333" lon="12.66734"><ele>327.0</ele><time>2026-04-04T16:32:45.689Z</time></trkpt><trkpt lat="43.8477683" lon="12.6673917"><ele>327.0</ele><time>2026-04-04T16:32:46.69Z</time></trkpt><trkpt lat="43.8480033" lon="12.667545"><ele>326.5</ele><time>2026-04-04T16:32:48.689Z</time></trkpt><trkpt lat="43.8480933" lon="12.6676617"><ele>326.0</ele><time>2026-04-04T16:32:49.69Z</time></trkpt><trkpt lat="43.8481633" lon="12.66781"><ele>325.5</ele><time>2026-04-04T16:32:50.688Z</time></trkpt><trkpt lat="43.8482167" lon="12.667975"><ele>325.0</ele><time>2026-04-04T16:32:51.69Z</time></trkpt><trkpt lat="43.8482683" lon="12.668155"><ele>325.0</ele><time>2026-04-04T16:32:52.689Z</time></trkpt><trkpt lat="43.84834" lon="12.6683217"><ele>325.0</ele><time>2026-04-04T16:32:53.689Z</time></trkpt><trkpt lat="43.848555" lon="12.6685967"><ele>325.0</ele><time>2026-04-04T16:32:55.69Z</time></trkpt><trkpt lat="43.8486717" lon="12.668725"><ele>323.75</ele><time>2026-04-04T16:32:56.69Z</time></trkpt><trkpt lat="43.8487733" lon="12.6688633"><ele>322.5</ele><time>2026-04-04T16:32:57.688Z</time></trkpt><trkpt lat="43.848865" lon="12.6690083"><ele>321.25</ele><time>2026-04-04T16:32:58.687Z</time></trkpt><trkpt lat="43.8489583" lon="12.6691283"><ele>320.0</ele><time>2026-04-04T16:32:59.691Z</time></trkpt><trkpt lat="43.8490633" lon="12.6692133"><ele>320.0</ele><time>2026-04-04T16:33:00.691Z</time></trkpt><trkpt lat="43.8491783" lon="12.669265"><ele>320.0</ele><time>2026-04-04T16:33:01.689Z</time></trkpt><trkpt lat="43.8492967" lon="12.6693"><ele>320.0</ele><time>2026-04-04T16:33:02.688Z</time></trkpt><trkpt lat="43.8494133" lon="12.669345"><ele>320.0</ele><time>2026-04-04T16:33:03.689Z</time></trkpt><trkpt lat="43.8495183" lon="12.6694167"><ele>319.75</ele><time>2026-04-04T16:33:04.689Z</time></trkpt><trkpt lat="43.8496133" lon="12.6695167"><ele>319.5</ele><time>2026-04-04T16:33:05.692Z</time></trkpt><trkpt lat="43.8497067" lon="12.6696433"><ele>319.25</ele><time>2026-04-04T16:33:06.688Z</time></trkpt><trkpt lat="43.8497933" lon="12.6697917"><ele>319.0</ele><time>2026-04-04T16:33:07.69Z</time></trkpt><trkpt lat="43.84988" lon="12.6699467"><ele>319.0</ele><time>2026-04-04T16:33:08.688Z</time></trkpt><trkpt lat="43.8499667" lon="12.6701033"><ele>319.0</ele><time>2026-04-04T16:33:09.689Z</time></trkpt><trkpt lat="43.850045" lon="12.670255"><ele>319.0</ele><time>2026-04-04T16:33:10.687Z</time></trkpt><trkpt lat="43.8501233" lon="12.6704"><ele>319.0</ele><time>2026-04-04T16:33:11.689Z</time></trkpt><trkpt lat="43.8502017" lon="12.6705283"><ele>318.25</ele><time>2026-04-04T16:33:12.688Z</time></trkpt><trkpt lat="43.850285" lon="12.6706383"><ele>317.5</ele><time>2026-04-04T16:33:13.689Z</time></trkpt><trkpt lat="43.850375" lon="12.670725"><ele>316.75</ele><time>2026-04-04T16:33:14.688Z</time></trkpt><trkpt lat="43.8505917" lon="12.6707817"><ele>316.0</ele><time>2026-04-04T16:33:16.69Z</time></trkpt><trkpt lat="43.85072" lon="12.67076"><ele>316.0</ele><time>2026-04-04T16:33:17.69Z</time></trkpt><trkpt lat="43.8508433" lon="12.6707333"><ele>316.0</ele><time>2026-04-04T16:33:18.689Z</time></trkpt><trkpt lat="43.850955" lon="12.6706967"><ele>316.0</ele><time>2026-04-04T16:33:19.689Z</time></trkpt><trkpt lat="43.8510533" lon="12.6706483"><ele>316.0</ele><time>2026-04-04T16:33:20.692Z</time></trkpt><trkpt lat="43.8511383" lon="12.6705717"><ele>316.0</ele><time>2026-04-04T16:33:21.689Z</time></trkpt><trkpt lat="43.85121" lon="12.67046"><ele>320.25</ele><time>2026-04-04T16:33:22.69Z</time></trkpt><trkpt lat="43.8512633" lon="12.67032"><ele>324.5</ele><time>2026-04-04T16:33:23.685Z</time></trkpt><trkpt lat="43.8513083" lon="12.6701617"><ele>328.75</ele><time>2026-04-04T16:33:24.689Z</time></trkpt><trkpt lat="43.8513533" lon="12.6699883"><ele>333.0</ele><time>2026-04-04T16:33:25.688Z</time></trkpt><trkpt lat="43.8513983" lon="12.6698033"><ele>333.0</ele><time>2026-04-04T16:33:26.687Z</time></trkpt><trkpt lat="43.8514433" lon="12.669615"><ele>333.0</ele><time>2026-04-04T16:33:27.687Z</time></trkpt><trkpt lat="43.8514883" lon="12.669435"><ele>333.0</ele><time>2026-04-04T16:33:28.689Z</time></trkpt><trkpt lat="43.8515333" lon="12.669275"><ele>333.0</ele><time>2026-04-04T16:33:29.688Z</time></trkpt><trkpt lat="43.8515833" lon="12.6691367"><ele>333.3333333333333</ele><time>2026-04-04T16:33:30.687Z</time></trkpt><trkpt lat="43.851645" lon="12.66903"><ele>333.6666666666667</ele><time>2026-04-04T16:33:31.691Z</time></trkpt><trkpt lat="43.851715" lon="12.6689783"><ele>334.0</ele><time>2026-04-04T16:33:32.687Z</time></trkpt><trkpt lat="43.8517883" lon="12.6689433"><ele>334.33333333333337</ele><time>2026-04-04T16:33:33.688Z</time></trkpt><trkpt lat="43.85187" lon="12.668985"><ele>334.6666666666667</ele><time>2026-04-04T16:33:34.688Z</time></trkpt><trkpt lat="43.8519633" lon="12.669055"><ele>335.0</ele><time>2026-04-04T16:33:35.685Z</time></trkpt><trkpt lat="43.852165" lon="12.669165"><ele>335.0</ele><time>2026-04-04T16:33:37.689Z</time></trkpt><trkpt lat="43.852275" lon="12.6691783"><ele>335.0</ele><time>2026-04-04T16:33:38.686Z</time></trkpt><trkpt lat="43.8523867" lon="12.6691533"><ele>335.0</ele><time>2026-04-04T16:33:39.689Z</time></trkpt><trkpt lat="43.8524833" lon="12.6691083"><ele>335.0</ele><time>2026-04-04T16:33:40.689Z</time></trkpt><trkpt lat="43.8525717" lon="12.6690533"><ele>335.0</ele><time>2026-04-04T16:33:41.687Z</time></trkpt><trkpt lat="43.8526533" lon="12.6690383"><ele>335.0</ele><time>2026-04-04T16:33:42.69Z</time></trkpt><trkpt lat="43.8527267" lon="12.6690467"><ele>335.0</ele><time>2026-04-04T16:33:43.689Z</time></trkpt><trkpt lat="43.852775" lon="12.6691483"><ele>335.0</ele><time>2026-04-04T16:33:45.688Z</time></trkpt><trkpt lat="43.8526917" lon="12.6692783"><ele>335.0</ele><time>2026-04-04T16:33:47.689Z</time></trkpt><trkpt lat="43.8526217" lon="12.66932"><ele>335.0</ele><time>2026-04-04T16:33:48.689Z</time></trkpt><trkpt lat="43.852555" lon="12.6693633"><ele>335.0</ele><time>2026-04-04T16:33:49.687Z</time></trkpt><trkpt lat="43.8524833" lon="12.6694133"><ele>338.5</ele><time>2026-04-04T16:33:50.687Z</time></trkpt><trkpt lat="43.8524067" lon="12.669475"><ele>342.0</ele><time>2026-04-04T16:33:51.688Z</time></trkpt><trkpt lat="43.8523333" lon="12.6695417"><ele>345.5</ele><time>2026-04-04T16:33:52.688Z</time></trkpt><trkpt lat="43.852255" lon="12.66961"><ele>349.0</ele><time>2026-04-04T16:33:53.689Z</time></trkpt><trkpt lat="43.8521833" lon="12.669685"><ele>352.5</ele><time>2026-04-04T16:33:54.689Z</time></trkpt><trkpt lat="43.8521217" lon="12.6697617"><ele>356.0</ele><time>2026-04-04T16:33:55.69Z</time></trkpt><trkpt lat="43.8520683" lon="12.6698483"><ele>356.0</ele><time>2026-04-04T16:33:56.689Z</time></trkpt><trkpt lat="43.8520233" lon="12.6700383"><ele>356.0</ele><time>2026-04-04T16:33:58.689Z</time></trkpt><trkpt lat="43.852095" lon="12.6701567"><ele>356.0</ele><time>2026-04-04T16:34:00.689Z</time></trkpt><trkpt lat="43.8521633" lon="12.6701417"><ele>356.0</ele><time>2026-04-04T16:34:01.688Z</time></trkpt><trkpt lat="43.8522533" lon="12.6700783"><ele>356.0</ele><time>2026-04-04T16:34:02.69Z</time></trkpt><trkpt lat="43.852345" lon="12.6699767"><ele>356.0</ele><time>2026-04-04T16:34:03.689Z</time></trkpt><trkpt lat="43.85243" lon="12.6698483"><ele>356.0</ele><time>2026-04-04T16:34:04.689Z</time></trkpt><trkpt lat="43.8525117" lon="12.66975"><ele>356.0</ele><time>2026-04-04T16:34:05.69Z</time></trkpt><trkpt lat="43.85259" lon="12.6696883"><ele>356.0</ele><time>2026-04-04T16:34:06.69Z</time></trkpt><trkpt lat="43.8526667" lon="12.6696633"><ele>356.0</ele><time>2026-04-04T16:34:07.689Z</time></trkpt><trkpt lat="43.8527417" lon="12.6697167"><ele>356.0</ele><time>2026-04-04T16:34:09.688Z</time></trkpt><trkpt lat="43.85273" lon="12.66984"><ele>356.0</ele><time>2026-04-04T16:34:11.689Z</time></trkpt><trkpt lat="43.8526617" lon="12.66993"><ele>356.0</ele><time>2026-04-04T16:34:12.69Z</time></trkpt><trkpt lat="43.85258" lon="12.6700033"><ele>356.0</ele><time>2026-04-04T16:34:13.688Z</time></trkpt><trkpt lat="43.8524967" lon="12.6700883"><ele>356.0</ele><time>2026-04-04T16:34:14.687Z</time></trkpt><trkpt lat="43.852415" lon="12.6701867"><ele>359.0</ele><time>2026-04-04T16:34:15.689Z</time></trkpt><trkpt lat="43.85234" lon="12.67029"><ele>362.0</ele><time>2026-04-04T16:34:16.687Z</time></trkpt><trkpt lat="43.8522767" lon="12.6703983"><ele>365.0</ele><time>2026-04-04T16:34:17.688Z</time></trkpt><trkpt lat="43.8522067" lon="12.6706667"><ele>368.0</ele><time>2026-04-04T16:34:19.688Z</time></trkpt><trkpt lat="43.8522183" lon="12.670805"><ele>368.0</ele><time>2026-04-04T16:34:20.689Z</time></trkpt><trkpt lat="43.8522533" lon="12.6709417"><ele>368.0</ele><time>2026-04-04T16:34:21.688Z</time></trkpt><trkpt lat="43.8523233" lon="12.67107"><ele>368.0</ele><time>2026-04-04T16:34:22.69Z</time></trkpt><trkpt lat="43.85241" lon="12.6711967"><ele>368.0</ele><time>2026-04-04T16:34:23.692Z</time></trkpt><trkpt lat="43.8525" lon="12.67133"><ele>370.75</ele><time>2026-04-04T16:34:24.689Z</time></trkpt><trkpt lat="43.852585" lon="12.6714617"><ele>373.5</ele><time>2026-04-04T16:34:25.689Z</time></trkpt><trkpt lat="43.852675" lon="12.6715917"><ele>376.25</ele><time>2026-04-04T16:34:26.69Z</time></trkpt><trkpt lat="43.8527767" lon="12.6716867"><ele>379.0</ele><time>2026-04-04T16:34:27.688Z</time></trkpt><trkpt lat="43.8528867" lon="12.671765"><ele>379.0</ele><time>2026-04-04T16:34:28.69Z</time></trkpt><trkpt lat="43.8530133" lon="12.67182"><ele>379.0</ele><time>2026-04-04T16:34:29.689Z</time></trkpt><trkpt lat="43.8531383" lon="12.6718733"><ele>379.0</ele><time>2026-04-04T16:34:30.688Z</time></trkpt><trkpt lat="43.853265" lon="12.67192"><ele>379.0</ele><time>2026-04-04T16:34:31.691Z</time></trkpt><trkpt lat="43.8533917" lon="12.6719683"><ele>374.75</ele><time>2026-04-04T16:34:32.689Z</time></trkpt><trkpt lat="43.85352" lon="12.6720117"><ele>370.5</ele><time>2026-04-04T16:34:33.688Z</time></trkpt><trkpt lat="43.85365" lon="12.6720483"><ele>366.25</ele><time>2026-04-04T16:34:34.688Z</time></trkpt><trkpt lat="43.8537867" lon="12.6720683"><ele>362.0</ele><time>2026-04-04T16:34:35.691Z</time></trkpt><trkpt lat="43.8539217" lon="12.672075"><ele>362.0</ele><time>2026-04-04T16:34:36.69Z</time></trkpt><trkpt lat="43.85406" lon="12.6720583"><ele>362.0</ele><time>2026-04-04T16:34:37.69Z</time></trkpt><trkpt lat="43.8542017" lon="12.6720317"><ele>362.0</ele><time>2026-04-04T16:34:38.69Z</time></trkpt><trkpt lat="43.854485" lon="12.6719733"><ele>363.75</ele><time>2026-04-04T16:34:40.689Z</time></trkpt><trkpt lat="43.8546217" lon="12.67195"><ele>365.5</ele><time>2026-04-04T16:34:41.69Z</time></trkpt><trkpt lat="43.8547583" lon="12.6719433"><ele>367.25</ele><time>2026-04-04T16:34:42.689Z</time></trkpt><trkpt lat="43.8548967" lon="12.6719633"><ele>369.0</ele><time>2026-04-04T16:34:43.69Z</time></trkpt><trkpt lat="43.8550333" lon="12.6719933"><ele>370.5</ele><time>2026-04-04T16:34:44.689Z</time></trkpt><trkpt lat="43.8551617" lon="12.6720217"><ele>372.0</ele><time>2026-04-04T16:34:45.688Z</time></trkpt><trkpt lat="43.8552867" lon="12.6720467"><ele>373.5</ele><time>2026-04-04T16:34:46.69Z</time></trkpt><trkpt lat="43.8554067" lon="12.6720733"><ele>375.0</ele><time>2026-04-04T16:34:47.691Z</time></trkpt><trkpt lat="43.8555333" lon="12.672075"><ele>375.0</ele><time>2026-04-04T16:34:48.69Z</time></trkpt><trkpt lat="43.85566" lon="12.6720683"><ele>375.0</ele><time>2026-04-04T16:34:49.69Z</time></trkpt><trkpt lat="43.855785" lon="12.672065"><ele>375.0</ele><time>2026-04-04T16:34:50.689Z</time></trkpt><trkpt lat="43.8559" lon="12.67206"><ele>375.0</ele><time>2026-04-04T16:34:51.688Z</time></trkpt><trkpt lat="43.856005" lon="12.6720517"><ele>376.1666666666667</ele><time>2026-04-04T16:34:52.689Z</time></trkpt><trkpt lat="43.8560917" lon="12.6720317"><ele>377.3333333333333</ele><time>2026-04-04T16:34:53.687Z</time></trkpt><trkpt lat="43.8561633" lon="12.6720117"><ele>378.5</ele><time>2026-04-04T16:34:54.693Z</time></trkpt><trkpt lat="43.8562383" lon="12.6719867"><ele>379.66666666666663</ele><time>2026-04-04T16:34:56.686Z</time></trkpt><trkpt lat="43.8562967" lon="12.67194"><ele>380.8333333333333</ele><time>2026-04-04T16:34:59.688Z</time></trkpt><trkpt lat="43.85638" lon="12.6717917"><ele>382.0</ele><time>2026-04-04T16:35:06.69Z</time></trkpt><trkpt lat="43.8564483" lon="12.6717633"><ele>382.20000000000005</ele><time>2026-04-04T16:35:07.69Z</time></trkpt><trkpt lat="43.856535" lon="12.6717517"><ele>382.4</ele><time>2026-04-04T16:35:08.689Z</time></trkpt><trkpt lat="43.85663" lon="12.6717617"><ele>382.6</ele><time>2026-04-04T16:35:09.688Z</time></trkpt><trkpt lat="43.856735" lon="12.6718033"><ele>382.79999999999995</ele><time>2026-04-04T16:35:10.69Z</time></trkpt><trkpt lat="43.856835" lon="12.67185"><ele>383.0</ele><time>2026-04-04T16:35:11.69Z</time></trkpt><trkpt lat="43.8569283" lon="12.6719"><ele>383.0</ele><time>2026-04-04T16:35:12.689Z</time></trkpt><trkpt lat="43.8570133" lon="12.6719367"><ele>383.0</ele><time>2026-04-04T16:35:13.692Z</time></trkpt><trkpt lat="43.8570967" lon="12.6719717"><ele>383.0</ele><time>2026-04-04T16:35:14.688Z</time></trkpt><trkpt lat="43.8571733" lon="12.672"><ele>383.0</ele><time>2026-04-04T16:35:15.688Z</time></trkpt><trkpt lat="43.857235" lon="12.6720317"><ele>383.0</ele><time>2026-04-04T16:35:16.689Z</time></trkpt><trkpt lat="43.8573117" lon="12.6720633"><ele>383.0</ele><time>2026-04-04T16:35:18.689Z</time></trkpt><trkpt lat="43.8573833" lon="12.6720767"><ele>383.0</ele><time>2026-04-04T16:35:20.688Z</time></trkpt><trkpt lat="43.8575017" lon="12.67186"><ele>383.0</ele><time>2026-04-04T16:35:23.692Z</time></trkpt><trkpt lat="43.8575667" lon="12.67174"><ele>383.0</ele><time>2026-04-04T16:35:24.689Z</time></trkpt><trkpt lat="43.8576317" lon="12.6716317"><ele>383.0</ele><time>2026-04-04T16:35:25.69Z</time></trkpt><trkpt lat="43.8576967" lon="12.6715217"><ele>383.2</ele><time>2026-04-04T16:35:26.689Z</time></trkpt><trkpt lat="43.85776" lon="12.6714167"><ele>383.4</ele><time>2026-04-04T16:35:27.688Z</time></trkpt><trkpt lat="43.85781" lon="12.6712967"><ele>383.59999999999997</ele><time>2026-04-04T16:35:28.689Z</time></trkpt><trkpt lat="43.85785" lon="12.671155"><ele>383.79999999999995</ele><time>2026-04-04T16:35:29.691Z</time></trkpt><trkpt lat="43.8578733" lon="12.671005"><ele>384.0</ele><time>2026-04-04T16:35:30.691Z</time></trkpt><trkpt lat="43.85788" lon="12.6708533"><ele>383.2</ele><time>2026-04-04T16:35:31.69Z</time></trkpt><trkpt lat="43.85788" lon="12.6707067"><ele>382.4</ele><time>2026-04-04T16:35:32.69Z</time></trkpt><trkpt lat="43.8578783" lon="12.670565"><ele>381.6</ele><time>2026-04-04T16:35:33.688Z</time></trkpt><trkpt lat="43.8578817" lon="12.6704383"><ele>380.8</ele><time>2026-04-04T16:35:34.688Z</time></trkpt><trkpt lat="43.8579" lon="12.6703217"><ele>380.0</ele><time>2026-04-04T16:35:35.689Z</time></trkpt><trkpt lat="43.85794" lon="12.6702017"><ele>379.0</ele><time>2026-04-04T16:35:36.689Z</time></trkpt><trkpt lat="43.8580033" lon="12.6700833"><ele>378.0</ele><time>2026-04-04T16:35:37.689Z</time></trkpt><trkpt lat="43.8580917" lon="12.6699883"><ele>377.0</ele><time>2026-04-04T16:35:38.687Z</time></trkpt><trkpt lat="43.8581933" lon="12.6699017"><ele>376.0</ele><time>2026-04-04T16:35:39.689Z</time></trkpt><trkpt lat="43.8583083" lon="12.669825"><ele>376.0</ele><time>2026-04-04T16:35:40.691Z</time></trkpt><trkpt lat="43.8584233" lon="12.669755"><ele>376.0</ele><time>2026-04-04T16:35:41.686Z</time></trkpt><trkpt lat="43.8586383" lon="12.6696083"><ele>376.0</ele><time>2026-04-04T16:35:43.689Z</time></trkpt><trkpt lat="43.858725" lon="12.6695183"><ele>371.4</ele><time>2026-04-04T16:35:44.688Z</time></trkpt><trkpt lat="43.8587867" lon="12.669415"><ele>366.8</ele><time>2026-04-04T16:35:45.691Z</time></trkpt><trkpt lat="43.8588217" lon="12.6692917"><ele>362.2</ele><time>2026-04-04T16:35:46.689Z</time></trkpt><trkpt lat="43.8588283" lon="12.6691567"><ele>357.59999999999997</ele><time>2026-04-04T16:35:47.691Z</time></trkpt><trkpt lat="43.8588133" lon="12.6690083"><ele>353.0</ele><time>2026-04-04T16:35:48.687Z</time></trkpt><trkpt lat="43.8587767" lon="12.6688483"><ele>353.0</ele><time>2026-04-04T16:35:49.692Z</time></trkpt><trkpt lat="43.8587217" lon="12.6686817"><ele>353.0</ele><time>2026-04-04T16:35:50.691Z</time></trkpt><trkpt lat="43.8586517" lon="12.6685283"><ele>353.0</ele><time>2026-04-04T16:35:51.688Z</time></trkpt><trkpt lat="43.8585783" lon="12.668395"><ele>353.0</ele><time>2026-04-04T16:35:52.689Z</time></trkpt><trkpt lat="43.85851" lon="12.6682717"><ele>351.75</ele><time>2026-04-04T16:35:53.69Z</time></trkpt><trkpt lat="43.8584517" lon="12.6681483"><ele>350.5</ele><time>2026-04-04T16:35:54.69Z</time></trkpt><trkpt lat="43.8584067" lon="12.66802"><ele>349.25</ele><time>2026-04-04T16:35:55.693Z</time></trkpt><trkpt lat="43.85839" lon="12.6678833"><ele>348.0</ele><time>2026-04-04T16:35:56.688Z</time></trkpt><trkpt lat="43.8584433" lon="12.667575"><ele>347.0</ele><time>2026-04-04T16:35:58.692Z</time></trkpt><trkpt lat="43.8584983" lon="12.667405"><ele>346.0</ele><time>2026-04-04T16:35:59.688Z</time></trkpt><trkpt lat="43.858565" lon="12.6672233"><ele>345.0</ele><time>2026-04-04T16:36:00.689Z</time></trkpt><trkpt lat="43.858635" lon="12.6670383"><ele>344.0</ele><time>2026-04-04T16:36:01.69Z</time></trkpt><trkpt lat="43.858705" lon="12.6668617"><ele>347.33333333333337</ele><time>2026-04-04T16:36:02.689Z</time></trkpt><trkpt lat="43.858865" lon="12.666555"><ele>350.6666666666667</ele><time>2026-04-04T16:36:04.689Z</time></trkpt><trkpt lat="43.8589517" lon="12.6664233"><ele>354.0</ele><time>2026-04-04T16:36:05.69Z</time></trkpt><trkpt lat="43.8590517" lon="12.6663217"><ele>354.0</ele><time>2026-04-04T16:36:06.688Z</time></trkpt><trkpt lat="43.8591683" lon="12.6662533"><ele>354.0</ele><time>2026-04-04T16:36:07.692Z</time></trkpt><trkpt lat="43.8592983" lon="12.6662117"><ele>354.0</ele><time>2026-04-04T16:36:08.689Z</time></trkpt><trkpt lat="43.8594417" lon="12.6661933"><ele>354.0</ele><time>2026-04-04T16:36:09.689Z</time></trkpt><trkpt lat="43.859595" lon="12.6662083"><ele>350.3333333333333</ele><time>2026-04-04T16:36:10.69Z</time></trkpt><trkpt lat="43.8597483" lon="12.66624"><ele>346.66666666666663</ele><time>2026-04-04T16:36:11.689Z</time></trkpt><trkpt lat="43.8599" lon="12.6662783"><ele>343.0</ele><time>2026-04-04T16:36:12.689Z</time></trkpt><trkpt lat="43.8600483" lon="12.6663183"><ele>341.75</ele><time>2026-04-04T16:36:13.691Z</time></trkpt><trkpt lat="43.8601917" lon="12.6663517"><ele>340.5</ele><time>2026-04-04T16:36:14.692Z</time></trkpt><trkpt lat="43.8603333" lon="12.6663783"><ele>339.25</ele><time>2026-04-04T16:36:15.687Z</time></trkpt><trkpt lat="43.8604817" lon="12.6663983"><ele>338.0</ele><time>2026-04-04T16:36:16.688Z</time></trkpt><trkpt lat="43.86063" lon="12.66642"><ele>338.0</ele><time>2026-04-04T16:36:17.689Z</time></trkpt><trkpt lat="43.8607717" lon="12.66643"><ele>338.0</ele><time>2026-04-04T16:36:18.688Z</time></trkpt><trkpt lat="43.8609083" lon="12.6664383"><ele>338.0</ele><time>2026-04-04T16:36:19.688Z</time></trkpt><trkpt lat="43.8610383" lon="12.66645"><ele>338.0</ele><time>2026-04-04T16:36:20.69Z</time></trkpt><trkpt lat="43.861165" lon="12.6664617"><ele>336.6666666666667</ele><time>2026-04-04T16:36:21.689Z</time></trkpt><trkpt lat="43.8612883" lon="12.6664783"><ele>335.3333333333333</ele><time>2026-04-04T16:36:22.69Z</time></trkpt><trkpt lat="43.8614017" lon="12.6664967"><ele>334.0</ele><time>2026-04-04T16:36:23.689Z</time></trkpt><trkpt lat="43.8616167" lon="12.6665483"><ele>334.0</ele><time>2026-04-04T16:36:25.69Z</time></trkpt><trkpt lat="43.861725" lon="12.6665733"><ele>334.0</ele><time>2026-04-04T16:36:26.688Z</time></trkpt><trkpt lat="43.86183" lon="12.6666"><ele>334.0</ele><time>2026-04-04T16:36:27.687Z</time></trkpt><trkpt lat="43.86193" lon="12.666625"><ele>334.0</ele><time>2026-04-04T16:36:28.69Z</time></trkpt><trkpt lat="43.86202" lon="12.6666483"><ele>334.0</ele><time>2026-04-04T16:36:29.691Z</time></trkpt><trkpt lat="43.8621033" lon="12.6666717"><ele>333.8333333333333</ele><time>2026-04-04T16:36:30.689Z</time></trkpt><trkpt lat="43.8621883" lon="12.66669"><ele>333.66666666666663</ele><time>2026-04-04T16:36:31.691Z</time></trkpt><trkpt lat="43.86227" lon="12.66671"><ele>333.5</ele><time>2026-04-04T16:36:32.688Z</time></trkpt><trkpt lat="43.8623483" lon="12.6667183"><ele>333.3333333333333</ele><time>2026-04-04T16:36:33.692Z</time></trkpt><trkpt lat="43.862425" lon="12.666735"><ele>333.1666666666667</ele><time>2026-04-04T16:36:34.69Z</time></trkpt><trkpt lat="43.8625017" lon="12.66675"><ele>333.0</ele><time>2026-04-04T16:36:35.69Z</time></trkpt><trkpt lat="43.8625783" lon="12.6667617"><ele>332.8571428571429</ele><time>2026-04-04T16:36:36.692Z</time></trkpt><trkpt lat="43.8626467" lon="12.6667733"><ele>332.71428571428567</ele><time>2026-04-04T16:36:37.69Z</time></trkpt><trkpt lat="43.862715" lon="12.6667767"><ele>332.57142857142856</ele><time>2026-04-04T16:36:38.691Z</time></trkpt><trkpt lat="43.8627833" lon="12.6667833"><ele>332.42857142857144</ele><time>2026-04-04T16:36:39.69Z</time></trkpt><trkpt lat="43.8628533" lon="12.666795"><ele>332.28571428571433</ele><time>2026-04-04T16:36:40.689Z</time></trkpt><trkpt lat="43.8629217" lon="12.6668067"><ele>332.1428571428571</ele><time>2026-04-04T16:36:41.69Z</time></trkpt><trkpt lat="43.8629917" lon="12.666815"><ele>332.0</ele><time>2026-04-04T16:36:42.69Z</time></trkpt><trkpt lat="43.863065" lon="12.6668167"><ele>332.0</ele><time>2026-04-04T16:36:43.691Z</time></trkpt><trkpt lat="43.8631467" lon="12.666825"><ele>332.0</ele><time>2026-04-04T16:36:44.688Z</time></trkpt><trkpt lat="43.8633117" lon="12.6668317"><ele>332.0</ele><time>2026-04-04T16:36:46.69Z</time></trkpt><trkpt lat="43.8634017" lon="12.666835"><ele>332.0</ele><time>2026-04-04T16:36:47.688Z</time></trkpt><trkpt lat="43.8634917" lon="12.6668367"><ele>332.0</ele><time>2026-04-04T16:36:48.69Z</time></trkpt><trkpt lat="43.8635783" lon="12.666845"><ele>330.83333333333337</ele><time>2026-04-04T16:36:49.689Z</time></trkpt><trkpt lat="43.8636683" lon="12.666855"><ele>329.6666666666667</ele><time>2026-04-04T16:36:50.688Z</time></trkpt><trkpt lat="43.863755" lon="12.6668683"><ele>328.5</ele><time>2026-04-04T16:36:51.691Z</time></trkpt><trkpt lat="43.8638383" lon="12.6668833"><ele>327.3333333333333</ele><time>2026-04-04T16:36:52.688Z</time></trkpt><trkpt lat="43.8639183" lon="12.6669017"><ele>326.16666666666663</ele><time>2026-04-04T16:36:53.691Z</time></trkpt><trkpt lat="43.8639983" lon="12.66691"><ele>325.0</ele><time>2026-04-04T16:36:54.689Z</time></trkpt><trkpt lat="43.8640833" lon="12.6669117"><ele>325.0</ele><time>2026-04-04T16:36:55.69Z</time></trkpt><trkpt lat="43.86418" lon="12.6668967"><ele>325.0</ele><time>2026-04-04T16:36:56.69Z</time></trkpt><trkpt lat="43.86428" lon="12.6668733"><ele>325.0</ele><time>2026-04-04T16:36:57.688Z</time></trkpt><trkpt lat="43.864385" lon="12.6668467"><ele>325.0</ele><time>2026-04-04T16:36:58.689Z</time></trkpt><trkpt lat="43.8644933" lon="12.6668183"><ele>325.0</ele><time>2026-04-04T16:36:59.69Z</time></trkpt><trkpt lat="43.8646" lon="12.6667883"><ele>323.4</ele><time>2026-04-04T16:37:00.69Z</time></trkpt><trkpt lat="43.864705" lon="12.6667583"><ele>321.8</ele><time>2026-04-04T16:37:01.691Z</time></trkpt><trkpt lat="43.86481" lon="12.66673"><ele>320.2</ele><time>2026-04-04T16:37:02.689Z</time></trkpt><trkpt lat="43.864915" lon="12.6667017"><ele>318.6</ele><time>2026-04-04T16:37:03.689Z</time></trkpt><trkpt lat="43.8650167" lon="12.666675"><ele>317.0</ele><time>2026-04-04T16:37:04.689Z</time></trkpt><trkpt lat="43.8651183" lon="12.6666433"><ele>314.25</ele><time>2026-04-04T16:37:05.691Z</time></trkpt><trkpt lat="43.865325" lon="12.6665783"><ele>311.5</ele><time>2026-04-04T16:37:07.689Z</time></trkpt><trkpt lat="43.86543" lon="12.6665483"><ele>308.75</ele><time>2026-04-04T16:37:08.692Z</time></trkpt><trkpt lat="43.865535" lon="12.66652"><ele>306.0</ele><time>2026-04-04T16:37:09.689Z</time></trkpt><trkpt lat="43.8656417" lon="12.6664917"><ele>306.0</ele><time>2026-04-04T16:37:10.691Z</time></trkpt><trkpt lat="43.86575" lon="12.6664567"><ele>306.0</ele><time>2026-04-04T16:37:11.691Z</time></trkpt><trkpt lat="43.8658567" lon="12.6664183"><ele>306.0</ele><time>2026-04-04T16:37:12.689Z</time></trkpt><trkpt lat="43.86596" lon="12.6663767"><ele>306.0</ele><time>2026-04-04T16:37:13.69Z</time></trkpt><trkpt lat="43.8660617" lon="12.6663317"><ele>306.0</ele><time>2026-04-04T16:37:14.69Z</time></trkpt><trkpt lat="43.8661633" lon="12.6662833"><ele>306.6</ele><time>2026-04-04T16:37:15.689Z</time></trkpt><trkpt lat="43.86627" lon="12.6662317"><ele>307.20000000000005</ele><time>2026-04-04T16:37:16.692Z</time></trkpt><trkpt lat="43.8663733" lon="12.666175"><ele>307.79999999999995</ele><time>2026-04-04T16:37:17.689Z</time></trkpt><trkpt lat="43.8664717" lon="12.666115"><ele>308.4</ele><time>2026-04-04T16:37:18.689Z</time></trkpt><trkpt lat="43.8665667" lon="12.6660583"><ele>309.0</ele><time>2026-04-04T16:37:19.689Z</time></trkpt><trkpt lat="43.8666583" lon="12.6659967"><ele>309.0</ele><time>2026-04-04T16:37:20.691Z</time></trkpt><trkpt lat="43.866755" lon="12.66594"><ele>309.0</ele><time>2026-04-04T16:37:21.688Z</time></trkpt><trkpt lat="43.866855" lon="12.665885"><ele>309.0</ele><time>2026-04-04T16:37:22.69Z</time></trkpt><trkpt lat="43.8669583" lon="12.66583"><ele>309.0</ele><time>2026-04-04T16:37:23.69Z</time></trkpt><trkpt lat="43.8670617" lon="12.6657783"><ele>309.0</ele><time>2026-04-04T16:37:24.69Z</time></trkpt><trkpt lat="43.8671633" lon="12.665725"><ele>310.75</ele><time>2026-04-04T16:37:25.691Z</time></trkpt><trkpt lat="43.8672583" lon="12.6656733"><ele>312.5</ele><time>2026-04-04T16:37:26.689Z</time></trkpt><trkpt lat="43.8674383" lon="12.66557"><ele>314.25</ele><time>2026-04-04T16:37:28.691Z</time></trkpt><trkpt lat="43.8675233" lon="12.665505"><ele>316.0</ele><time>2026-04-04T16:37:29.689Z</time></trkpt><trkpt lat="43.8676017" lon="12.6654217"><ele>318.0</ele><time>2026-04-04T16:37:30.688Z</time></trkpt><trkpt lat="43.86767" lon="12.66532"><ele>320.0</ele><time>2026-04-04T16:37:31.691Z</time></trkpt><trkpt lat="43.867725" lon="12.6651983"><ele>322.0</ele><time>2026-04-04T16:37:32.689Z</time></trkpt><trkpt lat="43.8677633" lon="12.6650667"><ele>324.0</ele><time>2026-04-04T16:37:33.689Z</time></trkpt><trkpt lat="43.8678" lon="12.66494"><ele>326.0</ele><time>2026-04-04T16:37:34.689Z</time></trkpt><trkpt lat="43.8678417" lon="12.66483"><ele>326.0</ele><time>2026-04-04T16:37:35.687Z</time></trkpt><trkpt lat="43.86789" lon="12.6647267"><ele>326.0</ele><time>2026-04-04T16:37:36.691Z</time></trkpt><trkpt lat="43.8679533" lon="12.6646483"><ele>326.0</ele><time>2026-04-04T16:37:37.689Z</time></trkpt><trkpt lat="43.8680317" lon="12.6645783"><ele>326.0</ele><time>2026-04-04T16:37:38.69Z</time></trkpt><trkpt lat="43.8681167" lon="12.6645617"><ele>326.0</ele><time>2026-04-04T16:37:39.69Z</time></trkpt><trkpt lat="43.8682083" lon="12.66457"><ele>326.0</ele><time>2026-04-04T16:37:40.688Z</time></trkpt><trkpt lat="43.868295" lon="12.6646"><ele>326.0</ele><time>2026-04-04T16:37:41.689Z</time></trkpt><trkpt lat="43.8683783" lon="12.6646617"><ele>326.0</ele><time>2026-04-04T16:37:42.69Z</time></trkpt><trkpt lat="43.86847" lon="12.6647933"><ele>326.0</ele><time>2026-04-04T16:37:43.69Z</time></trkpt><trkpt lat="43.8685617" lon="12.6648917"><ele>326.0</ele><time>2026-04-04T16:37:44.688Z</time></trkpt><trkpt lat="43.8686583" lon="12.6650117"><ele>324.5</ele><time>2026-04-04T16:37:45.69Z</time></trkpt><trkpt lat="43.8687533" lon="12.6651133"><ele>323.0</ele><time>2026-04-04T16:37:46.689Z</time></trkpt><trkpt lat="43.8688383" lon="12.66521"><ele>321.5</ele><time>2026-04-04T16:37:47.686Z</time></trkpt><trkpt lat="43.869" lon="12.66538"><ele>320.0</ele><time>2026-04-04T16:37:49.691Z</time></trkpt><trkpt lat="43.86908" lon="12.6654617"><ele>322.8</ele><time>2026-04-04T16:37:50.69Z</time></trkpt><trkpt lat="43.8691567" lon="12.66555"><ele>325.6</ele><time>2026-04-04T16:37:51.688Z</time></trkpt><trkpt lat="43.8692333" lon="12.6656417"><ele>328.4</ele><time>2026-04-04T16:37:52.689Z</time></trkpt><trkpt lat="43.8693133" lon="12.6657333"><ele>331.2</ele><time>2026-04-04T16:37:53.689Z</time></trkpt><trkpt lat="43.8693883" lon="12.665825"><ele>334.0</ele><time>2026-04-04T16:37:54.689Z</time></trkpt><trkpt lat="43.8694633" lon="12.665915"><ele>334.0</ele><time>2026-04-04T16:37:55.689Z</time></trkpt><trkpt lat="43.869535" lon="12.666015"><ele>334.0</ele><time>2026-04-04T16:37:56.688Z</time></trkpt><trkpt lat="43.8695983" lon="12.6661267"><ele>334.0</ele><time>2026-04-04T16:37:57.69Z</time></trkpt><trkpt lat="43.869655" lon="12.6662583"><ele>334.0</ele><time>2026-04-04T16:37:58.689Z</time></trkpt><trkpt lat="43.8697" lon="12.6663917"><ele>334.0</ele><time>2026-04-04T16:37:59.688Z</time></trkpt><trkpt lat="43.869745" lon="12.66653"><ele>335.5</ele><time>2026-04-04T16:38:00.69Z</time></trkpt><trkpt lat="43.8697883" lon="12.6666683"><ele>337.0</ele><time>2026-04-04T16:38:01.69Z</time></trkpt><trkpt lat="43.8698417" lon="12.6668117"><ele>338.5</ele><time>2026-04-04T16:38:02.689Z</time></trkpt><trkpt lat="43.8698983" lon="12.66696"><ele>340.0</ele><time>2026-04-04T16:38:03.69Z</time></trkpt><trkpt lat="43.8699617" lon="12.6671067"><ele>340.0</ele><time>2026-04-04T16:38:04.688Z</time></trkpt><trkpt lat="43.8700217" lon="12.667255"><ele>340.0</ele><time>2026-04-04T16:38:05.69Z</time></trkpt><trkpt lat="43.87008" lon="12.6674117"><ele>340.0</ele><time>2026-04-04T16:38:06.689Z</time></trkpt><trkpt lat="43.8701317" lon="12.6675767"><ele>340.0</ele><time>2026-04-04T16:38:07.69Z</time></trkpt><trkpt lat="43.870185" lon="12.667745"><ele>344.3333333333333</ele><time>2026-04-04T16:38:08.687Z</time></trkpt><trkpt lat="43.8702683" lon="12.6680917"><ele>348.6666666666667</ele><time>2026-04-04T16:38:10.689Z</time></trkpt><trkpt lat="43.8702933" lon="12.6682583"><ele>353.0</ele><time>2026-04-04T16:38:11.687Z</time></trkpt><trkpt lat="43.8703133" lon="12.6684217"><ele>353.0</ele><time>2026-04-04T16:38:12.688Z</time></trkpt><trkpt lat="43.8703283" lon="12.6685883"><ele>353.0</ele><time>2026-04-04T16:38:13.69Z</time></trkpt><trkpt lat="43.870345" lon="12.6687567"><ele>353.0</ele><time>2026-04-04T16:38:14.69Z</time></trkpt><trkpt lat="43.8703683" lon="12.668925"><ele>353.0</ele><time>2026-04-04T16:38:15.689Z</time></trkpt><trkpt lat="43.870405" lon="12.6690817"><ele>350.0</ele><time>2026-04-04T16:38:16.687Z</time></trkpt><trkpt lat="43.87046" lon="12.6692067"><ele>347.0</ele><time>2026-04-04T16:38:17.69Z</time></trkpt><trkpt lat="43.8705433" lon="12.6692817"><ele>344.0</ele><time>2026-04-04T16:38:18.688Z</time></trkpt><trkpt lat="43.8706383" lon="12.66931"><ele>341.0</ele><time>2026-04-04T16:38:19.69Z</time></trkpt><trkpt lat="43.870745" lon="12.6692833"><ele>338.0</ele><time>2026-04-04T16:38:20.689Z</time></trkpt><trkpt lat="43.8708533" lon="12.6692117"><ele>337.0</ele><time>2026-04-04T16:38:21.689Z</time></trkpt><trkpt lat="43.8709617" lon="12.66911"><ele>336.0</ele><time>2026-04-04T16:38:22.689Z</time></trkpt><trkpt lat="43.87107" lon="12.6690117"><ele>335.0</ele><time>2026-04-04T16:38:23.688Z</time></trkpt><trkpt lat="43.8711833" lon="12.6689383"><ele>334.0</ele><time>2026-04-04T16:38:24.689Z</time></trkpt><trkpt lat="43.8713067" lon="12.6688867"><ele>334.0</ele><time>2026-04-04T16:38:25.691Z</time></trkpt><trkpt lat="43.8714317" lon="12.66887"><ele>334.0</ele><time>2026-04-04T16:38:26.689Z</time></trkpt><trkpt lat="43.871555" lon="12.668875"><ele>334.0</ele><time>2026-04-04T16:38:27.69Z</time></trkpt><trkpt lat="43.8716717" lon="12.6688917"><ele>334.0</ele><time>2026-04-04T16:38:28.688Z</time></trkpt><trkpt lat="43.87178" lon="12.6689067"><ele>337.0</ele><time>2026-04-04T16:38:29.69Z</time></trkpt><trkpt lat="43.871985" lon="12.6689733"><ele>340.0</ele><time>2026-04-04T16:38:31.691Z</time></trkpt><trkpt lat="43.8720817" lon="12.66902"><ele>343.0</ele><time>2026-04-04T16:38:32.69Z</time></trkpt><trkpt lat="43.87218" lon="12.6690967"><ele>346.0</ele><time>2026-04-04T16:38:33.688Z</time></trkpt><trkpt lat="43.872265" lon="12.6691933"><ele>346.0</ele><time>2026-04-04T16:38:34.691Z</time></trkpt><trkpt lat="43.872335" lon="12.66931"><ele>346.0</ele><time>2026-04-04T16:38:35.689Z</time></trkpt><trkpt lat="43.8723917" lon="12.6694483"><ele>346.0</ele><time>2026-04-04T16:38:36.689Z</time></trkpt><trkpt lat="43.872445" lon="12.669575"><ele>346.0</ele><time>2026-04-04T16:38:37.693Z</time></trkpt><trkpt lat="43.872505" lon="12.6696883"><ele>346.0</ele><time>2026-04-04T16:38:38.689Z</time></trkpt><trkpt lat="43.8725833" lon="12.6697767"><ele>343.6</ele><time>2026-04-04T16:38:39.687Z</time></trkpt><trkpt lat="43.8726717" lon="12.6698583"><ele>341.20000000000005</ele><time>2026-04-04T16:38:40.69Z</time></trkpt><trkpt lat="43.8727717" lon="12.6699267"><ele>338.79999999999995</ele><time>2026-04-04T16:38:41.687Z</time></trkpt><trkpt lat="43.8728733" lon="12.6699833"><ele>336.4</ele><time>2026-04-04T16:38:42.691Z</time></trkpt><trkpt lat="43.8729733" lon="12.6700183"><ele>334.0</ele><time>2026-04-04T16:38:43.692Z</time></trkpt><trkpt lat="43.8730733" lon="12.670045"><ele>334.0</ele><time>2026-04-04T16:38:44.687Z</time></trkpt><trkpt lat="43.873165" lon="12.670045"><ele>334.0</ele><time>2026-04-04T16:38:45.689Z</time></trkpt><trkpt lat="43.8732533" lon="12.6700083"><ele>334.0</ele><time>2026-04-04T16:38:46.69Z</time></trkpt><trkpt lat="43.8733317" lon="12.6699333"><ele>334.0</ele><time>2026-04-04T16:38:47.689Z</time></trkpt><trkpt lat="43.8734133" lon="12.6698267"><ele>334.0</ele><time>2026-04-04T16:38:48.69Z</time></trkpt><trkpt lat="43.8734917" lon="12.6697"><ele>331.66666666666663</ele><time>2026-04-04T16:38:49.691Z</time></trkpt><trkpt lat="43.87357" lon="12.6695717"><ele>329.3333333333333</ele><time>2026-04-04T16:38:50.689Z</time></trkpt><trkpt lat="43.8737383" lon="12.6693017"><ele>327.0</ele><time>2026-04-04T16:38:52.692Z</time></trkpt><trkpt lat="43.8738283" lon="12.6691683"><ele>327.0</ele><time>2026-04-04T16:38:53.691Z</time></trkpt><trkpt lat="43.873915" lon="12.6690367"><ele>327.0</ele><time>2026-04-04T16:38:54.69Z</time></trkpt><trkpt lat="43.8739967" lon="12.66891"><ele>327.0</ele><time>2026-04-04T16:38:55.693Z</time></trkpt><trkpt lat="43.8740767" lon="12.6687917"><ele>327.0</ele><time>2026-04-04T16:38:56.69Z</time></trkpt><trkpt lat="43.8741533" lon="12.66868"><ele>327.20000000000005</ele><time>2026-04-04T16:38:57.69Z</time></trkpt><trkpt lat="43.8742183" lon="12.6685883"><ele>327.4</ele><time>2026-04-04T16:38:58.691Z</time></trkpt><trkpt lat="43.8742733" lon="12.6685217"><ele>327.6</ele><time>2026-04-04T16:38:59.69Z</time></trkpt><trkpt lat="43.8743283" lon="12.6684783"><ele>327.79999999999995</ele><time>2026-04-04T16:39:00.689Z</time></trkpt><trkpt lat="43.8744317" lon="12.6684717"><ele>328.0</ele><time>2026-04-04T16:39:02.69Z</time></trkpt><trkpt lat="43.8745033" lon="12.668605"><ele>324.25</ele><time>2026-04-04T16:39:04.69Z</time></trkpt><trkpt lat="43.8745083" lon="12.6686983"><ele>320.5</ele><time>2026-04-04T16:39:05.69Z</time></trkpt><trkpt lat="43.8745033" lon="12.66885"><ele>316.75</ele><time>2026-04-04T16:39:06.69Z</time></trkpt><trkpt lat="43.8744983" lon="12.6690283"><ele>313.0</ele><time>2026-04-04T16:39:07.691Z</time></trkpt><trkpt lat="43.874485" lon="12.6692417"><ele>310.75</ele><time>2026-04-04T16:39:08.69Z</time></trkpt><trkpt lat="43.87447" lon="12.6694617"><ele>308.5</ele><time>2026-04-04T16:39:09.689Z</time></trkpt><trkpt lat="43.8744583" lon="12.6696517"><ele>306.25</ele><time>2026-04-04T16:39:10.691Z</time></trkpt><trkpt lat="43.8744367" lon="12.6698383"><ele>304.0</ele><time>2026-04-04T16:39:11.691Z</time></trkpt><trkpt lat="43.8743467" lon="12.6702067"><ele>306.25</ele><time>2026-04-04T16:39:13.691Z</time></trkpt><trkpt lat="43.8742883" lon="12.6703883"><ele>308.5</ele><time>2026-04-04T16:39:14.689Z</time></trkpt><trkpt lat="43.8742217" lon="12.67056"><ele>310.75</ele><time>2026-04-04T16:39:15.689Z</time></trkpt><trkpt lat="43.8741517" lon="12.6707233"><ele>313.0</ele><time>2026-04-04T16:39:16.689Z</time></trkpt><trkpt lat="43.8740833" lon="12.670885"><ele>313.0</ele><time>2026-04-04T16:39:17.689Z</time></trkpt><trkpt lat="43.8740167" lon="12.6710367"><ele>313.0</ele><time>2026-04-04T16:39:18.688Z</time></trkpt><trkpt lat="43.8739533" lon="12.671185"><ele>313.0</ele><time>2026-04-04T16:39:19.69Z</time></trkpt><trkpt lat="43.873895" lon="12.6713283"><ele>313.0</ele><time>2026-04-04T16:39:20.689Z</time></trkpt><trkpt lat="43.8738417" lon="12.6714633"><ele>310.4</ele><time>2026-04-04T16:39:21.688Z</time></trkpt><trkpt lat="43.8737883" lon="12.6715883"><ele>307.8</ele><time>2026-04-04T16:39:22.688Z</time></trkpt><trkpt lat="43.87374" lon="12.67171"><ele>305.2</ele><time>2026-04-04T16:39:23.689Z</time></trkpt><trkpt lat="43.8736933" lon="12.6718333"><ele>302.6</ele><time>2026-04-04T16:39:24.689Z</time></trkpt><trkpt lat="43.8736483" lon="12.6719667"><ele>300.0</ele><time>2026-04-04T16:39:25.69Z</time></trkpt><trkpt lat="43.8736033" lon="12.6721083"><ele>301.5</ele><time>2026-04-04T16:39:26.69Z</time></trkpt><trkpt lat="43.87356" lon="12.6722533"><ele>303.0</ele><time>2026-04-04T16:39:27.69Z</time></trkpt><trkpt lat="43.873515" lon="12.672405"><ele>304.5</ele><time>2026-04-04T16:39:28.69Z</time></trkpt><trkpt lat="43.8734717" lon="12.6725533"><ele>306.0</ele><time>2026-04-04T16:39:29.69Z</time></trkpt><trkpt lat="43.87343" lon="12.6726967"><ele>305.5</ele><time>2026-04-04T16:39:30.689Z</time></trkpt><trkpt lat="43.8733867" lon="12.67283"><ele>305.0</ele><time>2026-04-04T16:39:31.689Z</time></trkpt><trkpt lat="43.8733433" lon="12.6729617"><ele>304.5</ele><time>2026-04-04T16:39:32.691Z</time></trkpt><trkpt lat="43.8732617" lon="12.673245"><ele>304.0</ele><time>2026-04-04T16:39:34.689Z</time></trkpt><trkpt lat="43.8732183" lon="12.6733817"><ele>304.0</ele><time>2026-04-04T16:39:35.689Z</time></trkpt><trkpt lat="43.873175" lon="12.6735217"><ele>304.0</ele><time>2026-04-04T16:39:36.687Z</time></trkpt><trkpt lat="43.8731367" lon="12.67367"><ele>304.0</ele><time>2026-04-04T16:39:37.689Z</time></trkpt><trkpt lat="43.8731067" lon="12.6738267"><ele>304.0</ele><time>2026-04-04T16:39:38.69Z</time></trkpt><trkpt lat="43.8730883" lon="12.673985"><ele>304.0</ele><time>2026-04-04T16:39:39.687Z</time></trkpt><trkpt lat="43.8730783" lon="12.6741483"><ele>304.0</ele><time>2026-04-04T16:39:40.689Z</time></trkpt><trkpt lat="43.8730867" lon="12.6743167"><ele>304.0</ele><time>2026-04-04T16:39:41.689Z</time></trkpt><trkpt lat="43.8731083" lon="12.67449"><ele>304.0</ele><time>2026-04-04T16:39:42.689Z</time></trkpt><trkpt lat="43.873145" lon="12.6746667"><ele>302.25</ele><time>2026-04-04T16:39:43.691Z</time></trkpt><trkpt lat="43.8731933" lon="12.674845"><ele>300.5</ele><time>2026-04-04T16:39:44.69Z</time></trkpt><trkpt lat="43.87325" lon="12.6750217"><ele>298.75</ele><time>2026-04-04T16:39:45.689Z</time></trkpt><trkpt lat="43.8733083" lon="12.6752"><ele>297.0</ele><time>2026-04-04T16:39:46.688Z</time></trkpt><trkpt lat="43.873365" lon="12.6753733"><ele>296.75</ele><time>2026-04-04T16:39:47.687Z</time></trkpt><trkpt lat="43.8734183" lon="12.6755433"><ele>296.5</ele><time>2026-04-04T16:39:48.689Z</time></trkpt><trkpt lat="43.873465" lon="12.6757117"><ele>296.25</ele><time>2026-04-04T16:39:49.689Z</time></trkpt><trkpt lat="43.873515" lon="12.6758767"><ele>296.0</ele><time>2026-04-04T16:39:50.689Z</time></trkpt><trkpt lat="43.8735667" lon="12.676035"><ele>291.6666666666667</ele><time>2026-04-04T16:39:51.689Z</time></trkpt><trkpt lat="43.8736167" lon="12.676185"><ele>287.3333333333333</ele><time>2026-04-04T16:39:52.688Z</time></trkpt><trkpt lat="43.8736667" lon="12.6763267"><ele>283.0</ele><time>2026-04-04T16:39:53.69Z</time></trkpt><trkpt lat="43.8737967" lon="12.6765717"><ele>283.0</ele><time>2026-04-04T16:39:55.69Z</time></trkpt><trkpt lat="43.87389" lon="12.676645"><ele>283.0</ele><time>2026-04-04T16:39:56.688Z</time></trkpt><trkpt lat="43.8739983" lon="12.6766883"><ele>283.0</ele><time>2026-04-04T16:39:57.69Z</time></trkpt><trkpt lat="43.8741217" lon="12.676695"><ele>283.0</ele><time>2026-04-04T16:39:58.69Z</time></trkpt><trkpt lat="43.8742483" lon="12.6766617"><ele>280.0</ele><time>2026-04-04T16:39:59.691Z</time></trkpt><trkpt lat="43.8743767" lon="12.676595"><ele>277.0</ele><time>2026-04-04T16:40:00.689Z</time></trkpt><trkpt lat="43.874505" lon="12.6765133"><ele>274.0</ele><time>2026-04-04T16:40:01.691Z</time></trkpt><trkpt lat="43.874635" lon="12.6764317"><ele>271.0</ele><time>2026-04-04T16:40:02.69Z</time></trkpt><trkpt lat="43.874765" lon="12.6763533"><ele>271.0</ele><time>2026-04-04T16:40:03.691Z</time></trkpt><trkpt lat="43.87489" lon="12.6762767"><ele>271.0</ele><time>2026-04-04T16:40:04.689Z</time></trkpt><trkpt lat="43.8750117" lon="12.6762"><ele>271.0</ele><time>2026-04-04T16:40:05.69Z</time></trkpt><trkpt lat="43.8751217" lon="12.6761017"><ele>271.0</ele><time>2026-04-04T16:40:06.691Z</time></trkpt><trkpt lat="43.8752183" lon="12.6759633"><ele>268.3333333333333</ele><time>2026-04-04T16:40:07.691Z</time></trkpt><trkpt lat="43.8753033" lon="12.6758033"><ele>265.6666666666667</ele><time>2026-04-04T16:40:08.687Z</time></trkpt><trkpt lat="43.87538" lon="12.675625"><ele>263.0</ele><time>2026-04-04T16:40:09.69Z</time></trkpt><trkpt lat="43.8754617" lon="12.6754383"><ele>263.33333333333337</ele><time>2026-04-04T16:40:10.69Z</time></trkpt><trkpt lat="43.87554" lon="12.67525"><ele>263.6666666666667</ele><time>2026-04-04T16:40:11.69Z</time></trkpt><trkpt lat="43.8756133" lon="12.6750567"><ele>264.0</ele><time>2026-04-04T16:40:12.689Z</time></trkpt><trkpt lat="43.87568" lon="12.6748633"><ele>264.0</ele><time>2026-04-04T16:40:13.691Z</time></trkpt><trkpt lat="43.8757367" lon="12.6746783"><ele>264.0</ele><time>2026-04-04T16:40:14.686Z</time></trkpt><trkpt lat="43.8757983" lon="12.6743117"><ele>264.0</ele><time>2026-04-04T16:40:16.691Z</time></trkpt><trkpt lat="43.87579" lon="12.6741217"><ele>264.5</ele><time>2026-04-04T16:40:17.686Z</time></trkpt><trkpt lat="43.8757667" lon="12.67393"><ele>265.0</ele><time>2026-04-04T16:40:18.689Z</time></trkpt><trkpt lat="43.875735" lon="12.6737417"><ele>265.5</ele><time>2026-04-04T16:40:19.691Z</time></trkpt><trkpt lat="43.8757117" lon="12.6735617"><ele>266.0</ele><time>2026-04-04T16:40:20.688Z</time></trkpt><trkpt lat="43.8757033" lon="12.6733767"><ele>266.0</ele><time>2026-04-04T16:40:21.687Z</time></trkpt><trkpt lat="43.8757117" lon="12.673185"><ele>266.0</ele><time>2026-04-04T16:40:22.689Z</time></trkpt><trkpt lat="43.8757383" lon="12.6729867"><ele>266.0</ele><time>2026-04-04T16:40:23.689Z</time></trkpt><trkpt lat="43.87578" lon="12.6727883"><ele>266.0</ele><time>2026-04-04T16:40:24.69Z</time></trkpt><trkpt lat="43.8758233" lon="12.672585"><ele>265.0</ele><time>2026-04-04T16:40:25.69Z</time></trkpt><trkpt lat="43.87587" lon="12.672385"><ele>264.0</ele><time>2026-04-04T16:40:26.688Z</time></trkpt><trkpt lat="43.8759133" lon="12.6721867"><ele>263.0</ele><time>2026-04-04T16:40:27.688Z</time></trkpt><trkpt lat="43.87596" lon="12.671995"><ele>262.0</ele><time>2026-04-04T16:40:28.689Z</time></trkpt><trkpt lat="43.8760183" lon="12.6718233"><ele>260.0</ele><time>2026-04-04T16:40:29.688Z</time></trkpt><trkpt lat="43.8760933" lon="12.671675"><ele>258.0</ele><time>2026-04-04T16:40:30.689Z</time></trkpt><trkpt lat="43.8761933" lon="12.6715433"><ele>256.0</ele><time>2026-04-04T16:40:31.692Z</time></trkpt><trkpt lat="43.8763133" lon="12.6714317"><ele>254.0</ele><time>2026-04-04T16:40:32.69Z</time></trkpt><trkpt lat="43.8764533" lon="12.67135"><ele>254.0</ele><time>2026-04-04T16:40:33.689Z</time></trkpt><trkpt lat="43.8766067" lon="12.6713033"><ele>254.0</ele><time>2026-04-04T16:40:34.69Z</time></trkpt><trkpt lat="43.8767683" lon="12.6712833"><ele>254.0</ele><time>2026-04-04T16:40:35.69Z</time></trkpt><trkpt lat="43.8771033" lon="12.6712483"><ele>251.0</ele><time>2026-04-04T16:40:37.691Z</time></trkpt><trkpt lat="43.8772733" lon="12.6712333"><ele>248.0</ele><time>2026-04-04T16:40:38.687Z</time></trkpt><trkpt lat="43.8774433" lon="12.671215"><ele>245.0</ele><time>2026-04-04T16:40:39.687Z</time></trkpt><trkpt lat="43.8776167" lon="12.67119"><ele>245.66666666666669</ele><time>2026-04-04T16:40:40.688Z</time></trkpt><trkpt lat="43.8777917" lon="12.6711633"><ele>246.33333333333331</ele><time>2026-04-04T16:40:41.692Z</time></trkpt><trkpt lat="43.8779667" lon="12.6711333"><ele>247.0</ele><time>2026-04-04T16:40:42.689Z</time></trkpt><trkpt lat="43.8781367" lon="12.6711033"><ele>247.0</ele><time>2026-04-04T16:40:43.692Z</time></trkpt><trkpt lat="43.8782967" lon="12.6710817"><ele>247.0</ele><time>2026-04-04T16:40:44.689Z</time></trkpt><trkpt lat="43.8784533" lon="12.671055"><ele>247.0</ele><time>2026-04-04T16:40:45.689Z</time></trkpt><trkpt lat="43.8786067" lon="12.6710317"><ele>244.0</ele><time>2026-04-04T16:40:46.689Z</time></trkpt><trkpt lat="43.878755" lon="12.6710183"><ele>241.0</ele><time>2026-04-04T16:40:47.689Z</time></trkpt><trkpt lat="43.8788917" lon="12.6709967"><ele>238.0</ele><time>2026-04-04T16:40:48.69Z</time></trkpt><trkpt lat="43.8790217" lon="12.6709483"><ele>235.0</ele><time>2026-04-04T16:40:49.691Z</time></trkpt><trkpt lat="43.8791367" lon="12.670865"><ele>235.0</ele><time>2026-04-04T16:40:50.688Z</time></trkpt><trkpt lat="43.879245" lon="12.6707467"><ele>235.0</ele><time>2026-04-04T16:40:51.689Z</time></trkpt><trkpt lat="43.8793467" lon="12.6706083"><ele>235.0</ele><time>2026-04-04T16:40:52.689Z</time></trkpt><trkpt lat="43.8794483" lon="12.67046"><ele>235.0</ele><time>2026-04-04T16:40:53.689Z</time></trkpt><trkpt lat="43.8795617" lon="12.67032"><ele>233.33333333333331</ele><time>2026-04-04T16:40:54.689Z</time></trkpt><trkpt lat="43.8796883" lon="12.6702033"><ele>231.66666666666669</ele><time>2026-04-04T16:40:55.69Z</time></trkpt><trkpt lat="43.8798283" lon="12.67012"><ele>230.0</ele><time>2026-04-04T16:40:56.686Z</time></trkpt><trkpt lat="43.8801367" lon="12.6700283"><ele>226.75</ele><time>2026-04-04T16:40:58.688Z</time></trkpt><trkpt lat="43.8802883" lon="12.6699917"><ele>223.5</ele><time>2026-04-04T16:40:59.69Z</time></trkpt><trkpt lat="43.8804317" lon="12.669945"><ele>220.25</ele><time>2026-04-04T16:41:00.691Z</time></trkpt><trkpt lat="43.880565" lon="12.66988"><ele>217.0</ele><time>2026-04-04T16:41:01.691Z</time></trkpt><trkpt lat="43.8806833" lon="12.6697933"><ele>217.0</ele><time>2026-04-04T16:41:02.688Z</time></trkpt><trkpt lat="43.8807867" lon="12.669685"><ele>217.0</ele><time>2026-04-04T16:41:03.689Z</time></trkpt><trkpt lat="43.8808683" lon="12.669555"><ele>217.0</ele><time>2026-04-04T16:41:04.689Z</time></trkpt><trkpt lat="43.880925" lon="12.669395"><ele>217.0</ele><time>2026-04-04T16:41:05.689Z</time></trkpt><trkpt lat="43.8809617" lon="12.6692083"><ele>213.33333333333331</ele><time>2026-04-04T16:41:06.688Z</time></trkpt><trkpt lat="43.8809967" lon="12.6690083"><ele>209.66666666666669</ele><time>2026-04-04T16:41:07.694Z</time></trkpt><trkpt lat="43.8810367" lon="12.668805"><ele>206.0</ele><time>2026-04-04T16:41:08.687Z</time></trkpt><trkpt lat="43.88108" lon="12.668605"><ele>206.0</ele><time>2026-04-04T16:41:09.688Z</time></trkpt><trkpt lat="43.881125" lon="12.6684083"><ele>206.0</ele><time>2026-04-04T16:41:10.688Z</time></trkpt><trkpt lat="43.8811683" lon="12.668215"><ele>206.0</ele><time>2026-04-04T16:41:11.689Z</time></trkpt><trkpt lat="43.8812083" lon="12.6680283"><ele>206.0</ele><time>2026-04-04T16:41:12.689Z</time></trkpt><trkpt lat="43.881245" lon="12.6678583"><ele>206.0</ele><time>2026-04-04T16:41:13.69Z</time></trkpt><trkpt lat="43.881285" lon="12.6677167"><ele>206.0</ele><time>2026-04-04T16:41:14.691Z</time></trkpt><trkpt lat="43.881335" lon="12.6676117"><ele>206.0</ele><time>2026-04-04T16:41:15.69Z</time></trkpt><trkpt lat="43.8813983" lon="12.6675417"><ele>206.0</ele><time>2026-04-04T16:41:16.689Z</time></trkpt><trkpt lat="43.8814683" lon="12.667515"><ele>206.0</ele><time>2026-04-04T16:41:17.689Z</time></trkpt><trkpt lat="43.88159" lon="12.6675983"><ele>206.0</ele><time>2026-04-04T16:41:19.689Z</time></trkpt><trkpt lat="43.8816233" lon="12.6676767"><ele>206.0</ele><time>2026-04-04T16:41:20.688Z</time></trkpt><trkpt lat="43.8816267" lon="12.66783"><ele>206.0</ele><time>2026-04-04T16:41:21.688Z</time></trkpt><trkpt lat="43.8816017" lon="12.6680717"><ele>206.0</ele><time>2026-04-04T16:41:22.69Z</time></trkpt><trkpt lat="43.881585" lon="12.6683017"><ele>206.0</ele><time>2026-04-04T16:41:23.688Z</time></trkpt><trkpt lat="43.8815733" lon="12.668525"><ele>206.0</ele><time>2026-04-04T16:41:24.691Z</time></trkpt><trkpt lat="43.881565" lon="12.6687333"><ele>206.0</ele><time>2026-04-04T16:41:25.69Z</time></trkpt><trkpt lat="43.8815583" lon="12.66894"><ele>205.75</ele><time>2026-04-04T16:41:26.689Z</time></trkpt><trkpt lat="43.8815533" lon="12.6691433"><ele>205.5</ele><time>2026-04-04T16:41:27.689Z</time></trkpt><trkpt lat="43.8815517" lon="12.6693383"><ele>205.25</ele><time>2026-04-04T16:41:28.689Z</time></trkpt><trkpt lat="43.8815533" lon="12.6695267"><ele>205.0</ele><time>2026-04-04T16:41:29.69Z</time></trkpt><trkpt lat="43.88157" lon="12.6697017"><ele>204.0</ele><time>2026-04-04T16:41:30.688Z</time></trkpt><trkpt lat="43.8816117" lon="12.6698633"><ele>203.0</ele><time>2026-04-04T16:41:31.691Z</time></trkpt><trkpt lat="43.881775" lon="12.670125"><ele>202.0</ele><time>2026-04-04T16:41:33.689Z</time></trkpt><trkpt lat="43.88189" lon="12.670215"><ele>200.0</ele><time>2026-04-04T16:41:34.693Z</time></trkpt><trkpt lat="43.8820183" lon="12.6702783"><ele>198.0</ele><time>2026-04-04T16:41:35.686Z</time></trkpt><trkpt lat="43.88216" lon="12.6703217"><ele>196.0</ele><time>2026-04-04T16:41:36.689Z</time></trkpt><trkpt lat="43.8823083" lon="12.6703667"><ele>194.0</ele><time>2026-04-04T16:41:37.689Z</time></trkpt><trkpt lat="43.8824567" lon="12.6704217"><ele>193.0</ele><time>2026-04-04T16:41:38.69Z</time></trkpt><trkpt lat="43.8827467" lon="12.670575"><ele>192.0</ele><time>2026-04-04T16:41:40.689Z</time></trkpt><trkpt lat="43.8828883" lon="12.6706867"><ele>192.0</ele><time>2026-04-04T16:41:41.686Z</time></trkpt><trkpt lat="43.8830267" lon="12.6708233"><ele>192.0</ele><time>2026-04-04T16:41:42.691Z</time></trkpt><trkpt lat="43.883165" lon="12.6709683"><ele>192.0</ele><time>2026-04-04T16:41:43.691Z</time></trkpt><trkpt lat="43.8833017" lon="12.6711233"><ele>191.0</ele><time>2026-04-04T16:41:44.691Z</time></trkpt><trkpt lat="43.8834417" lon="12.67128"><ele>190.0</ele><time>2026-04-04T16:41:45.69Z</time></trkpt><trkpt lat="43.8835917" lon="12.6714283"><ele>189.0</ele><time>2026-04-04T16:41:46.686Z</time></trkpt><trkpt lat="43.883755" lon="12.6715567"><ele>189.0</ele><time>2026-04-04T16:41:47.687Z</time></trkpt><trkpt lat="43.88392" lon="12.6716633"><ele>189.0</ele><time>2026-04-04T16:41:48.688Z</time></trkpt><trkpt lat="43.88408" lon="12.6717533"><ele>189.0</ele><time>2026-04-04T16:41:49.69Z</time></trkpt><trkpt lat="43.884235" lon="12.671835"><ele>189.0</ele><time>2026-04-04T16:41:50.686Z</time></trkpt><trkpt lat="43.884385" lon="12.671925"><ele>189.0</ele><time>2026-04-04T16:41:51.687Z</time></trkpt><trkpt lat="43.8845283" lon="12.6720267"><ele>189.0</ele><time>2026-04-04T16:41:52.689Z</time></trkpt><trkpt lat="43.8846683" lon="12.6721283"><ele>189.0</ele><time>2026-04-04T16:41:53.692Z</time></trkpt><trkpt lat="43.8848" lon="12.6722283"><ele>189.0</ele><time>2026-04-04T16:41:54.688Z</time></trkpt><trkpt lat="43.88493" lon="12.6723267"><ele>189.0</ele><time>2026-04-04T16:41:55.69Z</time></trkpt><trkpt lat="43.8850633" lon="12.6724233"><ele>189.0</ele><time>2026-04-04T16:41:56.69Z</time></trkpt><trkpt lat="43.8852033" lon="12.6725217"><ele>188.0</ele><time>2026-04-04T16:41:57.687Z</time></trkpt><trkpt lat="43.8853517" lon="12.6726183"><ele>187.0</ele><time>2026-04-04T16:41:58.688Z</time></trkpt><trkpt lat="43.8855" lon="12.6727117"><ele>186.0</ele><time>2026-04-04T16:41:59.688Z</time></trkpt><trkpt lat="43.8858117" lon="12.6729017"><ele>184.33333333333334</ele><time>2026-04-04T16:42:01.692Z</time></trkpt><trkpt lat="43.885975" lon="12.673"><ele>182.66666666666669</ele><time>2026-04-04T16:42:02.69Z</time></trkpt><trkpt lat="43.886145" lon="12.6730967"><ele>181.0</ele><time>2026-04-04T16:42:03.688Z</time></trkpt><trkpt lat="43.886315" lon="12.67319"><ele>181.0</ele><time>2026-04-04T16:42:04.689Z</time></trkpt><trkpt lat="43.8864867" lon="12.6732833"><ele>181.0</ele><time>2026-04-04T16:42:05.688Z</time></trkpt><trkpt lat="43.88666" lon="12.6733733"><ele>181.0</ele><time>2026-04-04T16:42:06.689Z</time></trkpt><trkpt lat="43.8868283" lon="12.6734633"><ele>181.0</ele><time>2026-04-04T16:42:07.693Z</time></trkpt><trkpt lat="43.8869867" lon="12.6735533"><ele>181.0</ele><time>2026-04-04T16:42:08.689Z</time></trkpt><trkpt lat="43.887145" lon="12.6736367"><ele>181.0</ele><time>2026-04-04T16:42:09.689Z</time></trkpt><trkpt lat="43.887305" lon="12.6737167"><ele>181.0</ele><time>2026-04-04T16:42:10.691Z</time></trkpt><trkpt lat="43.8874667" lon="12.6737883"><ele>181.0</ele><time>2026-04-04T16:42:11.688Z</time></trkpt><trkpt lat="43.8876317" lon="12.6738517"><ele>181.0</ele><time>2026-04-04T16:42:12.688Z</time></trkpt><trkpt lat="43.8878" lon="12.6739117"><ele>180.0</ele><time>2026-04-04T16:42:13.689Z</time></trkpt><trkpt lat="43.8879683" lon="12.67397"><ele>179.0</ele><time>2026-04-04T16:42:14.689Z</time></trkpt><trkpt lat="43.88814" lon="12.674025"><ele>178.0</ele><time>2026-04-04T16:42:15.689Z</time></trkpt><trkpt lat="43.8883183" lon="12.6740733"><ele>177.33333333333334</ele><time>2026-04-04T16:42:16.689Z</time></trkpt><trkpt lat="43.88849" lon="12.67413"><ele>176.66666666666666</ele><time>2026-04-04T16:42:17.689Z</time></trkpt><trkpt lat="43.888655" lon="12.67419"><ele>176.0</ele><time>2026-04-04T16:42:18.689Z</time></trkpt><trkpt lat="43.88882" lon="12.6742583"><ele>176.0</ele><time>2026-04-04T16:42:19.692Z</time></trkpt><trkpt lat="43.8889833" lon="12.6743417"><ele>176.0</ele><time>2026-04-04T16:42:20.689Z</time></trkpt><trkpt lat="43.8891367" lon="12.6744367"><ele>176.0</ele><time>2026-04-04T16:42:21.688Z</time></trkpt><trkpt lat="43.88941" lon="12.6746617"><ele>177.0</ele><time>2026-04-04T16:42:23.69Z</time></trkpt><trkpt lat="43.88965" lon="12.6749517"><ele>178.0</ele><time>2026-04-04T16:42:25.69Z</time></trkpt><trkpt lat="43.8897567" lon="12.6751233"><ele>178.66666666666669</ele><time>2026-04-04T16:42:26.689Z</time></trkpt><trkpt lat="43.8898617" lon="12.675305"><ele>179.33333333333334</ele><time>2026-04-04T16:42:27.69Z</time></trkpt><trkpt lat="43.889965" lon="12.6754883"><ele>180.0</ele><time>2026-04-04T16:42:28.689Z</time></trkpt><trkpt lat="43.89007" lon="12.675675"><ele>179.66666666666666</ele><time>2026-04-04T16:42:29.69Z</time></trkpt><trkpt lat="43.8901767" lon="12.675865"><ele>179.33333333333331</ele><time>2026-04-04T16:42:30.689Z</time></trkpt><trkpt lat="43.8902817" lon="12.6760533"><ele>179.0</ele><time>2026-04-04T16:42:31.691Z</time></trkpt><trkpt lat="43.8903833" lon="12.6762367"><ele>181.33333333333331</ele><time>2026-04-04T16:42:32.69Z</time></trkpt><trkpt lat="43.8904817" lon="12.6764067"><ele>183.66666666666666</ele><time>2026-04-04T16:42:33.688Z</time></trkpt><trkpt lat="43.890575" lon="12.67657"><ele>186.0</ele><time>2026-04-04T16:42:34.688Z</time></trkpt><trkpt lat="43.89067" lon="12.6767267"><ele>186.0</ele><time>2026-04-04T16:42:35.689Z</time></trkpt><trkpt lat="43.8907683" lon="12.67688"><ele>186.0</ele><time>2026-04-04T16:42:36.69Z</time></trkpt><trkpt lat="43.89087" lon="12.6770333"><ele>186.0</ele><time>2026-04-04T16:42:37.691Z</time></trkpt><trkpt lat="43.8909767" lon="12.6771883"><ele>186.66666666666666</ele><time>2026-04-04T16:42:38.689Z</time></trkpt><trkpt lat="43.8910883" lon="12.6773367"><ele>187.33333333333331</ele><time>2026-04-04T16:42:39.69Z</time></trkpt><trkpt lat="43.8912067" lon="12.6774767"><ele>188.0</ele><time>2026-04-04T16:42:40.69Z</time></trkpt><trkpt lat="43.8913317" lon="12.677605"><ele>188.0</ele><time>2026-04-04T16:42:41.689Z</time></trkpt><trkpt lat="43.8914667" lon="12.67772"><ele>188.0</ele><time>2026-04-04T16:42:42.69Z</time></trkpt><trkpt lat="43.89173" lon="12.6779667"><ele>185.33333333333331</ele><time>2026-04-04T16:42:44.689Z</time></trkpt><trkpt lat="43.8918467" lon="12.6781117"><ele>182.66666666666666</ele><time>2026-04-04T16:42:45.687Z</time></trkpt><trkpt lat="43.8919567" lon="12.6782783"><ele>180.0</ele><time>2026-04-04T16:42:46.69Z</time></trkpt><trkpt lat="43.8920617" lon="12.678455"><ele>181.0</ele><time>2026-04-04T16:42:47.69Z</time></trkpt><trkpt lat="43.8921633" lon="12.678645"><ele>182.0</ele><time>2026-04-04T16:42:48.689Z</time></trkpt><trkpt lat="43.8922667" lon="12.6788383"><ele>183.0</ele><time>2026-04-04T16:42:49.691Z</time></trkpt><trkpt lat="43.8923767" lon="12.6790267"><ele>183.0</ele><time>2026-04-04T16:42:50.69Z</time></trkpt><trkpt lat="43.892485" lon="12.6792017"><ele>183.0</ele><time>2026-04-04T16:42:51.69Z</time></trkpt><trkpt lat="43.8926017" lon="12.67937"><ele>183.0</ele><time>2026-04-04T16:42:52.687Z</time></trkpt><trkpt lat="43.892725" lon="12.67954"><ele>183.0</ele><time>2026-04-04T16:42:53.687Z</time></trkpt><trkpt lat="43.8928533" lon="12.6796983"><ele>183.0</ele><time>2026-04-04T16:42:54.688Z</time></trkpt><trkpt lat="43.89299" lon="12.6798433"><ele>183.0</ele><time>2026-04-04T16:42:55.69Z</time></trkpt><trkpt lat="43.8931333" lon="12.6799683"><ele>183.0</ele><time>2026-04-04T16:42:56.688Z</time></trkpt><trkpt lat="43.8932783" lon="12.6800867"><ele>183.0</ele><time>2026-04-04T16:42:57.688Z</time></trkpt><trkpt lat="43.893425" lon="12.6802"><ele>183.0</ele><time>2026-04-04T16:42:58.688Z</time></trkpt><trkpt lat="43.8935717" lon="12.68031"><ele>182.33333333333334</ele><time>2026-04-04T16:42:59.687Z</time></trkpt><trkpt lat="43.893715" lon="12.680415"><ele>181.66666666666669</ele><time>2026-04-04T16:43:00.688Z</time></trkpt><trkpt lat="43.893865" lon="12.680525"><ele>181.0</ele><time>2026-04-04T16:43:01.69Z</time></trkpt><trkpt lat="43.8940217" lon="12.6806367"><ele>181.0</ele><time>2026-04-04T16:43:02.688Z</time></trkpt><trkpt lat="43.8941817" lon="12.68075"><ele>181.0</ele><time>2026-04-04T16:43:03.686Z</time></trkpt><trkpt lat="43.8944867" lon="12.6809667"><ele>180.66666666666669</ele><time>2026-04-04T16:43:05.688Z</time></trkpt><trkpt lat="43.8946283" lon="12.6810633"><ele>180.33333333333334</ele><time>2026-04-04T16:43:06.687Z</time></trkpt><trkpt lat="43.8947583" lon="12.6811567"><ele>180.0</ele><time>2026-04-04T16:43:07.692Z</time></trkpt><trkpt lat="43.895015" lon="12.6813333"><ele>179.5</ele><time>2026-04-04T16:43:09.687Z</time></trkpt><trkpt lat="43.895145" lon="12.6814283"><ele>179.0</ele><time>2026-04-04T16:43:10.689Z</time></trkpt><trkpt lat="43.8952783" lon="12.681525"><ele>178.5</ele><time>2026-04-04T16:43:11.689Z</time></trkpt><trkpt lat="43.895415" lon="12.6816117"><ele>178.0</ele><time>2026-04-04T16:43:12.689Z</time></trkpt><trkpt lat="43.8955533" lon="12.6817033"><ele>178.0</ele><time>2026-04-04T16:43:13.689Z</time></trkpt><trkpt lat="43.8956917" lon="12.6818017"><ele>178.0</ele><time>2026-04-04T16:43:14.688Z</time></trkpt><trkpt lat="43.8958283" lon="12.6818933"><ele>178.0</ele><time>2026-04-04T16:43:15.687Z</time></trkpt><trkpt lat="43.895955" lon="12.681985"><ele>177.5</ele><time>2026-04-04T16:43:16.688Z</time></trkpt><trkpt lat="43.896075" lon="12.682075"><ele>177.0</ele><time>2026-04-04T16:43:17.688Z</time></trkpt><trkpt lat="43.8961883" lon="12.6821533"><ele>176.5</ele><time>2026-04-04T16:43:18.689Z</time></trkpt><trkpt lat="43.8962917" lon="12.6822267"><ele>176.0</ele><time>2026-04-04T16:43:19.69Z</time></trkpt><trkpt lat="43.8963817" lon="12.6822933"><ele>176.0</ele><time>2026-04-04T16:43:20.688Z</time></trkpt><trkpt lat="43.8964583" lon="12.68236"><ele>176.0</ele><time>2026-04-04T16:43:21.69Z</time></trkpt><trkpt lat="43.896525" lon="12.6824267"><ele>176.0</ele><time>2026-04-04T16:43:22.689Z</time></trkpt><trkpt lat="43.89658" lon="12.6824933"><ele>176.0</ele><time>2026-04-04T16:43:23.688Z</time></trkpt><trkpt lat="43.8966317" lon="12.6825483"><ele>176.0</ele><time>2026-04-04T16:43:24.688Z</time></trkpt><trkpt lat="43.8968017" lon="12.6825117"><ele>175.5</ele><time>2026-04-04T16:43:27.688Z</time></trkpt><trkpt lat="43.8968633" lon="12.6824517"><ele>175.0</ele><time>2026-04-04T16:43:28.686Z</time></trkpt><trkpt lat="43.8969317" lon="12.6824033"><ele>174.5</ele><time>2026-04-04T16:43:29.689Z</time></trkpt><trkpt lat="43.8970083" lon="12.6823717"><ele>174.0</ele><time>2026-04-04T16:43:30.687Z</time></trkpt><trkpt lat="43.897095" lon="12.6823433"><ele>173.5</ele><time>2026-04-04T16:43:31.69Z</time></trkpt><trkpt lat="43.8971883" lon="12.6823067"><ele>173.0</ele><time>2026-04-04T16:43:32.686Z</time></trkpt><trkpt lat="43.8972883" lon="12.68226"><ele>173.0</ele><time>2026-04-04T16:43:33.687Z</time></trkpt><trkpt lat="43.8973917" lon="12.682205"><ele>173.0</ele><time>2026-04-04T16:43:34.687Z</time></trkpt><trkpt lat="43.8974983" lon="12.6821367"><ele>173.0</ele><time>2026-04-04T16:43:35.688Z</time></trkpt><trkpt lat="43.8976083" lon="12.6820517"><ele>173.0</ele><time>2026-04-04T16:43:36.689Z</time></trkpt><trkpt lat="43.897715" lon="12.681955"><ele>171.0</ele><time>2026-04-04T16:43:37.688Z</time></trkpt><trkpt lat="43.8978183" lon="12.6818617"><ele>169.0</ele><time>2026-04-04T16:43:38.686Z</time></trkpt><trkpt lat="43.8979217" lon="12.68178"><ele>167.0</ele><time>2026-04-04T16:43:39.687Z</time></trkpt><trkpt lat="43.8980333" lon="12.6817283"><ele>165.0</ele><time>2026-04-04T16:43:40.69Z</time></trkpt><trkpt lat="43.8981567" lon="12.6817017"><ele>165.0</ele><time>2026-04-04T16:43:41.689Z</time></trkpt><trkpt lat="43.898285" lon="12.6816933"><ele>165.0</ele><time>2026-04-04T16:43:42.688Z</time></trkpt><trkpt lat="43.8984133" lon="12.6816833"><ele>165.0</ele><time>2026-04-04T16:43:43.69Z</time></trkpt><trkpt lat="43.89854" lon="12.681675"><ele>165.0</ele><time>2026-04-04T16:43:44.685Z</time></trkpt><trkpt lat="43.898665" lon="12.6816667"><ele>164.5</ele><time>2026-04-04T16:43:45.687Z</time></trkpt><trkpt lat="43.8988983" lon="12.6816433"><ele>164.0</ele><time>2026-04-04T16:43:47.69Z</time></trkpt><trkpt lat="43.8990033" lon="12.6816283"><ele>163.5</ele><time>2026-04-04T16:43:48.686Z</time></trkpt><trkpt lat="43.8990967" lon="12.6815983"><ele>163.0</ele><time>2026-04-04T16:43:49.689Z</time></trkpt><trkpt lat="43.8991667" lon="12.6815317"><ele>163.0</ele><time>2026-04-04T16:43:50.686Z</time></trkpt><trkpt lat="43.8992217" lon="12.68144"><ele>163.0</ele><time>2026-04-04T16:43:51.687Z</time></trkpt><trkpt lat="43.899235" lon="12.68133"><ele>163.0</ele><time>2026-04-04T16:43:52.688Z</time></trkpt><trkpt lat="43.8992117" lon="12.6811967"><ele>163.0</ele><time>2026-04-04T16:43:53.689Z</time></trkpt><trkpt lat="43.8991317" lon="12.6810383"><ele>163.0</ele><time>2026-04-04T16:43:54.689Z</time></trkpt><trkpt lat="43.899045" lon="12.68087"><ele>161.25</ele><time>2026-04-04T16:43:55.689Z</time></trkpt><trkpt lat="43.8989733" lon="12.680685"><ele>159.5</ele><time>2026-04-04T16:43:56.687Z</time></trkpt><trkpt lat="43.8989317" lon="12.68049"><ele>157.75</ele><time>2026-04-04T16:43:57.687Z</time></trkpt><trkpt lat="43.8989183" lon="12.680295"><ele>156.0</ele><time>2026-04-04T16:43:58.688Z</time></trkpt><trkpt lat="43.8989167" lon="12.68009"><ele>154.33333333333334</ele><time>2026-04-04T16:43:59.689Z</time></trkpt><trkpt lat="43.89892" lon="12.679875"><ele>152.66666666666669</ele><time>2026-04-04T16:44:00.688Z</time></trkpt><trkpt lat="43.8989267" lon="12.6796483"><ele>151.0</ele><time>2026-04-04T16:44:01.689Z</time></trkpt><trkpt lat="43.898935" lon="12.67941"><ele>150.0</ele><time>2026-04-04T16:44:02.688Z</time></trkpt><trkpt lat="43.89894" lon="12.6791733"><ele>149.0</ele><time>2026-04-04T16:44:03.689Z</time></trkpt><trkpt lat="43.8989467" lon="12.6789567"><ele>148.0</ele><time>2026-04-04T16:44:04.689Z</time></trkpt><trkpt lat="43.8989533" lon="12.6787517"><ele>147.33333333333334</ele><time>2026-04-04T16:44:05.689Z</time></trkpt><trkpt lat="43.8989583" lon="12.67856"><ele>146.66666666666666</ele><time>2026-04-04T16:44:06.689Z</time></trkpt><trkpt lat="43.8990033" lon="12.6781867"><ele>146.0</ele><time>2026-04-04T16:44:08.689Z</time></trkpt><trkpt lat="43.8990367" lon="12.677985"><ele>146.0</ele><time>2026-04-04T16:44:09.689Z</time></trkpt><trkpt lat="43.8990767" lon="12.6777883"><ele>146.0</ele><time>2026-04-04T16:44:10.689Z</time></trkpt><trkpt lat="43.8991117" lon="12.6775967"><ele>146.0</ele><time>2026-04-04T16:44:11.688Z</time></trkpt><trkpt lat="43.899135" lon="12.6774083"><ele>146.0</ele><time>2026-04-04T16:44:12.689Z</time></trkpt><trkpt lat="43.899145" lon="12.677215"><ele>146.25</ele><time>2026-04-04T16:44:13.69Z</time></trkpt><trkpt lat="43.8991383" lon="12.6770117"><ele>146.5</ele><time>2026-04-04T16:44:14.688Z</time></trkpt><trkpt lat="43.8991117" lon="12.6768117"><ele>146.75</ele><time>2026-04-04T16:44:15.688Z</time></trkpt><trkpt lat="43.8990717" lon="12.6766217"><ele>147.0</ele><time>2026-04-04T16:44:16.688Z</time></trkpt><trkpt lat="43.899035" lon="12.676445"><ele>146.6</ele><time>2026-04-04T16:44:17.688Z</time></trkpt><trkpt lat="43.899005" lon="12.6762817"><ele>146.2</ele><time>2026-04-04T16:44:18.689Z</time></trkpt><trkpt lat="43.89899" lon="12.676125"><ele>145.8</ele><time>2026-04-04T16:44:19.69Z</time></trkpt><trkpt lat="43.8990033" lon="12.6759783"><ele>145.4</ele><time>2026-04-04T16:44:20.686Z</time></trkpt><trkpt lat="43.89904" lon="12.6758383"><ele>145.0</ele><time>2026-04-04T16:44:21.69Z</time></trkpt><trkpt lat="43.899105" lon="12.675705"><ele>144.5</ele><time>2026-04-04T16:44:22.688Z</time></trkpt><trkpt lat="43.8991883" lon="12.6755667"><ele>144.0</ele><time>2026-04-04T16:44:23.688Z</time></trkpt><trkpt lat="43.899285" lon="12.6754267"><ele>143.5</ele><time>2026-04-04T16:44:24.689Z</time></trkpt><trkpt lat="43.899385" lon="12.675285"><ele>143.0</ele><time>2026-04-04T16:44:25.689Z</time></trkpt><trkpt lat="43.899485" lon="12.6751367"><ele>140.66666666666666</ele><time>2026-04-04T16:44:26.687Z</time></trkpt><trkpt lat="43.899585" lon="12.67499"><ele>138.33333333333334</ele><time>2026-04-04T16:44:27.689Z</time></trkpt><trkpt lat="43.8998" lon="12.6747267"><ele>136.0</ele><time>2026-04-04T16:44:29.691Z</time></trkpt><trkpt lat="43.89992" lon="12.6746467"><ele>136.0</ele><time>2026-04-04T16:44:30.687Z</time></trkpt><trkpt lat="43.900045" lon="12.67461"><ele>136.0</ele><time>2026-04-04T16:44:31.691Z</time></trkpt><trkpt lat="43.9001817" lon="12.674605"><ele>136.0</ele><time>2026-04-04T16:44:32.688Z</time></trkpt><trkpt lat="43.90032" lon="12.6746133"><ele>136.0</ele><time>2026-04-04T16:44:33.689Z</time></trkpt><trkpt lat="43.9004517" lon="12.6746067"><ele>135.0</ele><time>2026-04-04T16:44:34.689Z</time></trkpt><trkpt lat="43.90058" lon="12.674575"><ele>134.0</ele><time>2026-04-04T16:44:35.688Z</time></trkpt><trkpt lat="43.9007083" lon="12.6745083"><ele>133.0</ele><time>2026-04-04T16:44:36.687Z</time></trkpt><trkpt lat="43.9008383" lon="12.6744"><ele>132.0</ele><time>2026-04-04T16:44:37.69Z</time></trkpt><trkpt lat="43.90096" lon="12.6742617"><ele>128.66666666666666</ele><time>2026-04-04T16:44:38.69Z</time></trkpt><trkpt lat="43.9010867" lon="12.6741133"><ele>125.33333333333333</ele><time>2026-04-04T16:44:39.689Z</time></trkpt><trkpt lat="43.9012233" lon="12.6739817"><ele>122.0</ele><time>2026-04-04T16:44:40.688Z</time></trkpt><trkpt lat="43.9013683" lon="12.6738817"><ele>122.0</ele><time>2026-04-04T16:44:41.688Z</time></trkpt><trkpt lat="43.9015233" lon="12.673805"><ele>122.0</ele><time>2026-04-04T16:44:42.689Z</time></trkpt><trkpt lat="43.9016833" lon="12.6737433"><ele>122.0</ele><time>2026-04-04T16:44:43.689Z</time></trkpt><trkpt lat="43.9018467" lon="12.6736933"><ele>121.0</ele><time>2026-04-04T16:44:44.688Z</time></trkpt><trkpt lat="43.902005" lon="12.6736517"><ele>120.0</ele><time>2026-04-04T16:44:45.688Z</time></trkpt><trkpt lat="43.9023167" lon="12.6735917"><ele>120.0</ele><time>2026-04-04T16:44:47.685Z</time></trkpt><trkpt lat="43.9024783" lon="12.67358"><ele>120.0</ele><time>2026-04-04T16:44:48.688Z</time></trkpt><trkpt lat="43.902805" lon="12.6736367"><ele>117.66666666666666</ele><time>2026-04-04T16:44:50.69Z</time></trkpt><trkpt lat="43.9029583" lon="12.673715"><ele>115.33333333333333</ele><time>2026-04-04T16:44:51.689Z</time></trkpt><trkpt lat="43.9031067" lon="12.6738067"><ele>113.0</ele><time>2026-04-04T16:44:52.688Z</time></trkpt><trkpt lat="43.903255" lon="12.6739"><ele>113.0</ele><time>2026-04-04T16:44:53.689Z</time></trkpt><trkpt lat="43.9034117" lon="12.67399"><ele>113.0</ele><time>2026-04-04T16:44:54.688Z</time></trkpt><trkpt lat="43.9035717" lon="12.6740817"><ele>113.0</ele><time>2026-04-04T16:44:55.69Z</time></trkpt><trkpt lat="43.90373" lon="12.6741733"><ele>112.33333333333333</ele><time>2026-04-04T16:44:56.689Z</time></trkpt><trkpt lat="43.9038833" lon="12.67426"><ele>111.66666666666666</ele><time>2026-04-04T16:44:57.689Z</time></trkpt><trkpt lat="43.904035" lon="12.6743233"><ele>111.0</ele><time>2026-04-04T16:44:58.688Z</time></trkpt><trkpt lat="43.9041917" lon="12.674355"><ele>110.33333333333334</ele><time>2026-04-04T16:44:59.688Z</time></trkpt><trkpt lat="43.9043517" lon="12.6743617"><ele>109.66666666666667</ele><time>2026-04-04T16:45:00.687Z</time></trkpt><trkpt lat="43.9045117" lon="12.67437"><ele>109.0</ele><time>2026-04-04T16:45:01.692Z</time></trkpt><trkpt lat="43.90467" lon="12.6744183"><ele>106.66666666666667</ele><time>2026-04-04T16:45:02.689Z</time></trkpt><trkpt lat="43.9048183" lon="12.6745183"><ele>104.33333333333334</ele><time>2026-04-04T16:45:03.689Z</time></trkpt><trkpt lat="43.904945" lon="12.6746633"><ele>102.0</ele><time>2026-04-04T16:45:04.688Z</time></trkpt><trkpt lat="43.9050517" lon="12.6748133"><ele>102.25</ele><time>2026-04-04T16:45:05.689Z</time></trkpt><trkpt lat="43.9051567" lon="12.6749567"><ele>102.5</ele><time>2026-04-04T16:45:06.687Z</time></trkpt><trkpt lat="43.9052633" lon="12.67509"><ele>102.75</ele><time>2026-04-04T16:45:07.69Z</time></trkpt><trkpt lat="43.90538" lon="12.6752117"><ele>103.0</ele><time>2026-04-04T16:45:08.689Z</time></trkpt><trkpt lat="43.9055083" lon="12.675325"><ele>98.5</ele><time>2026-04-04T16:45:09.688Z</time></trkpt><trkpt lat="43.90579" lon="12.67552"><ele>94.0</ele><time>2026-04-04T16:45:11.689Z</time></trkpt><trkpt lat="43.9059267" lon="12.67561"><ele>93.25</ele><time>2026-04-04T16:45:12.688Z</time></trkpt><trkpt lat="43.906065" lon="12.6756933"><ele>92.5</ele><time>2026-04-04T16:45:13.69Z</time></trkpt><trkpt lat="43.9062067" lon="12.6757633"><ele>91.75</ele><time>2026-04-04T16:45:14.69Z</time></trkpt><trkpt lat="43.90635" lon="12.6758117"><ele>91.0</ele><time>2026-04-04T16:45:15.689Z</time></trkpt><trkpt lat="43.9065017" lon="12.6758383"><ele>91.0</ele><time>2026-04-04T16:45:16.688Z</time></trkpt><trkpt lat="43.9066567" lon="12.6758333"><ele>91.0</ele><time>2026-04-04T16:45:17.689Z</time></trkpt><trkpt lat="43.9068117" lon="12.6758167"><ele>91.0</ele><time>2026-04-04T16:45:18.688Z</time></trkpt><trkpt lat="43.9069583" lon="12.675795"><ele>87.66666666666666</ele><time>2026-04-04T16:45:19.69Z</time></trkpt><trkpt lat="43.9071" lon="12.6757617"><ele>84.33333333333333</ele><time>2026-04-04T16:45:20.69Z</time></trkpt><trkpt lat="43.9072467" lon="12.67571"><ele>81.0</ele><time>2026-04-04T16:45:21.686Z</time></trkpt><trkpt lat="43.907395" lon="12.6756383"><ele>81.0</ele><time>2026-04-04T16:45:22.689Z</time></trkpt><trkpt lat="43.9075417" lon="12.67555"><ele>81.0</ele><time>2026-04-04T16:45:23.685Z</time></trkpt><trkpt lat="43.907825" lon="12.6753333"><ele>79.66666666666667</ele><time>2026-04-04T16:45:25.69Z</time></trkpt><trkpt lat="43.9079617" lon="12.675205"><ele>78.33333333333334</ele><time>2026-04-04T16:45:26.685Z</time></trkpt><trkpt lat="43.908105" lon="12.67508"><ele>77.0</ele><time>2026-04-04T16:45:27.688Z</time></trkpt><trkpt lat="43.9082517" lon="12.67497"><ele>77.0</ele><time>2026-04-04T16:45:28.688Z</time></trkpt><trkpt lat="43.9083967" lon="12.674865"><ele>77.0</ele><time>2026-04-04T16:45:29.688Z</time></trkpt><trkpt lat="43.90854" lon="12.674765"><ele>77.0</ele><time>2026-04-04T16:45:30.689Z</time></trkpt><trkpt lat="43.90882" lon="12.674555"><ele>74.0</ele><time>2026-04-04T16:45:32.689Z</time></trkpt><trkpt lat="43.9089517" lon="12.6744167"><ele>71.0</ele><time>2026-04-04T16:45:33.687Z</time></trkpt><trkpt lat="43.9090683" lon="12.674255"><ele>68.0</ele><time>2026-04-04T16:45:34.689Z</time></trkpt><trkpt lat="43.9091683" lon="12.6740783"><ele>66.75</ele><time>2026-04-04T16:45:35.687Z</time></trkpt><trkpt lat="43.90925" lon="12.6738983"><ele>65.5</ele><time>2026-04-04T16:45:36.687Z</time></trkpt><trkpt lat="43.90933" lon="12.6737383"><ele>64.25</ele><time>2026-04-04T16:45:37.69Z</time></trkpt><trkpt lat="43.9094233" lon="12.6736117"><ele>63.0</ele><time>2026-04-04T16:45:38.69Z</time></trkpt><trkpt lat="43.9095333" lon="12.6735283"><ele>63.0</ele><time>2026-04-04T16:45:39.689Z</time></trkpt><trkpt lat="43.90966" lon="12.6734833"><ele>63.0</ele><time>2026-04-04T16:45:40.689Z</time></trkpt><trkpt lat="43.9098033" lon="12.6734583"><ele>63.0</ele><time>2026-04-04T16:45:41.689Z</time></trkpt><trkpt lat="43.9099617" lon="12.673445"><ele>63.0</ele><time>2026-04-04T16:45:42.686Z</time></trkpt><trkpt lat="43.910125" lon="12.6734333"><ele>61.33333333333333</ele><time>2026-04-04T16:45:43.69Z</time></trkpt><trkpt lat="43.9103" lon="12.67342"><ele>59.666666666666664</ele><time>2026-04-04T16:45:44.784Z</time></trkpt><trkpt lat="43.9104783" lon="12.6734067"><ele>58.0</ele><time>2026-04-04T16:45:45.688Z</time></trkpt><trkpt lat="43.91066" lon="12.6733917"><ele>58.0</ele><time>2026-04-04T16:45:46.687Z</time></trkpt><trkpt lat="43.910845" lon="12.67337"><ele>58.0</ele><time>2026-04-04T16:45:47.687Z</time></trkpt><trkpt lat="43.9110317" lon="12.6733517"><ele>58.0</ele><time>2026-04-04T16:45:48.688Z</time></trkpt><trkpt lat="43.9112233" lon="12.6733317"><ele>58.0</ele><time>2026-04-04T16:45:49.688Z</time></trkpt><trkpt lat="43.9114167" lon="12.6733117"><ele>58.0</ele><time>2026-04-04T16:45:50.686Z</time></trkpt><trkpt lat="43.9116067" lon="12.6733067"><ele>58.0</ele><time>2026-04-04T16:45:51.688Z</time></trkpt><trkpt lat="43.9119833" lon="12.6733633"><ele>57.0</ele><time>2026-04-04T16:45:53.691Z</time></trkpt><trkpt lat="43.9121667" lon="12.67342"><ele>56.0</ele><time>2026-04-04T16:45:54.688Z</time></trkpt><trkpt lat="43.91234" lon="12.67349"><ele>55.0</ele><time>2026-04-04T16:45:55.688Z</time></trkpt><trkpt lat="43.91251" lon="12.67355"><ele>55.0</ele><time>2026-04-04T16:45:56.688Z</time></trkpt><trkpt lat="43.9126733" lon="12.6735933"><ele>55.0</ele><time>2026-04-04T16:45:57.69Z</time></trkpt><trkpt lat="43.91283" lon="12.6736"><ele>55.0</ele><time>2026-04-04T16:45:58.689Z</time></trkpt><trkpt lat="43.912985" lon="12.67357"><ele>55.0</ele><time>2026-04-04T16:45:59.685Z</time></trkpt><trkpt lat="43.9131433" lon="12.6735"><ele>55.0</ele><time>2026-04-04T16:46:00.689Z</time></trkpt><trkpt lat="43.9133067" lon="12.6734033"><ele>55.0</ele><time>2026-04-04T16:46:01.689Z</time></trkpt><trkpt lat="43.9134767" lon="12.6733117"><ele>55.0</ele><time>2026-04-04T16:46:02.687Z</time></trkpt><trkpt lat="43.9136483" lon="12.6732567"><ele>55.0</ele><time>2026-04-04T16:46:03.688Z</time></trkpt><trkpt lat="43.91382" lon="12.6732217"><ele>55.0</ele><time>2026-04-04T16:46:04.688Z</time></trkpt><trkpt lat="43.9139933" lon="12.6731917"><ele>55.0</ele><time>2026-04-04T16:46:05.69Z</time></trkpt><trkpt lat="43.9141683" lon="12.6731517"><ele>55.0</ele><time>2026-04-04T16:46:06.686Z</time></trkpt><trkpt lat="43.914345" lon="12.67311"><ele>55.0</ele><time>2026-04-04T16:46:07.691Z</time></trkpt><trkpt lat="43.9145217" lon="12.6730667"><ele>56.666666666666664</ele><time>2026-04-04T16:46:08.688Z</time></trkpt><trkpt lat="43.9147017" lon="12.673025"><ele>58.33333333333333</ele><time>2026-04-04T16:46:09.687Z</time></trkpt><trkpt lat="43.9148833" lon="12.672985"><ele>60.0</ele><time>2026-04-04T16:46:10.688Z</time></trkpt><trkpt lat="43.9150683" lon="12.6729467"><ele>60.5</ele><time>2026-04-04T16:46:11.687Z</time></trkpt><trkpt lat="43.9152467" lon="12.6729083"><ele>61.0</ele><time>2026-04-04T16:46:12.687Z</time></trkpt><trkpt lat="43.9156067" lon="12.6728417"><ele>61.0</ele><time>2026-04-04T16:46:14.689Z</time></trkpt><trkpt lat="43.915785" lon="12.6728083"><ele>61.0</ele><time>2026-04-04T16:46:15.686Z</time></trkpt><trkpt lat="43.9159583" lon="12.6727717"><ele>61.0</ele><time>2026-04-04T16:46:16.687Z</time></trkpt><trkpt lat="43.91612" lon="12.6727333"><ele>61.75</ele><time>2026-04-04T16:46:17.686Z</time></trkpt><trkpt lat="43.9162717" lon="12.6726983"><ele>62.5</ele><time>2026-04-04T16:46:18.687Z</time></trkpt><trkpt lat="43.9164183" lon="12.6726733"><ele>63.25</ele><time>2026-04-04T16:46:19.688Z</time></trkpt><trkpt lat="43.9165633" lon="12.6726633"><ele>64.0</ele><time>2026-04-04T16:46:20.686Z</time></trkpt><trkpt lat="43.9167033" lon="12.6726817"><ele>63.666666666666664</ele><time>2026-04-04T16:46:21.689Z</time></trkpt><trkpt lat="43.9168417" lon="12.67275"><ele>63.33333333333333</ele><time>2026-04-04T16:46:22.687Z</time></trkpt><trkpt lat="43.9169767" lon="12.6728583"><ele>63.0</ele><time>2026-04-04T16:46:23.687Z</time></trkpt><trkpt lat="43.91711" lon="12.6729767"><ele>63.0</ele><time>2026-04-04T16:46:24.689Z</time></trkpt><trkpt lat="43.9172433" lon="12.67309"><ele>63.0</ele><time>2026-04-04T16:46:25.691Z</time></trkpt><trkpt lat="43.9173733" lon="12.6732083"><ele>63.0</ele><time>2026-04-04T16:46:26.689Z</time></trkpt><trkpt lat="43.9175067" lon="12.6733317"><ele>63.66666666666667</ele><time>2026-04-04T16:46:27.69Z</time></trkpt><trkpt lat="43.9176433" lon="12.67345"><ele>64.33333333333334</ele><time>2026-04-04T16:46:28.689Z</time></trkpt><trkpt lat="43.9177767" lon="12.6735633"><ele>65.0</ele><time>2026-04-04T16:46:29.688Z</time></trkpt><trkpt lat="43.9179067" lon="12.6736833"><ele>63.66666666666667</ele><time>2026-04-04T16:46:30.689Z</time></trkpt><trkpt lat="43.91804" lon="12.6738017"><ele>62.33333333333333</ele><time>2026-04-04T16:46:31.69Z</time></trkpt><trkpt lat="43.918175" lon="12.6739233"><ele>61.0</ele><time>2026-04-04T16:46:32.685Z</time></trkpt><trkpt lat="43.918455" lon="12.6741783"><ele>60.666666666666664</ele><time>2026-04-04T16:46:34.688Z</time></trkpt><trkpt lat="43.9186033" lon="12.6743067"><ele>60.33333333333333</ele><time>2026-04-04T16:46:35.688Z</time></trkpt><trkpt lat="43.918755" lon="12.6744383"><ele>60.0</ele><time>2026-04-04T16:46:36.688Z</time></trkpt><trkpt lat="43.9189033" lon="12.6745717"><ele>60.0</ele><time>2026-04-04T16:46:37.69Z</time></trkpt><trkpt lat="43.91905" lon="12.6747"><ele>60.0</ele><time>2026-04-04T16:46:38.688Z</time></trkpt><trkpt lat="43.9191967" lon="12.6748317"><ele>60.0</ele><time>2026-04-04T16:46:39.69Z</time></trkpt><trkpt lat="43.9193433" lon="12.67497"><ele>59.66666666666667</ele><time>2026-04-04T16:46:40.689Z</time></trkpt><trkpt lat="43.9194933" lon="12.6751083"><ele>59.333333333333336</ele><time>2026-04-04T16:46:41.689Z</time></trkpt><trkpt lat="43.9196417" lon="12.67525"><ele>59.0</ele><time>2026-04-04T16:46:42.69Z</time></trkpt><trkpt lat="43.9197917" lon="12.67539"><ele>59.0</ele><time>2026-04-04T16:46:43.689Z</time></trkpt><trkpt lat="43.91994" lon="12.6755317"><ele>59.0</ele><time>2026-04-04T16:46:44.688Z</time></trkpt><trkpt lat="43.9200917" lon="12.6756667"><ele>59.0</ele><time>2026-04-04T16:46:45.689Z</time></trkpt><trkpt lat="43.920245" lon="12.675795"><ele>59.0</ele><time>2026-04-04T16:46:46.687Z</time></trkpt><trkpt lat="43.9204" lon="12.6759133"><ele>59.0</ele><time>2026-04-04T16:46:47.687Z</time></trkpt><trkpt lat="43.9205483" lon="12.6760167"><ele>59.0</ele><time>2026-04-04T16:46:48.689Z</time></trkpt><trkpt lat="43.9206933" lon="12.6761017"><ele>58.333333333333336</ele><time>2026-04-04T16:46:49.688Z</time></trkpt><trkpt lat="43.9208433" lon="12.6761683"><ele>57.66666666666667</ele><time>2026-04-04T16:46:50.686Z</time></trkpt><trkpt lat="43.9209967" lon="12.6762167"><ele>57.0</ele><time>2026-04-04T16:46:51.687Z</time></trkpt><trkpt lat="43.9211467" lon="12.6762533"><ele>57.0</ele><time>2026-04-04T16:46:52.688Z</time></trkpt><trkpt lat="43.92129" lon="12.676285"><ele>57.0</ele><time>2026-04-04T16:46:53.687Z</time></trkpt><trkpt lat="43.921555" lon="12.6763483"><ele>57.0</ele><time>2026-04-04T16:46:55.69Z</time></trkpt><trkpt lat="43.9216767" lon="12.67638"><ele>56.8</ele><time>2026-04-04T16:46:56.685Z</time></trkpt><trkpt lat="43.9217867" lon="12.676415"><ele>56.6</ele><time>2026-04-04T16:46:57.686Z</time></trkpt><trkpt lat="43.9218867" lon="12.6764433"><ele>56.39999999999999</ele><time>2026-04-04T16:46:58.689Z</time></trkpt><trkpt lat="43.92197" lon="12.6764683"><ele>56.199999999999996</ele><time>2026-04-04T16:46:59.688Z</time></trkpt><trkpt lat="43.92204" lon="12.676485"><ele>56.0</ele><time>2026-04-04T16:47:00.686Z</time></trkpt><trkpt lat="43.9221483" lon="12.6765233"><ele>56.00000000000001</ele><time>2026-04-04T16:47:02.688Z</time></trkpt><trkpt lat="43.9222467" lon="12.6765983"><ele>56.0</ele><time>2026-04-04T16:47:04.688Z</time></trkpt><trkpt lat="43.9223017" lon="12.6766533"><ele>56.0</ele><time>2026-04-04T16:47:05.688Z</time></trkpt><trkpt lat="43.92235" lon="12.676725"><ele>56.0</ele><time>2026-04-04T16:47:06.686Z</time></trkpt><trkpt lat="43.9223917" lon="12.676815"><ele>56.00000000000001</ele><time>2026-04-04T16:47:07.689Z</time></trkpt><trkpt lat="43.9224317" lon="12.6769283"><ele>56.0</ele><time>2026-04-04T16:47:08.689Z</time></trkpt><trkpt lat="43.9224683" lon="12.6770617"><ele>56.0</ele><time>2026-04-04T16:47:09.687Z</time></trkpt><trkpt lat="43.922505" lon="12.6772167"><ele>56.0</ele><time>2026-04-04T16:47:10.688Z</time></trkpt><trkpt lat="43.9225467" lon="12.6773933"><ele>56.0</ele><time>2026-04-04T16:47:11.689Z</time></trkpt><trkpt lat="43.9225933" lon="12.677585"><ele>56.0</ele><time>2026-04-04T16:47:12.687Z</time></trkpt><trkpt lat="43.9226417" lon="12.6777767"><ele>56.333333333333336</ele><time>2026-04-04T16:47:13.69Z</time></trkpt><trkpt lat="43.92269" lon="12.6779683"><ele>56.66666666666667</ele><time>2026-04-04T16:47:14.689Z</time></trkpt><trkpt lat="43.9227867" lon="12.678345"><ele>57.0</ele><time>2026-04-04T16:47:16.687Z</time></trkpt><trkpt lat="43.922835" lon="12.678535"><ele>56.75</ele><time>2026-04-04T16:47:17.687Z</time></trkpt><trkpt lat="43.9228833" lon="12.678725"><ele>56.5</ele><time>2026-04-04T16:47:18.688Z</time></trkpt><trkpt lat="43.9229283" lon="12.678915"><ele>56.25</ele><time>2026-04-04T16:47:19.69Z</time></trkpt><trkpt lat="43.9229733" lon="12.679105"><ele>56.0</ele><time>2026-04-04T16:47:20.687Z</time></trkpt><trkpt lat="43.9230217" lon="12.679295"><ele>56.0</ele><time>2026-04-04T16:47:21.686Z</time></trkpt><trkpt lat="43.9230683" lon="12.6794833"><ele>56.0</ele><time>2026-04-04T16:47:22.688Z</time></trkpt><trkpt lat="43.9231133" lon="12.67967"><ele>56.0</ele><time>2026-04-04T16:47:23.69Z</time></trkpt><trkpt lat="43.9231583" lon="12.6798483"><ele>56.0</ele><time>2026-04-04T16:47:24.687Z</time></trkpt><trkpt lat="43.9232017" lon="12.6800233"><ele>56.0</ele><time>2026-04-04T16:47:25.69Z</time></trkpt><trkpt lat="43.9232433" lon="12.680185"><ele>55.99999999999999</ele><time>2026-04-04T16:47:26.685Z</time></trkpt><trkpt lat="43.9232817" lon="12.6803383"><ele>55.99999999999999</ele><time>2026-04-04T16:47:27.688Z</time></trkpt><trkpt lat="43.9233167" lon="12.680475"><ele>56.0</ele><time>2026-04-04T16:47:28.688Z</time></trkpt><trkpt lat="43.92335" lon="12.6806017"><ele>56.0</ele><time>2026-04-04T16:47:29.688Z</time></trkpt><trkpt lat="43.9233783" lon="12.6807083"><ele>55.5</ele><time>2026-04-04T16:47:30.688Z</time></trkpt><trkpt lat="43.9233817" lon="12.6808483"><ele>55.0</ele><time>2026-04-04T16:47:32.689Z</time></trkpt><trkpt lat="43.9233067" lon="12.68095"><ele>54.5</ele><time>2026-04-04T16:47:34.689Z</time></trkpt><trkpt lat="43.9232267" lon="12.6809867"><ele>54.0</ele><time>2026-04-04T16:47:35.688Z</time></trkpt><trkpt lat="43.9230533" lon="12.6810683"><ele>53.75</ele><time>2026-04-04T16:47:37.69Z</time></trkpt><trkpt lat="43.922955" lon="12.6811233"><ele>53.5</ele><time>2026-04-04T16:47:38.688Z</time></trkpt><trkpt lat="43.9228417" lon="12.6811867"><ele>53.25</ele><time>2026-04-04T16:47:39.688Z</time></trkpt><trkpt lat="43.9227183" lon="12.6812567"><ele>53.0</ele><time>2026-04-04T16:47:40.689Z</time></trkpt><trkpt lat="43.9225917" lon="12.6813333"><ele>52.75</ele><time>2026-04-04T16:47:41.689Z</time></trkpt><trkpt lat="43.9224667" lon="12.6814133"><ele>52.5</ele><time>2026-04-04T16:47:42.687Z</time></trkpt><trkpt lat="43.92234" lon="12.6814883"><ele>52.25</ele><time>2026-04-04T16:47:43.688Z</time></trkpt><trkpt lat="43.9222167" lon="12.6815617"><ele>52.0</ele><time>2026-04-04T16:47:44.691Z</time></trkpt><trkpt lat="43.9220983" lon="12.68164"><ele>52.0</ele><time>2026-04-04T16:47:45.692Z</time></trkpt><trkpt lat="43.9219767" lon="12.6817133"><ele>52.0</ele><time>2026-04-04T16:47:46.688Z</time></trkpt><trkpt lat="43.921845" lon="12.681785"><ele>52.0</ele><time>2026-04-04T16:47:47.69Z</time></trkpt><trkpt lat="43.92171" lon="12.6818583"><ele>52.0</ele><time>2026-04-04T16:47:48.689Z</time></trkpt><trkpt lat="43.921575" lon="12.6819233"><ele>51.75</ele><time>2026-04-04T16:47:49.687Z</time></trkpt><trkpt lat="43.9214467" lon="12.6819933"><ele>51.5</ele><time>2026-04-04T16:47:50.688Z</time></trkpt><trkpt lat="43.92132" lon="12.6820733"><ele>51.25</ele><time>2026-04-04T16:47:51.688Z</time></trkpt><trkpt lat="43.9211933" lon="12.6821517"><ele>51.0</ele><time>2026-04-04T16:47:52.69Z</time></trkpt><trkpt lat="43.9210717" lon="12.6822267"><ele>51.0</ele><time>2026-04-04T16:47:53.686Z</time></trkpt><trkpt lat="43.920955" lon="12.682295"><ele>51.0</ele><time>2026-04-04T16:47:54.687Z</time></trkpt><trkpt lat="43.9208467" lon="12.682355"><ele>51.0</ele><time>2026-04-04T16:47:55.691Z</time></trkpt><trkpt lat="43.9207467" lon="12.6824117"><ele>51.0</ele><time>2026-04-04T16:47:56.687Z</time></trkpt><trkpt lat="43.920575" lon="12.6825167"><ele>51.0</ele><time>2026-04-04T16:47:58.688Z</time></trkpt><trkpt lat="43.9205167" lon="12.6825717"><ele>51.0</ele><time>2026-04-04T16:47:59.689Z</time></trkpt><trkpt lat="43.9204833" lon="12.682695"><ele>51.0</ele><time>2026-04-04T16:48:01.69Z</time></trkpt><trkpt lat="43.920495" lon="12.6827967"><ele>51.0</ele><time>2026-04-04T16:48:02.687Z</time></trkpt><trkpt lat="43.920505" lon="12.6829283"><ele>51.0</ele><time>2026-04-04T16:48:03.689Z</time></trkpt><trkpt lat="43.920505" lon="12.68307"><ele>51.0</ele><time>2026-04-04T16:48:04.689Z</time></trkpt><trkpt lat="43.9205017" lon="12.683195"><ele>50.333333333333336</ele><time>2026-04-04T16:48:05.687Z</time></trkpt><trkpt lat="43.92049" lon="12.6833033"><ele>49.666666666666664</ele><time>2026-04-04T16:48:06.689Z</time></trkpt><trkpt lat="43.9204583" lon="12.6833983"><ele>49.0</ele><time>2026-04-04T16:48:07.688Z</time></trkpt><trkpt lat="43.9204033" lon="12.6834683"><ele>48.33333333333333</ele><time>2026-04-04T16:48:08.689Z</time></trkpt><trkpt lat="43.9203233" lon="12.6835067"><ele>47.666666666666664</ele><time>2026-04-04T16:48:09.687Z</time></trkpt><trkpt lat="43.9202333" lon="12.6835367"><ele>47.0</ele><time>2026-04-04T16:48:10.688Z</time></trkpt><trkpt lat="43.9201467" lon="12.68357"><ele>47.400000000000006</ele><time>2026-04-04T16:48:11.69Z</time></trkpt><trkpt lat="43.920065" lon="12.6836317"><ele>47.800000000000004</ele><time>2026-04-04T16:48:12.688Z</time></trkpt><trkpt lat="43.9199833" lon="12.683715"><ele>48.2</ele><time>2026-04-04T16:48:13.69Z</time></trkpt><trkpt lat="43.9199183" lon="12.683825"><ele>48.6</ele><time>2026-04-04T16:48:14.688Z</time></trkpt><trkpt lat="43.91987" lon="12.683945"><ele>49.0</ele><time>2026-04-04T16:48:15.688Z</time></trkpt><trkpt lat="43.9198283" lon="12.6840617"><ele>49.0</ele><time>2026-04-04T16:48:16.688Z</time></trkpt><trkpt lat="43.919795" lon="12.6841667"><ele>49.0</ele><time>2026-04-04T16:48:17.689Z</time></trkpt><trkpt lat="43.9197383" lon="12.6843733"><ele>49.0</ele><time>2026-04-04T16:48:19.689Z</time></trkpt><trkpt lat="43.9197083" lon="12.6844767"><ele>49.0</ele><time>2026-04-04T16:48:20.688Z</time></trkpt><trkpt lat="43.91968" lon="12.6845783"><ele>49.0</ele><time>2026-04-04T16:48:21.686Z</time></trkpt><trkpt lat="43.91965" lon="12.6846783"><ele>49.666666666666664</ele><time>2026-04-04T16:48:22.689Z</time></trkpt><trkpt lat="43.9196183" lon="12.6847783"><ele>50.33333333333333</ele><time>2026-04-04T16:48:23.688Z</time></trkpt><trkpt lat="43.91958" lon="12.684865"><ele>51.0</ele><time>2026-04-04T16:48:24.687Z</time></trkpt><trkpt lat="43.9195267" lon="12.68494"><ele>51.66666666666667</ele><time>2026-04-04T16:48:25.69Z</time></trkpt><trkpt lat="43.9194517" lon="12.6849933"><ele>52.333333333333336</ele><time>2026-04-04T16:48:26.688Z</time></trkpt><trkpt lat="43.91936" lon="12.6849983"><ele>53.0</ele><time>2026-04-04T16:48:27.688Z</time></trkpt><trkpt lat="43.9192667" lon="12.6849933"><ele>54.75</ele><time>2026-04-04T16:48:28.69Z</time></trkpt><trkpt lat="43.9191633" lon="12.684945"><ele>56.5</ele><time>2026-04-04T16:48:29.686Z</time></trkpt><trkpt lat="43.9190417" lon="12.6848717"><ele>58.25</ele><time>2026-04-04T16:48:30.689Z</time></trkpt><trkpt lat="43.9189133" lon="12.6848"><ele>60.0</ele><time>2026-04-04T16:48:31.69Z</time></trkpt><trkpt lat="43.9187767" lon="12.6847217"><ele>60.0</ele><time>2026-04-04T16:48:32.69Z</time></trkpt><trkpt lat="43.9186467" lon="12.6846383"><ele>60.0</ele><time>2026-04-04T16:48:33.688Z</time></trkpt><trkpt lat="43.9185183" lon="12.6845617"><ele>60.0</ele><time>2026-04-04T16:48:34.687Z</time></trkpt><trkpt lat="43.9183933" lon="12.6844983"><ele>60.0</ele><time>2026-04-04T16:48:35.691Z</time></trkpt><trkpt lat="43.9182633" lon="12.6844617"><ele>63.33333333333333</ele><time>2026-04-04T16:48:36.689Z</time></trkpt><trkpt lat="43.9181283" lon="12.6844517"><ele>66.66666666666666</ele><time>2026-04-04T16:48:37.692Z</time></trkpt><trkpt lat="43.918" lon="12.6844417"><ele>70.0</ele><time>2026-04-04T16:48:38.685Z</time></trkpt><trkpt lat="43.9177717" lon="12.6843817"><ele>71.0</ele><time>2026-04-04T16:48:40.69Z</time></trkpt><trkpt lat="43.9176683" lon="12.6843433"><ele>72.0</ele><time>2026-04-04T16:48:41.688Z</time></trkpt><trkpt lat="43.9175583" lon="12.6843083"><ele>73.0</ele><time>2026-04-04T16:48:42.688Z</time></trkpt><trkpt lat="43.9174433" lon="12.6842817"><ele>74.0</ele><time>2026-04-04T16:48:43.688Z</time></trkpt><trkpt lat="43.9173267" lon="12.6842567"><ele>76.5</ele><time>2026-04-04T16:48:44.687Z</time></trkpt><trkpt lat="43.91721" lon="12.6842283"><ele>79.0</ele><time>2026-04-04T16:48:45.687Z</time></trkpt><trkpt lat="43.9170833" lon="12.6841983"><ele>81.5</ele><time>2026-04-04T16:48:46.689Z</time></trkpt><trkpt lat="43.9169567" lon="12.684165"><ele>84.0</ele><time>2026-04-04T16:48:47.684Z</time></trkpt><trkpt lat="43.9168283" lon="12.6841333"><ele>86.5</ele><time>2026-04-04T16:48:48.686Z</time></trkpt><trkpt lat="43.9167017" lon="12.6841017"><ele>89.0</ele><time>2026-04-04T16:48:49.689Z</time></trkpt><trkpt lat="43.9165733" lon="12.6840733"><ele>91.5</ele><time>2026-04-04T16:48:50.686Z</time></trkpt><trkpt lat="43.9164433" lon="12.6840467"><ele>94.0</ele><time>2026-04-04T16:48:51.687Z</time></trkpt><trkpt lat="43.91631" lon="12.6840133"><ele>94.0</ele><time>2026-04-04T16:48:52.687Z</time></trkpt><trkpt lat="43.9161783" lon="12.68398"><ele>94.0</ele><time>2026-04-04T16:48:53.687Z</time></trkpt><trkpt lat="43.916045" lon="12.6839467"><ele>94.0</ele><time>2026-04-04T16:48:54.688Z</time></trkpt><trkpt lat="43.9159083" lon="12.683915"><ele>94.0</ele><time>2026-04-04T16:48:55.69Z</time></trkpt><trkpt lat="43.91577" lon="12.6838883"><ele>96.25</ele><time>2026-04-04T16:48:56.686Z</time></trkpt><trkpt lat="43.9156333" lon="12.6838617"><ele>98.5</ele><time>2026-04-04T16:48:57.687Z</time></trkpt><trkpt lat="43.9155" lon="12.683845"><ele>100.75</ele><time>2026-04-04T16:48:58.689Z</time></trkpt><trkpt lat="43.9153733" lon="12.683845"><ele>103.0</ele><time>2026-04-04T16:48:59.687Z</time></trkpt><trkpt lat="43.915115" lon="12.6839217"><ele>106.5</ele><time>2026-04-04T16:49:01.689Z</time></trkpt><trkpt lat="43.9149867" lon="12.6839867"><ele>110.0</ele><time>2026-04-04T16:49:02.686Z</time></trkpt><trkpt lat="43.9148683" lon="12.6840667"><ele>113.5</ele><time>2026-04-04T16:49:03.687Z</time></trkpt><trkpt lat="43.9147467" lon="12.6841583"><ele>117.0</ele><time>2026-04-04T16:49:04.687Z</time></trkpt><trkpt lat="43.9146233" lon="12.6842517"><ele>117.0</ele><time>2026-04-04T16:49:05.691Z</time></trkpt><trkpt lat="43.9145067" lon="12.6843417"><ele>117.0</ele><time>2026-04-04T16:49:06.687Z</time></trkpt><trkpt lat="43.914405" lon="12.6844167"><ele>117.0</ele><time>2026-04-04T16:49:07.689Z</time></trkpt><trkpt lat="43.914325" lon="12.684475"><ele>117.0</ele><time>2026-04-04T16:49:08.69Z</time></trkpt><trkpt lat="43.91423" lon="12.6845717"><ele>119.19999999999999</ele><time>2026-04-04T16:49:10.689Z</time></trkpt><trkpt lat="43.914195" lon="12.6846467"><ele>121.39999999999999</ele><time>2026-04-04T16:49:11.687Z</time></trkpt><trkpt lat="43.9141667" lon="12.6847483"><ele>123.60000000000001</ele><time>2026-04-04T16:49:12.686Z</time></trkpt><trkpt lat="43.9141367" lon="12.6848683"><ele>125.80000000000001</ele><time>2026-04-04T16:49:13.687Z</time></trkpt><trkpt lat="43.9141267" lon="12.68502"><ele>128.0</ele><time>2026-04-04T16:49:14.687Z</time></trkpt><trkpt lat="43.9141183" lon="12.6851733"><ele>127.5</ele><time>2026-04-04T16:49:15.69Z</time></trkpt><trkpt lat="43.9141083" lon="12.6853333"><ele>127.0</ele><time>2026-04-04T16:49:16.687Z</time></trkpt><trkpt lat="43.9140967" lon="12.685495"><ele>126.5</ele><time>2026-04-04T16:49:17.688Z</time></trkpt><trkpt lat="43.914085" lon="12.6856617"><ele>126.0</ele><time>2026-04-04T16:49:18.688Z</time></trkpt><trkpt lat="43.9140733" lon="12.6858267"><ele>126.0</ele><time>2026-04-04T16:49:19.687Z</time></trkpt><trkpt lat="43.91406" lon="12.6859933"><ele>126.0</ele><time>2026-04-04T16:49:20.688Z</time></trkpt><trkpt lat="43.91402" lon="12.68633"><ele>126.0</ele><time>2026-04-04T16:49:22.688Z</time></trkpt><trkpt lat="43.91399" lon="12.6865083"><ele>126.0</ele><time>2026-04-04T16:49:23.69Z</time></trkpt><trkpt lat="43.91395" lon="12.686685"><ele>126.0</ele><time>2026-04-04T16:49:24.688Z</time></trkpt><trkpt lat="43.9138983" lon="12.6868617"><ele>126.0</ele><time>2026-04-04T16:49:25.688Z</time></trkpt><trkpt lat="43.913845" lon="12.687045"><ele>126.0</ele><time>2026-04-04T16:49:26.689Z</time></trkpt><trkpt lat="43.9137867" lon="12.6872167"><ele>126.25</ele><time>2026-04-04T16:49:27.685Z</time></trkpt><trkpt lat="43.9137317" lon="12.6873767"><ele>126.5</ele><time>2026-04-04T16:49:28.687Z</time></trkpt><trkpt lat="43.9136817" lon="12.687525"><ele>126.75</ele><time>2026-04-04T16:49:29.688Z</time></trkpt><trkpt lat="43.9136333" lon="12.687665"><ele>127.0</ele><time>2026-04-04T16:49:30.687Z</time></trkpt><trkpt lat="43.913595" lon="12.68781"><ele>126.5</ele><time>2026-04-04T16:49:31.69Z</time></trkpt><trkpt lat="43.9135633" lon="12.68796"><ele>126.0</ele><time>2026-04-04T16:49:32.687Z</time></trkpt><trkpt lat="43.9135367" lon="12.6881233"><ele>125.5</ele><time>2026-04-04T16:49:33.687Z</time></trkpt><trkpt lat="43.913505" lon="12.6882883"><ele>125.0</ele><time>2026-04-04T16:49:34.687Z</time></trkpt><trkpt lat="43.9134733" lon="12.6884517"><ele>125.0</ele><time>2026-04-04T16:49:35.689Z</time></trkpt><trkpt lat="43.9134417" lon="12.6885933"><ele>125.0</ele><time>2026-04-04T16:49:36.688Z</time></trkpt><trkpt lat="43.9134133" lon="12.6887283"><ele>125.0</ele><time>2026-04-04T16:49:37.688Z</time></trkpt><trkpt lat="43.9133833" lon="12.6888483"><ele>125.0</ele><time>2026-04-04T16:49:38.688Z</time></trkpt><trkpt lat="43.913345" lon="12.6889533"><ele>125.0</ele><time>2026-04-04T16:49:39.687Z</time></trkpt><trkpt lat="43.913305" lon="12.689045"><ele>127.0</ele><time>2026-04-04T16:49:40.688Z</time></trkpt><trkpt lat="43.9132733" lon="12.689125"><ele>129.0</ele><time>2026-04-04T16:49:41.689Z</time></trkpt><trkpt lat="43.9132533" lon="12.68941"><ele>131.0</ele><time>2026-04-04T16:49:44.688Z</time></trkpt><trkpt lat="43.9132517" lon="12.68953"><ele>133.0</ele><time>2026-04-04T16:49:45.689Z</time></trkpt><trkpt lat="43.913255" lon="12.68965"><ele>135.0</ele><time>2026-04-04T16:49:46.688Z</time></trkpt><trkpt lat="43.9132667" lon="12.6897617"><ele>135.4</ele><time>2026-04-04T16:49:47.688Z</time></trkpt><trkpt lat="43.9132817" lon="12.68986"><ele>135.8</ele><time>2026-04-04T16:49:48.688Z</time></trkpt><trkpt lat="43.9132933" lon="12.68995"><ele>136.2</ele><time>2026-04-04T16:49:49.69Z</time></trkpt><trkpt lat="43.9133133" lon="12.690115"><ele>136.6</ele><time>2026-04-04T16:49:51.687Z</time></trkpt><trkpt lat="43.913325" lon="12.6902917"><ele>137.0</ele><time>2026-04-04T16:49:53.689Z</time></trkpt><trkpt lat="43.9133317" lon="12.6903967"><ele>137.0</ele><time>2026-04-04T16:49:54.688Z</time></trkpt><trkpt lat="43.9133333" lon="12.6905067"><ele>137.0</ele><time>2026-04-04T16:49:55.69Z</time></trkpt><trkpt lat="43.9133333" lon="12.69062"><ele>137.0</ele><time>2026-04-04T16:49:56.689Z</time></trkpt><trkpt lat="43.913335" lon="12.6907283"><ele>137.0</ele><time>2026-04-04T16:49:57.689Z</time></trkpt><trkpt lat="43.9133433" lon="12.6908367"><ele>137.0</ele><time>2026-04-04T16:49:58.689Z</time></trkpt><trkpt lat="43.9133533" lon="12.6909533"><ele>137.0</ele><time>2026-04-04T16:49:59.686Z</time></trkpt><trkpt lat="43.9133633" lon="12.6910783"><ele>137.0</ele><time>2026-04-04T16:50:00.689Z</time></trkpt><trkpt lat="43.9133667" lon="12.69121"><ele>137.0</ele><time>2026-04-04T16:50:01.69Z</time></trkpt><trkpt lat="43.91337" lon="12.691335"><ele>137.0</ele><time>2026-04-04T16:50:02.689Z</time></trkpt><trkpt lat="43.9133717" lon="12.69156"><ele>137.0</ele><time>2026-04-04T16:50:04.688Z</time></trkpt><trkpt lat="43.9133733" lon="12.6916517"><ele>137.0</ele><time>2026-04-04T16:50:05.688Z</time></trkpt><trkpt lat="43.91341" lon="12.69179"><ele>137.0</ele><time>2026-04-04T16:50:07.691Z</time></trkpt><trkpt lat="43.9135083" lon="12.6918917"><ele>137.0</ele><time>2026-04-04T16:50:09.687Z</time></trkpt><trkpt lat="43.9135717" lon="12.6919217"><ele>137.0</ele><time>2026-04-04T16:50:10.689Z</time></trkpt><trkpt lat="43.9136433" lon="12.6919367"><ele>137.0</ele><time>2026-04-04T16:50:11.687Z</time></trkpt><trkpt lat="43.9137233" lon="12.6919483"><ele>137.0</ele><time>2026-04-04T16:50:12.687Z</time></trkpt><trkpt lat="43.9138133" lon="12.69196"><ele>137.0</ele><time>2026-04-04T16:50:13.689Z</time></trkpt><trkpt lat="43.91391" lon="12.6919767"><ele>137.0</ele><time>2026-04-04T16:50:14.69Z</time></trkpt><trkpt lat="43.914005" lon="12.6919967"><ele>137.0</ele><time>2026-04-04T16:50:15.689Z</time></trkpt><trkpt lat="43.9140983" lon="12.6920233"><ele>137.0</ele><time>2026-04-04T16:50:16.686Z</time></trkpt><trkpt lat="43.9141917" lon="12.6920533"><ele>137.0</ele><time>2026-04-04T16:50:17.691Z</time></trkpt><trkpt lat="43.91429" lon="12.6920933"><ele>137.0</ele><time>2026-04-04T16:50:18.689Z</time></trkpt><trkpt lat="43.9143867" lon="12.6921467"><ele>134.79999999999998</ele><time>2026-04-04T16:50:19.688Z</time></trkpt><trkpt lat="43.9144817" lon="12.6922133"><ele>132.6</ele><time>2026-04-04T16:50:20.686Z</time></trkpt><trkpt lat="43.91457" lon="12.692295"><ele>130.39999999999998</ele><time>2026-04-04T16:50:21.687Z</time></trkpt><trkpt lat="43.914655" lon="12.6923833"><ele>128.2</ele><time>2026-04-04T16:50:22.689Z</time></trkpt><trkpt lat="43.9147367" lon="12.6924733"><ele>126.0</ele><time>2026-04-04T16:50:23.688Z</time></trkpt><trkpt lat="43.9149017" lon="12.6926633"><ele>126.25</ele><time>2026-04-04T16:50:25.689Z</time></trkpt><trkpt lat="43.9149867" lon="12.6927683"><ele>126.5</ele><time>2026-04-04T16:50:26.689Z</time></trkpt><trkpt lat="43.91507" lon="12.692875"><ele>126.75</ele><time>2026-04-04T16:50:27.689Z</time></trkpt><trkpt lat="43.9151533" lon="12.69299"><ele>127.0</ele><time>2026-04-04T16:50:28.689Z</time></trkpt><trkpt lat="43.915235" lon="12.6931017"><ele>126.33333333333334</ele><time>2026-04-04T16:50:29.689Z</time></trkpt><trkpt lat="43.91531" lon="12.6932017"><ele>125.66666666666667</ele><time>2026-04-04T16:50:30.689Z</time></trkpt><trkpt lat="43.915375" lon="12.6932883"><ele>125.0</ele><time>2026-04-04T16:50:31.69Z</time></trkpt><trkpt lat="43.9154283" lon="12.6933633"><ele>124.33333333333334</ele><time>2026-04-04T16:50:32.688Z</time></trkpt><trkpt lat="43.91548" lon="12.6934233"><ele>123.66666666666667</ele><time>2026-04-04T16:50:33.688Z</time></trkpt><trkpt lat="43.9155317" lon="12.6934783"><ele>123.0</ele><time>2026-04-04T16:50:34.689Z</time></trkpt><trkpt lat="43.915605" lon="12.69359"><ele>122.0</ele><time>2026-04-04T16:50:36.689Z</time></trkpt><trkpt lat="43.91562" lon="12.6936983"><ele>121.00000000000001</ele><time>2026-04-04T16:50:38.689Z</time></trkpt><trkpt lat="43.9156" lon="12.6937817"><ele>120.00000000000001</ele><time>2026-04-04T16:50:41.689Z</time></trkpt><trkpt lat="43.9155417" lon="12.6938217"><ele>119.0</ele><time>2026-04-04T16:50:43.691Z</time></trkpt><trkpt lat="43.9154117" lon="12.693895"><ele>118.0</ele><time>2026-04-04T16:50:45.686Z</time></trkpt><trkpt lat="43.915195" lon="12.6940167"><ele>119.5</ele><time>2026-04-04T16:50:47.689Z</time></trkpt><trkpt lat="43.9150683" lon="12.6940933"><ele>121.0</ele><time>2026-04-04T16:50:48.686Z</time></trkpt><trkpt lat="43.914945" lon="12.69417"><ele>122.5</ele><time>2026-04-04T16:50:49.69Z</time></trkpt><trkpt lat="43.91484" lon="12.694235"><ele>124.0</ele><time>2026-04-04T16:50:50.686Z</time></trkpt><trkpt lat="43.9147583" lon="12.694285"><ele>124.0</ele><time>2026-04-04T16:50:51.688Z</time></trkpt><trkpt lat="43.9146917" lon="12.694325"><ele>124.0</ele><time>2026-04-04T16:50:52.687Z</time></trkpt><trkpt lat="43.9146083" lon="12.6944"><ele>124.0</ele><time>2026-04-04T16:50:54.689Z</time></trkpt><trkpt lat="43.9146167" lon="12.69452"><ele>124.0</ele><time>2026-04-04T16:50:56.689Z</time></trkpt><trkpt lat="43.9146683" lon="12.6946617"><ele>124.0</ele><time>2026-04-04T16:50:58.689Z</time></trkpt><trkpt lat="43.9147217" lon="12.6948117"><ele>123.0</ele><time>2026-04-04T16:51:00.688Z</time></trkpt><trkpt lat="43.9147733" lon="12.694965"><ele>122.0</ele><time>2026-04-04T16:51:02.689Z</time></trkpt><trkpt lat="43.9148117" lon="12.695115"><ele>121.0</ele><time>2026-04-04T16:51:04.691Z</time></trkpt><trkpt lat="43.9148467" lon="12.695255"><ele>120.0</ele><time>2026-04-04T16:51:06.69Z</time></trkpt><trkpt lat="43.9149333" lon="12.6955683"><ele>118.2</ele><time>2026-04-04T16:51:10.686Z</time></trkpt><trkpt lat="43.9149767" lon="12.695725"><ele>116.4</ele><time>2026-04-04T16:51:12.687Z</time></trkpt><trkpt lat="43.9150217" lon="12.6958817"><ele>114.6</ele><time>2026-04-04T16:51:14.687Z</time></trkpt><trkpt lat="43.915045" lon="12.6959633"><ele>112.8</ele><time>2026-04-04T16:51:15.688Z</time></trkpt><trkpt lat="43.9150883" lon="12.69612"><ele>111.0</ele><time>2026-04-04T16:51:17.686Z</time></trkpt><trkpt lat="43.9151217" lon="12.6962583"><ele>110.4</ele><time>2026-04-04T16:51:19.689Z</time></trkpt><trkpt lat="43.9151333" lon="12.6963717"><ele>109.8</ele><time>2026-04-04T16:51:21.687Z</time></trkpt><trkpt lat="43.9151067" lon="12.6964567"><ele>109.20000000000002</ele><time>2026-04-04T16:51:23.688Z</time></trkpt><trkpt lat="43.91504" lon="12.69651"><ele>108.60000000000001</ele><time>2026-04-04T16:51:25.689Z</time></trkpt><trkpt lat="43.9149467" lon="12.6965367"><ele>108.0</ele><time>2026-04-04T16:51:27.687Z</time></trkpt><trkpt lat="43.9147433" lon="12.6965983"><ele>108.0</ele><time>2026-04-04T16:51:30.687Z</time></trkpt><trkpt lat="43.9146767" lon="12.6966333"><ele>108.0</ele><time>2026-04-04T16:51:31.689Z</time></trkpt><trkpt lat="43.9146117" lon="12.6966733"><ele>108.0</ele><time>2026-04-04T16:51:32.687Z</time></trkpt><trkpt lat="43.9145467" lon="12.69672"><ele>108.0</ele><time>2026-04-04T16:51:33.687Z</time></trkpt><trkpt lat="43.9144867" lon="12.69677"><ele>108.0</ele><time>2026-04-04T16:51:34.687Z</time></trkpt><trkpt lat="43.9144283" lon="12.6968217"><ele>108.0</ele><time>2026-04-04T16:51:35.691Z</time></trkpt><trkpt lat="43.9143717" lon="12.69687"><ele>108.0</ele><time>2026-04-04T16:51:36.688Z</time></trkpt><trkpt lat="43.9143183" lon="12.6969167"><ele>108.33333333333333</ele><time>2026-04-04T16:51:37.69Z</time></trkpt><trkpt lat="43.9142633" lon="12.6969683"><ele>108.66666666666666</ele><time>2026-04-04T16:51:38.687Z</time></trkpt><trkpt lat="43.9142133" lon="12.6970233"><ele>109.0</ele><time>2026-04-04T16:51:39.689Z</time></trkpt><trkpt lat="43.9141633" lon="12.6970817"><ele>109.33333333333333</ele><time>2026-04-04T16:51:40.687Z</time></trkpt><trkpt lat="43.9140833" lon="12.6972033"><ele>109.66666666666666</ele><time>2026-04-04T16:51:42.69Z</time></trkpt><trkpt lat="43.9140317" lon="12.69733"><ele>110.0</ele><time>2026-04-04T16:51:44.688Z</time></trkpt><trkpt lat="43.9139817" lon="12.6974433"><ele>110.0</ele><time>2026-04-04T16:51:46.689Z</time></trkpt><trkpt lat="43.913925" lon="12.6975233"><ele>110.0</ele><time>2026-04-04T16:51:48.688Z</time></trkpt><trkpt lat="43.9137717" lon="12.6976467"><ele>110.0</ele><time>2026-04-04T16:51:52.688Z</time></trkpt><trkpt lat="43.9136983" lon="12.6977067"><ele>110.0</ele><time>2026-04-04T16:51:54.687Z</time></trkpt><trkpt lat="43.9136133" lon="12.6977717"><ele>110.0</ele><time>2026-04-04T16:51:56.689Z</time></trkpt><trkpt lat="43.9135233" lon="12.6978233"><ele>108.8</ele><time>2026-04-04T16:51:58.688Z</time></trkpt><trkpt lat="43.9134133" lon="12.697895"><ele>107.6</ele><time>2026-04-04T16:52:00.69Z</time></trkpt><trkpt lat="43.9133583" lon="12.69794"><ele>106.4</ele><time>2026-04-04T16:52:01.689Z</time></trkpt><trkpt lat="43.9132633" lon="12.6980167"><ele>105.2</ele><time>2026-04-04T16:52:03.689Z</time></trkpt><trkpt lat="43.9131783" lon="12.698085"><ele>104.0</ele><time>2026-04-04T16:52:05.691Z</time></trkpt><trkpt lat="43.913095" lon="12.6981633"><ele>104.0</ele><time>2026-04-04T16:52:07.689Z</time></trkpt><trkpt lat="43.9129917" lon="12.6982517"><ele>104.0</ele><time>2026-04-04T16:52:09.688Z</time></trkpt><trkpt lat="43.9128117" lon="12.6984183"><ele>104.0</ele><time>2026-04-04T16:52:13.691Z</time></trkpt><trkpt lat="43.9127267" lon="12.6985017"><ele>104.0</ele><time>2026-04-04T16:52:15.687Z</time></trkpt><trkpt lat="43.9126483" lon="12.69861"><ele>103.99999999999999</ele><time>2026-04-04T16:52:17.689Z</time></trkpt><trkpt lat="43.91261" lon="12.6986867"><ele>104.0</ele><time>2026-04-04T16:52:18.688Z</time></trkpt><trkpt lat="43.9125517" lon="12.6988283"><ele>104.0</ele><time>2026-04-04T16:52:20.688Z</time></trkpt><trkpt lat="43.9125083" lon="12.6989383"><ele>104.0</ele><time>2026-04-04T16:52:22.689Z</time></trkpt><trkpt lat="43.9124767" lon="12.69903"><ele>103.99999999999999</ele><time>2026-04-04T16:52:24.689Z</time></trkpt><trkpt lat="43.9124183" lon="12.6991167"><ele>104.0</ele><time>2026-04-04T16:52:26.69Z</time></trkpt><trkpt lat="43.9123483" lon="12.6992317"><ele>104.0</ele><time>2026-04-04T16:52:28.689Z</time></trkpt><trkpt lat="43.9122783" lon="12.6993483"><ele>104.0</ele><time>2026-04-04T16:52:30.688Z</time></trkpt><trkpt lat="43.9121467" lon="12.6995467"><ele>104.0</ele><time>2026-04-04T16:52:34.689Z</time></trkpt><trkpt lat="43.912075" lon="12.69964"><ele>104.0</ele><time>2026-04-04T16:52:36.69Z</time></trkpt><trkpt lat="43.9120117" lon="12.6997133"><ele>104.49999999999999</ele><time>2026-04-04T16:52:38.689Z</time></trkpt><trkpt lat="43.9119567" lon="12.69977"><ele>105.0</ele><time>2026-04-04T16:52:40.689Z</time></trkpt><trkpt lat="43.911905" lon="12.6998367"><ele>105.5</ele><time>2026-04-04T16:52:42.689Z</time></trkpt><trkpt lat="43.9118533" lon="12.69992"><ele>106.0</ele><time>2026-04-04T16:52:44.689Z</time></trkpt><trkpt lat="43.9117983" lon="12.6999967"><ele>106.49999999999999</ele><time>2026-04-04T16:52:46.687Z</time></trkpt><trkpt lat="43.9117233" lon="12.700085"><ele>107.0</ele><time>2026-04-04T16:52:48.688Z</time></trkpt><trkpt lat="43.9116733" lon="12.7001517"><ele>107.0</ele><time>2026-04-04T16:52:49.69Z</time></trkpt><trkpt lat="43.91161" lon="12.70023"><ele>106.99999999999999</ele><time>2026-04-04T16:52:50.689Z</time></trkpt><trkpt lat="43.911545" lon="12.7003133"><ele>106.99999999999999</ele><time>2026-04-04T16:52:51.687Z</time></trkpt><trkpt lat="43.911415" lon="12.700485"><ele>107.0</ele><time>2026-04-04T16:52:53.692Z</time></trkpt><trkpt lat="43.9113517" lon="12.7005733"><ele>107.0</ele><time>2026-04-04T16:52:54.688Z</time></trkpt><trkpt lat="43.9112883" lon="12.70066"><ele>106.66666666666666</ele><time>2026-04-04T16:52:55.689Z</time></trkpt><trkpt lat="43.911225" lon="12.7007483"><ele>106.33333333333333</ele><time>2026-04-04T16:52:56.689Z</time></trkpt><trkpt lat="43.9111633" lon="12.7008383"><ele>106.0</ele><time>2026-04-04T16:52:57.689Z</time></trkpt><trkpt lat="43.9111067" lon="12.7009233"><ele>105.66666666666666</ele><time>2026-04-04T16:52:58.689Z</time></trkpt><trkpt lat="43.9110567" lon="12.7010017"><ele>105.33333333333333</ele><time>2026-04-04T16:52:59.689Z</time></trkpt><trkpt lat="43.9110083" lon="12.7010733"><ele>105.0</ele><time>2026-04-04T16:53:00.689Z</time></trkpt><trkpt lat="43.910935" lon="12.7011833"><ele>104.66666666666667</ele><time>2026-04-04T16:53:02.687Z</time></trkpt><trkpt lat="43.910885" lon="12.7012617"><ele>104.33333333333334</ele><time>2026-04-04T16:53:04.688Z</time></trkpt><trkpt lat="43.9108783" lon="12.7013533"><ele>104.0</ele><time>2026-04-04T16:53:06.689Z</time></trkpt><trkpt lat="43.910935" lon="12.70146"><ele>103.66666666666667</ele><time>2026-04-04T16:53:08.689Z</time></trkpt><trkpt lat="43.910985" lon="12.7015233"><ele>103.33333333333334</ele><time>2026-04-04T16:53:09.687Z</time></trkpt><trkpt lat="43.9110317" lon="12.7015983"><ele>103.0</ele><time>2026-04-04T16:53:10.689Z</time></trkpt><trkpt lat="43.9110783" lon="12.7016833"><ele>103.0</ele><time>2026-04-04T16:53:11.687Z</time></trkpt><trkpt lat="43.9111317" lon="12.70177"><ele>103.0</ele><time>2026-04-04T16:53:12.687Z</time></trkpt><trkpt lat="43.911235" lon="12.70195"><ele>103.0</ele><time>2026-04-04T16:53:14.689Z</time></trkpt><trkpt lat="43.911285" lon="12.7020433"><ele>103.0</ele><time>2026-04-04T16:53:15.687Z</time></trkpt><trkpt lat="43.9113333" lon="12.702135"><ele>103.0</ele><time>2026-04-04T16:53:16.688Z</time></trkpt><trkpt lat="43.9113767" lon="12.7022267"><ele>101.83333333333334</ele><time>2026-04-04T16:53:17.689Z</time></trkpt><trkpt lat="43.91142" lon="12.7023183"><ele>100.66666666666667</ele><time>2026-04-04T16:53:18.689Z</time></trkpt><trkpt lat="43.9114683" lon="12.7024117"><ele>99.5</ele><time>2026-04-04T16:53:19.688Z</time></trkpt><trkpt lat="43.911515" lon="12.7025033"><ele>98.33333333333334</ele><time>2026-04-04T16:53:20.689Z</time></trkpt><trkpt lat="43.9115667" lon="12.70259"><ele>97.16666666666667</ele><time>2026-04-04T16:53:21.688Z</time></trkpt><trkpt lat="43.91162" lon="12.7026717"><ele>96.0</ele><time>2026-04-04T16:53:22.688Z</time></trkpt><trkpt lat="43.9116767" lon="12.7027483"><ele>93.19999999999999</ele><time>2026-04-04T16:53:23.689Z</time></trkpt><trkpt lat="43.911745" lon="12.7028067"><ele>90.39999999999999</ele><time>2026-04-04T16:53:24.69Z</time></trkpt><trkpt lat="43.911825" lon="12.7028667"><ele>87.6</ele><time>2026-04-04T16:53:25.692Z</time></trkpt><trkpt lat="43.9119133" lon="12.7029233"><ele>84.8</ele><time>2026-04-04T16:53:26.686Z</time></trkpt><trkpt lat="43.9119983" lon="12.7029733"><ele>82.0</ele><time>2026-04-04T16:53:27.69Z</time></trkpt><trkpt lat="43.912085" lon="12.703025"><ele>82.0</ele><time>2026-04-04T16:53:28.687Z</time></trkpt><trkpt lat="43.91217" lon="12.7030783"><ele>82.0</ele><time>2026-04-04T16:53:29.691Z</time></trkpt><trkpt lat="43.9122533" lon="12.703135"><ele>82.0</ele><time>2026-04-04T16:53:30.687Z</time></trkpt><trkpt lat="43.912335" lon="12.7031883"><ele>82.0</ele><time>2026-04-04T16:53:31.692Z</time></trkpt><trkpt lat="43.9124167" lon="12.7032433"><ele>82.0</ele><time>2026-04-04T16:53:32.687Z</time></trkpt><trkpt lat="43.9124917" lon="12.7032983"><ele>79.5</ele><time>2026-04-04T16:53:33.688Z</time></trkpt><trkpt lat="43.9126567" lon="12.70341"><ele>77.0</ele><time>2026-04-04T16:53:35.689Z</time></trkpt><trkpt lat="43.9127417" lon="12.7034667"><ele>74.5</ele><time>2026-04-04T16:53:36.689Z</time></trkpt><trkpt lat="43.91283" lon="12.7035283"><ele>72.0</ele><time>2026-04-04T16:53:37.691Z</time></trkpt><trkpt lat="43.9129233" lon="12.703595"><ele>71.4</ele><time>2026-04-04T16:53:38.691Z</time></trkpt><trkpt lat="43.91302" lon="12.70366"><ele>70.80000000000001</ele><time>2026-04-04T16:53:39.687Z</time></trkpt><trkpt lat="43.913115" lon="12.7037267"><ele>70.2</ele><time>2026-04-04T16:53:40.69Z</time></trkpt><trkpt lat="43.9132117" lon="12.7038"><ele>69.60000000000001</ele><time>2026-04-04T16:53:41.686Z</time></trkpt><trkpt lat="43.9133033" lon="12.7038717"><ele>69.0</ele><time>2026-04-04T16:53:42.688Z</time></trkpt><trkpt lat="43.91339" lon="12.7039433"><ele>67.60000000000001</ele><time>2026-04-04T16:53:43.689Z</time></trkpt><trkpt lat="43.9134767" lon="12.704015"><ele>66.2</ele><time>2026-04-04T16:53:44.688Z</time></trkpt><trkpt lat="43.9135683" lon="12.7041"><ele>64.80000000000001</ele><time>2026-04-04T16:53:45.686Z</time></trkpt><trkpt lat="43.91366" lon="12.7041883"><ele>63.400000000000006</ele><time>2026-04-04T16:53:46.689Z</time></trkpt><trkpt lat="43.9137517" lon="12.7042783"><ele>62.0</ele><time>2026-04-04T16:53:47.69Z</time></trkpt><trkpt lat="43.9138433" lon="12.7043667"><ele>61.6</ele><time>2026-04-04T16:53:48.687Z</time></trkpt><trkpt lat="43.9139317" lon="12.70446"><ele>61.2</ele><time>2026-04-04T16:53:49.689Z</time></trkpt><trkpt lat="43.9140167" lon="12.7045533"><ele>60.8</ele><time>2026-04-04T16:53:50.688Z</time></trkpt><trkpt lat="43.9140933" lon="12.7046383"><ele>60.4</ele><time>2026-04-04T16:53:51.687Z</time></trkpt><trkpt lat="43.9141633" lon="12.7047233"><ele>60.0</ele><time>2026-04-04T16:53:52.687Z</time></trkpt><trkpt lat="43.914225" lon="12.7048033"><ele>58.5</ele><time>2026-04-04T16:53:53.689Z</time></trkpt><trkpt lat="43.9142783" lon="12.704875"><ele>57.0</ele><time>2026-04-04T16:53:54.689Z</time></trkpt><trkpt lat="43.9143583" lon="12.7050333"><ele>55.5</ele><time>2026-04-04T16:53:56.691Z</time></trkpt><trkpt lat="43.9143767" lon="12.70512"><ele>54.0</ele><time>2026-04-04T16:53:57.687Z</time></trkpt><trkpt lat="43.9143783" lon="12.7052183"><ele>52.5</ele><time>2026-04-04T16:53:58.688Z</time></trkpt><trkpt lat="43.9143717" lon="12.70533"><ele>51.0</ele><time>2026-04-04T16:53:59.688Z</time></trkpt><trkpt lat="43.9143583" lon="12.7054517"><ele>50.8</ele><time>2026-04-04T16:54:00.689Z</time></trkpt><trkpt lat="43.9143467" lon="12.7055683"><ele>50.599999999999994</ele><time>2026-04-04T16:54:01.69Z</time></trkpt><trkpt lat="43.914335" lon="12.705685"><ele>50.4</ele><time>2026-04-04T16:54:02.687Z</time></trkpt><trkpt lat="43.9143283" lon="12.705795"><ele>50.2</ele><time>2026-04-04T16:54:03.686Z</time></trkpt><trkpt lat="43.9143133" lon="12.7059967"><ele>50.0</ele><time>2026-04-04T16:54:05.688Z</time></trkpt><trkpt lat="43.914305" lon="12.7060967"><ele>49.50000000000001</ele><time>2026-04-04T16:54:06.689Z</time></trkpt><trkpt lat="43.9142983" lon="12.7061917"><ele>49.0</ele><time>2026-04-04T16:54:07.691Z</time></trkpt><trkpt lat="43.91432" lon="12.70636"><ele>48.5</ele><time>2026-04-04T16:54:09.689Z</time></trkpt><trkpt lat="43.9143467" lon="12.70645"><ele>48.0</ele><time>2026-04-04T16:54:10.688Z</time></trkpt><trkpt lat="43.914375" lon="12.706535"><ele>47.5</ele><time>2026-04-04T16:54:11.687Z</time></trkpt><trkpt lat="43.9144033" lon="12.7066167"><ele>47.0</ele><time>2026-04-04T16:54:12.688Z</time></trkpt><trkpt lat="43.9144783" lon="12.706725"><ele>47.0</ele><time>2026-04-04T16:54:14.688Z</time></trkpt><trkpt lat="43.9145983" lon="12.7068067"><ele>47.0</ele><time>2026-04-04T16:54:16.687Z</time></trkpt><trkpt lat="43.9147617" lon="12.7068983"><ele>47.0</ele><time>2026-04-04T16:54:18.688Z</time></trkpt><trkpt lat="43.9148467" lon="12.706965"><ele>47.0</ele><time>2026-04-04T16:54:19.689Z</time></trkpt><trkpt lat="43.9149383" lon="12.7070417"><ele>46.6</ele><time>2026-04-04T16:54:20.687Z</time></trkpt><trkpt lat="43.91503" lon="12.70712"><ele>46.2</ele><time>2026-04-04T16:54:21.686Z</time></trkpt><trkpt lat="43.9151117" lon="12.70719"><ele>45.8</ele><time>2026-04-04T16:54:22.689Z</time></trkpt><trkpt lat="43.9151917" lon="12.7072533"><ele>45.4</ele><time>2026-04-04T16:54:23.69Z</time></trkpt><trkpt lat="43.9152767" lon="12.7073017"><ele>45.0</ele><time>2026-04-04T16:54:24.687Z</time></trkpt><trkpt lat="43.915365" lon="12.7073383"><ele>44.5</ele><time>2026-04-04T16:54:25.689Z</time></trkpt><trkpt lat="43.91544" lon="12.7073633"><ele>44.0</ele><time>2026-04-04T16:54:26.689Z</time></trkpt><trkpt lat="43.9155067" lon="12.7073867"><ele>43.5</ele><time>2026-04-04T16:54:27.686Z</time></trkpt><trkpt lat="43.9156117" lon="12.70744"><ele>43.0</ele><time>2026-04-04T16:54:29.689Z</time></trkpt><trkpt lat="43.91566" lon="12.707515"><ele>42.5</ele><time>2026-04-04T16:54:31.69Z</time></trkpt><trkpt lat="43.9156183" lon="12.7076583"><ele>42.0</ele><time>2026-04-04T16:54:34.688Z</time></trkpt><trkpt lat="43.9155833" lon="12.7077433"><ele>41.833333333333336</ele><time>2026-04-04T16:54:35.688Z</time></trkpt><trkpt lat="43.915545" lon="12.7078333"><ele>41.666666666666664</ele><time>2026-04-04T16:54:36.689Z</time></trkpt><trkpt lat="43.9155067" lon="12.7079133"><ele>41.5</ele><time>2026-04-04T16:54:37.69Z</time></trkpt><trkpt lat="43.9154267" lon="12.7080817"><ele>41.33333333333333</ele><time>2026-04-04T16:54:39.688Z</time></trkpt><trkpt lat="43.9154" lon="12.708175"><ele>41.166666666666664</ele><time>2026-04-04T16:54:40.69Z</time></trkpt><trkpt lat="43.9153867" lon="12.7082833"><ele>41.0</ele><time>2026-04-04T16:54:41.688Z</time></trkpt><trkpt lat="43.9153867" lon="12.7083967"><ele>41.0</ele><time>2026-04-04T16:54:42.689Z</time></trkpt><trkpt lat="43.9153933" lon="12.7085083"><ele>41.0</ele><time>2026-04-04T16:54:43.69Z</time></trkpt><trkpt lat="43.9153967" lon="12.7086017"><ele>41.0</ele><time>2026-04-04T16:54:44.689Z</time></trkpt><trkpt lat="43.9153967" lon="12.7087717"><ele>41.0</ele><time>2026-04-04T16:54:46.689Z</time></trkpt><trkpt lat="43.9153983" lon="12.7089383"><ele>41.0</ele><time>2026-04-04T16:54:48.689Z</time></trkpt><trkpt lat="43.9154017" lon="12.709035"><ele>41.14285714285714</ele><time>2026-04-04T16:54:49.688Z</time></trkpt><trkpt lat="43.9154067" lon="12.7091333"><ele>41.285714285714285</ele><time>2026-04-04T16:54:50.689Z</time></trkpt><trkpt lat="43.9154167" lon="12.7092283"><ele>41.42857142857143</ele><time>2026-04-04T16:54:51.689Z</time></trkpt><trkpt lat="43.9154267" lon="12.709325"><ele>41.57142857142857</ele><time>2026-04-04T16:54:52.689Z</time></trkpt><trkpt lat="43.915435" lon="12.7094183"><ele>41.714285714285715</ele><time>2026-04-04T16:54:53.686Z</time></trkpt><trkpt lat="43.9154367" lon="12.7095133"><ele>41.857142857142854</ele><time>2026-04-04T16:54:54.686Z</time></trkpt><trkpt lat="43.9154383" lon="12.70961"><ele>42.0</ele><time>2026-04-04T16:54:55.689Z</time></trkpt><trkpt lat="43.91544" lon="12.709705"><ele>42.25</ele><time>2026-04-04T16:54:56.689Z</time></trkpt><trkpt lat="43.915445" lon="12.7098667"><ele>42.5</ele><time>2026-04-04T16:54:58.69Z</time></trkpt><trkpt lat="43.9154583" lon="12.7101583"><ele>42.75</ele><time>2026-04-04T16:55:02.689Z</time></trkpt><trkpt lat="43.915465" lon="12.7102917"><ele>43.0</ele><time>2026-04-04T16:55:04.689Z</time></trkpt><trkpt lat="43.9154667" lon="12.71044"><ele>43.2</ele><time>2026-04-04T16:55:06.688Z</time></trkpt><trkpt lat="43.91547" lon="12.7105783"><ele>43.4</ele><time>2026-04-04T16:55:08.689Z</time></trkpt><trkpt lat="43.9154883" lon="12.7107033"><ele>43.6</ele><time>2026-04-04T16:55:10.687Z</time></trkpt><trkpt lat="43.9155367" lon="12.7107967"><ele>43.800000000000004</ele><time>2026-04-04T16:55:12.688Z</time></trkpt><trkpt lat="43.9156167" lon="12.7108483"><ele>44.0</ele><time>2026-04-04T16:55:14.688Z</time></trkpt><trkpt lat="43.9157083" lon="12.7108533"><ele>44.0</ele><time>2026-04-04T16:55:16.689Z</time></trkpt><trkpt lat="43.9157567" lon="12.7109333"><ele>44.0</ele><time>2026-04-04T16:55:18.688Z</time></trkpt><trkpt lat="43.9158067" lon="12.7111"><ele>44.0</ele><time>2026-04-04T16:55:20.688Z</time></trkpt><trkpt lat="43.915865" lon="12.711305"><ele>44.0</ele><time>2026-04-04T16:55:22.687Z</time></trkpt><trkpt lat="43.9159" lon="12.7114033"><ele>44.0</ele><time>2026-04-04T16:55:23.69Z</time></trkpt><trkpt lat="43.9159467" lon="12.711495"><ele>43.85714285714286</ele><time>2026-04-04T16:55:24.689Z</time></trkpt><trkpt lat="43.9159967" lon="12.711585"><ele>43.714285714285715</ele><time>2026-04-04T16:55:25.688Z</time></trkpt><trkpt lat="43.9160433" lon="12.7116733"><ele>43.57142857142857</ele><time>2026-04-04T16:55:26.689Z</time></trkpt><trkpt lat="43.9160867" lon="12.711755"><ele>43.42857142857143</ele><time>2026-04-04T16:55:27.687Z</time></trkpt><trkpt lat="43.916125" lon="12.7118317"><ele>43.285714285714285</ele><time>2026-04-04T16:55:28.688Z</time></trkpt><trkpt lat="43.9161567" lon="12.7119183"><ele>43.142857142857146</ele><time>2026-04-04T16:55:29.69Z</time></trkpt><trkpt lat="43.91619" lon="12.71201"><ele>43.0</ele><time>2026-04-04T16:55:30.689Z</time></trkpt><trkpt lat="43.9162233" lon="12.7120983"><ele>43.0</ele><time>2026-04-04T16:55:31.69Z</time></trkpt><trkpt lat="43.916255" lon="12.7121817"><ele>43.0</ele><time>2026-04-04T16:55:32.689Z</time></trkpt><trkpt lat="43.916305" lon="12.7123383"><ele>43.0</ele><time>2026-04-04T16:55:34.689Z</time></trkpt><trkpt lat="43.916345" lon="12.7124917"><ele>43.0</ele><time>2026-04-04T16:55:36.688Z</time></trkpt><trkpt lat="43.9163667" lon="12.7126233"><ele>43.0</ele><time>2026-04-04T16:55:38.688Z</time></trkpt><trkpt lat="43.916355" lon="12.71275"><ele>43.8</ele><time>2026-04-04T16:55:43.689Z</time></trkpt><trkpt lat="43.9162517" lon="12.7128867"><ele>44.599999999999994</ele><time>2026-04-04T16:55:48.688Z</time></trkpt><trkpt lat="43.9161333" lon="12.7129733"><ele>45.400000000000006</ele><time>2026-04-04T16:55:50.686Z</time></trkpt><trkpt lat="43.9160583" lon="12.7130233"><ele>46.2</ele><time>2026-04-04T16:55:51.69Z</time></trkpt><trkpt lat="43.9159783" lon="12.7130767"><ele>47.0</ele><time>2026-04-04T16:55:52.689Z</time></trkpt><trkpt lat="43.9158967" lon="12.7131283"><ele>49.0</ele><time>2026-04-04T16:55:53.686Z</time></trkpt><trkpt lat="43.9158117" lon="12.7131867"><ele>51.0</ele><time>2026-04-04T16:55:54.686Z</time></trkpt><trkpt lat="43.915725" lon="12.71325"><ele>53.0</ele><time>2026-04-04T16:55:55.688Z</time></trkpt><trkpt lat="43.9156367" lon="12.7133167"><ele>55.0</ele><time>2026-04-04T16:55:56.689Z</time></trkpt><trkpt lat="43.9155583" lon="12.7133783"><ele>57.0</ele><time>2026-04-04T16:55:57.687Z</time></trkpt><trkpt lat="43.9154833" lon="12.7134367"><ele>57.0</ele><time>2026-04-04T16:55:58.69Z</time></trkpt><trkpt lat="43.9154117" lon="12.7134983"><ele>57.0</ele><time>2026-04-04T16:55:59.687Z</time></trkpt><trkpt lat="43.915345" lon="12.7135667"><ele>57.0</ele><time>2026-04-04T16:56:00.687Z</time></trkpt><trkpt lat="43.9152783" lon="12.713635"><ele>57.0</ele><time>2026-04-04T16:56:01.691Z</time></trkpt><trkpt lat="43.91521" lon="12.713705"><ele>57.0</ele><time>2026-04-04T16:56:02.687Z</time></trkpt><trkpt lat="43.91514" lon="12.7137783"><ele>57.0</ele><time>2026-04-04T16:56:03.687Z</time></trkpt><trkpt lat="43.91508" lon="12.7138467"><ele>60.0</ele><time>2026-04-04T16:56:04.687Z</time></trkpt><trkpt lat="43.9149833" lon="12.714125"><ele>63.0</ele><time>2026-04-04T16:56:08.69Z</time></trkpt><trkpt lat="43.91497" lon="12.714225"><ele>66.0</ele><time>2026-04-04T16:56:09.686Z</time></trkpt><trkpt lat="43.9149583" lon="12.714325"><ele>69.0</ele><time>2026-04-04T16:56:10.688Z</time></trkpt><trkpt lat="43.9149483" lon="12.71442"><ele>72.0</ele><time>2026-04-04T16:56:11.69Z</time></trkpt><trkpt lat="43.9149117" lon="12.7145583"><ele>72.4</ele><time>2026-04-04T16:56:13.69Z</time></trkpt><trkpt lat="43.9148383" lon="12.7146183"><ele>72.80000000000001</ele><time>2026-04-04T16:56:15.687Z</time></trkpt><trkpt lat="43.91471" lon="12.7146617"><ele>73.2</ele><time>2026-04-04T16:56:17.688Z</time></trkpt><trkpt lat="43.9146217" lon="12.714685"><ele>73.60000000000001</ele><time>2026-04-04T16:56:18.686Z</time></trkpt><trkpt lat="43.9145217" lon="12.71471"><ele>74.0</ele><time>2026-04-04T16:56:19.689Z</time></trkpt><trkpt lat="43.9144183" lon="12.714745"><ele>74.0</ele><time>2026-04-04T16:56:20.688Z</time></trkpt><trkpt lat="43.9143283" lon="12.71478"><ele>74.0</ele><time>2026-04-04T16:56:21.687Z</time></trkpt><trkpt lat="43.9142533" lon="12.7148133"><ele>74.0</ele><time>2026-04-04T16:56:22.688Z</time></trkpt><trkpt lat="43.91419" lon="12.7148533"><ele>74.0</ele><time>2026-04-04T16:56:23.689Z</time></trkpt><trkpt lat="43.9141333" lon="12.7149067"><ele>74.0</ele><time>2026-04-04T16:56:24.687Z</time></trkpt><trkpt lat="43.9140833" lon="12.71498"><ele>74.0</ele><time>2026-04-04T16:56:25.69Z</time></trkpt><trkpt lat="43.9139817" lon="12.7151083"><ele>76.0</ele><time>2026-04-04T16:56:27.688Z</time></trkpt><trkpt lat="43.91392" lon="12.7151433"><ele>78.0</ele><time>2026-04-04T16:56:28.687Z</time></trkpt><trkpt lat="43.913845" lon="12.715165"><ele>80.0</ele><time>2026-04-04T16:56:29.688Z</time></trkpt><trkpt lat="43.9137617" lon="12.7151933"><ele>82.0</ele><time>2026-04-04T16:56:30.688Z</time></trkpt><trkpt lat="43.9136767" lon="12.7152217"><ele>84.0</ele><time>2026-04-04T16:56:31.689Z</time></trkpt><trkpt lat="43.91359" lon="12.7152483"><ele>86.0</ele><time>2026-04-04T16:56:32.687Z</time></trkpt><trkpt lat="43.91351" lon="12.7152783"><ele>86.5</ele><time>2026-04-04T16:56:33.687Z</time></trkpt><trkpt lat="43.9134483" lon="12.7153033"><ele>87.0</ele><time>2026-04-04T16:56:34.689Z</time></trkpt><trkpt lat="43.913365" lon="12.71533"><ele>87.5</ele><time>2026-04-04T16:56:36.687Z</time></trkpt><trkpt lat="43.913395" lon="12.71546"><ele>88.0</ele><time>2026-04-04T16:56:40.687Z</time></trkpt><trkpt lat="43.91346" lon="12.715525"><ele>88.5</ele><time>2026-04-04T16:56:41.689Z</time></trkpt><trkpt lat="43.9135383" lon="12.7156083"><ele>89.0</ele><time>2026-04-04T16:56:42.689Z</time></trkpt><trkpt lat="43.9136267" lon="12.7157067"><ele>89.0</ele><time>2026-04-04T16:56:43.688Z</time></trkpt><trkpt lat="43.913725" lon="12.71582"><ele>89.0</ele><time>2026-04-04T16:56:44.69Z</time></trkpt><trkpt lat="43.91383" lon="12.7159467"><ele>89.0</ele><time>2026-04-04T16:56:45.691Z</time></trkpt><trkpt lat="43.91394" lon="12.7160817"><ele>89.0</ele><time>2026-04-04T16:56:46.688Z</time></trkpt><trkpt lat="43.914175" lon="12.7163767"><ele>88.33333333333334</ele><time>2026-04-04T16:56:48.688Z</time></trkpt><trkpt lat="43.9142983" lon="12.7165333"><ele>87.66666666666667</ele><time>2026-04-04T16:56:49.69Z</time></trkpt><trkpt lat="43.914425" lon="12.716695"><ele>87.0</ele><time>2026-04-04T16:56:50.688Z</time></trkpt><trkpt lat="43.9145533" lon="12.716865"><ele>87.0</ele><time>2026-04-04T16:56:51.689Z</time></trkpt><trkpt lat="43.914675" lon="12.7170267"><ele>87.0</ele><time>2026-04-04T16:56:52.687Z</time></trkpt><trkpt lat="43.91479" lon="12.717185"><ele>87.0</ele><time>2026-04-04T16:56:53.688Z</time></trkpt><trkpt lat="43.9149" lon="12.7173483"><ele>87.0</ele><time>2026-04-04T16:56:54.689Z</time></trkpt><trkpt lat="43.915005" lon="12.717525"><ele>87.0</ele><time>2026-04-04T16:56:55.689Z</time></trkpt><trkpt lat="43.9151067" lon="12.7177117"><ele>87.0</ele><time>2026-04-04T16:56:56.688Z</time></trkpt><trkpt lat="43.9152067" lon="12.7179017"><ele>86.33333333333333</ele><time>2026-04-04T16:56:57.69Z</time></trkpt><trkpt lat="43.9153083" lon="12.7180917"><ele>85.66666666666666</ele><time>2026-04-04T16:56:58.687Z</time></trkpt><trkpt lat="43.91541" lon="12.7182833"><ele>85.0</ele><time>2026-04-04T16:56:59.689Z</time></trkpt><trkpt lat="43.91551" lon="12.7184767"><ele>85.66666666666666</ele><time>2026-04-04T16:57:00.689Z</time></trkpt><trkpt lat="43.9156117" lon="12.7186767"><ele>86.33333333333333</ele><time>2026-04-04T16:57:01.692Z</time></trkpt><trkpt lat="43.9157117" lon="12.718875"><ele>87.0</ele><time>2026-04-04T16:57:02.688Z</time></trkpt><trkpt lat="43.9158133" lon="12.7190717"><ele>87.0</ele><time>2026-04-04T16:57:03.689Z</time></trkpt><trkpt lat="43.9159133" lon="12.7192667"><ele>87.0</ele><time>2026-04-04T16:57:04.689Z</time></trkpt><trkpt lat="43.916015" lon="12.7194583"><ele>87.0</ele><time>2026-04-04T16:57:05.689Z</time></trkpt><trkpt lat="43.9161133" lon="12.7196367"><ele>87.0</ele><time>2026-04-04T16:57:06.69Z</time></trkpt><trkpt lat="43.9162067" lon="12.7197967"><ele>87.0</ele><time>2026-04-04T16:57:07.69Z</time></trkpt><trkpt lat="43.9163867" lon="12.720065"><ele>87.0</ele><time>2026-04-04T16:57:09.688Z</time></trkpt><trkpt lat="43.9164933" lon="12.7201933"><ele>85.33333333333333</ele><time>2026-04-04T16:57:10.69Z</time></trkpt><trkpt lat="43.9166117" lon="12.7203233"><ele>83.66666666666666</ele><time>2026-04-04T16:57:11.687Z</time></trkpt><trkpt lat="43.9167417" lon="12.7204517"><ele>82.0</ele><time>2026-04-04T16:57:12.687Z</time></trkpt><trkpt lat="43.916875" lon="12.7205717"><ele>80.33333333333333</ele><time>2026-04-04T16:57:13.689Z</time></trkpt><trkpt lat="43.9170067" lon="12.72069"><ele>78.66666666666667</ele><time>2026-04-04T16:57:14.688Z</time></trkpt><trkpt lat="43.9171417" lon="12.72081"><ele>77.0</ele><time>2026-04-04T16:57:15.688Z</time></trkpt><trkpt lat="43.917275" lon="12.7209267"><ele>77.0</ele><time>2026-04-04T16:57:16.689Z</time></trkpt><trkpt lat="43.9174117" lon="12.7210417"><ele>77.0</ele><time>2026-04-04T16:57:17.69Z</time></trkpt><trkpt lat="43.9175583" lon="12.7211533"><ele>77.0</ele><time>2026-04-04T16:57:18.687Z</time></trkpt><trkpt lat="43.9177117" lon="12.72126"><ele>73.66666666666667</ele><time>2026-04-04T16:57:19.691Z</time></trkpt><trkpt lat="43.9178667" lon="12.7213683"><ele>70.33333333333333</ele><time>2026-04-04T16:57:20.687Z</time></trkpt><trkpt lat="43.9180317" lon="12.7214717"><ele>67.0</ele><time>2026-04-04T16:57:21.688Z</time></trkpt><trkpt lat="43.9182017" lon="12.721565"><ele>67.0</ele><time>2026-04-04T16:57:22.688Z</time></trkpt><trkpt lat="43.9183683" lon="12.721655"><ele>67.0</ele><time>2026-04-04T16:57:23.69Z</time></trkpt><trkpt lat="43.91853" lon="12.7217467"><ele>67.0</ele><time>2026-04-04T16:57:24.689Z</time></trkpt><trkpt lat="43.918685" lon="12.7218383"><ele>64.66666666666666</ele><time>2026-04-04T16:57:25.688Z</time></trkpt><trkpt lat="43.91883" lon="12.72194"><ele>62.33333333333333</ele><time>2026-04-04T16:57:26.689Z</time></trkpt><trkpt lat="43.91897" lon="12.7220367"><ele>60.0</ele><time>2026-04-04T16:57:27.687Z</time></trkpt><trkpt lat="43.9191017" lon="12.722135"><ele>58.66666666666667</ele><time>2026-04-04T16:57:28.689Z</time></trkpt><trkpt lat="43.9193517" lon="12.7223267"><ele>57.333333333333336</ele><time>2026-04-04T16:57:30.691Z</time></trkpt><trkpt lat="43.91947" lon="12.722415"><ele>56.0</ele><time>2026-04-04T16:57:31.691Z</time></trkpt><trkpt lat="43.9195867" lon="12.7224967"><ele>56.0</ele><time>2026-04-04T16:57:32.689Z</time></trkpt><trkpt lat="43.9197017" lon="12.7225717"><ele>56.0</ele><time>2026-04-04T16:57:33.686Z</time></trkpt><trkpt lat="43.91982" lon="12.72263"><ele>56.0</ele><time>2026-04-04T16:57:34.69Z</time></trkpt><trkpt lat="43.9199367" lon="12.7226683"><ele>56.0</ele><time>2026-04-04T16:57:35.689Z</time></trkpt><trkpt lat="43.9200567" lon="12.7226933"><ele>53.75</ele><time>2026-04-04T16:57:36.689Z</time></trkpt><trkpt lat="43.920175" lon="12.7227133"><ele>51.5</ele><time>2026-04-04T16:57:37.691Z</time></trkpt><trkpt lat="43.9202933" lon="12.722735"><ele>49.25</ele><time>2026-04-04T16:57:38.689Z</time></trkpt><trkpt lat="43.920415" lon="12.7227633"><ele>47.0</ele><time>2026-04-04T16:57:39.688Z</time></trkpt><trkpt lat="43.9205417" lon="12.7227983"><ele>47.0</ele><time>2026-04-04T16:57:40.687Z</time></trkpt><trkpt lat="43.92067" lon="12.72284"><ele>47.0</ele><time>2026-04-04T16:57:41.688Z</time></trkpt><trkpt lat="43.9207967" lon="12.7228967"><ele>47.0</ele><time>2026-04-04T16:57:42.689Z</time></trkpt><trkpt lat="43.92092" lon="12.7229717"><ele>47.0</ele><time>2026-04-04T16:57:43.688Z</time></trkpt><trkpt lat="43.9210367" lon="12.7230667"><ele>45.5</ele><time>2026-04-04T16:57:44.686Z</time></trkpt><trkpt lat="43.921155" lon="12.7231717"><ele>44.0</ele><time>2026-04-04T16:57:45.687Z</time></trkpt><trkpt lat="43.921275" lon="12.72328"><ele>42.5</ele><time>2026-04-04T16:57:46.687Z</time></trkpt><trkpt lat="43.9214033" lon="12.7233833"><ele>41.0</ele><time>2026-04-04T16:57:47.687Z</time></trkpt><trkpt lat="43.9215367" lon="12.7234783"><ele>41.0</ele><time>2026-04-04T16:57:48.689Z</time></trkpt><trkpt lat="43.92168" lon="12.7235617"><ele>41.0</ele><time>2026-04-04T16:57:49.688Z</time></trkpt><trkpt lat="43.9219683" lon="12.7237"><ele>39.5</ele><time>2026-04-04T16:57:51.687Z</time></trkpt><trkpt lat="43.9221033" lon="12.7237683"><ele>38.0</ele><time>2026-04-04T16:57:52.689Z</time></trkpt><trkpt lat="43.9222317" lon="12.7238383"><ele>36.5</ele><time>2026-04-04T16:57:53.688Z</time></trkpt><trkpt lat="43.92235" lon="12.7238967"><ele>35.0</ele><time>2026-04-04T16:57:54.688Z</time></trkpt><trkpt lat="43.9224517" lon="12.7239333"><ele>35.0</ele><time>2026-04-04T16:57:55.689Z</time></trkpt><trkpt lat="43.9225283" lon="12.7239583"><ele>35.0</ele><time>2026-04-04T16:57:56.686Z</time></trkpt><trkpt lat="43.9226133" lon="12.7239917"><ele>35.0</ele><time>2026-04-04T16:57:58.69Z</time></trkpt><trkpt lat="43.92257" lon="12.7240717"><ele>35.0</ele><time>2026-04-04T16:58:18.689Z</time></trkpt><trkpt lat="43.9224183" lon="12.7241433"><ele>35.0</ele><time>2026-04-04T16:58:20.688Z</time></trkpt><trkpt lat="43.92232" lon="12.724185"><ele>35.0</ele><time>2026-04-04T16:58:21.686Z</time></trkpt><trkpt lat="43.9221967" lon="12.7242417"><ele>35.0</ele><time>2026-04-04T16:58:22.688Z</time></trkpt><trkpt lat="43.92205" lon="12.7243217"><ele>35.0</ele><time>2026-04-04T16:58:23.689Z</time></trkpt><trkpt lat="43.92189" lon="12.7244117"><ele>33.33333333333333</ele><time>2026-04-04T16:58:24.689Z</time></trkpt><trkpt lat="43.9217217" lon="12.724515"><ele>31.666666666666664</ele><time>2026-04-04T16:58:25.689Z</time></trkpt><trkpt lat="43.921545" lon="12.7246367"><ele>30.0</ele><time>2026-04-04T16:58:26.689Z</time></trkpt><trkpt lat="43.9213667" lon="12.7247733"><ele>30.0</ele><time>2026-04-04T16:58:27.687Z</time></trkpt><trkpt lat="43.9211983" lon="12.7249117"><ele>30.0</ele><time>2026-04-04T16:58:28.689Z</time></trkpt><trkpt lat="43.92104" lon="12.72504"><ele>30.0</ele><time>2026-04-04T16:58:29.693Z</time></trkpt><trkpt lat="43.9208917" lon="12.72516"><ele>30.333333333333336</ele><time>2026-04-04T16:58:30.689Z</time></trkpt><trkpt lat="43.920745" lon="12.7252783"><ele>30.666666666666668</ele><time>2026-04-04T16:58:31.69Z</time></trkpt><trkpt lat="43.9206" lon="12.7253967"><ele>31.0</ele><time>2026-04-04T16:58:32.688Z</time></trkpt><trkpt lat="43.9204533" lon="12.7255133"><ele>31.0</ele><time>2026-04-04T16:58:33.687Z</time></trkpt><trkpt lat="43.9203067" lon="12.72563"><ele>31.0</ele><time>2026-04-04T16:58:34.689Z</time></trkpt><trkpt lat="43.9201567" lon="12.7257467"><ele>31.0</ele><time>2026-04-04T16:58:35.69Z</time></trkpt><trkpt lat="43.920005" lon="12.725865"><ele>31.0</ele><time>2026-04-04T16:58:36.688Z</time></trkpt><trkpt lat="43.9198517" lon="12.725985"><ele>31.0</ele><time>2026-04-04T16:58:37.69Z</time></trkpt><trkpt lat="43.9196983" lon="12.7261067"><ele>31.0</ele><time>2026-04-04T16:58:38.69Z</time></trkpt><trkpt lat="43.9195433" lon="12.72623"><ele>30.5</ele><time>2026-04-04T16:58:39.687Z</time></trkpt><trkpt lat="43.919235" lon="12.7264783"><ele>30.0</ele><time>2026-04-04T16:58:41.689Z</time></trkpt><trkpt lat="43.9190783" lon="12.7266067"><ele>30.0</ele><time>2026-04-04T16:58:42.688Z</time></trkpt><trkpt lat="43.9189233" lon="12.7267317"><ele>30.0</ele><time>2026-04-04T16:58:43.689Z</time></trkpt><trkpt lat="43.9187717" lon="12.7268533"><ele>30.0</ele><time>2026-04-04T16:58:44.688Z</time></trkpt><trkpt lat="43.9186233" lon="12.7269717"><ele>30.666666666666664</ele><time>2026-04-04T16:58:45.687Z</time></trkpt><trkpt lat="43.9184817" lon="12.7270867"><ele>31.333333333333332</ele><time>2026-04-04T16:58:46.686Z</time></trkpt><trkpt lat="43.9183467" lon="12.727195"><ele>32.0</ele><time>2026-04-04T16:58:47.689Z</time></trkpt><trkpt lat="43.9182167" lon="12.7273"><ele>32.0</ele><time>2026-04-04T16:58:48.687Z</time></trkpt><trkpt lat="43.9180867" lon="12.7274067"><ele>32.0</ele><time>2026-04-04T16:58:49.689Z</time></trkpt><trkpt lat="43.9179533" lon="12.7275117"><ele>32.0</ele><time>2026-04-04T16:58:50.687Z</time></trkpt><trkpt lat="43.9178183" lon="12.7276167"><ele>32.0</ele><time>2026-04-04T16:58:51.687Z</time></trkpt><trkpt lat="43.9176817" lon="12.7277233"><ele>32.0</ele><time>2026-04-04T16:58:52.689Z</time></trkpt><trkpt lat="43.917545" lon="12.72783"><ele>32.0</ele><time>2026-04-04T16:58:53.689Z</time></trkpt><trkpt lat="43.9174067" lon="12.7279417"><ele>31.666666666666664</ele><time>2026-04-04T16:58:54.686Z</time></trkpt><trkpt lat="43.9172733" lon="12.728055"><ele>31.333333333333336</ele><time>2026-04-04T16:58:55.692Z</time></trkpt><trkpt lat="43.9171517" lon="12.7281767"><ele>31.0</ele><time>2026-04-04T16:58:56.687Z</time></trkpt><trkpt lat="43.9170367" lon="12.728315"><ele>31.0</ele><time>2026-04-04T16:58:57.687Z</time></trkpt><trkpt lat="43.9169333" lon="12.7284783"><ele>31.0</ele><time>2026-04-04T16:58:58.687Z</time></trkpt><trkpt lat="43.9168383" lon="12.7286617"><ele>31.0</ele><time>2026-04-04T16:58:59.686Z</time></trkpt><trkpt lat="43.91675" lon="12.7288583"><ele>30.0</ele><time>2026-04-04T16:59:00.689Z</time></trkpt><trkpt lat="43.916575" lon="12.72927"><ele>29.0</ele><time>2026-04-04T16:59:02.685Z</time></trkpt><trkpt lat="43.91649" lon="12.7294733"><ele>29.0</ele><time>2026-04-04T16:59:03.688Z</time></trkpt><trkpt lat="43.9164067" lon="12.7296767"><ele>29.0</ele><time>2026-04-04T16:59:04.689Z</time></trkpt><trkpt lat="43.916325" lon="12.7298833"><ele>29.0</ele><time>2026-04-04T16:59:05.685Z</time></trkpt><trkpt lat="43.9162433" lon="12.7300883"><ele>30.0</ele><time>2026-04-04T16:59:06.688Z</time></trkpt><trkpt lat="43.91616" lon="12.730295"><ele>31.0</ele><time>2026-04-04T16:59:07.69Z</time></trkpt><trkpt lat="43.9160733" lon="12.7305067"><ele>32.0</ele><time>2026-04-04T16:59:08.686Z</time></trkpt><trkpt lat="43.91599" lon="12.7307183"><ele>32.0</ele><time>2026-04-04T16:59:09.687Z</time></trkpt><trkpt lat="43.9159083" lon="12.730925"><ele>32.0</ele><time>2026-04-04T16:59:10.689Z</time></trkpt><trkpt lat="43.915825" lon="12.7311183"><ele>32.0</ele><time>2026-04-04T16:59:11.688Z</time></trkpt><trkpt lat="43.9157383" lon="12.73131"><ele>33.0</ele><time>2026-04-04T16:59:12.687Z</time></trkpt><trkpt lat="43.91564" lon="12.7314867"><ele>34.0</ele><time>2026-04-04T16:59:13.69Z</time></trkpt><trkpt lat="43.91552" lon="12.7316417"><ele>35.0</ele><time>2026-04-04T16:59:14.688Z</time></trkpt><trkpt lat="43.9153767" lon="12.7317717"><ele>35.0</ele><time>2026-04-04T16:59:15.685Z</time></trkpt><trkpt lat="43.9152283" lon="12.7318783"><ele>35.0</ele><time>2026-04-04T16:59:16.689Z</time></trkpt><trkpt lat="43.9150817" lon="12.7319517"><ele>35.0</ele><time>2026-04-04T16:59:17.69Z</time></trkpt><trkpt lat="43.9149483" lon="12.73201"><ele>35.0</ele><time>2026-04-04T16:59:18.688Z</time></trkpt><trkpt lat="43.9148283" lon="12.7320483"><ele>35.0</ele><time>2026-04-04T16:59:19.687Z</time></trkpt><trkpt lat="43.9147233" lon="12.7320683"><ele>35.0</ele><time>2026-04-04T16:59:20.688Z</time></trkpt><trkpt lat="43.9146333" lon="12.732075"><ele>35.0</ele><time>2026-04-04T16:59:21.687Z</time></trkpt><trkpt lat="43.9144683" lon="12.7321533"><ele>35.0</ele><time>2026-04-04T16:59:24.69Z</time></trkpt><trkpt lat="43.9144983" lon="12.7322983"><ele>35.0</ele><time>2026-04-04T16:59:26.687Z</time></trkpt><trkpt lat="43.914575" lon="12.7323933"><ele>35.0</ele><time>2026-04-04T16:59:27.688Z</time></trkpt><trkpt lat="43.9146817" lon="12.732485"><ele>35.0</ele><time>2026-04-04T16:59:28.689Z</time></trkpt><trkpt lat="43.9148133" lon="12.7325683"><ele>35.0</ele><time>2026-04-04T16:59:29.686Z</time></trkpt><trkpt lat="43.9149483" lon="12.7326567"><ele>35.0</ele><time>2026-04-04T16:59:30.687Z</time></trkpt><trkpt lat="43.9150867" lon="12.7327483"><ele>35.0</ele><time>2026-04-04T16:59:31.69Z</time></trkpt><trkpt lat="43.9152233" lon="12.7328417"><ele>34.666666666666664</ele><time>2026-04-04T16:59:32.689Z</time></trkpt><trkpt lat="43.9153667" lon="12.73294"><ele>34.333333333333336</ele><time>2026-04-04T16:59:33.687Z</time></trkpt><trkpt lat="43.91551" lon="12.7330433"><ele>34.0</ele><time>2026-04-04T16:59:34.687Z</time></trkpt><trkpt lat="43.9156567" lon="12.7331533"><ele>34.0</ele><time>2026-04-04T16:59:35.69Z</time></trkpt><trkpt lat="43.915805" lon="12.7332633"><ele>34.0</ele><time>2026-04-04T16:59:36.688Z</time></trkpt><trkpt lat="43.91596" lon="12.7333583"><ele>34.0</ele><time>2026-04-04T16:59:37.69Z</time></trkpt><trkpt lat="43.9161233" lon="12.7334417"><ele>34.333333333333336</ele><time>2026-04-04T16:59:38.688Z</time></trkpt><trkpt lat="43.9162867" lon="12.7335133"><ele>34.666666666666664</ele><time>2026-04-04T16:59:39.687Z</time></trkpt><trkpt lat="43.91645" lon="12.7335783"><ele>35.0</ele><time>2026-04-04T16:59:40.689Z</time></trkpt><trkpt lat="43.9166117" lon="12.7336333"><ele>35.0</ele><time>2026-04-04T16:59:41.687Z</time></trkpt><trkpt lat="43.9167717" lon="12.733675"><ele>35.0</ele><time>2026-04-04T16:59:42.687Z</time></trkpt><trkpt lat="43.9171" lon="12.7336717"><ele>35.0</ele><time>2026-04-04T16:59:44.689Z</time></trkpt><trkpt lat="43.91727" lon="12.7336233"><ele>35.0</ele><time>2026-04-04T16:59:45.689Z</time></trkpt><trkpt lat="43.9174433" lon="12.73355"><ele>35.0</ele><time>2026-04-04T16:59:46.687Z</time></trkpt><trkpt lat="43.9176133" lon="12.7334617"><ele>34.33333333333333</ele><time>2026-04-04T16:59:47.689Z</time></trkpt><trkpt lat="43.917785" lon="12.733355"><ele>33.666666666666664</ele><time>2026-04-04T16:59:48.687Z</time></trkpt><trkpt lat="43.9179533" lon="12.7332317"><ele>33.0</ele><time>2026-04-04T16:59:49.688Z</time></trkpt><trkpt lat="43.9181183" lon="12.7331"><ele>33.0</ele><time>2026-04-04T16:59:50.688Z</time></trkpt><trkpt lat="43.9182817" lon="12.7329617"><ele>33.0</ele><time>2026-04-04T16:59:51.686Z</time></trkpt><trkpt lat="43.9184467" lon="12.7328133"><ele>33.0</ele><time>2026-04-04T16:59:52.688Z</time></trkpt><trkpt lat="43.9186067" lon="12.7326633"><ele>32.666666666666664</ele><time>2026-04-04T16:59:53.69Z</time></trkpt><trkpt lat="43.9187633" lon="12.7325133"><ele>32.33333333333333</ele><time>2026-04-04T16:59:54.688Z</time></trkpt><trkpt lat="43.9189183" lon="12.7323817"><ele>32.0</ele><time>2026-04-04T16:59:55.689Z</time></trkpt><trkpt lat="43.9190733" lon="12.732275"><ele>32.0</ele><time>2026-04-04T16:59:56.688Z</time></trkpt><trkpt lat="43.9192317" lon="12.7321967"><ele>32.0</ele><time>2026-04-04T16:59:57.687Z</time></trkpt><trkpt lat="43.9193967" lon="12.732145"><ele>32.0</ele><time>2026-04-04T16:59:58.687Z</time></trkpt><trkpt lat="43.9195667" lon="12.73212"><ele>32.0</ele><time>2026-04-04T16:59:59.687Z</time></trkpt><trkpt lat="43.9197467" lon="12.732115"><ele>32.0</ele><time>2026-04-04T17:00:00.686Z</time></trkpt><trkpt lat="43.9199317" lon="12.73211"><ele>32.0</ele><time>2026-04-04T17:00:01.688Z</time></trkpt><trkpt lat="43.9201167" lon="12.7321033"><ele>31.5</ele><time>2026-04-04T17:00:02.686Z</time></trkpt><trkpt lat="43.9203017" lon="12.7320967"><ele>31.0</ele><time>2026-04-04T17:00:03.686Z</time></trkpt><trkpt lat="43.9206517" lon="12.732155"><ele>31.0</ele><time>2026-04-04T17:00:05.688Z</time></trkpt><trkpt lat="43.9208117" lon="12.73223"><ele>31.0</ele><time>2026-04-04T17:00:06.686Z</time></trkpt><trkpt lat="43.92096" lon="12.7323183"><ele>31.0</ele><time>2026-04-04T17:00:07.688Z</time></trkpt><trkpt lat="43.9210933" lon="12.7324083"><ele>31.0</ele><time>2026-04-04T17:00:08.69Z</time></trkpt><trkpt lat="43.9212117" lon="12.732495"><ele>31.0</ele><time>2026-04-04T17:00:09.686Z</time></trkpt><trkpt lat="43.92131" lon="12.73258"><ele>31.0</ele><time>2026-04-04T17:00:10.688Z</time></trkpt><trkpt lat="43.9213867" lon="12.7326617"><ele>31.0</ele><time>2026-04-04T17:00:11.689Z</time></trkpt><trkpt lat="43.9214567" lon="12.732735"><ele>31.0</ele><time>2026-04-04T17:00:12.687Z</time></trkpt><trkpt lat="43.921545" lon="12.7328"><ele>32.0</ele><time>2026-04-04T17:00:13.689Z</time></trkpt><trkpt lat="43.92165" lon="12.73285"><ele>33.0</ele><time>2026-04-04T17:00:14.687Z</time></trkpt><trkpt lat="43.92177" lon="12.73289"><ele>34.0</ele><time>2026-04-04T17:00:15.688Z</time></trkpt><trkpt lat="43.921905" lon="12.7329317"><ele>35.0</ele><time>2026-04-04T17:00:16.687Z</time></trkpt><trkpt lat="43.9220483" lon="12.7329783"><ele>35.666666666666664</ele><time>2026-04-04T17:00:17.687Z</time></trkpt><trkpt lat="43.9222033" lon="12.7330317"><ele>36.333333333333336</ele><time>2026-04-04T17:00:18.688Z</time></trkpt><trkpt lat="43.9223583" lon="12.73311"><ele>37.0</ele><time>2026-04-04T17:00:19.689Z</time></trkpt><trkpt lat="43.9225133" lon="12.7331967"><ele>35.66666666666667</ele><time>2026-04-04T17:00:20.686Z</time></trkpt><trkpt lat="43.922675" lon="12.733285"><ele>34.333333333333336</ele><time>2026-04-04T17:00:21.688Z</time></trkpt><trkpt lat="43.9228367" lon="12.73336"><ele>33.0</ele><time>2026-04-04T17:00:22.689Z</time></trkpt><trkpt lat="43.9229967" lon="12.733425"><ele>33.0</ele><time>2026-04-04T17:00:23.687Z</time></trkpt><trkpt lat="43.9231567" lon="12.73348"><ele>33.0</ele><time>2026-04-04T17:00:24.688Z</time></trkpt><trkpt lat="43.9234867" lon="12.7335533"><ele>32.333333333333336</ele><time>2026-04-04T17:00:26.688Z</time></trkpt><trkpt lat="43.9236467" lon="12.7335833"><ele>31.666666666666668</ele><time>2026-04-04T17:00:27.685Z</time></trkpt><trkpt lat="43.9237983" lon="12.7336283"><ele>31.0</ele><time>2026-04-04T17:00:28.687Z</time></trkpt><trkpt lat="43.92394" lon="12.7336967"><ele>31.0</ele><time>2026-04-04T17:00:29.688Z</time></trkpt><trkpt lat="43.9240733" lon="12.7337983"><ele>31.0</ele><time>2026-04-04T17:00:30.687Z</time></trkpt><trkpt lat="43.9242017" lon="12.7339217"><ele>31.0</ele><time>2026-04-04T17:00:31.687Z</time></trkpt><trkpt lat="43.9243217" lon="12.7340633"><ele>29.666666666666668</ele><time>2026-04-04T17:00:32.688Z</time></trkpt><trkpt lat="43.924435" lon="12.73423"><ele>28.333333333333336</ele><time>2026-04-04T17:00:33.686Z</time></trkpt><trkpt lat="43.9245317" lon="12.7344217"><ele>27.0</ele><time>2026-04-04T17:00:34.692Z</time></trkpt><trkpt lat="43.924615" lon="12.7346317"><ele>27.0</ele><time>2026-04-04T17:00:35.688Z</time></trkpt><trkpt lat="43.9246867" lon="12.7348483"><ele>27.0</ele><time>2026-04-04T17:00:36.689Z</time></trkpt><trkpt lat="43.9247483" lon="12.7350667"><ele>27.0</ele><time>2026-04-04T17:00:37.689Z</time></trkpt><trkpt lat="43.9248017" lon="12.7352767"><ele>27.666666666666664</ele><time>2026-04-04T17:00:38.685Z</time></trkpt><trkpt lat="43.9248483" lon="12.7354817"><ele>28.333333333333332</ele><time>2026-04-04T17:00:39.686Z</time></trkpt><trkpt lat="43.9248783" lon="12.7356967"><ele>29.0</ele><time>2026-04-04T17:00:40.688Z</time></trkpt><trkpt lat="43.9248967" lon="12.7359217"><ele>29.333333333333332</ele><time>2026-04-04T17:00:41.69Z</time></trkpt><trkpt lat="43.9249117" lon="12.7361483"><ele>29.666666666666664</ele><time>2026-04-04T17:00:42.687Z</time></trkpt><trkpt lat="43.9249317" lon="12.7363683"><ele>30.0</ele><time>2026-04-04T17:00:43.69Z</time></trkpt><trkpt lat="43.9249583" lon="12.7365717"><ele>30.0</ele><time>2026-04-04T17:00:44.688Z</time></trkpt><trkpt lat="43.9249983" lon="12.7367617"><ele>30.0</ele><time>2026-04-04T17:00:45.688Z</time></trkpt><trkpt lat="43.925145" lon="12.737105"><ele>30.0</ele><time>2026-04-04T17:00:47.687Z</time></trkpt><trkpt lat="43.9252483" lon="12.7372383"><ele>29.25</ele><time>2026-04-04T17:00:48.687Z</time></trkpt><trkpt lat="43.92537" lon="12.7373333"><ele>28.5</ele><time>2026-04-04T17:00:49.691Z</time></trkpt><trkpt lat="43.9255133" lon="12.7374"><ele>27.75</ele><time>2026-04-04T17:00:50.689Z</time></trkpt><trkpt lat="43.9256683" lon="12.7374467"><ele>27.0</ele><time>2026-04-04T17:00:51.692Z</time></trkpt><trkpt lat="43.9258267" lon="12.737495"><ele>27.0</ele><time>2026-04-04T17:00:52.688Z</time></trkpt><trkpt lat="43.92599" lon="12.7375567"><ele>27.0</ele><time>2026-04-04T17:00:53.687Z</time></trkpt><trkpt lat="43.9261567" lon="12.7376367"><ele>27.0</ele><time>2026-04-04T17:00:54.687Z</time></trkpt><trkpt lat="43.9263267" lon="12.737735"><ele>27.0</ele><time>2026-04-04T17:00:55.688Z</time></trkpt><trkpt lat="43.9264933" lon="12.7378433"><ele>27.0</ele><time>2026-04-04T17:00:56.686Z</time></trkpt><trkpt lat="43.9266533" lon="12.7379633"><ele>27.0</ele><time>2026-04-04T17:00:57.685Z</time></trkpt><trkpt lat="43.92681" lon="12.7381"><ele>27.333333333333336</ele><time>2026-04-04T17:00:58.688Z</time></trkpt><trkpt lat="43.9269517" lon="12.73826"><ele>27.666666666666668</ele><time>2026-04-04T17:00:59.685Z</time></trkpt><trkpt lat="43.9270817" lon="12.7384417"><ele>28.0</ele><time>2026-04-04T17:01:00.689Z</time></trkpt><trkpt lat="43.9272017" lon="12.7386367"><ele>28.0</ele><time>2026-04-04T17:01:01.687Z</time></trkpt><trkpt lat="43.92732" lon="12.73884"><ele>28.0</ele><time>2026-04-04T17:01:02.687Z</time></trkpt><trkpt lat="43.9274383" lon="12.7390483"><ele>28.0</ele><time>2026-04-04T17:01:03.686Z</time></trkpt><trkpt lat="43.92756" lon="12.7392583"><ele>28.333333333333336</ele><time>2026-04-04T17:01:04.688Z</time></trkpt><trkpt lat="43.92768" lon="12.7394617"><ele>28.666666666666664</ele><time>2026-04-04T17:01:05.689Z</time></trkpt><trkpt lat="43.927795" lon="12.7396517"><ele>29.0</ele><time>2026-04-04T17:01:06.687Z</time></trkpt><trkpt lat="43.9280033" lon="12.7399933"><ele>29.0</ele><time>2026-04-04T17:01:08.689Z</time></trkpt><trkpt lat="43.9280933" lon="12.7401533"><ele>29.0</ele><time>2026-04-04T17:01:09.686Z</time></trkpt><trkpt lat="43.9281767" lon="12.7402933"><ele>29.0</ele><time>2026-04-04T17:01:10.688Z</time></trkpt><trkpt lat="43.928255" lon="12.7404183"><ele>29.0</ele><time>2026-04-04T17:01:11.686Z</time></trkpt><trkpt lat="43.92832" lon="12.7405267"><ele>29.166666666666664</ele><time>2026-04-04T17:01:12.687Z</time></trkpt><trkpt lat="43.9283667" lon="12.7406183"><ele>29.333333333333332</ele><time>2026-04-04T17:01:13.689Z</time></trkpt><trkpt lat="43.928425" lon="12.7407417"><ele>29.5</ele><time>2026-04-04T17:01:15.687Z</time></trkpt><trkpt lat="43.9285083" lon="12.74078"><ele>29.666666666666664</ele><time>2026-04-04T17:01:17.688Z</time></trkpt><trkpt lat="43.9285767" lon="12.740785"><ele>29.833333333333332</ele><time>2026-04-04T17:01:18.687Z</time></trkpt><trkpt lat="43.9286617" lon="12.74079"><ele>30.0</ele><time>2026-04-04T17:01:19.689Z</time></trkpt><trkpt lat="43.928755" lon="12.7408017"><ele>30.0</ele><time>2026-04-04T17:01:20.688Z</time></trkpt><trkpt lat="43.92886" lon="12.74081"><ele>30.0</ele><time>2026-04-04T17:01:21.687Z</time></trkpt><trkpt lat="43.9289683" lon="12.7408067"><ele>30.0</ele><time>2026-04-04T17:01:22.689Z</time></trkpt><trkpt lat="43.9290783" lon="12.7407933"><ele>30.0</ele><time>2026-04-04T17:01:23.687Z</time></trkpt><trkpt lat="43.929195" lon="12.7407667"><ele>30.0</ele><time>2026-04-04T17:01:24.687Z</time></trkpt><trkpt lat="43.9293183" lon="12.7407417"><ele>30.0</ele><time>2026-04-04T17:01:25.69Z</time></trkpt><trkpt lat="43.929445" lon="12.7407083"><ele>30.0</ele><time>2026-04-04T17:01:26.686Z</time></trkpt><trkpt lat="43.9295667" lon="12.740675"><ele>30.0</ele><time>2026-04-04T17:01:27.689Z</time></trkpt><trkpt lat="43.929795" lon="12.7406133"><ele>30.0</ele><time>2026-04-04T17:01:29.686Z</time></trkpt><trkpt lat="43.9299083" lon="12.74059"><ele>30.0</ele><time>2026-04-04T17:01:30.687Z</time></trkpt><trkpt lat="43.9300217" lon="12.7405733"><ele>30.0</ele><time>2026-04-04T17:01:31.689Z</time></trkpt><trkpt lat="43.93014" lon="12.7405583"><ele>30.0</ele><time>2026-04-04T17:01:32.686Z</time></trkpt><trkpt lat="43.9302583" lon="12.7405467"><ele>29.25</ele><time>2026-04-04T17:01:33.687Z</time></trkpt><trkpt lat="43.9303717" lon="12.7405417"><ele>28.5</ele><time>2026-04-04T17:01:34.688Z</time></trkpt><trkpt lat="43.9304883" lon="12.7405367"><ele>27.75</ele><time>2026-04-04T17:01:35.69Z</time></trkpt><trkpt lat="43.9306067" lon="12.74053"><ele>27.0</ele><time>2026-04-04T17:01:36.686Z</time></trkpt><trkpt lat="43.930725" lon="12.7405167"><ele>27.0</ele><time>2026-04-04T17:01:37.69Z</time></trkpt><trkpt lat="43.9308467" lon="12.7404883"><ele>27.0</ele><time>2026-04-04T17:01:38.685Z</time></trkpt><trkpt lat="43.930965" lon="12.7404483"><ele>27.0</ele><time>2026-04-04T17:01:39.687Z</time></trkpt><trkpt lat="43.9310767" lon="12.7404067"><ele>27.0</ele><time>2026-04-04T17:01:40.688Z</time></trkpt><trkpt lat="43.93118" lon="12.7403683"><ele>26.833333333333332</ele><time>2026-04-04T17:01:41.686Z</time></trkpt><trkpt lat="43.93127" lon="12.740335"><ele>26.666666666666664</ele><time>2026-04-04T17:01:42.692Z</time></trkpt><trkpt lat="43.9313483" lon="12.7403083"><ele>26.5</ele><time>2026-04-04T17:01:43.687Z</time></trkpt><trkpt lat="43.9314167" lon="12.7403017"><ele>26.333333333333332</ele><time>2026-04-04T17:01:44.686Z</time></trkpt><trkpt lat="43.9314817" lon="12.740315"><ele>26.166666666666664</ele><time>2026-04-04T17:01:45.686Z</time></trkpt><trkpt lat="43.931545" lon="12.7403667"><ele>26.0</ele><time>2026-04-04T17:01:46.688Z</time></trkpt><trkpt lat="43.9316283" lon="12.7404667"><ele>26.0</ele><time>2026-04-04T17:01:47.692Z</time></trkpt><trkpt lat="43.93172" lon="12.7405833"><ele>26.0</ele><time>2026-04-04T17:01:48.69Z</time></trkpt><trkpt lat="43.9319317" lon="12.7408083"><ele>26.0</ele><time>2026-04-04T17:01:50.688Z</time></trkpt><trkpt lat="43.9320517" lon="12.740925"><ele>26.25</ele><time>2026-04-04T17:01:51.688Z</time></trkpt><trkpt lat="43.9321783" lon="12.741035"><ele>26.5</ele><time>2026-04-04T17:01:52.688Z</time></trkpt><trkpt lat="43.9323017" lon="12.741135"><ele>26.75</ele><time>2026-04-04T17:01:53.688Z</time></trkpt><trkpt lat="43.932415" lon="12.741225"><ele>27.0</ele><time>2026-04-04T17:01:54.687Z</time></trkpt><trkpt lat="43.9325217" lon="12.741305"><ele>27.8</ele><time>2026-04-04T17:01:55.693Z</time></trkpt><trkpt lat="43.9326183" lon="12.7413683"><ele>28.6</ele><time>2026-04-04T17:01:56.683Z</time></trkpt><trkpt lat="43.9327133" lon="12.7414033"><ele>29.400000000000002</ele><time>2026-04-04T17:01:57.686Z</time></trkpt><trkpt lat="43.9328217" lon="12.7414033"><ele>30.200000000000003</ele><time>2026-04-04T17:01:58.687Z</time></trkpt><trkpt lat="43.9329467" lon="12.74137"><ele>31.0</ele><time>2026-04-04T17:01:59.686Z</time></trkpt><trkpt lat="43.9330817" lon="12.7413167"><ele>31.0</ele><time>2026-04-04T17:02:00.688Z</time></trkpt><trkpt lat="43.933215" lon="12.7412683"><ele>31.0</ele><time>2026-04-04T17:02:01.689Z</time></trkpt><trkpt lat="43.9333383" lon="12.7412317"><ele>31.0</ele><time>2026-04-04T17:02:02.685Z</time></trkpt><trkpt lat="43.9334633" lon="12.7412117"><ele>31.0</ele><time>2026-04-04T17:02:03.687Z</time></trkpt><trkpt lat="43.9335817" lon="12.7412133"><ele>31.6</ele><time>2026-04-04T17:02:04.688Z</time></trkpt><trkpt lat="43.9336933" lon="12.74124"><ele>32.2</ele><time>2026-04-04T17:02:05.686Z</time></trkpt><trkpt lat="43.9337967" lon="12.7412867"><ele>32.8</ele><time>2026-04-04T17:02:06.688Z</time></trkpt><trkpt lat="43.9338967" lon="12.7413317"><ele>33.4</ele><time>2026-04-04T17:02:07.688Z</time></trkpt><trkpt lat="43.9339917" lon="12.7413683"><ele>34.0</ele><time>2026-04-04T17:02:08.686Z</time></trkpt><trkpt lat="43.93409" lon="12.741395"><ele>36.333333333333336</ele><time>2026-04-04T17:02:09.689Z</time></trkpt><trkpt lat="43.9343233" lon="12.741435"><ele>38.666666666666664</ele><time>2026-04-04T17:02:11.685Z</time></trkpt><trkpt lat="43.9344483" lon="12.7414617"><ele>41.0</ele><time>2026-04-04T17:02:12.688Z</time></trkpt><trkpt lat="43.9345717" lon="12.7414867"><ele>41.0</ele><time>2026-04-04T17:02:13.691Z</time></trkpt><trkpt lat="43.93469" lon="12.7415033"><ele>41.0</ele><time>2026-04-04T17:02:14.687Z</time></trkpt><trkpt lat="43.9348" lon="12.7415133"><ele>41.0</ele><time>2026-04-04T17:02:15.687Z</time></trkpt><trkpt lat="43.9349083" lon="12.741515"><ele>41.0</ele><time>2026-04-04T17:02:16.689Z</time></trkpt><trkpt lat="43.935015" lon="12.7415067"><ele>41.0</ele><time>2026-04-04T17:02:17.685Z</time></trkpt><trkpt lat="43.935125" lon="12.7414967"><ele>41.599999999999994</ele><time>2026-04-04T17:02:18.687Z</time></trkpt><trkpt lat="43.9352367" lon="12.7414817"><ele>42.2</ele><time>2026-04-04T17:02:19.688Z</time></trkpt><trkpt lat="43.935345" lon="12.7414717"><ele>42.8</ele><time>2026-04-04T17:02:20.686Z</time></trkpt><trkpt lat="43.935445" lon="12.741465"><ele>43.400000000000006</ele><time>2026-04-04T17:02:21.689Z</time></trkpt><trkpt lat="43.9355317" lon="12.741455"><ele>44.0</ele><time>2026-04-04T17:02:22.687Z</time></trkpt><trkpt lat="43.9355983" lon="12.74145"><ele>44.0</ele><time>2026-04-04T17:02:23.686Z</time></trkpt><trkpt lat="43.9356967" lon="12.7414317"><ele>44.0</ele><time>2026-04-04T17:02:25.691Z</time></trkpt><trkpt lat="43.93576" lon="12.7414233"><ele>44.0</ele><time>2026-04-04T17:02:26.685Z</time></trkpt><trkpt lat="43.935845" lon="12.7414067"><ele>44.0</ele><time>2026-04-04T17:02:27.687Z</time></trkpt><trkpt lat="43.935945" lon="12.7413917"><ele>44.0</ele><time>2026-04-04T17:02:28.687Z</time></trkpt><trkpt lat="43.936075" lon="12.7413767"><ele>40.33333333333333</ele><time>2026-04-04T17:02:29.686Z</time></trkpt><trkpt lat="43.9362083" lon="12.741375"><ele>36.666666666666664</ele><time>2026-04-04T17:02:30.688Z</time></trkpt><trkpt lat="43.9364867" lon="12.7414033"><ele>33.0</ele><time>2026-04-04T17:02:32.685Z</time></trkpt><trkpt lat="43.936625" lon="12.7414417"><ele>30.5</ele><time>2026-04-04T17:02:33.686Z</time></trkpt><trkpt lat="43.9367667" lon="12.74149"><ele>28.0</ele><time>2026-04-04T17:02:34.688Z</time></trkpt><trkpt lat="43.9369083" lon="12.74153"><ele>25.5</ele><time>2026-04-04T17:02:35.688Z</time></trkpt><trkpt lat="43.937055" lon="12.7415383"><ele>23.0</ele><time>2026-04-04T17:02:36.687Z</time></trkpt><trkpt lat="43.9372" lon="12.7415083"><ele>23.0</ele><time>2026-04-04T17:02:37.688Z</time></trkpt><trkpt lat="43.9373367" lon="12.74145"><ele>23.0</ele><time>2026-04-04T17:02:38.69Z</time></trkpt><trkpt lat="43.9374683" lon="12.74139"><ele>23.0</ele><time>2026-04-04T17:02:39.685Z</time></trkpt><trkpt lat="43.9376" lon="12.7413483"><ele>23.0</ele><time>2026-04-04T17:02:40.689Z</time></trkpt><trkpt lat="43.9377333" lon="12.7413417"><ele>21.75</ele><time>2026-04-04T17:02:41.684Z</time></trkpt><trkpt lat="43.93787" lon="12.741375"><ele>20.5</ele><time>2026-04-04T17:02:42.689Z</time></trkpt><trkpt lat="43.93801" lon="12.7414117"><ele>19.25</ele><time>2026-04-04T17:02:43.69Z</time></trkpt><trkpt lat="43.9381517" lon="12.741425"><ele>18.0</ele><time>2026-04-04T17:02:44.685Z</time></trkpt><trkpt lat="43.9382867" lon="12.74143"><ele>17.4</ele><time>2026-04-04T17:02:45.688Z</time></trkpt><trkpt lat="43.9384083" lon="12.7414317"><ele>16.8</ele><time>2026-04-04T17:02:46.688Z</time></trkpt><trkpt lat="43.9385083" lon="12.741435"><ele>16.2</ele><time>2026-04-04T17:02:47.687Z</time></trkpt><trkpt lat="43.9385783" lon="12.7414467"><ele>15.6</ele><time>2026-04-04T17:02:48.687Z</time></trkpt><trkpt lat="43.938665" lon="12.74151"><ele>15.0</ele><time>2026-04-04T17:02:50.688Z</time></trkpt><trkpt lat="43.93873" lon="12.7416667"><ele>15.666666666666668</ele><time>2026-04-04T17:02:52.689Z</time></trkpt><trkpt lat="43.9387833" lon="12.7419817"><ele>16.333333333333336</ele><time>2026-04-04T17:02:54.689Z</time></trkpt><trkpt lat="43.9388417" lon="12.74216"><ele>17.0</ele><time>2026-04-04T17:02:55.691Z</time></trkpt><trkpt lat="43.93891" lon="12.7423383"><ele>17.0</ele><time>2026-04-04T17:02:56.69Z</time></trkpt><trkpt lat="43.939" lon="12.7425033"><ele>17.0</ele><time>2026-04-04T17:02:57.687Z</time></trkpt><trkpt lat="43.9391017" lon="12.742665"><ele>17.0</ele><time>2026-04-04T17:02:58.69Z</time></trkpt><trkpt lat="43.9392133" lon="12.7428183"><ele>16.666666666666668</ele><time>2026-04-04T17:02:59.685Z</time></trkpt><trkpt lat="43.9393283" lon="12.7429683"><ele>16.333333333333332</ele><time>2026-04-04T17:03:00.687Z</time></trkpt><trkpt lat="43.93944" lon="12.7431167"><ele>16.0</ele><time>2026-04-04T17:03:01.689Z</time></trkpt><trkpt lat="43.939545" lon="12.7432583"><ele>16.0</ele><time>2026-04-04T17:03:02.689Z</time></trkpt><trkpt lat="43.93964" lon="12.7433917"><ele>16.0</ele><time>2026-04-04T17:03:03.685Z</time></trkpt><trkpt lat="43.9397383" lon="12.743525"><ele>16.0</ele><time>2026-04-04T17:03:04.686Z</time></trkpt><trkpt lat="43.9398283" lon="12.74367"><ele>16.0</ele><time>2026-04-04T17:03:05.69Z</time></trkpt><trkpt lat="43.939925" lon="12.7438183"><ele>16.0</ele><time>2026-04-04T17:03:06.688Z</time></trkpt><trkpt lat="43.9400383" lon="12.74397"><ele>16.0</ele><time>2026-04-04T17:03:07.69Z</time></trkpt><trkpt lat="43.9401517" lon="12.744125"><ele>16.0</ele><time>2026-04-04T17:03:08.687Z</time></trkpt><trkpt lat="43.9402683" lon="12.7442833"><ele>15.666666666666666</ele><time>2026-04-04T17:03:09.691Z</time></trkpt><trkpt lat="43.9403867" lon="12.74444"><ele>15.333333333333332</ele><time>2026-04-04T17:03:10.688Z</time></trkpt><trkpt lat="43.9405033" lon="12.74459"><ele>15.0</ele><time>2026-04-04T17:03:11.69Z</time></trkpt><trkpt lat="43.9406217" lon="12.74474"><ele>15.0</ele><time>2026-04-04T17:03:12.688Z</time></trkpt><trkpt lat="43.94074" lon="12.7448933"><ele>15.0</ele><time>2026-04-04T17:03:13.69Z</time></trkpt><trkpt lat="43.9409883" lon="12.745205"><ele>15.0</ele><time>2026-04-04T17:03:15.686Z</time></trkpt><trkpt lat="43.94111" lon="12.745365"><ele>15.0</ele><time>2026-04-04T17:03:16.688Z</time></trkpt><trkpt lat="43.9412333" lon="12.745525"><ele>15.0</ele><time>2026-04-04T17:03:17.684Z</time></trkpt><trkpt lat="43.9413633" lon="12.745685"><ele>15.0</ele><time>2026-04-04T17:03:18.687Z</time></trkpt><trkpt lat="43.9414967" lon="12.7458467"><ele>15.0</ele><time>2026-04-04T17:03:19.688Z</time></trkpt><trkpt lat="43.9416233" lon="12.7460133"><ele>15.0</ele><time>2026-04-04T17:03:20.687Z</time></trkpt><trkpt lat="43.9417483" lon="12.7461733"><ele>15.333333333333332</ele><time>2026-04-04T17:03:21.686Z</time></trkpt><trkpt lat="43.94187" lon="12.74633"><ele>15.666666666666666</ele><time>2026-04-04T17:03:22.687Z</time></trkpt><trkpt lat="43.9419917" lon="12.7464883"><ele>16.0</ele><time>2026-04-04T17:03:23.689Z</time></trkpt><trkpt lat="43.94211" lon="12.7466433"><ele>16.0</ele><time>2026-04-04T17:03:24.687Z</time></trkpt><trkpt lat="43.9422317" lon="12.7468033"><ele>16.0</ele><time>2026-04-04T17:03:25.689Z</time></trkpt><trkpt lat="43.9423483" lon="12.74697"><ele>16.0</ele><time>2026-04-04T17:03:26.688Z</time></trkpt><trkpt lat="43.94246" lon="12.7471417"><ele>16.333333333333332</ele><time>2026-04-04T17:03:27.687Z</time></trkpt><trkpt lat="43.9425617" lon="12.7473283"><ele>16.666666666666668</ele><time>2026-04-04T17:03:28.686Z</time></trkpt><trkpt lat="43.94265" lon="12.7475317"><ele>17.0</ele><time>2026-04-04T17:03:29.688Z</time></trkpt><trkpt lat="43.9427383" lon="12.7477417"><ele>17.666666666666668</ele><time>2026-04-04T17:03:30.689Z</time></trkpt><trkpt lat="43.9428233" lon="12.747955"><ele>18.333333333333332</ele><time>2026-04-04T17:03:31.688Z</time></trkpt><trkpt lat="43.942905" lon="12.74816"><ele>19.0</ele><time>2026-04-04T17:03:32.688Z</time></trkpt><trkpt lat="43.9429817" lon="12.748355"><ele>19.0</ele><time>2026-04-04T17:03:33.69Z</time></trkpt><trkpt lat="43.9430517" lon="12.7485333"><ele>19.0</ele><time>2026-04-04T17:03:34.686Z</time></trkpt><trkpt lat="43.9431833" lon="12.748855"><ele>19.0</ele><time>2026-04-04T17:03:36.687Z</time></trkpt><trkpt lat="43.9432383" lon="12.7489917"><ele>19.0</ele><time>2026-04-04T17:03:37.691Z</time></trkpt><trkpt lat="43.9432767" lon="12.7491083"><ele>19.0</ele><time>2026-04-04T17:03:38.687Z</time></trkpt><trkpt lat="43.943305" lon="12.74922"><ele>19.0</ele><time>2026-04-04T17:03:39.686Z</time></trkpt><trkpt lat="43.9433367" lon="12.7493167"><ele>19.0</ele><time>2026-04-04T17:03:40.687Z</time></trkpt><trkpt lat="43.9433783" lon="12.7493883"><ele>19.0</ele><time>2026-04-04T17:03:41.688Z</time></trkpt><trkpt lat="43.9435017" lon="12.7494117"><ele>19.0</ele><time>2026-04-04T17:03:43.691Z</time></trkpt><trkpt lat="43.9435867" lon="12.7493533"><ele>19.333333333333332</ele><time>2026-04-04T17:03:44.688Z</time></trkpt><trkpt lat="43.9437133" lon="12.7492467"><ele>19.666666666666668</ele><time>2026-04-04T17:03:45.688Z</time></trkpt><trkpt lat="43.9438517" lon="12.7491"><ele>20.0</ele><time>2026-04-04T17:03:46.69Z</time></trkpt><trkpt lat="43.9439833" lon="12.7489783"><ele>20.0</ele><time>2026-04-04T17:03:47.688Z</time></trkpt><trkpt lat="43.9441067" lon="12.7488683"><ele>20.0</ele><time>2026-04-04T17:03:48.687Z</time></trkpt><trkpt lat="43.9442267" lon="12.7487633"><ele>20.0</ele><time>2026-04-04T17:03:49.689Z</time></trkpt><trkpt lat="43.9443433" lon="12.74866"><ele>20.0</ele><time>2026-04-04T17:03:50.687Z</time></trkpt><trkpt lat="43.9444633" lon="12.748555"><ele>19.5</ele><time>2026-04-04T17:03:51.686Z</time></trkpt><trkpt lat="43.9445817" lon="12.7484467"><ele>19.0</ele><time>2026-04-04T17:03:52.689Z</time></trkpt><trkpt lat="43.9447033" lon="12.748345"><ele>18.5</ele><time>2026-04-04T17:03:53.688Z</time></trkpt><trkpt lat="43.94483" lon="12.7482567"><ele>18.0</ele><time>2026-04-04T17:03:54.688Z</time></trkpt><trkpt lat="43.9449533" lon="12.7481817"><ele>18.666666666666668</ele><time>2026-04-04T17:03:55.688Z</time></trkpt><trkpt lat="43.9452" lon="12.7480683"><ele>19.333333333333336</ele><time>2026-04-04T17:03:57.687Z</time></trkpt><trkpt lat="43.9453217" lon="12.748025"><ele>20.0</ele><time>2026-04-04T17:03:58.687Z</time></trkpt><trkpt lat="43.94544" lon="12.7479917"><ele>20.0</ele><time>2026-04-04T17:03:59.689Z</time></trkpt><trkpt lat="43.9455617" lon="12.7479617"><ele>20.0</ele><time>2026-04-04T17:04:00.689Z</time></trkpt><trkpt lat="43.9456833" lon="12.7479283"><ele>20.0</ele><time>2026-04-04T17:04:01.687Z</time></trkpt><trkpt lat="43.9458067" lon="12.7478917"><ele>20.0</ele><time>2026-04-04T17:04:02.686Z</time></trkpt><trkpt lat="43.94593" lon="12.7478533"><ele>20.25</ele><time>2026-04-04T17:04:03.686Z</time></trkpt><trkpt lat="43.94605" lon="12.7478167"><ele>20.5</ele><time>2026-04-04T17:04:04.687Z</time></trkpt><trkpt lat="43.9461667" lon="12.7477833"><ele>20.75</ele><time>2026-04-04T17:04:05.689Z</time></trkpt><trkpt lat="43.9462817" lon="12.7477467"><ele>21.0</ele><time>2026-04-04T17:04:06.688Z</time></trkpt><trkpt lat="43.9464" lon="12.7477133"><ele>20.0</ele><time>2026-04-04T17:04:07.688Z</time></trkpt><trkpt lat="43.94652" lon="12.747675"><ele>19.0</ele><time>2026-04-04T17:04:08.687Z</time></trkpt><trkpt lat="43.9466433" lon="12.747635"><ele>18.0</ele><time>2026-04-04T17:04:09.687Z</time></trkpt><trkpt lat="43.94677" lon="12.7475983"><ele>17.0</ele><time>2026-04-04T17:04:10.687Z</time></trkpt><trkpt lat="43.9468933" lon="12.747565"><ele>17.0</ele><time>2026-04-04T17:04:11.687Z</time></trkpt><trkpt lat="43.94701" lon="12.7475283"><ele>17.0</ele><time>2026-04-04T17:04:12.688Z</time></trkpt><trkpt lat="43.94712" lon="12.7474917"><ele>17.0</ele><time>2026-04-04T17:04:13.689Z</time></trkpt><trkpt lat="43.9472267" lon="12.7474567"><ele>17.0</ele><time>2026-04-04T17:04:14.689Z</time></trkpt><trkpt lat="43.947335" lon="12.7474283"><ele>17.0</ele><time>2026-04-04T17:04:15.687Z</time></trkpt><trkpt lat="43.9474433" lon="12.7474067"><ele>17.0</ele><time>2026-04-04T17:04:16.689Z</time></trkpt><trkpt lat="43.9476517" lon="12.74739"><ele>17.0</ele><time>2026-04-04T17:04:18.687Z</time></trkpt><trkpt lat="43.947745" lon="12.7474"><ele>17.0</ele><time>2026-04-04T17:04:19.687Z</time></trkpt><trkpt lat="43.947825" lon="12.7474183"><ele>16.4</ele><time>2026-04-04T17:04:20.689Z</time></trkpt><trkpt lat="43.9479283" lon="12.74746"><ele>15.799999999999999</ele><time>2026-04-04T17:04:22.688Z</time></trkpt><trkpt lat="43.948" lon="12.74752"><ele>15.2</ele><time>2026-04-04T17:04:26.688Z</time></trkpt><trkpt lat="43.9480917" lon="12.7475567"><ele>14.6</ele><time>2026-04-04T17:04:28.687Z</time></trkpt><trkpt lat="43.9482083" lon="12.747555"><ele>14.0</ele><time>2026-04-04T17:04:30.688Z</time></trkpt><trkpt lat="43.9482783" lon="12.7475683"><ele>14.0</ele><time>2026-04-04T17:04:31.691Z</time></trkpt><trkpt lat="43.9483567" lon="12.7475967"><ele>13.999999999999998</ele><time>2026-04-04T17:04:32.688Z</time></trkpt><trkpt lat="43.9484417" lon="12.7476367"><ele>13.999999999999998</ele><time>2026-04-04T17:04:33.687Z</time></trkpt><trkpt lat="43.9485317" lon="12.7476883"><ele>14.0</ele><time>2026-04-04T17:04:34.689Z</time></trkpt><trkpt lat="43.948625" lon="12.7477533"><ele>14.0</ele><time>2026-04-04T17:04:35.683Z</time></trkpt><trkpt lat="43.9487183" lon="12.747825"><ele>14.333333333333334</ele><time>2026-04-04T17:04:36.687Z</time></trkpt><trkpt lat="43.9488133" lon="12.7478983"><ele>14.666666666666668</ele><time>2026-04-04T17:04:37.69Z</time></trkpt><trkpt lat="43.9490167" lon="12.7480533"><ele>15.0</ele><time>2026-04-04T17:04:39.689Z</time></trkpt><trkpt lat="43.94912" lon="12.7481367"><ele>14.0</ele><time>2026-04-04T17:04:40.689Z</time></trkpt><trkpt lat="43.9492183" lon="12.7482183"><ele>13.0</ele><time>2026-04-04T17:04:41.689Z</time></trkpt><trkpt lat="43.94932" lon="12.748295"><ele>12.0</ele><time>2026-04-04T17:04:42.689Z</time></trkpt><trkpt lat="43.9494217" lon="12.74837"><ele>11.0</ele><time>2026-04-04T17:04:43.688Z</time></trkpt><trkpt lat="43.9495233" lon="12.748445"><ele>11.0</ele><time>2026-04-04T17:04:44.688Z</time></trkpt><trkpt lat="43.9496233" lon="12.7485217"><ele>11.0</ele><time>2026-04-04T17:04:45.688Z</time></trkpt><trkpt lat="43.9497267" lon="12.7486017"><ele>11.0</ele><time>2026-04-04T17:04:46.687Z</time></trkpt><trkpt lat="43.94983" lon="12.7486833"><ele>11.0</ele><time>2026-04-04T17:04:47.686Z</time></trkpt><trkpt lat="43.9499383" lon="12.74877"><ele>11.25</ele><time>2026-04-04T17:04:48.687Z</time></trkpt><trkpt lat="43.9500517" lon="12.7488533"><ele>11.5</ele><time>2026-04-04T17:04:49.69Z</time></trkpt><trkpt lat="43.9501717" lon="12.7489383"><ele>11.75</ele><time>2026-04-04T17:04:50.685Z</time></trkpt><trkpt lat="43.9502917" lon="12.7490283"><ele>12.0</ele><time>2026-04-04T17:04:51.687Z</time></trkpt><trkpt lat="43.9504133" lon="12.7491183"><ele>12.0</ele><time>2026-04-04T17:04:52.69Z</time></trkpt><trkpt lat="43.950535" lon="12.74921"><ele>12.0</ele><time>2026-04-04T17:04:53.689Z</time></trkpt><trkpt lat="43.9506533" lon="12.7493017"><ele>12.0</ele><time>2026-04-04T17:04:54.688Z</time></trkpt><trkpt lat="43.950765" lon="12.74939"><ele>12.0</ele><time>2026-04-04T17:04:55.689Z</time></trkpt><trkpt lat="43.950875" lon="12.7494817"><ele>12.333333333333332</ele><time>2026-04-04T17:04:56.688Z</time></trkpt><trkpt lat="43.95099" lon="12.749575"><ele>12.666666666666666</ele><time>2026-04-04T17:04:57.687Z</time></trkpt><trkpt lat="43.9511067" lon="12.7496767"><ele>13.0</ele><time>2026-04-04T17:04:58.689Z</time></trkpt><trkpt lat="43.951335" lon="12.7498983"><ele>13.0</ele><time>2026-04-04T17:05:00.688Z</time></trkpt><trkpt lat="43.95145" lon="12.7500233"><ele>13.0</ele><time>2026-04-04T17:05:01.689Z</time></trkpt><trkpt lat="43.9515667" lon="12.7501517"><ele>13.0</ele><time>2026-04-04T17:05:02.689Z</time></trkpt><trkpt lat="43.95168" lon="12.7502817"><ele>13.0</ele><time>2026-04-04T17:05:03.689Z</time></trkpt><trkpt lat="43.9517883" lon="12.7504117"><ele>13.0</ele><time>2026-04-04T17:05:04.689Z</time></trkpt><trkpt lat="43.951895" lon="12.7505367"><ele>13.0</ele><time>2026-04-04T17:05:05.689Z</time></trkpt><trkpt lat="43.9520017" lon="12.7506567"><ele>13.0</ele><time>2026-04-04T17:05:06.69Z</time></trkpt><trkpt lat="43.9521083" lon="12.7507733"><ele>13.0</ele><time>2026-04-04T17:05:07.69Z</time></trkpt><trkpt lat="43.95221" lon="12.7508883"><ele>13.0</ele><time>2026-04-04T17:05:08.688Z</time></trkpt><trkpt lat="43.9523033" lon="12.7510033"><ele>13.0</ele><time>2026-04-04T17:05:09.688Z</time></trkpt><trkpt lat="43.9523933" lon="12.75111"><ele>13.0</ele><time>2026-04-04T17:05:10.689Z</time></trkpt><trkpt lat="43.9524833" lon="12.75121"><ele>13.0</ele><time>2026-04-04T17:05:11.688Z</time></trkpt><trkpt lat="43.9525717" lon="12.7513133"><ele>12.75</ele><time>2026-04-04T17:05:12.688Z</time></trkpt><trkpt lat="43.9526633" lon="12.7514183"><ele>12.5</ele><time>2026-04-04T17:05:13.691Z</time></trkpt><trkpt lat="43.952755" lon="12.7515217"><ele>12.25</ele><time>2026-04-04T17:05:14.688Z</time></trkpt><trkpt lat="43.9528483" lon="12.7516317"><ele>12.0</ele><time>2026-04-04T17:05:15.689Z</time></trkpt><trkpt lat="43.9529467" lon="12.7517483"><ele>12.0</ele><time>2026-04-04T17:05:16.687Z</time></trkpt><trkpt lat="43.9530467" lon="12.7518667"><ele>12.0</ele><time>2026-04-04T17:05:17.689Z</time></trkpt><trkpt lat="43.9531467" lon="12.751985"><ele>12.0</ele><time>2026-04-04T17:05:18.687Z</time></trkpt><trkpt lat="43.9532433" lon="12.752095"><ele>12.0</ele><time>2026-04-04T17:05:19.689Z</time></trkpt><trkpt lat="43.9534333" lon="12.75231"><ele>12.0</ele><time>2026-04-04T17:05:21.686Z</time></trkpt><trkpt lat="43.9535217" lon="12.75241"><ele>12.0</ele><time>2026-04-04T17:05:22.689Z</time></trkpt><trkpt lat="43.953605" lon="12.7525033"><ele>12.0</ele><time>2026-04-04T17:05:23.689Z</time></trkpt><trkpt lat="43.9536767" lon="12.7525883"><ele>12.0</ele><time>2026-04-04T17:05:24.689Z</time></trkpt><trkpt lat="43.953735" lon="12.7526717"><ele>12.0</ele><time>2026-04-04T17:05:25.689Z</time></trkpt><trkpt lat="43.9537733" lon="12.7527517"><ele>12.0</ele><time>2026-04-04T17:05:26.688Z</time></trkpt><trkpt lat="43.95379" lon="12.7529167"><ele>12.0</ele><time>2026-04-04T17:05:28.688Z</time></trkpt><trkpt lat="43.9537867" lon="12.7530067"><ele>12.0</ele><time>2026-04-04T17:05:29.689Z</time></trkpt><trkpt lat="43.95379" lon="12.75311"><ele>12.0</ele><time>2026-04-04T17:05:30.688Z</time></trkpt><trkpt lat="43.9538167" lon="12.7532083"><ele>12.0</ele><time>2026-04-04T17:05:31.69Z</time></trkpt><trkpt lat="43.9538733" lon="12.7533067"><ele>12.0</ele><time>2026-04-04T17:05:32.689Z</time></trkpt><trkpt lat="43.95396" lon="12.7534"><ele>12.0</ele><time>2026-04-04T17:05:33.69Z</time></trkpt><trkpt lat="43.9540467" lon="12.753465"><ele>12.0</ele><time>2026-04-04T17:05:34.688Z</time></trkpt><trkpt lat="43.9541783" lon="12.7534583"><ele>12.0</ele><time>2026-04-04T17:05:35.688Z</time></trkpt><trkpt lat="43.954295" lon="12.7534567"><ele>12.0</ele><time>2026-04-04T17:05:36.688Z</time></trkpt><trkpt lat="43.9544183" lon="12.753475"><ele>11.25</ele><time>2026-04-04T17:05:37.688Z</time></trkpt><trkpt lat="43.9545433" lon="12.753535"><ele>10.5</ele><time>2026-04-04T17:05:38.685Z</time></trkpt><trkpt lat="43.9546617" lon="12.7536167"><ele>9.75</ele><time>2026-04-04T17:05:39.686Z</time></trkpt><trkpt lat="43.9547967" lon="12.753675"><ele>9.0</ele><time>2026-04-04T17:05:40.689Z</time></trkpt><trkpt lat="43.9550683" lon="12.7538"><ele>8.5</ele><time>2026-04-04T17:05:42.688Z</time></trkpt><trkpt lat="43.9551967" lon="12.7539"><ele>8.0</ele><time>2026-04-04T17:05:43.689Z</time></trkpt><trkpt lat="43.9553133" lon="12.7540183"><ele>7.5</ele><time>2026-04-04T17:05:44.688Z</time></trkpt><trkpt lat="43.9554217" lon="12.7541317"><ele>7.0</ele><time>2026-04-04T17:05:45.689Z</time></trkpt><trkpt lat="43.955535" lon="12.75424"><ele>7.0</ele><time>2026-04-04T17:05:46.688Z</time></trkpt><trkpt lat="43.95565" lon="12.754345"><ele>7.0</ele><time>2026-04-04T17:05:47.686Z</time></trkpt><trkpt lat="43.955765" lon="12.754445"><ele>7.0</ele><time>2026-04-04T17:05:48.687Z</time></trkpt><trkpt lat="43.9558717" lon="12.7545383"><ele>7.0</ele><time>2026-04-04T17:05:49.688Z</time></trkpt><trkpt lat="43.9559667" lon="12.7546267"><ele>7.199999999999999</ele><time>2026-04-04T17:05:50.685Z</time></trkpt><trkpt lat="43.95606" lon="12.75471"><ele>7.3999999999999995</ele><time>2026-04-04T17:05:51.687Z</time></trkpt><trkpt lat="43.9561533" lon="12.754785"><ele>7.6000000000000005</ele><time>2026-04-04T17:05:52.687Z</time></trkpt><trkpt lat="43.9562417" lon="12.7548617"><ele>7.800000000000001</ele><time>2026-04-04T17:05:53.692Z</time></trkpt><trkpt lat="43.95633" lon="12.754935"><ele>8.0</ele><time>2026-04-04T17:05:54.687Z</time></trkpt><trkpt lat="43.9564217" lon="12.7550083"><ele>8.0</ele><time>2026-04-04T17:05:55.69Z</time></trkpt><trkpt lat="43.9565117" lon="12.7550883"><ele>8.0</ele><time>2026-04-04T17:05:56.688Z</time></trkpt><trkpt lat="43.9566" lon="12.7551717"><ele>8.0</ele><time>2026-04-04T17:05:57.689Z</time></trkpt><trkpt lat="43.9566883" lon="12.7552517"><ele>8.0</ele><time>2026-04-04T17:05:58.69Z</time></trkpt><trkpt lat="43.9567833" lon="12.755335"><ele>8.0</ele><time>2026-04-04T17:05:59.689Z</time></trkpt><trkpt lat="43.9568783" lon="12.755415"><ele>8.5</ele><time>2026-04-04T17:06:00.689Z</time></trkpt><trkpt lat="43.9569717" lon="12.7554967"><ele>9.0</ele><time>2026-04-04T17:06:01.689Z</time></trkpt><trkpt lat="43.9571333" lon="12.7556467"><ele>9.5</ele><time>2026-04-04T17:06:03.688Z</time></trkpt><trkpt lat="43.957205" lon="12.7557117"><ele>10.0</ele><time>2026-04-04T17:06:04.688Z</time></trkpt><trkpt lat="43.9572683" lon="12.75578"><ele>10.0</ele><time>2026-04-04T17:06:05.685Z</time></trkpt><trkpt lat="43.9573217" lon="12.755845"><ele>10.0</ele><time>2026-04-04T17:06:06.689Z</time></trkpt><trkpt lat="43.9573683" lon="12.75592"><ele>10.0</ele><time>2026-04-04T17:06:07.691Z</time></trkpt><trkpt lat="43.95741" lon="12.75599"><ele>10.0</ele><time>2026-04-04T17:06:08.689Z</time></trkpt><trkpt lat="43.9574583" lon="12.7560533"><ele>10.0</ele><time>2026-04-04T17:06:09.688Z</time></trkpt><trkpt lat="43.9575633" lon="12.75609"><ele>10.0</ele><time>2026-04-04T17:06:11.688Z</time></trkpt><trkpt lat="43.95767" lon="12.756055"><ele>9.5</ele><time>2026-04-04T17:06:13.689Z</time></trkpt><trkpt lat="43.9577333" lon="12.7560317"><ele>9.0</ele><time>2026-04-04T17:06:14.688Z</time></trkpt><trkpt lat="43.9578017" lon="12.7560283"><ele>8.5</ele><time>2026-04-04T17:06:15.687Z</time></trkpt><trkpt lat="43.9578667" lon="12.7560317"><ele>8.0</ele><time>2026-04-04T17:06:16.687Z</time></trkpt><trkpt lat="43.957985" lon="12.7560433"><ele>7.500000000000001</ele><time>2026-04-04T17:06:18.691Z</time></trkpt><trkpt lat="43.9580883" lon="12.756055"><ele>7.0</ele><time>2026-04-04T17:06:20.686Z</time></trkpt><trkpt lat="43.9582067" lon="12.75607"><ele>7.0</ele><time>2026-04-04T17:06:22.687Z</time></trkpt><trkpt lat="43.9583333" lon="12.7560833"><ele>6.999999999999999</ele><time>2026-04-04T17:06:24.69Z</time></trkpt><trkpt lat="43.958445" lon="12.7560917"><ele>6.999999999999999</ele><time>2026-04-04T17:06:26.685Z</time></trkpt><trkpt lat="43.9585583" lon="12.7561067"><ele>7.0</ele><time>2026-04-04T17:06:28.687Z</time></trkpt><trkpt lat="43.95865" lon="12.7561183"><ele>7.0</ele><time>2026-04-04T17:06:30.687Z</time></trkpt><trkpt lat="43.958715" lon="12.7561317"><ele>7.166666666666667</ele><time>2026-04-04T17:06:33.686Z</time></trkpt><trkpt lat="43.9588033" lon="12.7561567"><ele>7.333333333333334</ele><time>2026-04-04T17:06:36.689Z</time></trkpt><trkpt lat="43.9588717" lon="12.7561733"><ele>7.5</ele><time>2026-04-04T17:06:38.687Z</time></trkpt><trkpt lat="43.9589467" lon="12.756155"><ele>7.666666666666666</ele><time>2026-04-04T17:06:40.687Z</time></trkpt><trkpt lat="43.9590167" lon="12.75614"><ele>7.833333333333333</ele><time>2026-04-04T17:06:42.689Z</time></trkpt><trkpt lat="43.9590833" lon="12.756155"><ele>8.0</ele><time>2026-04-04T17:06:44.685Z</time></trkpt><trkpt lat="43.9592317" lon="12.7561733"><ele>8.200000000000001</ele><time>2026-04-04T17:06:49.69Z</time></trkpt><trkpt lat="43.959295" lon="12.75618"><ele>8.4</ele><time>2026-04-04T17:07:00.687Z</time></trkpt><trkpt lat="43.95936" lon="12.7561833"><ele>8.600000000000001</ele><time>2026-04-04T17:07:03.686Z</time></trkpt><trkpt lat="43.9594733" lon="12.7562067"><ele>8.8</ele><time>2026-04-04T17:07:19.688Z</time></trkpt><trkpt lat="43.9596333" lon="12.756275"><ele>9.0</ele><time>2026-04-04T17:07:24.687Z</time></trkpt><trkpt lat="43.95971" lon="12.7562783"><ele>9.0</ele><time>2026-04-04T17:07:25.689Z</time></trkpt><trkpt lat="43.9598033" lon="12.7562767"><ele>9.0</ele><time>2026-04-04T17:07:26.687Z</time></trkpt><trkpt lat="43.95991" lon="12.7562867"><ele>9.0</ele><time>2026-04-04T17:07:27.687Z</time></trkpt><trkpt lat="43.9600217" lon="12.7562967"><ele>9.0</ele><time>2026-04-04T17:07:28.688Z</time></trkpt><trkpt lat="43.9601367" lon="12.7563083"><ele>9.0</ele><time>2026-04-04T17:07:29.689Z</time></trkpt><trkpt lat="43.9602517" lon="12.7563217"><ele>9.0</ele><time>2026-04-04T17:07:30.686Z</time></trkpt><trkpt lat="43.9603617" lon="12.7563383"><ele>9.0</ele><time>2026-04-04T17:07:31.689Z</time></trkpt><trkpt lat="43.96047" lon="12.7563517"><ele>9.0</ele><time>2026-04-04T17:07:32.687Z</time></trkpt><trkpt lat="43.96058" lon="12.7563683"><ele>9.0</ele><time>2026-04-04T17:07:33.686Z</time></trkpt><trkpt lat="43.9606867" lon="12.7563817"><ele>9.0</ele><time>2026-04-04T17:07:34.686Z</time></trkpt><trkpt lat="43.9607983" lon="12.756395"><ele>8.0</ele><time>2026-04-04T17:07:35.691Z</time></trkpt><trkpt lat="43.9609117" lon="12.7564133"><ele>7.0</ele><time>2026-04-04T17:07:36.686Z</time></trkpt><trkpt lat="43.96103" lon="12.7564283"><ele>6.0</ele><time>2026-04-04T17:07:37.688Z</time></trkpt><trkpt lat="43.9611483" lon="12.7564433"><ele>5.0</ele><time>2026-04-04T17:07:38.686Z</time></trkpt><trkpt lat="43.96127" lon="12.756465"><ele>5.0</ele><time>2026-04-04T17:07:39.687Z</time></trkpt><trkpt lat="43.9613967" lon="12.7564783"><ele>5.0</ele><time>2026-04-04T17:07:40.687Z</time></trkpt><trkpt lat="43.9616367" lon="12.7565017"><ele>5.0</ele><time>2026-04-04T17:07:42.688Z</time></trkpt><trkpt lat="43.9617567" lon="12.7565083"><ele>5.2</ele><time>2026-04-04T17:07:43.688Z</time></trkpt><trkpt lat="43.9618683" lon="12.756515"><ele>5.4</ele><time>2026-04-04T17:07:44.687Z</time></trkpt><trkpt lat="43.961975" lon="12.7565217"><ele>5.6</ele><time>2026-04-04T17:07:45.687Z</time></trkpt><trkpt lat="43.96207" lon="12.7565317"><ele>5.8</ele><time>2026-04-04T17:07:46.689Z</time></trkpt><trkpt lat="43.9621567" lon="12.7565433"><ele>6.0</ele><time>2026-04-04T17:07:47.689Z</time></trkpt><trkpt lat="43.96224" lon="12.756565"><ele>6.0</ele><time>2026-04-04T17:07:48.689Z</time></trkpt><trkpt lat="43.96231" lon="12.756605"><ele>6.0</ele><time>2026-04-04T17:07:49.69Z</time></trkpt><trkpt lat="43.9623583" lon="12.7566783"><ele>6.0</ele><time>2026-04-04T17:07:50.687Z</time></trkpt><trkpt lat="43.9624633" lon="12.75675"><ele>6.0</ele><time>2026-04-04T17:07:52.687Z</time></trkpt><trkpt lat="43.9625983" lon="12.75672"><ele>6.0</ele><time>2026-04-04T17:07:54.69Z</time></trkpt><trkpt lat="43.9627017" lon="12.7566733"><ele>6.5</ele><time>2026-04-04T17:07:55.69Z</time></trkpt><trkpt lat="43.9628133" lon="12.75664"><ele>7.0</ele><time>2026-04-04T17:07:56.689Z</time></trkpt><trkpt lat="43.9629283" lon="12.7566117"><ele>7.5</ele><time>2026-04-04T17:07:57.685Z</time></trkpt><trkpt lat="43.963045" lon="12.75659"><ele>8.0</ele><time>2026-04-04T17:07:58.688Z</time></trkpt><trkpt lat="43.9631583" lon="12.756575"><ele>8.0</ele><time>2026-04-04T17:07:59.689Z</time></trkpt><trkpt lat="43.9632717" lon="12.7565617"><ele>8.0</ele><time>2026-04-04T17:08:00.688Z</time></trkpt><trkpt lat="43.9633833" lon="12.756545"><ele>8.0</ele><time>2026-04-04T17:08:01.688Z</time></trkpt><trkpt lat="43.96359" lon="12.756525"><ele>8.0</ele><time>2026-04-04T17:08:03.687Z</time></trkpt><trkpt lat="43.9636817" lon="12.756515"><ele>8.666666666666666</ele><time>2026-04-04T17:08:04.686Z</time></trkpt><trkpt lat="43.96377" lon="12.7565033"><ele>9.333333333333332</ele><time>2026-04-04T17:08:05.689Z</time></trkpt><trkpt lat="43.963855" lon="12.7564933"><ele>10.0</ele><time>2026-04-04T17:08:06.687Z</time></trkpt><trkpt lat="43.9639367" lon="12.7564833"><ele>10.666666666666666</ele><time>2026-04-04T17:08:07.689Z</time></trkpt><trkpt lat="43.9640117" lon="12.7564717"><ele>11.333333333333334</ele><time>2026-04-04T17:08:08.687Z</time></trkpt><trkpt lat="43.9640767" lon="12.7564633"><ele>12.0</ele><time>2026-04-04T17:08:09.687Z</time></trkpt><trkpt lat="43.964145" lon="12.75645"><ele>12.428571428571427</ele><time>2026-04-04T17:08:10.687Z</time></trkpt><trkpt lat="43.9642133" lon="12.75644"><ele>12.857142857142858</ele><time>2026-04-04T17:08:11.688Z</time></trkpt><trkpt lat="43.9642817" lon="12.7564317"><ele>13.285714285714285</ele><time>2026-04-04T17:08:12.688Z</time></trkpt><trkpt lat="43.96435" lon="12.7564217"><ele>13.714285714285714</ele><time>2026-04-04T17:08:13.688Z</time></trkpt><trkpt lat="43.9644217" lon="12.7564183"><ele>14.142857142857142</ele><time>2026-04-04T17:08:14.689Z</time></trkpt><trkpt lat="43.9644933" lon="12.7564167"><ele>14.571428571428571</ele><time>2026-04-04T17:08:15.689Z</time></trkpt><trkpt lat="43.9645583" lon="12.7564167"><ele>15.0</ele><time>2026-04-04T17:08:16.687Z</time></trkpt><trkpt lat="43.9646717" lon="12.75642"><ele>15.0</ele><time>2026-04-04T17:08:18.687Z</time></trkpt><trkpt lat="43.964765" lon="12.7564183"><ele>15.0</ele><time>2026-04-04T17:08:20.687Z</time></trkpt><trkpt lat="43.9648467" lon="12.756425"><ele>15.0</ele><time>2026-04-04T17:08:22.686Z</time></trkpt><trkpt lat="43.9650383" lon="12.7564383"><ele>15.0</ele><time>2026-04-04T17:08:26.687Z</time></trkpt><trkpt lat="43.9651283" lon="12.75645"><ele>14.333333333333334</ele><time>2026-04-04T17:08:28.687Z</time></trkpt><trkpt lat="43.96521" lon="12.7564717"><ele>13.666666666666666</ele><time>2026-04-04T17:08:30.686Z</time></trkpt><trkpt lat="43.965275" lon="12.7564883"><ele>13.0</ele><time>2026-04-04T17:08:32.687Z</time></trkpt><trkpt lat="43.965345" lon="12.756515"><ele>12.333333333333332</ele><time>2026-04-04T17:08:34.687Z</time></trkpt><trkpt lat="43.96542" lon="12.756535"><ele>11.666666666666666</ele><time>2026-04-04T17:08:36.687Z</time></trkpt><trkpt lat="43.9655067" lon="12.7565383"><ele>11.0</ele><time>2026-04-04T17:08:38.687Z</time></trkpt><trkpt lat="43.96559" lon="12.75654"><ele>11.0</ele><time>2026-04-04T17:08:40.687Z</time></trkpt><trkpt lat="43.96567" lon="12.756535"><ele>11.0</ele><time>2026-04-04T17:08:43.689Z</time></trkpt><trkpt lat="43.965835" lon="12.7565583"><ele>11.0</ele><time>2026-04-04T17:08:48.688Z</time></trkpt><trkpt lat="43.9659133" lon="12.7565683"><ele>11.0</ele><time>2026-04-04T17:08:50.687Z</time></trkpt><trkpt lat="43.965995" lon="12.756565"><ele>11.0</ele><time>2026-04-04T17:08:52.688Z</time></trkpt><trkpt lat="43.9660767" lon="12.7565817"><ele>10.600000000000001</ele><time>2026-04-04T17:08:54.688Z</time></trkpt><trkpt lat="43.96619" lon="12.7566367"><ele>10.200000000000001</ele><time>2026-04-04T17:08:56.687Z</time></trkpt><trkpt lat="43.9663083" lon="12.7566567"><ele>9.8</ele><time>2026-04-04T17:08:58.689Z</time></trkpt><trkpt lat="43.966415" lon="12.756675"><ele>9.4</ele><time>2026-04-04T17:09:00.687Z</time></trkpt><trkpt lat="43.9664817" lon="12.7566817"><ele>9.0</ele><time>2026-04-04T17:09:02.686Z</time></trkpt><trkpt lat="43.966565" lon="12.7567617"><ele>9.0</ele><time>2026-04-04T17:09:05.687Z</time></trkpt><trkpt lat="43.96659" lon="12.75707"><ele>9.0</ele><time>2026-04-04T17:09:09.687Z</time></trkpt><trkpt lat="43.966575" lon="12.7571683"><ele>9.0</ele><time>2026-04-04T17:09:10.687Z</time></trkpt><trkpt lat="43.9665317" lon="12.7573333"><ele>9.0</ele><time>2026-04-04T17:09:12.687Z</time></trkpt><trkpt lat="43.9665067" lon="12.75746"><ele>9.0</ele><time>2026-04-04T17:09:14.686Z</time></trkpt><trkpt lat="43.9665033" lon="12.757595"><ele>9.0</ele><time>2026-04-04T17:09:24.687Z</time></trkpt><trkpt lat="43.966465" lon="12.7577783"><ele>9.0</ele><time>2026-04-04T17:09:26.687Z</time></trkpt><trkpt lat="43.9664083" lon="12.7579833"><ele>9.0</ele><time>2026-04-04T17:09:28.687Z</time></trkpt><trkpt lat="43.9663833" lon="12.7580883"><ele>9.0</ele><time>2026-04-04T17:09:29.688Z</time></trkpt><trkpt lat="43.9663533" lon="12.7581833"><ele>9.0</ele><time>2026-04-04T17:09:30.687Z</time></trkpt><trkpt lat="43.966325" lon="12.7582667"><ele>9.0</ele><time>2026-04-04T17:09:31.688Z</time></trkpt><trkpt lat="43.9663083" lon="12.7583783"><ele>9.0</ele><time>2026-04-04T17:09:32.687Z</time></trkpt><trkpt lat="43.9662817" lon="12.7584767"><ele>9.0</ele><time>2026-04-04T17:09:33.686Z</time></trkpt><trkpt lat="43.9662417" lon="12.7585783"><ele>9.0</ele><time>2026-04-04T17:09:34.686Z</time></trkpt><trkpt lat="43.9662033" lon="12.758695"><ele>8.8</ele><time>2026-04-04T17:09:35.688Z</time></trkpt><trkpt lat="43.9661583" lon="12.7588183"><ele>8.600000000000001</ele><time>2026-04-04T17:09:36.686Z</time></trkpt><trkpt lat="43.966115" lon="12.75896"><ele>8.4</ele><time>2026-04-04T17:09:37.689Z</time></trkpt><trkpt lat="43.966075" lon="12.7591083"><ele>8.200000000000001</ele><time>2026-04-04T17:09:38.687Z</time></trkpt><trkpt lat="43.9660367" lon="12.7592633"><ele>8.0</ele><time>2026-04-04T17:09:39.686Z</time></trkpt><trkpt lat="43.965995" lon="12.759405"><ele>7.25</ele><time>2026-04-04T17:09:40.689Z</time></trkpt><trkpt lat="43.9659567" lon="12.75955"><ele>6.5</ele><time>2026-04-04T17:09:41.687Z</time></trkpt><trkpt lat="43.96592" lon="12.7597017"><ele>5.75</ele><time>2026-04-04T17:09:42.687Z</time></trkpt><trkpt lat="43.96588" lon="12.75985"><ele>5.0</ele><time>2026-04-04T17:09:43.688Z</time></trkpt><trkpt lat="43.96584" lon="12.759995"><ele>8.25</ele><time>2026-04-04T17:09:44.687Z</time></trkpt><trkpt lat="43.965805" lon="12.760145"><ele>11.5</ele><time>2026-04-04T17:09:45.685Z</time></trkpt><trkpt lat="43.96577" lon="12.7603083"><ele>14.75</ele><time>2026-04-04T17:09:46.688Z</time></trkpt><trkpt lat="43.9657283" lon="12.76047"><ele>18.0</ele><time>2026-04-04T17:09:47.689Z</time></trkpt><trkpt lat="43.9656617" lon="12.7607867"><ele>18.2</ele><time>2026-04-04T17:09:49.687Z</time></trkpt><trkpt lat="43.9656217" lon="12.7609333"><ele>18.4</ele><time>2026-04-04T17:09:50.687Z</time></trkpt><trkpt lat="43.9655867" lon="12.76108"><ele>18.599999999999998</ele><time>2026-04-04T17:09:51.687Z</time></trkpt><trkpt lat="43.965555" lon="12.7612233"><ele>18.8</ele><time>2026-04-04T17:09:52.688Z</time></trkpt><trkpt lat="43.9655267" lon="12.7613733"><ele>19.0</ele><time>2026-04-04T17:09:53.688Z</time></trkpt><trkpt lat="43.965495" lon="12.761515"><ele>19.0</ele><time>2026-04-04T17:09:54.689Z</time></trkpt><trkpt lat="43.965465" lon="12.7616517"><ele>19.0</ele><time>2026-04-04T17:09:55.687Z</time></trkpt><trkpt lat="43.96544" lon="12.7617833"><ele>19.0</ele><time>2026-04-04T17:09:56.688Z</time></trkpt><trkpt lat="43.9654183" lon="12.76192"><ele>19.0</ele><time>2026-04-04T17:09:57.688Z</time></trkpt><trkpt lat="43.965385" lon="12.7620417"><ele>19.0</ele><time>2026-04-04T17:09:58.687Z</time></trkpt><trkpt lat="43.965355" lon="12.7621733"><ele>18.599999999999998</ele><time>2026-04-04T17:09:59.691Z</time></trkpt><trkpt lat="43.9653217" lon="12.762305"><ele>18.2</ele><time>2026-04-04T17:10:00.69Z</time></trkpt><trkpt lat="43.96529" lon="12.76244"><ele>17.799999999999997</ele><time>2026-04-04T17:10:01.689Z</time></trkpt><trkpt lat="43.9652517" lon="12.7625783"><ele>17.4</ele><time>2026-04-04T17:10:02.687Z</time></trkpt><trkpt lat="43.9652083" lon="12.7627133"><ele>17.0</ele><time>2026-04-04T17:10:03.688Z</time></trkpt><trkpt lat="43.9651717" lon="12.7628567"><ele>17.0</ele><time>2026-04-04T17:10:04.688Z</time></trkpt><trkpt lat="43.9651317" lon="12.7629967"><ele>17.0</ele><time>2026-04-04T17:10:05.689Z</time></trkpt><trkpt lat="43.96509" lon="12.7631383"><ele>17.0</ele><time>2026-04-04T17:10:06.69Z</time></trkpt><trkpt lat="43.9650483" lon="12.7632817"><ele>17.0</ele><time>2026-04-04T17:10:07.688Z</time></trkpt><trkpt lat="43.96501" lon="12.7634283"><ele>17.0</ele><time>2026-04-04T17:10:08.688Z</time></trkpt><trkpt lat="43.9649317" lon="12.7636867"><ele>19.166666666666668</ele><time>2026-04-04T17:10:10.687Z</time></trkpt><trkpt lat="43.9648983" lon="12.7637983"><ele>21.333333333333336</ele><time>2026-04-04T17:10:11.689Z</time></trkpt><trkpt lat="43.96487" lon="12.7639133"><ele>23.5</ele><time>2026-04-04T17:10:12.69Z</time></trkpt><trkpt lat="43.964845" lon="12.7640233"><ele>25.666666666666668</ele><time>2026-04-04T17:10:13.687Z</time></trkpt><trkpt lat="43.9648233" lon="12.7641383"><ele>27.833333333333332</ele><time>2026-04-04T17:10:14.688Z</time></trkpt><trkpt lat="43.96481" lon="12.76425"><ele>30.0</ele><time>2026-04-04T17:10:15.687Z</time></trkpt><trkpt lat="43.9648117" lon="12.7643717"><ele>30.666666666666668</ele><time>2026-04-04T17:10:16.687Z</time></trkpt><trkpt lat="43.9648167" lon="12.7644967"><ele>31.333333333333336</ele><time>2026-04-04T17:10:17.689Z</time></trkpt><trkpt lat="43.9648233" lon="12.7646267"><ele>32.0</ele><time>2026-04-04T17:10:18.69Z</time></trkpt><trkpt lat="43.96483" lon="12.764745"><ele>32.66666666666667</ele><time>2026-04-04T17:10:19.687Z</time></trkpt><trkpt lat="43.9648367" lon="12.7648583"><ele>33.333333333333336</ele><time>2026-04-04T17:10:20.688Z</time></trkpt><trkpt lat="43.9648417" lon="12.764965"><ele>34.0</ele><time>2026-04-04T17:10:21.689Z</time></trkpt><trkpt lat="43.9648383" lon="12.7650717"><ele>34.0</ele><time>2026-04-04T17:10:22.687Z</time></trkpt><trkpt lat="43.964825" lon="12.7651767"><ele>34.0</ele><time>2026-04-04T17:10:23.688Z</time></trkpt><trkpt lat="43.9648083" lon="12.76529"><ele>34.0</ele><time>2026-04-04T17:10:24.688Z</time></trkpt><trkpt lat="43.9647883" lon="12.7654067"><ele>34.0</ele><time>2026-04-04T17:10:25.687Z</time></trkpt><trkpt lat="43.9647833" lon="12.76553"><ele>34.0</ele><time>2026-04-04T17:10:26.689Z</time></trkpt><trkpt lat="43.964785" lon="12.765645"><ele>34.0</ele><time>2026-04-04T17:10:27.688Z</time></trkpt><trkpt lat="43.9648" lon="12.76575"><ele>34.4</ele><time>2026-04-04T17:10:28.69Z</time></trkpt><trkpt lat="43.96483" lon="12.7658517"><ele>34.8</ele><time>2026-04-04T17:10:29.69Z</time></trkpt><trkpt lat="43.9648967" lon="12.76605"><ele>35.2</ele><time>2026-04-04T17:10:31.689Z</time></trkpt><trkpt lat="43.9649317" lon="12.76615"><ele>35.6</ele><time>2026-04-04T17:10:32.69Z</time></trkpt><trkpt lat="43.9649617" lon="12.7662433"><ele>36.0</ele><time>2026-04-04T17:10:33.687Z</time></trkpt><trkpt lat="43.964985" lon="12.7663333"><ele>37.00000000000001</ele><time>2026-04-04T17:10:34.689Z</time></trkpt><trkpt lat="43.9649983" lon="12.7664217"><ele>38.0</ele><time>2026-04-04T17:10:35.689Z</time></trkpt><trkpt lat="43.9649933" lon="12.7665133"><ele>39.0</ele><time>2026-04-04T17:10:36.691Z</time></trkpt><trkpt lat="43.964965" lon="12.7665917"><ele>40.0</ele><time>2026-04-04T17:10:37.687Z</time></trkpt><trkpt lat="43.9649133" lon="12.7666417"><ele>41.0</ele><time>2026-04-04T17:10:38.689Z</time></trkpt><trkpt lat="43.9648433" lon="12.766645"><ele>42.00000000000001</ele><time>2026-04-04T17:10:39.689Z</time></trkpt><trkpt lat="43.9647817" lon="12.7665983"><ele>43.0</ele><time>2026-04-04T17:10:40.687Z</time></trkpt><trkpt lat="43.96472" lon="12.7665083"><ele>43.0</ele><time>2026-04-04T17:10:41.691Z</time></trkpt><trkpt lat="43.964665" lon="12.766415"><ele>43.0</ele><time>2026-04-04T17:10:42.687Z</time></trkpt><trkpt lat="43.9646183" lon="12.766295"><ele>43.0</ele><time>2026-04-04T17:10:43.691Z</time></trkpt><trkpt lat="43.9645717" lon="12.766165"><ele>43.0</ele><time>2026-04-04T17:10:44.689Z</time></trkpt><trkpt lat="43.9645217" lon="12.766035"><ele>43.0</ele><time>2026-04-04T17:10:45.689Z</time></trkpt><trkpt lat="43.96446" lon="12.7659033"><ele>41.6</ele><time>2026-04-04T17:10:46.687Z</time></trkpt><trkpt lat="43.9643917" lon="12.7657783"><ele>40.199999999999996</ele><time>2026-04-04T17:10:47.688Z</time></trkpt><trkpt lat="43.9643233" lon="12.7656567"><ele>38.8</ele><time>2026-04-04T17:10:48.689Z</time></trkpt><trkpt lat="43.9642567" lon="12.7655367"><ele>37.4</ele><time>2026-04-04T17:10:49.688Z</time></trkpt><trkpt lat="43.9641933" lon="12.7654117"><ele>36.0</ele><time>2026-04-04T17:10:50.689Z</time></trkpt><trkpt lat="43.9641117" lon="12.76512"><ele>40.0</ele><time>2026-04-04T17:10:52.689Z</time></trkpt><trkpt lat="43.9640917" lon="12.7649667"><ele>44.0</ele><time>2026-04-04T17:10:53.688Z</time></trkpt><trkpt lat="43.96407" lon="12.7648133"><ele>47.99999999999999</ele><time>2026-04-04T17:10:54.689Z</time></trkpt><trkpt lat="43.9640483" lon="12.7646683"><ele>52.0</ele><time>2026-04-04T17:10:55.691Z</time></trkpt><trkpt lat="43.964015" lon="12.76453"><ele>56.0</ele><time>2026-04-04T17:10:56.688Z</time></trkpt><trkpt lat="43.9639783" lon="12.7644"><ele>54.599999999999994</ele><time>2026-04-04T17:10:57.687Z</time></trkpt><trkpt lat="43.96393" lon="12.76428"><ele>53.199999999999996</ele><time>2026-04-04T17:10:58.688Z</time></trkpt><trkpt lat="43.9638733" lon="12.76415"><ele>51.8</ele><time>2026-04-04T17:10:59.688Z</time></trkpt><trkpt lat="43.9638317" lon="12.764005"><ele>50.400000000000006</ele><time>2026-04-04T17:11:00.689Z</time></trkpt><trkpt lat="43.9638033" lon="12.7638583"><ele>49.0</ele><time>2026-04-04T17:11:01.689Z</time></trkpt><trkpt lat="43.9637917" lon="12.7637033"><ele>49.0</ele><time>2026-04-04T17:11:02.688Z</time></trkpt><trkpt lat="43.96379" lon="12.7635467"><ele>49.0</ele><time>2026-04-04T17:11:03.689Z</time></trkpt><trkpt lat="43.9637867" lon="12.7633933"><ele>49.0</ele><time>2026-04-04T17:11:04.686Z</time></trkpt><trkpt lat="43.9637783" lon="12.7632467"><ele>49.0</ele><time>2026-04-04T17:11:05.691Z</time></trkpt><trkpt lat="43.9637683" lon="12.7631033"><ele>49.0</ele><time>2026-04-04T17:11:06.689Z</time></trkpt><trkpt lat="43.963755" lon="12.7629667"><ele>49.2</ele><time>2026-04-04T17:11:07.688Z</time></trkpt><trkpt lat="43.96374" lon="12.762825"><ele>49.400000000000006</ele><time>2026-04-04T17:11:08.691Z</time></trkpt><trkpt lat="43.9637267" lon="12.7626867"><ele>49.6</ele><time>2026-04-04T17:11:09.69Z</time></trkpt><trkpt lat="43.9637217" lon="12.7625467"><ele>49.8</ele><time>2026-04-04T17:11:10.69Z</time></trkpt><trkpt lat="43.9637317" lon="12.7623983"><ele>50.0</ele><time>2026-04-04T17:11:11.686Z</time></trkpt><trkpt lat="43.9637817" lon="12.7620883"><ele>50.0</ele><time>2026-04-04T17:11:13.69Z</time></trkpt><trkpt lat="43.9638183" lon="12.761945"><ele>50.0</ele><time>2026-04-04T17:11:14.688Z</time></trkpt><trkpt lat="43.9638517" lon="12.7618083"><ele>50.0</ele><time>2026-04-04T17:11:15.687Z</time></trkpt><trkpt lat="43.963875" lon="12.7616967"><ele>50.0</ele><time>2026-04-04T17:11:16.687Z</time></trkpt><trkpt lat="43.9638883" lon="12.76158"><ele>50.0</ele><time>2026-04-04T17:11:17.69Z</time></trkpt><trkpt lat="43.9638783" lon="12.76147"><ele>49.833333333333336</ele><time>2026-04-04T17:11:18.689Z</time></trkpt><trkpt lat="43.9638483" lon="12.76136"><ele>49.66666666666667</ele><time>2026-04-04T17:11:19.688Z</time></trkpt><trkpt lat="43.963795" lon="12.76126"><ele>49.5</ele><time>2026-04-04T17:11:20.687Z</time></trkpt><trkpt lat="43.9637233" lon="12.7611783"><ele>49.33333333333333</ele><time>2026-04-04T17:11:21.687Z</time></trkpt><trkpt lat="43.9636517" lon="12.7611083"><ele>49.166666666666664</ele><time>2026-04-04T17:11:22.689Z</time></trkpt><trkpt lat="43.9635833" lon="12.7610483"><ele>49.0</ele><time>2026-04-04T17:11:23.688Z</time></trkpt><trkpt lat="43.9634867" lon="12.760995"><ele>49.0</ele><time>2026-04-04T17:11:25.689Z</time></trkpt><trkpt lat="43.9634133" lon="12.7610167"><ele>49.0</ele><time>2026-04-04T17:11:40.688Z</time></trkpt><trkpt lat="43.9632533" lon="12.7612433"><ele>49.0</ele><time>2026-04-04T17:11:43.69Z</time></trkpt><trkpt lat="43.9631983" lon="12.7613817"><ele>49.0</ele><time>2026-04-04T17:11:44.688Z</time></trkpt><trkpt lat="43.9631417" lon="12.7615633"><ele>55.0</ele><time>2026-04-04T17:11:45.687Z</time></trkpt><trkpt lat="43.9630817" lon="12.76174"><ele>61.0</ele><time>2026-04-04T17:11:46.687Z</time></trkpt><trkpt lat="43.9630183" lon="12.7619117"><ele>67.0</ele><time>2026-04-04T17:11:47.69Z</time></trkpt><trkpt lat="43.9629567" lon="12.7620683"><ele>73.0</ele><time>2026-04-04T17:11:48.688Z</time></trkpt><trkpt lat="43.962905" lon="12.762225"><ele>73.5</ele><time>2026-04-04T17:11:49.689Z</time></trkpt><trkpt lat="43.9628717" lon="12.7623833"><ele>74.0</ele><time>2026-04-04T17:11:50.691Z</time></trkpt><trkpt lat="43.9628517" lon="12.7625483"><ele>74.5</ele><time>2026-04-04T17:11:51.688Z</time></trkpt><trkpt lat="43.9628433" lon="12.7627233"><ele>75.0</ele><time>2026-04-04T17:11:52.688Z</time></trkpt><trkpt lat="43.9628467" lon="12.76291"><ele>75.0</ele><time>2026-04-04T17:11:53.691Z</time></trkpt><trkpt lat="43.9628617" lon="12.76308"><ele>75.0</ele><time>2026-04-04T17:11:54.686Z</time></trkpt><trkpt lat="43.962885" lon="12.7632333"><ele>75.0</ele><time>2026-04-04T17:11:55.688Z</time></trkpt><trkpt lat="43.9629033" lon="12.76338"><ele>75.0</ele><time>2026-04-04T17:11:56.688Z</time></trkpt><trkpt lat="43.9629183" lon="12.7635217"><ele>75.0</ele><time>2026-04-04T17:11:57.689Z</time></trkpt><trkpt lat="43.9629317" lon="12.7636633"><ele>74.5</ele><time>2026-04-04T17:11:58.687Z</time></trkpt><trkpt lat="43.962945" lon="12.763805"><ele>74.0</ele><time>2026-04-04T17:11:59.688Z</time></trkpt><trkpt lat="43.9629617" lon="12.763955"><ele>73.5</ele><time>2026-04-04T17:12:00.688Z</time></trkpt><trkpt lat="43.9629783" lon="12.7641117"><ele>73.0</ele><time>2026-04-04T17:12:01.69Z</time></trkpt><trkpt lat="43.9630167" lon="12.764445"><ele>74.25</ele><time>2026-04-04T17:12:03.687Z</time></trkpt><trkpt lat="43.9630367" lon="12.7646167"><ele>75.5</ele><time>2026-04-04T17:12:04.688Z</time></trkpt><trkpt lat="43.9630583" lon="12.7647917"><ele>76.75</ele><time>2026-04-04T17:12:05.69Z</time></trkpt><trkpt lat="43.9630767" lon="12.764965"><ele>78.0</ele><time>2026-04-04T17:12:06.687Z</time></trkpt><trkpt lat="43.9630967" lon="12.76514"><ele>80.25</ele><time>2026-04-04T17:12:07.689Z</time></trkpt><trkpt lat="43.9631183" lon="12.7653167"><ele>82.5</ele><time>2026-04-04T17:12:08.688Z</time></trkpt><trkpt lat="43.96314" lon="12.7654967"><ele>84.75</ele><time>2026-04-04T17:12:09.688Z</time></trkpt><trkpt lat="43.9631633" lon="12.7656717"><ele>87.0</ele><time>2026-04-04T17:12:10.689Z</time></trkpt><trkpt lat="43.9631967" lon="12.76584"><ele>87.0</ele><time>2026-04-04T17:12:11.689Z</time></trkpt><trkpt lat="43.96324" lon="12.7660017"><ele>87.0</ele><time>2026-04-04T17:12:12.688Z</time></trkpt><trkpt lat="43.9632883" lon="12.7661633"><ele>87.0</ele><time>2026-04-04T17:12:13.689Z</time></trkpt><trkpt lat="43.9633333" lon="12.7663233"><ele>87.0</ele><time>2026-04-04T17:12:14.69Z</time></trkpt><trkpt lat="43.9633733" lon="12.7664867"><ele>84.39999999999999</ele><time>2026-04-04T17:12:15.689Z</time></trkpt><trkpt lat="43.9633983" lon="12.7666483"><ele>81.8</ele><time>2026-04-04T17:12:16.689Z</time></trkpt><trkpt lat="43.9633967" lon="12.7668033"><ele>79.2</ele><time>2026-04-04T17:12:17.689Z</time></trkpt><trkpt lat="43.9633767" lon="12.7669517"><ele>76.6</ele><time>2026-04-04T17:12:18.689Z</time></trkpt><trkpt lat="43.9633583" lon="12.767095"><ele>74.0</ele><time>2026-04-04T17:12:19.692Z</time></trkpt><trkpt lat="43.9633483" lon="12.76723"><ele>74.0</ele><time>2026-04-04T17:12:20.687Z</time></trkpt><trkpt lat="43.9633517" lon="12.76737"><ele>74.0</ele><time>2026-04-04T17:12:21.689Z</time></trkpt><trkpt lat="43.9633717" lon="12.7675083"><ele>74.0</ele><time>2026-04-04T17:12:22.691Z</time></trkpt><trkpt lat="43.9634233" lon="12.7677767"><ele>74.0</ele><time>2026-04-04T17:12:24.689Z</time></trkpt><trkpt lat="43.963455" lon="12.7678983"><ele>75.0</ele><time>2026-04-04T17:12:25.691Z</time></trkpt><trkpt lat="43.9634833" lon="12.76802"><ele>76.0</ele><time>2026-04-04T17:12:26.688Z</time></trkpt><trkpt lat="43.9635083" lon="12.7681467"><ele>77.0</ele><time>2026-04-04T17:12:27.688Z</time></trkpt><trkpt lat="43.9635233" lon="12.7682767"><ele>78.0</ele><time>2026-04-04T17:12:28.688Z</time></trkpt><trkpt lat="43.9635233" lon="12.7684133"><ele>79.0</ele><time>2026-04-04T17:12:29.686Z</time></trkpt><trkpt lat="43.9634983" lon="12.7685517"><ele>79.6</ele><time>2026-04-04T17:12:30.687Z</time></trkpt><trkpt lat="43.96346" lon="12.7686967"><ele>80.2</ele><time>2026-04-04T17:12:31.69Z</time></trkpt><trkpt lat="43.96342" lon="12.7688467"><ele>80.8</ele><time>2026-04-04T17:12:32.688Z</time></trkpt><trkpt lat="43.9633933" lon="12.7689967"><ele>81.39999999999999</ele><time>2026-04-04T17:12:33.69Z</time></trkpt><trkpt lat="43.9633917" lon="12.76915"><ele>82.0</ele><time>2026-04-04T17:12:34.689Z</time></trkpt><trkpt lat="43.963405" lon="12.7693083"><ele>82.39999999999999</ele><time>2026-04-04T17:12:35.69Z</time></trkpt><trkpt lat="43.963415" lon="12.7694667"><ele>82.8</ele><time>2026-04-04T17:12:36.687Z</time></trkpt><trkpt lat="43.96342" lon="12.769625"><ele>83.2</ele><time>2026-04-04T17:12:37.691Z</time></trkpt><trkpt lat="43.9634167" lon="12.7697733"><ele>83.6</ele><time>2026-04-04T17:12:38.691Z</time></trkpt><trkpt lat="43.9633983" lon="12.7699017"><ele>84.0</ele><time>2026-04-04T17:12:39.688Z</time></trkpt><trkpt lat="43.963375" lon="12.77003"><ele>89.4</ele><time>2026-04-04T17:12:40.69Z</time></trkpt><trkpt lat="43.9633533" lon="12.770155"><ele>94.80000000000001</ele><time>2026-04-04T17:12:41.689Z</time></trkpt><trkpt lat="43.9633333" lon="12.7702733"><ele>100.19999999999999</ele><time>2026-04-04T17:12:42.688Z</time></trkpt><trkpt lat="43.9633167" lon="12.7703933"><ele>105.6</ele><time>2026-04-04T17:12:43.689Z</time></trkpt><trkpt lat="43.9633067" lon="12.770635"><ele>111.0</ele><time>2026-04-04T17:12:45.686Z</time></trkpt><trkpt lat="43.9633067" lon="12.7707517"><ele>111.33333333333333</ele><time>2026-04-04T17:12:46.689Z</time></trkpt><trkpt lat="43.963315" lon="12.7708617"><ele>111.66666666666666</ele><time>2026-04-04T17:12:47.691Z</time></trkpt><trkpt lat="43.9633267" lon="12.7709717"><ele>112.0</ele><time>2026-04-04T17:12:48.686Z</time></trkpt><trkpt lat="43.9633417" lon="12.7710767"><ele>112.33333333333333</ele><time>2026-04-04T17:12:49.688Z</time></trkpt><trkpt lat="43.9633517" lon="12.7711783"><ele>112.66666666666666</ele><time>2026-04-04T17:12:50.688Z</time></trkpt><trkpt lat="43.963365" lon="12.77128"><ele>113.0</ele><time>2026-04-04T17:12:51.688Z</time></trkpt><trkpt lat="43.9633767" lon="12.7713767"><ele>111.33333333333333</ele><time>2026-04-04T17:12:52.688Z</time></trkpt><trkpt lat="43.9633883" lon="12.7714683"><ele>109.66666666666666</ele><time>2026-04-04T17:12:53.688Z</time></trkpt><trkpt lat="43.9634067" lon="12.7716167"><ele>108.0</ele><time>2026-04-04T17:12:55.689Z</time></trkpt><trkpt lat="43.9634517" lon="12.771695"><ele>106.33333333333334</ele><time>2026-04-04T17:12:59.688Z</time></trkpt><trkpt lat="43.9635017" lon="12.771605"><ele>104.66666666666667</ele><time>2026-04-04T17:13:03.688Z</time></trkpt><trkpt lat="43.9634983" lon="12.771515"><ele>103.0</ele><time>2026-04-04T17:13:05.69Z</time></trkpt><trkpt lat="43.96349" lon="12.7712933"><ele>103.0</ele><time>2026-04-04T17:13:11.691Z</time></trkpt><trkpt lat="43.9634867" lon="12.7711833"><ele>103.0</ele><time>2026-04-04T17:13:15.691Z</time></trkpt><trkpt lat="43.9634483" lon="12.771105"><ele>103.0</ele><time>2026-04-04T17:13:51.689Z</time></trkpt><trkpt lat="43.963345" lon="12.7708783"><ele>103.0</ele><time>2026-04-04T17:13:58.689Z</time></trkpt><trkpt lat="43.963345" lon="12.770765"><ele>103.0</ele><time>2026-04-04T17:13:59.689Z</time></trkpt><trkpt lat="43.9633483" lon="12.77064"><ele>105.0</ele><time>2026-04-04T17:14:00.692Z</time></trkpt><trkpt lat="43.9633567" lon="12.7705067"><ele>107.0</ele><time>2026-04-04T17:14:01.69Z</time></trkpt><trkpt lat="43.9633767" lon="12.770375"><ele>109.00000000000001</ele><time>2026-04-04T17:14:02.689Z</time></trkpt><trkpt lat="43.9634017" lon="12.7702383"><ele>111.0</ele><time>2026-04-04T17:14:03.686Z</time></trkpt><trkpt lat="43.9634267" lon="12.7700967"><ele>113.0</ele><time>2026-04-04T17:14:04.689Z</time></trkpt><trkpt lat="43.9634517" lon="12.769955"><ele>107.2</ele><time>2026-04-04T17:14:05.688Z</time></trkpt><trkpt lat="43.9634667" lon="12.7698117"><ele>101.4</ele><time>2026-04-04T17:14:06.688Z</time></trkpt><trkpt lat="43.9634717" lon="12.7696617"><ele>95.60000000000001</ele><time>2026-04-04T17:14:07.689Z</time></trkpt><trkpt lat="43.9634667" lon="12.7695067"><ele>89.80000000000001</ele><time>2026-04-04T17:14:08.686Z</time></trkpt><trkpt lat="43.9634567" lon="12.7693533"><ele>84.0</ele><time>2026-04-04T17:14:09.687Z</time></trkpt><trkpt lat="43.9634433" lon="12.7692033"><ele>83.5</ele><time>2026-04-04T17:14:10.69Z</time></trkpt><trkpt lat="43.963435" lon="12.7690533"><ele>83.0</ele><time>2026-04-04T17:14:11.689Z</time></trkpt><trkpt lat="43.9634433" lon="12.7689083"><ele>82.5</ele><time>2026-04-04T17:14:12.691Z</time></trkpt><trkpt lat="43.96351" lon="12.7686217"><ele>82.0</ele><time>2026-04-04T17:14:14.689Z</time></trkpt><trkpt lat="43.96354" lon="12.768475"><ele>81.25</ele><time>2026-04-04T17:14:15.688Z</time></trkpt><trkpt lat="43.9635567" lon="12.76832"><ele>80.5</ele><time>2026-04-04T17:14:16.688Z</time></trkpt><trkpt lat="43.96355" lon="12.7681667"><ele>79.75</ele><time>2026-04-04T17:14:17.689Z</time></trkpt><trkpt lat="43.963525" lon="12.7680117"><ele>79.0</ele><time>2026-04-04T17:14:18.69Z</time></trkpt><trkpt lat="43.9634933" lon="12.7678483"><ele>77.75</ele><time>2026-04-04T17:14:19.691Z</time></trkpt><trkpt lat="43.9634583" lon="12.76769"><ele>76.5</ele><time>2026-04-04T17:14:20.69Z</time></trkpt><trkpt lat="43.9634267" lon="12.7675267"><ele>75.25</ele><time>2026-04-04T17:14:21.688Z</time></trkpt><trkpt lat="43.9634033" lon="12.7673583"><ele>74.0</ele><time>2026-04-04T17:14:22.689Z</time></trkpt><trkpt lat="43.9633933" lon="12.76719"><ele>74.0</ele><time>2026-04-04T17:14:23.691Z</time></trkpt><trkpt lat="43.9634083" lon="12.7670167"><ele>74.0</ele><time>2026-04-04T17:14:24.686Z</time></trkpt><trkpt lat="43.9634283" lon="12.7668417"><ele>74.0</ele><time>2026-04-04T17:14:25.689Z</time></trkpt><trkpt lat="43.9634317" lon="12.76666"><ele>74.0</ele><time>2026-04-04T17:14:26.687Z</time></trkpt><trkpt lat="43.9634117" lon="12.766475"><ele>72.75</ele><time>2026-04-04T17:14:27.686Z</time></trkpt><trkpt lat="43.9633733" lon="12.7662967"><ele>71.5</ele><time>2026-04-04T17:14:28.69Z</time></trkpt><trkpt lat="43.9633217" lon="12.7661267"><ele>70.25</ele><time>2026-04-04T17:14:29.688Z</time></trkpt><trkpt lat="43.9632717" lon="12.7659583"><ele>69.0</ele><time>2026-04-04T17:14:30.686Z</time></trkpt><trkpt lat="43.9632283" lon="12.7657933"><ele>72.0</ele><time>2026-04-04T17:14:31.691Z</time></trkpt><trkpt lat="43.96319" lon="12.7656283"><ele>75.0</ele><time>2026-04-04T17:14:32.687Z</time></trkpt><trkpt lat="43.96316" lon="12.7654567"><ele>78.0</ele><time>2026-04-04T17:14:33.687Z</time></trkpt><trkpt lat="43.96312" lon="12.765105"><ele>78.0</ele><time>2026-04-04T17:14:35.688Z</time></trkpt><trkpt lat="43.9631017" lon="12.7649283"><ele>78.0</ele><time>2026-04-04T17:14:36.688Z</time></trkpt><trkpt lat="43.963085" lon="12.76475"><ele>78.0</ele><time>2026-04-04T17:14:37.688Z</time></trkpt><trkpt lat="43.9630667" lon="12.7645683"><ele>78.0</ele><time>2026-04-04T17:14:38.688Z</time></trkpt><trkpt lat="43.96305" lon="12.764385"><ele>76.75</ele><time>2026-04-04T17:14:39.687Z</time></trkpt><trkpt lat="43.96303" lon="12.7642033"><ele>75.5</ele><time>2026-04-04T17:14:40.688Z</time></trkpt><trkpt lat="43.9630067" lon="12.7640183"><ele>74.25</ele><time>2026-04-04T17:14:41.688Z</time></trkpt><trkpt lat="43.9629867" lon="12.7638317"><ele>73.0</ele><time>2026-04-04T17:14:42.688Z</time></trkpt><trkpt lat="43.9629683" lon="12.7636433"><ele>73.5</ele><time>2026-04-04T17:14:43.689Z</time></trkpt><trkpt lat="43.9629483" lon="12.7634533"><ele>74.0</ele><time>2026-04-04T17:14:44.688Z</time></trkpt><trkpt lat="43.9629283" lon="12.7632567"><ele>74.5</ele><time>2026-04-04T17:14:45.687Z</time></trkpt><trkpt lat="43.9629067" lon="12.7630583"><ele>75.0</ele><time>2026-04-04T17:14:46.687Z</time></trkpt><trkpt lat="43.962885" lon="12.7628567"><ele>75.25</ele><time>2026-04-04T17:14:47.689Z</time></trkpt><trkpt lat="43.9628733" lon="12.7626533"><ele>75.5</ele><time>2026-04-04T17:14:48.688Z</time></trkpt><trkpt lat="43.962885" lon="12.76246"><ele>75.75</ele><time>2026-04-04T17:14:49.689Z</time></trkpt><trkpt lat="43.96292" lon="12.762275"><ele>76.0</ele><time>2026-04-04T17:14:50.688Z</time></trkpt><trkpt lat="43.962975" lon="12.7620983"><ele>76.0</ele><time>2026-04-04T17:14:51.688Z</time></trkpt><trkpt lat="43.9630367" lon="12.761935"><ele>76.0</ele><time>2026-04-04T17:14:52.688Z</time></trkpt><trkpt lat="43.9631033" lon="12.7617767"><ele>76.0</ele><time>2026-04-04T17:14:53.69Z</time></trkpt><trkpt lat="43.9631667" lon="12.7616283"><ele>76.0</ele><time>2026-04-04T17:14:54.687Z</time></trkpt><trkpt lat="43.9632817" lon="12.7613483"><ele>75.39999999999999</ele><time>2026-04-04T17:14:56.687Z</time></trkpt><trkpt lat="43.963335" lon="12.76122"><ele>74.8</ele><time>2026-04-04T17:14:57.686Z</time></trkpt><trkpt lat="43.9633583" lon="12.761085"><ele>74.19999999999999</ele><time>2026-04-04T17:14:58.686Z</time></trkpt><trkpt lat="43.9633533" lon="12.760935"><ele>73.6</ele><time>2026-04-04T17:14:59.686Z</time></trkpt><trkpt lat="43.96334" lon="12.7607817"><ele>73.0</ele><time>2026-04-04T17:15:00.69Z</time></trkpt><trkpt lat="43.9633267" lon="12.7606267"><ele>70.75</ele><time>2026-04-04T17:15:01.69Z</time></trkpt><trkpt lat="43.9633167" lon="12.7604667"><ele>68.5</ele><time>2026-04-04T17:15:02.683Z</time></trkpt><trkpt lat="43.963305" lon="12.7603083"><ele>66.25</ele><time>2026-04-04T17:15:03.685Z</time></trkpt><trkpt lat="43.9632833" lon="12.76015"><ele>64.0</ele><time>2026-04-04T17:15:04.687Z</time></trkpt><trkpt lat="43.9632583" lon="12.7599967"><ele>62.400000000000006</ele><time>2026-04-04T17:15:05.687Z</time></trkpt><trkpt lat="43.9632317" lon="12.759845"><ele>60.800000000000004</ele><time>2026-04-04T17:15:06.688Z</time></trkpt><trkpt lat="43.9632083" lon="12.75971"><ele>59.199999999999996</ele><time>2026-04-04T17:15:07.689Z</time></trkpt><trkpt lat="43.9631783" lon="12.7595983"><ele>57.599999999999994</ele><time>2026-04-04T17:15:08.683Z</time></trkpt><trkpt lat="43.96314" lon="12.7595017"><ele>56.0</ele><time>2026-04-04T17:15:09.686Z</time></trkpt><trkpt lat="43.96309" lon="12.7594233"><ele>56.0</ele><time>2026-04-04T17:15:10.687Z</time></trkpt><trkpt lat="43.96302" lon="12.7593667"><ele>55.99999999999999</ele><time>2026-04-04T17:15:11.686Z</time></trkpt><trkpt lat="43.96292" lon="12.75935"><ele>55.99999999999999</ele><time>2026-04-04T17:15:12.687Z</time></trkpt><trkpt lat="43.9628067" lon="12.7593667"><ele>56.0</ele><time>2026-04-04T17:15:13.689Z</time></trkpt><trkpt lat="43.9627067" lon="12.7593867"><ele>56.0</ele><time>2026-04-04T17:15:14.685Z</time></trkpt><trkpt lat="43.9626067" lon="12.7594233"><ele>53.599999999999994</ele><time>2026-04-04T17:15:15.688Z</time></trkpt><trkpt lat="43.9624433" lon="12.7595983"><ele>51.199999999999996</ele><time>2026-04-04T17:15:17.688Z</time></trkpt><trkpt lat="43.9623733" lon="12.7596483"><ele>48.8</ele><time>2026-04-04T17:15:18.687Z</time></trkpt><trkpt lat="43.9623033" lon="12.7596667"><ele>46.400000000000006</ele><time>2026-04-04T17:15:19.688Z</time></trkpt><trkpt lat="43.9622283" lon="12.7596217"><ele>44.0</ele><time>2026-04-04T17:15:20.69Z</time></trkpt><trkpt lat="43.962155" lon="12.7595633"><ele>44.0</ele><time>2026-04-04T17:15:21.687Z</time></trkpt><trkpt lat="43.9621317" lon="12.7594667"><ele>44.0</ele><time>2026-04-04T17:15:22.688Z</time></trkpt><trkpt lat="43.962135" lon="12.7593417"><ele>44.0</ele><time>2026-04-04T17:15:23.688Z</time></trkpt><trkpt lat="43.9621567" lon="12.7592383"><ele>44.0</ele><time>2026-04-04T17:15:24.688Z</time></trkpt><trkpt lat="43.962235" lon="12.7590933"><ele>44.0</ele><time>2026-04-04T17:15:25.687Z</time></trkpt><trkpt lat="43.9623083" lon="12.7589767"><ele>43.400000000000006</ele><time>2026-04-04T17:15:26.685Z</time></trkpt><trkpt lat="43.9623883" lon="12.7588133"><ele>42.8</ele><time>2026-04-04T17:15:27.688Z</time></trkpt><trkpt lat="43.96241" lon="12.7586967"><ele>42.2</ele><time>2026-04-04T17:15:28.688Z</time></trkpt><trkpt lat="43.96239" lon="12.7586117"><ele>41.599999999999994</ele><time>2026-04-04T17:15:29.685Z</time></trkpt><trkpt lat="43.9622867" lon="12.7585417"><ele>41.0</ele><time>2026-04-04T17:15:31.69Z</time></trkpt><trkpt lat="43.962215" lon="12.7585733"><ele>41.0</ele><time>2026-04-04T17:15:32.689Z</time></trkpt><trkpt lat="43.96213" lon="12.75864"><ele>41.0</ele><time>2026-04-04T17:15:33.689Z</time></trkpt><trkpt lat="43.9620633" lon="12.7587617"><ele>41.0</ele><time>2026-04-04T17:15:34.687Z</time></trkpt><trkpt lat="43.9620067" lon="12.758875"><ele>41.0</ele><time>2026-04-04T17:15:35.69Z</time></trkpt><trkpt lat="43.96195" lon="12.75897"><ele>41.0</ele><time>2026-04-04T17:15:36.688Z</time></trkpt><trkpt lat="43.96182" lon="12.7590883"><ele>41.0</ele><time>2026-04-04T17:15:38.686Z</time></trkpt><trkpt lat="43.9617033" lon="12.7590883"><ele>41.0</ele><time>2026-04-04T17:15:40.687Z</time></trkpt><trkpt lat="43.9616333" lon="12.7590033"><ele>41.0</ele><time>2026-04-04T17:15:42.686Z</time></trkpt><trkpt lat="43.9616983" lon="12.7588417"><ele>41.0</ele><time>2026-04-04T17:15:44.688Z</time></trkpt><trkpt lat="43.9617867" lon="12.7587117"><ele>41.0</ele><time>2026-04-04T17:15:45.686Z</time></trkpt><trkpt lat="43.9618833" lon="12.758575"><ele>41.0</ele><time>2026-04-04T17:15:46.687Z</time></trkpt><trkpt lat="43.9619517" lon="12.75846"><ele>41.0</ele><time>2026-04-04T17:15:47.688Z</time></trkpt><trkpt lat="43.96201" lon="12.7583533"><ele>41.0</ele><time>2026-04-04T17:15:48.687Z</time></trkpt><trkpt lat="43.9620433" lon="12.7582467"><ele>41.0</ele><time>2026-04-04T17:15:49.688Z</time></trkpt><trkpt lat="43.9620633" lon="12.7581167"><ele>38.8</ele><time>2026-04-04T17:15:51.687Z</time></trkpt><trkpt lat="43.9620017" lon="12.7580067"><ele>36.599999999999994</ele><time>2026-04-04T17:15:53.688Z</time></trkpt><trkpt lat="43.9619383" lon="12.7579483"><ele>34.4</ele><time>2026-04-04T17:15:54.687Z</time></trkpt><trkpt lat="43.9618333" lon="12.757855"><ele>32.2</ele><time>2026-04-04T17:15:56.686Z</time></trkpt><trkpt lat="43.9617583" lon="12.75783"><ele>30.0</ele><time>2026-04-04T17:15:58.686Z</time></trkpt><trkpt lat="43.9616183" lon="12.7579667"><ele>28.0</ele><time>2026-04-04T17:16:01.687Z</time></trkpt><trkpt lat="43.9615567" lon="12.7580567"><ele>26.0</ele><time>2026-04-04T17:16:02.687Z</time></trkpt><trkpt lat="43.96149" lon="12.75817"><ele>24.0</ele><time>2026-04-04T17:16:03.687Z</time></trkpt><trkpt lat="43.96142" lon="12.7582983"><ele>22.0</ele><time>2026-04-04T17:16:04.687Z</time></trkpt><trkpt lat="43.961345" lon="12.7584233"><ele>20.0</ele><time>2026-04-04T17:16:05.689Z</time></trkpt><trkpt lat="43.961265" lon="12.7585517"><ele>20.0</ele><time>2026-04-04T17:16:06.687Z</time></trkpt><trkpt lat="43.9611833" lon="12.75868"><ele>20.0</ele><time>2026-04-04T17:16:07.69Z</time></trkpt><trkpt lat="43.9610983" lon="12.7588067"><ele>20.0</ele><time>2026-04-04T17:16:08.688Z</time></trkpt><trkpt lat="43.96101" lon="12.7589317"><ele>20.0</ele><time>2026-04-04T17:16:09.688Z</time></trkpt><trkpt lat="43.960915" lon="12.7590533"><ele>17.5</ele><time>2026-04-04T17:16:10.686Z</time></trkpt><trkpt lat="43.9608183" lon="12.759175"><ele>15.0</ele><time>2026-04-04T17:16:11.687Z</time></trkpt><trkpt lat="43.96072" lon="12.7592967"><ele>12.5</ele><time>2026-04-04T17:16:12.687Z</time></trkpt><trkpt lat="43.9606133" lon="12.7594067"><ele>10.0</ele><time>2026-04-04T17:16:13.688Z</time></trkpt><trkpt lat="43.96051" lon="12.7595217"><ele>10.0</ele><time>2026-04-04T17:16:14.688Z</time></trkpt><trkpt lat="43.96041" lon="12.7596383"><ele>10.0</ele><time>2026-04-04T17:16:15.687Z</time></trkpt><trkpt lat="43.9603133" lon="12.7597583"><ele>10.0</ele><time>2026-04-04T17:16:16.688Z</time></trkpt><trkpt lat="43.96022" lon="12.7598717"><ele>10.0</ele><time>2026-04-04T17:16:17.686Z</time></trkpt><trkpt lat="43.9601317" lon="12.759975"><ele>10.0</ele><time>2026-04-04T17:16:18.687Z</time></trkpt><trkpt lat="43.9600517" lon="12.7600733"><ele>10.0</ele><time>2026-04-04T17:16:19.688Z</time></trkpt><trkpt lat="43.9599083" lon="12.7602133"><ele>10.0</ele><time>2026-04-04T17:16:21.686Z</time></trkpt><trkpt lat="43.9598383" lon="12.7602533"><ele>10.0</ele><time>2026-04-04T17:16:22.688Z</time></trkpt><trkpt lat="43.9597683" lon="12.7602583"><ele>10.0</ele><time>2026-04-04T17:16:23.688Z</time></trkpt><trkpt lat="43.959705" lon="12.7602183"><ele>9.8</ele><time>2026-04-04T17:16:24.685Z</time></trkpt><trkpt lat="43.9596433" lon="12.7601783"><ele>9.6</ele><time>2026-04-04T17:16:25.688Z</time></trkpt><trkpt lat="43.9595867" lon="12.760085"><ele>9.4</ele><time>2026-04-04T17:16:26.687Z</time></trkpt><trkpt lat="43.9595783" lon="12.7599217"><ele>9.2</ele><time>2026-04-04T17:16:27.687Z</time></trkpt><trkpt lat="43.959565" lon="12.7597167"><ele>9.0</ele><time>2026-04-04T17:16:28.688Z</time></trkpt><trkpt lat="43.9595933" lon="12.7594517"><ele>8.0</ele><time>2026-04-04T17:16:29.688Z</time></trkpt><trkpt lat="43.959585" lon="12.75925"><ele>7.0</ele><time>2026-04-04T17:16:30.687Z</time></trkpt><trkpt lat="43.9595717" lon="12.7590683"><ele>6.0</ele><time>2026-04-04T17:16:31.691Z</time></trkpt><trkpt lat="43.9595583" lon="12.758895"><ele>5.0</ele><time>2026-04-04T17:16:32.689Z</time></trkpt><trkpt lat="43.9595433" lon="12.75873"><ele>5.0</ele><time>2026-04-04T17:16:33.687Z</time></trkpt><trkpt lat="43.95953" lon="12.7585667"><ele>5.0</ele><time>2026-04-04T17:16:34.687Z</time></trkpt><trkpt lat="43.959515" lon="12.7584167"><ele>5.0</ele><time>2026-04-04T17:16:35.69Z</time></trkpt><trkpt lat="43.959505" lon="12.7582783"><ele>5.0</ele><time>2026-04-04T17:16:36.687Z</time></trkpt><trkpt lat="43.959495" lon="12.758155"><ele>5.0</ele><time>2026-04-04T17:16:37.69Z</time></trkpt><trkpt lat="43.9594883" lon="12.75805"><ele>5.2</ele><time>2026-04-04T17:16:38.688Z</time></trkpt><trkpt lat="43.9594817" lon="12.7579567"><ele>5.4</ele><time>2026-04-04T17:16:39.686Z</time></trkpt><trkpt lat="43.9594767" lon="12.75782"><ele>5.6</ele><time>2026-04-04T17:16:41.689Z</time></trkpt><trkpt lat="43.9595183" lon="12.7576017"><ele>5.8</ele><time>2026-04-04T17:16:51.688Z</time></trkpt><trkpt lat="43.959495" lon="12.7574817"><ele>6.0</ele><time>2026-04-04T17:16:53.688Z</time></trkpt><trkpt lat="43.9594617" lon="12.7573583"><ele>6.4</ele><time>2026-04-04T17:16:55.689Z</time></trkpt><trkpt lat="43.9594583" lon="12.7572433"><ele>6.8</ele><time>2026-04-04T17:16:57.687Z</time></trkpt><trkpt lat="43.959475" lon="12.7571467"><ele>7.200000000000001</ele><time>2026-04-04T17:16:59.687Z</time></trkpt><trkpt lat="43.9594917" lon="12.757005"><ele>7.6000000000000005</ele><time>2026-04-04T17:17:01.69Z</time></trkpt><trkpt lat="43.959505" lon="12.7568317"><ele>8.0</ele><time>2026-04-04T17:17:03.689Z</time></trkpt><trkpt lat="43.9595183" lon="12.7565967"><ele>8.166666666666666</ele><time>2026-04-04T17:17:06.688Z</time></trkpt><trkpt lat="43.9595267" lon="12.7565017"><ele>8.333333333333332</ele><time>2026-04-04T17:17:08.69Z</time></trkpt><trkpt lat="43.9595533" lon="12.756415"><ele>8.5</ele><time>2026-04-04T17:17:11.69Z</time></trkpt><trkpt lat="43.959595" lon="12.7563067"><ele>8.666666666666666</ele><time>2026-04-04T17:17:18.688Z</time></trkpt><trkpt lat="43.9595817" lon="12.7561717"><ele>8.833333333333334</ele><time>2026-04-04T17:17:20.685Z</time></trkpt><trkpt lat="43.959565" lon="12.7560733"><ele>9.0</ele><time>2026-04-04T17:17:23.686Z</time></trkpt><trkpt lat="43.959575" lon="12.7559417"><ele>9.0</ele><time>2026-04-04T17:17:26.686Z</time></trkpt><trkpt lat="43.95959" lon="12.75573"><ele>9.0</ele><time>2026-04-04T17:17:28.688Z</time></trkpt><trkpt lat="43.9596" lon="12.7556167"><ele>9.0</ele><time>2026-04-04T17:17:29.688Z</time></trkpt><trkpt lat="43.9596133" lon="12.7554917"><ele>9.0</ele><time>2026-04-04T17:17:30.688Z</time></trkpt><trkpt lat="43.959625" lon="12.7553733"><ele>9.0</ele><time>2026-04-04T17:17:31.689Z</time></trkpt><trkpt lat="43.9596367" lon="12.7552617"><ele>9.000000000000002</ele><time>2026-04-04T17:17:32.686Z</time></trkpt><trkpt lat="43.959645" lon="12.7551633"><ele>9.0</ele><time>2026-04-04T17:17:33.687Z</time></trkpt><trkpt lat="43.9596517" lon="12.7550617"><ele>9.0</ele><time>2026-04-04T17:17:34.689Z</time></trkpt><trkpt lat="43.9596583" lon="12.75496"><ele>9.0</ele><time>2026-04-04T17:17:35.69Z</time></trkpt><trkpt lat="43.9596683" lon="12.7548717"><ele>9.0</ele><time>2026-04-04T17:17:36.687Z</time></trkpt><trkpt lat="43.9596767" lon="12.7547817"><ele>9.000000000000002</ele><time>2026-04-04T17:17:37.689Z</time></trkpt><trkpt lat="43.959685" lon="12.7546867"><ele>9.0</ele><time>2026-04-04T17:17:38.686Z</time></trkpt><trkpt lat="43.959695" lon="12.7545867"><ele>9.0</ele><time>2026-04-04T17:17:39.688Z</time></trkpt><trkpt lat="43.9596983" lon="12.7544967"><ele>9.0</ele><time>2026-04-04T17:17:40.689Z</time></trkpt><trkpt lat="43.9597133" lon="12.7543333"><ele>9.0</ele><time>2026-04-04T17:17:42.687Z</time></trkpt><trkpt lat="43.9597283" lon="12.7541883"><ele>9.0</ele><time>2026-04-04T17:17:44.687Z</time></trkpt><trkpt lat="43.959735" lon="12.75403"><ele>9.0</ele><time>2026-04-04T17:17:46.688Z</time></trkpt><trkpt lat="43.95975" lon="12.75386"><ele>8.5</ele><time>2026-04-04T17:17:48.688Z</time></trkpt><trkpt lat="43.9597733" lon="12.7536733"><ele>8.0</ele><time>2026-04-04T17:17:50.686Z</time></trkpt><trkpt lat="43.95978" lon="12.75358"><ele>7.5</ele><time>2026-04-04T17:17:51.687Z</time></trkpt><trkpt lat="43.95979" lon="12.7534817"><ele>7.0</ele><time>2026-04-04T17:17:52.689Z</time></trkpt><trkpt lat="43.9597983" lon="12.75338"><ele>6.5</ele><time>2026-04-04T17:17:53.688Z</time></trkpt><trkpt lat="43.9598067" lon="12.7532783"><ele>6.0</ele><time>2026-04-04T17:17:54.688Z</time></trkpt><trkpt lat="43.959815" lon="12.753175"><ele>6.142857142857142</ele><time>2026-04-04T17:17:55.688Z</time></trkpt><trkpt lat="43.959825" lon="12.75307"><ele>6.285714285714286</ele><time>2026-04-04T17:17:56.687Z</time></trkpt><trkpt lat="43.9598317" lon="12.7529633"><ele>6.428571428571429</ele><time>2026-04-04T17:17:57.687Z</time></trkpt><trkpt lat="43.95984" lon="12.7528567"><ele>6.571428571428571</ele><time>2026-04-04T17:17:58.688Z</time></trkpt><trkpt lat="43.9598483" lon="12.7527533"><ele>6.714285714285714</ele><time>2026-04-04T17:17:59.688Z</time></trkpt><trkpt lat="43.959855" lon="12.7526583"><ele>6.857142857142857</ele><time>2026-04-04T17:18:00.688Z</time></trkpt><trkpt lat="43.9598667" lon="12.7525683"><ele>7.0</ele><time>2026-04-04T17:18:01.693Z</time></trkpt><trkpt lat="43.959885" lon="12.75241"><ele>7.0</ele><time>2026-04-04T17:18:03.687Z</time></trkpt><trkpt lat="43.9598967" lon="12.7522683"><ele>7.0</ele><time>2026-04-04T17:18:05.686Z</time></trkpt><trkpt lat="43.9599133" lon="12.75212"><ele>7.0</ele><time>2026-04-04T17:18:07.69Z</time></trkpt><trkpt lat="43.95993" lon="12.7519567"><ele>7.0</ele><time>2026-04-04T17:18:09.686Z</time></trkpt><trkpt lat="43.9599483" lon="12.751775"><ele>7.166666666666667</ele><time>2026-04-04T17:18:11.687Z</time></trkpt><trkpt lat="43.9599567" lon="12.7516817"><ele>7.333333333333334</ele><time>2026-04-04T17:18:12.687Z</time></trkpt><trkpt lat="43.959965" lon="12.751595"><ele>7.5</ele><time>2026-04-04T17:18:13.688Z</time></trkpt><trkpt lat="43.9599833" lon="12.7514467"><ele>7.666666666666666</ele><time>2026-04-04T17:18:15.688Z</time></trkpt><trkpt lat="43.960005" lon="12.751315"><ele>7.833333333333333</ele><time>2026-04-04T17:18:17.687Z</time></trkpt><trkpt lat="43.960025" lon="12.7511867"><ele>8.0</ele><time>2026-04-04T17:18:19.689Z</time></trkpt><trkpt lat="43.9600517" lon="12.7510683"><ele>8.25</ele><time>2026-04-04T17:18:21.688Z</time></trkpt><trkpt lat="43.9600667" lon="12.750975"><ele>8.5</ele><time>2026-04-04T17:18:23.69Z</time></trkpt><trkpt lat="43.9601083" lon="12.750835"><ele>8.75</ele><time>2026-04-04T17:18:35.689Z</time></trkpt><trkpt lat="43.9602617" lon="12.750765"><ele>9.0</ele><time>2026-04-04T17:18:40.687Z</time></trkpt><trkpt lat="43.9603733" lon="12.7508"><ele>9.0</ele><time>2026-04-04T17:18:42.692Z</time></trkpt><trkpt lat="43.960495" lon="12.75084"><ele>9.0</ele><time>2026-04-04T17:18:44.685Z</time></trkpt><trkpt lat="43.960565" lon="12.750855"><ele>9.0</ele><time>2026-04-04T17:18:45.687Z</time></trkpt><trkpt lat="43.9606383" lon="12.7508617"><ele>9.0</ele><time>2026-04-04T17:18:46.688Z</time></trkpt><trkpt lat="43.9607067" lon="12.7508667"><ele>9.0</ele><time>2026-04-04T17:18:47.686Z</time></trkpt><trkpt lat="43.9607817" lon="12.7508717"><ele>9.0</ele><time>2026-04-04T17:18:48.687Z</time></trkpt><trkpt lat="43.960855" lon="12.75088"><ele>9.0</ele><time>2026-04-04T17:18:49.69Z</time></trkpt><trkpt lat="43.960925" lon="12.7508967"><ele>9.0</ele><time>2026-04-04T17:18:50.687Z</time></trkpt><trkpt lat="43.96099" lon="12.7509133"><ele>9.0</ele><time>2026-04-04T17:18:51.688Z</time></trkpt><trkpt lat="43.9610983" lon="12.7509517"><ele>9.0</ele><time>2026-04-04T17:18:53.687Z</time></trkpt><trkpt lat="43.9611917" lon="12.7510117"><ele>9.0</ele><time>2026-04-04T17:18:55.688Z</time></trkpt><trkpt lat="43.9612467" lon="12.7510667"><ele>9.0</ele><time>2026-04-04T17:18:56.684Z</time></trkpt><trkpt lat="43.9613867" lon="12.7511883"><ele>9.0</ele><time>2026-04-04T17:18:58.688Z</time></trkpt><trkpt lat="43.9614633" lon="12.7512467"><ele>9.0</ele><time>2026-04-04T17:18:59.688Z</time></trkpt><trkpt lat="43.9615367" lon="12.7513067"><ele>9.0</ele><time>2026-04-04T17:19:00.686Z</time></trkpt><trkpt lat="43.9616117" lon="12.7513733"><ele>9.0</ele><time>2026-04-04T17:19:01.688Z</time></trkpt><trkpt lat="43.9616867" lon="12.75144"><ele>9.0</ele><time>2026-04-04T17:19:02.684Z</time></trkpt><trkpt lat="43.961765" lon="12.75151"><ele>9.0</ele><time>2026-04-04T17:19:03.686Z</time></trkpt><trkpt lat="43.961855" lon="12.75159"><ele>9.0</ele><time>2026-04-04T17:19:04.687Z</time></trkpt><trkpt lat="43.961945" lon="12.7516683"><ele>9.0</ele><time>2026-04-04T17:19:05.686Z</time></trkpt><trkpt lat="43.9620333" lon="12.7517483"><ele>9.0</ele><time>2026-04-04T17:19:06.687Z</time></trkpt><trkpt lat="43.96212" lon="12.7518267"><ele>9.0</ele><time>2026-04-04T17:19:07.688Z</time></trkpt><trkpt lat="43.9622067" lon="12.7519017"><ele>9.0</ele><time>2026-04-04T17:19:08.684Z</time></trkpt><trkpt lat="43.96229" lon="12.7519833"><ele>9.0</ele><time>2026-04-04T17:19:09.687Z</time></trkpt><trkpt lat="43.962375" lon="12.752065"><ele>9.0</ele><time>2026-04-04T17:19:10.691Z</time></trkpt><trkpt lat="43.962455" lon="12.7521417"><ele>9.0</ele><time>2026-04-04T17:19:11.686Z</time></trkpt><trkpt lat="43.962535" lon="12.7522133"><ele>9.0</ele><time>2026-04-04T17:19:12.69Z</time></trkpt><trkpt lat="43.9626183" lon="12.7522767"><ele>9.0</ele><time>2026-04-04T17:19:13.688Z</time></trkpt><trkpt lat="43.9626983" lon="12.7523417"><ele>9.0</ele><time>2026-04-04T17:19:14.687Z</time></trkpt><trkpt lat="43.962785" lon="12.75241"><ele>9.0</ele><time>2026-04-04T17:19:15.687Z</time></trkpt><trkpt lat="43.9628683" lon="12.7524867"><ele>9.0</ele><time>2026-04-04T17:19:16.688Z</time></trkpt><trkpt lat="43.962945" lon="12.7525683"><ele>9.0</ele><time>2026-04-04T17:19:17.687Z</time></trkpt><trkpt lat="43.9630983" lon="12.7527083"><ele>9.0</ele><time>2026-04-04T17:19:19.688Z</time></trkpt><trkpt lat="43.9631633" lon="12.7527667"><ele>9.0</ele><time>2026-04-04T17:19:20.686Z</time></trkpt><trkpt lat="43.96322" lon="12.75282"><ele>9.0</ele><time>2026-04-04T17:19:21.685Z</time></trkpt><trkpt lat="43.9633183" lon="12.752915"><ele>9.0</ele><time>2026-04-04T17:19:23.687Z</time></trkpt><trkpt lat="43.9634283" lon="12.7530183"><ele>9.0</ele><time>2026-04-04T17:19:25.689Z</time></trkpt><trkpt lat="43.9635317" lon="12.7531067"><ele>8.8</ele><time>2026-04-04T17:19:27.687Z</time></trkpt><trkpt lat="43.9636083" lon="12.7531783"><ele>8.600000000000001</ele><time>2026-04-04T17:19:29.686Z</time></trkpt><trkpt lat="43.9636933" lon="12.7532617"><ele>8.4</ele><time>2026-04-04T17:19:31.687Z</time></trkpt><trkpt lat="43.9637867" lon="12.7533533"><ele>8.200000000000001</ele><time>2026-04-04T17:19:33.686Z</time></trkpt><trkpt lat="43.9638717" lon="12.753435"><ele>8.0</ele><time>2026-04-04T17:19:35.689Z</time></trkpt><trkpt lat="43.9639383" lon="12.75346"><ele>8.0</ele><time>2026-04-04T17:19:37.687Z</time></trkpt><trkpt lat="43.96402" lon="12.7533867"><ele>8.0</ele><time>2026-04-04T17:19:39.687Z</time></trkpt><trkpt lat="43.9641367" lon="12.75323"><ele>8.0</ele><time>2026-04-04T17:19:41.689Z</time></trkpt><trkpt lat="43.9642033" lon="12.7531283"><ele>8.0</ele><time>2026-04-04T17:19:42.686Z</time></trkpt><trkpt lat="43.964275" lon="12.753035"><ele>7.800000000000001</ele><time>2026-04-04T17:19:43.687Z</time></trkpt><trkpt lat="43.9643483" lon="12.7529383"><ele>7.6000000000000005</ele><time>2026-04-04T17:19:44.688Z</time></trkpt><trkpt lat="43.9644183" lon="12.7528533"><ele>7.3999999999999995</ele><time>2026-04-04T17:19:45.687Z</time></trkpt><trkpt lat="43.9644833" lon="12.7527717"><ele>7.199999999999999</ele><time>2026-04-04T17:19:46.687Z</time></trkpt><trkpt lat="43.9645483" lon="12.7526883"><ele>7.0</ele><time>2026-04-04T17:19:47.69Z</time></trkpt><trkpt lat="43.9646133" lon="12.7526"><ele>7.0</ele><time>2026-04-04T17:19:48.693Z</time></trkpt><trkpt lat="43.9646817" lon="12.752515"><ele>6.999999999999999</ele><time>2026-04-04T17:19:49.694Z</time></trkpt><trkpt lat="43.9647517" lon="12.752425"><ele>6.999999999999999</ele><time>2026-04-04T17:19:50.69Z</time></trkpt><trkpt lat="43.96482" lon="12.752335"><ele>7.0</ele><time>2026-04-04T17:19:51.692Z</time></trkpt><trkpt lat="43.96489" lon="12.7522483"><ele>7.0</ele><time>2026-04-04T17:19:52.693Z</time></trkpt><trkpt lat="43.9649533" lon="12.752155"><ele>7.0</ele><time>2026-04-04T17:19:53.689Z</time></trkpt><trkpt lat="43.9650183" lon="12.7520617"><ele>6.999999999999999</ele><time>2026-04-04T17:19:54.691Z</time></trkpt><trkpt lat="43.965085" lon="12.7519667"><ele>6.999999999999999</ele><time>2026-04-04T17:19:55.69Z</time></trkpt><trkpt lat="43.9651533" lon="12.7518683"><ele>7.0</ele><time>2026-04-04T17:19:56.69Z</time></trkpt><trkpt lat="43.9652233" lon="12.751775"><ele>7.0</ele><time>2026-04-04T17:19:57.689Z</time></trkpt><trkpt lat="43.9653" lon="12.7516783"><ele>6.5</ele><time>2026-04-04T17:19:58.688Z</time></trkpt><trkpt lat="43.96537" lon="12.7515783"><ele>6.0</ele><time>2026-04-04T17:19:59.691Z</time></trkpt><trkpt lat="43.965445" lon="12.7514833"><ele>5.5</ele><time>2026-04-04T17:20:00.692Z</time></trkpt><trkpt lat="43.9655867" lon="12.7512933"><ele>5.0</ele><time>2026-04-04T17:20:02.688Z</time></trkpt><trkpt lat="43.9656567" lon="12.7512017"><ele>5.0</ele><time>2026-04-04T17:20:03.693Z</time></trkpt><trkpt lat="43.9657267" lon="12.7511033"><ele>5.0</ele><time>2026-04-04T17:20:04.689Z</time></trkpt><trkpt lat="43.9657883" lon="12.7510083"><ele>5.0</ele><time>2026-04-04T17:20:05.694Z</time></trkpt><trkpt lat="43.9658433" lon="12.750925"><ele>5.0</ele><time>2026-04-04T17:20:06.694Z</time></trkpt><trkpt lat="43.9658933" lon="12.750865"><ele>5.0</ele><time>2026-04-04T17:20:07.696Z</time></trkpt><trkpt lat="43.9659933" lon="12.7508667"><ele>5.0</ele><time>2026-04-04T17:20:09.691Z</time></trkpt><trkpt lat="43.9660483" lon="12.750925"><ele>5.0</ele><time>2026-04-04T17:20:10.689Z</time></trkpt><trkpt lat="43.9661067" lon="12.7509967"><ele>5.0</ele><time>2026-04-04T17:20:11.694Z</time></trkpt><trkpt lat="43.96616" lon="12.751065"><ele>5.0</ele><time>2026-04-04T17:20:12.688Z</time></trkpt><trkpt lat="43.9662133" lon="12.7511383"><ele>5.0</ele><time>2026-04-04T17:20:13.69Z</time></trkpt><trkpt lat="43.9662483" lon="12.7512317"><ele>5.0</ele><time>2026-04-04T17:20:14.688Z</time></trkpt><trkpt lat="43.9662733" lon="12.75133"><ele>5.0</ele><time>2026-04-04T17:20:15.689Z</time></trkpt><trkpt lat="43.9663067" lon="12.751415"><ele>5.0</ele><time>2026-04-04T17:20:16.69Z</time></trkpt><trkpt lat="43.9663933" lon="12.7514917"><ele>5.0</ele><time>2026-04-04T17:20:18.689Z</time></trkpt><trkpt lat="43.966515" lon="12.7514367"><ele>5.0</ele><time>2026-04-04T17:20:20.689Z</time></trkpt><trkpt lat="43.966595" lon="12.7513617"><ele>5.0</ele><time>2026-04-04T17:20:21.689Z</time></trkpt><trkpt lat="43.9667517" lon="12.7512433"><ele>5.0</ele><time>2026-04-04T17:20:23.692Z</time></trkpt><trkpt lat="43.9668267" lon="12.7511867"><ele>5.166666666666667</ele><time>2026-04-04T17:20:24.693Z</time></trkpt><trkpt lat="43.9668983" lon="12.7511267"><ele>5.333333333333334</ele><time>2026-04-04T17:20:25.692Z</time></trkpt><trkpt lat="43.9669717" lon="12.7510617"><ele>5.5</ele><time>2026-04-04T17:20:26.693Z</time></trkpt><trkpt lat="43.967045" lon="12.751"><ele>5.666666666666667</ele><time>2026-04-04T17:20:27.689Z</time></trkpt><trkpt lat="43.9671183" lon="12.7509367"><ele>5.833333333333333</ele><time>2026-04-04T17:20:28.69Z</time></trkpt><trkpt lat="43.967185" lon="12.7508733"><ele>6.0</ele><time>2026-04-04T17:20:29.692Z</time></trkpt><trkpt lat="43.9672417" lon="12.7508083"><ele>5.7142857142857135</ele><time>2026-04-04T17:20:30.694Z</time></trkpt><trkpt lat="43.9672983" lon="12.750745"><ele>5.428571428571429</ele><time>2026-04-04T17:20:31.696Z</time></trkpt><trkpt lat="43.9673567" lon="12.75069"><ele>5.142857142857142</ele><time>2026-04-04T17:20:32.694Z</time></trkpt><trkpt lat="43.9674217" lon="12.7506517"><ele>4.857142857142857</ele><time>2026-04-04T17:20:33.694Z</time></trkpt><trkpt lat="43.9674933" lon="12.750625"><ele>4.571428571428571</ele><time>2026-04-04T17:20:34.693Z</time></trkpt><trkpt lat="43.9675683" lon="12.7506167"><ele>4.285714285714286</ele><time>2026-04-04T17:20:35.694Z</time></trkpt><trkpt lat="43.9676417" lon="12.7506183"><ele>4.0</ele><time>2026-04-04T17:20:36.692Z</time></trkpt><trkpt lat="43.96771" lon="12.7506267"><ele>3.5</ele><time>2026-04-04T17:20:37.691Z</time></trkpt><trkpt lat="43.9677733" lon="12.7506283"><ele>3.0</ele><time>2026-04-04T17:20:38.689Z</time></trkpt><trkpt lat="43.9678917" lon="12.7506183"><ele>2.5</ele><time>2026-04-04T17:20:40.689Z</time></trkpt><trkpt lat="43.9679967" lon="12.7506"><ele>2.0</ele><time>2026-04-04T17:20:42.693Z</time></trkpt><trkpt lat="43.9681183" lon="12.7504133"><ele>2.0</ele><time>2026-04-04T17:20:46.695Z</time></trkpt><trkpt lat="43.96814" lon="12.7502667"><ele>2.0</ele><time>2026-04-04T17:20:48.69Z</time></trkpt><trkpt lat="43.9681417" lon="12.7501117"><ele>2.0</ele><time>2026-04-04T17:20:50.689Z</time></trkpt><trkpt lat="43.9681317" lon="12.7499533"><ele>2.0</ele><time>2026-04-04T17:20:52.69Z</time></trkpt><trkpt lat="43.9681183" lon="12.7497933"><ele>1.5</ele><time>2026-04-04T17:20:54.689Z</time></trkpt><trkpt lat="43.9681017" lon="12.74963"><ele>1.0</ele><time>2026-04-04T17:20:56.694Z</time></trkpt><trkpt lat="43.968095" lon="12.7494567"><ele>0.5</ele><time>2026-04-04T17:20:58.69Z</time></trkpt><trkpt lat="43.968095" lon="12.7492917"><ele>0.0</ele><time>2026-04-04T17:21:00.69Z</time></trkpt><trkpt lat="43.968095" lon="12.749135"><ele>0.0</ele><time>2026-04-04T17:21:02.694Z</time></trkpt><trkpt lat="43.968095" lon="12.74899"><ele>0.0</ele><time>2026-04-04T17:21:04.695Z</time></trkpt><trkpt lat="43.9680883" lon="12.7487633"><ele>0.0</ele><time>2026-04-04T17:21:08.694Z</time></trkpt><trkpt lat="43.9680867" lon="12.74867"><ele>0.0</ele><time>2026-04-04T17:21:13.693Z</time></trkpt><trkpt lat="43.9680883" lon="12.748535"><ele>0.0</ele><time>2026-04-04T17:21:20.694Z</time></trkpt><trkpt lat="43.9681183" lon="12.74844"><ele>0.0</ele><time>2026-04-04T17:21:25.696Z</time></trkpt><trkpt lat="43.9682633" lon="12.74839"><ele>0.0</ele><time>2026-04-04T17:21:31.693Z</time></trkpt><trkpt lat="43.9683317" lon="12.7483833"><ele>0.0</ele><time>2026-04-04T17:21:33.69Z</time></trkpt><trkpt lat="43.9684083" lon="12.74838"><ele>0.0</ele><time>2026-04-04T17:21:35.691Z</time></trkpt><trkpt lat="43.96849" lon="12.748385"><ele>0.0</ele><time>2026-04-04T17:21:37.697Z</time></trkpt><trkpt lat="43.9685667" lon="12.748385"><ele>0.0</ele><time>2026-04-04T17:21:39.692Z</time></trkpt><trkpt lat="43.9686367" lon="12.7483833"><ele>0.0</ele><time>2026-04-04T17:21:41.694Z</time></trkpt><trkpt lat="43.9687" lon="12.7483783"><ele>0.0</ele><time>2026-04-04T17:21:43.691Z</time></trkpt><trkpt lat="43.9687683" lon="12.74838"><ele>0.0</ele><time>2026-04-04T17:21:46.692Z</time></trkpt><trkpt lat="43.968915" lon="12.7483667"><ele>0.0</ele><time>2026-04-04T17:21:56.692Z</time></trkpt><trkpt lat="43.9690033" lon="12.7483617"><ele>0.0</ele><time>2026-04-04T17:21:59.692Z</time></trkpt><trkpt lat="43.9690683" lon="12.74838"><ele>0.0</ele><time>2026-04-04T17:22:01.695Z</time></trkpt><trkpt lat="43.9691367" lon="12.7483817"><ele>0.0</ele><time>2026-04-04T17:22:03.692Z</time></trkpt><trkpt lat="43.9692" lon="12.7483767"><ele>0.0</ele><time>2026-04-04T17:22:05.694Z</time></trkpt><trkpt lat="43.9692817" lon="12.7483783"><ele>0.0</ele><time>2026-04-04T17:22:08.692Z</time></trkpt><trkpt lat="43.969375" lon="12.7484833"><ele>0.0</ele><time>2026-04-04T17:22:16.693Z</time></trkpt><trkpt lat="43.9693817" lon="12.748605"><ele>0.0</ele><time>2026-04-04T17:22:19.692Z</time></trkpt><trkpt lat="43.9693867" lon="12.7487367"><ele>0.0</ele><time>2026-04-04T17:22:22.692Z</time></trkpt><trkpt lat="43.96938" lon="12.7488367"><ele>0.0</ele><time>2026-04-04T17:22:25.693Z</time></trkpt><trkpt lat="43.96938" lon="12.7489433"><ele>0.0</ele><time>2026-04-04T17:22:28.689Z</time></trkpt><trkpt lat="43.9693783" lon="12.7490467"><ele>0.0</ele><time>2026-04-04T17:22:31.695Z</time></trkpt><trkpt lat="43.9693867" lon="12.7493267"><ele>0.0</ele><time>2026-04-04T17:22:44.694Z</time></trkpt><trkpt lat="43.9693867" lon="12.74943"><ele>0.0</ele><time>2026-04-04T17:22:46.694Z</time></trkpt><trkpt lat="43.969385" lon="12.7495317"><ele>0.0</ele><time>2026-04-04T17:22:48.693Z</time></trkpt><trkpt lat="43.9693833" lon="12.74964"><ele>0.0</ele><time>2026-04-04T17:22:50.692Z</time></trkpt><trkpt lat="43.9693867" lon="12.749735"><ele>0.0</ele><time>2026-04-04T17:22:52.693Z</time></trkpt><trkpt lat="43.969385" lon="12.7499767"><ele>0.0</ele><time>2026-04-04T17:22:58.694Z</time></trkpt><trkpt lat="43.9693867" lon="12.7500683"><ele>0.0</ele><time>2026-04-04T17:23:00.695Z</time></trkpt><trkpt lat="43.9693883" lon="12.7501883"><ele>0.0</ele><time>2026-04-04T17:23:03.694Z</time></trkpt><trkpt lat="43.9693917" lon="12.7503067"><ele>0.0</ele><time>2026-04-04T17:23:06.691Z</time></trkpt><trkpt lat="43.9693817" lon="12.7504017"><ele>0.0</ele><time>2026-04-04T17:23:09.688Z</time></trkpt><trkpt lat="43.9693133" lon="12.750435"><ele>0.0</ele><time>2026-04-04T17:23:12.689Z</time></trkpt><trkpt lat="43.96924" lon="12.7504317"><ele>0.0</ele><time>2026-04-04T17:23:15.69Z</time></trkpt><trkpt lat="43.9690983" lon="12.7504233"><ele>0.0</ele><time>2026-04-04T17:23:21.689Z</time></trkpt><trkpt lat="43.9690317" lon="12.7504333"><ele>0.0</ele><time>2026-04-04T17:23:25.692Z</time></trkpt><trkpt lat="43.96911" lon="12.75047"><ele>0.0</ele><time>2026-04-04T17:23:29.691Z</time></trkpt><trkpt lat="43.9691967" lon="12.7504817"><ele>0.0</ele><time>2026-04-04T17:23:32.694Z</time></trkpt><trkpt lat="43.969265" lon="12.750495"><ele>0.0</ele><time>2026-04-04T17:23:34.689Z</time></trkpt><trkpt lat="43.969335" lon="12.75049"><ele>0.0</ele><time>2026-04-04T17:23:36.693Z</time></trkpt><trkpt lat="43.9694267" lon="12.7503433"><ele>0.0</ele><time>2026-04-04T17:23:40.689Z</time></trkpt><trkpt lat="43.96943" lon="12.7502317"><ele>0.0</ele><time>2026-04-04T17:23:42.694Z</time></trkpt><trkpt lat="43.9694283" lon="12.7501233"><ele>0.0</ele><time>2026-04-04T17:23:44.694Z</time></trkpt><trkpt lat="43.9694133" lon="12.7499833"><ele>0.0</ele><time>2026-04-04T17:23:46.689Z</time></trkpt><trkpt lat="43.9694067" lon="12.7498317"><ele>0.0</ele><time>2026-04-04T17:23:48.69Z</time></trkpt><trkpt lat="43.9694017" lon="12.7496633"><ele>0.0</ele><time>2026-04-04T17:23:50.69Z</time></trkpt><trkpt lat="43.9694017" lon="12.7494883"><ele>0.0</ele><time>2026-04-04T17:23:52.694Z</time></trkpt><trkpt lat="43.9694017" lon="12.749315"><ele>0.0</ele><time>2026-04-04T17:23:54.693Z</time></trkpt><trkpt lat="43.9694017" lon="12.7491433"><ele>0.0</ele><time>2026-04-04T17:23:56.689Z</time></trkpt><trkpt lat="43.9694" lon="12.7489717"><ele>0.0</ele><time>2026-04-04T17:23:58.689Z</time></trkpt><trkpt lat="43.969395" lon="12.7486383"><ele>0.0</ele><time>2026-04-04T17:24:02.693Z</time></trkpt><trkpt lat="43.9693917" lon="12.7484933"><ele>0.0</ele><time>2026-04-04T17:24:04.693Z</time></trkpt><trkpt lat="43.9693817" lon="12.7483733"><ele>0.0</ele><time>2026-04-04T17:24:06.691Z</time></trkpt><trkpt lat="43.9693283" lon="12.74831"><ele>0.0</ele><time>2026-04-04T17:24:08.69Z</time></trkpt></trkseg></trk></gpx>